<?xml version='1.0' encoding='UTF-8'?><gpx version="1.1" creator="JPX - https://github.com/jenetics/jpx" xmlns="http://www.topografix.com/GPX/1/1"><trk><trkseg><trkpt lat="41.925782722430185" lon="15.875758143730257"><ele>61.0</ele><time>2026-03-22T06:12:56.389Z</time></trkpt><trkpt lat="41.92562307455314" lon="15.875648632564218"><ele>61.0</ele><time>2026-03-22T06:13:10.238Z</time></trkpt><trkpt lat="41.92569542507982" lon="15.875750392448705"><ele>61.0</ele><time>2026-03-22T06:13:25Z</time></trkpt><trkpt lat="41.9256305879413" lon="15.875724392142143"><ele>61.0</ele><time>2026-03-22T06:14:22.999Z</time></trkpt><trkpt lat="41.925600932957195" lon="15.875877866116898"><ele>61.599999999999994</ele><time>2026-03-22T06:16:01.146Z</time></trkpt><trkpt lat="41.92551420796703" lon="15.876008880994078"><ele>62.199999999999996</ele><time>2026-03-22T06:16:03.14Z</time></trkpt><trkpt lat="41.92540115714348" lon="15.876116261724123"><ele>62.800000000000004</ele><time>2026-03-22T06:16:04.999Z</time></trkpt><trkpt lat="41.92531036083435" lon="15.876120724448606"><ele>63.400000000000006</ele><time>2026-03-22T06:16:05.999Z</time></trkpt><trkpt lat="41.925229804717866" lon="15.8761240608385"><ele>64.0</ele><time>2026-03-22T06:16:06.999Z</time></trkpt><trkpt lat="41.9251553314282" lon="15.876146741473871"><ele>64.0</ele><time>2026-03-22T06:16:07.999Z</time></trkpt><trkpt lat="41.92507133365839" lon="15.876161039701461"><ele>64.0</ele><time>2026-03-22T06:16:08.999Z</time></trkpt><trkpt lat="41.92499699799255" lon="15.876165564006905"><ele>64.0</ele><time>2026-03-22T06:16:09.999Z</time></trkpt><trkpt lat="41.924898221451144" lon="15.876127924299025"><ele>64.0</ele><time>2026-03-22T06:16:11.999Z</time></trkpt><trkpt lat="41.92482006188004" lon="15.87603456130885"><ele>64.0</ele><time>2026-03-22T06:16:13.999Z</time></trkpt><trkpt lat="41.92477589314108" lon="15.87592929048991"><ele>62.33333333333333</ele><time>2026-03-22T06:16:14.999Z</time></trkpt><trkpt lat="41.924728966025036" lon="15.87583971805551"><ele>60.666666666666664</ele><time>2026-03-22T06:16:15.999Z</time></trkpt><trkpt lat="41.924675693822415" lon="15.875737693580572"><ele>59.0</ele><time>2026-03-22T06:16:16.999Z</time></trkpt><trkpt lat="41.92463428729465" lon="15.875636848903966"><ele>57.33333333333333</ele><time>2026-03-22T06:16:17.999Z</time></trkpt><trkpt lat="41.92458800997775" lon="15.875559010630809"><ele>55.666666666666664</ele><time>2026-03-22T06:16:18.999Z</time></trkpt><trkpt lat="41.92453487804561" lon="15.875498612158932"><ele>54.0</ele><time>2026-03-22T06:16:19.999Z</time></trkpt><trkpt lat="41.924476215276144" lon="15.875467147374268"><ele>54.0</ele><time>2026-03-22T06:16:20.999Z</time></trkpt><trkpt lat="41.92439832541523" lon="15.875429031277625"><ele>54.0</ele><time>2026-03-22T06:16:21.999Z</time></trkpt><trkpt lat="41.9243311600715" lon="15.875376038267664"><ele>54.0</ele><time>2026-03-22T06:16:22.999Z</time></trkpt><trkpt lat="41.9242623012169" lon="15.875331071985675"><ele>54.0</ele><time>2026-03-22T06:16:23.999Z</time></trkpt><trkpt lat="41.92419033921435" lon="15.8752491088872"><ele>54.0</ele><time>2026-03-22T06:16:24.999Z</time></trkpt><trkpt lat="41.924139346611746" lon="15.875188737282802"><ele>54.0</ele><time>2026-03-22T06:16:25.999Z</time></trkpt><trkpt lat="41.92408943830092" lon="15.875136235573589"><ele>53.0</ele><time>2026-03-22T06:16:26.999Z</time></trkpt><trkpt lat="41.92397795759248" lon="15.875078245409641"><ele>52.00000000000001</ele><time>2026-03-22T06:16:28.999Z</time></trkpt><trkpt lat="41.923899698003936" lon="15.875022778199373"><ele>51.0</ele><time>2026-03-22T06:16:30.999Z</time></trkpt><trkpt lat="41.923876441562655" lon="15.874923751090805"><ele>50.0</ele><time>2026-03-22T06:16:32.999Z</time></trkpt><trkpt lat="41.92385225698435" lon="15.874844799066253"><ele>49.0</ele><time>2026-03-22T06:16:33.999Z</time></trkpt><trkpt lat="41.92379620144648" lon="15.874686380842814"><ele>48.99999999999999</ele><time>2026-03-22T06:16:35.999Z</time></trkpt><trkpt lat="41.92376248872257" lon="15.874587901839156"><ele>49.0</ele><time>2026-03-22T06:16:36.999Z</time></trkpt><trkpt lat="41.92371621367732" lon="15.874494402500199"><ele>49.0</ele><time>2026-03-22T06:16:37.999Z</time></trkpt><trkpt lat="41.92365765952953" lon="15.874403741105825"><ele>49.0</ele><time>2026-03-22T06:16:38.999Z</time></trkpt><trkpt lat="41.923592175588745" lon="15.874341468721061"><ele>48.99999999999999</ele><time>2026-03-22T06:16:39.999Z</time></trkpt><trkpt lat="41.92350337219022" lon="15.874288604921002"><ele>49.0</ele><time>2026-03-22T06:16:40.999Z</time></trkpt><trkpt lat="41.923412186746425" lon="15.874240222899724"><ele>49.800000000000004</ele><time>2026-03-22T06:16:41.999Z</time></trkpt><trkpt lat="41.923323200805605" lon="15.874186550647545"><ele>50.6</ele><time>2026-03-22T06:16:42.999Z</time></trkpt><trkpt lat="41.923228070398615" lon="15.874150898285556"><ele>51.4</ele><time>2026-03-22T06:16:43.999Z</time></trkpt><trkpt lat="41.92313373286397" lon="15.874140150340702"><ele>52.2</ele><time>2026-03-22T06:16:44.999Z</time></trkpt><trkpt lat="41.92302869954574" lon="15.874164549459492"><ele>53.0</ele><time>2026-03-22T06:16:45.999Z</time></trkpt><trkpt lat="41.92291847568237" lon="15.87421277193594"><ele>53.0</ele><time>2026-03-22T06:16:46.999Z</time></trkpt><trkpt lat="41.922812347756924" lon="15.874255667091623"><ele>53.0</ele><time>2026-03-22T06:16:47.999Z</time></trkpt><trkpt lat="41.92271535295033" lon="15.874299332230962"><ele>53.0</ele><time>2026-03-22T06:16:48.999Z</time></trkpt><trkpt lat="41.92261599401713" lon="15.874341568326683"><ele>53.0</ele><time>2026-03-22T06:16:49.999Z</time></trkpt><trkpt lat="41.92251441623251" lon="15.874387682867678"><ele>53.0</ele><time>2026-03-22T06:16:50.999Z</time></trkpt><trkpt lat="41.922401564988064" lon="15.874431689694088"><ele>54.599999999999994</ele><time>2026-03-22T06:16:51.999Z</time></trkpt><trkpt lat="41.92229324797694" lon="15.874478954598803"><ele>56.199999999999996</ele><time>2026-03-22T06:16:52.999Z</time></trkpt><trkpt lat="41.92218704566302" lon="15.874528339890757"><ele>57.8</ele><time>2026-03-22T06:16:53.998Z</time></trkpt><trkpt lat="41.922088820614604" lon="15.874575619067315"><ele>59.4</ele><time>2026-03-22T06:16:54.998Z</time></trkpt><trkpt lat="41.92199438249792" lon="15.874612471924465"><ele>61.0</ele><time>2026-03-22T06:16:55.998Z</time></trkpt><trkpt lat="41.921890958030644" lon="15.874645964758644"><ele>61.0</ele><time>2026-03-22T06:16:56.998Z</time></trkpt><trkpt lat="41.921781667301545" lon="15.874655785509244"><ele>60.99999999999999</ele><time>2026-03-22T06:16:57.998Z</time></trkpt><trkpt lat="41.9216800871573" lon="15.874629406823946"><ele>60.99999999999999</ele><time>2026-03-22T06:16:58.998Z</time></trkpt><trkpt lat="41.92156367267459" lon="15.874569298031824"><ele>61.0</ele><time>2026-03-22T06:16:59.998Z</time></trkpt><trkpt lat="41.921488080023934" lon="15.874472927854118"><ele>61.0</ele><time>2026-03-22T06:17:00.998Z</time></trkpt><trkpt lat="41.921410110892076" lon="15.874358605630356"><ele>59.8</ele><time>2026-03-22T06:17:01.998Z</time></trkpt><trkpt lat="41.921356374654806" lon="15.874227019578498"><ele>58.599999999999994</ele><time>2026-03-22T06:17:02.998Z</time></trkpt><trkpt lat="41.92133240806083" lon="15.874091091310495"><ele>57.4</ele><time>2026-03-22T06:17:03.998Z</time></trkpt><trkpt lat="41.92133455516405" lon="15.873948817116096"><ele>56.2</ele><time>2026-03-22T06:17:04.998Z</time></trkpt><trkpt lat="41.92135596006375" lon="15.873809499069043"><ele>55.0</ele><time>2026-03-22T06:17:05.998Z</time></trkpt><trkpt lat="41.92139739542963" lon="15.87366946662664"><ele>55.0</ele><time>2026-03-22T06:17:06.998Z</time></trkpt><trkpt lat="41.92143101075702" lon="15.873543703012388"><ele>55.0</ele><time>2026-03-22T06:17:07.998Z</time></trkpt><trkpt lat="41.921463856272695" lon="15.87339848344832"><ele>55.0</ele><time>2026-03-22T06:17:08.998Z</time></trkpt><trkpt lat="41.9214567729501" lon="15.873259942979708"><ele>55.0</ele><time>2026-03-22T06:17:09.998Z</time></trkpt><trkpt lat="41.92141189180941" lon="15.873112101043622"><ele>55.0</ele><time>2026-03-22T06:17:10.998Z</time></trkpt><trkpt lat="41.92131562845982" lon="15.873017098774055"><ele>54.8</ele><time>2026-03-22T06:17:11.998Z</time></trkpt><trkpt lat="41.92121197895372" lon="15.872946691992949"><ele>54.6</ele><time>2026-03-22T06:17:12.998Z</time></trkpt><trkpt lat="41.92110118192655" lon="15.872907032809541"><ele>54.400000000000006</ele><time>2026-03-22T06:17:13.998Z</time></trkpt><trkpt lat="41.92100043378646" lon="15.872882383111913"><ele>54.2</ele><time>2026-03-22T06:17:14.998Z</time></trkpt><trkpt lat="41.92088767841201" lon="15.872878574542291"><ele>54.0</ele><time>2026-03-22T06:17:15.998Z</time></trkpt><trkpt lat="41.92078628321408" lon="15.87287521880022"><ele>56.800000000000004</ele><time>2026-03-22T06:17:16.998Z</time></trkpt><trkpt lat="41.92069703583443" lon="15.87286499313443"><ele>59.60000000000001</ele><time>2026-03-22T06:17:17.998Z</time></trkpt><trkpt lat="41.92059895899824" lon="15.872840035443557"><ele>62.4</ele><time>2026-03-22T06:17:18.998Z</time></trkpt><trkpt lat="41.92050423421196" lon="15.872812705761637"><ele>65.2</ele><time>2026-03-22T06:17:19.998Z</time></trkpt><trkpt lat="41.92041732271485" lon="15.872775451171984"><ele>68.0</ele><time>2026-03-22T06:17:20.998Z</time></trkpt><trkpt lat="41.92033335269237" lon="15.872736280109988"><ele>68.0</ele><time>2026-03-22T06:17:21.998Z</time></trkpt><trkpt lat="41.92025889438513" lon="15.872685449983821"><ele>68.0</ele><time>2026-03-22T06:17:22.998Z</time></trkpt><trkpt lat="41.92018542723167" lon="15.872618986458217"><ele>68.0</ele><time>2026-03-22T06:17:23.998Z</time></trkpt><trkpt lat="41.920114176399316" lon="15.872568621591268"><ele>68.0</ele><time>2026-03-22T06:17:24.998Z</time></trkpt><trkpt lat="41.92004249484112" lon="15.872534942213258"><ele>68.0</ele><time>2026-03-22T06:17:25.998Z</time></trkpt><trkpt lat="41.919977687295145" lon="15.872539482159011"><ele>68.0</ele><time>2026-03-22T06:17:26.998Z</time></trkpt><trkpt lat="41.91991501775686" lon="15.872635963536183"><ele>68.0</ele><time>2026-03-22T06:17:28.998Z</time></trkpt><trkpt lat="41.91990093265624" lon="15.872725752548611"><ele>68.0</ele><time>2026-03-22T06:17:29.998Z</time></trkpt><trkpt lat="41.919933771493454" lon="15.87283012844595"><ele>68.0</ele><time>2026-03-22T06:17:30.998Z</time></trkpt><trkpt lat="41.9199719716938" lon="15.872944215389"><ele>68.0</ele><time>2026-03-22T06:17:31.998Z</time></trkpt><trkpt lat="41.92001593443603" lon="15.873045661052796"><ele>68.0</ele><time>2026-03-22T06:17:32.998Z</time></trkpt><trkpt lat="41.92007282047245" lon="15.873156529150364"><ele>68.0</ele><time>2026-03-22T06:17:33.998Z</time></trkpt><trkpt lat="41.92012049344966" lon="15.873276376847624"><ele>68.0</ele><time>2026-03-22T06:17:34.998Z</time></trkpt><trkpt lat="41.920174189564406" lon="15.873408245420633"><ele>68.0</ele><time>2026-03-22T06:17:35.998Z</time></trkpt><trkpt lat="41.920224697449115" lon="15.873537626999209"><ele>68.0</ele><time>2026-03-22T06:17:36.998Z</time></trkpt><trkpt lat="41.92028890859787" lon="15.87366717877522"><ele>68.0</ele><time>2026-03-22T06:17:37.998Z</time></trkpt><trkpt lat="41.920321716161354" lon="15.873815987749078"><ele>67.4</ele><time>2026-03-22T06:17:38.998Z</time></trkpt><trkpt lat="41.92032641702636" lon="15.873963290733538"><ele>66.8</ele><time>2026-03-22T06:17:39.998Z</time></trkpt><trkpt lat="41.92030577895536" lon="15.874103351395924"><ele>66.2</ele><time>2026-03-22T06:17:40.998Z</time></trkpt><trkpt lat="41.92024935049705" lon="15.87424100810379"><ele>65.6</ele><time>2026-03-22T06:17:41.998Z</time></trkpt><trkpt lat="41.92018636908575" lon="15.874357432264533"><ele>65.0</ele><time>2026-03-22T06:17:42.998Z</time></trkpt><trkpt lat="41.920085341794596" lon="15.874466122252628"><ele>66.75</ele><time>2026-03-22T06:17:43.998Z</time></trkpt><trkpt lat="41.91998491246922" lon="15.874545265663855"><ele>68.5</ele><time>2026-03-22T06:17:44.998Z</time></trkpt><trkpt lat="41.919872449423785" lon="15.874622291155458"><ele>70.25</ele><time>2026-03-22T06:17:45.998Z</time></trkpt><trkpt lat="41.91976220524946" lon="15.874689339872342"><ele>72.0</ele><time>2026-03-22T06:17:46.998Z</time></trkpt><trkpt lat="41.9196587664149" lon="15.874762975266213"><ele>72.0</ele><time>2026-03-22T06:17:47.998Z</time></trkpt><trkpt lat="41.91954757199257" lon="15.874847267810873"><ele>72.0</ele><time>2026-03-22T06:17:48.998Z</time></trkpt><trkpt lat="41.91942626144085" lon="15.874939207479038"><ele>72.0</ele><time>2026-03-22T06:17:49.998Z</time></trkpt><trkpt lat="41.91930456084472" lon="15.875026747469335"><ele>72.0</ele><time>2026-03-22T06:17:50.998Z</time></trkpt><trkpt lat="41.919180952462284" lon="15.875121909373464"><ele>74.0</ele><time>2026-03-22T06:17:51.998Z</time></trkpt><trkpt lat="41.91905385495204" lon="15.875220182997209"><ele>76.0</ele><time>2026-03-22T06:17:52.998Z</time></trkpt><trkpt lat="41.91891414822348" lon="15.87532549372983"><ele>78.0</ele><time>2026-03-22T06:17:53.998Z</time></trkpt><trkpt lat="41.918785378281086" lon="15.875456694725619"><ele>78.0</ele><time>2026-03-22T06:17:54.998Z</time></trkpt><trkpt lat="41.918682152082894" lon="15.875573049051754"><ele>78.0</ele><time>2026-03-22T06:17:55.998Z</time></trkpt><trkpt lat="41.918590658231764" lon="15.875693639992237"><ele>78.0</ele><time>2026-03-22T06:17:56.998Z</time></trkpt><trkpt lat="41.91851253032334" lon="15.875844430636258"><ele>78.0</ele><time>2026-03-22T06:17:57.998Z</time></trkpt><trkpt lat="41.91843976453633" lon="15.876004346674515"><ele>81.0</ele><time>2026-03-22T06:17:58.998Z</time></trkpt><trkpt lat="41.918363717163174" lon="15.87616400647575"><ele>84.0</ele><time>2026-03-22T06:17:59.998Z</time></trkpt><trkpt lat="41.9182980221367" lon="15.87632790502028"><ele>87.0</ele><time>2026-03-22T06:18:00.997Z</time></trkpt><trkpt lat="41.9182261943151" lon="15.876490825017335"><ele>90.0</ele><time>2026-03-22T06:18:01.997Z</time></trkpt><trkpt lat="41.918147968370896" lon="15.876656459383021"><ele>89.25</ele><time>2026-03-22T06:18:02.997Z</time></trkpt><trkpt lat="41.918086809064626" lon="15.876808913191802"><ele>88.5</ele><time>2026-03-22T06:18:03.997Z</time></trkpt><trkpt lat="41.91800077752759" lon="15.876972020631044"><ele>87.75</ele><time>2026-03-22T06:18:04.997Z</time></trkpt><trkpt lat="41.91792041959323" lon="15.87713457862102"><ele>87.0</ele><time>2026-03-22T06:18:05.997Z</time></trkpt><trkpt lat="41.917853332126235" lon="15.877304903127108"><ele>87.0</ele><time>2026-03-22T06:18:06.997Z</time></trkpt><trkpt lat="41.917776087657195" lon="15.877475176095992"><ele>87.0</ele><time>2026-03-22T06:18:07.997Z</time></trkpt><trkpt lat="41.917733362338865" lon="15.877650406827279"><ele>87.0</ele><time>2026-03-22T06:18:08.997Z</time></trkpt><trkpt lat="41.91767719622211" lon="15.87781859430928"><ele>87.0</ele><time>2026-03-22T06:18:09.997Z</time></trkpt><trkpt lat="41.91766220228246" lon="15.878003430912184"><ele>89.25</ele><time>2026-03-22T06:18:10.997Z</time></trkpt><trkpt lat="41.91768261519199" lon="15.87818973093337"><ele>91.5</ele><time>2026-03-22T06:18:11.997Z</time></trkpt><trkpt lat="41.91770840171554" lon="15.878356971589733"><ele>93.75</ele><time>2026-03-22T06:18:12.997Z</time></trkpt><trkpt lat="41.91775281686689" lon="15.878497864797541"><ele>96.0</ele><time>2026-03-22T06:18:13.997Z</time></trkpt><trkpt lat="41.91781626533574" lon="15.878631091136013"><ele>97.83333333333333</ele><time>2026-03-22T06:18:14.997Z</time></trkpt><trkpt lat="41.917885559563466" lon="15.87873802505136"><ele>99.66666666666666</ele><time>2026-03-22T06:18:15.997Z</time></trkpt><trkpt lat="41.917968732496675" lon="15.878786942911942"><ele>101.5</ele><time>2026-03-22T06:18:16.997Z</time></trkpt><trkpt lat="41.91805694471661" lon="15.878825553584184"><ele>103.33333333333333</ele><time>2026-03-22T06:18:17.997Z</time></trkpt><trkpt lat="41.91813510273423" lon="15.878808064268075"><ele>105.16666666666666</ele><time>2026-03-22T06:18:18.997Z</time></trkpt><trkpt lat="41.918208257144464" lon="15.878794680033744"><ele>107.0</ele><time>2026-03-22T06:18:19.997Z</time></trkpt><trkpt lat="41.9182765103554" lon="15.878783412317013"><ele>106.99999999999999</ele><time>2026-03-22T06:18:20.997Z</time></trkpt><trkpt lat="41.918367447423805" lon="15.878783676746353"><ele>107.0</ele><time>2026-03-22T06:18:22.997Z</time></trkpt><trkpt lat="41.91842713819819" lon="15.878819095134173"><ele>107.0</ele><time>2026-03-22T06:18:24.997Z</time></trkpt><trkpt lat="41.918485029765286" lon="15.8788982031241"><ele>107.0</ele><time>2026-03-22T06:18:26.997Z</time></trkpt><trkpt lat="41.91855330681291" lon="15.879017233130503"><ele>106.99999999999999</ele><time>2026-03-22T06:18:28.997Z</time></trkpt><trkpt lat="41.918596261334926" lon="15.879087680589713"><ele>107.0</ele><time>2026-03-22T06:18:29.997Z</time></trkpt><trkpt lat="41.91863086964843" lon="15.879179404593172"><ele>107.8</ele><time>2026-03-22T06:18:30.997Z</time></trkpt><trkpt lat="41.91866496626997" lon="15.879288381961642"><ele>108.6</ele><time>2026-03-22T06:18:31.997Z</time></trkpt><trkpt lat="41.918674818124344" lon="15.879433649076217"><ele>109.39999999999999</ele><time>2026-03-22T06:18:32.997Z</time></trkpt><trkpt lat="41.91867683552514" lon="15.879561203616486"><ele>110.19999999999999</ele><time>2026-03-22T06:18:33.997Z</time></trkpt><trkpt lat="41.91866837982872" lon="15.879675150928465"><ele>111.0</ele><time>2026-03-22T06:18:34.997Z</time></trkpt><trkpt lat="41.91864852308741" lon="15.879786426317589"><ele>111.0</ele><time>2026-03-22T06:18:35.997Z</time></trkpt><trkpt lat="41.918622305687386" lon="15.87988993731635"><ele>111.0</ele><time>2026-03-22T06:18:36.997Z</time></trkpt><trkpt lat="41.918603041363724" lon="15.879997124371966"><ele>111.0</ele><time>2026-03-22T06:18:37.997Z</time></trkpt><trkpt lat="41.91859136873544" lon="15.880129600969811"><ele>111.0</ele><time>2026-03-22T06:18:38.997Z</time></trkpt><trkpt lat="41.91857186693391" lon="15.880232621199154"><ele>111.0</ele><time>2026-03-22T06:18:39.997Z</time></trkpt><trkpt lat="41.91854559673727" lon="15.880327839151654"><ele>111.0</ele><time>2026-03-22T06:18:40.997Z</time></trkpt><trkpt lat="41.91847872863639" lon="15.88040610283226"><ele>114.8</ele><time>2026-03-22T06:18:42.997Z</time></trkpt><trkpt lat="41.918333141852095" lon="15.880492245690423"><ele>118.6</ele><time>2026-03-22T06:18:44.997Z</time></trkpt><trkpt lat="41.91825702955366" lon="15.880540359235022"><ele>122.4</ele><time>2026-03-22T06:18:45.997Z</time></trkpt><trkpt lat="41.91818916762985" lon="15.880600403147717"><ele>126.2</ele><time>2026-03-22T06:18:46.997Z</time></trkpt><trkpt lat="41.91813267613992" lon="15.88069011038978"><ele>130.0</ele><time>2026-03-22T06:18:47.997Z</time></trkpt><trkpt lat="41.91809362302328" lon="15.880771072719217"><ele>130.0</ele><time>2026-03-22T06:18:48.997Z</time></trkpt><trkpt lat="41.91805111408068" lon="15.880854009027203"><ele>130.0</ele><time>2026-03-22T06:18:49.997Z</time></trkpt><trkpt lat="41.917976948824126" lon="15.880921718924547"><ele>130.0</ele><time>2026-03-22T06:18:50.997Z</time></trkpt><trkpt lat="41.91787717243633" lon="15.880941327033097"><ele>130.0</ele><time>2026-03-22T06:18:51.997Z</time></trkpt><trkpt lat="41.91776244889707" lon="15.8809549438081"><ele>130.0</ele><time>2026-03-22T06:18:52.997Z</time></trkpt><trkpt lat="41.917670413459064" lon="15.880952877666346"><ele>130.4</ele><time>2026-03-22T06:18:53.997Z</time></trkpt><trkpt lat="41.917594891808086" lon="15.880934944840396"><ele>130.8</ele><time>2026-03-22T06:18:54.997Z</time></trkpt><trkpt lat="41.91747263953157" lon="15.880858785846137"><ele>131.2</ele><time>2026-03-22T06:18:56.997Z</time></trkpt><trkpt lat="41.91738022282923" lon="15.880768277263739"><ele>131.6</ele><time>2026-03-22T06:18:58.997Z</time></trkpt><trkpt lat="41.91728370159861" lon="15.880728177909159"><ele>132.0</ele><time>2026-03-22T06:19:00.997Z</time></trkpt><trkpt lat="41.91718877754313" lon="15.88073860306563"><ele>132.0</ele><time>2026-03-22T06:19:02.997Z</time></trkpt><trkpt lat="41.91711919714359" lon="15.880712693313335"><ele>132.0</ele><time>2026-03-22T06:19:05.997Z</time></trkpt><trkpt lat="41.91704769170497" lon="15.880698558239178"><ele>132.0</ele><time>2026-03-22T06:19:09.996Z</time></trkpt><trkpt lat="41.91697577009416" lon="15.880671562449434"><ele>132.0</ele><time>2026-03-22T06:19:15.996Z</time></trkpt><trkpt lat="41.91692100456142" lon="15.880618111958144"><ele>132.0</ele><time>2026-03-22T06:19:17.996Z</time></trkpt><trkpt lat="41.91687168857801" lon="15.88054061506691"><ele>132.0</ele><time>2026-03-22T06:19:20.996Z</time></trkpt><trkpt lat="41.91682538962847" lon="15.880475127786951"><ele>132.0</ele><time>2026-03-22T06:19:22.996Z</time></trkpt><trkpt lat="41.91675052072896" lon="15.880407874361932"><ele>134.66666666666666</ele><time>2026-03-22T06:19:24.996Z</time></trkpt><trkpt lat="41.91668301458007" lon="15.880351752205904"><ele>137.33333333333334</ele><time>2026-03-22T06:19:26.996Z</time></trkpt><trkpt lat="41.91660556617509" lon="15.880353929537868"><ele>140.0</ele><time>2026-03-22T06:19:29.996Z</time></trkpt><trkpt lat="41.91654672768589" lon="15.880427206481322"><ele>142.66666666666669</ele><time>2026-03-22T06:19:31.996Z</time></trkpt><trkpt lat="41.91648784036294" lon="15.880461654745668"><ele>145.33333333333334</ele><time>2026-03-22T06:19:33.996Z</time></trkpt><trkpt lat="41.91640744772211" lon="15.880415635673272"><ele>148.0</ele><time>2026-03-22T06:19:35.996Z</time></trkpt><trkpt lat="41.91633785269021" lon="15.880395253103503"><ele>148.0</ele><time>2026-03-22T06:19:38.996Z</time></trkpt><trkpt lat="41.9162862990888" lon="15.880460699675531"><ele>148.0</ele><time>2026-03-22T06:19:40.996Z</time></trkpt><trkpt lat="41.91629636318552" lon="15.880579527559812"><ele>148.0</ele><time>2026-03-22T06:19:42.996Z</time></trkpt><trkpt lat="41.9163310821665" lon="15.8806607691322"><ele>148.0</ele><time>2026-03-22T06:19:43.996Z</time></trkpt><trkpt lat="41.91636450682697" lon="15.880745397863627"><ele>148.0</ele><time>2026-03-22T06:19:44.996Z</time></trkpt><trkpt lat="41.91638365374422" lon="15.880849236561934"><ele>148.0</ele><time>2026-03-22T06:19:45.996Z</time></trkpt><trkpt lat="41.91642950997527" lon="15.88095108731874"><ele>150.5</ele><time>2026-03-22T06:19:46.996Z</time></trkpt><trkpt lat="41.91647884013793" lon="15.881051314541773"><ele>153.0</ele><time>2026-03-22T06:19:47.996Z</time></trkpt><trkpt lat="41.916520521165154" lon="15.8811502756231"><ele>155.5</ele><time>2026-03-22T06:19:48.996Z</time></trkpt><trkpt lat="41.916542575323454" lon="15.881273021670083"><ele>158.0</ele><time>2026-03-22T06:19:49.996Z</time></trkpt><trkpt lat="41.91655747253915" lon="15.881364424527618"><ele>160.5</ele><time>2026-03-22T06:19:50.996Z</time></trkpt><trkpt lat="41.916512918938814" lon="15.88147465382745"><ele>163.0</ele><time>2026-03-22T06:19:52.996Z</time></trkpt><trkpt lat="41.916494564923994" lon="15.881561551988757"><ele>163.0</ele><time>2026-03-22T06:19:54.996Z</time></trkpt><trkpt lat="41.91656801699883" lon="15.881673802021467"><ele>163.0</ele><time>2026-03-22T06:19:56.996Z</time></trkpt><trkpt lat="41.91661274813674" lon="15.881752766589075"><ele>163.0</ele><time>2026-03-22T06:19:57.996Z</time></trkpt><trkpt lat="41.916646460037704" lon="15.881825008054667"><ele>163.0</ele><time>2026-03-22T06:19:58.996Z</time></trkpt><trkpt lat="41.91664535341962" lon="15.881994394664522"><ele>163.0</ele><time>2026-03-22T06:20:00.996Z</time></trkpt><trkpt lat="41.91665046953435" lon="15.882095857751827"><ele>166.2</ele><time>2026-03-22T06:20:01.996Z</time></trkpt><trkpt lat="41.916664179296646" lon="15.882277422300906"><ele>169.4</ele><time>2026-03-22T06:20:02.996Z</time></trkpt><trkpt lat="41.91669759781663" lon="15.882420199945376"><ele>172.6</ele><time>2026-03-22T06:20:03.996Z</time></trkpt><trkpt lat="41.91672923486634" lon="15.88251823990075"><ele>175.79999999999998</ele><time>2026-03-22T06:20:04.996Z</time></trkpt><trkpt lat="41.91676798362004" lon="15.882615702732785"><ele>179.0</ele><time>2026-03-22T06:20:05.996Z</time></trkpt><trkpt lat="41.916797238611885" lon="15.882710214356283"><ele>181.0</ele><time>2026-03-22T06:20:06.996Z</time></trkpt><trkpt lat="41.9168204773291" lon="15.882801693933864"><ele>183.0</ele><time>2026-03-22T06:20:07.996Z</time></trkpt><trkpt lat="41.91682563519446" lon="15.882887058221918"><ele>185.0</ele><time>2026-03-22T06:20:08.996Z</time></trkpt><trkpt lat="41.91685689783745" lon="15.882967365526168"><ele>187.0</ele><time>2026-03-22T06:20:09.996Z</time></trkpt><trkpt lat="41.91695346000732" lon="15.88301850053371"><ele>189.0</ele><time>2026-03-22T06:20:12.996Z</time></trkpt><trkpt lat="41.917029459953916" lon="15.883053717317866"><ele>191.0</ele><time>2026-03-22T06:20:13.996Z</time></trkpt><trkpt lat="41.91710144619326" lon="15.883126456573388"><ele>191.0</ele><time>2026-03-22T06:20:15.995Z</time></trkpt><trkpt lat="41.917108708875105" lon="15.883223600496562"><ele>191.0</ele><time>2026-03-22T06:20:17.995Z</time></trkpt><trkpt lat="41.91704169549648" lon="15.883288892383392"><ele>191.0</ele><time>2026-03-22T06:20:19.995Z</time></trkpt><trkpt lat="41.91694365269846" lon="15.883298375537075"><ele>191.0</ele><time>2026-03-22T06:20:21.995Z</time></trkpt><trkpt lat="41.91686643181853" lon="15.883348474600787"><ele>191.0</ele><time>2026-03-22T06:20:23.995Z</time></trkpt><trkpt lat="41.916789388882385" lon="15.883514813737648"><ele>193.33333333333331</ele><time>2026-03-22T06:20:25.995Z</time></trkpt><trkpt lat="41.91673066105995" lon="15.88360570057005"><ele>195.66666666666666</ele><time>2026-03-22T06:20:26.995Z</time></trkpt><trkpt lat="41.91665831183668" lon="15.883682388755627"><ele>198.0</ele><time>2026-03-22T06:20:27.995Z</time></trkpt><trkpt lat="41.91659320839446" lon="15.883720053794637"><ele>200.33333333333331</ele><time>2026-03-22T06:20:28.995Z</time></trkpt><trkpt lat="41.91651033841986" lon="15.883812024485769"><ele>202.66666666666666</ele><time>2026-03-22T06:20:30.995Z</time></trkpt><trkpt lat="41.916445367573125" lon="15.883888736741243"><ele>205.0</ele><time>2026-03-22T06:20:31.995Z</time></trkpt><trkpt lat="41.91640487018044" lon="15.883959721805379"><ele>205.0</ele><time>2026-03-22T06:20:32.995Z</time></trkpt><trkpt lat="41.91638673758576" lon="15.884101647930958"><ele>205.0</ele><time>2026-03-22T06:20:34.995Z</time></trkpt><trkpt lat="41.91636334727959" lon="15.884267591515517"><ele>205.0</ele><time>2026-03-22T06:20:36.995Z</time></trkpt><trkpt lat="41.91636489748494" lon="15.884361588017098"><ele>205.0</ele><time>2026-03-22T06:20:37.995Z</time></trkpt><trkpt lat="41.9163728229733" lon="15.884492609305301"><ele>205.0</ele><time>2026-03-22T06:20:39.995Z</time></trkpt><trkpt lat="41.916461170850255" lon="15.884549263627488"><ele>204.99999999999997</ele><time>2026-03-22T06:20:44.995Z</time></trkpt><trkpt lat="41.91655704972559" lon="15.884619079320272"><ele>205.0</ele><time>2026-03-22T06:20:46.995Z</time></trkpt><trkpt lat="41.91660975594369" lon="15.884673156677826"><ele>205.0</ele><time>2026-03-22T06:20:47.995Z</time></trkpt><trkpt lat="41.91667257968731" lon="15.884699065728523"><ele>205.0</ele><time>2026-03-22T06:20:48.995Z</time></trkpt><trkpt lat="41.91672510516538" lon="15.884759327222262"><ele>204.99999999999997</ele><time>2026-03-22T06:20:49.995Z</time></trkpt><trkpt lat="41.91677239902282" lon="15.884861211772254"><ele>205.0</ele><time>2026-03-22T06:20:50.995Z</time></trkpt><trkpt lat="41.9167925748953" lon="15.884953454613601"><ele>204.83333333333331</ele><time>2026-03-22T06:20:51.995Z</time></trkpt><trkpt lat="41.91685895704479" lon="15.885070437282902"><ele>204.66666666666666</ele><time>2026-03-22T06:20:53.995Z</time></trkpt><trkpt lat="41.916911984512154" lon="15.885174741726784"><ele>204.5</ele><time>2026-03-22T06:20:54.995Z</time></trkpt><trkpt lat="41.916936998799386" lon="15.88527102333405"><ele>204.33333333333331</ele><time>2026-03-22T06:20:55.995Z</time></trkpt><trkpt lat="41.91695871674347" lon="15.885372916985936"><ele>204.16666666666666</ele><time>2026-03-22T06:20:57.995Z</time></trkpt><trkpt lat="41.91698781379308" lon="15.885485704416583"><ele>204.0</ele><time>2026-03-22T06:20:59.995Z</time></trkpt><trkpt lat="41.91700697140757" lon="15.885586782197679"><ele>204.0</ele><time>2026-03-22T06:21:01.995Z</time></trkpt><trkpt lat="41.917000815854585" lon="15.885691410075449"><ele>204.0</ele><time>2026-03-22T06:21:02.995Z</time></trkpt><trkpt lat="41.91694438513533" lon="15.885770827351356"><ele>204.0</ele><time>2026-03-22T06:21:03.995Z</time></trkpt><trkpt lat="41.91687001158946" lon="15.885874387792482"><ele>204.0</ele><time>2026-03-22T06:21:04.995Z</time></trkpt><trkpt lat="41.91679846235214" lon="15.885984205952555"><ele>204.0</ele><time>2026-03-22T06:21:05.995Z</time></trkpt><trkpt lat="41.91672649927177" lon="15.886104312982056"><ele>205.83333333333334</ele><time>2026-03-22T06:21:06.995Z</time></trkpt><trkpt lat="41.916665072582546" lon="15.886183882277399"><ele>207.66666666666669</ele><time>2026-03-22T06:21:07.995Z</time></trkpt><trkpt lat="41.9166019108108" lon="15.886265493977206"><ele>209.5</ele><time>2026-03-22T06:21:08.995Z</time></trkpt><trkpt lat="41.91654709370015" lon="15.886345809970491"><ele>211.33333333333334</ele><time>2026-03-22T06:21:09.995Z</time></trkpt><trkpt lat="41.916493851264775" lon="15.88641567054673"><ele>213.16666666666669</ele><time>2026-03-22T06:21:10.995Z</time></trkpt><trkpt lat="41.916445172736516" lon="15.886486238366247"><ele>215.0</ele><time>2026-03-22T06:21:11.995Z</time></trkpt><trkpt lat="41.91638083479322" lon="15.886547131370081"><ele>215.0</ele><time>2026-03-22T06:21:12.995Z</time></trkpt><trkpt lat="41.91629128737404" lon="15.88660302436791"><ele>215.0</ele><time>2026-03-22T06:21:13.995Z</time></trkpt><trkpt lat="41.916220541266185" lon="15.886681286436044"><ele>215.0</ele><time>2026-03-22T06:21:14.995Z</time></trkpt><trkpt lat="41.91613755099769" lon="15.886772959102121"><ele>215.0</ele><time>2026-03-22T06:21:15.995Z</time></trkpt><trkpt lat="41.91607534212503" lon="15.88685874209081"><ele>215.0</ele><time>2026-03-22T06:21:16.995Z</time></trkpt><trkpt lat="41.91602280293719" lon="15.88695734180737"><ele>216.2</ele><time>2026-03-22T06:21:17.995Z</time></trkpt><trkpt lat="41.91596950976576" lon="15.887054654398728"><ele>217.4</ele><time>2026-03-22T06:21:18.995Z</time></trkpt><trkpt lat="41.91588539649092" lon="15.887145682186226"><ele>218.60000000000002</ele><time>2026-03-22T06:21:19.995Z</time></trkpt><trkpt lat="41.91579054230555" lon="15.88722727121113"><ele>219.8</ele><time>2026-03-22T06:21:20.995Z</time></trkpt><trkpt lat="41.91570238696449" lon="15.887319707688246"><ele>221.0</ele><time>2026-03-22T06:21:21.995Z</time></trkpt><trkpt lat="41.915617947479184" lon="15.887395175031735"><ele>221.0</ele><time>2026-03-22T06:21:22.994Z</time></trkpt><trkpt lat="41.915530255296765" lon="15.887449927360972"><ele>221.00000000000003</ele><time>2026-03-22T06:21:23.994Z</time></trkpt><trkpt lat="41.91544148789758" lon="15.887471071569005"><ele>221.00000000000003</ele><time>2026-03-22T06:21:24.994Z</time></trkpt><trkpt lat="41.91536237938262" lon="15.887495298472567"><ele>221.0</ele><time>2026-03-22T06:21:25.994Z</time></trkpt><trkpt lat="41.91524680010207" lon="15.887506870345499"><ele>221.0</ele><time>2026-03-22T06:21:26.994Z</time></trkpt><trkpt lat="41.91513223332282" lon="15.887498168041377"><ele>223.0</ele><time>2026-03-22T06:21:27.994Z</time></trkpt><trkpt lat="41.91502889561199" lon="15.887502981128272"><ele>225.00000000000003</ele><time>2026-03-22T06:21:28.994Z</time></trkpt><trkpt lat="41.91494002787382" lon="15.88750603765473"><ele>227.00000000000003</ele><time>2026-03-22T06:21:29.994Z</time></trkpt><trkpt lat="41.914837961579295" lon="15.887472509847402"><ele>229.0</ele><time>2026-03-22T06:21:30.994Z</time></trkpt><trkpt lat="41.9147162634451" lon="15.887414731441458"><ele>231.0</ele><time>2026-03-22T06:21:31.994Z</time></trkpt><trkpt lat="41.91461192380344" lon="15.887377215387021"><ele>231.0</ele><time>2026-03-22T06:21:32.994Z</time></trkpt><trkpt lat="41.91452698856464" lon="15.88731675259469"><ele>231.00000000000003</ele><time>2026-03-22T06:21:33.994Z</time></trkpt><trkpt lat="41.9144349583796" lon="15.88726758448246"><ele>231.00000000000003</ele><time>2026-03-22T06:21:34.994Z</time></trkpt><trkpt lat="41.91433155317207" lon="15.887275975689302"><ele>231.0</ele><time>2026-03-22T06:21:35.994Z</time></trkpt><trkpt lat="41.914220024070204" lon="15.887288212547324"><ele>231.0</ele><time>2026-03-22T06:21:36.994Z</time></trkpt><trkpt lat="41.914117512402356" lon="15.88732251696433"><ele>232.8</ele><time>2026-03-22T06:21:37.994Z</time></trkpt><trkpt lat="41.91403760615208" lon="15.887373706169267"><ele>234.60000000000002</ele><time>2026-03-22T06:21:38.994Z</time></trkpt><trkpt lat="41.913962514519675" lon="15.887439097636545"><ele>236.4</ele><time>2026-03-22T06:21:39.994Z</time></trkpt><trkpt lat="41.91389611372849" lon="15.88752546814825"><ele>238.2</ele><time>2026-03-22T06:21:40.994Z</time></trkpt><trkpt lat="41.91384407063058" lon="15.887626059092263"><ele>240.0</ele><time>2026-03-22T06:21:41.994Z</time></trkpt><trkpt lat="41.91378547640442" lon="15.88772756408256"><ele>241.8</ele><time>2026-03-22T06:21:42.994Z</time></trkpt><trkpt lat="41.91370208291102" lon="15.887814291474843"><ele>243.6</ele><time>2026-03-22T06:21:43.994Z</time></trkpt><trkpt lat="41.91360386060234" lon="15.887871123904205"><ele>245.39999999999998</ele><time>2026-03-22T06:21:44.994Z</time></trkpt><trkpt lat="41.91351374360218" lon="15.887930322345547"><ele>247.2</ele><time>2026-03-22T06:21:45.994Z</time></trkpt><trkpt lat="41.91340554521961" lon="15.88796045780009"><ele>249.0</ele><time>2026-03-22T06:21:46.994Z</time></trkpt><trkpt lat="41.91330765095454" lon="15.88799426691516"><ele>249.25</ele><time>2026-03-22T06:21:47.994Z</time></trkpt><trkpt lat="41.9131998505479" lon="15.887998003531097"><ele>249.5</ele><time>2026-03-22T06:21:48.994Z</time></trkpt><trkpt lat="41.91306654647537" lon="15.887986570852279"><ele>249.75</ele><time>2026-03-22T06:21:49.994Z</time></trkpt><trkpt lat="41.91293940027487" lon="15.887926082424325"><ele>250.0</ele><time>2026-03-22T06:21:50.994Z</time></trkpt><trkpt lat="41.91279628859336" lon="15.887853061645584"><ele>250.0</ele><time>2026-03-22T06:21:51.994Z</time></trkpt><trkpt lat="41.91267258946333" lon="15.887765167500076"><ele>250.0</ele><time>2026-03-22T06:21:52.994Z</time></trkpt><trkpt lat="41.912536555940406" lon="15.887689326464123"><ele>250.0</ele><time>2026-03-22T06:21:53.994Z</time></trkpt><trkpt lat="41.912407451869875" lon="15.887650154691922"><ele>250.0</ele><time>2026-03-22T06:21:54.994Z</time></trkpt><trkpt lat="41.912246212737784" lon="15.887619456250983"><ele>250.75</ele><time>2026-03-22T06:21:55.994Z</time></trkpt><trkpt lat="41.912077533906356" lon="15.887595332469237"><ele>251.5</ele><time>2026-03-22T06:21:56.994Z</time></trkpt><trkpt lat="41.911951769489235" lon="15.88757936153433"><ele>252.25</ele><time>2026-03-22T06:21:57.994Z</time></trkpt><trkpt lat="41.91185512020669" lon="15.887545571456714"><ele>253.0</ele><time>2026-03-22T06:21:58.994Z</time></trkpt><trkpt lat="41.911765767179574" lon="15.887532532213983"><ele>253.0</ele><time>2026-03-22T06:22:00.994Z</time></trkpt><trkpt lat="41.91178771209738" lon="15.88765602432611"><ele>253.0</ele><time>2026-03-22T06:22:03.994Z</time></trkpt><trkpt lat="41.91183465913903" lon="15.88773538209422"><ele>253.0</ele><time>2026-03-22T06:22:04.994Z</time></trkpt><trkpt lat="41.911913351488856" lon="15.887840094483446"><ele>253.0</ele><time>2026-03-22T06:22:05.994Z</time></trkpt><trkpt lat="41.91200285963567" lon="15.88794055682822"><ele>253.0</ele><time>2026-03-22T06:22:06.994Z</time></trkpt><trkpt lat="41.91211207703873" lon="15.888039104433854"><ele>253.0</ele><time>2026-03-22T06:22:07.994Z</time></trkpt><trkpt lat="41.91222478405885" lon="15.888147357231396"><ele>253.0</ele><time>2026-03-22T06:22:08.994Z</time></trkpt><trkpt lat="41.91232169532969" lon="15.888235353687016"><ele>253.0</ele><time>2026-03-22T06:22:09.994Z</time></trkpt><trkpt lat="41.912400607763615" lon="15.888319475684296"><ele>253.0</ele><time>2026-03-22T06:22:10.994Z</time></trkpt><trkpt lat="41.9124648419006" lon="15.888437576632262"><ele>256.0</ele><time>2026-03-22T06:22:11.994Z</time></trkpt><trkpt lat="41.91253599833959" lon="15.888588455999935"><ele>259.0</ele><time>2026-03-22T06:22:12.994Z</time></trkpt><trkpt lat="41.912618943883025" lon="15.888758944858605"><ele>262.0</ele><time>2026-03-22T06:22:13.994Z</time></trkpt><trkpt lat="41.9127126162747" lon="15.888926024396556"><ele>265.0</ele><time>2026-03-22T06:22:14.994Z</time></trkpt><trkpt lat="41.912797486551426" lon="15.889118899114484"><ele>267.0</ele><time>2026-03-22T06:22:15.994Z</time></trkpt><trkpt lat="41.91288139548984" lon="15.889309406401257"><ele>269.0</ele><time>2026-03-22T06:22:16.994Z</time></trkpt><trkpt lat="41.912958731268745" lon="15.889478713639702"><ele>271.0</ele><time>2026-03-22T06:22:17.994Z</time></trkpt><trkpt lat="41.91304691644243" lon="15.889642198644282"><ele>271.0</ele><time>2026-03-22T06:22:18.994Z</time></trkpt><trkpt lat="41.91311965305548" lon="15.889807613778475"><ele>271.0</ele><time>2026-03-22T06:22:19.994Z</time></trkpt><trkpt lat="41.91319694333983" lon="15.89000290256811"><ele>271.0</ele><time>2026-03-22T06:22:20.994Z</time></trkpt><trkpt lat="41.913266056264405" lon="15.890204478693446"><ele>271.0</ele><time>2026-03-22T06:22:21.994Z</time></trkpt><trkpt lat="41.91332586552152" lon="15.890376421349032"><ele>271.0</ele><time>2026-03-22T06:22:22.994Z</time></trkpt><trkpt lat="41.91340910290419" lon="15.890541205057035"><ele>271.0</ele><time>2026-03-22T06:22:23.994Z</time></trkpt><trkpt lat="41.913477940577614" lon="15.890645575730304"><ele>271.0</ele><time>2026-03-22T06:22:24.994Z</time></trkpt><trkpt lat="41.913530339140706" lon="15.890748108689728"><ele>268.2</ele><time>2026-03-22T06:22:25.994Z</time></trkpt><trkpt lat="41.91354700557522" lon="15.890856793892798"><ele>265.40000000000003</ele><time>2026-03-22T06:22:26.994Z</time></trkpt><trkpt lat="41.913541473936874" lon="15.890985363726333"><ele>262.6</ele><time>2026-03-22T06:22:27.994Z</time></trkpt><trkpt lat="41.91349335585303" lon="15.891153658445203"><ele>259.8</ele><time>2026-03-22T06:22:28.994Z</time></trkpt><trkpt lat="41.91346603111012" lon="15.891330512275498"><ele>257.0</ele><time>2026-03-22T06:22:29.993Z</time></trkpt><trkpt lat="41.91343522218039" lon="15.89152750826294"><ele>255.0</ele><time>2026-03-22T06:22:30.993Z</time></trkpt><trkpt lat="41.91341606224348" lon="15.89172002931813"><ele>253.0</ele><time>2026-03-22T06:22:31.993Z</time></trkpt><trkpt lat="41.91340516554494" lon="15.891888796852117"><ele>251.0</ele><time>2026-03-22T06:22:32.993Z</time></trkpt><trkpt lat="41.9134014155626" lon="15.892058581975961"><ele>249.0</ele><time>2026-03-22T06:22:33.993Z</time></trkpt><trkpt lat="41.913392671676924" lon="15.892224543435104"><ele>249.5</ele><time>2026-03-22T06:22:34.993Z</time></trkpt><trkpt lat="41.91339881985849" lon="15.89239605457121"><ele>250.0</ele><time>2026-03-22T06:22:35.993Z</time></trkpt><trkpt lat="41.91340449651978" lon="15.892557391122523"><ele>250.5</ele><time>2026-03-22T06:22:36.993Z</time></trkpt><trkpt lat="41.913420961631665" lon="15.892715783156094"><ele>251.0</ele><time>2026-03-22T06:22:37.993Z</time></trkpt><trkpt lat="41.91344913419088" lon="15.89285667882956"><ele>251.0</ele><time>2026-03-22T06:22:38.993Z</time></trkpt><trkpt lat="41.91346548013029" lon="15.893010227298726"><ele>251.00000000000003</ele><time>2026-03-22T06:22:39.993Z</time></trkpt><trkpt lat="41.91349315796195" lon="15.89315175937175"><ele>251.00000000000003</ele><time>2026-03-22T06:22:40.993Z</time></trkpt><trkpt lat="41.91352254060028" lon="15.893260283796218"><ele>251.0</ele><time>2026-03-22T06:22:41.993Z</time></trkpt><trkpt lat="41.913553055584714" lon="15.893364041636739"><ele>251.0</ele><time>2026-03-22T06:22:42.993Z</time></trkpt><trkpt lat="41.913584663063354" lon="15.893462512891467"><ele>253.60000000000002</ele><time>2026-03-22T06:22:43.993Z</time></trkpt><trkpt lat="41.91366409430091" lon="15.893557902328586"><ele>256.20000000000005</ele><time>2026-03-22T06:22:44.993Z</time></trkpt><trkpt lat="41.91374809271318" lon="15.893655988627174"><ele>258.79999999999995</ele><time>2026-03-22T06:22:45.993Z</time></trkpt><trkpt lat="41.91384377984826" lon="15.893747470039429"><ele>261.4</ele><time>2026-03-22T06:22:46.993Z</time></trkpt><trkpt lat="41.91391926382125" lon="15.893854603619527"><ele>264.0</ele><time>2026-03-22T06:22:47.993Z</time></trkpt><trkpt lat="41.913971213122" lon="15.893936587226671"><ele>264.0</ele><time>2026-03-22T06:22:48.993Z</time></trkpt><trkpt lat="41.91400036745851" lon="15.894035053009505"><ele>264.0</ele><time>2026-03-22T06:22:49.993Z</time></trkpt><trkpt lat="41.914016014747595" lon="15.894126550722545"><ele>264.0</ele><time>2026-03-22T06:22:50.993Z</time></trkpt><trkpt lat="41.91406328105283" lon="15.894282774464665"><ele>264.0</ele><time>2026-03-22T06:22:52.993Z</time></trkpt><trkpt lat="41.914120690558335" lon="15.89441711501616"><ele>264.0</ele><time>2026-03-22T06:22:53.993Z</time></trkpt><trkpt lat="41.914180208077326" lon="15.894554442003335"><ele>263.59999999999997</ele><time>2026-03-22T06:22:54.993Z</time></trkpt><trkpt lat="41.91423365702272" lon="15.894693072828877"><ele>263.2</ele><time>2026-03-22T06:22:55.993Z</time></trkpt><trkpt lat="41.91428813314727" lon="15.894807522549334"><ele>262.79999999999995</ele><time>2026-03-22T06:22:56.993Z</time></trkpt><trkpt lat="41.91436304289459" lon="15.894906522888457"><ele>262.4</ele><time>2026-03-22T06:22:57.993Z</time></trkpt><trkpt lat="41.9144357364299" lon="15.89499094767071"><ele>262.0</ele><time>2026-03-22T06:22:58.993Z</time></trkpt><trkpt lat="41.91452292373989" lon="15.89507231507656"><ele>263.2</ele><time>2026-03-22T06:22:59.993Z</time></trkpt><trkpt lat="41.91461067103766" lon="15.895142239057963"><ele>264.4</ele><time>2026-03-22T06:23:00.993Z</time></trkpt><trkpt lat="41.91469484325371" lon="15.895242768348913"><ele>265.6</ele><time>2026-03-22T06:23:01.993Z</time></trkpt><trkpt lat="41.91476673952641" lon="15.895364874952161"><ele>266.8</ele><time>2026-03-22T06:23:02.993Z</time></trkpt><trkpt lat="41.91480950665368" lon="15.895503407777447"><ele>268.0</ele><time>2026-03-22T06:23:03.993Z</time></trkpt><trkpt lat="41.91489097236783" lon="15.895691216210778"><ele>268.0</ele><time>2026-03-22T06:23:04.993Z</time></trkpt><trkpt lat="41.91494623308255" lon="15.895841646051428"><ele>268.0</ele><time>2026-03-22T06:23:05.993Z</time></trkpt><trkpt lat="41.91499571792805" lon="15.89598250891787"><ele>268.0</ele><time>2026-03-22T06:23:06.993Z</time></trkpt><trkpt lat="41.915004278920684" lon="15.896123562922357"><ele>268.0</ele><time>2026-03-22T06:23:07.993Z</time></trkpt><trkpt lat="41.914989075466316" lon="15.896326048303532"><ele>268.3333333333333</ele><time>2026-03-22T06:23:08.993Z</time></trkpt><trkpt lat="41.91496104837705" lon="15.896565138742941"><ele>268.6666666666667</ele><time>2026-03-22T06:23:09.993Z</time></trkpt><trkpt lat="41.914943953106466" lon="15.896792804173453"><ele>269.0</ele><time>2026-03-22T06:23:10.993Z</time></trkpt><trkpt lat="41.914901349293444" lon="15.897039123573128"><ele>270.33333333333337</ele><time>2026-03-22T06:23:11.993Z</time></trkpt><trkpt lat="41.91487255478423" lon="15.897309023015087"><ele>271.6666666666667</ele><time>2026-03-22T06:23:12.993Z</time></trkpt><trkpt lat="41.914828012140475" lon="15.897585274375173"><ele>273.0</ele><time>2026-03-22T06:23:13.993Z</time></trkpt><trkpt lat="41.914798396551134" lon="15.897840191372829"><ele>275.0</ele><time>2026-03-22T06:23:14.993Z</time></trkpt><trkpt lat="41.91475150906775" lon="15.898124454063998"><ele>277.0</ele><time>2026-03-22T06:23:15.993Z</time></trkpt><trkpt lat="41.91472653593548" lon="15.898369128258391"><ele>279.0</ele><time>2026-03-22T06:23:16.993Z</time></trkpt><trkpt lat="41.914693661676374" lon="15.898596748976184"><ele>279.5</ele><time>2026-03-22T06:23:17.993Z</time></trkpt><trkpt lat="41.91466208956037" lon="15.898798858058244"><ele>280.0</ele><time>2026-03-22T06:23:18.993Z</time></trkpt><trkpt lat="41.914613997876614" lon="15.898970350772382"><ele>280.5</ele><time>2026-03-22T06:23:19.993Z</time></trkpt><trkpt lat="41.91456648655532" lon="15.899154643525014"><ele>281.0</ele><time>2026-03-22T06:23:20.993Z</time></trkpt><trkpt lat="41.91447690319276" lon="15.8993482271113"><ele>279.33333333333337</ele><time>2026-03-22T06:23:21.993Z</time></trkpt><trkpt lat="41.91437777049077" lon="15.899526772381032"><ele>277.6666666666667</ele><time>2026-03-22T06:23:22.993Z</time></trkpt><trkpt lat="41.914300207152905" lon="15.899692002253897"><ele>276.0</ele><time>2026-03-22T06:23:23.993Z</time></trkpt><trkpt lat="41.91421798578669" lon="15.899847659283484"><ele>277.0</ele><time>2026-03-22T06:23:24.993Z</time></trkpt><trkpt lat="41.91416753976239" lon="15.90001227848967"><ele>278.0</ele><time>2026-03-22T06:23:25.993Z</time></trkpt><trkpt lat="41.91410733503837" lon="15.90013707364786"><ele>279.0</ele><time>2026-03-22T06:23:26.993Z</time></trkpt><trkpt lat="41.91403389151832" lon="15.90028457263837"><ele>280.0</ele><time>2026-03-22T06:23:27.993Z</time></trkpt><trkpt lat="41.913977235465126" lon="15.90040463287002"><ele>280.0</ele><time>2026-03-22T06:23:28.993Z</time></trkpt><trkpt lat="41.91395082068649" lon="15.900531278165051"><ele>280.0</ele><time>2026-03-22T06:23:29.993Z</time></trkpt><trkpt lat="41.91392707744138" lon="15.900651527904069"><ele>280.0</ele><time>2026-03-22T06:23:30.993Z</time></trkpt><trkpt lat="41.913901788724246" lon="15.900802409080113"><ele>280.0</ele><time>2026-03-22T06:23:31.993Z</time></trkpt><trkpt lat="41.913884971868285" lon="15.9009504227327"><ele>280.0</ele><time>2026-03-22T06:23:32.993Z</time></trkpt><trkpt lat="41.91387593079625" lon="15.901098481505722"><ele>279.0</ele><time>2026-03-22T06:23:33.993Z</time></trkpt><trkpt lat="41.91388650573161" lon="15.901242834827649"><ele>278.0</ele><time>2026-03-22T06:23:34.993Z</time></trkpt><trkpt lat="41.91387931986178" lon="15.901391889886336"><ele>277.0</ele><time>2026-03-22T06:23:35.993Z</time></trkpt><trkpt lat="41.91389733424975" lon="15.901540057290763"><ele>276.0</ele><time>2026-03-22T06:23:36.992Z</time></trkpt><trkpt lat="41.91393425284292" lon="15.901697152981448"><ele>275.8</ele><time>2026-03-22T06:23:37.992Z</time></trkpt><trkpt lat="41.91398957528159" lon="15.9018400913847"><ele>275.6</ele><time>2026-03-22T06:23:38.992Z</time></trkpt><trkpt lat="41.91403659446498" lon="15.901959573979276"><ele>275.4</ele><time>2026-03-22T06:23:39.992Z</time></trkpt><trkpt lat="41.9140692432739" lon="15.902094045570507"><ele>275.2</ele><time>2026-03-22T06:23:40.992Z</time></trkpt><trkpt lat="41.91407169447448" lon="15.902230317034839"><ele>275.0</ele><time>2026-03-22T06:23:41.992Z</time></trkpt><trkpt lat="41.91407621055037" lon="15.902383678044538"><ele>275.0</ele><time>2026-03-22T06:23:42.992Z</time></trkpt><trkpt lat="41.9140789636945" lon="15.902538055799653"><ele>275.0</ele><time>2026-03-22T06:23:43.992Z</time></trkpt><trkpt lat="41.914056381889544" lon="15.902684708142974"><ele>275.0</ele><time>2026-03-22T06:23:44.992Z</time></trkpt><trkpt lat="41.91404645474575" lon="15.902836765809337"><ele>275.0</ele><time>2026-03-22T06:23:45.992Z</time></trkpt><trkpt lat="41.91404198514332" lon="15.902990940687125"><ele>273.4</ele><time>2026-03-22T06:23:46.992Z</time></trkpt><trkpt lat="41.91403301969464" lon="15.903136159725333"><ele>271.8</ele><time>2026-03-22T06:23:47.992Z</time></trkpt><trkpt lat="41.91400440199744" lon="15.903284801283482"><ele>270.2</ele><time>2026-03-22T06:23:48.992Z</time></trkpt><trkpt lat="41.91399727122756" lon="15.903429055176968"><ele>268.6</ele><time>2026-03-22T06:23:49.992Z</time></trkpt><trkpt lat="41.91397698199148" lon="15.903529036053191"><ele>267.0</ele><time>2026-03-22T06:23:50.992Z</time></trkpt><trkpt lat="41.91395281353466" lon="15.903674014466064"><ele>266.1666666666667</ele><time>2026-03-22T06:23:52.992Z</time></trkpt><trkpt lat="41.913955439870314" lon="15.903764175502973"><ele>265.3333333333333</ele><time>2026-03-22T06:23:53.992Z</time></trkpt><trkpt lat="41.91395701784419" lon="15.90386945825102"><ele>264.5</ele><time>2026-03-22T06:23:54.992Z</time></trkpt><trkpt lat="41.913952493280554" lon="15.90400213054285"><ele>263.66666666666663</ele><time>2026-03-22T06:23:55.992Z</time></trkpt><trkpt lat="41.91394629488912" lon="15.90411403319171"><ele>262.8333333333333</ele><time>2026-03-22T06:23:56.992Z</time></trkpt><trkpt lat="41.91395822707028" lon="15.904216186686671"><ele>262.0</ele><time>2026-03-22T06:23:57.992Z</time></trkpt><trkpt lat="41.91397060626839" lon="15.904305335306333"><ele>261.4</ele><time>2026-03-22T06:23:58.992Z</time></trkpt><trkpt lat="41.9139859215974" lon="15.904427232913338"><ele>260.79999999999995</ele><time>2026-03-22T06:23:59.992Z</time></trkpt><trkpt lat="41.914017500190376" lon="15.904561185793199"><ele>260.2</ele><time>2026-03-22T06:24:00.992Z</time></trkpt><trkpt lat="41.91401917679484" lon="15.904682053591674"><ele>259.59999999999997</ele><time>2026-03-22T06:24:01.992Z</time></trkpt><trkpt lat="41.913997045850564" lon="15.904832880145676"><ele>259.0</ele><time>2026-03-22T06:24:02.992Z</time></trkpt><trkpt lat="41.91398577611003" lon="15.904946217944255"><ele>259.0</ele><time>2026-03-22T06:24:03.992Z</time></trkpt><trkpt lat="41.91397154087604" lon="15.905040063569789"><ele>259.0</ele><time>2026-03-22T06:24:04.992Z</time></trkpt><trkpt lat="41.91407397342298" lon="15.905088178983668"><ele>259.0</ele><time>2026-03-22T06:24:06.992Z</time></trkpt><trkpt lat="41.91414984059055" lon="15.90510779506086"><ele>259.0</ele><time>2026-03-22T06:24:07.992Z</time></trkpt><trkpt lat="41.914280749803986" lon="15.905158062747237"><ele>259.0</ele><time>2026-03-22T06:24:08.992Z</time></trkpt><trkpt lat="41.91443695865701" lon="15.905226688680909"><ele>262.5</ele><time>2026-03-22T06:24:09.992Z</time></trkpt><trkpt lat="41.91456940757893" lon="15.905303670580512"><ele>266.0</ele><time>2026-03-22T06:24:10.992Z</time></trkpt><trkpt lat="41.91467625859634" lon="15.9053852118876"><ele>269.5</ele><time>2026-03-22T06:24:11.992Z</time></trkpt><trkpt lat="41.91476351126358" lon="15.905483886946781"><ele>273.0</ele><time>2026-03-22T06:24:12.992Z</time></trkpt><trkpt lat="41.91486965076552" lon="15.90558610066131"><ele>273.0</ele><time>2026-03-22T06:24:13.992Z</time></trkpt><trkpt lat="41.91496750790822" lon="15.90569551878404"><ele>273.0</ele><time>2026-03-22T06:24:14.992Z</time></trkpt><trkpt lat="41.91504340975703" lon="15.905783697214417"><ele>273.0</ele><time>2026-03-22T06:24:15.992Z</time></trkpt><trkpt lat="41.9151048735004" lon="15.905926004573248"><ele>273.0</ele><time>2026-03-22T06:24:17.992Z</time></trkpt><trkpt lat="41.91509582068026" lon="15.906038461097554"><ele>273.0</ele><time>2026-03-22T06:24:18.992Z</time></trkpt><trkpt lat="41.91507803855151" lon="15.906155552145265"><ele>274.75</ele><time>2026-03-22T06:24:19.992Z</time></trkpt><trkpt lat="41.91504836343866" lon="15.906278135945565"><ele>276.5</ele><time>2026-03-22T06:24:20.992Z</time></trkpt><trkpt lat="41.915000824323585" lon="15.906436560202438"><ele>278.25</ele><time>2026-03-22T06:24:21.992Z</time></trkpt><trkpt lat="41.9149546211384" lon="15.906612958115318"><ele>280.0</ele><time>2026-03-22T06:24:22.992Z</time></trkpt><trkpt lat="41.914930682487594" lon="15.90681017200121"><ele>282.66666666666663</ele><time>2026-03-22T06:24:23.992Z</time></trkpt><trkpt lat="41.914933325196984" lon="15.907019217798767"><ele>285.3333333333333</ele><time>2026-03-22T06:24:24.992Z</time></trkpt><trkpt lat="41.914935415148946" lon="15.907237237835798"><ele>288.0</ele><time>2026-03-22T06:24:25.992Z</time></trkpt><trkpt lat="41.914937902717746" lon="15.907467209119158"><ele>290.0</ele><time>2026-03-22T06:24:26.992Z</time></trkpt><trkpt lat="41.91493017551805" lon="15.907655822192156"><ele>292.0</ele><time>2026-03-22T06:24:27.992Z</time></trkpt><trkpt lat="41.914945165462896" lon="15.907837947309627"><ele>294.0</ele><time>2026-03-22T06:24:28.992Z</time></trkpt><trkpt lat="41.91496961749376" lon="15.908005962747508"><ele>296.0</ele><time>2026-03-22T06:24:29.992Z</time></trkpt><trkpt lat="41.91498744684835" lon="15.908169377803892"><ele>296.0</ele><time>2026-03-22T06:24:30.992Z</time></trkpt><trkpt lat="41.91500228457123" lon="15.908340775923056"><ele>296.0</ele><time>2026-03-22T06:24:31.992Z</time></trkpt><trkpt lat="41.914997346625206" lon="15.908523902768207"><ele>296.0</ele><time>2026-03-22T06:24:32.992Z</time></trkpt><trkpt lat="41.91496766157104" lon="15.908708776579472"><ele>296.0</ele><time>2026-03-22T06:24:33.992Z</time></trkpt><trkpt lat="41.91494189009179" lon="15.908877999576747"><ele>296.0</ele><time>2026-03-22T06:24:34.992Z</time></trkpt><trkpt lat="41.914937752785534" lon="15.909048547082625"><ele>296.0</ele><time>2026-03-22T06:24:35.992Z</time></trkpt><trkpt lat="41.914937353113416" lon="15.909255032421301"><ele>296.0</ele><time>2026-03-22T06:24:36.992Z</time></trkpt><trkpt lat="41.91493634013998" lon="15.909485057320547"><ele>296.0</ele><time>2026-03-22T06:24:37.992Z</time></trkpt><trkpt lat="41.91494185679403" lon="15.909721713166999"><ele>296.0</ele><time>2026-03-22T06:24:38.992Z</time></trkpt><trkpt lat="41.914943697875" lon="15.90992049640591"><ele>296.0</ele><time>2026-03-22T06:24:39.992Z</time></trkpt><trkpt lat="41.914950866055044" lon="15.91009692144302"><ele>295.75</ele><time>2026-03-22T06:24:40.992Z</time></trkpt><trkpt lat="41.91495540633702" lon="15.91025965930897"><ele>295.5</ele><time>2026-03-22T06:24:41.992Z</time></trkpt><trkpt lat="41.91494517297035" lon="15.910419543727803"><ele>295.25</ele><time>2026-03-22T06:24:42.992Z</time></trkpt><trkpt lat="41.91493951343118" lon="15.910587292010632"><ele>295.0</ele><time>2026-03-22T06:24:43.991Z</time></trkpt><trkpt lat="41.91491485445518" lon="15.910742237478708"><ele>295.0</ele><time>2026-03-22T06:24:44.991Z</time></trkpt><trkpt lat="41.9148786813386" lon="15.910903499073374"><ele>295.0</ele><time>2026-03-22T06:24:45.991Z</time></trkpt><trkpt lat="41.91483194924202" lon="15.911044156604296"><ele>295.0</ele><time>2026-03-22T06:24:46.991Z</time></trkpt><trkpt lat="41.91477931262683" lon="15.911188359640139"><ele>295.0</ele><time>2026-03-22T06:24:47.991Z</time></trkpt><trkpt lat="41.91471017762911" lon="15.911313945689527"><ele>295.5</ele><time>2026-03-22T06:24:48.991Z</time></trkpt><trkpt lat="41.91462369222121" lon="15.911449540758728"><ele>296.0</ele><time>2026-03-22T06:24:49.991Z</time></trkpt><trkpt lat="41.91452399682" lon="15.911590633912398"><ele>296.5</ele><time>2026-03-22T06:24:50.991Z</time></trkpt><trkpt lat="41.914433643717864" lon="15.911733035435999"><ele>297.0</ele><time>2026-03-22T06:24:51.991Z</time></trkpt><trkpt lat="41.9143618252024" lon="15.911849944499963"><ele>296.0</ele><time>2026-03-22T06:24:52.991Z</time></trkpt><trkpt lat="41.91429156634788" lon="15.91195600690527"><ele>295.0</ele><time>2026-03-22T06:24:53.991Z</time></trkpt><trkpt lat="41.914231400230975" lon="15.912102774605104"><ele>294.0</ele><time>2026-03-22T06:24:54.991Z</time></trkpt><trkpt lat="41.91419421638396" lon="15.912257095014468"><ele>293.0</ele><time>2026-03-22T06:24:55.991Z</time></trkpt><trkpt lat="41.91415583873721" lon="15.912441593384505"><ele>295.25</ele><time>2026-03-22T06:24:56.991Z</time></trkpt><trkpt lat="41.91412115208085" lon="15.91259904050921"><ele>297.5</ele><time>2026-03-22T06:24:57.991Z</time></trkpt><trkpt lat="41.914082309176976" lon="15.912756383171018"><ele>299.75</ele><time>2026-03-22T06:24:58.991Z</time></trkpt><trkpt lat="41.91407231990204" lon="15.912911213091835"><ele>302.0</ele><time>2026-03-22T06:24:59.991Z</time></trkpt><trkpt lat="41.9140616364547" lon="15.91305444261441"><ele>302.0</ele><time>2026-03-22T06:25:00.991Z</time></trkpt><trkpt lat="41.91404461889366" lon="15.9131755700485"><ele>302.0</ele><time>2026-03-22T06:25:01.991Z</time></trkpt><trkpt lat="41.91400425350485" lon="15.913295644720629"><ele>302.0</ele><time>2026-03-22T06:25:02.991Z</time></trkpt><trkpt lat="41.913954563096375" lon="15.913417267364073"><ele>302.0</ele><time>2026-03-22T06:25:03.991Z</time></trkpt><trkpt lat="41.91389170686745" lon="15.91351783633991"><ele>302.0</ele><time>2026-03-22T06:25:04.991Z</time></trkpt><trkpt lat="41.91385664615738" lon="15.913606181667328"><ele>301.0</ele><time>2026-03-22T06:25:05.991Z</time></trkpt><trkpt lat="41.91384257519051" lon="15.913690782099943"><ele>300.0</ele><time>2026-03-22T06:25:06.991Z</time></trkpt><trkpt lat="41.91384382187834" lon="15.913852281270081"><ele>299.0</ele><time>2026-03-22T06:25:08.991Z</time></trkpt><trkpt lat="41.91384614620915" lon="15.91394632224864"><ele>298.0</ele><time>2026-03-22T06:25:09.991Z</time></trkpt><trkpt lat="41.91384444457843" lon="15.914053265663455"><ele>297.0</ele><time>2026-03-22T06:25:10.991Z</time></trkpt><trkpt lat="41.91383217994144" lon="15.914154795072635"><ele>296.0</ele><time>2026-03-22T06:25:11.991Z</time></trkpt><trkpt lat="41.91381729562035" lon="15.91426306266821"><ele>295.5</ele><time>2026-03-22T06:25:12.991Z</time></trkpt><trkpt lat="41.91381000511248" lon="15.914367984884837"><ele>295.0</ele><time>2026-03-22T06:25:13.991Z</time></trkpt><trkpt lat="41.913810403163104" lon="15.914465636400328"><ele>294.5</ele><time>2026-03-22T06:25:14.991Z</time></trkpt><trkpt lat="41.91382322289733" lon="15.914601961407632"><ele>294.0</ele><time>2026-03-22T06:25:16.991Z</time></trkpt><trkpt lat="41.913880007964735" lon="15.914649772678533"><ele>293.5</ele><time>2026-03-22T06:25:19.991Z</time></trkpt><trkpt lat="41.91391167647138" lon="15.914773635998664"><ele>293.0</ele><time>2026-03-22T06:25:22.991Z</time></trkpt><trkpt lat="41.91394340067578" lon="15.914889518287033"><ele>293.0</ele><time>2026-03-22T06:25:25.991Z</time></trkpt><trkpt lat="41.91394599017981" lon="15.915011506705465"><ele>293.0</ele><time>2026-03-22T06:25:27.991Z</time></trkpt><trkpt lat="41.91393794405974" lon="15.915100197772889"><ele>293.0</ele><time>2026-03-22T06:25:28.991Z</time></trkpt><trkpt lat="41.91389516898657" lon="15.915242503003105"><ele>293.0</ele><time>2026-03-22T06:25:29.991Z</time></trkpt><trkpt lat="41.9138480071616" lon="15.915354526333758"><ele>293.0</ele><time>2026-03-22T06:25:30.991Z</time></trkpt><trkpt lat="41.91381773910959" lon="15.915461867144915"><ele>292.4</ele><time>2026-03-22T06:25:31.991Z</time></trkpt><trkpt lat="41.91375025947734" lon="15.91557488316994"><ele>291.8</ele><time>2026-03-22T06:25:33.991Z</time></trkpt><trkpt lat="41.91367581422575" lon="15.915578376518084"><ele>291.2</ele><time>2026-03-22T06:29:13.987Z</time></trkpt><trkpt lat="41.913707484795005" lon="15.915451792532574"><ele>290.6</ele><time>2026-03-22T06:29:15.987Z</time></trkpt><trkpt lat="41.913741550598246" lon="15.915338345104171"><ele>290.0</ele><time>2026-03-22T06:29:16.987Z</time></trkpt><trkpt lat="41.913769700194194" lon="15.915223492655633"><ele>290.0</ele><time>2026-03-22T06:29:17.987Z</time></trkpt><trkpt lat="41.913782547153026" lon="15.915120739529225"><ele>290.0</ele><time>2026-03-22T06:29:18.987Z</time></trkpt><trkpt lat="41.91378348122123" lon="15.915035146591363"><ele>290.0</ele><time>2026-03-22T06:29:22.987Z</time></trkpt><trkpt lat="41.91379446374935" lon="15.914944451897414"><ele>290.0</ele><time>2026-03-22T06:29:24.987Z</time></trkpt><trkpt lat="41.9137928884266" lon="15.914854508503986"><ele>290.0</ele><time>2026-03-22T06:29:26.987Z</time></trkpt><trkpt lat="41.91379862682461" lon="15.91474211136888"><ele>290.0</ele><time>2026-03-22T06:29:28.987Z</time></trkpt><trkpt lat="41.91380896998035" lon="15.914601772023218"><ele>290.6</ele><time>2026-03-22T06:29:30.987Z</time></trkpt><trkpt lat="41.913809758901785" lon="15.914487774157191"><ele>291.2</ele><time>2026-03-22T06:29:31.987Z</time></trkpt><trkpt lat="41.91380057509806" lon="15.914340481535554"><ele>291.8</ele><time>2026-03-22T06:29:32.987Z</time></trkpt><trkpt lat="41.913799474787915" lon="15.914167887570091"><ele>292.4</ele><time>2026-03-22T06:29:33.987Z</time></trkpt><trkpt lat="41.913801957085745" lon="15.91400173977747"><ele>293.0</ele><time>2026-03-22T06:29:34.987Z</time></trkpt><trkpt lat="41.91380615018523" lon="15.913855384076939"><ele>293.6</ele><time>2026-03-22T06:29:35.987Z</time></trkpt><trkpt lat="41.91380664973256" lon="15.913755551891903"><ele>294.20000000000005</ele><time>2026-03-22T06:29:36.987Z</time></trkpt><trkpt lat="41.913807031714256" lon="15.913641890420994"><ele>294.8</ele><time>2026-03-22T06:29:38.987Z</time></trkpt><trkpt lat="41.913802374590105" lon="15.913741777344146"><ele>295.40000000000003</ele><time>2026-03-22T06:30:04.987Z</time></trkpt><trkpt lat="41.913818780392596" lon="15.913933079638088"><ele>296.0</ele><time>2026-03-22T06:30:06.987Z</time></trkpt><trkpt lat="41.91381484429015" lon="15.914063096153635"><ele>296.0</ele><time>2026-03-22T06:30:07.987Z</time></trkpt><trkpt lat="41.913804960538705" lon="15.914207518180564"><ele>296.0</ele><time>2026-03-22T06:30:08.987Z</time></trkpt><trkpt lat="41.91379873645942" lon="15.914339884759048"><ele>296.0</ele><time>2026-03-22T06:30:09.987Z</time></trkpt><trkpt lat="41.91380479337024" lon="15.914445595820142"><ele>296.0</ele><time>2026-03-22T06:30:10.987Z</time></trkpt><trkpt lat="41.91380028582324" lon="15.914537907718872"><ele>296.0</ele><time>2026-03-22T06:30:11.987Z</time></trkpt><trkpt lat="41.913799089930976" lon="15.914654856309202"><ele>296.0</ele><time>2026-03-22T06:30:13.987Z</time></trkpt><trkpt lat="41.9137909901723" lon="15.91474508292857"><ele>295.40000000000003</ele><time>2026-03-22T06:30:16.987Z</time></trkpt><trkpt lat="41.91378361515412" lon="15.914871110529678"><ele>294.8</ele><time>2026-03-22T06:30:19.986Z</time></trkpt><trkpt lat="41.9137828927236" lon="15.914955907001978"><ele>294.20000000000005</ele><time>2026-03-22T06:30:21.986Z</time></trkpt><trkpt lat="41.913773847407164" lon="15.915046750075305"><ele>293.6</ele><time>2026-03-22T06:30:23.986Z</time></trkpt><trkpt lat="41.913758922699756" lon="15.915167448480176"><ele>293.0</ele><time>2026-03-22T06:30:25.986Z</time></trkpt><trkpt lat="41.91372348289123" lon="15.915349331011607"><ele>292.4</ele><time>2026-03-22T06:30:27.986Z</time></trkpt><trkpt lat="41.913707971336756" lon="15.915446830025305"><ele>291.8</ele><time>2026-03-22T06:30:28.986Z</time></trkpt><trkpt lat="41.91368912696764" lon="15.915553885071756"><ele>291.2</ele><time>2026-03-22T06:30:29.986Z</time></trkpt><trkpt lat="41.9136678513115" lon="15.915686537484298"><ele>290.6</ele><time>2026-03-22T06:30:30.986Z</time></trkpt><trkpt lat="41.9136368169977" lon="15.915822658148581"><ele>290.0</ele><time>2026-03-22T06:30:31.986Z</time></trkpt><trkpt lat="41.91362676576487" lon="15.915953024328083"><ele>289.8</ele><time>2026-03-22T06:30:32.986Z</time></trkpt><trkpt lat="41.913609302513954" lon="15.9160569896299"><ele>289.6</ele><time>2026-03-22T06:30:33.986Z</time></trkpt><trkpt lat="41.91357837285277" lon="15.916153716569744"><ele>289.4</ele><time>2026-03-22T06:30:35.986Z</time></trkpt><trkpt lat="41.91353920693293" lon="15.916267275258706"><ele>289.2</ele><time>2026-03-22T06:30:39.986Z</time></trkpt><trkpt lat="41.91349852008095" lon="15.9163627262903"><ele>289.0</ele><time>2026-03-22T06:30:41.986Z</time></trkpt><trkpt lat="41.91341425898454" lon="15.916510483197234"><ele>291.59999999999997</ele><time>2026-03-22T06:30:43.986Z</time></trkpt><trkpt lat="41.913354020414694" lon="15.916628201047606"><ele>294.2</ele><time>2026-03-22T06:30:44.986Z</time></trkpt><trkpt lat="41.91330144539205" lon="15.916743484152445"><ele>296.79999999999995</ele><time>2026-03-22T06:30:45.986Z</time></trkpt><trkpt lat="41.913261693732395" lon="15.91687801050226"><ele>299.4</ele><time>2026-03-22T06:30:46.986Z</time></trkpt><trkpt lat="41.913239536429785" lon="15.917000932191838"><ele>302.0</ele><time>2026-03-22T06:30:47.986Z</time></trkpt><trkpt lat="41.91324552107387" lon="15.917129035853975"><ele>302.6</ele><time>2026-03-22T06:30:48.986Z</time></trkpt><trkpt lat="41.913265055199346" lon="15.917262032768049"><ele>303.2</ele><time>2026-03-22T06:30:49.986Z</time></trkpt><trkpt lat="41.91328998716685" lon="15.917388975690796"><ele>303.8</ele><time>2026-03-22T06:30:50.986Z</time></trkpt><trkpt lat="41.913312692909614" lon="15.917517806979417"><ele>304.4</ele><time>2026-03-22T06:30:51.986Z</time></trkpt><trkpt lat="41.91332740866462" lon="15.917653185823642"><ele>305.0</ele><time>2026-03-22T06:30:52.986Z</time></trkpt><trkpt lat="41.91333519699159" lon="15.917763475005431"><ele>305.33333333333337</ele><time>2026-03-22T06:30:53.986Z</time></trkpt><trkpt lat="41.91334193810811" lon="15.91791531697635"><ele>305.6666666666667</ele><time>2026-03-22T06:30:55.986Z</time></trkpt><trkpt lat="41.9134269260568" lon="15.917935604369076"><ele>306.0</ele><time>2026-03-22T06:30:58.986Z</time></trkpt><trkpt lat="41.91353009731313" lon="15.917918656539815"><ele>306.3333333333333</ele><time>2026-03-22T06:31:01.986Z</time></trkpt><trkpt lat="41.91359762192945" lon="15.917913584035054"><ele>306.66666666666663</ele><time>2026-03-22T06:31:02.986Z</time></trkpt><trkpt lat="41.913670064664046" lon="15.91790952558266"><ele>307.0</ele><time>2026-03-22T06:31:03.986Z</time></trkpt><trkpt lat="41.91374412459583" lon="15.91790168519624"><ele>305.16666666666663</ele><time>2026-03-22T06:31:04.986Z</time></trkpt><trkpt lat="41.91381214648051" lon="15.91789542040504"><ele>303.3333333333333</ele><time>2026-03-22T06:31:05.986Z</time></trkpt><trkpt lat="41.91386985732575" lon="15.917855484874178"><ele>301.5</ele><time>2026-03-22T06:31:06.986Z</time></trkpt><trkpt lat="41.913929057956864" lon="15.917815506318474"><ele>299.6666666666667</ele><time>2026-03-22T06:31:07.986Z</time></trkpt><trkpt lat="41.914012676946314" lon="15.917704691824373"><ele>297.83333333333337</ele><time>2026-03-22T06:31:09.986Z</time></trkpt><trkpt lat="41.91411628406277" lon="15.917619493174826"><ele>296.0</ele><time>2026-03-22T06:31:11.986Z</time></trkpt><trkpt lat="41.91418887830347" lon="15.917578632313122"><ele>293.2</ele><time>2026-03-22T06:31:12.986Z</time></trkpt><trkpt lat="41.91426952515122" lon="15.917541302758972"><ele>290.40000000000003</ele><time>2026-03-22T06:31:13.986Z</time></trkpt><trkpt lat="41.91436612754731" lon="15.917520605446748"><ele>287.6</ele><time>2026-03-22T06:31:14.986Z</time></trkpt><trkpt lat="41.91447115961789" lon="15.917505170567148"><ele>284.8</ele><time>2026-03-22T06:31:15.986Z</time></trkpt><trkpt lat="41.91460001726239" lon="15.917495850752577"><ele>282.0</ele><time>2026-03-22T06:31:16.986Z</time></trkpt><trkpt lat="41.91472753708629" lon="15.917476253213344"><ele>282.0</ele><time>2026-03-22T06:31:17.986Z</time></trkpt><trkpt lat="41.91485459087202" lon="15.917453975819981"><ele>282.0</ele><time>2026-03-22T06:31:18.986Z</time></trkpt><trkpt lat="41.914973290767485" lon="15.917442239627798"><ele>282.0</ele><time>2026-03-22T06:31:19.986Z</time></trkpt><trkpt lat="41.91507043450954" lon="15.917447599342907"><ele>282.0</ele><time>2026-03-22T06:31:20.986Z</time></trkpt><trkpt lat="41.91515740405093" lon="15.917455940626219"><ele>282.0</ele><time>2026-03-22T06:31:21.986Z</time></trkpt><trkpt lat="41.91523308420926" lon="15.917476753155606"><ele>279.4</ele><time>2026-03-22T06:31:22.986Z</time></trkpt><trkpt lat="41.915298546251826" lon="15.917508668615648"><ele>276.79999999999995</ele><time>2026-03-22T06:31:23.986Z</time></trkpt><trkpt lat="41.915390765824036" lon="15.91759134941976"><ele>274.2</ele><time>2026-03-22T06:31:25.986Z</time></trkpt><trkpt lat="41.91541586729475" lon="15.917763380132236"><ele>271.59999999999997</ele><time>2026-03-22T06:31:27.985Z</time></trkpt><trkpt lat="41.91539475932014" lon="15.917849584773096"><ele>269.0</ele><time>2026-03-22T06:31:28.985Z</time></trkpt><trkpt lat="41.91536797984693" lon="15.917948762699078"><ele>266.5</ele><time>2026-03-22T06:31:29.985Z</time></trkpt><trkpt lat="41.91534562415551" lon="15.91803903162721"><ele>264.0</ele><time>2026-03-22T06:31:30.985Z</time></trkpt><trkpt lat="41.91532081128047" lon="15.918143148623603"><ele>261.5</ele><time>2026-03-22T06:31:31.985Z</time></trkpt><trkpt lat="41.9152994630619" lon="15.918245780247815"><ele>259.0</ele><time>2026-03-22T06:31:32.985Z</time></trkpt><trkpt lat="41.915289275735745" lon="15.918348406580673"><ele>256.5</ele><time>2026-03-22T06:31:33.985Z</time></trkpt><trkpt lat="41.915286732352236" lon="15.918460203782821"><ele>254.0</ele><time>2026-03-22T06:31:34.985Z</time></trkpt><trkpt lat="41.91528315180799" lon="15.918564405916362"><ele>250.83333333333334</ele><time>2026-03-22T06:31:35.985Z</time></trkpt><trkpt lat="41.91526919650831" lon="15.918670783043929"><ele>247.66666666666669</ele><time>2026-03-22T06:31:36.985Z</time></trkpt><trkpt lat="41.915253298732935" lon="15.918788388133956"><ele>244.5</ele><time>2026-03-22T06:31:37.985Z</time></trkpt><trkpt lat="41.915230098986086" lon="15.918910267031126"><ele>241.33333333333331</ele><time>2026-03-22T06:31:38.985Z</time></trkpt><trkpt lat="41.91520276576179" lon="15.919029092373744"><ele>238.16666666666666</ele><time>2026-03-22T06:31:39.985Z</time></trkpt><trkpt lat="41.915180470424716" lon="15.919150621044974"><ele>235.0</ele><time>2026-03-22T06:31:40.985Z</time></trkpt><trkpt lat="41.91514978283998" lon="15.919275637026772"><ele>234.83333333333331</ele><time>2026-03-22T06:31:41.985Z</time></trkpt><trkpt lat="41.91511786022097" lon="15.919373133564857"><ele>234.66666666666666</ele><time>2026-03-22T06:31:42.985Z</time></trkpt><trkpt lat="41.91506820779101" lon="15.91945850471976"><ele>234.5</ele><time>2026-03-22T06:31:43.985Z</time></trkpt><trkpt lat="41.91501256103325" lon="15.919544272456163"><ele>234.33333333333331</ele><time>2026-03-22T06:31:44.985Z</time></trkpt><trkpt lat="41.914960913898106" lon="15.91964127133635"><ele>234.16666666666666</ele><time>2026-03-22T06:31:45.985Z</time></trkpt><trkpt lat="41.91492115053878" lon="15.919738101997831"><ele>234.0</ele><time>2026-03-22T06:31:46.985Z</time></trkpt><trkpt lat="41.91489079002364" lon="15.919848977626446"><ele>236.6</ele><time>2026-03-22T06:31:47.985Z</time></trkpt><trkpt lat="41.91485944887765" lon="15.919971407042912"><ele>239.2</ele><time>2026-03-22T06:31:48.985Z</time></trkpt><trkpt lat="41.914841719892316" lon="15.92011112729017"><ele>241.79999999999998</ele><time>2026-03-22T06:31:49.985Z</time></trkpt><trkpt lat="41.914803212950126" lon="15.920219827194437"><ele>244.39999999999998</ele><time>2026-03-22T06:31:50.985Z</time></trkpt><trkpt lat="41.91477722177461" lon="15.92033022537537"><ele>247.0</ele><time>2026-03-22T06:31:51.985Z</time></trkpt><trkpt lat="41.914745095072924" lon="15.920436388866685"><ele>247.16666666666666</ele><time>2026-03-22T06:31:52.985Z</time></trkpt><trkpt lat="41.91473295674964" lon="15.920549791186982"><ele>247.33333333333331</ele><time>2026-03-22T06:31:53.985Z</time></trkpt><trkpt lat="41.91474233777787" lon="15.920667249741387"><ele>247.5</ele><time>2026-03-22T06:31:54.985Z</time></trkpt><trkpt lat="41.91475565191912" lon="15.92078623116582"><ele>247.66666666666669</ele><time>2026-03-22T06:31:55.985Z</time></trkpt><trkpt lat="41.91478803438075" lon="15.9208880197293"><ele>247.83333333333334</ele><time>2026-03-22T06:31:56.985Z</time></trkpt><trkpt lat="41.9148358982488" lon="15.92098024173137"><ele>248.0</ele><time>2026-03-22T06:31:57.985Z</time></trkpt><trkpt lat="41.914901700520026" lon="15.92108580865242"><ele>249.16666666666669</ele><time>2026-03-22T06:31:58.985Z</time></trkpt><trkpt lat="41.914975617973965" lon="15.921201621237046"><ele>250.33333333333334</ele><time>2026-03-22T06:31:59.985Z</time></trkpt><trkpt lat="41.91501830260602" lon="15.921297569348317"><ele>251.5</ele><time>2026-03-22T06:32:00.985Z</time></trkpt><trkpt lat="41.9150615990645" lon="15.921374312677122"><ele>252.66666666666669</ele><time>2026-03-22T06:32:01.985Z</time></trkpt><trkpt lat="41.91514310813125" lon="15.921361200703561"><ele>253.83333333333334</ele><time>2026-03-22T06:32:03.985Z</time></trkpt><trkpt lat="41.91518481015623" lon="15.921272713217986"><ele>255.0</ele><time>2026-03-22T06:32:05.985Z</time></trkpt><trkpt lat="41.91525458505379" lon="15.921179931095981"><ele>252.2</ele><time>2026-03-22T06:32:19.985Z</time></trkpt><trkpt lat="41.915363809397" lon="15.921053863837493"><ele>249.4</ele><time>2026-03-22T06:32:21.985Z</time></trkpt><trkpt lat="41.91542032027235" lon="15.920986377279727"><ele>246.60000000000002</ele><time>2026-03-22T06:32:22.985Z</time></trkpt><trkpt lat="41.915473542916565" lon="15.920928003387917"><ele>243.8</ele><time>2026-03-22T06:32:23.985Z</time></trkpt><trkpt lat="41.915535716114505" lon="15.920876094884845"><ele>241.0</ele><time>2026-03-22T06:32:24.985Z</time></trkpt><trkpt lat="41.91562252908777" lon="15.920775473591933"><ele>240.99999999999997</ele><time>2026-03-22T06:32:26.985Z</time></trkpt><trkpt lat="41.91567755889754" lon="15.9207224524465"><ele>241.0</ele><time>2026-03-22T06:32:27.985Z</time></trkpt><trkpt lat="41.9157283636853" lon="15.920657368893735"><ele>241.0</ele><time>2026-03-22T06:32:28.985Z</time></trkpt><trkpt lat="41.91577516477535" lon="15.92059428116597"><ele>241.0</ele><time>2026-03-22T06:32:29.985Z</time></trkpt><trkpt lat="41.91582160054777" lon="15.920535105260736"><ele>240.99999999999997</ele><time>2026-03-22T06:32:30.985Z</time></trkpt><trkpt lat="41.91588385186207" lon="15.92049249177266"><ele>241.0</ele><time>2026-03-22T06:32:31.985Z</time></trkpt><trkpt lat="41.915984522517824" lon="15.920385150416982"><ele>239.83333333333331</ele><time>2026-03-22T06:32:33.984Z</time></trkpt><trkpt lat="41.91604543161952" lon="15.920338121151126"><ele>238.66666666666666</ele><time>2026-03-22T06:32:34.984Z</time></trkpt><trkpt lat="41.91611125521831" lon="15.920257541310402"><ele>237.5</ele><time>2026-03-22T06:32:35.984Z</time></trkpt><trkpt lat="41.916195754105644" lon="15.92019409955394"><ele>236.33333333333331</ele><time>2026-03-22T06:32:36.984Z</time></trkpt><trkpt lat="41.91627144713268" lon="15.9201350007951"><ele>235.16666666666666</ele><time>2026-03-22T06:32:37.984Z</time></trkpt><trkpt lat="41.91633983980123" lon="15.92009281607713"><ele>234.0</ele><time>2026-03-22T06:32:38.984Z</time></trkpt><trkpt lat="41.9164310555026" lon="15.920035531243611"><ele>232.79999999999998</ele><time>2026-03-22T06:32:40.984Z</time></trkpt><trkpt lat="41.91649043688499" lon="15.919960528487454"><ele>231.59999999999997</ele><time>2026-03-22T06:32:42.984Z</time></trkpt><trkpt lat="41.91656609885898" lon="15.919875195139213"><ele>230.4</ele><time>2026-03-22T06:32:44.984Z</time></trkpt><trkpt lat="41.91664775538352" lon="15.919772294328592"><ele>229.2</ele><time>2026-03-22T06:32:46.984Z</time></trkpt><trkpt lat="41.916729342586265" lon="15.919620021048772"><ele>228.0</ele><time>2026-03-22T06:32:48.984Z</time></trkpt><trkpt lat="41.91678044876313" lon="15.919526244723665"><ele>226.66666666666666</ele><time>2026-03-22T06:32:49.984Z</time></trkpt><trkpt lat="41.91682887600374" lon="15.919452618088174"><ele>225.33333333333331</ele><time>2026-03-22T06:32:50.984Z</time></trkpt><trkpt lat="41.91688384011116" lon="15.919394905579177"><ele>224.0</ele><time>2026-03-22T06:32:51.984Z</time></trkpt><trkpt lat="41.91694892555281" lon="15.919334562994718"><ele>222.66666666666666</ele><time>2026-03-22T06:32:52.984Z</time></trkpt><trkpt lat="41.9170032609121" lon="15.919270321241399"><ele>221.33333333333331</ele><time>2026-03-22T06:32:53.984Z</time></trkpt><trkpt lat="41.91705589628391" lon="15.919191363221355"><ele>220.0</ele><time>2026-03-22T06:32:54.984Z</time></trkpt><trkpt lat="41.91712318652635" lon="15.919069518634554"><ele>218.66666666666666</ele><time>2026-03-22T06:32:56.984Z</time></trkpt><trkpt lat="41.91716070609205" lon="15.918995654406515"><ele>217.33333333333331</ele><time>2026-03-22T06:32:57.984Z</time></trkpt><trkpt lat="41.917203298071776" lon="15.918921994521373"><ele>216.0</ele><time>2026-03-22T06:32:58.984Z</time></trkpt><trkpt lat="41.917257341438024" lon="15.918837895153018"><ele>214.66666666666669</ele><time>2026-03-22T06:32:59.984Z</time></trkpt><trkpt lat="41.91730318725033" lon="15.918764143048758"><ele>213.33333333333334</ele><time>2026-03-22T06:33:00.984Z</time></trkpt><trkpt lat="41.91733973348932" lon="15.918687104442855"><ele>212.0</ele><time>2026-03-22T06:33:01.984Z</time></trkpt><trkpt lat="41.917405553366955" lon="15.918564367829958"><ele>212.0</ele><time>2026-03-22T06:33:03.984Z</time></trkpt><trkpt lat="41.91748197339973" lon="15.918532232091994"><ele>212.0</ele><time>2026-03-22T06:33:04.984Z</time></trkpt><trkpt lat="41.91758818852693" lon="15.918453079268918"><ele>212.0</ele><time>2026-03-22T06:33:06.984Z</time></trkpt><trkpt lat="41.91770292530345" lon="15.918490184194898"><ele>212.0</ele><time>2026-03-22T06:33:08.984Z</time></trkpt><trkpt lat="41.91775788911116" lon="15.918550852806542"><ele>212.0</ele><time>2026-03-22T06:33:09.984Z</time></trkpt><trkpt lat="41.91780972657835" lon="15.918619221372527"><ele>207.0</ele><time>2026-03-22T06:33:10.984Z</time></trkpt><trkpt lat="41.91785192336217" lon="15.918696864320044"><ele>202.0</ele><time>2026-03-22T06:33:11.984Z</time></trkpt><trkpt lat="41.91788798997875" lon="15.918803961145507"><ele>197.0</ele><time>2026-03-22T06:33:12.984Z</time></trkpt><trkpt lat="41.91788982345211" lon="15.918944371146454"><ele>192.0</ele><time>2026-03-22T06:33:13.984Z</time></trkpt><trkpt lat="41.917879834929366" lon="15.919104690352366"><ele>187.0</ele><time>2026-03-22T06:33:14.984Z</time></trkpt><trkpt lat="41.91787957015363" lon="15.919286414366821"><ele>186.66666666666669</ele><time>2026-03-22T06:33:15.984Z</time></trkpt><trkpt lat="41.91786864946025" lon="15.919503008723265"><ele>186.33333333333334</ele><time>2026-03-22T06:33:16.984Z</time></trkpt><trkpt lat="41.917896099351864" lon="15.91971563480915"><ele>186.0</ele><time>2026-03-22T06:33:17.984Z</time></trkpt><trkpt lat="41.917892384644574" lon="15.919911806161329"><ele>186.5</ele><time>2026-03-22T06:33:18.984Z</time></trkpt><trkpt lat="41.917886861598696" lon="15.920084858139692"><ele>187.0</ele><time>2026-03-22T06:33:19.984Z</time></trkpt><trkpt lat="41.91788683261325" lon="15.920246902309996"><ele>187.5</ele><time>2026-03-22T06:33:20.984Z</time></trkpt><trkpt lat="41.91788374904228" lon="15.92038275084555"><ele>188.0</ele><time>2026-03-22T06:33:21.984Z</time></trkpt><trkpt lat="41.91790176584027" lon="15.920518299737829"><ele>188.0</ele><time>2026-03-22T06:33:22.984Z</time></trkpt><trkpt lat="41.91791991890641" lon="15.920629232639808"><ele>188.0</ele><time>2026-03-22T06:33:23.984Z</time></trkpt><trkpt lat="41.917947630312064" lon="15.920731578453486"><ele>188.0</ele><time>2026-03-22T06:33:24.984Z</time></trkpt><trkpt lat="41.91798504501432" lon="15.920825416698168"><ele>188.0</ele><time>2026-03-22T06:33:25.984Z</time></trkpt><trkpt lat="41.91803153742326" lon="15.920901655794548"><ele>188.0</ele><time>2026-03-22T06:33:26.984Z</time></trkpt><trkpt lat="41.918112027338516" lon="15.920966917515456"><ele>188.0</ele><time>2026-03-22T06:33:27.984Z</time></trkpt><trkpt lat="41.91819776512563" lon="15.921007593400326"><ele>188.2</ele><time>2026-03-22T06:33:28.984Z</time></trkpt><trkpt lat="41.91828869226325" lon="15.921043715475337"><ele>188.4</ele><time>2026-03-22T06:33:29.984Z</time></trkpt><trkpt lat="41.918376084244656" lon="15.92106425044901"><ele>188.6</ele><time>2026-03-22T06:33:30.984Z</time></trkpt><trkpt lat="41.91846987783808" lon="15.921087314272711"><ele>188.79999999999998</ele><time>2026-03-22T06:33:31.984Z</time></trkpt><trkpt lat="41.91856141606634" lon="15.92113505283458"><ele>189.0</ele><time>2026-03-22T06:33:32.984Z</time></trkpt><trkpt lat="41.91865348391152" lon="15.921192145399667"><ele>184.39999999999998</ele><time>2026-03-22T06:33:33.984Z</time></trkpt><trkpt lat="41.918739234389264" lon="15.921259916202972"><ele>179.8</ele><time>2026-03-22T06:33:34.984Z</time></trkpt><trkpt lat="41.91881660075434" lon="15.921335563380048"><ele>175.2</ele><time>2026-03-22T06:33:35.984Z</time></trkpt><trkpt lat="41.918905864855994" lon="15.921396458828692"><ele>170.60000000000002</ele><time>2026-03-22T06:33:36.984Z</time></trkpt><trkpt lat="41.91899569634681" lon="15.921455094829579"><ele>166.0</ele><time>2026-03-22T06:33:37.984Z</time></trkpt><trkpt lat="41.91913284767666" lon="15.921522628932443"><ele>162.66666666666669</ele><time>2026-03-22T06:33:38.984Z</time></trkpt><trkpt lat="41.91927983663548" lon="15.9215882793509"><ele>159.33333333333334</ele><time>2026-03-22T06:33:39.984Z</time></trkpt><trkpt lat="41.919435678779486" lon="15.921670746726477"><ele>156.0</ele><time>2026-03-22T06:33:40.983Z</time></trkpt><trkpt lat="41.91956605805688" lon="15.92175463580764"><ele>156.0</ele><time>2026-03-22T06:33:41.983Z</time></trkpt><trkpt lat="41.91969364276551" lon="15.921837700068718"><ele>156.0</ele><time>2026-03-22T06:33:42.983Z</time></trkpt><trkpt lat="41.919812216846786" lon="15.92191467472189"><ele>156.0</ele><time>2026-03-22T06:33:43.983Z</time></trkpt><trkpt lat="41.91990989511591" lon="15.921973309338115"><ele>156.0</ele><time>2026-03-22T06:33:44.983Z</time></trkpt><trkpt lat="41.91999345981124" lon="15.922027985851786"><ele>153.6</ele><time>2026-03-22T06:33:45.983Z</time></trkpt><trkpt lat="41.92006900287455" lon="15.922080806720782"><ele>151.2</ele><time>2026-03-22T06:33:46.983Z</time></trkpt><trkpt lat="41.92012040618278" lon="15.922157613404188"><ele>148.8</ele><time>2026-03-22T06:33:47.983Z</time></trkpt><trkpt lat="41.92017702126791" lon="15.922245690509053"><ele>146.4</ele><time>2026-03-22T06:33:48.983Z</time></trkpt><trkpt lat="41.920243857553764" lon="15.92235288364773"><ele>144.0</ele><time>2026-03-22T06:33:49.983Z</time></trkpt><trkpt lat="41.920307916527335" lon="15.92248749178505"><ele>144.0</ele><time>2026-03-22T06:33:50.983Z</time></trkpt><trkpt lat="41.9203706020022" lon="15.922597337469991"><ele>144.0</ele><time>2026-03-22T06:33:51.983Z</time></trkpt><trkpt lat="41.92042864501237" lon="15.92269344002438"><ele>144.0</ele><time>2026-03-22T06:33:52.983Z</time></trkpt><trkpt lat="41.9204865481848" lon="15.922784756505827"><ele>144.0</ele><time>2026-03-22T06:33:53.983Z</time></trkpt><trkpt lat="41.920541795821165" lon="15.922861575592027"><ele>144.0</ele><time>2026-03-22T06:33:54.983Z</time></trkpt><trkpt lat="41.92059289997418" lon="15.922927459867834"><ele>144.0</ele><time>2026-03-22T06:33:55.983Z</time></trkpt><trkpt lat="41.92067408275631" lon="15.922966221993127"><ele>144.0</ele><time>2026-03-22T06:33:56.983Z</time></trkpt><trkpt lat="41.92078174908022" lon="15.92298222622621"><ele>144.0</ele><time>2026-03-22T06:33:57.983Z</time></trkpt><trkpt lat="41.92090629708171" lon="15.923004567277395"><ele>144.0</ele><time>2026-03-22T06:33:58.983Z</time></trkpt><trkpt lat="41.92106095626683" lon="15.923045060473273"><ele>144.0</ele><time>2026-03-22T06:33:59.983Z</time></trkpt><trkpt lat="41.92121630247332" lon="15.923082658872046"><ele>141.0</ele><time>2026-03-22T06:34:00.983Z</time></trkpt><trkpt lat="41.92134537493075" lon="15.923108317876567"><ele>138.0</ele><time>2026-03-22T06:34:01.983Z</time></trkpt><trkpt lat="41.92147403931518" lon="15.92312346724783"><ele>135.0</ele><time>2026-03-22T06:34:02.983Z</time></trkpt><trkpt lat="41.9215854472783" lon="15.923144239633531"><ele>132.0</ele><time>2026-03-22T06:34:03.983Z</time></trkpt><trkpt lat="41.92168817432384" lon="15.923163187259192"><ele>129.83333333333334</ele><time>2026-03-22T06:34:04.983Z</time></trkpt><trkpt lat="41.92176628349679" lon="15.923178530707697"><ele>127.66666666666666</ele><time>2026-03-22T06:34:05.983Z</time></trkpt><trkpt lat="41.921849930129156" lon="15.923199571388867"><ele>125.5</ele><time>2026-03-22T06:34:06.983Z</time></trkpt><trkpt lat="41.92192343510701" lon="15.923226690770408"><ele>123.33333333333333</ele><time>2026-03-22T06:34:07.983Z</time></trkpt><trkpt lat="41.92201108306286" lon="15.923278209102142"><ele>121.16666666666666</ele><time>2026-03-22T06:34:08.983Z</time></trkpt><trkpt lat="41.92208590932414" lon="15.923345783492264"><ele>119.0</ele><time>2026-03-22T06:34:09.983Z</time></trkpt><trkpt lat="41.92216106930239" lon="15.923379955858474"><ele>118.99999999999999</ele><time>2026-03-22T06:34:10.983Z</time></trkpt><trkpt lat="41.92222739444091" lon="15.923385589040183"><ele>119.0</ele><time>2026-03-22T06:34:11.983Z</time></trkpt><trkpt lat="41.92230318420229" lon="15.923348689782742"><ele>119.0</ele><time>2026-03-22T06:34:12.983Z</time></trkpt><trkpt lat="41.92238796800611" lon="15.923294949120447"><ele>119.0</ele><time>2026-03-22T06:34:13.983Z</time></trkpt><trkpt lat="41.92246847098291" lon="15.923236837723577"><ele>118.99999999999999</ele><time>2026-03-22T06:34:14.983Z</time></trkpt><trkpt lat="41.922530846204786" lon="15.923182387608533"><ele>119.0</ele><time>2026-03-22T06:34:15.983Z</time></trkpt><trkpt lat="41.92259300225408" lon="15.923120485460622"><ele>117.16666666666666</ele><time>2026-03-22T06:34:16.983Z</time></trkpt><trkpt lat="41.92263777254054" lon="15.9230363948987"><ele>115.33333333333333</ele><time>2026-03-22T06:34:17.983Z</time></trkpt><trkpt lat="41.922691820943356" lon="15.922940992468558"><ele>113.5</ele><time>2026-03-22T06:34:18.983Z</time></trkpt><trkpt lat="41.9227641140611" lon="15.922848919681782"><ele>111.66666666666666</ele><time>2026-03-22T06:34:19.983Z</time></trkpt><trkpt lat="41.92284787354003" lon="15.922787551992093"><ele>109.83333333333333</ele><time>2026-03-22T06:34:20.983Z</time></trkpt><trkpt lat="41.92291979043044" lon="15.922730250541159"><ele>108.0</ele><time>2026-03-22T06:34:21.983Z</time></trkpt><trkpt lat="41.92299205626021" lon="15.922676938996782"><ele>108.0</ele><time>2026-03-22T06:34:22.983Z</time></trkpt><trkpt lat="41.9230636686104" lon="15.92261588738796"><ele>108.00000000000001</ele><time>2026-03-22T06:34:23.983Z</time></trkpt><trkpt lat="41.923142294828715" lon="15.922543126191993"><ele>108.00000000000001</ele><time>2026-03-22T06:34:24.983Z</time></trkpt><trkpt lat="41.92322203634745" lon="15.922483475371493"><ele>108.0</ele><time>2026-03-22T06:34:25.983Z</time></trkpt><trkpt lat="41.923308613734626" lon="15.92242523807685"><ele>108.0</ele><time>2026-03-22T06:34:26.983Z</time></trkpt><trkpt lat="41.9233817674465" lon="15.922366399581412"><ele>106.80000000000001</ele><time>2026-03-22T06:34:27.983Z</time></trkpt><trkpt lat="41.92346732962646" lon="15.922303578300932"><ele>105.60000000000001</ele><time>2026-03-22T06:34:28.983Z</time></trkpt><trkpt lat="41.92355623539543" lon="15.92224524028543"><ele>104.4</ele><time>2026-03-22T06:34:29.983Z</time></trkpt><trkpt lat="41.92364754124636" lon="15.922196418348168"><ele>103.19999999999999</ele><time>2026-03-22T06:34:30.983Z</time></trkpt><trkpt lat="41.923745563721035" lon="15.922152362385333"><ele>102.0</ele><time>2026-03-22T06:34:31.983Z</time></trkpt><trkpt lat="41.923840081550225" lon="15.922116703025104"><ele>102.0</ele><time>2026-03-22T06:34:32.983Z</time></trkpt><trkpt lat="41.92394356390599" lon="15.922095123689756"><ele>102.0</ele><time>2026-03-22T06:34:33.983Z</time></trkpt><trkpt lat="41.92404933138889" lon="15.922079261756044"><ele>102.0</ele><time>2026-03-22T06:34:34.983Z</time></trkpt><trkpt lat="41.92414905189332" lon="15.922051162697317"><ele>102.0</ele><time>2026-03-22T06:34:35.983Z</time></trkpt><trkpt lat="41.924239792982426" lon="15.92199179539275"><ele>102.0</ele><time>2026-03-22T06:34:36.983Z</time></trkpt><trkpt lat="41.92432240960501" lon="15.921922532916145"><ele>100.8</ele><time>2026-03-22T06:34:37.983Z</time></trkpt><trkpt lat="41.92439356360259" lon="15.92184449992869"><ele>99.6</ele><time>2026-03-22T06:34:38.983Z</time></trkpt><trkpt lat="41.92446964918261" lon="15.921756959214692"><ele>98.39999999999999</ele><time>2026-03-22T06:34:39.983Z</time></trkpt><trkpt lat="41.92455181768338" lon="15.921674295460884"><ele>97.19999999999999</ele><time>2026-03-22T06:34:40.983Z</time></trkpt><trkpt lat="41.92463799901363" lon="15.92161508926139"><ele>96.0</ele><time>2026-03-22T06:34:41.983Z</time></trkpt><trkpt lat="41.92473822131005" lon="15.921559827706652"><ele>96.0</ele><time>2026-03-22T06:34:42.983Z</time></trkpt><trkpt lat="41.92482986347946" lon="15.921509239477691"><ele>96.0</ele><time>2026-03-22T06:34:43.983Z</time></trkpt><trkpt lat="41.92492192579502" lon="15.921474202798473"><ele>96.0</ele><time>2026-03-22T06:34:44.983Z</time></trkpt><trkpt lat="41.92500884009444" lon="15.921435867660884"><ele>96.0</ele><time>2026-03-22T06:34:45.983Z</time></trkpt><trkpt lat="41.92509842538918" lon="15.921392981488317"><ele>96.0</ele><time>2026-03-22T06:34:46.983Z</time></trkpt><trkpt lat="41.92518868725735" lon="15.921352408596139"><ele>94.5</ele><time>2026-03-22T06:34:47.982Z</time></trkpt><trkpt lat="41.92527563720189" lon="15.921332719904196"><ele>93.0</ele><time>2026-03-22T06:34:48.982Z</time></trkpt><trkpt lat="41.92535964984558" lon="15.921338535910134"><ele>91.5</ele><time>2026-03-22T06:34:49.982Z</time></trkpt><trkpt lat="41.92544161198541" lon="15.921361224942343"><ele>90.0</ele><time>2026-03-22T06:34:50.982Z</time></trkpt><trkpt lat="41.925525800384264" lon="15.921356811185547"><ele>88.5</ele><time>2026-03-22T06:34:51.982Z</time></trkpt><trkpt lat="41.925613344974686" lon="15.921331787427778"><ele>87.0</ele><time>2026-03-22T06:34:52.982Z</time></trkpt><trkpt lat="41.92571045281366" lon="15.921261627355983"><ele>87.0</ele><time>2026-03-22T06:34:53.982Z</time></trkpt><trkpt lat="41.925808385785885" lon="15.92121412668021"><ele>87.0</ele><time>2026-03-22T06:34:54.982Z</time></trkpt><trkpt lat="41.92590137026173" lon="15.921183728927115"><ele>87.0</ele><time>2026-03-22T06:34:55.982Z</time></trkpt><trkpt lat="41.92599070197644" lon="15.921142752097383"><ele>87.0</ele><time>2026-03-22T06:34:56.982Z</time></trkpt><trkpt lat="41.92607276711008" lon="15.92107805225803"><ele>87.0</ele><time>2026-03-22T06:34:57.982Z</time></trkpt><trkpt lat="41.92615034523987" lon="15.921023233696845"><ele>84.6</ele><time>2026-03-22T06:34:58.982Z</time></trkpt><trkpt lat="41.92623891323104" lon="15.920979481257211"><ele>82.19999999999999</ele><time>2026-03-22T06:34:59.982Z</time></trkpt><trkpt lat="41.926325390405644" lon="15.920950818159495"><ele>79.8</ele><time>2026-03-22T06:35:00.982Z</time></trkpt><trkpt lat="41.92641122234876" lon="15.920972176800884"><ele>77.4</ele><time>2026-03-22T06:35:01.982Z</time></trkpt><trkpt lat="41.92650625293165" lon="15.920992617416657"><ele>75.0</ele><time>2026-03-22T06:35:02.982Z</time></trkpt><trkpt lat="41.92661204477373" lon="15.921040141028948"><ele>70.75</ele><time>2026-03-22T06:35:03.982Z</time></trkpt><trkpt lat="41.92672981315416" lon="15.921097819319055"><ele>66.5</ele><time>2026-03-22T06:35:04.982Z</time></trkpt><trkpt lat="41.926857618553555" lon="15.921118133160599"><ele>62.25</ele><time>2026-03-22T06:35:05.982Z</time></trkpt><trkpt lat="41.92699955573439" lon="15.921135735237495"><ele>58.0</ele><time>2026-03-22T06:35:06.982Z</time></trkpt><trkpt lat="41.927145572728435" lon="15.921147091440034"><ele>58.0</ele><time>2026-03-22T06:35:07.982Z</time></trkpt><trkpt lat="41.92729902632581" lon="15.921171022362271"><ele>58.0</ele><time>2026-03-22T06:35:08.982Z</time></trkpt><trkpt lat="41.92743048338614" lon="15.921170160242637"><ele>58.0</ele><time>2026-03-22T06:35:09.982Z</time></trkpt><trkpt lat="41.9275387095109" lon="15.921179373179028"><ele>58.0</ele><time>2026-03-22T06:35:10.982Z</time></trkpt><trkpt lat="41.927640926701926" lon="15.921188794484534"><ele>55.166666666666664</ele><time>2026-03-22T06:35:11.982Z</time></trkpt><trkpt lat="41.92772919639031" lon="15.921181584019344"><ele>52.33333333333333</ele><time>2026-03-22T06:35:12.982Z</time></trkpt><trkpt lat="41.92780444051457" lon="15.921176512524008"><ele>49.5</ele><time>2026-03-22T06:35:14Z</time></trkpt><trkpt lat="41.927869846744166" lon="15.921151283255021"><ele>46.666666666666664</ele><time>2026-03-22T06:35:15Z</time></trkpt><trkpt lat="41.92792461613686" lon="15.921109071394529"><ele>43.83333333333333</ele><time>2026-03-22T06:35:16Z</time></trkpt><trkpt lat="41.9280182444163" lon="15.920962771089117"><ele>41.0</ele><time>2026-03-22T06:35:18Z</time></trkpt><trkpt lat="41.92805232480046" lon="15.920863482246421"><ele>40.599999999999994</ele><time>2026-03-22T06:35:19Z</time></trkpt><trkpt lat="41.928081063578965" lon="15.92078239152457"><ele>40.199999999999996</ele><time>2026-03-22T06:35:20Z</time></trkpt><trkpt lat="41.92811856821567" lon="15.92069452664584"><ele>39.8</ele><time>2026-03-22T06:35:21Z</time></trkpt><trkpt lat="41.928146725162776" lon="15.92061174288823"><ele>39.4</ele><time>2026-03-22T06:35:22Z</time></trkpt><trkpt lat="41.9282172068754" lon="15.920465555755436"><ele>39.0</ele><time>2026-03-22T06:35:24Z</time></trkpt><trkpt lat="41.92833668722922" lon="15.920371247502947"><ele>38.4</ele><time>2026-03-22T06:35:26Z</time></trkpt><trkpt lat="41.92843903329183" lon="15.920348004726177"><ele>37.8</ele><time>2026-03-22T06:35:27Z</time></trkpt><trkpt lat="41.92855731234699" lon="15.920332095689838"><ele>37.2</ele><time>2026-03-22T06:35:28Z</time></trkpt><trkpt lat="41.92866013929033" lon="15.920330473195776"><ele>36.6</ele><time>2026-03-22T06:35:29Z</time></trkpt><trkpt lat="41.92874484018134" lon="15.920327867469869"><ele>36.0</ele><time>2026-03-22T06:35:30Z</time></trkpt><trkpt lat="41.9288087500868" lon="15.92032118370601"><ele>36.0</ele><time>2026-03-22T06:35:31Z</time></trkpt><trkpt lat="41.92888082094473" lon="15.92035892323528"><ele>36.0</ele><time>2026-03-22T06:35:34Z</time></trkpt><trkpt lat="41.928952333372756" lon="15.920446742255553"><ele>36.0</ele><time>2026-03-22T06:35:36Z</time></trkpt><trkpt lat="41.929052638158744" lon="15.92056064305728"><ele>36.0</ele><time>2026-03-22T06:35:38Z</time></trkpt><trkpt lat="41.92912721262903" lon="15.920600318968916"><ele>36.0</ele><time>2026-03-22T06:35:39Z</time></trkpt><trkpt lat="41.92921775352277" lon="15.920622520823816"><ele>35.0</ele><time>2026-03-22T06:35:40Z</time></trkpt><trkpt lat="41.929326744820614" lon="15.920613904971896"><ele>34.0</ele><time>2026-03-22T06:35:41Z</time></trkpt><trkpt lat="41.929464202448806" lon="15.920577718244378"><ele>33.0</ele><time>2026-03-22T06:35:42Z</time></trkpt><trkpt lat="41.92958769840847" lon="15.920571362863445"><ele>32.0</ele><time>2026-03-22T06:35:43Z</time></trkpt><trkpt lat="41.92965519263372" lon="15.920575598297635"><ele>31.0</ele><time>2026-03-22T06:35:44Z</time></trkpt><trkpt lat="41.92970096481736" lon="15.92070325526648"><ele>31.000000000000004</ele><time>2026-03-22T06:35:46Z</time></trkpt><trkpt lat="41.929664571067654" lon="15.920788716522331"><ele>31.0</ele><time>2026-03-22T06:35:47Z</time></trkpt><trkpt lat="41.929611353989685" lon="15.92086606199674"><ele>31.0</ele><time>2026-03-22T06:35:48Z</time></trkpt><trkpt lat="41.92954861068336" lon="15.920939605020438"><ele>31.0</ele><time>2026-03-22T06:35:49Z</time></trkpt><trkpt lat="41.929495315495345" lon="15.921045030631117"><ele>31.000000000000004</ele><time>2026-03-22T06:35:50Z</time></trkpt><trkpt lat="41.92948237062907" lon="15.921161887155206"><ele>31.0</ele><time>2026-03-22T06:35:51Z</time></trkpt><trkpt lat="41.92948693649606" lon="15.921268856535736"><ele>31.833333333333336</ele><time>2026-03-22T06:35:52Z</time></trkpt><trkpt lat="41.92950136271213" lon="15.921361257915635"><ele>32.66666666666667</ele><time>2026-03-22T06:35:53Z</time></trkpt><trkpt lat="41.9295355724204" lon="15.921432996781553"><ele>33.5</ele><time>2026-03-22T06:35:54Z</time></trkpt><trkpt lat="41.92959395844051" lon="15.921503091755046"><ele>34.333333333333336</ele><time>2026-03-22T06:35:55Z</time></trkpt><trkpt lat="41.929661959322466" lon="15.921588701919745"><ele>35.166666666666664</ele><time>2026-03-22T06:35:56Z</time></trkpt><trkpt lat="41.92974283698252" lon="15.9217067204649"><ele>36.0</ele><time>2026-03-22T06:35:57Z</time></trkpt><trkpt lat="41.929801208594824" lon="15.921807339696723"><ele>36.5</ele><time>2026-03-22T06:35:58Z</time></trkpt><trkpt lat="41.929837538673105" lon="15.921920401828217"><ele>37.0</ele><time>2026-03-22T06:35:59Z</time></trkpt><trkpt lat="41.929872977736345" lon="15.922038303025872"><ele>37.5</ele><time>2026-03-22T06:36:00Z</time></trkpt><trkpt lat="41.92987537410654" lon="15.92217379196257"><ele>38.0</ele><time>2026-03-22T06:36:01Z</time></trkpt><trkpt lat="41.92986224538596" lon="15.92228800926569"><ele>38.5</ele><time>2026-03-22T06:36:02Z</time></trkpt><trkpt lat="41.929850180485765" lon="15.922386701213261"><ele>39.0</ele><time>2026-03-22T06:36:03Z</time></trkpt><trkpt lat="41.929875988352606" lon="15.922498129506815"><ele>39.0</ele><time>2026-03-22T06:36:05.002Z</time></trkpt><trkpt lat="41.929959796640915" lon="15.922531069005776"><ele>39.0</ele><time>2026-03-22T06:36:07.001Z</time></trkpt><trkpt lat="41.93009854881913" lon="15.922498679130845"><ele>39.0</ele><time>2026-03-22T06:36:09.002Z</time></trkpt><trkpt lat="41.93016561887401" lon="15.922460360680622"><ele>39.0</ele><time>2026-03-22T06:36:10.002Z</time></trkpt><trkpt lat="41.93026276291118" lon="15.922383170194824"><ele>39.0</ele><time>2026-03-22T06:36:12.001Z</time></trkpt><trkpt lat="41.93027885773166" lon="15.922257935384849"><ele>36.4</ele><time>2026-03-22T06:36:14.002Z</time></trkpt><trkpt lat="41.93029146360186" lon="15.922118508975078"><ele>33.8</ele><time>2026-03-22T06:36:16.002Z</time></trkpt><trkpt lat="41.93038494132391" lon="15.922088911935049"><ele>31.200000000000003</ele><time>2026-03-22T06:36:18.001Z</time></trkpt><trkpt lat="41.93048465542189" lon="15.922086730556522"><ele>28.6</ele><time>2026-03-22T06:36:20.001Z</time></trkpt><trkpt lat="41.9305427093242" lon="15.922222443148328"><ele>26.0</ele><time>2026-03-22T06:36:22.001Z</time></trkpt><trkpt lat="41.930586586992725" lon="15.92230389051555"><ele>25.999999999999996</ele><time>2026-03-22T06:36:23.001Z</time></trkpt><trkpt lat="41.93063872064665" lon="15.922359362585064"><ele>26.0</ele><time>2026-03-22T06:36:24.001Z</time></trkpt><trkpt lat="41.930693471206894" lon="15.922402350640203"><ele>26.0</ele><time>2026-03-22T06:36:25.001Z</time></trkpt><trkpt lat="41.930759843071726" lon="15.92242458603505"><ele>26.0</ele><time>2026-03-22T06:36:26.001Z</time></trkpt><trkpt lat="41.9308325188192" lon="15.922414855234344"><ele>25.999999999999996</ele><time>2026-03-22T06:36:27.001Z</time></trkpt><trkpt lat="41.930934411559996" lon="15.922377536105563"><ele>26.0</ele><time>2026-03-22T06:36:28.001Z</time></trkpt><trkpt lat="41.9310368981546" lon="15.92232397170937"><ele>24.999999999999996</ele><time>2026-03-22T06:36:29.001Z</time></trkpt><trkpt lat="41.93112830405287" lon="15.922287506265041"><ele>24.0</ele><time>2026-03-22T06:36:30.001Z</time></trkpt><trkpt lat="41.931212153641404" lon="15.92226711456925"><ele>23.0</ele><time>2026-03-22T06:36:31.001Z</time></trkpt><trkpt lat="41.93128280489009" lon="15.92226286908932"><ele>22.0</ele><time>2026-03-22T06:36:32.001Z</time></trkpt><trkpt lat="41.93135594394904" lon="15.922285955836024"><ele>21.0</ele><time>2026-03-22T06:36:33.001Z</time></trkpt><trkpt lat="41.931443564651524" lon="15.922317533987515"><ele>20.0</ele><time>2026-03-22T06:36:34.001Z</time></trkpt><trkpt lat="41.93154056170113" lon="15.922328492769795"><ele>20.0</ele><time>2026-03-22T06:36:35.001Z</time></trkpt><trkpt lat="41.93164391942111" lon="15.922336477031712"><ele>20.0</ele><time>2026-03-22T06:36:36.001Z</time></trkpt><trkpt lat="41.93174330728158" lon="15.922332508329763"><ele>20.0</ele><time>2026-03-22T06:36:37.001Z</time></trkpt><trkpt lat="41.93185933415952" lon="15.922291237467457"><ele>20.0</ele><time>2026-03-22T06:36:38.001Z</time></trkpt><trkpt lat="41.93198279509601" lon="15.922215052406436"><ele>18.2</ele><time>2026-03-22T06:36:39.001Z</time></trkpt><trkpt lat="41.93209731554933" lon="15.922153356133496"><ele>16.4</ele><time>2026-03-22T06:36:40.001Z</time></trkpt><trkpt lat="41.93220110358892" lon="15.922119270005155"><ele>14.600000000000001</ele><time>2026-03-22T06:36:41.001Z</time></trkpt><trkpt lat="41.932297447507125" lon="15.922090784099362"><ele>12.8</ele><time>2026-03-22T06:36:42.001Z</time></trkpt><trkpt lat="41.93237942209719" lon="15.922060184668238"><ele>11.0</ele><time>2026-03-22T06:36:43.001Z</time></trkpt><trkpt lat="41.93245306606654" lon="15.922036554097675"><ele>11.0</ele><time>2026-03-22T06:36:44.001Z</time></trkpt><trkpt lat="41.93252453285939" lon="15.922022506028064"><ele>11.0</ele><time>2026-03-22T06:36:45.001Z</time></trkpt><trkpt lat="41.932590164744575" lon="15.92200140028014"><ele>11.0</ele><time>2026-03-22T06:36:46.001Z</time></trkpt><trkpt lat="41.93269030416999" lon="15.922015023310939"><ele>11.0</ele><time>2026-03-22T06:36:48.001Z</time></trkpt><trkpt lat="41.93272657073494" lon="15.922147133471903"><ele>11.0</ele><time>2026-03-22T06:36:50.001Z</time></trkpt><trkpt lat="41.932722545069964" lon="15.92229588428625"><ele>9.200000000000001</ele><time>2026-03-22T06:36:52.001Z</time></trkpt><trkpt lat="41.93274919911024" lon="15.922438814789777"><ele>7.4</ele><time>2026-03-22T06:36:54.001Z</time></trkpt><trkpt lat="41.932825819598435" lon="15.922464186472292"><ele>5.6000000000000005</ele><time>2026-03-22T06:36:57.001Z</time></trkpt><trkpt lat="41.932863463809056" lon="15.922382047600893"><ele>3.8000000000000003</ele><time>2026-03-22T06:37:07.001Z</time></trkpt><trkpt lat="41.932842458657845" lon="15.922554925663853"><ele>2.0</ele><time>2026-03-22T06:37:13.001Z</time></trkpt><trkpt lat="41.9328590389825" lon="15.922701208578433"><ele>1.75</ele><time>2026-03-22T06:37:14.001Z</time></trkpt><trkpt lat="41.93287223453858" lon="15.922857758924005"><ele>1.5</ele><time>2026-03-22T06:37:15.001Z</time></trkpt><trkpt lat="41.93289615689474" lon="15.923039404741237"><ele>1.25</ele><time>2026-03-22T06:37:16.001Z</time></trkpt><trkpt lat="41.93291452683693" lon="15.923247421111922"><ele>1.0</ele><time>2026-03-22T06:37:17.001Z</time></trkpt><trkpt lat="41.93293309341302" lon="15.923494771673106"><ele>0.6666666666666666</ele><time>2026-03-22T06:37:18.001Z</time></trkpt><trkpt lat="41.93296771691781" lon="15.923762535494195"><ele>0.3333333333333333</ele><time>2026-03-22T06:37:19.001Z</time></trkpt><trkpt lat="41.933002477112446" lon="15.924029014241482"><ele>0.0</ele><time>2026-03-22T06:37:20.001Z</time></trkpt><trkpt lat="41.9330233359198" lon="15.924293452132497"><ele>0.6666666666666666</ele><time>2026-03-22T06:37:21.001Z</time></trkpt><trkpt lat="41.93304915240274" lon="15.924597504942273"><ele>1.3333333333333333</ele><time>2026-03-22T06:37:22.001Z</time></trkpt><trkpt lat="41.933082429566404" lon="15.924875699359294"><ele>2.0</ele><time>2026-03-22T06:37:23.001Z</time></trkpt><trkpt lat="41.93312178027365" lon="15.925145456115644"><ele>3.0</ele><time>2026-03-22T06:37:24Z</time></trkpt><trkpt lat="41.93316183987724" lon="15.925421548818937"><ele>4.0</ele><time>2026-03-22T06:37:25Z</time></trkpt><trkpt lat="41.93318220771767" lon="15.925700668131595"><ele>5.0</ele><time>2026-03-22T06:37:26Z</time></trkpt><trkpt lat="41.93322161388159" lon="15.925975557745598"><ele>5.666666666666667</ele><time>2026-03-22T06:37:27Z</time></trkpt><trkpt lat="41.93326076715379" lon="15.926243392313989"><ele>6.333333333333334</ele><time>2026-03-22T06:37:28Z</time></trkpt><trkpt lat="41.93329158059444" lon="15.926483270367262"><ele>7.0</ele><time>2026-03-22T06:37:29Z</time></trkpt><trkpt lat="41.93332671581805" lon="15.926731120164058"><ele>9.0</ele><time>2026-03-22T06:37:30Z</time></trkpt><trkpt lat="41.93336495650779" lon="15.926985764890842"><ele>11.0</ele><time>2026-03-22T06:37:31Z</time></trkpt><trkpt lat="41.93339854998888" lon="15.927236604064555"><ele>13.0</ele><time>2026-03-22T06:37:32Z</time></trkpt><trkpt lat="41.933435696563215" lon="15.927495561622473"><ele>8.666666666666666</ele><time>2026-03-22T06:37:33Z</time></trkpt><trkpt lat="41.93347522708057" lon="15.927753958421897"><ele>4.333333333333333</ele><time>2026-03-22T06:37:34Z</time></trkpt><trkpt lat="41.933510473915206" lon="15.928027821526223"><ele>0.0</ele><time>2026-03-22T06:37:35Z</time></trkpt><trkpt lat="41.93354676496785" lon="15.928297494162972"><ele>0.0</ele><time>2026-03-22T06:37:36Z</time></trkpt><trkpt lat="41.933587681304914" lon="15.928557237585375"><ele>0.0</ele><time>2026-03-22T06:37:37Z</time></trkpt><trkpt lat="41.933627416823704" lon="15.928812298861903"><ele>0.0</ele><time>2026-03-22T06:37:38Z</time></trkpt><trkpt lat="41.93364647887862" lon="15.929060193429029"><ele>0.0</ele><time>2026-03-22T06:37:39Z</time></trkpt><trkpt lat="41.93367706664106" lon="15.929302167978008"><ele>0.0</ele><time>2026-03-22T06:37:40Z</time></trkpt><trkpt lat="41.93370229970999" lon="15.929533569712135"><ele>0.0</ele><time>2026-03-22T06:37:41Z</time></trkpt><trkpt lat="41.933743199613865" lon="15.929777184227616"><ele>0.0</ele><time>2026-03-22T06:37:42Z</time></trkpt><trkpt lat="41.93377330357375" lon="15.930007064050663"><ele>0.0</ele><time>2026-03-22T06:37:43Z</time></trkpt><trkpt lat="41.93381031617816" lon="15.930262022733565"><ele>0.0</ele><time>2026-03-22T06:37:44Z</time></trkpt><trkpt lat="41.93384796936116" lon="15.930514529150033"><ele>0.6666666666666666</ele><time>2026-03-22T06:37:45Z</time></trkpt><trkpt lat="41.933880586938564" lon="15.9307553543214"><ele>1.3333333333333333</ele><time>2026-03-22T06:37:46Z</time></trkpt><trkpt lat="41.93392705355194" lon="15.930990327784569"><ele>2.0</ele><time>2026-03-22T06:37:47Z</time></trkpt><trkpt lat="41.93395683118206" lon="15.931229889131714"><ele>2.6666666666666665</ele><time>2026-03-22T06:37:48Z</time></trkpt><trkpt lat="41.93400611670763" lon="15.93147080720579"><ele>3.333333333333333</ele><time>2026-03-22T06:37:49Z</time></trkpt><trkpt lat="41.93405044102236" lon="15.931712049100623"><ele>4.0</ele><time>2026-03-22T06:37:50Z</time></trkpt><trkpt lat="41.93409334981283" lon="15.931965007386477"><ele>5.333333333333333</ele><time>2026-03-22T06:37:51Z</time></trkpt><trkpt lat="41.934155261408435" lon="15.932222335065688"><ele>6.666666666666666</ele><time>2026-03-22T06:37:52Z</time></trkpt><trkpt lat="41.93419818864442" lon="15.932482465960115"><ele>8.0</ele><time>2026-03-22T06:37:53Z</time></trkpt><trkpt lat="41.93423718731632" lon="15.932739754201435"><ele>5.333333333333333</ele><time>2026-03-22T06:37:54Z</time></trkpt><trkpt lat="41.93427754603721" lon="15.932981118506047"><ele>2.6666666666666665</ele><time>2026-03-22T06:37:55Z</time></trkpt><trkpt lat="41.93432061743711" lon="15.933231124451991"><ele>0.0</ele><time>2026-03-22T06:37:56Z</time></trkpt><trkpt lat="41.93435583885599" lon="15.933476577624534"><ele>0.0</ele><time>2026-03-22T06:37:57Z</time></trkpt><trkpt lat="41.93438418622113" lon="15.933736476748596"><ele>0.0</ele><time>2026-03-22T06:37:58Z</time></trkpt><trkpt lat="41.934423188326576" lon="15.934001384858758"><ele>0.0</ele><time>2026-03-22T06:37:59Z</time></trkpt><trkpt lat="41.93446280857846" lon="15.934295523203993"><ele>0.5</ele><time>2026-03-22T06:38:00Z</time></trkpt><trkpt lat="41.9345022608025" lon="15.934594742277106"><ele>1.0</ele><time>2026-03-22T06:38:01Z</time></trkpt><trkpt lat="41.934540562890106" lon="15.934913869132215"><ele>1.0</ele><time>2026-03-22T06:38:02Z</time></trkpt><trkpt lat="41.93457239367361" lon="15.935260232138136"><ele>1.0</ele><time>2026-03-22T06:38:03Z</time></trkpt><trkpt lat="41.934608172392146" lon="15.935579590102929"><ele>1.5</ele><time>2026-03-22T06:38:04Z</time></trkpt><trkpt lat="41.93463391192977" lon="15.935912616250835"><ele>2.0</ele><time>2026-03-22T06:38:05Z</time></trkpt><trkpt lat="41.93466103246347" lon="15.936271163151318"><ele>2.0</ele><time>2026-03-22T06:38:06Z</time></trkpt><trkpt lat="41.93468881943101" lon="15.936639486228188"><ele>2.0</ele><time>2026-03-22T06:38:07Z</time></trkpt><trkpt lat="41.9347285823145" lon="15.936987935846503"><ele>2.5</ele><time>2026-03-22T06:38:08Z</time></trkpt><trkpt lat="41.934772019150344" lon="15.937334501522365"><ele>3.0</ele><time>2026-03-22T06:38:09Z</time></trkpt><trkpt lat="41.93480154303103" lon="15.937667786467225"><ele>3.5</ele><time>2026-03-22T06:38:10.001Z</time></trkpt><trkpt lat="41.934838878886794" lon="15.937988670402751"><ele>4.0</ele><time>2026-03-22T06:38:11.002Z</time></trkpt><trkpt lat="41.93485969542419" lon="15.938274415322509"><ele>4.333333333333333</ele><time>2026-03-22T06:38:12.002Z</time></trkpt><trkpt lat="41.93488478177202" lon="15.938561360318944"><ele>4.666666666666667</ele><time>2026-03-22T06:38:13.002Z</time></trkpt><trkpt lat="41.934910398206576" lon="15.938852914071923"><ele>5.0</ele><time>2026-03-22T06:38:14.002Z</time></trkpt><trkpt lat="41.93494746884573" lon="15.93913796174167"><ele>5.333333333333334</ele><time>2026-03-22T06:38:15.002Z</time></trkpt><trkpt lat="41.93497357570544" lon="15.939419711266693"><ele>5.666666666666667</ele><time>2026-03-22T06:38:16.002Z</time></trkpt><trkpt lat="41.93500320239849" lon="15.939707708293907"><ele>6.0</ele><time>2026-03-22T06:38:17.001Z</time></trkpt><trkpt lat="41.935034697238045" lon="15.939983278827475"><ele>4.333333333333333</ele><time>2026-03-22T06:38:18.001Z</time></trkpt><trkpt lat="41.935065200069445" lon="15.940246529114443"><ele>2.6666666666666665</ele><time>2026-03-22T06:38:19.002Z</time></trkpt><trkpt lat="41.935107287027506" lon="15.940519600710559"><ele>1.0</ele><time>2026-03-22T06:38:20.001Z</time></trkpt><trkpt lat="41.93515209783576" lon="15.940784559365747"><ele>1.0</ele><time>2026-03-22T06:38:21.001Z</time></trkpt><trkpt lat="41.93519286662031" lon="15.941043689860086"><ele>1.0</ele><time>2026-03-22T06:38:22.002Z</time></trkpt><trkpt lat="41.93523737096873" lon="15.941286999228485"><ele>1.0</ele><time>2026-03-22T06:38:23.002Z</time></trkpt><trkpt lat="41.935288286329445" lon="15.94153881421392"><ele>1.0</ele><time>2026-03-22T06:38:24.002Z</time></trkpt><trkpt lat="41.93533433080948" lon="15.941784860048992"><ele>1.0</ele><time>2026-03-22T06:38:25.002Z</time></trkpt><trkpt lat="41.935385465299994" lon="15.942013433068457"><ele>1.0</ele><time>2026-03-22T06:38:26.002Z</time></trkpt><trkpt lat="41.93546288429342" lon="15.942242971631627"><ele>1.0</ele><time>2026-03-22T06:38:27.002Z</time></trkpt><trkpt lat="41.93553186587599" lon="15.942451835129246"><ele>1.0</ele><time>2026-03-22T06:38:28.002Z</time></trkpt><trkpt lat="41.935611772583286" lon="15.942668553450588"><ele>1.0</ele><time>2026-03-22T06:38:29.002Z</time></trkpt><trkpt lat="41.93570227406417" lon="15.942911933516152"><ele>1.6666666666666665</ele><time>2026-03-22T06:38:30.002Z</time></trkpt><trkpt lat="41.93576157105629" lon="15.943148903459807"><ele>2.3333333333333335</ele><time>2026-03-22T06:38:31.002Z</time></trkpt><trkpt lat="41.93582053716907" lon="15.943384393492627"><ele>3.0</ele><time>2026-03-22T06:38:32.002Z</time></trkpt><trkpt lat="41.935853305792385" lon="15.943649616194978"><ele>3.0</ele><time>2026-03-22T06:38:33.002Z</time></trkpt><trkpt lat="41.9358846842048" lon="15.943971714424082"><ele>3.0</ele><time>2026-03-22T06:38:34.002Z</time></trkpt><trkpt lat="41.93592737490827" lon="15.944322534241378"><ele>2.0</ele><time>2026-03-22T06:38:35.002Z</time></trkpt><trkpt lat="41.935953472776845" lon="15.944626239076511"><ele>1.0</ele><time>2026-03-22T06:38:36.002Z</time></trkpt><trkpt lat="41.9359720675157" lon="15.944877295527771"><ele>0.0</ele><time>2026-03-22T06:38:37.002Z</time></trkpt><trkpt lat="41.93600436440301" lon="15.945108538816667"><ele>0.0</ele><time>2026-03-22T06:38:38.002Z</time></trkpt><trkpt lat="41.93602903968113" lon="15.94533620728263"><ele>0.0</ele><time>2026-03-22T06:38:39.002Z</time></trkpt><trkpt lat="41.936049953244165" lon="15.945578996744224"><ele>0.0</ele><time>2026-03-22T06:38:40.002Z</time></trkpt><trkpt lat="41.93607727176694" lon="15.945861293601448"><ele>0.0</ele><time>2026-03-22T06:38:41.002Z</time></trkpt><trkpt lat="41.936100359534436" lon="15.946175626102601"><ele>0.0</ele><time>2026-03-22T06:38:42.002Z</time></trkpt><trkpt lat="41.93613568420657" lon="15.946499871950273"><ele>0.5</ele><time>2026-03-22T06:38:43.002Z</time></trkpt><trkpt lat="41.936163777009725" lon="15.946850784155668"><ele>1.0</ele><time>2026-03-22T06:38:44.002Z</time></trkpt><trkpt lat="41.936207818351846" lon="15.947188522222147"><ele>1.0</ele><time>2026-03-22T06:38:45.002Z</time></trkpt><trkpt lat="41.93623941694568" lon="15.947519548329181"><ele>1.0</ele><time>2026-03-22T06:38:46.002Z</time></trkpt><trkpt lat="41.936272784774864" lon="15.94784394251493"><ele>0.6666666666666666</ele><time>2026-03-22T06:38:47.002Z</time></trkpt><trkpt lat="41.936310405203805" lon="15.948131704345274"><ele>0.3333333333333333</ele><time>2026-03-22T06:38:48.002Z</time></trkpt><trkpt lat="41.93634492408632" lon="15.948407834769297"><ele>0.0</ele><time>2026-03-22T06:38:49.002Z</time></trkpt><trkpt lat="41.93638121986353" lon="15.948666822718707"><ele>0.6666666666666666</ele><time>2026-03-22T06:38:50.002Z</time></trkpt><trkpt lat="41.9364121623197" lon="15.948904547382806"><ele>1.3333333333333333</ele><time>2026-03-22T06:38:51.002Z</time></trkpt><trkpt lat="41.93642873271692" lon="15.949116625059972"><ele>2.0</ele><time>2026-03-22T06:38:52.002Z</time></trkpt><trkpt lat="41.9364300303466" lon="15.949315878141416"><ele>2.5</ele><time>2026-03-22T06:38:53.002Z</time></trkpt><trkpt lat="41.93640978066338" lon="15.949508955486518"><ele>3.0</ele><time>2026-03-22T06:38:54.002Z</time></trkpt><trkpt lat="41.93639073661842" lon="15.949685654494623"><ele>3.5</ele><time>2026-03-22T06:38:55.002Z</time></trkpt><trkpt lat="41.93640637686729" lon="15.949876444493487"><ele>4.0</ele><time>2026-03-22T06:38:56.002Z</time></trkpt><trkpt lat="41.93645971253775" lon="15.950095251265807"><ele>4.0</ele><time>2026-03-22T06:38:57.002Z</time></trkpt><trkpt lat="41.93654185992037" lon="15.95035344144149"><ele>4.0</ele><time>2026-03-22T06:38:58.002Z</time></trkpt><trkpt lat="41.936618962362175" lon="15.950623806997847"><ele>4.0</ele><time>2026-03-22T06:38:59.002Z</time></trkpt><trkpt lat="41.93667920299867" lon="15.950949060528945"><ele>2.0</ele><time>2026-03-22T06:39:00.002Z</time></trkpt><trkpt lat="41.936729397740166" lon="15.951305814276616"><ele>0.0</ele><time>2026-03-22T06:39:01.002Z</time></trkpt><trkpt lat="41.936771532031344" lon="15.951659354832767"><ele>0.0</ele><time>2026-03-22T06:39:02.002Z</time></trkpt><trkpt lat="41.93681685472056" lon="15.952015469829798"><ele>0.0</ele><time>2026-03-22T06:39:03.002Z</time></trkpt><trkpt lat="41.936858085724424" lon="15.952321975361546"><ele>0.3333333333333333</ele><time>2026-03-22T06:39:04.002Z</time></trkpt><trkpt lat="41.93689773171097" lon="15.952597085998502"><ele>0.6666666666666666</ele><time>2026-03-22T06:39:05.002Z</time></trkpt><trkpt lat="41.936935021429804" lon="15.952852002661267"><ele>1.0</ele><time>2026-03-22T06:39:06.002Z</time></trkpt><trkpt lat="41.93696317369459" lon="15.953086322176992"><ele>1.0</ele><time>2026-03-22T06:39:07.002Z</time></trkpt><trkpt lat="41.93699739704592" lon="15.953321665894062"><ele>1.0</ele><time>2026-03-22T06:39:08.002Z</time></trkpt><trkpt lat="41.9370188456277" lon="15.953530750077636"><ele>1.0</ele><time>2026-03-22T06:39:09.002Z</time></trkpt><trkpt lat="41.937045702256064" lon="15.953722781575953"><ele>1.2000000000000002</ele><time>2026-03-22T06:39:10.002Z</time></trkpt><trkpt lat="41.93706581913328" lon="15.953900506972797"><ele>1.4000000000000001</ele><time>2026-03-22T06:39:11.002Z</time></trkpt><trkpt lat="41.93708229689874" lon="15.954060938839122"><ele>1.6</ele><time>2026-03-22T06:39:12.002Z</time></trkpt><trkpt lat="41.937080880330875" lon="15.954182489088158"><ele>1.8</ele><time>2026-03-22T06:39:13.002Z</time></trkpt><trkpt lat="41.9370238971254" lon="15.954273889557747"><ele>2.0</ele><time>2026-03-22T06:39:15.002Z</time></trkpt><trkpt lat="41.93691053412024" lon="15.954279810559468"><ele>2.4000000000000004</ele><time>2026-03-22T06:39:17.001Z</time></trkpt><trkpt lat="41.9368078792034" lon="15.954266938181071"><ele>2.8000000000000003</ele><time>2026-03-22T06:39:18.001Z</time></trkpt><trkpt lat="41.93670198585572" lon="15.954273858130673"><ele>3.2</ele><time>2026-03-22T06:39:19.001Z</time></trkpt><trkpt lat="41.936587697637115" lon="15.954292636299543"><ele>3.6</ele><time>2026-03-22T06:39:20.001Z</time></trkpt><trkpt lat="41.93647143000857" lon="15.954311580665792"><ele>4.0</ele><time>2026-03-22T06:39:21.001Z</time></trkpt><trkpt lat="41.936376301960095" lon="15.954292732856452"><ele>6.0</ele><time>2026-03-22T06:39:22.001Z</time></trkpt><trkpt lat="41.93631241685534" lon="15.95429773932759"><ele>8.0</ele><time>2026-03-22T06:39:23.001Z</time></trkpt><trkpt lat="41.936287667410525" lon="15.954410700899183"><ele>9.999999999999998</ele><time>2026-03-22T06:39:27.001Z</time></trkpt><trkpt lat="41.93630020201324" lon="15.954509623456119"><ele>12.0</ele><time>2026-03-22T06:39:28.001Z</time></trkpt><trkpt lat="41.93631879003414" lon="15.954643205706459"><ele>14.0</ele><time>2026-03-22T06:39:29.001Z</time></trkpt><trkpt lat="41.93633824068111" lon="15.954888328714151"><ele>13.333333333333334</ele><time>2026-03-22T06:39:30.001Z</time></trkpt><trkpt lat="41.93635662850324" lon="15.9550439274322"><ele>12.666666666666668</ele><time>2026-03-22T06:39:31.001Z</time></trkpt><trkpt lat="41.93635085981532" lon="15.95514622608201"><ele>12.0</ele><time>2026-03-22T06:39:32.001Z</time></trkpt><trkpt lat="41.93629953073961" lon="15.955261478261564"><ele>11.333333333333334</ele><time>2026-03-22T06:39:34.001Z</time></trkpt><trkpt lat="41.93621521516342" lon="15.95526897769085"><ele>10.666666666666668</ele><time>2026-03-22T06:39:36.001Z</time></trkpt><trkpt lat="41.93614872412801" lon="15.955251917085048"><ele>10.0</ele><time>2026-03-22T06:39:37.001Z</time></trkpt><trkpt lat="41.93605784668417" lon="15.955265923264694"><ele>10.0</ele><time>2026-03-22T06:39:38.001Z</time></trkpt><trkpt lat="41.935962330064854" lon="15.95528253915678"><ele>10.0</ele><time>2026-03-22T06:39:39.001Z</time></trkpt><trkpt lat="41.93588525124192" lon="15.955319583956761"><ele>10.0</ele><time>2026-03-22T06:39:40.001Z</time></trkpt><trkpt lat="41.93581844849674" lon="15.9553702041694"><ele>10.0</ele><time>2026-03-22T06:39:41.001Z</time></trkpt><trkpt lat="41.93575612632045" lon="15.955463416264443"><ele>10.0</ele><time>2026-03-22T06:39:42.001Z</time></trkpt><trkpt lat="41.935702243440865" lon="15.955582134532609"><ele>11.0</ele><time>2026-03-22T06:39:43.001Z</time></trkpt><trkpt lat="41.93562738965571" lon="15.955704578245633"><ele>12.0</ele><time>2026-03-22T06:39:44.001Z</time></trkpt><trkpt lat="41.935562111497894" lon="15.95580222259618"><ele>13.0</ele><time>2026-03-22T06:39:45.001Z</time></trkpt><trkpt lat="41.93548439022455" lon="15.955882541231938"><ele>14.0</ele><time>2026-03-22T06:39:46.001Z</time></trkpt><trkpt lat="41.93541826869622" lon="15.95595509058133"><ele>15.0</ele><time>2026-03-22T06:39:47.001Z</time></trkpt><trkpt lat="41.93535037819111" lon="15.956019089429793"><ele>15.0</ele><time>2026-03-22T06:39:48.001Z</time></trkpt><trkpt lat="41.935234467275876" lon="15.956104214407048"><ele>15.0</ele><time>2026-03-22T06:39:50.001Z</time></trkpt><trkpt lat="41.93517074423869" lon="15.956159795789256"><ele>15.0</ele><time>2026-03-22T06:39:51.001Z</time></trkpt><trkpt lat="41.93511286479046" lon="15.956229133553103"><ele>15.0</ele><time>2026-03-22T06:39:52.001Z</time></trkpt><trkpt lat="41.93506644458175" lon="15.956317012706403"><ele>15.0</ele><time>2026-03-22T06:39:53.001Z</time></trkpt><trkpt lat="41.9350126637718" lon="15.956361805756872"><ele>15.0</ele><time>2026-03-22T06:39:55.001Z</time></trkpt><trkpt lat="41.934908481901594" lon="15.95631633447436"><ele>16.833333333333332</ele><time>2026-03-22T06:39:58.001Z</time></trkpt><trkpt lat="41.93482594825466" lon="15.956304118345727"><ele>18.666666666666664</ele><time>2026-03-22T06:39:59.001Z</time></trkpt><trkpt lat="41.93475305667663" lon="15.956321691100733"><ele>20.5</ele><time>2026-03-22T06:40:00.001Z</time></trkpt><trkpt lat="41.934685913431395" lon="15.956338256648557"><ele>22.333333333333332</ele><time>2026-03-22T06:40:01.001Z</time></trkpt><trkpt lat="41.93461523121726" lon="15.956353255633728"><ele>24.166666666666664</ele><time>2026-03-22T06:40:02.001Z</time></trkpt><trkpt lat="41.93454815244355" lon="15.956378266170804"><ele>26.0</ele><time>2026-03-22T06:40:03.001Z</time></trkpt><trkpt lat="41.93446480326473" lon="15.956403167286684"><ele>26.0</ele><time>2026-03-22T06:40:04.001Z</time></trkpt><trkpt lat="41.93436487032659" lon="15.956444203978204"><ele>26.0</ele><time>2026-03-22T06:40:05.001Z</time></trkpt><trkpt lat="41.934284254781645" lon="15.956509095319843"><ele>26.0</ele><time>2026-03-22T06:40:06.001Z</time></trkpt><trkpt lat="41.934194185934956" lon="15.956587140373577"><ele>26.0</ele><time>2026-03-22T06:40:07.001Z</time></trkpt><trkpt lat="41.93411038490592" lon="15.956655263618307"><ele>26.0</ele><time>2026-03-22T06:40:08.001Z</time></trkpt><trkpt lat="41.93404802946177" lon="15.9567268520077"><ele>27.0</ele><time>2026-03-22T06:40:09.001Z</time></trkpt><trkpt lat="41.933969619509796" lon="15.956767590396524"><ele>28.0</ele><time>2026-03-22T06:40:11.001Z</time></trkpt><trkpt lat="41.93397015395844" lon="15.9568628478844"><ele>29.0</ele><time>2026-03-22T06:40:13.001Z</time></trkpt><trkpt lat="41.93399010377303" lon="15.956943985355931"><ele>30.0</ele><time>2026-03-22T06:45:26.001Z</time></trkpt><trkpt lat="41.93395873426309" lon="15.956870350834123"><ele>31.0</ele><time>2026-03-22T06:46:15Z</time></trkpt><trkpt lat="41.93400002350249" lon="15.956786063133544"><ele>32.0</ele><time>2026-03-22T06:46:22Z</time></trkpt><trkpt lat="41.93395701880326" lon="15.956851602494245"><ele>33.0</ele><time>2026-03-22T06:47:09.001Z</time></trkpt><trkpt lat="41.93394989911304" lon="15.956939985178309"><ele>33.0</ele><time>2026-03-22T06:51:29.002Z</time></trkpt><trkpt lat="41.93388662169509" lon="15.956915512918846"><ele>33.0</ele><time>2026-03-22T07:07:58.99Z</time></trkpt></trkseg><trkseg><trkpt lat="41.93400174045585" lon="15.956926419829164"><ele>33.0</ele><time>2026-03-22T08:03:40.921Z</time></trkpt><trkpt lat="41.93391661196635" lon="15.956906277526752"><ele>33.0</ele><time>2026-03-22T08:04:48.919Z</time></trkpt><trkpt lat="41.93396532498142" lon="15.956972081051068"><ele>33.0</ele><time>2026-03-22T08:08:00.916Z</time></trkpt><trkpt lat="41.933947307617835" lon="15.956867967254114"><ele>33.0</ele><time>2026-03-22T08:08:26.916Z</time></trkpt><trkpt lat="41.933982438026334" lon="15.95679629022206"><ele>33.0</ele><time>2026-03-22T08:08:28.915Z</time></trkpt><trkpt lat="41.93406055337857" lon="15.956752431175085"><ele>33.0</ele><time>2026-03-22T08:08:29.915Z</time></trkpt><trkpt lat="41.93412579358929" lon="15.956688446356656"><ele>33.5</ele><time>2026-03-22T08:08:30.915Z</time></trkpt><trkpt lat="41.93418358371088" lon="15.956641701323134"><ele>34.0</ele><time>2026-03-22T08:08:31.915Z</time></trkpt><trkpt lat="41.93424072173009" lon="15.956585575748878"><ele>34.5</ele><time>2026-03-22T08:08:32.915Z</time></trkpt><trkpt lat="41.9342975791719" lon="15.956540140293598"><ele>35.0</ele><time>2026-03-22T08:08:33.915Z</time></trkpt><trkpt lat="41.9344206321132" lon="15.956478800108682"><ele>35.5</ele><time>2026-03-22T08:08:35.915Z</time></trkpt><trkpt lat="41.93448624494174" lon="15.956456605681545"><ele>36.0</ele><time>2026-03-22T08:08:36.915Z</time></trkpt><trkpt lat="41.93461271999924" lon="15.956419690587712"><ele>34.0</ele><time>2026-03-22T08:08:38.915Z</time></trkpt><trkpt lat="41.93470410044802" lon="15.956370383132063"><ele>32.0</ele><time>2026-03-22T08:08:40.915Z</time></trkpt><trkpt lat="41.93482141476676" lon="15.956361129831313"><ele>30.0</ele><time>2026-03-22T08:08:42.915Z</time></trkpt><trkpt lat="41.934889478432126" lon="15.956338442277884"><ele>28.0</ele><time>2026-03-22T08:08:44.915Z</time></trkpt><trkpt lat="41.934983829680874" lon="15.956480927297592"><ele>26.0</ele><time>2026-03-22T08:08:46.915Z</time></trkpt><trkpt lat="41.935008033644245" lon="15.956615058627268"><ele>26.0</ele><time>2026-03-22T08:08:47.915Z</time></trkpt><trkpt lat="41.935046321605405" lon="15.956696402516766"><ele>26.0</ele><time>2026-03-22T08:08:48.915Z</time></trkpt><trkpt lat="41.935108778357936" lon="15.956767166421658"><ele>26.0</ele><time>2026-03-22T08:08:49.915Z</time></trkpt><trkpt lat="41.935170619162164" lon="15.956863834565555"><ele>26.0</ele><time>2026-03-22T08:08:51.915Z</time></trkpt><trkpt lat="41.935221677145535" lon="15.956957272379213"><ele>26.0</ele><time>2026-03-22T08:08:55.915Z</time></trkpt><trkpt lat="41.93517676424528" lon="15.957100058000616"><ele>25.8</ele><time>2026-03-22T08:08:57.915Z</time></trkpt><trkpt lat="41.93514798523344" lon="15.957203442082383"><ele>25.6</ele><time>2026-03-22T08:08:58.915Z</time></trkpt><trkpt lat="41.93511526619827" lon="15.957322127222968"><ele>25.4</ele><time>2026-03-22T08:08:59.914Z</time></trkpt><trkpt lat="41.93513935739948" lon="15.957427596722255"><ele>25.2</ele><time>2026-03-22T08:09:00.914Z</time></trkpt><trkpt lat="41.935208832847415" lon="15.95753715580636"><ele>25.0</ele><time>2026-03-22T08:09:01.914Z</time></trkpt><trkpt lat="41.93527149977644" lon="15.957620270512162"><ele>25.000000000000004</ele><time>2026-03-22T08:09:02.914Z</time></trkpt><trkpt lat="41.935333854873946" lon="15.957679363400985"><ele>25.0</ele><time>2026-03-22T08:09:03.914Z</time></trkpt><trkpt lat="41.93539312309417" lon="15.957721676297568"><ele>25.0</ele><time>2026-03-22T08:09:04.914Z</time></trkpt><trkpt lat="41.935503781094226" lon="15.957786434918152"><ele>25.0</ele><time>2026-03-22T08:09:06.914Z</time></trkpt><trkpt lat="41.93557935139821" lon="15.957802578752737"><ele>25.000000000000004</ele><time>2026-03-22T08:09:07.914Z</time></trkpt><trkpt lat="41.93568230296143" lon="15.95782177334695"><ele>25.0</ele><time>2026-03-22T08:09:08.914Z</time></trkpt><trkpt lat="41.935799839274566" lon="15.957833569130903"><ele>25.0</ele><time>2026-03-22T08:09:09.914Z</time></trkpt><trkpt lat="41.935926639334475" lon="15.95784055502777"><ele>25.0</ele><time>2026-03-22T08:09:10.914Z</time></trkpt><trkpt lat="41.936057986580515" lon="15.957854853984154"><ele>25.0</ele><time>2026-03-22T08:09:11.914Z</time></trkpt><trkpt lat="41.93619711562315" lon="15.9578581660344"><ele>25.0</ele><time>2026-03-22T08:09:12.914Z</time></trkpt><trkpt lat="41.93635633750028" lon="15.957877382092226"><ele>25.0</ele><time>2026-03-22T08:09:13.914Z</time></trkpt><trkpt lat="41.936515894961815" lon="15.957925386142751"><ele>25.0</ele><time>2026-03-22T08:09:14.914Z</time></trkpt><trkpt lat="41.93665822369952" lon="15.957953118595505"><ele>25.0</ele><time>2026-03-22T08:09:15.914Z</time></trkpt><trkpt lat="41.936789418545125" lon="15.957959828161687"><ele>25.0</ele><time>2026-03-22T08:09:16.914Z</time></trkpt><trkpt lat="41.93690307029555" lon="15.957981831395944"><ele>23.75</ele><time>2026-03-22T08:09:17.914Z</time></trkpt><trkpt lat="41.93704168556666" lon="15.95800790701622"><ele>22.5</ele><time>2026-03-22T08:09:18.914Z</time></trkpt><trkpt lat="41.937144806811865" lon="15.958176397360592"><ele>21.25</ele><time>2026-03-22T08:09:19.914Z</time></trkpt><trkpt lat="41.93724599133581" lon="15.958254884857185"><ele>20.0</ele><time>2026-03-22T08:09:20.914Z</time></trkpt><trkpt lat="41.93730171310233" lon="15.958368419858845"><ele>22.5</ele><time>2026-03-22T08:09:21.914Z</time></trkpt><trkpt lat="41.9373488364037" lon="15.958525886646772"><ele>25.0</ele><time>2026-03-22T08:09:22.914Z</time></trkpt><trkpt lat="41.937363778428356" lon="15.958733861531776"><ele>27.5</ele><time>2026-03-22T08:09:23.914Z</time></trkpt><trkpt lat="41.9374001759863" lon="15.958929775708151"><ele>30.0</ele><time>2026-03-22T08:09:24.914Z</time></trkpt><trkpt lat="41.93748128410684" lon="15.959134999815682"><ele>33.666666666666664</ele><time>2026-03-22T08:09:25.914Z</time></trkpt><trkpt lat="41.93754669281774" lon="15.959343613306318"><ele>37.33333333333333</ele><time>2026-03-22T08:09:26.914Z</time></trkpt><trkpt lat="41.93762604584998" lon="15.959551943337114"><ele>41.0</ele><time>2026-03-22T08:09:27.914Z</time></trkpt><trkpt lat="41.93771137214418" lon="15.959768900039816"><ele>34.0</ele><time>2026-03-22T08:09:28.914Z</time></trkpt><trkpt lat="41.937773467345494" lon="15.959980530960472"><ele>27.0</ele><time>2026-03-22T08:09:29.914Z</time></trkpt><trkpt lat="41.93780994425084" lon="15.96019318206164"><ele>20.0</ele><time>2026-03-22T08:09:30.914Z</time></trkpt><trkpt lat="41.937842013658766" lon="15.96039006533779"><ele>20.0</ele><time>2026-03-22T08:09:31.913Z</time></trkpt><trkpt lat="41.93786883724094" lon="15.960606413182822"><ele>20.0</ele><time>2026-03-22T08:09:32.916Z</time></trkpt><trkpt lat="41.937886855977254" lon="15.960793506385757"><ele>20.0</ele><time>2026-03-22T08:09:33.916Z</time></trkpt><trkpt lat="41.937905637018495" lon="15.960960651060333"><ele>20.0</ele><time>2026-03-22T08:09:34.916Z</time></trkpt><trkpt lat="41.9379317613392" lon="15.961093655145865"><ele>22.0</ele><time>2026-03-22T08:09:35.916Z</time></trkpt><trkpt lat="41.937974324986946" lon="15.961194195719592"><ele>24.0</ele><time>2026-03-22T08:09:36.915Z</time></trkpt><trkpt lat="41.93798757295525" lon="15.961342439980694"><ele>26.0</ele><time>2026-03-22T08:09:38.915Z</time></trkpt><trkpt lat="41.93798790980043" lon="15.96153348261102"><ele>28.0</ele><time>2026-03-22T08:09:40.915Z</time></trkpt><trkpt lat="41.937923535625394" lon="15.961567829540277"><ele>30.0</ele><time>2026-03-22T08:09:41.915Z</time></trkpt><trkpt lat="41.93785874181947" lon="15.961566935370916"><ele>30.0</ele><time>2026-03-22T08:09:43.915Z</time></trkpt><trkpt lat="41.937900289857566" lon="15.961449873321333"><ele>30.0</ele><time>2026-03-22T08:09:45.915Z</time></trkpt><trkpt lat="41.938043353680825" lon="15.962192098551121"><ele>32.5</ele><time>2026-03-22T08:09:54.915Z</time></trkpt><trkpt lat="41.93802941941867" lon="15.96233592863654"><ele>35.0</ele><time>2026-03-22T08:09:56.915Z</time></trkpt><trkpt lat="41.9380263159016" lon="15.962468372689374"><ele>37.5</ele><time>2026-03-22T08:09:57.915Z</time></trkpt><trkpt lat="41.938023496008086" lon="15.962633201769211"><ele>40.0</ele><time>2026-03-22T08:09:58.915Z</time></trkpt><trkpt lat="41.938004926789226" lon="15.962794947988185"><ele>41.6</ele><time>2026-03-22T08:09:59.915Z</time></trkpt><trkpt lat="41.93799980861562" lon="15.962928876519923"><ele>43.2</ele><time>2026-03-22T08:10:00.915Z</time></trkpt><trkpt lat="41.938014287213576" lon="15.963059363673738"><ele>44.8</ele><time>2026-03-22T08:10:01.915Z</time></trkpt><trkpt lat="41.93800316788995" lon="15.96322505432967"><ele>46.4</ele><time>2026-03-22T08:10:02.915Z</time></trkpt><trkpt lat="41.9379800522463" lon="15.963325234800266"><ele>48.0</ele><time>2026-03-22T08:10:03.915Z</time></trkpt><trkpt lat="41.938030988754655" lon="15.963386116896832"><ele>49.2</ele><time>2026-03-22T08:10:07.915Z</time></trkpt><trkpt lat="41.9381528035198" lon="15.963405360604616"><ele>50.4</ele><time>2026-03-22T08:10:09.915Z</time></trkpt><trkpt lat="41.93823865106873" lon="15.963496978166534"><ele>51.60000000000001</ele><time>2026-03-22T08:10:11.914Z</time></trkpt><trkpt lat="41.938275693434555" lon="15.96358324934352"><ele>52.800000000000004</ele><time>2026-03-22T08:10:12.914Z</time></trkpt><trkpt lat="41.93831674754813" lon="15.963695467157041"><ele>54.0</ele><time>2026-03-22T08:10:13.914Z</time></trkpt><trkpt lat="41.93834965731591" lon="15.963775880117595"><ele>54.0</ele><time>2026-03-22T08:10:14.914Z</time></trkpt><trkpt lat="41.938341035100976" lon="15.963890957425674"><ele>54.0</ele><time>2026-03-22T08:10:16.914Z</time></trkpt><trkpt lat="41.93834396524125" lon="15.963998452987695"><ele>54.0</ele><time>2026-03-22T08:10:18.914Z</time></trkpt><trkpt lat="41.93841937510417" lon="15.964095523919967"><ele>54.0</ele><time>2026-03-22T08:10:21.914Z</time></trkpt><trkpt lat="41.938514807583246" lon="15.964137337734714"><ele>54.0</ele><time>2026-03-22T08:10:23.914Z</time></trkpt><trkpt lat="41.93858155517615" lon="15.964158801195982"><ele>54.0</ele><time>2026-03-22T08:10:27.914Z</time></trkpt><trkpt lat="41.93868384361245" lon="15.964212700182406"><ele>51.166666666666664</ele><time>2026-03-22T08:10:31.914Z</time></trkpt><trkpt lat="41.93874289690987" lon="15.96426035256817"><ele>48.333333333333336</ele><time>2026-03-22T08:10:32.914Z</time></trkpt><trkpt lat="41.93879434942106" lon="15.964316031431032"><ele>45.5</ele><time>2026-03-22T08:10:33.914Z</time></trkpt><trkpt lat="41.93883542750281" lon="15.964414482483642"><ele>42.66666666666667</ele><time>2026-03-22T08:10:34.914Z</time></trkpt><trkpt lat="41.938866781400534" lon="15.96450425714855"><ele>39.833333333333336</ele><time>2026-03-22T08:10:35.914Z</time></trkpt><trkpt lat="41.938884534898655" lon="15.964612802099188"><ele>37.0</ele><time>2026-03-22T08:10:36.914Z</time></trkpt><trkpt lat="41.938886183840474" lon="15.964776543738015"><ele>37.0</ele><time>2026-03-22T08:10:37.914Z</time></trkpt><trkpt lat="41.938870882989484" lon="15.964961483151018"><ele>37.0</ele><time>2026-03-22T08:10:38.914Z</time></trkpt><trkpt lat="41.93886798011594" lon="15.965104378684321"><ele>37.0</ele><time>2026-03-22T08:10:39.914Z</time></trkpt><trkpt lat="41.938887453396156" lon="15.965230723612718"><ele>37.0</ele><time>2026-03-22T08:10:40.914Z</time></trkpt><trkpt lat="41.93892518535428" lon="15.96535408599056"><ele>37.0</ele><time>2026-03-22T08:10:41.914Z</time></trkpt><trkpt lat="41.938982023055495" lon="15.965440571660812"><ele>38.16666666666667</ele><time>2026-03-22T08:10:42.913Z</time></trkpt><trkpt lat="41.939037319132" lon="15.965521441709273"><ele>39.333333333333336</ele><time>2026-03-22T08:10:43.913Z</time></trkpt><trkpt lat="41.93908598964468" lon="15.965633472262148"><ele>40.5</ele><time>2026-03-22T08:10:44.913Z</time></trkpt><trkpt lat="41.93911414603352" lon="15.965730137977044"><ele>41.666666666666664</ele><time>2026-03-22T08:10:45.913Z</time></trkpt><trkpt lat="41.9391285889953" lon="15.965817950934644"><ele>42.83333333333333</ele><time>2026-03-22T08:10:46.913Z</time></trkpt><trkpt lat="41.93913273884461" lon="15.965970424858105"><ele>44.0</ele><time>2026-03-22T08:10:48.913Z</time></trkpt><trkpt lat="41.93913952911783" lon="15.96611169187553"><ele>45.0</ele><time>2026-03-22T08:10:50.913Z</time></trkpt><trkpt lat="41.93914711200807" lon="15.966198427376213"><ele>46.0</ele><time>2026-03-22T08:10:51.913Z</time></trkpt><trkpt lat="41.939142151380814" lon="15.966345832399174"><ele>47.0</ele><time>2026-03-22T08:10:52.913Z</time></trkpt><trkpt lat="41.93914642059604" lon="15.966484243338606"><ele>48.0</ele><time>2026-03-22T08:10:53.913Z</time></trkpt><trkpt lat="41.93912942578215" lon="15.96666484545929"><ele>49.0</ele><time>2026-03-22T08:10:54.913Z</time></trkpt><trkpt lat="41.93912100971423" lon="15.966798095550322"><ele>50.2</ele><time>2026-03-22T08:10:55.913Z</time></trkpt><trkpt lat="41.93906955598654" lon="15.966892000262048"><ele>51.400000000000006</ele><time>2026-03-22T08:10:56.913Z</time></trkpt><trkpt lat="41.9390354354045" lon="15.967008985027512"><ele>52.6</ele><time>2026-03-22T08:10:58.913Z</time></trkpt><trkpt lat="41.938986007997535" lon="15.96713080177943"><ele>53.8</ele><time>2026-03-22T08:10:59.913Z</time></trkpt><trkpt lat="41.938954923685905" lon="15.967250410804548"><ele>55.0</ele><time>2026-03-22T08:11:00.913Z</time></trkpt><trkpt lat="41.938951541075774" lon="15.96735854095377"><ele>54.99999999999999</ele><time>2026-03-22T08:11:01.913Z</time></trkpt><trkpt lat="41.938947493206314" lon="15.967511960729817"><ele>55.0</ele><time>2026-03-22T08:11:02.913Z</time></trkpt><trkpt lat="41.93895689632098" lon="15.967626703502312"><ele>55.0</ele><time>2026-03-22T08:11:03.913Z</time></trkpt><trkpt lat="41.93899840206182" lon="15.967702421033756"><ele>55.0</ele><time>2026-03-22T08:11:04.913Z</time></trkpt><trkpt lat="41.9390442476908" lon="15.967779860431035"><ele>54.99999999999999</ele><time>2026-03-22T08:11:06.913Z</time></trkpt><trkpt lat="41.939079194384604" lon="15.967905014683422"><ele>55.0</ele><time>2026-03-22T08:11:08.913Z</time></trkpt><trkpt lat="41.93913201109419" lon="15.968056769711602"><ele>56.83333333333333</ele><time>2026-03-22T08:11:10.913Z</time></trkpt><trkpt lat="41.93915714625334" lon="15.968210108451636"><ele>58.666666666666664</ele><time>2026-03-22T08:11:12.913Z</time></trkpt><trkpt lat="41.93917573265532" lon="15.968307247708596"><ele>60.5</ele><time>2026-03-22T08:11:13.913Z</time></trkpt><trkpt lat="41.93919410583404" lon="15.968405965393428"><ele>62.33333333333333</ele><time>2026-03-22T08:11:14.912Z</time></trkpt><trkpt lat="41.93924158368851" lon="15.968533863379859"><ele>64.16666666666667</ele><time>2026-03-22T08:11:16.912Z</time></trkpt><trkpt lat="41.93924303410141" lon="15.968627302559964"><ele>66.0</ele><time>2026-03-22T08:11:18.912Z</time></trkpt><trkpt lat="41.93926970474941" lon="15.968760661375049"><ele>61.333333333333336</ele><time>2026-03-22T08:11:20.912Z</time></trkpt><trkpt lat="41.939307473234976" lon="15.96882920510769"><ele>56.666666666666664</ele><time>2026-03-22T08:11:22.912Z</time></trkpt><trkpt lat="41.939347883379355" lon="15.968922463932692"><ele>52.0</ele><time>2026-03-22T08:11:27.912Z</time></trkpt><trkpt lat="41.93937273194951" lon="15.969000976273408"><ele>47.33333333333333</ele><time>2026-03-22T08:11:29.912Z</time></trkpt><trkpt lat="41.93944799105785" lon="15.969042021707622"><ele>42.666666666666664</ele><time>2026-03-22T08:11:33.912Z</time></trkpt><trkpt lat="41.93946009829174" lon="15.969125222508243"><ele>38.0</ele><time>2026-03-22T08:11:34.912Z</time></trkpt><trkpt lat="41.93947026165728" lon="15.9692738612918"><ele>38.0</ele><time>2026-03-22T08:11:36.912Z</time></trkpt><trkpt lat="41.93948650304569" lon="15.969401763683303"><ele>38.0</ele><time>2026-03-22T08:11:38.914Z</time></trkpt><trkpt lat="41.93941704068028" lon="15.969503003077845"><ele>38.0</ele><time>2026-03-22T08:11:41.913Z</time></trkpt><trkpt lat="41.93933805838379" lon="15.969549972345787"><ele>38.0</ele><time>2026-03-22T08:11:44.913Z</time></trkpt><trkpt lat="41.93931702006308" lon="15.969637084474087"><ele>38.0</ele><time>2026-03-22T08:11:47.913Z</time></trkpt><trkpt lat="41.93934494323948" lon="15.96976778308506"><ele>38.0</ele><time>2026-03-22T08:11:49.913Z</time></trkpt><trkpt lat="41.93936192466497" lon="15.969859230758082"><ele>38.0</ele><time>2026-03-22T08:11:50.914Z</time></trkpt><trkpt lat="41.93938732848018" lon="15.96996687404976"><ele>38.0</ele><time>2026-03-22T08:11:52.914Z</time></trkpt><trkpt lat="41.93939379803702" lon="15.97008768225436"><ele>38.0</ele><time>2026-03-22T08:11:54.914Z</time></trkpt><trkpt lat="41.93941533646132" lon="15.970177793095933"><ele>38.0</ele><time>2026-03-22T08:11:57.913Z</time></trkpt><trkpt lat="41.93938633257442" lon="15.970269599410994"><ele>38.0</ele><time>2026-03-22T08:12:14.913Z</time></trkpt><trkpt lat="41.93940565741755" lon="15.970378823885675"><ele>39.8</ele><time>2026-03-22T08:12:15.913Z</time></trkpt><trkpt lat="41.939409268669856" lon="15.970496173356338"><ele>41.599999999999994</ele><time>2026-03-22T08:12:16.913Z</time></trkpt><trkpt lat="41.939405466787655" lon="15.970600199652713"><ele>43.400000000000006</ele><time>2026-03-22T08:12:17.913Z</time></trkpt><trkpt lat="41.93940221829118" lon="15.970714175785185"><ele>45.2</ele><time>2026-03-22T08:12:18.913Z</time></trkpt><trkpt lat="41.939364678508184" lon="15.970849728798095"><ele>47.0</ele><time>2026-03-22T08:12:19.913Z</time></trkpt><trkpt lat="41.939291286841204" lon="15.970983470467997"><ele>47.400000000000006</ele><time>2026-03-22T08:12:20.913Z</time></trkpt><trkpt lat="41.939220067251746" lon="15.97109283740675"><ele>47.800000000000004</ele><time>2026-03-22T08:12:21.913Z</time></trkpt><trkpt lat="41.939127381345095" lon="15.971182455016232"><ele>48.2</ele><time>2026-03-22T08:12:22.913Z</time></trkpt><trkpt lat="41.93905760527423" lon="15.971261449065109"><ele>48.6</ele><time>2026-03-22T08:12:23.913Z</time></trkpt><trkpt lat="41.93899370625643" lon="15.971341954458333"><ele>49.0</ele><time>2026-03-22T08:12:24.913Z</time></trkpt><trkpt lat="41.93892619153353" lon="15.971420998097914"><ele>53.166666666666664</ele><time>2026-03-22T08:12:25.913Z</time></trkpt><trkpt lat="41.938876109576604" lon="15.971501390945084"><ele>57.33333333333333</ele><time>2026-03-22T08:12:26.913Z</time></trkpt><trkpt lat="41.938850323933536" lon="15.971587148784387"><ele>61.5</ele><time>2026-03-22T08:12:28.913Z</time></trkpt><trkpt lat="41.93876960817284" lon="15.971619939298627"><ele>65.66666666666667</ele><time>2026-03-22T08:12:33.912Z</time></trkpt><trkpt lat="41.93867404133135" lon="15.97155942091203"><ele>69.83333333333334</ele><time>2026-03-22T08:12:35.912Z</time></trkpt><trkpt lat="41.938578181442715" lon="15.971528599502044"><ele>74.0</ele><time>2026-03-22T08:12:37.912Z</time></trkpt><trkpt lat="41.93844685789884" lon="15.971507472458883"><ele>78.33333333333334</ele><time>2026-03-22T08:12:39.912Z</time></trkpt><trkpt lat="41.938378096269034" lon="15.971467073926254"><ele>82.66666666666667</ele><time>2026-03-22T08:12:40.912Z</time></trkpt><trkpt lat="41.93830064658117" lon="15.971424985199826"><ele>87.0</ele><time>2026-03-22T08:12:41.912Z</time></trkpt><trkpt lat="41.9382309575384" lon="15.971387577760732"><ele>91.33333333333334</ele><time>2026-03-22T08:12:42.912Z</time></trkpt><trkpt lat="41.93813171720924" lon="15.971338560858895"><ele>95.66666666666667</ele><time>2026-03-22T08:12:44.912Z</time></trkpt><trkpt lat="41.93808060061292" lon="15.97126825796945"><ele>100.0</ele><time>2026-03-22T08:12:45.912Z</time></trkpt><trkpt lat="41.93801751040314" lon="15.971188702547726"><ele>100.0</ele><time>2026-03-22T08:12:46.912Z</time></trkpt><trkpt lat="41.93794321626513" lon="15.971075006078333"><ele>100.0</ele><time>2026-03-22T08:12:47.912Z</time></trkpt><trkpt lat="41.937851322017885" lon="15.970964123955794"><ele>100.0</ele><time>2026-03-22T08:12:48.912Z</time></trkpt><trkpt lat="41.937756050688726" lon="15.970857981552978"><ele>100.0</ele><time>2026-03-22T08:12:49.912Z</time></trkpt><trkpt lat="41.9376609910005" lon="15.970789557054216"><ele>101.2</ele><time>2026-03-22T08:12:50.912Z</time></trkpt><trkpt lat="41.93757629835353" lon="15.970762361630909"><ele>102.4</ele><time>2026-03-22T08:12:51.912Z</time></trkpt><trkpt lat="41.93751423157324" lon="15.970797495120015"><ele>103.6</ele><time>2026-03-22T08:12:52.912Z</time></trkpt><trkpt lat="41.937438036483556" lon="15.970925418317512"><ele>104.8</ele><time>2026-03-22T08:12:54.912Z</time></trkpt><trkpt lat="41.93736242919562" lon="15.970908284971124"><ele>106.0</ele><time>2026-03-22T08:12:56.912Z</time></trkpt><trkpt lat="41.93727956078073" lon="15.97084038631527"><ele>108.75</ele><time>2026-03-22T08:12:58.912Z</time></trkpt><trkpt lat="41.93714526167405" lon="15.970745024773903"><ele>111.5</ele><time>2026-03-22T08:13:00.911Z</time></trkpt><trkpt lat="41.93705077602874" lon="15.970660259878448"><ele>114.25</ele><time>2026-03-22T08:13:01.911Z</time></trkpt><trkpt lat="41.93694957112098" lon="15.970582169430111"><ele>117.0</ele><time>2026-03-22T08:13:02.911Z</time></trkpt><trkpt lat="41.93684200876824" lon="15.970473657336118"><ele>117.0</ele><time>2026-03-22T08:13:03.911Z</time></trkpt><trkpt lat="41.936739965089274" lon="15.97039855206575"><ele>117.0</ele><time>2026-03-22T08:13:04.911Z</time></trkpt><trkpt lat="41.93661937967466" lon="15.970294304777381"><ele>117.0</ele><time>2026-03-22T08:13:05.911Z</time></trkpt><trkpt lat="41.93651722404171" lon="15.97017996497432"><ele>117.0</ele><time>2026-03-22T08:13:06.911Z</time></trkpt><trkpt lat="41.93641655827528" lon="15.97008786902859"><ele>119.25</ele><time>2026-03-22T08:13:07.911Z</time></trkpt><trkpt lat="41.936314125038066" lon="15.97001193770716"><ele>121.5</ele><time>2026-03-22T08:13:08.911Z</time></trkpt><trkpt lat="41.93618163864566" lon="15.969932312796393"><ele>123.75</ele><time>2026-03-22T08:13:09.911Z</time></trkpt><trkpt lat="41.93605162786745" lon="15.969811654375391"><ele>126.0</ele><time>2026-03-22T08:13:10.911Z</time></trkpt><trkpt lat="41.93592150316358" lon="15.969663958304503"><ele>125.5</ele><time>2026-03-22T08:13:11.911Z</time></trkpt><trkpt lat="41.93578316710413" lon="15.969520743142658"><ele>125.0</ele><time>2026-03-22T08:13:12.911Z</time></trkpt><trkpt lat="41.93568557069694" lon="15.969421129454586"><ele>124.5</ele><time>2026-03-22T08:13:13.911Z</time></trkpt><trkpt lat="41.93562823076318" lon="15.9693144372726"><ele>124.0</ele><time>2026-03-22T08:13:14.911Z</time></trkpt><trkpt lat="41.93557141464801" lon="15.969269345401454"><ele>124.00000000000001</ele><time>2026-03-22T08:13:28.911Z</time></trkpt><trkpt lat="41.93549058131337" lon="15.969287379688916"><ele>124.0</ele><time>2026-03-22T08:13:34.91Z</time></trkpt><trkpt lat="41.93538641700533" lon="15.969299661895022"><ele>124.0</ele><time>2026-03-22T08:13:38.91Z</time></trkpt><trkpt lat="41.93533370111389" lon="15.969364246899072"><ele>124.0</ele><time>2026-03-22T08:13:41.91Z</time></trkpt><trkpt lat="41.93531361757348" lon="15.969456644509735"><ele>124.00000000000001</ele><time>2026-03-22T08:13:44.911Z</time></trkpt><trkpt lat="41.93525665498576" lon="15.969510526859477"><ele>124.0</ele><time>2026-03-22T08:13:48.912Z</time></trkpt><trkpt lat="41.93522063114852" lon="15.96961043984521"><ele>124.00000000000001</ele><time>2026-03-22T08:13:53.912Z</time></trkpt><trkpt lat="41.93523800667468" lon="15.969727464367168"><ele>124.0</ele><time>2026-03-22T08:13:56.912Z</time></trkpt><trkpt lat="41.935250639131766" lon="15.969833353365548"><ele>124.0</ele><time>2026-03-22T08:13:58.912Z</time></trkpt><trkpt lat="41.9352929196514" lon="15.969945490557356"><ele>124.0</ele><time>2026-03-22T08:14:00.912Z</time></trkpt><trkpt lat="41.93531259019798" lon="15.970067248144405"><ele>124.00000000000001</ele><time>2026-03-22T08:14:02.911Z</time></trkpt><trkpt lat="41.9353148933937" lon="15.970188394181775"><ele>124.0</ele><time>2026-03-22T08:14:04.911Z</time></trkpt><trkpt lat="41.93527825915322" lon="15.970264261432122"><ele>121.66666666666667</ele><time>2026-03-22T08:14:05.911Z</time></trkpt><trkpt lat="41.935233728922064" lon="15.970326387358842"><ele>119.33333333333334</ele><time>2026-03-22T08:14:06.911Z</time></trkpt><trkpt lat="41.935183808353734" lon="15.97041757221804"><ele>117.0</ele><time>2026-03-22T08:14:07.911Z</time></trkpt><trkpt lat="41.93513763553467" lon="15.970481948827778"><ele>114.66666666666666</ele><time>2026-03-22T08:14:08.911Z</time></trkpt><trkpt lat="41.93509166335118" lon="15.970549025934924"><ele>112.33333333333333</ele><time>2026-03-22T08:14:09.911Z</time></trkpt><trkpt lat="41.93502160084321" lon="15.970603203565284"><ele>110.0</ele><time>2026-03-22T08:14:10.911Z</time></trkpt><trkpt lat="41.93493870513085" lon="15.970733939157048"><ele>108.2</ele><time>2026-03-22T08:14:12.911Z</time></trkpt><trkpt lat="41.934849241694906" lon="15.970829727934765"><ele>106.4</ele><time>2026-03-22T08:14:14.911Z</time></trkpt><trkpt lat="41.934758860155945" lon="15.970893952637635"><ele>104.6</ele><time>2026-03-22T08:14:17.911Z</time></trkpt><trkpt lat="41.934695257173445" lon="15.970952046563086"><ele>102.8</ele><time>2026-03-22T08:14:19.911Z</time></trkpt><trkpt lat="41.93460585239442" lon="15.971036202989788"><ele>101.0</ele><time>2026-03-22T08:14:21.911Z</time></trkpt><trkpt lat="41.9344936205669" lon="15.97115030976128"><ele>101.49999999999999</ele><time>2026-03-22T08:14:23.911Z</time></trkpt><trkpt lat="41.93440468180596" lon="15.971216591543145"><ele>102.0</ele><time>2026-03-22T08:14:25.911Z</time></trkpt><trkpt lat="41.93435497315539" lon="15.971323681885846"><ele>102.5</ele><time>2026-03-22T08:14:27.911Z</time></trkpt><trkpt lat="41.93430461739962" lon="15.97139251341132"><ele>103.0</ele><time>2026-03-22T08:14:28.911Z</time></trkpt><trkpt lat="41.93424809774383" lon="15.971470031513203"><ele>103.49999999999999</ele><time>2026-03-22T08:14:29.911Z</time></trkpt><trkpt lat="41.93419310306799" lon="15.97151640681312"><ele>104.0</ele><time>2026-03-22T08:14:30.911Z</time></trkpt><trkpt lat="41.934088173326934" lon="15.971558938225247"><ele>103.99999999999999</ele><time>2026-03-22T08:14:32.911Z</time></trkpt><trkpt lat="41.934019278519905" lon="15.971555946195409"><ele>104.0</ele><time>2026-03-22T08:14:33.91Z</time></trkpt><trkpt lat="41.93393697472398" lon="15.971550124033381"><ele>104.0</ele><time>2026-03-22T08:14:34.91Z</time></trkpt><trkpt lat="41.93387227381068" lon="15.971558113701429"><ele>104.0</ele><time>2026-03-22T08:14:35.91Z</time></trkpt><trkpt lat="41.93378223721662" lon="15.971602414401309"><ele>103.99999999999999</ele><time>2026-03-22T08:14:37.91Z</time></trkpt><trkpt lat="41.933696788903234" lon="15.971621318699377"><ele>104.0</ele><time>2026-03-22T08:14:40.91Z</time></trkpt><trkpt lat="41.93366165947188" lon="15.971694348451182"><ele>102.2</ele><time>2026-03-22T08:14:47.91Z</time></trkpt><trkpt lat="41.93364634396774" lon="15.971840618276056"><ele>100.4</ele><time>2026-03-22T08:14:51.91Z</time></trkpt><trkpt lat="41.93363817962038" lon="15.971955436439066"><ele>98.6</ele><time>2026-03-22T08:14:52.91Z</time></trkpt><trkpt lat="41.93363085178653" lon="15.97206827876845"><ele>96.8</ele><time>2026-03-22T08:14:53.91Z</time></trkpt><trkpt lat="41.93359653684223" lon="15.972190971609178"><ele>95.0</ele><time>2026-03-22T08:14:54.91Z</time></trkpt><trkpt lat="41.93359272480602" lon="15.972306647863759"><ele>95.0</ele><time>2026-03-22T08:14:55.91Z</time></trkpt><trkpt lat="41.93356647071837" lon="15.972398541869303"><ele>95.0</ele><time>2026-03-22T08:14:56.91Z</time></trkpt><trkpt lat="41.93353546889099" lon="15.972476769979782"><ele>95.0</ele><time>2026-03-22T08:14:58.91Z</time></trkpt><trkpt lat="41.93346992352824" lon="15.972493505604488"><ele>95.0</ele><time>2026-03-22T08:15:00.91Z</time></trkpt><trkpt lat="41.933324224781146" lon="15.972503521550786"><ele>95.0</ele><time>2026-03-22T08:15:02.91Z</time></trkpt><trkpt lat="41.933230043687075" lon="15.972505340145135"><ele>95.0</ele><time>2026-03-22T08:15:04.909Z</time></trkpt><trkpt lat="41.93309671124623" lon="15.972501295304228"><ele>97.66666666666667</ele><time>2026-03-22T08:15:06.909Z</time></trkpt><trkpt lat="41.93301819475573" lon="15.972468761908578"><ele>100.33333333333334</ele><time>2026-03-22T08:15:07.909Z</time></trkpt><trkpt lat="41.932935896587814" lon="15.972414411094647"><ele>103.0</ele><time>2026-03-22T08:15:08.909Z</time></trkpt><trkpt lat="41.93285525964642" lon="15.972383892428184"><ele>105.66666666666667</ele><time>2026-03-22T08:15:09.909Z</time></trkpt><trkpt lat="41.932788535693184" lon="15.97234721736779"><ele>108.33333333333333</ele><time>2026-03-22T08:15:10.909Z</time></trkpt><trkpt lat="41.93272257590286" lon="15.972272409470918"><ele>111.0</ele><time>2026-03-22T08:15:11.909Z</time></trkpt><trkpt lat="41.93263876348804" lon="15.972209538868952"><ele>111.0</ele><time>2026-03-22T08:15:12.909Z</time></trkpt><trkpt lat="41.93255764219115" lon="15.972171594664793"><ele>111.0</ele><time>2026-03-22T08:15:13.909Z</time></trkpt><trkpt lat="41.9324785401967" lon="15.972167499731457"><ele>111.0</ele><time>2026-03-22T08:15:14.909Z</time></trkpt><trkpt lat="41.93238913127655" lon="15.972139931216555"><ele>111.0</ele><time>2026-03-22T08:15:15.909Z</time></trkpt><trkpt lat="41.93228968210592" lon="15.972076642598847"><ele>111.0</ele><time>2026-03-22T08:15:16.909Z</time></trkpt><trkpt lat="41.93218451807291" lon="15.972045889256798"><ele>112.4</ele><time>2026-03-22T08:15:17.909Z</time></trkpt><trkpt lat="41.9320794383054" lon="15.972039520209592"><ele>113.8</ele><time>2026-03-22T08:15:18.909Z</time></trkpt><trkpt lat="41.93196730380638" lon="15.972051765048697"><ele>115.20000000000002</ele><time>2026-03-22T08:15:19.909Z</time></trkpt><trkpt lat="41.93187048450898" lon="15.972055533465753"><ele>116.60000000000001</ele><time>2026-03-22T08:15:20.909Z</time></trkpt><trkpt lat="41.931800452067215" lon="15.972041871774133"><ele>118.0</ele><time>2026-03-22T08:15:21.909Z</time></trkpt><trkpt lat="41.93172386399848" lon="15.972060347560015"><ele>119.2</ele><time>2026-03-22T08:15:22.909Z</time></trkpt><trkpt lat="41.93164077525803" lon="15.972121377680962"><ele>120.4</ele><time>2026-03-22T08:15:23.909Z</time></trkpt><trkpt lat="41.931543625864585" lon="15.972196269222646"><ele>121.60000000000001</ele><time>2026-03-22T08:15:24.909Z</time></trkpt><trkpt lat="41.931432872141244" lon="15.972255824995555"><ele>122.80000000000001</ele><time>2026-03-22T08:15:25.909Z</time></trkpt><trkpt lat="41.93132070491501" lon="15.972296651022107"><ele>124.0</ele><time>2026-03-22T08:15:26.909Z</time></trkpt><trkpt lat="41.931255566720104" lon="15.972314424497684"><ele>124.00000000000001</ele><time>2026-03-22T08:15:27.909Z</time></trkpt><trkpt lat="41.93118970967961" lon="15.972317979687908"><ele>124.0</ele><time>2026-03-22T08:15:28.909Z</time></trkpt><trkpt lat="41.93110326625581" lon="15.972335211673244"><ele>124.0</ele><time>2026-03-22T08:15:30.909Z</time></trkpt><trkpt lat="41.9310384779132" lon="15.972369077135696"><ele>124.0</ele><time>2026-03-22T08:15:31.909Z</time></trkpt><trkpt lat="41.930953985926536" lon="15.972393892499063"><ele>124.00000000000001</ele><time>2026-03-22T08:15:32.909Z</time></trkpt><trkpt lat="41.93086115352794" lon="15.97242101726237"><ele>124.0</ele><time>2026-03-22T08:15:33.909Z</time></trkpt><trkpt lat="41.930764248956216" lon="15.972415056500843"><ele>124.00000000000001</ele><time>2026-03-22T08:15:35.909Z</time></trkpt><trkpt lat="41.93064155770921" lon="15.972370005588225"><ele>124.0</ele><time>2026-03-22T08:15:37.908Z</time></trkpt><trkpt lat="41.93054715651539" lon="15.972392703365134"><ele>124.0</ele><time>2026-03-22T08:15:39.908Z</time></trkpt><trkpt lat="41.930593888703385" lon="15.972450949138592"><ele>124.0</ele><time>2026-03-22T08:16:07.914Z</time></trkpt><trkpt lat="41.93063100497571" lon="15.972522227474565"><ele>124.00000000000001</ele><time>2026-03-22T08:16:13.914Z</time></trkpt><trkpt lat="41.93066140022433" lon="15.972604795175574"><ele>124.0</ele><time>2026-03-22T08:16:15.914Z</time></trkpt><trkpt lat="41.930675733801486" lon="15.972741698430188"><ele>124.0</ele><time>2026-03-22T08:16:17.914Z</time></trkpt><trkpt lat="41.93066437785155" lon="15.972884349628883"><ele>124.0</ele><time>2026-03-22T08:16:19.914Z</time></trkpt><trkpt lat="41.93069715257559" lon="15.97297448126557"><ele>124.0</ele><time>2026-03-22T08:16:21.914Z</time></trkpt><trkpt lat="41.930748177619286" lon="15.973091866074487"><ele>124.0</ele><time>2026-03-22T08:16:23.914Z</time></trkpt><trkpt lat="41.93077402591463" lon="15.973209684151328"><ele>124.0</ele><time>2026-03-22T08:16:25.914Z</time></trkpt><trkpt lat="41.93078583325576" lon="15.973361645674155"><ele>122.0</ele><time>2026-03-22T08:16:27.914Z</time></trkpt><trkpt lat="41.930767158942785" lon="15.973530650774352"><ele>120.0</ele><time>2026-03-22T08:16:29.914Z</time></trkpt><trkpt lat="41.930736316107215" lon="15.973614069757927"><ele>118.0</ele><time>2026-03-22T08:16:30.914Z</time></trkpt><trkpt lat="41.930732177154546" lon="15.973763652006674"><ele>116.0</ele><time>2026-03-22T08:16:32.914Z</time></trkpt><trkpt lat="41.93072983669401" lon="15.973886168618556"><ele>114.0</ele><time>2026-03-22T08:16:34.914Z</time></trkpt><trkpt lat="41.93068702631042" lon="15.973996421593478"><ele>114.0</ele><time>2026-03-22T08:16:36.914Z</time></trkpt><trkpt lat="41.930599610629784" lon="15.974049354842133"><ele>114.0</ele><time>2026-03-22T08:16:38.914Z</time></trkpt><trkpt lat="41.93051157130496" lon="15.97409068198014"><ele>114.0</ele><time>2026-03-22T08:16:40.914Z</time></trkpt><trkpt lat="41.93045797020104" lon="15.974175726524821"><ele>114.0</ele><time>2026-03-22T08:16:43.914Z</time></trkpt><trkpt lat="41.93037145444189" lon="15.974239580756288"><ele>114.0</ele><time>2026-03-22T08:16:45.913Z</time></trkpt><trkpt lat="41.93028461024843" lon="15.974261841081276"><ele>112.33333333333333</ele><time>2026-03-22T08:16:47.913Z</time></trkpt><trkpt lat="41.9302022107318" lon="15.97430200131014"><ele>110.66666666666666</ele><time>2026-03-22T08:16:50.913Z</time></trkpt><trkpt lat="41.93014825928333" lon="15.974396499509286"><ele>109.0</ele><time>2026-03-22T08:16:54.913Z</time></trkpt><trkpt lat="41.930102999227444" lon="15.974484703430793"><ele>107.33333333333333</ele><time>2026-03-22T08:16:57.913Z</time></trkpt><trkpt lat="41.93004685667757" lon="15.97455652273264"><ele>105.66666666666666</ele><time>2026-03-22T08:16:59.913Z</time></trkpt><trkpt lat="41.92999074193516" lon="15.974606065327771"><ele>104.0</ele><time>2026-03-22T08:17:00.913Z</time></trkpt><trkpt lat="41.929874585552035" lon="15.97465625303362"><ele>102.80000000000001</ele><time>2026-03-22T08:17:01.913Z</time></trkpt><trkpt lat="41.929756733437465" lon="15.974677869901626"><ele>101.60000000000001</ele><time>2026-03-22T08:17:02.913Z</time></trkpt><trkpt lat="41.92965101119709" lon="15.974681409118585"><ele>100.4</ele><time>2026-03-22T08:17:03.913Z</time></trkpt><trkpt lat="41.92957028409009" lon="15.974696853582428"><ele>99.2</ele><time>2026-03-22T08:17:04.913Z</time></trkpt><trkpt lat="41.929493452601726" lon="15.974712679830878"><ele>98.0</ele><time>2026-03-22T08:17:05.913Z</time></trkpt><trkpt lat="41.9294318141482" lon="15.97476560034649"><ele>98.0</ele><time>2026-03-22T08:17:06.913Z</time></trkpt><trkpt lat="41.92937605536523" lon="15.974836152781474"><ele>98.0</ele><time>2026-03-22T08:17:07.913Z</time></trkpt><trkpt lat="41.929330850299415" lon="15.974905506580921"><ele>98.0</ele><time>2026-03-22T08:17:08.913Z</time></trkpt><trkpt lat="41.92927290336919" lon="15.975048810334258"><ele>98.0</ele><time>2026-03-22T08:17:10.913Z</time></trkpt><trkpt lat="41.92925144596484" lon="15.975162021330307"><ele>98.0</ele><time>2026-03-22T08:17:11.913Z</time></trkpt><trkpt lat="41.92921932741604" lon="15.97531589376671"><ele>91.80000000000001</ele><time>2026-03-22T08:17:12.913Z</time></trkpt><trkpt lat="41.929192483001124" lon="15.975443569187512"><ele>85.60000000000001</ele><time>2026-03-22T08:17:13.913Z</time></trkpt><trkpt lat="41.929177694319186" lon="15.975570178398238"><ele>79.4</ele><time>2026-03-22T08:17:14.913Z</time></trkpt><trkpt lat="41.92915346982997" lon="15.975667165898772"><ele>73.2</ele><time>2026-03-22T08:17:15.913Z</time></trkpt><trkpt lat="41.9290865210293" lon="15.975857272157088"><ele>67.0</ele><time>2026-03-22T08:17:17.913Z</time></trkpt><trkpt lat="41.92904625229944" lon="15.975961716709714"><ele>65.0</ele><time>2026-03-22T08:17:18.913Z</time></trkpt><trkpt lat="41.92902275980756" lon="15.97608521787146"><ele>63.0</ele><time>2026-03-22T08:17:19.913Z</time></trkpt><trkpt lat="41.92899986879025" lon="15.976217497819812"><ele>61.0</ele><time>2026-03-22T08:17:20.912Z</time></trkpt><trkpt lat="41.92897787849948" lon="15.976326712804358"><ele>59.0</ele><time>2026-03-22T08:17:21.912Z</time></trkpt><trkpt lat="41.928965236059426" lon="15.976417766901971"><ele>56.99999999999999</ele><time>2026-03-22T08:17:22.912Z</time></trkpt><trkpt lat="41.92896008290802" lon="15.976545343301376"><ele>55.0</ele><time>2026-03-22T08:17:24.912Z</time></trkpt><trkpt lat="41.92897742152186" lon="15.97663796564468"><ele>53.49999999999999</ele><time>2026-03-22T08:17:25.912Z</time></trkpt><trkpt lat="41.9289867653508" lon="15.976725186317873"><ele>52.0</ele><time>2026-03-22T08:17:26.912Z</time></trkpt><trkpt lat="41.928999509442384" lon="15.976813564134066"><ele>50.5</ele><time>2026-03-22T08:17:27.912Z</time></trkpt><trkpt lat="41.92903411769955" lon="15.976915986569638"><ele>49.0</ele><time>2026-03-22T08:17:28.912Z</time></trkpt><trkpt lat="41.929103908879" lon="15.977050469533573"><ele>47.5</ele><time>2026-03-22T08:17:29.912Z</time></trkpt><trkpt lat="41.929166063502265" lon="15.977162111703178"><ele>46.0</ele><time>2026-03-22T08:17:30.912Z</time></trkpt><trkpt lat="41.92920589649701" lon="15.977271790206489"><ele>46.833333333333336</ele><time>2026-03-22T08:17:31.912Z</time></trkpt><trkpt lat="41.929255940147414" lon="15.977379293420992"><ele>47.66666666666667</ele><time>2026-03-22T08:17:32.912Z</time></trkpt><trkpt lat="41.92929632900011" lon="15.977480967429772"><ele>48.5</ele><time>2026-03-22T08:17:33.912Z</time></trkpt><trkpt lat="41.92932949751826" lon="15.977593271494534"><ele>49.333333333333336</ele><time>2026-03-22T08:17:34.912Z</time></trkpt><trkpt lat="41.929350421154474" lon="15.977692764190735"><ele>50.166666666666664</ele><time>2026-03-22T08:17:35.912Z</time></trkpt><trkpt lat="41.929361335119026" lon="15.977795794828666"><ele>51.0</ele><time>2026-03-22T08:17:36.912Z</time></trkpt><trkpt lat="41.929359808727504" lon="15.977892438254269"><ele>49.166666666666664</ele><time>2026-03-22T08:17:37.912Z</time></trkpt><trkpt lat="41.92930097318522" lon="15.978003618900999"><ele>47.333333333333336</ele><time>2026-03-22T08:17:39.912Z</time></trkpt><trkpt lat="41.92921306982879" lon="15.978081678200542"><ele>45.5</ele><time>2026-03-22T08:17:41.912Z</time></trkpt><trkpt lat="41.92916777499847" lon="15.978149141304753"><ele>43.66666666666667</ele><time>2026-03-22T08:17:42.912Z</time></trkpt><trkpt lat="41.929149951417294" lon="15.978244802424502"><ele>41.833333333333336</ele><time>2026-03-22T08:17:43.912Z</time></trkpt><trkpt lat="41.92913465438297" lon="15.978335858522023"><ele>40.0</ele><time>2026-03-22T08:17:44.912Z</time></trkpt><trkpt lat="41.929112549023564" lon="15.97841841455567"><ele>39.333333333333336</ele><time>2026-03-22T08:17:45.912Z</time></trkpt><trkpt lat="41.929066629746394" lon="15.978491028182134"><ele>38.66666666666667</ele><time>2026-03-22T08:17:46.912Z</time></trkpt><trkpt lat="41.929030357241444" lon="15.978586555813491"><ele>38.0</ele><time>2026-03-22T08:17:47.912Z</time></trkpt><trkpt lat="41.928978173241326" lon="15.978687250243075"><ele>37.333333333333336</ele><time>2026-03-22T08:17:48.912Z</time></trkpt><trkpt lat="41.92894213906073" lon="15.97878675599075"><ele>36.666666666666664</ele><time>2026-03-22T08:17:49.912Z</time></trkpt><trkpt lat="41.92890960999365" lon="15.978884161109415"><ele>36.0</ele><time>2026-03-22T08:17:50.912Z</time></trkpt><trkpt lat="41.928897412095104" lon="15.978972191340095"><ele>36.0</ele><time>2026-03-22T08:17:51.912Z</time></trkpt><trkpt lat="41.928880466842955" lon="15.979124608493844"><ele>36.0</ele><time>2026-03-22T08:17:53.911Z</time></trkpt><trkpt lat="41.92885013754141" lon="15.979237383361749"><ele>36.0</ele><time>2026-03-22T08:17:55.911Z</time></trkpt><trkpt lat="41.92878261900411" lon="15.979307160707105"><ele>36.0</ele><time>2026-03-22T08:17:57.912Z</time></trkpt><trkpt lat="41.92864813005014" lon="15.97933022054279"><ele>36.0</ele><time>2026-03-22T08:17:59.913Z</time></trkpt><trkpt lat="41.92856174093246" lon="15.979351953699174"><ele>35.833333333333336</ele><time>2026-03-22T08:18:01.913Z</time></trkpt><trkpt lat="41.928550983651334" lon="15.979446557679958"><ele>35.666666666666664</ele><time>2026-03-22T08:18:03.913Z</time></trkpt><trkpt lat="41.92849582890361" lon="15.979586194586675"><ele>35.5</ele><time>2026-03-22T08:18:05.913Z</time></trkpt><trkpt lat="41.92846283626289" lon="15.979659474245446"><ele>35.33333333333333</ele><time>2026-03-22T08:18:06.912Z</time></trkpt><trkpt lat="41.92843220442459" lon="15.979733499091118"><ele>35.166666666666664</ele><time>2026-03-22T08:18:07.912Z</time></trkpt><trkpt lat="41.928410757343705" lon="15.979852034832499"><ele>35.0</ele><time>2026-03-22T08:18:09.913Z</time></trkpt><trkpt lat="41.928390194263805" lon="15.980002709655567"><ele>35.0</ele><time>2026-03-22T08:18:11.913Z</time></trkpt><trkpt lat="41.92837316298748" lon="15.980105409643741"><ele>35.0</ele><time>2026-03-22T08:18:12.913Z</time></trkpt><trkpt lat="41.92837523891853" lon="15.980210917316061"><ele>35.0</ele><time>2026-03-22T08:18:13.913Z</time></trkpt><trkpt lat="41.928402166605814" lon="15.98033373268022"><ele>35.0</ele><time>2026-03-22T08:18:14.913Z</time></trkpt><trkpt lat="41.92842584788601" lon="15.980463355146764"><ele>35.0</ele><time>2026-03-22T08:18:15.913Z</time></trkpt><trkpt lat="41.92845400791091" lon="15.98057885949514"><ele>35.0</ele><time>2026-03-22T08:18:16.913Z</time></trkpt><trkpt lat="41.92848052654844" lon="15.980698533024306"><ele>35.0</ele><time>2026-03-22T08:18:17.913Z</time></trkpt><trkpt lat="41.92850774868616" lon="15.980810872625149"><ele>35.0</ele><time>2026-03-22T08:18:18.913Z</time></trkpt><trkpt lat="41.92853082727762" lon="15.980921895999916"><ele>35.0</ele><time>2026-03-22T08:18:19.913Z</time></trkpt><trkpt lat="41.92858855790393" lon="15.981090407594012"><ele>35.0</ele><time>2026-03-22T08:18:21.913Z</time></trkpt><trkpt lat="41.9286375411783" lon="15.981169242232685"><ele>35.0</ele><time>2026-03-22T08:18:22.913Z</time></trkpt><trkpt lat="41.928678436309" lon="15.981244696685437"><ele>35.2</ele><time>2026-03-22T08:18:23.913Z</time></trkpt><trkpt lat="41.92874760739644" lon="15.981366473244996"><ele>35.4</ele><time>2026-03-22T08:18:25.913Z</time></trkpt><trkpt lat="41.928799265566305" lon="15.981426428150284"><ele>35.6</ele><time>2026-03-22T08:18:26.913Z</time></trkpt><trkpt lat="41.92886873801169" lon="15.98159039919027"><ele>35.8</ele><time>2026-03-22T08:18:28.913Z</time></trkpt><trkpt lat="41.928900409193325" lon="15.981675331265873"><ele>36.0</ele><time>2026-03-22T08:18:29.913Z</time></trkpt><trkpt lat="41.9289364589281" lon="15.98176246173645"><ele>36.0</ele><time>2026-03-22T08:18:30.913Z</time></trkpt><trkpt lat="41.92898186901252" lon="15.98183998997911"><ele>36.0</ele><time>2026-03-22T08:18:31.913Z</time></trkpt><trkpt lat="41.92901709603318" lon="15.981939584323227"><ele>36.0</ele><time>2026-03-22T08:18:32.913Z</time></trkpt><trkpt lat="41.92905402118191" lon="15.98203960185977"><ele>36.0</ele><time>2026-03-22T08:18:33.913Z</time></trkpt><trkpt lat="41.92908249370732" lon="15.982136917512108"><ele>36.0</ele><time>2026-03-22T08:18:34.913Z</time></trkpt><trkpt lat="41.92912570603646" lon="15.982307790986935"><ele>36.0</ele><time>2026-03-22T08:18:36.913Z</time></trkpt><trkpt lat="41.92912649698473" lon="15.98241606624977"><ele>36.0</ele><time>2026-03-22T08:18:37.913Z</time></trkpt><trkpt lat="41.929130298595986" lon="15.982531959810082"><ele>36.0</ele><time>2026-03-22T08:18:38.913Z</time></trkpt><trkpt lat="41.929152656211905" lon="15.982617523722274"><ele>36.0</ele><time>2026-03-22T08:18:39.912Z</time></trkpt><trkpt lat="41.92917165752163" lon="15.98273035577734"><ele>36.0</ele><time>2026-03-22T08:18:41.912Z</time></trkpt><trkpt lat="41.92913123143226" lon="15.982814905246489"><ele>36.0</ele><time>2026-03-22T08:18:43.912Z</time></trkpt><trkpt lat="41.92908686640768" lon="15.98287628519909"><ele>36.4</ele><time>2026-03-22T08:18:44.912Z</time></trkpt><trkpt lat="41.92903255117366" lon="15.982937722207698"><ele>36.8</ele><time>2026-03-22T08:18:45.912Z</time></trkpt><trkpt lat="41.92892882161025" lon="15.983008169139605"><ele>37.199999999999996</ele><time>2026-03-22T08:18:47.912Z</time></trkpt><trkpt lat="41.92885676026214" lon="15.983041940698717"><ele>37.6</ele><time>2026-03-22T08:18:48.912Z</time></trkpt><trkpt lat="41.928765792810196" lon="15.983044651943008"><ele>38.0</ele><time>2026-03-22T08:18:49.912Z</time></trkpt><trkpt lat="41.928660798871896" lon="15.983034830843597"><ele>38.0</ele><time>2026-03-22T08:18:51.912Z</time></trkpt><trkpt lat="41.92863486444269" lon="15.98311972842466"><ele>38.0</ele><time>2026-03-22T08:18:55.912Z</time></trkpt><trkpt lat="41.9286150209954" lon="15.983210857243504"><ele>38.0</ele><time>2026-03-22T08:18:57.912Z</time></trkpt><trkpt lat="41.92851158182849" lon="15.983304987221226"><ele>38.0</ele><time>2026-03-22T08:18:59.912Z</time></trkpt><trkpt lat="41.92839965162829" lon="15.983361231586796"><ele>38.0</ele><time>2026-03-22T08:19:00.912Z</time></trkpt><trkpt lat="41.928294680177096" lon="15.983430709313774"><ele>38.8</ele><time>2026-03-22T08:19:01.912Z</time></trkpt><trkpt lat="41.92818249473718" lon="15.983506890748526"><ele>39.599999999999994</ele><time>2026-03-22T08:19:02.912Z</time></trkpt><trkpt lat="41.92808831864789" lon="15.983542950074321"><ele>40.400000000000006</ele><time>2026-03-22T08:19:03.912Z</time></trkpt><trkpt lat="41.927990236265764" lon="15.98353061132699"><ele>41.2</ele><time>2026-03-22T08:19:04.912Z</time></trkpt><trkpt lat="41.92790018384829" lon="15.983505793905946"><ele>42.0</ele><time>2026-03-22T08:19:05.912Z</time></trkpt><trkpt lat="41.927779926254885" lon="15.98347598312078"><ele>42.0</ele><time>2026-03-22T08:19:06.912Z</time></trkpt><trkpt lat="41.92766926044562" lon="15.983483276076896"><ele>42.0</ele><time>2026-03-22T08:19:07.912Z</time></trkpt><trkpt lat="41.92755034064896" lon="15.983515771841427"><ele>42.0</ele><time>2026-03-22T08:19:08.912Z</time></trkpt><trkpt lat="41.927477681318585" lon="15.983565843780577"><ele>42.0</ele><time>2026-03-22T08:19:09.912Z</time></trkpt><trkpt lat="41.927398984166025" lon="15.983628321392251"><ele>42.0</ele><time>2026-03-22T08:19:10.912Z</time></trkpt><trkpt lat="41.927308596031224" lon="15.983728120465083"><ele>42.25</ele><time>2026-03-22T08:19:11.912Z</time></trkpt><trkpt lat="41.927210390982594" lon="15.983851486728447"><ele>42.5</ele><time>2026-03-22T08:19:12.911Z</time></trkpt><trkpt lat="41.927089299475554" lon="15.983959201695102"><ele>42.75</ele><time>2026-03-22T08:19:13.911Z</time></trkpt><trkpt lat="41.92697054301051" lon="15.984064268846979"><ele>43.0</ele><time>2026-03-22T08:19:14.911Z</time></trkpt><trkpt lat="41.92685167716621" lon="15.984175298518004"><ele>43.25</ele><time>2026-03-22T08:19:15.911Z</time></trkpt><trkpt lat="41.9267480275778" lon="15.984282575640401"><ele>43.5</ele><time>2026-03-22T08:19:16.911Z</time></trkpt><trkpt lat="41.92662046988642" lon="15.984387530878402"><ele>43.75</ele><time>2026-03-22T08:19:17.911Z</time></trkpt><trkpt lat="41.926497722254226" lon="15.98448674559327"><ele>44.0</ele><time>2026-03-22T08:19:18.911Z</time></trkpt><trkpt lat="41.926367126981795" lon="15.984590026199573"><ele>44.666666666666664</ele><time>2026-03-22T08:19:19.911Z</time></trkpt><trkpt lat="41.9262002925359" lon="15.984710860536914"><ele>45.333333333333336</ele><time>2026-03-22T08:19:20.911Z</time></trkpt><trkpt lat="41.92601478234746" lon="15.984841039849353"><ele>46.0</ele><time>2026-03-22T08:19:21.911Z</time></trkpt><trkpt lat="41.92585083825648" lon="15.984944743743087"><ele>47.333333333333336</ele><time>2026-03-22T08:19:22.911Z</time></trkpt><trkpt lat="41.92569846302463" lon="15.9850267244232"><ele>48.66666666666667</ele><time>2026-03-22T08:19:23.911Z</time></trkpt><trkpt lat="41.92555185373203" lon="15.98510150316431"><ele>50.0</ele><time>2026-03-22T08:19:24.911Z</time></trkpt><trkpt lat="41.925407105664654" lon="15.98514292920317"><ele>50.0</ele><time>2026-03-22T08:19:25.911Z</time></trkpt><trkpt lat="41.92525312698118" lon="15.985166088171855"><ele>50.0</ele><time>2026-03-22T08:19:26.911Z</time></trkpt><trkpt lat="41.92509129912441" lon="15.985167230205663"><ele>50.0</ele><time>2026-03-22T08:19:27.911Z</time></trkpt><trkpt lat="41.92490879112582" lon="15.985149006093732"><ele>50.66666666666667</ele><time>2026-03-22T08:19:28.911Z</time></trkpt><trkpt lat="41.92472205061026" lon="15.98514891823178"><ele>51.33333333333333</ele><time>2026-03-22T08:19:29.911Z</time></trkpt><trkpt lat="41.92455747492631" lon="15.985144697423587"><ele>52.0</ele><time>2026-03-22T08:19:30.911Z</time></trkpt><trkpt lat="41.92440805011853" lon="15.985127878968106"><ele>52.0</ele><time>2026-03-22T08:19:31.911Z</time></trkpt><trkpt lat="41.924264033142265" lon="15.98509683184219"><ele>52.0</ele><time>2026-03-22T08:19:32.911Z</time></trkpt><trkpt lat="41.92412172100715" lon="15.985054657887373"><ele>52.0</ele><time>2026-03-22T08:19:33.911Z</time></trkpt><trkpt lat="41.92400113283574" lon="15.985004050334553"><ele>52.0</ele><time>2026-03-22T08:19:34.911Z</time></trkpt><trkpt lat="41.92389559576364" lon="15.984934031912267"><ele>52.0</ele><time>2026-03-22T08:19:35.911Z</time></trkpt><trkpt lat="41.92379715778048" lon="15.984841258647302"><ele>52.0</ele><time>2026-03-22T08:19:36.911Z</time></trkpt><trkpt lat="41.923711889947924" lon="15.984755299318005"><ele>52.0</ele><time>2026-03-22T08:19:37.911Z</time></trkpt><trkpt lat="41.9236297862275" lon="15.98468164218686"><ele>52.0</ele><time>2026-03-22T08:19:38.911Z</time></trkpt><trkpt lat="41.92355848745454" lon="15.984663433362794"><ele>52.0</ele><time>2026-03-22T08:19:39.911Z</time></trkpt><trkpt lat="41.923488262735546" lon="15.984690681467773"><ele>52.0</ele><time>2026-03-22T08:19:40.911Z</time></trkpt><trkpt lat="41.92342378105484" lon="15.984740707348728"><ele>52.0</ele><time>2026-03-22T08:19:41.911Z</time></trkpt><trkpt lat="41.923333540678605" lon="15.984823084029594"><ele>52.0</ele><time>2026-03-22T08:19:42.911Z</time></trkpt><trkpt lat="41.92323331101153" lon="15.984893843442828"><ele>52.0</ele><time>2026-03-22T08:19:43.911Z</time></trkpt><trkpt lat="41.92314587108987" lon="15.984926343606077"><ele>52.0</ele><time>2026-03-22T08:19:44.91Z</time></trkpt><trkpt lat="41.92307337500336" lon="15.984930024330609"><ele>52.285714285714285</ele><time>2026-03-22T08:19:45.91Z</time></trkpt><trkpt lat="41.92300397122094" lon="15.984888880447086"><ele>52.57142857142858</ele><time>2026-03-22T08:19:47.91Z</time></trkpt><trkpt lat="41.92309820115232" lon="15.984888166333679"><ele>52.85714285714286</ele><time>2026-03-22T08:19:53.91Z</time></trkpt><trkpt lat="41.923163678949635" lon="15.984887676014452"><ele>53.14285714285714</ele><time>2026-03-22T08:19:54.91Z</time></trkpt><trkpt lat="41.92323598168901" lon="15.98486610974196"><ele>53.42857142857143</ele><time>2026-03-22T08:19:55.91Z</time></trkpt><trkpt lat="41.92330050880073" lon="15.984846176149885"><ele>53.714285714285715</ele><time>2026-03-22T08:19:56.91Z</time></trkpt><trkpt lat="41.923346305939546" lon="15.984785457829371"><ele>54.0</ele><time>2026-03-22T08:19:59.91Z</time></trkpt><trkpt lat="41.92330559575513" lon="15.984697295285285"><ele>54.0</ele><time>2026-03-22T08:20:05.911Z</time></trkpt><trkpt lat="41.923270572308446" lon="15.9846261888307"><ele>54.0</ele><time>2026-03-22T08:20:07.911Z</time></trkpt><trkpt lat="41.92319378869351" lon="15.984637481085647"><ele>54.0</ele><time>2026-03-22T08:20:16.911Z</time></trkpt><trkpt lat="41.9230847339615" lon="15.98470961120009"><ele>54.0</ele><time>2026-03-22T08:20:18.911Z</time></trkpt><trkpt lat="41.92301517629638" lon="15.984721026102816"><ele>54.0</ele><time>2026-03-22T08:20:19.911Z</time></trkpt><trkpt lat="41.92295739902212" lon="15.984769261183281"><ele>54.0</ele><time>2026-03-22T08:20:21.911Z</time></trkpt><trkpt lat="41.92294280763639" lon="15.984931759589097"><ele>54.25</ele><time>2026-03-22T08:20:23.911Z</time></trkpt><trkpt lat="41.92291688902488" lon="15.985060371878125"><ele>54.5</ele><time>2026-03-22T08:20:24.911Z</time></trkpt><trkpt lat="41.92286921661707" lon="15.985194953277178"><ele>54.75</ele><time>2026-03-22T08:20:25.911Z</time></trkpt><trkpt lat="41.92282384180357" lon="15.985354636204303"><ele>55.0</ele><time>2026-03-22T08:20:26.911Z</time></trkpt><trkpt lat="41.92278163819911" lon="15.985503970597387"><ele>55.0</ele><time>2026-03-22T08:20:27.911Z</time></trkpt><trkpt lat="41.92278370790676" lon="15.985640726569715"><ele>55.0</ele><time>2026-03-22T08:20:28.911Z</time></trkpt><trkpt lat="41.92281447880892" lon="15.985768395369677"><ele>55.0</ele><time>2026-03-22T08:20:29.911Z</time></trkpt><trkpt lat="41.92285074590405" lon="15.98587709197685"><ele>55.0</ele><time>2026-03-22T08:20:30.911Z</time></trkpt><trkpt lat="41.922883165233195" lon="15.985978586550251"><ele>55.0</ele><time>2026-03-22T08:20:31.911Z</time></trkpt><trkpt lat="41.922920161798466" lon="15.98607549520029"><ele>55.33333333333333</ele><time>2026-03-22T08:20:32.911Z</time></trkpt><trkpt lat="41.922945718511855" lon="15.98615569481893"><ele>55.666666666666664</ele><time>2026-03-22T08:20:33.911Z</time></trkpt><trkpt lat="41.92297872018787" lon="15.986242804115696"><ele>56.0</ele><time>2026-03-22T08:20:35.91Z</time></trkpt><trkpt lat="41.92299100498773" lon="15.986329794456951"><ele>56.33333333333333</ele><time>2026-03-22T08:20:41.91Z</time></trkpt><trkpt lat="41.92303650082976" lon="15.986452206071734"><ele>56.666666666666664</ele><time>2026-03-22T08:20:43.91Z</time></trkpt><trkpt lat="41.92306522513032" lon="15.986535671013575"><ele>57.0</ele><time>2026-03-22T08:20:44.91Z</time></trkpt><trkpt lat="41.923104912099674" lon="15.986643444384622"><ele>58.0</ele><time>2026-03-22T08:20:46.91Z</time></trkpt><trkpt lat="41.92314898535145" lon="15.98671677245597"><ele>59.0</ele><time>2026-03-22T08:21:17.909Z</time></trkpt><trkpt lat="41.92322839224614" lon="15.986815582747404"><ele>60.0</ele><time>2026-03-22T08:29:24.902Z</time></trkpt><trkpt lat="41.92328240716495" lon="15.986954720618861"><ele>61.0</ele><time>2026-03-22T08:29:26.902Z</time></trkpt><trkpt lat="41.92330129197549" lon="15.987039636759217"><ele>62.0</ele><time>2026-03-22T08:29:27.902Z</time></trkpt><trkpt lat="41.9233374715333" lon="15.987154907953839"><ele>62.0</ele><time>2026-03-22T08:29:28.902Z</time></trkpt><trkpt lat="41.9233632624664" lon="15.987281521259838"><ele>62.0</ele><time>2026-03-22T08:29:29.902Z</time></trkpt><trkpt lat="41.92338121225436" lon="15.987397412237033"><ele>62.0</ele><time>2026-03-22T08:29:30.902Z</time></trkpt><trkpt lat="41.92340732769956" lon="15.987511225443216"><ele>62.0</ele><time>2026-03-22T08:29:31.902Z</time></trkpt><trkpt lat="41.92343120087104" lon="15.987640175409929"><ele>62.0</ele><time>2026-03-22T08:29:32.902Z</time></trkpt><trkpt lat="41.92345556951284" lon="15.987784913249715"><ele>64.0</ele><time>2026-03-22T08:29:33.902Z</time></trkpt><trkpt lat="41.92349184627158" lon="15.987918018656751"><ele>66.0</ele><time>2026-03-22T08:29:34.902Z</time></trkpt><trkpt lat="41.92353574742562" lon="15.988040511341225"><ele>68.0</ele><time>2026-03-22T08:29:35.902Z</time></trkpt><trkpt lat="41.92356874716566" lon="15.98818798928167"><ele>70.0</ele><time>2026-03-22T08:29:36.902Z</time></trkpt><trkpt lat="41.92357981863724" lon="15.988321448476151"><ele>72.0</ele><time>2026-03-22T08:29:37.902Z</time></trkpt><trkpt lat="41.92358760844124" lon="15.988471646648662"><ele>75.2</ele><time>2026-03-22T08:29:38.902Z</time></trkpt><trkpt lat="41.92360815810308" lon="15.988630318754128"><ele>78.4</ele><time>2026-03-22T08:29:39.902Z</time></trkpt><trkpt lat="41.923632413979355" lon="15.988784572478544"><ele>81.60000000000001</ele><time>2026-03-22T08:29:40.902Z</time></trkpt><trkpt lat="41.9236619617381" lon="15.988919740850239"><ele>84.80000000000001</ele><time>2026-03-22T08:29:41.902Z</time></trkpt><trkpt lat="41.92368610831352" lon="15.989040946271933"><ele>88.0</ele><time>2026-03-22T08:29:42.902Z</time></trkpt><trkpt lat="41.92371367503012" lon="15.989137795341353"><ele>91.80000000000001</ele><time>2026-03-22T08:29:43.902Z</time></trkpt><trkpt lat="41.923752543547955" lon="15.989263246202727"><ele>95.6</ele><time>2026-03-22T08:29:44.902Z</time></trkpt><trkpt lat="41.923783861506784" lon="15.989369690699082"><ele>99.39999999999999</ele><time>2026-03-22T08:29:45.902Z</time></trkpt><trkpt lat="41.92381640098101" lon="15.989528734799704"><ele>103.19999999999999</ele><time>2026-03-22T08:29:46.902Z</time></trkpt><trkpt lat="41.923867350388676" lon="15.989699088858796"><ele>107.0</ele><time>2026-03-22T08:29:47.901Z</time></trkpt><trkpt lat="41.92390849315554" lon="15.989833273162997"><ele>107.0</ele><time>2026-03-22T08:29:48.901Z</time></trkpt><trkpt lat="41.923943477904366" lon="15.98994865268021"><ele>106.99999999999999</ele><time>2026-03-22T08:29:49.901Z</time></trkpt><trkpt lat="41.92396649421493" lon="15.990088692994119"><ele>106.99999999999999</ele><time>2026-03-22T08:29:50.901Z</time></trkpt><trkpt lat="41.92398939946874" lon="15.990215410894825"><ele>107.0</ele><time>2026-03-22T08:29:51.901Z</time></trkpt><trkpt lat="41.924004651245895" lon="15.990333096024353"><ele>107.0</ele><time>2026-03-22T08:29:52.901Z</time></trkpt><trkpt lat="41.92404513375658" lon="15.99047379631712"><ele>109.5</ele><time>2026-03-22T08:29:53.901Z</time></trkpt><trkpt lat="41.92408537538633" lon="15.990616970398772"><ele>112.0</ele><time>2026-03-22T08:29:54.901Z</time></trkpt><trkpt lat="41.924107503755394" lon="15.99076977437307"><ele>114.5</ele><time>2026-03-22T08:29:55.901Z</time></trkpt><trkpt lat="41.92412917233499" lon="15.99093102064664"><ele>117.0</ele><time>2026-03-22T08:29:56.901Z</time></trkpt><trkpt lat="41.924135720745426" lon="15.991118053274736"><ele>119.0</ele><time>2026-03-22T08:29:57.901Z</time></trkpt><trkpt lat="41.924151305484536" lon="15.991300043396341"><ele>121.0</ele><time>2026-03-22T08:29:58.901Z</time></trkpt><trkpt lat="41.92417294982513" lon="15.991475373043974"><ele>123.0</ele><time>2026-03-22T08:29:59.901Z</time></trkpt><trkpt lat="41.92419630423249" lon="15.991672560404524"><ele>125.0</ele><time>2026-03-22T08:30:00.901Z</time></trkpt><trkpt lat="41.92424116401857" lon="15.991864759782898"><ele>127.0</ele><time>2026-03-22T08:30:01.901Z</time></trkpt><trkpt lat="41.92429384958543" lon="15.992071164231014"><ele>129.0</ele><time>2026-03-22T08:30:02.901Z</time></trkpt><trkpt lat="41.924363219583306" lon="15.992274928545761"><ele>131.0</ele><time>2026-03-22T08:30:03.901Z</time></trkpt><trkpt lat="41.92442512551469" lon="15.992492129428616"><ele>134.5</ele><time>2026-03-22T08:30:04.901Z</time></trkpt><trkpt lat="41.92449718486515" lon="15.992704817568889"><ele>138.0</ele><time>2026-03-22T08:30:05.901Z</time></trkpt><trkpt lat="41.924546682442056" lon="15.99289325889625"><ele>141.5</ele><time>2026-03-22T08:30:06.901Z</time></trkpt><trkpt lat="41.92457915849057" lon="15.993026614219087"><ele>145.0</ele><time>2026-03-22T08:30:07.901Z</time></trkpt><trkpt lat="41.92458641876551" lon="15.993122869995203"><ele>145.0</ele><time>2026-03-22T08:30:08.901Z</time></trkpt><trkpt lat="41.92450657528618" lon="15.99313651546173"><ele>145.0</ele><time>2026-03-22T08:30:11.901Z</time></trkpt><trkpt lat="41.92449285929504" lon="15.993242939565864"><ele>145.0</ele><time>2026-03-22T08:30:13.901Z</time></trkpt><trkpt lat="41.92446508244602" lon="15.993319758713149"><ele>145.0</ele><time>2026-03-22T08:30:15.901Z</time></trkpt><trkpt lat="41.9244283123088" lon="15.993409394666816"><ele>145.0</ele><time>2026-03-22T08:30:18.901Z</time></trkpt><trkpt lat="41.92382615701472" lon="15.994026189406892"><ele>151.75</ele><time>2026-03-22T08:30:19.901Z</time></trkpt><trkpt lat="41.92372340976802" lon="15.994118106492685"><ele>158.5</ele><time>2026-03-22T08:30:20.9Z</time></trkpt><trkpt lat="41.923583786736096" lon="15.994209527450115"><ele>165.25</ele><time>2026-03-22T08:30:21.9Z</time></trkpt><trkpt lat="41.92345405248266" lon="15.994301604701146"><ele>172.0</ele><time>2026-03-22T08:30:22.9Z</time></trkpt><trkpt lat="41.923326127478155" lon="15.994364204184695"><ele>172.16666666666669</ele><time>2026-03-22T08:30:23.9Z</time></trkpt><trkpt lat="41.92323599677813" lon="15.994412465141577"><ele>172.33333333333334</ele><time>2026-03-22T08:30:24.9Z</time></trkpt><trkpt lat="41.923187281828945" lon="15.994479302953449"><ele>172.5</ele><time>2026-03-22T08:30:25.9Z</time></trkpt><trkpt lat="41.923155032278004" lon="15.994600822696563"><ele>172.66666666666666</ele><time>2026-03-22T08:30:27.9Z</time></trkpt><trkpt lat="41.923105414937005" lon="15.99453749608332"><ele>172.83333333333331</ele><time>2026-03-22T08:30:54.9Z</time></trkpt><trkpt lat="41.9230466010215" lon="15.994585503789061"><ele>173.0</ele><time>2026-03-22T08:31:05.899Z</time></trkpt><trkpt lat="41.92297314521995" lon="15.994617319687013"><ele>173.0</ele><time>2026-03-22T08:31:06.899Z</time></trkpt><trkpt lat="41.922883137672514" lon="15.994620259994285"><ele>173.0</ele><time>2026-03-22T08:31:07.899Z</time></trkpt><trkpt lat="41.92272636903308" lon="15.994616473038032"><ele>173.0</ele><time>2026-03-22T08:31:08.899Z</time></trkpt><trkpt lat="41.922552903803656" lon="15.994599301348622"><ele>173.0</ele><time>2026-03-22T08:31:09.899Z</time></trkpt><trkpt lat="41.922371142996745" lon="15.994559913919185"><ele>172.0</ele><time>2026-03-22T08:31:10.899Z</time></trkpt><trkpt lat="41.922208672585136" lon="15.994518343268403"><ele>171.0</ele><time>2026-03-22T08:31:11.899Z</time></trkpt><trkpt lat="41.92203514977736" lon="15.99451408478511"><ele>170.0</ele><time>2026-03-22T08:31:12.899Z</time></trkpt><trkpt lat="41.92187632007953" lon="15.994536242085958"><ele>170.66666666666666</ele><time>2026-03-22T08:31:13.898Z</time></trkpt><trkpt lat="41.92171475201808" lon="15.994571651775448"><ele>171.33333333333334</ele><time>2026-03-22T08:31:14.898Z</time></trkpt><trkpt lat="41.92157176196773" lon="15.994628815292455"><ele>172.0</ele><time>2026-03-22T08:31:15.898Z</time></trkpt><trkpt lat="41.921416978022435" lon="15.994661571298696"><ele>172.0</ele><time>2026-03-22T08:31:16.898Z</time></trkpt><trkpt lat="41.92126694359137" lon="15.994701610688214"><ele>172.0</ele><time>2026-03-22T08:31:17.898Z</time></trkpt><trkpt lat="41.921127217591255" lon="15.994723724420039"><ele>172.0</ele><time>2026-03-22T08:31:18.898Z</time></trkpt><trkpt lat="41.92097747456564" lon="15.994744916529898"><ele>172.0</ele><time>2026-03-22T08:31:19.898Z</time></trkpt><trkpt lat="41.92085284015108" lon="15.99477161170438"><ele>172.0</ele><time>2026-03-22T08:31:20.898Z</time></trkpt><trkpt lat="41.92073641359525" lon="15.994805340034"><ele>172.0</ele><time>2026-03-22T08:31:21.898Z</time></trkpt><trkpt lat="41.92061087467943" lon="15.994858974389496"><ele>172.0</ele><time>2026-03-22T08:31:22.898Z</time></trkpt><trkpt lat="41.92047393482221" lon="15.994938901718962"><ele>172.0</ele><time>2026-03-22T08:31:23.898Z</time></trkpt><trkpt lat="41.92030446613306" lon="15.995041679172724"><ele>171.0</ele><time>2026-03-22T08:31:24.898Z</time></trkpt><trkpt lat="41.920175178163745" lon="15.995154531227307"><ele>170.0</ele><time>2026-03-22T08:31:25.898Z</time></trkpt><trkpt lat="41.92007091240775" lon="15.995288888316665"><ele>169.0</ele><time>2026-03-22T08:31:26.898Z</time></trkpt><trkpt lat="41.91996219077748" lon="15.995398584039217"><ele>168.0</ele><time>2026-03-22T08:31:27.898Z</time></trkpt><trkpt lat="41.919855574771624" lon="15.995501964478237"><ele>168.0</ele><time>2026-03-22T08:31:28.898Z</time></trkpt><trkpt lat="41.91975524677265" lon="15.995551573062697"><ele>168.0</ele><time>2026-03-22T08:31:29.898Z</time></trkpt><trkpt lat="41.91963083016834" lon="15.995574954751152"><ele>168.0</ele><time>2026-03-22T08:31:30.898Z</time></trkpt><trkpt lat="41.919508584821195" lon="15.995595293762467"><ele>168.0</ele><time>2026-03-22T08:31:31.898Z</time></trkpt><trkpt lat="41.91938264748089" lon="15.995619172753283"><ele>168.0</ele><time>2026-03-22T08:31:32.898Z</time></trkpt><trkpt lat="41.91925228241553" lon="15.995646200298838"><ele>168.0</ele><time>2026-03-22T08:31:33.898Z</time></trkpt><trkpt lat="41.919093231215214" lon="15.995693299765211"><ele>168.0</ele><time>2026-03-22T08:31:34.898Z</time></trkpt><trkpt lat="41.91893550647828" lon="15.9957532584467"><ele>167.25</ele><time>2026-03-22T08:31:35.898Z</time></trkpt><trkpt lat="41.91880644084123" lon="15.995791337842117"><ele>166.5</ele><time>2026-03-22T08:31:36.897Z</time></trkpt><trkpt lat="41.9186803576513" lon="15.995836768955847"><ele>165.75</ele><time>2026-03-22T08:31:37.897Z</time></trkpt><trkpt lat="41.918534397744594" lon="15.995897464024841"><ele>165.0</ele><time>2026-03-22T08:31:38.897Z</time></trkpt><trkpt lat="41.91836476127868" lon="15.995946450209548"><ele>162.66666666666666</ele><time>2026-03-22T08:31:39.897Z</time></trkpt><trkpt lat="41.91820352375157" lon="15.995958811712754"><ele>160.33333333333331</ele><time>2026-03-22T08:31:40.897Z</time></trkpt><trkpt lat="41.91804419452429" lon="15.995959403874663"><ele>158.0</ele><time>2026-03-22T08:31:41.897Z</time></trkpt><trkpt lat="41.91791211728064" lon="15.995940521691582"><ele>158.0</ele><time>2026-03-22T08:31:42.897Z</time></trkpt><trkpt lat="41.9178177621665" lon="15.995908605567717"><ele>158.0</ele><time>2026-03-22T08:31:43.897Z</time></trkpt><trkpt lat="41.91772583824542" lon="15.995910494594105"><ele>158.0</ele><time>2026-03-22T08:31:44.897Z</time></trkpt><trkpt lat="41.91760496328262" lon="15.995928892752286"><ele>158.0</ele><time>2026-03-22T08:31:45.897Z</time></trkpt><trkpt lat="41.917491719784564" lon="15.995933350875058"><ele>158.0</ele><time>2026-03-22T08:31:46.897Z</time></trkpt><trkpt lat="41.91735963394787" lon="15.995927784820775"><ele>157.75</ele><time>2026-03-22T08:31:47.897Z</time></trkpt><trkpt lat="41.917227372563666" lon="15.995893636187137"><ele>157.5</ele><time>2026-03-22T08:31:48.897Z</time></trkpt><trkpt lat="41.91709948919552" lon="15.995869992058593"><ele>157.25</ele><time>2026-03-22T08:31:49.897Z</time></trkpt><trkpt lat="41.91696146513631" lon="15.995845702979855"><ele>157.0</ele><time>2026-03-22T08:31:50.897Z</time></trkpt><trkpt lat="41.916816042386266" lon="15.995821112497264"><ele>161.0</ele><time>2026-03-22T08:31:51.897Z</time></trkpt><trkpt lat="41.91666602840129" lon="15.995822587067202"><ele>165.0</ele><time>2026-03-22T08:31:52.897Z</time></trkpt><trkpt lat="41.91651620434406" lon="15.995854317638388"><ele>169.0</ele><time>2026-03-22T08:31:53.897Z</time></trkpt><trkpt lat="41.91635647119903" lon="15.995878935626466"><ele>169.0</ele><time>2026-03-22T08:31:54.897Z</time></trkpt><trkpt lat="41.91624433621452" lon="15.995878323746124"><ele>169.0</ele><time>2026-03-22T08:31:55.897Z</time></trkpt><trkpt lat="41.91615224299332" lon="15.995868222776286"><ele>169.0</ele><time>2026-03-22T08:31:56.897Z</time></trkpt><trkpt lat="41.916051439957485" lon="15.995850617819412"><ele>169.0</ele><time>2026-03-22T08:31:57.897Z</time></trkpt><trkpt lat="41.915979330044465" lon="15.995834280216279"><ele>169.0</ele><time>2026-03-22T08:31:58.897Z</time></trkpt><trkpt lat="41.915898364991946" lon="15.995806451614166"><ele>172.5</ele><time>2026-03-22T08:32:00.897Z</time></trkpt><trkpt lat="41.91581556564088" lon="15.995755533063178"><ele>176.0</ele><time>2026-03-22T08:32:01.897Z</time></trkpt><trkpt lat="41.91570435471652" lon="15.995727867289613"><ele>179.5</ele><time>2026-03-22T08:32:02.897Z</time></trkpt><trkpt lat="41.91555043981575" lon="15.99570862155421"><ele>183.0</ele><time>2026-03-22T08:32:03.897Z</time></trkpt><trkpt lat="41.91539725702868" lon="15.995681368908825"><ele>183.0</ele><time>2026-03-22T08:32:04.897Z</time></trkpt><trkpt lat="41.91526404027035" lon="15.995669687103062"><ele>183.0</ele><time>2026-03-22T08:32:05.897Z</time></trkpt><trkpt lat="41.915148303484415" lon="15.995649696806819"><ele>183.0</ele><time>2026-03-22T08:32:06.896Z</time></trkpt><trkpt lat="41.91506252539959" lon="15.995637476506447"><ele>183.0</ele><time>2026-03-22T08:32:07.896Z</time></trkpt><trkpt lat="41.91499124616209" lon="15.995622057048072"><ele>183.0</ele><time>2026-03-22T08:32:12.896Z</time></trkpt><trkpt lat="41.91492883314143" lon="15.995603906248002"><ele>182.5</ele><time>2026-03-22T08:32:15.896Z</time></trkpt><trkpt lat="41.914863092764215" lon="15.995599403578755"><ele>182.0</ele><time>2026-03-22T08:32:18.896Z</time></trkpt><trkpt lat="41.914757400639814" lon="15.995567494141122"><ele>181.5</ele><time>2026-03-22T08:32:22.896Z</time></trkpt><trkpt lat="41.91460493943092" lon="15.995534555542887"><ele>181.0</ele><time>2026-03-22T08:32:24.896Z</time></trkpt><trkpt lat="41.9144517634707" lon="15.995472372203448"><ele>181.0</ele><time>2026-03-22T08:32:25.896Z</time></trkpt><trkpt lat="41.91431054085496" lon="15.995438677500543"><ele>181.0</ele><time>2026-03-22T08:32:26.896Z</time></trkpt><trkpt lat="41.91414646783862" lon="15.995411295756435"><ele>181.0</ele><time>2026-03-22T08:32:27.896Z</time></trkpt><trkpt lat="41.9139899467089" lon="15.99540366485583"><ele>180.75</ele><time>2026-03-22T08:32:28.896Z</time></trkpt><trkpt lat="41.91384767375739" lon="15.995382749905707"><ele>180.5</ele><time>2026-03-22T08:32:29.896Z</time></trkpt><trkpt lat="41.91370968984529" lon="15.99536126345361"><ele>180.25</ele><time>2026-03-22T08:32:30.896Z</time></trkpt><trkpt lat="41.91357283379115" lon="15.99532099706043"><ele>180.0</ele><time>2026-03-22T08:32:31.896Z</time></trkpt><trkpt lat="41.913445021357106" lon="15.995291410446486"><ele>180.0</ele><time>2026-03-22T08:32:32.896Z</time></trkpt><trkpt lat="41.91332397475089" lon="15.99526046517734"><ele>180.0</ele><time>2026-03-22T08:32:33.896Z</time></trkpt><trkpt lat="41.91320618121324" lon="15.995260793268432"><ele>180.0</ele><time>2026-03-22T08:32:34.896Z</time></trkpt><trkpt lat="41.91308692915163" lon="15.995249553789295"><ele>180.0</ele><time>2026-03-22T08:32:35.897Z</time></trkpt><trkpt lat="41.91295075078103" lon="15.995262692781823"><ele>180.0</ele><time>2026-03-22T08:32:36.898Z</time></trkpt><trkpt lat="41.91282546996682" lon="15.995320359117184"><ele>180.0</ele><time>2026-03-22T08:32:37.898Z</time></trkpt><trkpt lat="41.91265762995989" lon="15.995351515622763"><ele>180.0</ele><time>2026-03-22T08:32:38.898Z</time></trkpt><trkpt lat="41.91249936412001" lon="15.995385163115976"><ele>182.75</ele><time>2026-03-22T08:32:39.897Z</time></trkpt><trkpt lat="41.91237123032702" lon="15.995403474125073"><ele>185.5</ele><time>2026-03-22T08:32:40.897Z</time></trkpt><trkpt lat="41.91224374076665" lon="15.99542404605568"><ele>188.25</ele><time>2026-03-22T08:32:41.898Z</time></trkpt><trkpt lat="41.9121244282662" lon="15.995487052504469"><ele>191.0</ele><time>2026-03-22T08:32:42.897Z</time></trkpt><trkpt lat="41.91196683670774" lon="15.995577400433703"><ele>191.0</ele><time>2026-03-22T08:32:43.897Z</time></trkpt><trkpt lat="41.91179634469246" lon="15.995669044207359"><ele>191.0</ele><time>2026-03-22T08:32:44.898Z</time></trkpt><trkpt lat="41.91163523787018" lon="15.995735722838324"><ele>191.0</ele><time>2026-03-22T08:32:45.897Z</time></trkpt><trkpt lat="41.911528952581435" lon="15.995822594581906"><ele>192.75</ele><time>2026-03-22T08:32:46.897Z</time></trkpt><trkpt lat="41.91142294747666" lon="15.995900462463961"><ele>194.5</ele><time>2026-03-22T08:32:47.897Z</time></trkpt><trkpt lat="41.91132131615667" lon="15.995991240059407"><ele>196.25</ele><time>2026-03-22T08:32:48.897Z</time></trkpt><trkpt lat="41.91124095231382" lon="15.996067757232188"><ele>198.0</ele><time>2026-03-22T08:32:49.897Z</time></trkpt><trkpt lat="41.91113113076735" lon="15.996154004203614"><ele>198.0</ele><time>2026-03-22T08:32:50.897Z</time></trkpt><trkpt lat="41.91104125431721" lon="15.99622707834168"><ele>198.0</ele><time>2026-03-22T08:32:51.897Z</time></trkpt><trkpt lat="41.910952561784455" lon="15.996286835391"><ele>198.0</ele><time>2026-03-22T08:32:52.897Z</time></trkpt><trkpt lat="41.910846490457445" lon="15.996320308732926"><ele>198.0</ele><time>2026-03-22T08:32:53.897Z</time></trkpt><trkpt lat="41.910735502296525" lon="15.996336500543817"><ele>198.0</ele><time>2026-03-22T08:32:54.897Z</time></trkpt><trkpt lat="41.91064002666344" lon="15.99635108233284"><ele>199.16666666666666</ele><time>2026-03-22T08:32:55.897Z</time></trkpt><trkpt lat="41.91056213261319" lon="15.99636102415078"><ele>200.33333333333331</ele><time>2026-03-22T08:32:56.897Z</time></trkpt><trkpt lat="41.91049426776817" lon="15.99636880717467"><ele>201.5</ele><time>2026-03-22T08:32:57.897Z</time></trkpt><trkpt lat="41.91039689218308" lon="15.99637356454988"><ele>202.66666666666666</ele><time>2026-03-22T08:32:59.897Z</time></trkpt><trkpt lat="41.91030476401626" lon="15.99643882122125"><ele>203.83333333333331</ele><time>2026-03-22T08:33:01.897Z</time></trkpt><trkpt lat="41.91021249008112" lon="15.996487842038245"><ele>205.0</ele><time>2026-03-22T08:33:03.897Z</time></trkpt><trkpt lat="41.910142502954116" lon="15.996508990440978"><ele>206.5</ele><time>2026-03-22T08:33:04.897Z</time></trkpt><trkpt lat="41.91003259157255" lon="15.996528961774828"><ele>208.0</ele><time>2026-03-22T08:33:05.897Z</time></trkpt><trkpt lat="41.90993079818634" lon="15.996579080066123"><ele>209.5</ele><time>2026-03-22T08:33:06.897Z</time></trkpt><trkpt lat="41.90982537014152" lon="15.99665175652449"><ele>211.0</ele><time>2026-03-22T08:33:07.897Z</time></trkpt><trkpt lat="41.90971111310393" lon="15.99672717238097"><ele>209.25</ele><time>2026-03-22T08:33:08.897Z</time></trkpt><trkpt lat="41.90959439825947" lon="15.996765147063364"><ele>207.5</ele><time>2026-03-22T08:33:09.897Z</time></trkpt><trkpt lat="41.90949729407941" lon="15.996785815822435"><ele>205.75</ele><time>2026-03-22T08:33:10.897Z</time></trkpt><trkpt lat="41.9093618338413" lon="15.996825505757599"><ele>204.0</ele><time>2026-03-22T08:33:11.897Z</time></trkpt><trkpt lat="41.909233789528514" lon="15.996905331623827"><ele>204.0</ele><time>2026-03-22T08:33:12.897Z</time></trkpt><trkpt lat="41.909102366425245" lon="15.99697951783997"><ele>204.0</ele><time>2026-03-22T08:33:13.897Z</time></trkpt><trkpt lat="41.908971172867915" lon="15.997037529587889"><ele>204.0</ele><time>2026-03-22T08:33:14.897Z</time></trkpt><trkpt lat="41.908800844634314" lon="15.997075378859426"><ele>204.0</ele><time>2026-03-22T08:33:15.897Z</time></trkpt><trkpt lat="41.908626813262714" lon="15.997107682668686"><ele>204.0</ele><time>2026-03-22T08:33:16.896Z</time></trkpt><trkpt lat="41.90845920086458" lon="15.997180775258455"><ele>204.0</ele><time>2026-03-22T08:33:17.896Z</time></trkpt><trkpt lat="41.90831874279063" lon="15.997258483995589"><ele>204.25</ele><time>2026-03-22T08:33:18.896Z</time></trkpt><trkpt lat="41.90819713238002" lon="15.997338502402346"><ele>204.5</ele><time>2026-03-22T08:33:19.896Z</time></trkpt><trkpt lat="41.908067476670816" lon="15.997421975098623"><ele>204.75</ele><time>2026-03-22T08:33:20.896Z</time></trkpt><trkpt lat="41.907944108020345" lon="15.997503347178627"><ele>205.0</ele><time>2026-03-22T08:33:21.896Z</time></trkpt><trkpt lat="41.907828107119364" lon="15.997562293507645"><ele>205.0</ele><time>2026-03-22T08:33:22.896Z</time></trkpt><trkpt lat="41.90770456034725" lon="15.997595948216379"><ele>205.0</ele><time>2026-03-22T08:33:23.896Z</time></trkpt><trkpt lat="41.907564739987684" lon="15.997605108740055"><ele>205.0</ele><time>2026-03-22T08:33:24.896Z</time></trkpt><trkpt lat="41.90742685441218" lon="15.997629490129178"><ele>205.0</ele><time>2026-03-22T08:33:25.896Z</time></trkpt><trkpt lat="41.90728629127991" lon="15.997693388147923"><ele>210.0</ele><time>2026-03-22T08:33:26.896Z</time></trkpt><trkpt lat="41.90713878769917" lon="15.99774545264299"><ele>215.0</ele><time>2026-03-22T08:33:27.896Z</time></trkpt><trkpt lat="41.90700696803518" lon="15.997779241918488"><ele>220.0</ele><time>2026-03-22T08:33:28.896Z</time></trkpt><trkpt lat="41.906891342024124" lon="15.997819603343398"><ele>225.0</ele><time>2026-03-22T08:33:29.896Z</time></trkpt><trkpt lat="41.90675046183147" lon="15.997822602696479"><ele>224.66666666666669</ele><time>2026-03-22T08:33:30.896Z</time></trkpt><trkpt lat="41.90658068383422" lon="15.99780635036099"><ele>224.33333333333334</ele><time>2026-03-22T08:33:31.896Z</time></trkpt><trkpt lat="41.90642505999014" lon="15.99779459630156"><ele>224.0</ele><time>2026-03-22T08:33:32.896Z</time></trkpt><trkpt lat="41.90629399087578" lon="15.997770858644518"><ele>224.0</ele><time>2026-03-22T08:33:33.896Z</time></trkpt><trkpt lat="41.90616972233541" lon="15.997715680213345"><ele>224.0</ele><time>2026-03-22T08:33:34.896Z</time></trkpt><trkpt lat="41.90603921528197" lon="15.997625054473504"><ele>224.0</ele><time>2026-03-22T08:33:35.896Z</time></trkpt><trkpt lat="41.90590485674734" lon="15.997556642041163"><ele>224.0</ele><time>2026-03-22T08:33:36.896Z</time></trkpt><trkpt lat="41.905723722405874" lon="15.997443993918555"><ele>228.66666666666669</ele><time>2026-03-22T08:33:37.896Z</time></trkpt><trkpt lat="41.90555546733687" lon="15.997344087801588"><ele>233.33333333333331</ele><time>2026-03-22T08:33:38.896Z</time></trkpt><trkpt lat="41.905414426771806" lon="15.997294372043527"><ele>238.0</ele><time>2026-03-22T08:33:39.896Z</time></trkpt><trkpt lat="41.905288602505735" lon="15.997227879270339"><ele>238.0</ele><time>2026-03-22T08:33:40.896Z</time></trkpt><trkpt lat="41.90516244094524" lon="15.997194409888554"><ele>238.0</ele><time>2026-03-22T08:33:41.896Z</time></trkpt><trkpt lat="41.9050550818207" lon="15.997176191878422"><ele>238.0</ele><time>2026-03-22T08:33:42.896Z</time></trkpt><trkpt lat="41.90492286810757" lon="15.997164255555932"><ele>238.0</ele><time>2026-03-22T08:33:43.896Z</time></trkpt><trkpt lat="41.90478687373476" lon="15.99715683659233"><ele>238.60000000000002</ele><time>2026-03-22T08:33:44.896Z</time></trkpt><trkpt lat="41.90467155515711" lon="15.997153365392776"><ele>239.20000000000002</ele><time>2026-03-22T08:33:45.896Z</time></trkpt><trkpt lat="41.90456496432831" lon="15.997160014054975"><ele>239.8</ele><time>2026-03-22T08:33:46.896Z</time></trkpt><trkpt lat="41.90447330390875" lon="15.997148677149934"><ele>240.4</ele><time>2026-03-22T08:33:47.896Z</time></trkpt><trkpt lat="41.90436562716574" lon="15.997165989743904"><ele>241.0</ele><time>2026-03-22T08:33:48.896Z</time></trkpt><trkpt lat="41.904239767281986" lon="15.997200359132806"><ele>242.25</ele><time>2026-03-22T08:33:49.895Z</time></trkpt><trkpt lat="41.90407343391173" lon="15.997198113180383"><ele>243.5</ele><time>2026-03-22T08:33:50.895Z</time></trkpt><trkpt lat="41.90391230557989" lon="15.997188630653755"><ele>244.75</ele><time>2026-03-22T08:33:51.895Z</time></trkpt><trkpt lat="41.90379201341873" lon="15.997166104320762"><ele>246.0</ele><time>2026-03-22T08:33:52.895Z</time></trkpt><trkpt lat="41.90366585707764" lon="15.997111479195219"><ele>246.0</ele><time>2026-03-22T08:33:53.895Z</time></trkpt><trkpt lat="41.90358335418991" lon="15.997096120465867"><ele>246.00000000000003</ele><time>2026-03-22T08:33:54.895Z</time></trkpt><trkpt lat="41.9034954931985" lon="15.9970818914122"><ele>246.00000000000003</ele><time>2026-03-22T08:33:55.895Z</time></trkpt><trkpt lat="41.903403102411154" lon="15.99705153157733"><ele>246.0</ele><time>2026-03-22T08:33:56.895Z</time></trkpt><trkpt lat="41.90330334188669" lon="15.99700698994558"><ele>246.0</ele><time>2026-03-22T08:33:57.895Z</time></trkpt><trkpt lat="41.903180381384004" lon="15.996945723505796"><ele>246.4</ele><time>2026-03-22T08:33:58.895Z</time></trkpt><trkpt lat="41.90307152949864" lon="15.996868767706877"><ele>246.8</ele><time>2026-03-22T08:33:59.895Z</time></trkpt><trkpt lat="41.90298556106683" lon="15.99679958166335"><ele>247.20000000000002</ele><time>2026-03-22T08:34:00.895Z</time></trkpt><trkpt lat="41.902910996957445" lon="15.996726767530896"><ele>247.60000000000002</ele><time>2026-03-22T08:34:01.895Z</time></trkpt><trkpt lat="41.902823573656185" lon="15.996664559252405"><ele>248.0</ele><time>2026-03-22T08:34:02.895Z</time></trkpt><trkpt lat="41.90272703776981" lon="15.996590590636764"><ele>248.16666666666669</ele><time>2026-03-22T08:34:03.895Z</time></trkpt><trkpt lat="41.90265752966274" lon="15.996541206837358"><ele>248.33333333333334</ele><time>2026-03-22T08:34:04.895Z</time></trkpt><trkpt lat="41.902589984102356" lon="15.99648315874967"><ele>248.5</ele><time>2026-03-22T08:34:06.895Z</time></trkpt><trkpt lat="41.902509147616556" lon="15.99643158727498"><ele>248.66666666666669</ele><time>2026-03-22T08:34:09.895Z</time></trkpt><trkpt lat="41.902444197117596" lon="15.996422476891704"><ele>248.83333333333334</ele><time>2026-03-22T08:34:10.895Z</time></trkpt><trkpt lat="41.90231967902397" lon="15.99638377132694"><ele>249.0</ele><time>2026-03-22T08:34:11.895Z</time></trkpt><trkpt lat="41.902206178887916" lon="15.996365276087127"><ele>249.5</ele><time>2026-03-22T08:34:12.895Z</time></trkpt><trkpt lat="41.90209021055783" lon="15.996330682010534"><ele>250.0</ele><time>2026-03-22T08:34:13.895Z</time></trkpt><trkpt lat="41.90197301315864" lon="15.996267480273868"><ele>250.5</ele><time>2026-03-22T08:34:14.895Z</time></trkpt><trkpt lat="41.90184703399101" lon="15.996179652226486"><ele>251.0</ele><time>2026-03-22T08:34:15.895Z</time></trkpt><trkpt lat="41.90173378270002" lon="15.996096947445757"><ele>254.20000000000002</ele><time>2026-03-22T08:34:16.895Z</time></trkpt><trkpt lat="41.90163604140858" lon="15.996027634078688"><ele>257.40000000000003</ele><time>2026-03-22T08:34:17.895Z</time></trkpt><trkpt lat="41.901549256558276" lon="15.996010142240031"><ele>260.6</ele><time>2026-03-22T08:34:18.895Z</time></trkpt><trkpt lat="41.90146398788735" lon="15.996010609596391"><ele>263.8</ele><time>2026-03-22T08:34:19.895Z</time></trkpt><trkpt lat="41.901361307041" lon="15.996006781145184"><ele>267.0</ele><time>2026-03-22T08:34:20.895Z</time></trkpt><trkpt lat="41.901265853717724" lon="15.996018764236336"><ele>267.0</ele><time>2026-03-22T08:34:21.894Z</time></trkpt><trkpt lat="41.901155304081534" lon="15.99604872668306"><ele>267.0</ele><time>2026-03-22T08:34:22.894Z</time></trkpt><trkpt lat="41.901055352975945" lon="15.996093569855498"><ele>267.0</ele><time>2026-03-22T08:34:23.894Z</time></trkpt><trkpt lat="41.90095055937676" lon="15.996170053479423"><ele>267.0</ele><time>2026-03-22T08:34:24.894Z</time></trkpt><trkpt lat="41.90083834413238" lon="15.996264155772366"><ele>269.0</ele><time>2026-03-22T08:34:25.894Z</time></trkpt><trkpt lat="41.9007391813835" lon="15.99640112995616"><ele>271.0</ele><time>2026-03-22T08:34:26.894Z</time></trkpt><trkpt lat="41.90060936315993" lon="15.996551452862157"><ele>273.0</ele><time>2026-03-22T08:34:27.894Z</time></trkpt><trkpt lat="41.90049166286994" lon="15.996673105568949"><ele>273.0</ele><time>2026-03-22T08:34:28.894Z</time></trkpt><trkpt lat="41.90039828939533" lon="15.996752419133758"><ele>273.0</ele><time>2026-03-22T08:34:29.894Z</time></trkpt><trkpt lat="41.900304215669074" lon="15.996806447540274"><ele>273.0</ele><time>2026-03-22T08:34:30.894Z</time></trkpt><trkpt lat="41.90021008891946" lon="15.996844008123896"><ele>273.0</ele><time>2026-03-22T08:34:31.894Z</time></trkpt><trkpt lat="41.9001071281163" lon="15.99684906091776"><ele>273.0</ele><time>2026-03-22T08:34:32.894Z</time></trkpt><trkpt lat="41.90001350515775" lon="15.996832941147872"><ele>273.75</ele><time>2026-03-22T08:34:33.894Z</time></trkpt><trkpt lat="41.899903275065164" lon="15.99678917242014"><ele>274.5</ele><time>2026-03-22T08:34:34.894Z</time></trkpt><trkpt lat="41.89978302807861" lon="15.996725318135343"><ele>275.25</ele><time>2026-03-22T08:34:35.894Z</time></trkpt><trkpt lat="41.89966545896996" lon="15.996665227097816"><ele>276.0</ele><time>2026-03-22T08:34:36.894Z</time></trkpt><trkpt lat="41.89955934440122" lon="15.996591311066851"><ele>275.75</ele><time>2026-03-22T08:34:37.894Z</time></trkpt><trkpt lat="41.899471310012466" lon="15.996513611588304"><ele>275.5</ele><time>2026-03-22T08:34:38.894Z</time></trkpt><trkpt lat="41.89937772851552" lon="15.996411030526968"><ele>275.25</ele><time>2026-03-22T08:34:39.894Z</time></trkpt><trkpt lat="41.89929508140792" lon="15.996275847189539"><ele>275.0</ele><time>2026-03-22T08:34:40.896Z</time></trkpt><trkpt lat="41.89920241001952" lon="15.996147647275148"><ele>275.0</ele><time>2026-03-22T08:34:41.896Z</time></trkpt><trkpt lat="41.89909545451836" lon="15.996046833270666"><ele>275.0</ele><time>2026-03-22T08:34:42.896Z</time></trkpt><trkpt lat="41.89899733060422" lon="15.99596136869856"><ele>275.0</ele><time>2026-03-22T08:34:43.896Z</time></trkpt><trkpt lat="41.8988925357432" lon="15.995881184065192"><ele>275.0</ele><time>2026-03-22T08:34:44.895Z</time></trkpt><trkpt lat="41.89878825738221" lon="15.995792551588663"><ele>274.2</ele><time>2026-03-22T08:34:45.895Z</time></trkpt><trkpt lat="41.898697607166866" lon="15.99571485244383"><ele>273.4</ele><time>2026-03-22T08:34:46.895Z</time></trkpt><trkpt lat="41.89862173745453" lon="15.995632561850108"><ele>272.6</ele><time>2026-03-22T08:34:47.895Z</time></trkpt><trkpt lat="41.89854861150631" lon="15.995521931288598"><ele>271.8</ele><time>2026-03-22T08:34:48.895Z</time></trkpt><trkpt lat="41.898480606107476" lon="15.995389228354925"><ele>271.0</ele><time>2026-03-22T08:34:49.895Z</time></trkpt><trkpt lat="41.898394170495855" lon="15.995290783067151"><ele>267.66666666666663</ele><time>2026-03-22T08:34:50.896Z</time></trkpt><trkpt lat="41.89826845667115" lon="15.99518522362298"><ele>264.3333333333333</ele><time>2026-03-22T08:34:51.896Z</time></trkpt><trkpt lat="41.898094964780846" lon="15.99506242002282"><ele>261.0</ele><time>2026-03-22T08:34:52.895Z</time></trkpt><trkpt lat="41.89791188783514" lon="15.99495814187572"><ele>260.3333333333333</ele><time>2026-03-22T08:34:53.895Z</time></trkpt><trkpt lat="41.89773027512271" lon="15.994855259768288"><ele>259.66666666666663</ele><time>2026-03-22T08:34:54.895Z</time></trkpt><trkpt lat="41.897580842287496" lon="15.994780702217652"><ele>259.0</ele><time>2026-03-22T08:34:55.895Z</time></trkpt><trkpt lat="41.897446751104475" lon="15.994705160513531"><ele>259.0</ele><time>2026-03-22T08:34:56.895Z</time></trkpt><trkpt lat="41.89732328757679" lon="15.994659064222432"><ele>259.0</ele><time>2026-03-22T08:34:57.895Z</time></trkpt><trkpt lat="41.897219880765356" lon="15.994685401106267"><ele>259.0</ele><time>2026-03-22T08:34:58.895Z</time></trkpt><trkpt lat="41.89708043320952" lon="15.994724183477155"><ele>259.0</ele><time>2026-03-22T08:34:59.895Z</time></trkpt><trkpt lat="41.89692492749303" lon="15.99474666183391"><ele>261.3333333333333</ele><time>2026-03-22T08:35:00.895Z</time></trkpt><trkpt lat="41.89674579672186" lon="15.99476177949494"><ele>263.6666666666667</ele><time>2026-03-22T08:35:01.895Z</time></trkpt><trkpt lat="41.89655020369647" lon="15.994770071046709"><ele>266.0</ele><time>2026-03-22T08:35:02.895Z</time></trkpt><trkpt lat="41.89636379692393" lon="15.994793435520178"><ele>266.0</ele><time>2026-03-22T08:35:03.895Z</time></trkpt><trkpt lat="41.89618067283683" lon="15.994835342004919"><ele>266.0</ele><time>2026-03-22T08:35:04.895Z</time></trkpt><trkpt lat="41.895959574844696" lon="15.99489764208512"><ele>266.0</ele><time>2026-03-22T08:35:05.895Z</time></trkpt><trkpt lat="41.89574527390978" lon="15.994951040466862"><ele>265.6666666666667</ele><time>2026-03-22T08:35:06.895Z</time></trkpt><trkpt lat="41.895537210675066" lon="15.995001505888553"><ele>265.3333333333333</ele><time>2026-03-22T08:35:07.895Z</time></trkpt><trkpt lat="41.895373380931616" lon="15.995035889343429"><ele>265.0</ele><time>2026-03-22T08:35:08.895Z</time></trkpt><trkpt lat="41.89521274765809" lon="15.995040473543575"><ele>265.75</ele><time>2026-03-22T08:35:09.895Z</time></trkpt><trkpt lat="41.89507335408054" lon="15.99503138937867"><ele>266.5</ele><time>2026-03-22T08:35:10.895Z</time></trkpt><trkpt lat="41.89494977903385" lon="15.99502104720977"><ele>267.25</ele><time>2026-03-22T08:35:11.895Z</time></trkpt><trkpt lat="41.8948445051732" lon="15.994966307847319"><ele>268.0</ele><time>2026-03-22T08:35:12.895Z</time></trkpt><trkpt lat="41.894711995888294" lon="15.994889441293392"><ele>271.3333333333333</ele><time>2026-03-22T08:35:13.895Z</time></trkpt><trkpt lat="41.89456926928149" lon="15.994793148501344"><ele>274.6666666666667</ele><time>2026-03-22T08:35:14.895Z</time></trkpt><trkpt lat="41.89441970764528" lon="15.994703671021329"><ele>278.0</ele><time>2026-03-22T08:35:15.895Z</time></trkpt><trkpt lat="41.89424149695163" lon="15.994607164231505"><ele>283.0</ele><time>2026-03-22T08:35:16.895Z</time></trkpt><trkpt lat="41.894094667461765" lon="15.994520846380668"><ele>288.0</ele><time>2026-03-22T08:35:17.895Z</time></trkpt><trkpt lat="41.89397577649116" lon="15.994441885204091"><ele>293.0</ele><time>2026-03-22T08:35:18.895Z</time></trkpt><trkpt lat="41.89383244281968" lon="15.994334306925582"><ele>293.0</ele><time>2026-03-22T08:35:19.895Z</time></trkpt><trkpt lat="41.893695096004784" lon="15.994227816629166"><ele>293.0</ele><time>2026-03-22T08:35:20.895Z</time></trkpt><trkpt lat="41.8935461424951" lon="15.994128894261106"><ele>293.0</ele><time>2026-03-22T08:35:21.895Z</time></trkpt><trkpt lat="41.89338770000552" lon="15.994038306473215"><ele>292.25</ele><time>2026-03-22T08:35:22.895Z</time></trkpt><trkpt lat="41.89324223159207" lon="15.993947717609014"><ele>291.5</ele><time>2026-03-22T08:35:23.895Z</time></trkpt><trkpt lat="41.89312075834005" lon="15.993870032663278"><ele>290.75</ele><time>2026-03-22T08:35:24.894Z</time></trkpt><trkpt lat="41.893015237524615" lon="15.993837564760845"><ele>290.0</ele><time>2026-03-22T08:35:25.894Z</time></trkpt><trkpt lat="41.892938402720105" lon="15.993817863619354"><ele>290.0</ele><time>2026-03-22T08:35:26.894Z</time></trkpt><trkpt lat="41.892825006098484" lon="15.993798359233043"><ele>290.0</ele><time>2026-03-22T08:35:28.894Z</time></trkpt><trkpt lat="41.892762017197846" lon="15.993798390817323"><ele>290.0</ele><time>2026-03-22T08:35:29.894Z</time></trkpt><trkpt lat="41.89270139006943" lon="15.993832707900598"><ele>290.0</ele><time>2026-03-22T08:35:31.894Z</time></trkpt><trkpt lat="41.892616885628996" lon="15.993834387835577"><ele>290.0</ele><time>2026-03-22T08:35:33.894Z</time></trkpt><trkpt lat="41.892540145014394" lon="15.993856987727316"><ele>290.0</ele><time>2026-03-22T08:35:34.894Z</time></trkpt><trkpt lat="41.89245749166634" lon="15.99388768005252"><ele>289.25</ele><time>2026-03-22T08:35:35.894Z</time></trkpt><trkpt lat="41.89232691599606" lon="15.993886569365003"><ele>288.5</ele><time>2026-03-22T08:35:36.894Z</time></trkpt><trkpt lat="41.89217587303637" lon="15.993895115622728"><ele>287.75</ele><time>2026-03-22T08:35:37.894Z</time></trkpt><trkpt lat="41.8920500848572" lon="15.993897665523326"><ele>287.0</ele><time>2026-03-22T08:35:38.894Z</time></trkpt><trkpt lat="41.89196985382971" lon="15.993885344109259"><ele>287.0</ele><time>2026-03-22T08:35:39.894Z</time></trkpt><trkpt lat="41.89190551534594" lon="15.993880071086304"><ele>287.0</ele><time>2026-03-22T08:35:53.894Z</time></trkpt><trkpt lat="41.89183943394865" lon="15.993896771622175"><ele>287.0</ele><time>2026-03-22T08:35:55.894Z</time></trkpt><trkpt lat="41.891774829796674" lon="15.993887324670428"><ele>287.0</ele><time>2026-03-22T08:35:56.893Z</time></trkpt><trkpt lat="41.891667541990735" lon="15.993871011164309"><ele>287.0</ele><time>2026-03-22T08:35:57.893Z</time></trkpt><trkpt lat="41.89155652728492" lon="15.993861750763088"><ele>287.0</ele><time>2026-03-22T08:35:58.893Z</time></trkpt><trkpt lat="41.89143791379257" lon="15.993847676123032"><ele>289.5</ele><time>2026-03-22T08:35:59.893Z</time></trkpt><trkpt lat="41.89131067585986" lon="15.993863464869921"><ele>292.0</ele><time>2026-03-22T08:36:00.893Z</time></trkpt><trkpt lat="41.891165213869265" lon="15.993878683063214"><ele>294.5</ele><time>2026-03-22T08:36:01.893Z</time></trkpt><trkpt lat="41.89100239376733" lon="15.993897071767352"><ele>297.0</ele><time>2026-03-22T08:36:02.893Z</time></trkpt><trkpt lat="41.89086118440901" lon="15.993941570912503"><ele>298.75</ele><time>2026-03-22T08:36:03.893Z</time></trkpt><trkpt lat="41.89072339258412" lon="15.993984679331373"><ele>300.5</ele><time>2026-03-22T08:36:04.893Z</time></trkpt><trkpt lat="41.89057863977972" lon="15.994034012749719"><ele>302.25</ele><time>2026-03-22T08:36:05.893Z</time></trkpt><trkpt lat="41.8904369933573" lon="15.994053254328554"><ele>304.0</ele><time>2026-03-22T08:36:06.893Z</time></trkpt><trkpt lat="41.89027540870678" lon="15.994018293162657"><ele>304.0</ele><time>2026-03-22T08:36:07.893Z</time></trkpt><trkpt lat="41.89010989751923" lon="15.99398644342345"><ele>304.0</ele><time>2026-03-22T08:36:08.893Z</time></trkpt><trkpt lat="41.88994027882714" lon="15.99394893633128"><ele>304.0</ele><time>2026-03-22T08:36:09.893Z</time></trkpt><trkpt lat="41.88976997752996" lon="15.993937045712608"><ele>305.0</ele><time>2026-03-22T08:36:10.893Z</time></trkpt><trkpt lat="41.88960430945952" lon="15.993923197436994"><ele>306.0</ele><time>2026-03-22T08:36:11.893Z</time></trkpt><trkpt lat="41.88944842241744" lon="15.993951368021188"><ele>307.0</ele><time>2026-03-22T08:36:12.893Z</time></trkpt><trkpt lat="41.88932583956634" lon="15.993992681216843"><ele>309.0</ele><time>2026-03-22T08:36:13.893Z</time></trkpt><trkpt lat="41.88920735053825" lon="15.994009691923953"><ele>311.0</ele><time>2026-03-22T08:36:14.893Z</time></trkpt><trkpt lat="41.889082556013236" lon="15.99400095702847"><ele>313.0</ele><time>2026-03-22T08:36:15.893Z</time></trkpt><trkpt lat="41.888937878397186" lon="15.994011286663323"><ele>315.0</ele><time>2026-03-22T08:36:16.893Z</time></trkpt><trkpt lat="41.88879754366003" lon="15.994030805226744"><ele>315.0</ele><time>2026-03-22T08:36:17.893Z</time></trkpt><trkpt lat="41.888639690191724" lon="15.99405450589988"><ele>315.0</ele><time>2026-03-22T08:36:18.893Z</time></trkpt><trkpt lat="41.888480508645856" lon="15.994082488590958"><ele>315.0</ele><time>2026-03-22T08:36:19.893Z</time></trkpt><trkpt lat="41.888297354965815" lon="15.994103886129592"><ele>318.3333333333333</ele><time>2026-03-22T08:36:20.893Z</time></trkpt><trkpt lat="41.88810599032491" lon="15.994111469903112"><ele>321.66666666666663</ele><time>2026-03-22T08:36:21.893Z</time></trkpt><trkpt lat="41.88793875728348" lon="15.9941067101604"><ele>325.0</ele><time>2026-03-22T08:36:22.893Z</time></trkpt><trkpt lat="41.88778460076507" lon="15.994106338385281"><ele>325.0</ele><time>2026-03-22T08:36:23.893Z</time></trkpt><trkpt lat="41.88765301949801" lon="15.994112741974405"><ele>325.0</ele><time>2026-03-22T08:36:24.893Z</time></trkpt><trkpt lat="41.887526145977944" lon="15.994147721994416"><ele>325.0</ele><time>2026-03-22T08:36:25.893Z</time></trkpt><trkpt lat="41.887386477466904" lon="15.994214244732131"><ele>325.0</ele><time>2026-03-22T08:36:26.893Z</time></trkpt><trkpt lat="41.88722202952215" lon="15.994307798389224"><ele>325.0</ele><time>2026-03-22T08:36:27.893Z</time></trkpt><trkpt lat="41.88706476468354" lon="15.994367553612708"><ele>325.0</ele><time>2026-03-22T08:36:28.892Z</time></trkpt><trkpt lat="41.88692942841116" lon="15.99439673295231"><ele>325.0</ele><time>2026-03-22T08:36:29.892Z</time></trkpt><trkpt lat="41.886802104774844" lon="15.994398472135213"><ele>325.0</ele><time>2026-03-22T08:36:30.892Z</time></trkpt><trkpt lat="41.88666823908843" lon="15.994385563030306"><ele>325.5</ele><time>2026-03-22T08:36:31.892Z</time></trkpt><trkpt lat="41.88654225755966" lon="15.994401704664302"><ele>326.0</ele><time>2026-03-22T08:36:32.892Z</time></trkpt><trkpt lat="41.88641959862932" lon="15.994451955350664"><ele>326.5</ele><time>2026-03-22T08:36:33.892Z</time></trkpt><trkpt lat="41.88626329130756" lon="15.994552040072755"><ele>327.0</ele><time>2026-03-22T08:36:34.892Z</time></trkpt><trkpt lat="41.88605376863022" lon="15.994652943751873"><ele>332.0</ele><time>2026-03-22T08:36:35.892Z</time></trkpt><trkpt lat="41.88588480778291" lon="15.99472754339419"><ele>337.0</ele><time>2026-03-22T08:36:36.892Z</time></trkpt><trkpt lat="41.88571043276511" lon="15.994822744275293"><ele>342.0</ele><time>2026-03-22T08:36:37.892Z</time></trkpt><trkpt lat="41.88558173555564" lon="15.994941138357227"><ele>341.0</ele><time>2026-03-22T08:36:38.892Z</time></trkpt><trkpt lat="41.88543112982867" lon="15.995020019157902"><ele>340.0</ele><time>2026-03-22T08:36:39.892Z</time></trkpt><trkpt lat="41.88528936533819" lon="15.995085648989628"><ele>339.0</ele><time>2026-03-22T08:36:40.892Z</time></trkpt><trkpt lat="41.88511236224804" lon="15.995091846071022"><ele>344.3333333333333</ele><time>2026-03-22T08:36:41.892Z</time></trkpt><trkpt lat="41.884941984670526" lon="15.995098952309005"><ele>349.66666666666663</ele><time>2026-03-22T08:36:42.892Z</time></trkpt><trkpt lat="41.884781485887174" lon="15.995101016873914"><ele>355.0</ele><time>2026-03-22T08:36:43.892Z</time></trkpt><trkpt lat="41.88462889405562" lon="15.995109015078853"><ele>355.0</ele><time>2026-03-22T08:36:44.892Z</time></trkpt><trkpt lat="41.88449333606742" lon="15.995125764804271"><ele>355.0</ele><time>2026-03-22T08:36:45.892Z</time></trkpt><trkpt lat="41.884381190727765" lon="15.995129534312529"><ele>355.0</ele><time>2026-03-22T08:36:46.894Z</time></trkpt><trkpt lat="41.88429686673479" lon="15.995112146793353"><ele>355.0</ele><time>2026-03-22T08:36:47.894Z</time></trkpt><trkpt lat="41.884171808126844" lon="15.99508037915051"><ele>354.0</ele><time>2026-03-22T08:36:48.894Z</time></trkpt><trkpt lat="41.88405198596064" lon="15.995007489957988"><ele>353.0</ele><time>2026-03-22T08:36:49.894Z</time></trkpt><trkpt lat="41.883916110711155" lon="15.99493810245565"><ele>352.0</ele><time>2026-03-22T08:36:50.894Z</time></trkpt><trkpt lat="41.8838151869582" lon="15.994900608586123"><ele>351.0</ele><time>2026-03-22T08:36:51.894Z</time></trkpt><trkpt lat="41.883713186953585" lon="15.994881702218322"><ele>353.0</ele><time>2026-03-22T08:36:52.894Z</time></trkpt><trkpt lat="41.88358677612816" lon="15.994904262662791"><ele>355.0</ele><time>2026-03-22T08:36:53.894Z</time></trkpt><trkpt lat="41.88341988519903" lon="15.994917252952018"><ele>357.0</ele><time>2026-03-22T08:36:54.894Z</time></trkpt><trkpt lat="41.883286055021266" lon="15.994910010555596"><ele>359.0</ele><time>2026-03-22T08:36:55.894Z</time></trkpt><trkpt lat="41.88315268579267" lon="15.994842161743598"><ele>360.0</ele><time>2026-03-22T08:36:56.894Z</time></trkpt><trkpt lat="41.882992224145475" lon="15.99478095554894"><ele>361.0</ele><time>2026-03-22T08:36:57.894Z</time></trkpt><trkpt lat="41.88286593613339" lon="15.994738846540837"><ele>362.0</ele><time>2026-03-22T08:36:58.893Z</time></trkpt><trkpt lat="41.882754277805525" lon="15.994715741484999"><ele>363.0</ele><time>2026-03-22T08:36:59.893Z</time></trkpt><trkpt lat="41.882629897344984" lon="15.994692576525894"><ele>365.0</ele><time>2026-03-22T08:37:00.893Z</time></trkpt><trkpt lat="41.88250834962521" lon="15.99467265439812"><ele>367.0</ele><time>2026-03-22T08:37:01.893Z</time></trkpt><trkpt lat="41.88234878418726" lon="15.99465295184933"><ele>369.0</ele><time>2026-03-22T08:37:02.893Z</time></trkpt><trkpt lat="41.88217573100962" lon="15.994624851978047"><ele>369.0</ele><time>2026-03-22T08:37:03.893Z</time></trkpt><trkpt lat="41.881967665339516" lon="15.99458042502275"><ele>369.0</ele><time>2026-03-22T08:37:04.893Z</time></trkpt><trkpt lat="41.88176871140086" lon="15.994550308772004"><ele>369.0</ele><time>2026-03-22T08:37:05.893Z</time></trkpt><trkpt lat="41.88159109423477" lon="15.994529276473138"><ele>372.5</ele><time>2026-03-22T08:37:06.893Z</time></trkpt><trkpt lat="41.88144455117507" lon="15.994508514506313"><ele>376.0</ele><time>2026-03-22T08:37:07.893Z</time></trkpt><trkpt lat="41.88129542552165" lon="15.994472502363923"><ele>379.5</ele><time>2026-03-22T08:37:08.893Z</time></trkpt><trkpt lat="41.881152109078485" lon="15.994434777701487"><ele>383.0</ele><time>2026-03-22T08:37:09.893Z</time></trkpt><trkpt lat="41.88098435300706" lon="15.994385874652597"><ele>388.0</ele><time>2026-03-22T08:37:10.893Z</time></trkpt><trkpt lat="41.88080610044456" lon="15.994326587328407"><ele>393.0</ele><time>2026-03-22T08:37:11.893Z</time></trkpt><trkpt lat="41.88065904727658" lon="15.99425007697052"><ele>398.0</ele><time>2026-03-22T08:37:12.893Z</time></trkpt><trkpt lat="41.880521541632625" lon="15.994157377352817"><ele>398.0</ele><time>2026-03-22T08:37:13.893Z</time></trkpt><trkpt lat="41.88038473335123" lon="15.994091462402293"><ele>398.0</ele><time>2026-03-22T08:37:14.893Z</time></trkpt><trkpt lat="41.88026338000549" lon="15.994050013388517"><ele>398.0</ele><time>2026-03-22T08:37:15.893Z</time></trkpt><trkpt lat="41.8801586806797" lon="15.994031459649"><ele>398.0</ele><time>2026-03-22T08:37:16.893Z</time></trkpt><trkpt lat="41.88003413000718" lon="15.994025249975278"><ele>403.25</ele><time>2026-03-22T08:37:17.893Z</time></trkpt><trkpt lat="41.879891247184524" lon="15.993971104851044"><ele>408.5</ele><time>2026-03-22T08:37:18.893Z</time></trkpt><trkpt lat="41.87976334045215" lon="15.99387939476009"><ele>413.75</ele><time>2026-03-22T08:37:19.893Z</time></trkpt><trkpt lat="41.87963870079468" lon="15.993788976436376"><ele>419.0</ele><time>2026-03-22T08:37:20.893Z</time></trkpt><trkpt lat="41.87951884195063" lon="15.993704858657352"><ele>419.0</ele><time>2026-03-22T08:37:21.893Z</time></trkpt><trkpt lat="41.879410635412476" lon="15.993640634396725"><ele>419.0</ele><time>2026-03-22T08:37:22.893Z</time></trkpt><trkpt lat="41.87933645213461" lon="15.993574274931014"><ele>419.0</ele><time>2026-03-22T08:37:23.893Z</time></trkpt><trkpt lat="41.87926851199793" lon="15.993477907735596"><ele>419.0</ele><time>2026-03-22T08:37:25.893Z</time></trkpt><trkpt lat="41.87924313077031" lon="15.993371991813842"><ele>419.0</ele><time>2026-03-22T08:37:26.893Z</time></trkpt><trkpt lat="41.87920386858371" lon="15.993210614758778"><ele>421.75</ele><time>2026-03-22T08:37:27.893Z</time></trkpt><trkpt lat="41.87914756210021" lon="15.993072706076903"><ele>424.5</ele><time>2026-03-22T08:37:28.893Z</time></trkpt><trkpt lat="41.87907553379117" lon="15.992964390913237"><ele>427.25</ele><time>2026-03-22T08:37:29.892Z</time></trkpt><trkpt lat="41.878978119987266" lon="15.992896856594804"><ele>430.0</ele><time>2026-03-22T08:37:30.892Z</time></trkpt><trkpt lat="41.87887271661441" lon="15.99278158768474"><ele>430.0</ele><time>2026-03-22T08:37:31.892Z</time></trkpt><trkpt lat="41.878779966306716" lon="15.99263367694977"><ele>430.0</ele><time>2026-03-22T08:37:32.892Z</time></trkpt><trkpt lat="41.878664513937416" lon="15.992497376371718"><ele>430.0</ele><time>2026-03-22T08:37:33.892Z</time></trkpt><trkpt lat="41.87854759351142" lon="15.99237794492126"><ele>430.0</ele><time>2026-03-22T08:37:34.892Z</time></trkpt><trkpt lat="41.878436860677006" lon="15.99223808272279"><ele>433.25</ele><time>2026-03-22T08:37:35.892Z</time></trkpt><trkpt lat="41.87833960477574" lon="15.992137729460493"><ele>436.5</ele><time>2026-03-22T08:37:36.892Z</time></trkpt><trkpt lat="41.87823475939945" lon="15.992050268147112"><ele>439.75</ele><time>2026-03-22T08:37:37.892Z</time></trkpt><trkpt lat="41.87814774272034" lon="15.99197021378811"><ele>443.0</ele><time>2026-03-22T08:37:38.892Z</time></trkpt><trkpt lat="41.87803858555144" lon="15.991908441493168"><ele>443.0</ele><time>2026-03-22T08:37:39.892Z</time></trkpt><trkpt lat="41.877924337373464" lon="15.991844009400513"><ele>443.0</ele><time>2026-03-22T08:37:40.892Z</time></trkpt><trkpt lat="41.87779075011939" lon="15.991773804521499"><ele>443.0</ele><time>2026-03-22T08:37:41.892Z</time></trkpt><trkpt lat="41.877663787735415" lon="15.991715592685434"><ele>443.0</ele><time>2026-03-22T08:37:42.892Z</time></trkpt><trkpt lat="41.87758343209935" lon="15.991677979523928"><ele>444.5</ele><time>2026-03-22T08:37:43.892Z</time></trkpt><trkpt lat="41.877482481243945" lon="15.991643520965054"><ele>446.0</ele><time>2026-03-22T08:37:44.892Z</time></trkpt><trkpt lat="41.87736924477347" lon="15.991614788649148"><ele>447.5</ele><time>2026-03-22T08:37:45.892Z</time></trkpt><trkpt lat="41.87725461433444" lon="15.99159758613181"><ele>449.0</ele><time>2026-03-22T08:37:46.892Z</time></trkpt><trkpt lat="41.87713213050511" lon="15.991608059704603"><ele>449.0</ele><time>2026-03-22T08:37:47.892Z</time></trkpt><trkpt lat="41.87699774703503" lon="15.991625494438885"><ele>449.0</ele><time>2026-03-22T08:37:48.892Z</time></trkpt><trkpt lat="41.87686986591603" lon="15.991660942003826"><ele>449.0</ele><time>2026-03-22T08:37:49.892Z</time></trkpt><trkpt lat="41.87672345522311" lon="15.991717320393928"><ele>449.0</ele><time>2026-03-22T08:37:50.892Z</time></trkpt><trkpt lat="41.87659454425471" lon="15.991745960600198"><ele>448.25</ele><time>2026-03-22T08:37:51.892Z</time></trkpt><trkpt lat="41.87649711070088" lon="15.99175651175295"><ele>447.5</ele><time>2026-03-22T08:37:52.892Z</time></trkpt><trkpt lat="41.87639029775919" lon="15.9917763980587"><ele>446.75</ele><time>2026-03-22T08:37:53.892Z</time></trkpt><trkpt lat="41.87626908423277" lon="15.991853400199386"><ele>446.0</ele><time>2026-03-22T08:37:54.892Z</time></trkpt><trkpt lat="41.87615230879302" lon="15.991944298559131"><ele>446.0</ele><time>2026-03-22T08:37:55.892Z</time></trkpt><trkpt lat="41.87596878753264" lon="15.992027269565211"><ele>446.0</ele><time>2026-03-22T08:37:56.892Z</time></trkpt><trkpt lat="41.87580784104291" lon="15.992122121140296"><ele>446.0</ele><time>2026-03-22T08:37:57.892Z</time></trkpt><trkpt lat="41.87569196740561" lon="15.992192546808115"><ele>451.0</ele><time>2026-03-22T08:37:58.892Z</time></trkpt><trkpt lat="41.87557003882898" lon="15.992233566771509"><ele>456.0</ele><time>2026-03-22T08:37:59.892Z</time></trkpt><trkpt lat="41.875441441272535" lon="15.992273223686187"><ele>461.0</ele><time>2026-03-22T08:38:00.892Z</time></trkpt><trkpt lat="41.875286039231845" lon="15.99229602041951"><ele>466.0</ele><time>2026-03-22T08:38:01.891Z</time></trkpt><trkpt lat="41.8751478457549" lon="15.9923069910504"><ele>465.25</ele><time>2026-03-22T08:38:02.891Z</time></trkpt><trkpt lat="41.87500681377264" lon="15.992298840951648"><ele>464.5</ele><time>2026-03-22T08:38:03.891Z</time></trkpt><trkpt lat="41.87487090155574" lon="15.9922718532045"><ele>463.75</ele><time>2026-03-22T08:38:04.891Z</time></trkpt><trkpt lat="41.87472844899172" lon="15.992201845906603"><ele>463.0</ele><time>2026-03-22T08:38:05.891Z</time></trkpt><trkpt lat="41.874588225750365" lon="15.99207941667264"><ele>463.0</ele><time>2026-03-22T08:38:06.891Z</time></trkpt><trkpt lat="41.87442978058888" lon="15.991973145471876"><ele>463.0</ele><time>2026-03-22T08:38:07.891Z</time></trkpt><trkpt lat="41.87428010209264" lon="15.991887996557566"><ele>463.0</ele><time>2026-03-22T08:38:08.891Z</time></trkpt><trkpt lat="41.87414231020567" lon="15.991823424534408"><ele>462.2</ele><time>2026-03-22T08:38:09.891Z</time></trkpt><trkpt lat="41.874041758645305" lon="15.991797309841967"><ele>461.4</ele><time>2026-03-22T08:38:10.891Z</time></trkpt><trkpt lat="41.87394350526314" lon="15.99176877972779"><ele>460.59999999999997</ele><time>2026-03-22T08:38:11.891Z</time></trkpt><trkpt lat="41.87383814809248" lon="15.991777476095132"><ele>459.79999999999995</ele><time>2026-03-22T08:38:12.891Z</time></trkpt><trkpt lat="41.87371142140485" lon="15.991798457992818"><ele>459.0</ele><time>2026-03-22T08:38:13.891Z</time></trkpt><trkpt lat="41.873553310626114" lon="15.991811085712344"><ele>459.33333333333337</ele><time>2026-03-22T08:38:14.891Z</time></trkpt><trkpt lat="41.87339829721024" lon="15.991827551490609"><ele>459.6666666666667</ele><time>2026-03-22T08:38:15.891Z</time></trkpt><trkpt lat="41.873206670164635" lon="15.991842008552888"><ele>460.0</ele><time>2026-03-22T08:38:16.891Z</time></trkpt><trkpt lat="41.87301133190727" lon="15.991865801470496"><ele>460.0</ele><time>2026-03-22T08:38:17.891Z</time></trkpt><trkpt lat="41.8728114132648" lon="15.991881567361299"><ele>460.0</ele><time>2026-03-22T08:38:18.891Z</time></trkpt><trkpt lat="41.87264085685979" lon="15.991891713937793"><ele>460.0</ele><time>2026-03-22T08:38:19.891Z</time></trkpt><trkpt lat="41.87250301409607" lon="15.991892637337322"><ele>466.33333333333337</ele><time>2026-03-22T08:38:20.891Z</time></trkpt><trkpt lat="41.87234606163368" lon="15.991994096842948"><ele>472.66666666666663</ele><time>2026-03-22T08:38:21.891Z</time></trkpt><trkpt lat="41.87220237036874" lon="15.992070258601263"><ele>479.0</ele><time>2026-03-22T08:38:22.891Z</time></trkpt><trkpt lat="41.87204350665643" lon="15.992133637542377"><ele>479.0</ele><time>2026-03-22T08:38:23.891Z</time></trkpt><trkpt lat="41.87189920730443" lon="15.992177328898096"><ele>479.0</ele><time>2026-03-22T08:38:24.891Z</time></trkpt><trkpt lat="41.87176075379919" lon="15.992197391328068"><ele>479.0</ele><time>2026-03-22T08:38:25.891Z</time></trkpt><trkpt lat="41.87163145485675" lon="15.99219568955513"><ele>479.0</ele><time>2026-03-22T08:38:26.891Z</time></trkpt><trkpt lat="41.871511518825706" lon="15.992169050690373"><ele>482.3333333333333</ele><time>2026-03-22T08:38:27.891Z</time></trkpt><trkpt lat="41.87137652554178" lon="15.992113484944179"><ele>485.66666666666663</ele><time>2026-03-22T08:38:28.891Z</time></trkpt><trkpt lat="41.8712102308109" lon="15.992055118799378"><ele>489.0</ele><time>2026-03-22T08:38:29.891Z</time></trkpt><trkpt lat="41.871043016271685" lon="15.992038887372377"><ele>492.0</ele><time>2026-03-22T08:38:30.891Z</time></trkpt><trkpt lat="41.870896225074326" lon="15.992072114070584"><ele>495.0</ele><time>2026-03-22T08:38:31.891Z</time></trkpt><trkpt lat="41.870755122560325" lon="15.992140621298567"><ele>498.0</ele><time>2026-03-22T08:38:32.891Z</time></trkpt><trkpt lat="41.87057708037795" lon="15.992147629840055"><ele>498.0</ele><time>2026-03-22T08:38:33.89Z</time></trkpt><trkpt lat="41.87038871637127" lon="15.99212832341912"><ele>498.0</ele><time>2026-03-22T08:38:34.89Z</time></trkpt><trkpt lat="41.870222200208424" lon="15.992099664005293"><ele>498.0</ele><time>2026-03-22T08:38:35.89Z</time></trkpt><trkpt lat="41.8700913555863" lon="15.992061655620066"><ele>498.0</ele><time>2026-03-22T08:38:36.89Z</time></trkpt><trkpt lat="41.86995798591229" lon="15.99203411015229"><ele>498.0</ele><time>2026-03-22T08:38:37.89Z</time></trkpt><trkpt lat="41.869826071144" lon="15.991970013291446"><ele>498.0</ele><time>2026-03-22T08:38:38.89Z</time></trkpt><trkpt lat="41.869687554186456" lon="15.991868905522688"><ele>498.0</ele><time>2026-03-22T08:38:39.89Z</time></trkpt><trkpt lat="41.86951907546576" lon="15.99174500210793"><ele>501.0</ele><time>2026-03-22T08:38:40.89Z</time></trkpt><trkpt lat="41.86933295844109" lon="15.991638844079855"><ele>504.0</ele><time>2026-03-22T08:38:41.89Z</time></trkpt><trkpt lat="41.86918284817343" lon="15.99159580067283"><ele>507.0</ele><time>2026-03-22T08:38:42.89Z</time></trkpt><trkpt lat="41.86908154631351" lon="15.991595570351175"><ele>507.0</ele><time>2026-03-22T08:38:43.89Z</time></trkpt><trkpt lat="41.86895512346816" lon="15.991621370099388"><ele>507.0</ele><time>2026-03-22T08:38:44.89Z</time></trkpt><trkpt lat="41.868815200276906" lon="15.99168832901369"><ele>507.0</ele><time>2026-03-22T08:38:45.89Z</time></trkpt><trkpt lat="41.86863403094203" lon="15.991755636430957"><ele>506.0</ele><time>2026-03-22T08:38:46.89Z</time></trkpt><trkpt lat="41.86846403300611" lon="15.991815423577327"><ele>505.0</ele><time>2026-03-22T08:38:47.89Z</time></trkpt><trkpt lat="41.86829273942806" lon="15.991859898193805"><ele>504.0</ele><time>2026-03-22T08:38:48.89Z</time></trkpt><trkpt lat="41.868127622779845" lon="15.991889834449676"><ele>504.0</ele><time>2026-03-22T08:38:49.89Z</time></trkpt><trkpt lat="41.86795517194859" lon="15.991925957823188"><ele>504.0</ele><time>2026-03-22T08:38:50.89Z</time></trkpt><trkpt lat="41.86780977491341" lon="15.991977275873825"><ele>504.0</ele><time>2026-03-22T08:38:51.892Z</time></trkpt><trkpt lat="41.867653057560844" lon="15.992039212811063"><ele>506.0</ele><time>2026-03-22T08:38:52.892Z</time></trkpt><trkpt lat="41.867524261728896" lon="15.992117997282453"><ele>508.0</ele><time>2026-03-22T08:38:53.892Z</time></trkpt><trkpt lat="41.86740642807787" lon="15.992161758311012"><ele>510.0</ele><time>2026-03-22T08:38:54.893Z</time></trkpt><trkpt lat="41.86729533826026" lon="15.99216977966224"><ele>512.0</ele><time>2026-03-22T08:38:55.892Z</time></trkpt><trkpt lat="41.867172617114115" lon="15.992134957418733"><ele>512.0</ele><time>2026-03-22T08:38:56.892Z</time></trkpt><trkpt lat="41.867037958814365" lon="15.992079367262571"><ele>512.0</ele><time>2026-03-22T08:38:57.892Z</time></trkpt><trkpt lat="41.86689740728926" lon="15.992023029836247"><ele>512.0</ele><time>2026-03-22T08:38:58.892Z</time></trkpt><trkpt lat="41.866742394928686" lon="15.991994459530368"><ele>512.0</ele><time>2026-03-22T08:38:59.892Z</time></trkpt><trkpt lat="41.8665742305484" lon="15.99195857582491"><ele>518.6666666666666</ele><time>2026-03-22T08:39:00.892Z</time></trkpt><trkpt lat="41.8664059049252" lon="15.991910387320432"><ele>525.3333333333334</ele><time>2026-03-22T08:39:01.892Z</time></trkpt><trkpt lat="41.86625255643358" lon="15.991861291416472"><ele>532.0</ele><time>2026-03-22T08:39:02.892Z</time></trkpt><trkpt lat="41.86611098735277" lon="15.991822305013065"><ele>532.0</ele><time>2026-03-22T08:39:03.892Z</time></trkpt><trkpt lat="41.86596365549132" lon="15.991803026020676"><ele>532.0</ele><time>2026-03-22T08:39:04.891Z</time></trkpt><trkpt lat="41.86581258097306" lon="15.991797065597208"><ele>532.0</ele><time>2026-03-22T08:39:05.891Z</time></trkpt><trkpt lat="41.86568966511135" lon="15.99180304285884"><ele>532.0</ele><time>2026-03-22T08:39:06.891Z</time></trkpt><trkpt lat="41.86557005545652" lon="15.991790176596426"><ele>534.2</ele><time>2026-03-22T08:39:07.891Z</time></trkpt><trkpt lat="41.86541769886545" lon="15.99177147169102"><ele>536.4000000000001</ele><time>2026-03-22T08:39:08.891Z</time></trkpt><trkpt lat="41.865306340502784" lon="15.991769199279346"><ele>538.5999999999999</ele><time>2026-03-22T08:39:09.891Z</time></trkpt><trkpt lat="41.86522338686791" lon="15.991794652703806"><ele>540.8</ele><time>2026-03-22T08:39:10.891Z</time></trkpt><trkpt lat="41.86514704380621" lon="15.991840297786666"><ele>543.0</ele><time>2026-03-22T08:39:11.891Z</time></trkpt><trkpt lat="41.865072570237906" lon="15.991921488869268"><ele>543.0</ele><time>2026-03-22T08:39:12.891Z</time></trkpt><trkpt lat="41.86501411250302" lon="15.991959239432175"><ele>543.0</ele><time>2026-03-22T08:39:13.891Z</time></trkpt><trkpt lat="41.86494764593289" lon="15.991958516866362"><ele>543.0</ele><time>2026-03-22T08:39:14.891Z</time></trkpt><trkpt lat="41.86485690440382" lon="15.99188717507695"><ele>543.0</ele><time>2026-03-22T08:39:15.891Z</time></trkpt><trkpt lat="41.864753235808266" lon="15.991814123993763"><ele>543.0</ele><time>2026-03-22T08:39:16.891Z</time></trkpt><trkpt lat="41.86465689132351" lon="15.991718064466635"><ele>543.0</ele><time>2026-03-22T08:39:17.891Z</time></trkpt><trkpt lat="41.86457874521988" lon="15.991676033216272"><ele>543.0</ele><time>2026-03-22T08:39:18.891Z</time></trkpt><trkpt lat="41.86450379099499" lon="15.991661652997736"><ele>543.0</ele><time>2026-03-22T08:39:19.891Z</time></trkpt><trkpt lat="41.86443023600284" lon="15.99164208017391"><ele>543.0</ele><time>2026-03-22T08:39:20.891Z</time></trkpt><trkpt lat="41.86435355098857" lon="15.991601023530668"><ele>543.0</ele><time>2026-03-22T08:39:22.891Z</time></trkpt><trkpt lat="41.8642871341815" lon="15.991552969609103"><ele>543.0</ele><time>2026-03-22T08:40:28.889Z</time></trkpt><trkpt lat="41.864220551511764" lon="15.991458686864666"><ele>549.0</ele><time>2026-03-22T08:40:39.889Z</time></trkpt><trkpt lat="41.864168781897234" lon="15.991303515209436"><ele>555.0</ele><time>2026-03-22T08:40:41.888Z</time></trkpt><trkpt lat="41.86410205438503" lon="15.991181334749065"><ele>561.0</ele><time>2026-03-22T08:40:42.888Z</time></trkpt><trkpt lat="41.86401607183831" lon="15.990993437078657"><ele>567.0</ele><time>2026-03-22T08:40:43.888Z</time></trkpt><trkpt lat="41.86393786123176" lon="15.990802382618572"><ele>567.0</ele><time>2026-03-22T08:40:44.888Z</time></trkpt><trkpt lat="41.863841064246145" lon="15.990559644702186"><ele>567.0</ele><time>2026-03-22T08:40:45.888Z</time></trkpt><trkpt lat="41.863752335718175" lon="15.990286774847013"><ele>567.0</ele><time>2026-03-22T08:40:46.888Z</time></trkpt><trkpt lat="41.863685899731244" lon="15.990028470017705"><ele>563.3333333333334</ele><time>2026-03-22T08:40:47.888Z</time></trkpt><trkpt lat="41.863637875049655" lon="15.989816138498398"><ele>559.6666666666667</ele><time>2026-03-22T08:40:48.888Z</time></trkpt><trkpt lat="41.863580773481225" lon="15.989611861694792"><ele>556.0</ele><time>2026-03-22T08:40:49.888Z</time></trkpt><trkpt lat="41.863534334129376" lon="15.989427070929473"><ele>556.0</ele><time>2026-03-22T08:40:50.888Z</time></trkpt><trkpt lat="41.86348034935638" lon="15.989236971150158"><ele>556.0</ele><time>2026-03-22T08:40:51.888Z</time></trkpt><trkpt lat="41.863427457416705" lon="15.989031375568942"><ele>556.0</ele><time>2026-03-22T08:40:52.888Z</time></trkpt><trkpt lat="41.86338018124696" lon="15.988782410778756"><ele>560.6666666666667</ele><time>2026-03-22T08:40:53.888Z</time></trkpt><trkpt lat="41.86333052900449" lon="15.988534384241698"><ele>565.3333333333334</ele><time>2026-03-22T08:40:54.888Z</time></trkpt><trkpt lat="41.863281530522585" lon="15.988284764200172"><ele>570.0</ele><time>2026-03-22T08:40:55.888Z</time></trkpt><trkpt lat="41.86325042563249" lon="15.988042702743805"><ele>570.0</ele><time>2026-03-22T08:40:56.888Z</time></trkpt><trkpt lat="41.86322225594594" lon="15.987783027940111"><ele>570.0</ele><time>2026-03-22T08:40:57.891Z</time></trkpt><trkpt lat="41.86320267216087" lon="15.987498073806842"><ele>570.0</ele><time>2026-03-22T08:40:58.89Z</time></trkpt><trkpt lat="41.86317635154637" lon="15.987212011122232"><ele>569.0</ele><time>2026-03-22T08:40:59.89Z</time></trkpt><trkpt lat="41.863167540241406" lon="15.986935194473272"><ele>568.0</ele><time>2026-03-22T08:41:00.89Z</time></trkpt><trkpt lat="41.86315595363942" lon="15.986674135171565"><ele>567.0</ele><time>2026-03-22T08:41:01.89Z</time></trkpt><trkpt lat="41.86314251233953" lon="15.986372101579455"><ele>567.0</ele><time>2026-03-22T08:41:02.89Z</time></trkpt><trkpt lat="41.8631311149107" lon="15.986103848910192"><ele>567.0</ele><time>2026-03-22T08:41:03.89Z</time></trkpt><trkpt lat="41.86311834170046" lon="15.985802473469482"><ele>567.0</ele><time>2026-03-22T08:41:04.89Z</time></trkpt><trkpt lat="41.86313571194271" lon="15.985539163018037"><ele>566.3333333333334</ele><time>2026-03-22T08:41:05.89Z</time></trkpt><trkpt lat="41.86312581188271" lon="15.985290063147183"><ele>565.6666666666667</ele><time>2026-03-22T08:41:06.89Z</time></trkpt><trkpt lat="41.86311680650242" lon="15.98506497923811"><ele>565.0</ele><time>2026-03-22T08:41:07.89Z</time></trkpt><trkpt lat="41.86310304606297" lon="15.984826977482122"><ele>563.5</ele><time>2026-03-22T08:41:08.89Z</time></trkpt><trkpt lat="41.86309050179489" lon="15.984617789202275"><ele>562.0</ele><time>2026-03-22T08:41:09.89Z</time></trkpt><trkpt lat="41.86307969330823" lon="15.984423432525722"><ele>560.5</ele><time>2026-03-22T08:41:10.89Z</time></trkpt><trkpt lat="41.86307053786162" lon="15.984230832733932"><ele>559.0</ele><time>2026-03-22T08:41:11.89Z</time></trkpt><trkpt lat="41.86306238938293" lon="15.984050198183903"><ele>557.4</ele><time>2026-03-22T08:41:12.89Z</time></trkpt><trkpt lat="41.86305569675865" lon="15.983869167677003"><ele>555.8</ele><time>2026-03-22T08:41:13.89Z</time></trkpt><trkpt lat="41.86305391645587" lon="15.983728133782845"><ele>554.2</ele><time>2026-03-22T08:41:14.89Z</time></trkpt><trkpt lat="41.86305358745987" lon="15.983612614524985"><ele>552.6</ele><time>2026-03-22T08:41:15.89Z</time></trkpt><trkpt lat="41.86305678419492" lon="15.983518261051277"><ele>551.0</ele><time>2026-03-22T08:41:16.89Z</time></trkpt><trkpt lat="41.86306570920484" lon="15.983431230683522"><ele>551.5</ele><time>2026-03-22T08:41:39.889Z</time></trkpt><trkpt lat="41.86307182584879" lon="15.98333713042747"><ele>552.0</ele><time>2026-03-22T08:41:59.889Z</time></trkpt><trkpt lat="41.86311233405884" lon="15.983246350730555"><ele>552.5</ele><time>2026-03-22T08:42:01.888Z</time></trkpt><trkpt lat="41.8631516777676" lon="15.983172603993625"><ele>553.0</ele><time>2026-03-22T08:42:02.888Z</time></trkpt><trkpt lat="41.86320136836594" lon="15.983086086411907"><ele>553.5</ele><time>2026-03-22T08:42:03.888Z</time></trkpt><trkpt lat="41.86327883577499" lon="15.982991234659574"><ele>554.0</ele><time>2026-03-22T08:42:04.888Z</time></trkpt><trkpt lat="41.86337285934227" lon="15.982880573585913"><ele>552.75</ele><time>2026-03-22T08:42:05.888Z</time></trkpt><trkpt lat="41.863476601126685" lon="15.982778108279838"><ele>551.5</ele><time>2026-03-22T08:42:06.888Z</time></trkpt><trkpt lat="41.863590983408116" lon="15.982670290173857"><ele>550.25</ele><time>2026-03-22T08:42:07.888Z</time></trkpt><trkpt lat="41.86372659420336" lon="15.982556082868332"><ele>549.0</ele><time>2026-03-22T08:42:08.888Z</time></trkpt><trkpt lat="41.86388579599627" lon="15.982457057040964"><ele>549.0</ele><time>2026-03-22T08:42:09.888Z</time></trkpt><trkpt lat="41.864074030398854" lon="15.982365006402556"><ele>549.0</ele><time>2026-03-22T08:42:10.888Z</time></trkpt><trkpt lat="41.864264971524754" lon="15.982266367583602"><ele>549.0</ele><time>2026-03-22T08:42:11.888Z</time></trkpt><trkpt lat="41.864441095586315" lon="15.98216950603168"><ele>543.0</ele><time>2026-03-22T08:42:12.888Z</time></trkpt><trkpt lat="41.864611162439914" lon="15.982082348660395"><ele>537.0</ele><time>2026-03-22T08:42:13.888Z</time></trkpt><trkpt lat="41.8647688795928" lon="15.981995926135562"><ele>531.0</ele><time>2026-03-22T08:42:14.888Z</time></trkpt><trkpt lat="41.86492690069833" lon="15.98191753229219"><ele>531.0</ele><time>2026-03-22T08:42:15.888Z</time></trkpt><trkpt lat="41.86507934718419" lon="15.981867085014777"><ele>531.0</ele><time>2026-03-22T08:42:16.888Z</time></trkpt><trkpt lat="41.865233767514354" lon="15.981829438467072"><ele>531.0</ele><time>2026-03-22T08:42:17.888Z</time></trkpt><trkpt lat="41.865386242731844" lon="15.981812608937336"><ele>529.6666666666666</ele><time>2026-03-22T08:42:18.888Z</time></trkpt><trkpt lat="41.86554376810215" lon="15.981815976793984"><ele>528.3333333333333</ele><time>2026-03-22T08:42:19.888Z</time></trkpt><trkpt lat="41.865692585789105" lon="15.981844675226192"><ele>527.0</ele><time>2026-03-22T08:42:20.888Z</time></trkpt><trkpt lat="41.86583816909708" lon="15.981871376105035"><ele>525.75</ele><time>2026-03-22T08:42:21.888Z</time></trkpt><trkpt lat="41.86597347494624" lon="15.981922814350975"><ele>524.5</ele><time>2026-03-22T08:42:22.888Z</time></trkpt><trkpt lat="41.866100662439344" lon="15.981966747327826"><ele>523.25</ele><time>2026-03-22T08:42:23.888Z</time></trkpt><trkpt lat="41.86621596749561" lon="15.981981368417971"><ele>522.0</ele><time>2026-03-22T08:42:24.888Z</time></trkpt><trkpt lat="41.86630983710206" lon="15.98196421845082"><ele>522.0</ele><time>2026-03-22T08:42:25.888Z</time></trkpt><trkpt lat="41.86637567560491" lon="15.981899847223623"><ele>522.0</ele><time>2026-03-22T08:42:26.888Z</time></trkpt><trkpt lat="41.86643827539869" lon="15.981813751653638"><ele>522.0</ele><time>2026-03-22T08:42:27.888Z</time></trkpt><trkpt lat="41.866491208147934" lon="15.981682559230453"><ele>522.0</ele><time>2026-03-22T08:42:28.888Z</time></trkpt><trkpt lat="41.86653970545502" lon="15.981508312002696"><ele>522.0</ele><time>2026-03-22T08:42:29.888Z</time></trkpt><trkpt lat="41.8665855188847" lon="15.981351751426033"><ele>524.75</ele><time>2026-03-22T08:42:30.888Z</time></trkpt><trkpt lat="41.86666370231502" lon="15.981196874455856"><ele>527.5</ele><time>2026-03-22T08:42:31.888Z</time></trkpt><trkpt lat="41.86675668122345" lon="15.981071037526315"><ele>530.25</ele><time>2026-03-22T08:42:32.887Z</time></trkpt><trkpt lat="41.86686170536902" lon="15.980961336884645"><ele>533.0</ele><time>2026-03-22T08:42:33.887Z</time></trkpt><trkpt lat="41.86697441078603" lon="15.980861304015546"><ele>530.5</ele><time>2026-03-22T08:42:34.887Z</time></trkpt><trkpt lat="41.867079350910764" lon="15.980765924270022"><ele>528.0</ele><time>2026-03-22T08:42:35.887Z</time></trkpt><trkpt lat="41.867200157234535" lon="15.980710697230931"><ele>525.5</ele><time>2026-03-22T08:42:36.887Z</time></trkpt><trkpt lat="41.86730065523239" lon="15.980658741659163"><ele>523.0</ele><time>2026-03-22T08:42:37.887Z</time></trkpt><trkpt lat="41.86741391108892" lon="15.98063182906877"><ele>523.0</ele><time>2026-03-22T08:42:38.887Z</time></trkpt><trkpt lat="41.867502961548226" lon="15.98061192561132"><ele>523.0</ele><time>2026-03-22T08:42:39.887Z</time></trkpt><trkpt lat="41.867574711531816" lon="15.980601066757828"><ele>523.0</ele><time>2026-03-22T08:42:40.887Z</time></trkpt><trkpt lat="41.86764222733087" lon="15.980569247470244"><ele>523.0</ele><time>2026-03-22T08:42:43.887Z</time></trkpt><trkpt lat="41.86759184307735" lon="15.98043570670068"><ele>523.0</ele><time>2026-03-22T08:42:45.887Z</time></trkpt><trkpt lat="41.86750246698107" lon="15.980425734471991"><ele>523.0</ele><time>2026-03-22T08:42:46.887Z</time></trkpt><trkpt lat="41.86741362176014" lon="15.980424234885838"><ele>523.0</ele><time>2026-03-22T08:42:47.887Z</time></trkpt><trkpt lat="41.86729418946123" lon="15.980425397047465"><ele>523.0</ele><time>2026-03-22T08:42:48.887Z</time></trkpt><trkpt lat="41.867145326274546" lon="15.980428992256018"><ele>523.0</ele><time>2026-03-22T08:42:49.887Z</time></trkpt><trkpt lat="41.86700332082317" lon="15.98043359185412"><ele>523.0</ele><time>2026-03-22T08:42:50.887Z</time></trkpt><trkpt lat="41.86685795699174" lon="15.980439888705064"><ele>526.5</ele><time>2026-03-22T08:42:51.887Z</time></trkpt><trkpt lat="41.86671139183992" lon="15.980447651755751"><ele>530.0</ele><time>2026-03-22T08:42:52.887Z</time></trkpt><trkpt lat="41.86656896421504" lon="15.98045649183096"><ele>533.5</ele><time>2026-03-22T08:42:53.887Z</time></trkpt><trkpt lat="41.86641670598904" lon="15.980480444060477"><ele>537.0</ele><time>2026-03-22T08:42:54.887Z</time></trkpt><trkpt lat="41.86626007629659" lon="15.98053165036362"><ele>537.0</ele><time>2026-03-22T08:42:55.887Z</time></trkpt><trkpt lat="41.8661041562626" lon="15.980591470755101"><ele>537.0</ele><time>2026-03-22T08:42:56.887Z</time></trkpt><trkpt lat="41.86594509462382" lon="15.980755665899538"><ele>537.0</ele><time>2026-03-22T08:42:57.887Z</time></trkpt><trkpt lat="41.865795522578885" lon="15.980834678488552"><ele>539.6666666666666</ele><time>2026-03-22T08:42:58.887Z</time></trkpt><trkpt lat="41.86564123127856" lon="15.980889906296564"><ele>542.3333333333333</ele><time>2026-03-22T08:42:59.887Z</time></trkpt><trkpt lat="41.86549037628305" lon="15.980931285294647"><ele>545.0</ele><time>2026-03-22T08:43:00.887Z</time></trkpt><trkpt lat="41.8653290542848" lon="15.980968398736673"><ele>545.0</ele><time>2026-03-22T08:43:01.887Z</time></trkpt><trkpt lat="41.865178976555825" lon="15.981001958399906"><ele>545.0</ele><time>2026-03-22T08:43:02.887Z</time></trkpt><trkpt lat="41.86504557231927" lon="15.98104443017996"><ele>545.0</ele><time>2026-03-22T08:43:03.888Z</time></trkpt><trkpt lat="41.86489990804797" lon="15.981036976032838"><ele>545.0</ele><time>2026-03-22T08:43:04.888Z</time></trkpt><trkpt lat="41.86477128400063" lon="15.981001152790117"><ele>546.5</ele><time>2026-03-22T08:43:05.888Z</time></trkpt><trkpt lat="41.86463992695427" lon="15.980925453793859"><ele>548.0</ele><time>2026-03-22T08:43:06.888Z</time></trkpt><trkpt lat="41.864522243514706" lon="15.980853909688166"><ele>549.5</ele><time>2026-03-22T08:43:07.888Z</time></trkpt><trkpt lat="41.864407431088615" lon="15.980763288274858"><ele>551.0</ele><time>2026-03-22T08:43:08.888Z</time></trkpt><trkpt lat="41.86428558573666" lon="15.980659772156745"><ele>555.25</ele><time>2026-03-22T08:43:09.888Z</time></trkpt><trkpt lat="41.86418179147981" lon="15.980547724635331"><ele>559.5</ele><time>2026-03-22T08:43:10.888Z</time></trkpt><trkpt lat="41.86407341501911" lon="15.980398001392006"><ele>563.75</ele><time>2026-03-22T08:43:11.888Z</time></trkpt><trkpt lat="41.86399676111651" lon="15.980229928877996"><ele>568.0</ele><time>2026-03-22T08:43:12.888Z</time></trkpt><trkpt lat="41.863936273378904" lon="15.980048948504802"><ele>565.6666666666667</ele><time>2026-03-22T08:43:13.888Z</time></trkpt><trkpt lat="41.86387589374539" lon="15.979847271949431"><ele>563.3333333333334</ele><time>2026-03-22T08:43:14.888Z</time></trkpt><trkpt lat="41.86382101788178" lon="15.979654104694864"><ele>561.0</ele><time>2026-03-22T08:43:15.888Z</time></trkpt><trkpt lat="41.86378296011336" lon="15.97945710652443"><ele>561.0</ele><time>2026-03-22T08:43:16.888Z</time></trkpt><trkpt lat="41.86377300300733" lon="15.979266018710325"><ele>561.0</ele><time>2026-03-22T08:43:17.888Z</time></trkpt><trkpt lat="41.863752587156554" lon="15.979069813449911"><ele>561.0</ele><time>2026-03-22T08:43:18.888Z</time></trkpt><trkpt lat="41.86374024477041" lon="15.978872484677753"><ele>561.0</ele><time>2026-03-22T08:43:19.888Z</time></trkpt><trkpt lat="41.8637361981461" lon="15.978701576529307"><ele>561.1666666666666</ele><time>2026-03-22T08:43:20.888Z</time></trkpt><trkpt lat="41.86373015837812" lon="15.978557765474559"><ele>561.3333333333334</ele><time>2026-03-22T08:43:21.888Z</time></trkpt><trkpt lat="41.86372536084022" lon="15.97842999444311"><ele>561.5</ele><time>2026-03-22T08:43:22.888Z</time></trkpt><trkpt lat="41.86372259934492" lon="15.97831008682306"><ele>561.6666666666667</ele><time>2026-03-22T08:43:23.888Z</time></trkpt><trkpt lat="41.86372162664977" lon="15.978200434757293"><ele>561.8333333333334</ele><time>2026-03-22T08:43:24.887Z</time></trkpt><trkpt lat="41.86372112774935" lon="15.97810735210596"><ele>562.0</ele><time>2026-03-22T08:43:25.887Z</time></trkpt><trkpt lat="41.86371111498211" lon="15.977970661470534"><ele>562.0</ele><time>2026-03-22T08:43:27.887Z</time></trkpt><trkpt lat="41.863698025162805" lon="15.977876239460791"><ele>562.0</ele><time>2026-03-22T08:43:29.887Z</time></trkpt><trkpt lat="41.86394817225757" lon="15.977716051525798"><ele>562.0</ele><time>2026-03-22T08:43:32.887Z</time></trkpt><trkpt lat="41.86402756507288" lon="15.977610518401569"><ele>562.0</ele><time>2026-03-22T08:43:35.887Z</time></trkpt><trkpt lat="41.864160009482205" lon="15.977503415799566"><ele>562.0</ele><time>2026-03-22T08:43:37.887Z</time></trkpt><trkpt lat="41.8642586655631" lon="15.977435446469654"><ele>562.0</ele><time>2026-03-22T08:43:38.887Z</time></trkpt><trkpt lat="41.86434517450425" lon="15.977370599596348"><ele>562.0</ele><time>2026-03-22T08:43:39.887Z</time></trkpt><trkpt lat="41.86444168594345" lon="15.977325766591239"><ele>559.0</ele><time>2026-03-22T08:43:40.887Z</time></trkpt><trkpt lat="41.86453733378561" lon="15.97727513653929"><ele>556.0</ele><time>2026-03-22T08:43:41.887Z</time></trkpt><trkpt lat="41.86462775304294" lon="15.97722118754028"><ele>553.0</ele><time>2026-03-22T08:43:42.887Z</time></trkpt><trkpt lat="41.86471510911342" lon="15.977162955460802"><ele>550.0</ele><time>2026-03-22T08:43:43.887Z</time></trkpt><trkpt lat="41.86479771750126" lon="15.97711122769285"><ele>547.0</ele><time>2026-03-22T08:43:44.887Z</time></trkpt><trkpt lat="41.86487502459051" lon="15.977068684199633"><ele>547.0</ele><time>2026-03-22T08:43:45.887Z</time></trkpt><trkpt lat="41.8649576287306" lon="15.977012418876825"><ele>547.0</ele><time>2026-03-22T08:43:46.887Z</time></trkpt><trkpt lat="41.86502123820194" lon="15.976960610026998"><ele>547.0</ele><time>2026-03-22T08:43:47.887Z</time></trkpt><trkpt lat="41.86509547724648" lon="15.976888812424724"><ele>547.0</ele><time>2026-03-22T08:43:48.887Z</time></trkpt><trkpt lat="41.86518641525144" lon="15.976818573054876"><ele>547.0</ele><time>2026-03-22T08:43:49.887Z</time></trkpt><trkpt lat="41.8652681277535" lon="15.976760890123352"><ele>544.6666666666667</ele><time>2026-03-22T08:43:50.887Z</time></trkpt><trkpt lat="41.86535479622243" lon="15.976712964457766"><ele>542.3333333333334</ele><time>2026-03-22T08:43:51.887Z</time></trkpt><trkpt lat="41.865437470068805" lon="15.976665589370025"><ele>540.0</ele><time>2026-03-22T08:43:52.887Z</time></trkpt><trkpt lat="41.865510532352914" lon="15.97660700533613"><ele>537.6666666666666</ele><time>2026-03-22T08:43:53.887Z</time></trkpt><trkpt lat="41.86555961170064" lon="15.976522357211874"><ele>535.3333333333333</ele><time>2026-03-22T08:43:55.887Z</time></trkpt><trkpt lat="41.86552680952657" lon="15.976428600251989"><ele>533.0</ele><time>2026-03-22T08:44:01.886Z</time></trkpt><trkpt lat="41.86549535089248" lon="15.976347042172359"><ele>533.0</ele><time>2026-03-22T08:44:02.886Z</time></trkpt><trkpt lat="41.86544307664717" lon="15.976289506666111"><ele>533.0</ele><time>2026-03-22T08:44:03.886Z</time></trkpt><trkpt lat="41.865380457028955" lon="15.976244972309074"><ele>533.0</ele><time>2026-03-22T08:44:04.886Z</time></trkpt><trkpt lat="41.86530995115744" lon="15.97619502647535"><ele>533.0</ele><time>2026-03-22T08:44:05.886Z</time></trkpt><trkpt lat="41.865235246584774" lon="15.976141937054432"><ele>533.0</ele><time>2026-03-22T08:44:06.886Z</time></trkpt><trkpt lat="41.865143662756815" lon="15.976113918276598"><ele>533.0</ele><time>2026-03-22T08:44:07.886Z</time></trkpt><trkpt lat="41.86505102046954" lon="15.976090337523848"><ele>535.1999999999999</ele><time>2026-03-22T08:44:08.886Z</time></trkpt><trkpt lat="41.86493891587636" lon="15.976060228984446"><ele>537.4</ele><time>2026-03-22T08:44:09.886Z</time></trkpt><trkpt lat="41.86484087647741" lon="15.976029133060448"><ele>539.5999999999999</ele><time>2026-03-22T08:44:10.886Z</time></trkpt><trkpt lat="41.86473343657913" lon="15.97599123251129"><ele>541.8</ele><time>2026-03-22T08:44:11.886Z</time></trkpt><trkpt lat="41.86464718048674" lon="15.975952608005807"><ele>544.0</ele><time>2026-03-22T08:44:12.886Z</time></trkpt><trkpt lat="41.864551719148956" lon="15.975924886626084"><ele>544.0</ele><time>2026-03-22T08:44:13.886Z</time></trkpt><trkpt lat="41.8644670086753" lon="15.975909032532197"><ele>544.0</ele><time>2026-03-22T08:44:14.886Z</time></trkpt><trkpt lat="41.86439667532973" lon="15.97587988834491"><ele>544.0</ele><time>2026-03-22T08:44:15.886Z</time></trkpt><trkpt lat="41.864330201843316" lon="15.975876132262217"><ele>544.0</ele><time>2026-03-22T08:44:16.886Z</time></trkpt><trkpt lat="41.864241085990145" lon="15.975862437516213"><ele>544.0</ele><time>2026-03-22T08:44:18.886Z</time></trkpt><trkpt lat="41.86424612299725" lon="15.975740085192438"><ele>544.0</ele><time>2026-03-22T08:44:21.886Z</time></trkpt><trkpt lat="41.864341966348256" lon="15.975614100636083"><ele>540.8</ele><time>2026-03-22T08:44:23.886Z</time></trkpt><trkpt lat="41.86441908629127" lon="15.975538355632658"><ele>537.5999999999999</ele><time>2026-03-22T08:44:24.886Z</time></trkpt><trkpt lat="41.8644861679491" lon="15.975472100627703"><ele>534.4</ele><time>2026-03-22T08:44:25.886Z</time></trkpt><trkpt lat="41.86455923677904" lon="15.975384442949798"><ele>531.1999999999999</ele><time>2026-03-22T08:44:26.886Z</time></trkpt><trkpt lat="41.86463156051258" lon="15.975310628192076"><ele>528.0</ele><time>2026-03-22T08:44:27.886Z</time></trkpt><trkpt lat="41.86469440009457" lon="15.975232034526517"><ele>528.0</ele><time>2026-03-22T08:44:28.886Z</time></trkpt><trkpt lat="41.86477561864423" lon="15.975143955587459"><ele>528.0</ele><time>2026-03-22T08:44:29.885Z</time></trkpt><trkpt lat="41.864858377105726" lon="15.975057901982254"><ele>528.0</ele><time>2026-03-22T08:44:30.885Z</time></trkpt><trkpt lat="41.86494819379699" lon="15.974986566049052"><ele>528.0</ele><time>2026-03-22T08:44:31.885Z</time></trkpt><trkpt lat="41.86502929030078" lon="15.974917475179463"><ele>528.0</ele><time>2026-03-22T08:44:32.885Z</time></trkpt><trkpt lat="41.86511942433777" lon="15.97483840559227"><ele>522.5</ele><time>2026-03-22T08:44:33.885Z</time></trkpt><trkpt lat="41.86519512246783" lon="15.97476642382383"><ele>517.0</ele><time>2026-03-22T08:44:34.885Z</time></trkpt><trkpt lat="41.86527261089445" lon="15.974686422151882"><ele>511.5</ele><time>2026-03-22T08:44:35.885Z</time></trkpt><trkpt lat="41.86538537031029" lon="15.974580965248126"><ele>506.0</ele><time>2026-03-22T08:44:36.885Z</time></trkpt><trkpt lat="41.86550334668869" lon="15.974493087673807"><ele>506.0</ele><time>2026-03-22T08:44:37.885Z</time></trkpt><trkpt lat="41.865639661951434" lon="15.974413298983402"><ele>506.0</ele><time>2026-03-22T08:44:38.885Z</time></trkpt><trkpt lat="41.86576893249538" lon="15.974348728613759"><ele>506.0</ele><time>2026-03-22T08:44:39.885Z</time></trkpt><trkpt lat="41.86587538836829" lon="15.974296833806271"><ele>506.0</ele><time>2026-03-22T08:44:40.885Z</time></trkpt><trkpt lat="41.86596436753485" lon="15.974223065133366"><ele>499.6</ele><time>2026-03-22T08:44:41.885Z</time></trkpt><trkpt lat="41.8660531549771" lon="15.974179857082841"><ele>493.20000000000005</ele><time>2026-03-22T08:44:42.885Z</time></trkpt><trkpt lat="41.866141140924206" lon="15.97412942445143"><ele>486.79999999999995</ele><time>2026-03-22T08:44:43.885Z</time></trkpt><trkpt lat="41.86624859696676" lon="15.97409594810892"><ele>480.4</ele><time>2026-03-22T08:44:44.885Z</time></trkpt><trkpt lat="41.866352383929005" lon="15.974077655718085"><ele>474.0</ele><time>2026-03-22T08:44:45.885Z</time></trkpt><trkpt lat="41.86643735238238" lon="15.974051073380188"><ele>474.0</ele><time>2026-03-22T08:44:46.885Z</time></trkpt><trkpt lat="41.86655595179181" lon="15.974028949498042"><ele>474.0</ele><time>2026-03-22T08:44:47.885Z</time></trkpt><trkpt lat="41.8666692522878" lon="15.974002173574872"><ele>474.0</ele><time>2026-03-22T08:44:48.885Z</time></trkpt><trkpt lat="41.866775095304675" lon="15.97398909937884"><ele>474.0</ele><time>2026-03-22T08:44:49.885Z</time></trkpt><trkpt lat="41.8668893450715" lon="15.973985334692399"><ele>471.2</ele><time>2026-03-22T08:44:50.885Z</time></trkpt><trkpt lat="41.8669945457907" lon="15.973988862122937"><ele>468.4</ele><time>2026-03-22T08:44:51.885Z</time></trkpt><trkpt lat="41.86710807143764" lon="15.973975352208145"><ele>465.6</ele><time>2026-03-22T08:44:52.885Z</time></trkpt><trkpt lat="41.8672184043855" lon="15.973955460018358"><ele>462.8</ele><time>2026-03-22T08:44:53.885Z</time></trkpt><trkpt lat="41.867333113266916" lon="15.973949309527704"><ele>460.0</ele><time>2026-03-22T08:44:54.885Z</time></trkpt><trkpt lat="41.867444212372135" lon="15.973957550515467"><ele>460.0</ele><time>2026-03-22T08:44:55.885Z</time></trkpt><trkpt lat="41.867553512921944" lon="15.973950456337816"><ele>460.0</ele><time>2026-03-22T08:44:56.885Z</time></trkpt><trkpt lat="41.86766354351913" lon="15.973935461353822"><ele>460.0</ele><time>2026-03-22T08:44:57.885Z</time></trkpt><trkpt lat="41.867791067041814" lon="15.973922578490438"><ele>460.0</ele><time>2026-03-22T08:44:58.885Z</time></trkpt><trkpt lat="41.86791306408144" lon="15.97390037820493"><ele>457.8</ele><time>2026-03-22T08:44:59.885Z</time></trkpt><trkpt lat="41.868011524551655" lon="15.973864778858106"><ele>455.6</ele><time>2026-03-22T08:45:00.885Z</time></trkpt><trkpt lat="41.868110277631544" lon="15.973862708739093"><ele>453.4</ele><time>2026-03-22T08:45:01.884Z</time></trkpt><trkpt lat="41.86820910147911" lon="15.973853718446211"><ele>451.2</ele><time>2026-03-22T08:45:02.884Z</time></trkpt><trkpt lat="41.868293708100616" lon="15.973845908511752"><ele>449.0</ele><time>2026-03-22T08:45:03.884Z</time></trkpt><trkpt lat="41.868375453276876" lon="15.973827384541437"><ele>446.4</ele><time>2026-03-22T08:45:04.884Z</time></trkpt><trkpt lat="41.868454166678134" lon="15.973830852484078"><ele>443.79999999999995</ele><time>2026-03-22T08:45:05.884Z</time></trkpt><trkpt lat="41.86854114739512" lon="15.973825842408509"><ele>441.20000000000005</ele><time>2026-03-22T08:45:06.884Z</time></trkpt><trkpt lat="41.86864748750616" lon="15.97385051988043"><ele>438.6</ele><time>2026-03-22T08:45:07.884Z</time></trkpt><trkpt lat="41.86874647917735" lon="15.973854023376294"><ele>436.0</ele><time>2026-03-22T08:45:08.884Z</time></trkpt><trkpt lat="41.86884715263361" lon="15.973860238236103"><ele>436.00000000000006</ele><time>2026-03-22T08:45:09.886Z</time></trkpt><trkpt lat="41.868947870810686" lon="15.973860450539524"><ele>436.0</ele><time>2026-03-22T08:45:10.887Z</time></trkpt><trkpt lat="41.86902700407869" lon="15.973846783304312"><ele>436.0</ele><time>2026-03-22T08:45:11.887Z</time></trkpt><trkpt lat="41.8691246606837" lon="15.973876797451341"><ele>436.0</ele><time>2026-03-22T08:45:12.887Z</time></trkpt><trkpt lat="41.86919768894056" lon="15.973875362538292"><ele>436.00000000000006</ele><time>2026-03-22T08:45:13.886Z</time></trkpt><trkpt lat="41.86926257113083" lon="15.973880272003763"><ele>436.0</ele><time>2026-03-22T08:45:14.886Z</time></trkpt><trkpt lat="41.86937796433729" lon="15.973859436288194"><ele>435.6</ele><time>2026-03-22T08:45:16.886Z</time></trkpt><trkpt lat="41.869491006999674" lon="15.973846098510728"><ele>435.20000000000005</ele><time>2026-03-22T08:45:18.886Z</time></trkpt><trkpt lat="41.869438009518845" lon="15.973771665097283"><ele>434.79999999999995</ele><time>2026-03-22T08:45:28.886Z</time></trkpt><trkpt lat="41.86947507765998" lon="15.973687542985438"><ele>434.4</ele><time>2026-03-22T08:45:38.886Z</time></trkpt><trkpt lat="41.86956181482012" lon="15.97358483947468"><ele>434.0</ele><time>2026-03-22T08:45:41.886Z</time></trkpt><trkpt lat="41.8696071971827" lon="15.973504931453297"><ele>434.0</ele><time>2026-03-22T08:45:42.886Z</time></trkpt><trkpt lat="41.86969361048704" lon="15.97335998517898"><ele>434.0</ele><time>2026-03-22T08:45:43.886Z</time></trkpt><trkpt lat="41.86974706965247" lon="15.973221359059199"><ele>434.0</ele><time>2026-03-22T08:45:44.886Z</time></trkpt><trkpt lat="41.86981581045704" lon="15.97304311509324"><ele>434.0</ele><time>2026-03-22T08:45:45.886Z</time></trkpt><trkpt lat="41.86984979617408" lon="15.972880581441421"><ele>434.0</ele><time>2026-03-22T08:45:46.886Z</time></trkpt><trkpt lat="41.86986610455954" lon="15.972702693158942"><ele>434.0</ele><time>2026-03-22T08:45:47.886Z</time></trkpt><trkpt lat="41.86984742263703" lon="15.972589094807288"><ele>434.0</ele><time>2026-03-22T08:45:48.886Z</time></trkpt><trkpt lat="41.86979128328075" lon="15.972522036619667"><ele>434.0</ele><time>2026-03-22T08:45:50.886Z</time></trkpt><trkpt lat="41.86971846930292" lon="15.972369780239543"><ele>434.0</ele><time>2026-03-22T08:45:52.883Z</time></trkpt><trkpt lat="41.869683120347126" lon="15.972265047447287"><ele>434.0</ele><time>2026-03-22T08:45:53.882Z</time></trkpt><trkpt lat="41.869660284757316" lon="15.972135355543413"><ele>434.0</ele><time>2026-03-22T08:45:54.881Z</time></trkpt><trkpt lat="41.869634177382295" lon="15.972018248500536"><ele>434.0</ele><time>2026-03-22T08:45:55.88Z</time></trkpt><trkpt lat="41.86960190691812" lon="15.971901599313604"><ele>434.0</ele><time>2026-03-22T08:45:56.879Z</time></trkpt><trkpt lat="41.869563451940074" lon="15.97177014708162"><ele>434.0</ele><time>2026-03-22T08:45:57.878Z</time></trkpt><trkpt lat="41.86957631708183" lon="15.971650427166155"><ele>436.0</ele><time>2026-03-22T08:45:58.877Z</time></trkpt><trkpt lat="41.86959173570901" lon="15.971472846383556"><ele>438.0</ele><time>2026-03-22T08:45:59.877Z</time></trkpt><trkpt lat="41.86961135033922" lon="15.971326344704073"><ele>440.0</ele><time>2026-03-22T08:46:00.876Z</time></trkpt><trkpt lat="41.86964183696315" lon="15.971199677993711"><ele>442.0</ele><time>2026-03-22T08:46:01.875Z</time></trkpt><trkpt lat="41.869701479662844" lon="15.971072938422656"><ele>442.0</ele><time>2026-03-22T08:46:02.875Z</time></trkpt><trkpt lat="41.86978223382335" lon="15.970913954533481"><ele>442.0</ele><time>2026-03-22T08:46:03.874Z</time></trkpt><trkpt lat="41.86983964095325" lon="15.970777654250835"><ele>442.0</ele><time>2026-03-22T08:46:04.873Z</time></trkpt><trkpt lat="41.86990305790519" lon="15.970637820720652"><ele>442.0</ele><time>2026-03-22T08:46:05.873Z</time></trkpt><trkpt lat="41.86995657986416" lon="15.97048720533793"><ele>445.33333333333337</ele><time>2026-03-22T08:46:06.872Z</time></trkpt><trkpt lat="41.8699845672914" lon="15.970370335614213"><ele>448.6666666666667</ele><time>2026-03-22T08:46:07.872Z</time></trkpt><trkpt lat="41.86993987974254" lon="15.970297757083626"><ele>452.0</ele><time>2026-03-22T08:46:09.871Z</time></trkpt><trkpt lat="41.86985903598547" lon="15.970233957549908"><ele>455.33333333333337</ele><time>2026-03-22T08:46:11.87Z</time></trkpt><trkpt lat="41.86977899797112" lon="15.970188734701473"><ele>458.6666666666667</ele><time>2026-03-22T08:46:12.87Z</time></trkpt><trkpt lat="41.86968795649821" lon="15.970142619716043"><ele>462.0</ele><time>2026-03-22T08:46:13.87Z</time></trkpt><trkpt lat="41.86959527489219" lon="15.970090897503521"><ele>462.0</ele><time>2026-03-22T08:46:14.869Z</time></trkpt><trkpt lat="41.8694817062663" lon="15.970036186500073"><ele>462.0</ele><time>2026-03-22T08:46:15.869Z</time></trkpt><trkpt lat="41.86937039486323" lon="15.969988329373567"><ele>462.0</ele><time>2026-03-22T08:46:16.869Z</time></trkpt><trkpt lat="41.869250584893116" lon="15.969916745102262"><ele>462.0</ele><time>2026-03-22T08:46:17.868Z</time></trkpt><trkpt lat="41.869121396866824" lon="15.96982497283808"><ele>469.0</ele><time>2026-03-22T08:46:18.868Z</time></trkpt><trkpt lat="41.86901115556116" lon="15.969719146950348"><ele>476.00000000000006</ele><time>2026-03-22T08:46:19.868Z</time></trkpt><trkpt lat="41.86895302664252" lon="15.969648736553172"><ele>483.00000000000006</ele><time>2026-03-22T08:46:20.868Z</time></trkpt><trkpt lat="41.868909894372685" lon="15.969541609365264"><ele>490.0</ele><time>2026-03-22T08:46:22.867Z</time></trkpt><trkpt lat="41.86884122833853" lon="15.969415885420313"><ele>497.0</ele><time>2026-03-22T08:46:32.866Z</time></trkpt><trkpt lat="41.868816787397314" lon="15.96933780936889"><ele>497.0</ele><time>2026-03-22T08:46:49.864Z</time></trkpt><trkpt lat="41.86881962307654" lon="15.96924770585125"><ele>497.00000000000006</ele><time>2026-03-22T08:47:04.863Z</time></trkpt><trkpt lat="41.86887594717354" lon="15.969139257120577"><ele>497.00000000000006</ele><time>2026-03-22T08:48:46.861Z</time></trkpt><trkpt lat="41.86896968100471" lon="15.969009055805678"><ele>497.0</ele><time>2026-03-22T08:48:48.861Z</time></trkpt><trkpt lat="41.86905165140031" lon="15.968871978438658"><ele>497.0</ele><time>2026-03-22T08:48:49.861Z</time></trkpt><trkpt lat="41.8691209880015" lon="15.96876427319635"><ele>498.0</ele><time>2026-03-22T08:48:50.861Z</time></trkpt><trkpt lat="41.86919113677198" lon="15.968659315340068"><ele>499.00000000000006</ele><time>2026-03-22T08:48:51.861Z</time></trkpt><trkpt lat="41.86923945142435" lon="15.968529693739075"><ele>500.00000000000006</ele><time>2026-03-22T08:48:52.861Z</time></trkpt><trkpt lat="41.86930574263074" lon="15.968400020642719"><ele>501.0</ele><time>2026-03-22T08:48:53.861Z</time></trkpt><trkpt lat="41.86936207808735" lon="15.968298702738805"><ele>502.0</ele><time>2026-03-22T08:48:54.861Z</time></trkpt><trkpt lat="41.869432444906366" lon="15.968212497201021"><ele>498.40000000000003</ele><time>2026-03-22T08:48:55.861Z</time></trkpt><trkpt lat="41.86948589443215" lon="15.968132749993828"><ele>494.80000000000007</ele><time>2026-03-22T08:48:56.861Z</time></trkpt><trkpt lat="41.86955708989676" lon="15.968074441435553"><ele>491.2</ele><time>2026-03-22T08:48:58.861Z</time></trkpt><trkpt lat="41.86964706305588" lon="15.967996401958588"><ele>487.6</ele><time>2026-03-22T08:49:00.861Z</time></trkpt><trkpt lat="41.869696823801334" lon="15.967913649610123"><ele>484.0</ele><time>2026-03-22T08:49:02.861Z</time></trkpt><trkpt lat="41.86980670600629" lon="15.96779450381378"><ele>484.0</ele><time>2026-03-22T08:49:04.861Z</time></trkpt><trkpt lat="41.869885084293045" lon="15.967690735786176"><ele>484.0</ele><time>2026-03-22T08:49:06.861Z</time></trkpt><trkpt lat="41.86995970185241" lon="15.967590749408556"><ele>484.0</ele><time>2026-03-22T08:49:08.861Z</time></trkpt><trkpt lat="41.87004539768952" lon="15.967481848103633"><ele>484.0</ele><time>2026-03-22T08:49:10.86Z</time></trkpt><trkpt lat="41.87013936117682" lon="15.967371099942975"><ele>478.6666666666667</ele><time>2026-03-22T08:49:12.86Z</time></trkpt><trkpt lat="41.87020242132341" lon="15.967321090763827"><ele>473.33333333333337</ele><time>2026-03-22T08:49:13.86Z</time></trkpt><trkpt lat="41.87025662989566" lon="15.967275081290996"><ele>468.0</ele><time>2026-03-22T08:49:14.86Z</time></trkpt><trkpt lat="41.8703555861874" lon="15.96719029388731"><ele>462.66666666666663</ele><time>2026-03-22T08:49:16.86Z</time></trkpt><trkpt lat="41.87043245929958" lon="15.96713988633435"><ele>457.3333333333333</ele><time>2026-03-22T08:49:17.86Z</time></trkpt><trkpt lat="41.87052222090824" lon="15.967064234881523"><ele>452.0</ele><time>2026-03-22T08:49:19.86Z</time></trkpt><trkpt lat="41.87058249844709" lon="15.96701894746652"><ele>451.99999999999994</ele><time>2026-03-22T08:49:21.862Z</time></trkpt><trkpt lat="41.8706462421987" lon="15.966997673480025"><ele>452.0</ele><time>2026-03-22T08:49:23.861Z</time></trkpt><trkpt lat="41.870714417390325" lon="15.966954399983974"><ele>452.0</ele><time>2026-03-22T08:49:25.861Z</time></trkpt><trkpt lat="41.87080631438072" lon="15.9669365071701"><ele>452.0</ele><time>2026-03-22T08:49:28.862Z</time></trkpt><trkpt lat="41.870881880120386" lon="15.966978899658782"><ele>451.99999999999994</ele><time>2026-03-22T08:49:30.861Z</time></trkpt><trkpt lat="41.8709931778675" lon="15.967037748546817"><ele>452.0</ele><time>2026-03-22T08:49:32.862Z</time></trkpt><trkpt lat="41.87109869442992" lon="15.967105314549004"><ele>444.20000000000005</ele><time>2026-03-22T08:49:34.862Z</time></trkpt><trkpt lat="41.87119009038743" lon="15.967134341851294"><ele>436.40000000000003</ele><time>2026-03-22T08:49:36.861Z</time></trkpt><trkpt lat="41.871282386390895" lon="15.967191477899958"><ele>428.6</ele><time>2026-03-22T08:49:38.861Z</time></trkpt><trkpt lat="41.87138617083395" lon="15.967215756564109"><ele>420.79999999999995</ele><time>2026-03-22T08:49:40.861Z</time></trkpt><trkpt lat="41.87145950729367" lon="15.967211935623226"><ele>413.0</ele><time>2026-03-22T08:49:42.861Z</time></trkpt><trkpt lat="41.87154904695717" lon="15.96723074635851"><ele>412.99999999999994</ele><time>2026-03-22T08:49:44.861Z</time></trkpt><trkpt lat="41.87162913995052" lon="15.96729197195564"><ele>413.0</ele><time>2026-03-22T08:49:46.861Z</time></trkpt><trkpt lat="41.87167675677455" lon="15.967349329807478"><ele>413.0</ele><time>2026-03-22T08:49:48.861Z</time></trkpt><trkpt lat="41.87171772863024" lon="15.967425758220486"><ele>413.0</ele><time>2026-03-22T08:49:49.861Z</time></trkpt><trkpt lat="41.87178531674258" lon="15.967567458042188"><ele>412.99999999999994</ele><time>2026-03-22T08:49:51.861Z</time></trkpt><trkpt lat="41.87182075276758" lon="15.967651467220263"><ele>413.0</ele><time>2026-03-22T08:49:52.861Z</time></trkpt><trkpt lat="41.871847621967326" lon="15.967731824070086"><ele>410.16666666666663</ele><time>2026-03-22T08:49:53.861Z</time></trkpt><trkpt lat="41.87188187685236" lon="15.967815495332516"><ele>407.3333333333333</ele><time>2026-03-22T08:49:54.861Z</time></trkpt><trkpt lat="41.871947800403056" lon="15.967935282450158"><ele>404.5</ele><time>2026-03-22T08:49:56.861Z</time></trkpt><trkpt lat="41.87199229570598" lon="15.968010259870132"><ele>401.66666666666663</ele><time>2026-03-22T08:49:57.861Z</time></trkpt><trkpt lat="41.87202838836632" lon="15.968081380073167"><ele>398.8333333333333</ele><time>2026-03-22T08:49:58.861Z</time></trkpt><trkpt lat="41.87208545077019" lon="15.968154814241075"><ele>396.0</ele><time>2026-03-22T08:50:00.861Z</time></trkpt><trkpt lat="41.872104142486826" lon="15.968059256769015"><ele>396.0</ele><time>2026-03-22T08:50:05.86Z</time></trkpt><trkpt lat="41.87210775485059" lon="15.967907038558309"><ele>396.0</ele><time>2026-03-22T08:50:07.86Z</time></trkpt><trkpt lat="41.87209749848222" lon="15.967822577019007"><ele>396.0</ele><time>2026-03-22T08:50:08.86Z</time></trkpt><trkpt lat="41.8720950586061" lon="15.967724470942334"><ele>396.0</ele><time>2026-03-22T08:50:09.86Z</time></trkpt><trkpt lat="41.872153843246885" lon="15.96761841117488"><ele>396.0</ele><time>2026-03-22T08:50:10.86Z</time></trkpt><trkpt lat="41.87221551708349" lon="15.967537436015627"><ele>396.0</ele><time>2026-03-22T08:50:11.86Z</time></trkpt><trkpt lat="41.87227798084038" lon="15.967438483620583"><ele>395.1666666666667</ele><time>2026-03-22T08:50:12.86Z</time></trkpt><trkpt lat="41.87233072556419" lon="15.967334637184312"><ele>394.33333333333337</ele><time>2026-03-22T08:50:13.86Z</time></trkpt><trkpt lat="41.87233301196185" lon="15.967219440321328"><ele>393.5</ele><time>2026-03-22T08:50:14.86Z</time></trkpt><trkpt lat="41.87234330458077" lon="15.96710675839697"><ele>392.6666666666667</ele><time>2026-03-22T08:50:15.86Z</time></trkpt><trkpt lat="41.872341836264795" lon="15.966999971363116"><ele>391.83333333333337</ele><time>2026-03-22T08:50:16.86Z</time></trkpt><trkpt lat="41.8723337437059" lon="15.966884455874109"><ele>391.0</ele><time>2026-03-22T08:50:17.86Z</time></trkpt><trkpt lat="41.87231663017671" lon="15.96675832925754"><ele>390.8</ele><time>2026-03-22T08:50:18.86Z</time></trkpt><trkpt lat="41.87230114719823" lon="15.966621992615337"><ele>390.6</ele><time>2026-03-22T08:50:19.86Z</time></trkpt><trkpt lat="41.872294884042915" lon="15.966480864170217"><ele>390.4</ele><time>2026-03-22T08:50:20.86Z</time></trkpt><trkpt lat="41.87227767803964" lon="15.966334203326372"><ele>390.2</ele><time>2026-03-22T08:50:21.86Z</time></trkpt><trkpt lat="41.872257356676485" lon="15.966189628016384"><ele>390.0</ele><time>2026-03-22T08:50:22.86Z</time></trkpt><trkpt lat="41.87223995485269" lon="15.966056927888882"><ele>390.0</ele><time>2026-03-22T08:50:23.86Z</time></trkpt><trkpt lat="41.87221955856766" lon="15.965958631609649"><ele>390.0</ele><time>2026-03-22T08:50:24.86Z</time></trkpt><trkpt lat="41.87218656814344" lon="15.965855444015146"><ele>390.0</ele><time>2026-03-22T08:50:25.86Z</time></trkpt><trkpt lat="41.8721460008655" lon="15.965733982410786"><ele>390.0</ele><time>2026-03-22T08:50:26.86Z</time></trkpt><trkpt lat="41.872157747285506" lon="15.965611110945845"><ele>390.0</ele><time>2026-03-22T08:50:27.86Z</time></trkpt><trkpt lat="41.87216512022453" lon="15.96552185244198"><ele>390.0</ele><time>2026-03-22T08:50:28.86Z</time></trkpt><trkpt lat="41.87218764038644" lon="15.965398702735754"><ele>389.5</ele><time>2026-03-22T08:50:30.86Z</time></trkpt><trkpt lat="41.8721681299442" lon="15.965249096347994"><ele>389.0</ele><time>2026-03-22T08:50:32.86Z</time></trkpt><trkpt lat="41.872124610405024" lon="15.965162883463874"><ele>388.5</ele><time>2026-03-22T08:50:33.859Z</time></trkpt><trkpt lat="41.87208848618445" lon="15.96507323900357"><ele>388.0</ele><time>2026-03-22T08:50:34.859Z</time></trkpt><trkpt lat="41.87208075457565" lon="15.964982881501069"><ele>387.5</ele><time>2026-03-22T08:50:35.859Z</time></trkpt><trkpt lat="41.87210319590281" lon="15.964889056997661"><ele>387.0</ele><time>2026-03-22T08:50:36.859Z</time></trkpt><trkpt lat="41.87215341398829" lon="15.964779596217948"><ele>385.20000000000005</ele><time>2026-03-22T08:50:37.859Z</time></trkpt><trkpt lat="41.872190650629385" lon="15.96469957799956"><ele>383.4</ele><time>2026-03-22T08:50:38.859Z</time></trkpt><trkpt lat="41.872273929869166" lon="15.964564914115071"><ele>381.6</ele><time>2026-03-22T08:50:39.859Z</time></trkpt><trkpt lat="41.87234708049527" lon="15.964491933943041"><ele>379.79999999999995</ele><time>2026-03-22T08:50:40.859Z</time></trkpt><trkpt lat="41.87241737330906" lon="15.964415580713693"><ele>378.0</ele><time>2026-03-22T08:50:41.859Z</time></trkpt><trkpt lat="41.87248018504751" lon="15.964341508153556"><ele>378.0</ele><time>2026-03-22T08:50:42.859Z</time></trkpt><trkpt lat="41.87254752559071" lon="15.96427677034136"><ele>378.0</ele><time>2026-03-22T08:50:43.859Z</time></trkpt><trkpt lat="41.87262090030556" lon="15.964121059838465"><ele>378.0</ele><time>2026-03-22T08:50:45.859Z</time></trkpt><trkpt lat="41.87266093014564" lon="15.964013444817546"><ele>378.0</ele><time>2026-03-22T08:50:46.859Z</time></trkpt><trkpt lat="41.87270791129575" lon="15.963935575110826"><ele>378.0</ele><time>2026-03-22T08:50:47.859Z</time></trkpt><trkpt lat="41.87275854804387" lon="15.963857302602513"><ele>378.5</ele><time>2026-03-22T08:50:48.859Z</time></trkpt><trkpt lat="41.87280501999968" lon="15.963782122175052"><ele>379.0</ele><time>2026-03-22T08:50:49.859Z</time></trkpt><trkpt lat="41.87287562412813" lon="15.963711083674745"><ele>379.5</ele><time>2026-03-22T08:50:51.859Z</time></trkpt><trkpt lat="41.87296595617952" lon="15.96359705376691"><ele>380.0</ele><time>2026-03-22T08:50:53.859Z</time></trkpt><trkpt lat="41.87300293018258" lon="15.963522320400116"><ele>380.5</ele><time>2026-03-22T08:50:54.859Z</time></trkpt><trkpt lat="41.873066042535115" lon="15.963443673680075"><ele>381.0</ele><time>2026-03-22T08:50:55.859Z</time></trkpt><trkpt lat="41.87310256903001" lon="15.963351696879759"><ele>379.3333333333333</ele><time>2026-03-22T08:50:56.859Z</time></trkpt><trkpt lat="41.87312687774969" lon="15.963246579741986"><ele>377.6666666666667</ele><time>2026-03-22T08:50:57.859Z</time></trkpt><trkpt lat="41.87314982405676" lon="15.963141754162171"><ele>376.0</ele><time>2026-03-22T08:50:58.859Z</time></trkpt><trkpt lat="41.873173306321846" lon="15.96305061791765"><ele>374.33333333333337</ele><time>2026-03-22T08:50:59.859Z</time></trkpt><trkpt lat="41.87326517952428" lon="15.962931815534635"><ele>372.6666666666667</ele><time>2026-03-22T08:51:01.858Z</time></trkpt><trkpt lat="41.87333036899236" lon="15.962858464106366"><ele>371.0</ele><time>2026-03-22T08:51:02.858Z</time></trkpt><trkpt lat="41.87342646518839" lon="15.96275380245213"><ele>370.20000000000005</ele><time>2026-03-22T08:51:03.858Z</time></trkpt><trkpt lat="41.87350335559468" lon="15.962651712603614"><ele>369.40000000000003</ele><time>2026-03-22T08:51:04.858Z</time></trkpt><trkpt lat="41.87359062564227" lon="15.96256381786457"><ele>368.6</ele><time>2026-03-22T08:51:05.858Z</time></trkpt><trkpt lat="41.873647477159494" lon="15.962486017785164"><ele>367.8</ele><time>2026-03-22T08:51:06.858Z</time></trkpt><trkpt lat="41.873695980345644" lon="15.962404196658207"><ele>367.0</ele><time>2026-03-22T08:51:07.858Z</time></trkpt><trkpt lat="41.87377854344968" lon="15.962280381378882"><ele>367.0</ele><time>2026-03-22T08:51:08.858Z</time></trkpt><trkpt lat="41.873867339496876" lon="15.962128767395415"><ele>367.0</ele><time>2026-03-22T08:51:09.858Z</time></trkpt><trkpt lat="41.87394660131254" lon="15.96200323230705"><ele>367.0</ele><time>2026-03-22T08:51:10.858Z</time></trkpt><trkpt lat="41.87403715229618" lon="15.96189909107552"><ele>367.0</ele><time>2026-03-22T08:51:11.858Z</time></trkpt><trkpt lat="41.87410637897646" lon="15.96181672065525"><ele>367.0</ele><time>2026-03-22T08:51:12.858Z</time></trkpt><trkpt lat="41.874195389577764" lon="15.96172921172175"><ele>367.0</ele><time>2026-03-22T08:51:13.858Z</time></trkpt><trkpt lat="41.874295746132304" lon="15.961625429290207"><ele>367.0</ele><time>2026-03-22T08:51:14.858Z</time></trkpt><trkpt lat="41.87442511200203" lon="15.96151937708477"><ele>367.0</ele><time>2026-03-22T08:51:15.858Z</time></trkpt><trkpt lat="41.87452487033889" lon="15.961422142606148"><ele>367.0</ele><time>2026-03-22T08:51:16.858Z</time></trkpt><trkpt lat="41.874608892258266" lon="15.961344935704451"><ele>367.0</ele><time>2026-03-22T08:51:17.858Z</time></trkpt><trkpt lat="41.87468402359741" lon="15.961278295491232"><ele>367.0</ele><time>2026-03-22T08:51:18.858Z</time></trkpt><trkpt lat="41.87475462688936" lon="15.961219267615485"><ele>367.0</ele><time>2026-03-22T08:51:19.858Z</time></trkpt><trkpt lat="41.874832723109286" lon="15.96114972249084"><ele>367.0</ele><time>2026-03-22T08:51:20.858Z</time></trkpt><trkpt lat="41.87488150652024" lon="15.96105363447363"><ele>367.0</ele><time>2026-03-22T08:51:21.858Z</time></trkpt><trkpt lat="41.874944092852246" lon="15.960923811727621"><ele>367.0</ele><time>2026-03-22T08:51:22.858Z</time></trkpt><trkpt lat="41.87501222495256" lon="15.96079279610199"><ele>367.0</ele><time>2026-03-22T08:51:23.858Z</time></trkpt><trkpt lat="41.87508667877847" lon="15.960676095558593"><ele>367.0</ele><time>2026-03-22T08:51:24.858Z</time></trkpt><trkpt lat="41.87516479626538" lon="15.960589622522802"><ele>366.8333333333333</ele><time>2026-03-22T08:51:25.858Z</time></trkpt><trkpt lat="41.87522778325334" lon="15.960493804631586"><ele>366.66666666666663</ele><time>2026-03-22T08:51:26.858Z</time></trkpt><trkpt lat="41.875309445663795" lon="15.960393746129027"><ele>366.5</ele><time>2026-03-22T08:51:27.86Z</time></trkpt><trkpt lat="41.87535787456692" lon="15.96033890678632"><ele>366.3333333333333</ele><time>2026-03-22T08:51:28.86Z</time></trkpt><trkpt lat="41.875426878695336" lon="15.960295864379459"><ele>366.1666666666667</ele><time>2026-03-22T08:51:29.86Z</time></trkpt><trkpt lat="41.87548722836409" lon="15.960249543825878"><ele>366.0</ele><time>2026-03-22T08:51:30.86Z</time></trkpt><trkpt lat="41.87555798332201" lon="15.960215573613645"><ele>366.0</ele><time>2026-03-22T08:51:31.859Z</time></trkpt><trkpt lat="41.87561309215117" lon="15.96017083433322"><ele>366.0</ele><time>2026-03-22T08:51:32.859Z</time></trkpt><trkpt lat="41.87570772037964" lon="15.960160231312171"><ele>366.0</ele><time>2026-03-22T08:51:33.86Z</time></trkpt><trkpt lat="41.875789896673915" lon="15.960145067630721"><ele>366.0</ele><time>2026-03-22T08:51:34.86Z</time></trkpt><trkpt lat="41.87586090736982" lon="15.960108113611305"><ele>366.0</ele><time>2026-03-22T08:51:35.859Z</time></trkpt><trkpt lat="41.87593337212961" lon="15.96003902610454"><ele>366.0</ele><time>2026-03-22T08:51:37.859Z</time></trkpt><trkpt lat="41.875972822249594" lon="15.959934851451663"><ele>364.8333333333333</ele><time>2026-03-22T08:51:39.86Z</time></trkpt><trkpt lat="41.87601780347519" lon="15.959848036585951"><ele>363.6666666666667</ele><time>2026-03-22T08:51:40.859Z</time></trkpt><trkpt lat="41.87607484074428" lon="15.959757078615214"><ele>362.5</ele><time>2026-03-22T08:51:41.859Z</time></trkpt><trkpt lat="41.876135210782124" lon="15.959672804669925"><ele>361.33333333333337</ele><time>2026-03-22T08:51:42.859Z</time></trkpt><trkpt lat="41.876196264127195" lon="15.95960087738724"><ele>360.1666666666667</ele><time>2026-03-22T08:51:43.859Z</time></trkpt><trkpt lat="41.87625214972089" lon="15.959522482256526"><ele>359.0</ele><time>2026-03-22T08:51:44.859Z</time></trkpt><trkpt lat="41.87631453381281" lon="15.959446810477086"><ele>359.0</ele><time>2026-03-22T08:51:45.858Z</time></trkpt><trkpt lat="41.876374358185984" lon="15.959371098747111"><ele>359.0</ele><time>2026-03-22T08:51:47.858Z</time></trkpt><trkpt lat="41.87644507263013" lon="15.959251719559374"><ele>359.0</ele><time>2026-03-22T08:51:50.858Z</time></trkpt><trkpt lat="41.87650739067117" lon="15.959205498709402"><ele>359.0</ele><time>2026-03-22T08:51:51.858Z</time></trkpt><trkpt lat="41.876568131431824" lon="15.959095697335986"><ele>359.0</ele><time>2026-03-22T08:51:52.858Z</time></trkpt><trkpt lat="41.87664791792128" lon="15.959021800378586"><ele>359.79999999999995</ele><time>2026-03-22T08:51:53.858Z</time></trkpt><trkpt lat="41.87673056297603" lon="15.958912785102969"><ele>360.59999999999997</ele><time>2026-03-22T08:51:54.858Z</time></trkpt><trkpt lat="41.876797624214646" lon="15.958820792551107"><ele>361.4</ele><time>2026-03-22T08:51:55.858Z</time></trkpt><trkpt lat="41.876863302669996" lon="15.958701823004448"><ele>362.2</ele><time>2026-03-22T08:51:56.858Z</time></trkpt><trkpt lat="41.876907653079904" lon="15.958607947207062"><ele>363.0</ele><time>2026-03-22T08:51:57.858Z</time></trkpt><trkpt lat="41.87698008710534" lon="15.958537352792005"><ele>363.0</ele><time>2026-03-22T08:51:58.858Z</time></trkpt><trkpt lat="41.877033336442715" lon="15.958470818330362"><ele>363.0</ele><time>2026-03-22T08:51:59.858Z</time></trkpt><trkpt lat="41.8771070568671" lon="15.958410965794812"><ele>363.0</ele><time>2026-03-22T08:52:00.858Z</time></trkpt><trkpt lat="41.877211678754925" lon="15.958375300203333"><ele>363.0</ele><time>2026-03-22T08:52:01.858Z</time></trkpt><trkpt lat="41.87731444605325" lon="15.958336819282309"><ele>363.0</ele><time>2026-03-22T08:52:02.858Z</time></trkpt><trkpt lat="41.87743969239805" lon="15.958289342448923"><ele>359.25</ele><time>2026-03-22T08:52:03.858Z</time></trkpt><trkpt lat="41.877558202208675" lon="15.958271823701885"><ele>355.5</ele><time>2026-03-22T08:52:04.858Z</time></trkpt><trkpt lat="41.87771126719065" lon="15.958231362473809"><ele>351.75</ele><time>2026-03-22T08:52:05.858Z</time></trkpt><trkpt lat="41.87785866089893" lon="15.958200127404497"><ele>348.0</ele><time>2026-03-22T08:52:06.858Z</time></trkpt><trkpt lat="41.877997812680086" lon="15.958126639343506"><ele>348.0</ele><time>2026-03-22T08:52:07.858Z</time></trkpt><trkpt lat="41.8781427623264" lon="15.9580697052945"><ele>348.0</ele><time>2026-03-22T08:52:08.858Z</time></trkpt><trkpt lat="41.87826447730035" lon="15.958024559125592"><ele>348.0</ele><time>2026-03-22T08:52:09.858Z</time></trkpt><trkpt lat="41.87836187727512" lon="15.957960065637433"><ele>348.0</ele><time>2026-03-22T08:52:10.858Z</time></trkpt><trkpt lat="41.87844454680054" lon="15.957894451215505"><ele>347.2</ele><time>2026-03-22T08:52:11.858Z</time></trkpt><trkpt lat="41.87851916365139" lon="15.957802748071026"><ele>346.4</ele><time>2026-03-22T08:52:12.858Z</time></trkpt><trkpt lat="41.87857228324841" lon="15.957687611617047"><ele>345.59999999999997</ele><time>2026-03-22T08:52:13.858Z</time></trkpt><trkpt lat="41.87863578676781" lon="15.95757932705091"><ele>344.79999999999995</ele><time>2026-03-22T08:52:14.857Z</time></trkpt><trkpt lat="41.87867075021576" lon="15.957484386498585"><ele>344.0</ele><time>2026-03-22T08:52:15.857Z</time></trkpt><trkpt lat="41.87871339215939" lon="15.95737276296819"><ele>342.5</ele><time>2026-03-22T08:52:17.857Z</time></trkpt><trkpt lat="41.878654016116485" lon="15.957321385842018"><ele>341.0</ele><time>2026-03-22T08:52:21.857Z</time></trkpt><trkpt lat="41.87858748288755" lon="15.957323720878103"><ele>339.5</ele><time>2026-03-22T08:52:24.857Z</time></trkpt><trkpt lat="41.87853514216819" lon="15.957215788202289"><ele>338.0</ele><time>2026-03-22T08:52:27.857Z</time></trkpt><trkpt lat="41.87851057453014" lon="15.957115959423561"><ele>336.5</ele><time>2026-03-22T08:52:30.857Z</time></trkpt><trkpt lat="41.87849509507507" lon="15.957024016081922"><ele>335.0</ele><time>2026-03-22T08:52:33.857Z</time></trkpt><trkpt lat="41.87850881578976" lon="15.956927166847967"><ele>335.0</ele><time>2026-03-22T08:52:40.857Z</time></trkpt><trkpt lat="41.87852015002007" lon="15.956842491568256"><ele>335.0</ele><time>2026-03-22T08:52:44.856Z</time></trkpt><trkpt lat="41.87854128154686" lon="15.956733453235087"><ele>335.0</ele><time>2026-03-22T08:52:49.856Z</time></trkpt><trkpt lat="41.87857048041874" lon="15.956650876179866"><ele>335.0</ele><time>2026-03-22T08:52:50.856Z</time></trkpt><trkpt lat="41.8786301834481" lon="15.956547873561796"><ele>335.0</ele><time>2026-03-22T08:52:51.856Z</time></trkpt><trkpt lat="41.878690592821414" lon="15.956418838958273"><ele>335.0</ele><time>2026-03-22T08:52:52.856Z</time></trkpt><trkpt lat="41.87874534460359" lon="15.956284694287111"><ele>334.0</ele><time>2026-03-22T08:52:53.856Z</time></trkpt><trkpt lat="41.87880964356054" lon="15.95617012438922"><ele>333.0</ele><time>2026-03-22T08:52:54.856Z</time></trkpt><trkpt lat="41.87888108950381" lon="15.956070787540364"><ele>332.0</ele><time>2026-03-22T08:52:55.856Z</time></trkpt><trkpt lat="41.87896140519806" lon="15.955990055688245"><ele>331.0</ele><time>2026-03-22T08:52:56.856Z</time></trkpt><trkpt lat="41.87904578254945" lon="15.95591659103143"><ele>330.0</ele><time>2026-03-22T08:52:57.856Z</time></trkpt><trkpt lat="41.87913113971016" lon="15.95580683675976"><ele>329.6</ele><time>2026-03-22T08:52:58.856Z</time></trkpt><trkpt lat="41.87919718214428" lon="15.955692262536143"><ele>329.2</ele><time>2026-03-22T08:52:59.856Z</time></trkpt><trkpt lat="41.87923313261082" lon="15.95557062053166"><ele>328.79999999999995</ele><time>2026-03-22T08:53:00.856Z</time></trkpt><trkpt lat="41.87927526189109" lon="15.955437066845054"><ele>328.4</ele><time>2026-03-22T08:53:01.856Z</time></trkpt><trkpt lat="41.8793333594405" lon="15.955316281059341"><ele>328.0</ele><time>2026-03-22T08:53:02.856Z</time></trkpt><trkpt lat="41.879398200198374" lon="15.955251325332714"><ele>327.2</ele><time>2026-03-22T08:53:03.856Z</time></trkpt><trkpt lat="41.87949215737882" lon="15.955196618842594"><ele>326.4</ele><time>2026-03-22T08:53:04.856Z</time></trkpt><trkpt lat="41.87959509616428" lon="15.95514622472652"><ele>325.59999999999997</ele><time>2026-03-22T08:53:05.856Z</time></trkpt><trkpt lat="41.879699417548395" lon="15.955088184380894"><ele>324.79999999999995</ele><time>2026-03-22T08:53:06.856Z</time></trkpt><trkpt lat="41.879777994635106" lon="15.955017565451206"><ele>324.0</ele><time>2026-03-22T08:53:07.856Z</time></trkpt><trkpt lat="41.879834528525826" lon="15.954934717243388"><ele>324.0</ele><time>2026-03-22T08:53:08.856Z</time></trkpt><trkpt lat="41.879867189854274" lon="15.954855718338678"><ele>324.0</ele><time>2026-03-22T08:53:09.856Z</time></trkpt><trkpt lat="41.87988841350389" lon="15.954756609839665"><ele>324.0</ele><time>2026-03-22T08:53:10.856Z</time></trkpt><trkpt lat="41.879899769873845" lon="15.95464940926212"><ele>324.0</ele><time>2026-03-22T08:53:11.855Z</time></trkpt><trkpt lat="41.8799033511448" lon="15.954511443114367"><ele>324.0</ele><time>2026-03-22T08:53:12.855Z</time></trkpt><trkpt lat="41.87993875034809" lon="15.95435208485927"><ele>324.0</ele><time>2026-03-22T08:53:13.855Z</time></trkpt><trkpt lat="41.879982615407" lon="15.954191145756003"><ele>324.0</ele><time>2026-03-22T08:53:14.855Z</time></trkpt><trkpt lat="41.880034590829204" lon="15.954124853670901"><ele>324.0</ele><time>2026-03-22T08:53:15.855Z</time></trkpt><trkpt lat="41.88008018235933" lon="15.954046101655038"><ele>324.0</ele><time>2026-03-22T08:53:16.855Z</time></trkpt><trkpt lat="41.880116607192825" lon="15.953932658290904"><ele>324.0</ele><time>2026-03-22T08:53:17.855Z</time></trkpt><trkpt lat="41.88014755193541" lon="15.953819736945935"><ele>324.79999999999995</ele><time>2026-03-22T08:53:18.855Z</time></trkpt><trkpt lat="41.88017903100382" lon="15.953691216053763"><ele>325.59999999999997</ele><time>2026-03-22T08:53:19.855Z</time></trkpt><trkpt lat="41.88019636762551" lon="15.953565204445209"><ele>326.4</ele><time>2026-03-22T08:53:20.855Z</time></trkpt><trkpt lat="41.8802048603567" lon="15.953429483989074"><ele>327.2</ele><time>2026-03-22T08:53:21.855Z</time></trkpt><trkpt lat="41.88017435463499" lon="15.953297154782351"><ele>328.0</ele><time>2026-03-22T08:53:22.855Z</time></trkpt><trkpt lat="41.88012926243062" lon="15.953141342833302"><ele>328.0</ele><time>2026-03-22T08:53:23.855Z</time></trkpt><trkpt lat="41.88007509893108" lon="15.952982515077283"><ele>328.0</ele><time>2026-03-22T08:53:24.855Z</time></trkpt><trkpt lat="41.880020718224664" lon="15.952840392477944"><ele>328.0</ele><time>2026-03-22T08:53:25.855Z</time></trkpt><trkpt lat="41.87996936858829" lon="15.952716953262993"><ele>328.0</ele><time>2026-03-22T08:53:26.855Z</time></trkpt><trkpt lat="41.879940691886006" lon="15.9526069729591"><ele>328.0</ele><time>2026-03-22T08:53:27.855Z</time></trkpt><trkpt lat="41.87992330572317" lon="15.952478915748285"><ele>327.0</ele><time>2026-03-22T08:53:28.855Z</time></trkpt><trkpt lat="41.87993855800701" lon="15.952343869249399"><ele>326.0</ele><time>2026-03-22T08:53:29.855Z</time></trkpt><trkpt lat="41.8799728590633" lon="15.952178420382266"><ele>325.0</ele><time>2026-03-22T08:53:30.855Z</time></trkpt><trkpt lat="41.88001220957229" lon="15.951992747284075"><ele>324.0</ele><time>2026-03-22T08:53:31.855Z</time></trkpt><trkpt lat="41.88006681912982" lon="15.951799835073844"><ele>323.25</ele><time>2026-03-22T08:53:32.855Z</time></trkpt><trkpt lat="41.88010328523553" lon="15.951602083719733"><ele>322.5</ele><time>2026-03-22T08:53:33.857Z</time></trkpt><trkpt lat="41.88013538562026" lon="15.951445372958016"><ele>321.75</ele><time>2026-03-22T08:53:34.857Z</time></trkpt><trkpt lat="41.880171818989396" lon="15.951273946131009"><ele>321.0</ele><time>2026-03-22T08:53:35.857Z</time></trkpt><trkpt lat="41.88019680174497" lon="15.951099350308791"><ele>321.0</ele><time>2026-03-22T08:53:36.857Z</time></trkpt><trkpt lat="41.8802101185992" lon="15.950939311421706"><ele>321.0</ele><time>2026-03-22T08:53:37.857Z</time></trkpt><trkpt lat="41.88022637777862" lon="15.950782924958226"><ele>321.0</ele><time>2026-03-22T08:53:38.857Z</time></trkpt><trkpt lat="41.88022974195564" lon="15.950647113082015"><ele>321.0</ele><time>2026-03-22T08:53:39.857Z</time></trkpt><trkpt lat="41.88024635231294" lon="15.950501558814409"><ele>321.0</ele><time>2026-03-22T08:53:40.857Z</time></trkpt><trkpt lat="41.88028505916509" lon="15.950374964345343"><ele>319.75</ele><time>2026-03-22T08:53:41.857Z</time></trkpt><trkpt lat="41.88034124186687" lon="15.950254497076454"><ele>318.5</ele><time>2026-03-22T08:53:42.857Z</time></trkpt><trkpt lat="41.88042588419724" lon="15.950134657863096"><ele>317.25</ele><time>2026-03-22T08:53:43.857Z</time></trkpt><trkpt lat="41.88052014519328" lon="15.950009935644639"><ele>316.0</ele><time>2026-03-22T08:53:44.857Z</time></trkpt><trkpt lat="41.88060102002519" lon="15.949907150980458"><ele>315.8333333333333</ele><time>2026-03-22T08:53:45.857Z</time></trkpt><trkpt lat="41.88068026829971" lon="15.949844836582987"><ele>315.66666666666663</ele><time>2026-03-22T08:53:46.856Z</time></trkpt><trkpt lat="41.880760914779174" lon="15.949788908110426"><ele>315.5</ele><time>2026-03-22T08:53:47.856Z</time></trkpt><trkpt lat="41.88082358777626" lon="15.949740750095854"><ele>315.3333333333333</ele><time>2026-03-22T08:53:48.856Z</time></trkpt><trkpt lat="41.88088439754513" lon="15.949684004221304"><ele>315.1666666666667</ele><time>2026-03-22T08:53:49.856Z</time></trkpt><trkpt lat="41.88093352244936" lon="15.949604765583235"><ele>315.0</ele><time>2026-03-22T08:53:50.856Z</time></trkpt><trkpt lat="41.88098982345612" lon="15.949496537911251"><ele>315.0</ele><time>2026-03-22T08:53:51.856Z</time></trkpt><trkpt lat="41.88103756056066" lon="15.949356423769295"><ele>315.0</ele><time>2026-03-22T08:53:52.856Z</time></trkpt><trkpt lat="41.8810967044373" lon="15.949218179945571"><ele>315.0</ele><time>2026-03-22T08:53:53.856Z</time></trkpt><trkpt lat="41.88115594864225" lon="15.949110711528524"><ele>315.0</ele><time>2026-03-22T08:53:54.856Z</time></trkpt><trkpt lat="41.8811895496201" lon="15.949011417824439"><ele>315.0</ele><time>2026-03-22T08:53:55.856Z</time></trkpt><trkpt lat="41.881255287376085" lon="15.948952086907086"><ele>313.6666666666667</ele><time>2026-03-22T08:53:57.856Z</time></trkpt><trkpt lat="41.8813133800676" lon="15.948988459224957"><ele>312.3333333333333</ele><time>2026-03-22T08:54:00.856Z</time></trkpt><trkpt lat="41.88136275632022" lon="15.949083548218146"><ele>311.0</ele><time>2026-03-22T08:54:02.856Z</time></trkpt><trkpt lat="41.88143657047704" lon="15.949053856845982"><ele>309.66666666666663</ele><time>2026-03-22T08:54:04.855Z</time></trkpt><trkpt lat="41.88151012095595" lon="15.948927474876916"><ele>308.3333333333333</ele><time>2026-03-22T08:54:06.855Z</time></trkpt><trkpt lat="41.881549473398586" lon="15.948833497916688"><ele>307.0</ele><time>2026-03-22T08:54:07.855Z</time></trkpt><trkpt lat="41.88158922432027" lon="15.948720254745728"><ele>307.0</ele><time>2026-03-22T08:54:08.855Z</time></trkpt><trkpt lat="41.88162491189987" lon="15.948604848231973"><ele>307.0</ele><time>2026-03-22T08:54:09.855Z</time></trkpt><trkpt lat="41.88163293462857" lon="15.948509340146705"><ele>307.0</ele><time>2026-03-22T08:54:10.855Z</time></trkpt><trkpt lat="41.881619322926284" lon="15.948412804958986"><ele>307.0</ele><time>2026-03-22T08:54:11.855Z</time></trkpt><trkpt lat="41.88155975830984" lon="15.948281312876361"><ele>307.0</ele><time>2026-03-22T08:54:13.855Z</time></trkpt><trkpt lat="41.881525126374285" lon="15.948149585203922"><ele>306.6</ele><time>2026-03-22T08:54:15.855Z</time></trkpt><trkpt lat="41.88154671411834" lon="15.94800118884939"><ele>306.2</ele><time>2026-03-22T08:54:17.855Z</time></trkpt><trkpt lat="41.88158014039049" lon="15.947928220019072"><ele>305.8</ele><time>2026-03-22T08:54:18.855Z</time></trkpt><trkpt lat="41.881650754878635" lon="15.947761528746108"><ele>305.4</ele><time>2026-03-22T08:54:20.855Z</time></trkpt><trkpt lat="41.88167616971124" lon="15.947658369578185"><ele>305.0</ele><time>2026-03-22T08:54:21.855Z</time></trkpt><trkpt lat="41.8816781942536" lon="15.947558255396853"><ele>304.8</ele><time>2026-03-22T08:54:22.855Z</time></trkpt><trkpt lat="41.881654002083366" lon="15.947473096663845"><ele>304.6</ele><time>2026-03-22T08:54:23.855Z</time></trkpt><trkpt lat="41.881634309805264" lon="15.947387017835245"><ele>304.4</ele><time>2026-03-22T08:54:24.855Z</time></trkpt><trkpt lat="41.88160847995357" lon="15.947255507880168"><ele>304.2</ele><time>2026-03-22T08:54:25.855Z</time></trkpt><trkpt lat="41.88159215064235" lon="15.947085454440119"><ele>304.0</ele><time>2026-03-22T08:54:26.855Z</time></trkpt><trkpt lat="41.881569861399505" lon="15.9468931025108"><ele>303.25</ele><time>2026-03-22T08:54:27.855Z</time></trkpt><trkpt lat="41.881581003663754" lon="15.946691900545906"><ele>302.5</ele><time>2026-03-22T08:54:28.855Z</time></trkpt><trkpt lat="41.88159835973547" lon="15.946518120864807"><ele>301.75</ele><time>2026-03-22T08:54:29.855Z</time></trkpt><trkpt lat="41.88163842927703" lon="15.946350596341002"><ele>301.0</ele><time>2026-03-22T08:54:30.855Z</time></trkpt><trkpt lat="41.88164935434005" lon="15.946191138599044"><ele>301.0</ele><time>2026-03-22T08:54:31.855Z</time></trkpt><trkpt lat="41.881635189680395" lon="15.946034625756106"><ele>301.0</ele><time>2026-03-22T08:54:32.854Z</time></trkpt><trkpt lat="41.88160485544817" lon="15.945899467184104"><ele>301.0</ele><time>2026-03-22T08:54:33.854Z</time></trkpt><trkpt lat="41.88154562917612" lon="15.945782100917205"><ele>301.0</ele><time>2026-03-22T08:54:34.854Z</time></trkpt><trkpt lat="41.88146266173038" lon="15.945692299937841"><ele>301.0</ele><time>2026-03-22T08:54:35.854Z</time></trkpt><trkpt lat="41.88138974608425" lon="15.94561738310883"><ele>300.8</ele><time>2026-03-22T08:54:36.854Z</time></trkpt><trkpt lat="41.881344363776364" lon="15.945533776288437"><ele>300.6</ele><time>2026-03-22T08:54:37.854Z</time></trkpt><trkpt lat="41.881330050697315" lon="15.945433237019039"><ele>300.4</ele><time>2026-03-22T08:54:38.854Z</time></trkpt><trkpt lat="41.881340447693674" lon="15.945298573560178"><ele>300.2</ele><time>2026-03-22T08:54:39.854Z</time></trkpt><trkpt lat="41.88134317661756" lon="15.94512799003273"><ele>300.0</ele><time>2026-03-22T08:54:40.854Z</time></trkpt><trkpt lat="41.88134029881609" lon="15.944956174114521"><ele>300.0</ele><time>2026-03-22T08:54:41.854Z</time></trkpt><trkpt lat="41.881323474218505" lon="15.944805215767055"><ele>300.0</ele><time>2026-03-22T08:54:42.854Z</time></trkpt><trkpt lat="41.881290935802895" lon="15.944645536022767"><ele>300.0</ele><time>2026-03-22T08:54:43.854Z</time></trkpt><trkpt lat="41.88125712919838" lon="15.944499148938457"><ele>300.0</ele><time>2026-03-22T08:54:44.854Z</time></trkpt><trkpt lat="41.88122255038877" lon="15.944388711369951"><ele>300.0</ele><time>2026-03-22T08:54:45.854Z</time></trkpt><trkpt lat="41.88116822571827" lon="15.94431244577303"><ele>300.0</ele><time>2026-03-22T08:54:46.854Z</time></trkpt><trkpt lat="41.88112671820316" lon="15.944237444067971"><ele>300.0</ele><time>2026-03-22T08:54:47.854Z</time></trkpt><trkpt lat="41.88110961954348" lon="15.944114878056206"><ele>300.0</ele><time>2026-03-22T08:54:48.854Z</time></trkpt><trkpt lat="41.881084815772184" lon="15.944023946184974"><ele>300.0</ele><time>2026-03-22T08:54:49.854Z</time></trkpt><trkpt lat="41.881078523104925" lon="15.943910440600364"><ele>300.0</ele><time>2026-03-22T08:54:50.854Z</time></trkpt><trkpt lat="41.88106620618846" lon="15.943795168888075"><ele>300.0</ele><time>2026-03-22T08:54:51.854Z</time></trkpt><trkpt lat="41.88103706135187" lon="15.943689803374246"><ele>300.3333333333333</ele><time>2026-03-22T08:54:52.854Z</time></trkpt><trkpt lat="41.88099140889829" lon="15.943587801008627"><ele>300.6666666666667</ele><time>2026-03-22T08:54:53.854Z</time></trkpt><trkpt lat="41.88095791246246" lon="15.943505629209369"><ele>301.0</ele><time>2026-03-22T08:54:54.854Z</time></trkpt><trkpt lat="41.880938182965345" lon="15.9434132668338"><ele>301.33333333333337</ele><time>2026-03-22T08:54:55.854Z</time></trkpt><trkpt lat="41.88092406052727" lon="15.94324258290252"><ele>301.6666666666667</ele><time>2026-03-22T08:54:57.854Z</time></trkpt><trkpt lat="41.88091369254969" lon="15.943145187077004"><ele>302.0</ele><time>2026-03-22T08:54:58.854Z</time></trkpt><trkpt lat="41.88092427953882" lon="15.943046024241982"><ele>302.14285714285717</ele><time>2026-03-22T08:54:59.854Z</time></trkpt><trkpt lat="41.880942099576494" lon="15.942954381561172"><ele>302.2857142857143</ele><time>2026-03-22T08:55:00.854Z</time></trkpt><trkpt lat="41.88098634756615" lon="15.942873893849573"><ele>302.42857142857144</ele><time>2026-03-22T08:55:01.853Z</time></trkpt><trkpt lat="41.88102875698047" lon="15.942807779767673"><ele>302.57142857142856</ele><time>2026-03-22T08:55:02.853Z</time></trkpt><trkpt lat="41.88108687595579" lon="15.942741840512278"><ele>302.7142857142857</ele><time>2026-03-22T08:55:03.853Z</time></trkpt><trkpt lat="41.88113725324725" lon="15.942685468074847"><ele>302.8571428571429</ele><time>2026-03-22T08:55:04.853Z</time></trkpt><trkpt lat="41.88117493084773" lon="15.942591165512386"><ele>303.0</ele><time>2026-03-22T08:55:05.853Z</time></trkpt><trkpt lat="41.881192177583586" lon="15.942504029656376"><ele>302.0</ele><time>2026-03-22T08:55:06.853Z</time></trkpt><trkpt lat="41.88116043456514" lon="15.942370410406294"><ele>301.0</ele><time>2026-03-22T08:55:08.853Z</time></trkpt><trkpt lat="41.88109227273077" lon="15.942230817492552"><ele>300.0</ele><time>2026-03-22T08:55:10.853Z</time></trkpt><trkpt lat="41.8809883924583" lon="15.942117652215796"><ele>299.0</ele><time>2026-03-22T08:55:12.853Z</time></trkpt><trkpt lat="41.88091508693735" lon="15.942000150566464"><ele>298.59999999999997</ele><time>2026-03-22T08:55:14.853Z</time></trkpt><trkpt lat="41.880898480465824" lon="15.94189566272616"><ele>298.2</ele><time>2026-03-22T08:55:15.853Z</time></trkpt><trkpt lat="41.880883504317445" lon="15.94179277089235"><ele>297.79999999999995</ele><time>2026-03-22T08:55:16.853Z</time></trkpt><trkpt lat="41.880884435041885" lon="15.941664352847447"><ele>297.4</ele><time>2026-03-22T08:55:17.853Z</time></trkpt><trkpt lat="41.88091998763573" lon="15.941535555286848"><ele>297.0</ele><time>2026-03-22T08:55:18.853Z</time></trkpt><trkpt lat="41.880967221876055" lon="15.941405313566175"><ele>297.0</ele><time>2026-03-22T08:55:19.853Z</time></trkpt><trkpt lat="41.88101124799851" lon="15.941272996493629"><ele>297.0</ele><time>2026-03-22T08:55:20.853Z</time></trkpt><trkpt lat="41.88102810516333" lon="15.941150851401922"><ele>297.0</ele><time>2026-03-22T08:55:21.853Z</time></trkpt><trkpt lat="41.88101133929907" lon="15.941028175831576"><ele>297.0</ele><time>2026-03-22T08:55:22.853Z</time></trkpt><trkpt lat="41.880954067955656" lon="15.94094915397508"><ele>297.0</ele><time>2026-03-22T08:55:23.853Z</time></trkpt><trkpt lat="41.88088088974306" lon="15.940839903442093"><ele>295.1666666666667</ele><time>2026-03-22T08:55:24.853Z</time></trkpt><trkpt lat="41.880798061018375" lon="15.940718030260669"><ele>293.3333333333333</ele><time>2026-03-22T08:55:25.853Z</time></trkpt><trkpt lat="41.88074440753038" lon="15.940627175606073"><ele>291.5</ele><time>2026-03-22T08:55:26.853Z</time></trkpt><trkpt lat="41.8807086458629" lon="15.94054756706259"><ele>289.66666666666663</ele><time>2026-03-22T08:55:27.853Z</time></trkpt><trkpt lat="41.88067973328005" lon="15.940456030431505"><ele>287.8333333333333</ele><time>2026-03-22T08:55:28.853Z</time></trkpt><trkpt lat="41.88067001087956" lon="15.940337449504511"><ele>286.0</ele><time>2026-03-22T08:55:29.852Z</time></trkpt><trkpt lat="41.880671940437146" lon="15.940175070530362"><ele>285.5</ele><time>2026-03-22T08:55:30.852Z</time></trkpt><trkpt lat="41.880662239724366" lon="15.940030863451163"><ele>285.0</ele><time>2026-03-22T08:55:31.852Z</time></trkpt><trkpt lat="41.88066002610407" lon="15.939919665282032"><ele>284.5</ele><time>2026-03-22T08:55:32.852Z</time></trkpt><trkpt lat="41.88068789531141" lon="15.93981259507794"><ele>284.0</ele><time>2026-03-22T08:55:34.852Z</time></trkpt><trkpt lat="41.880696034191104" lon="15.939726692470886"><ele>283.5</ele><time>2026-03-22T08:55:49.855Z</time></trkpt><trkpt lat="41.88072236851323" lon="15.939594325487853"><ele>283.0</ele><time>2026-03-22T08:55:52.854Z</time></trkpt><trkpt lat="41.88075260560218" lon="15.93950211820563"><ele>283.0</ele><time>2026-03-22T08:55:53.854Z</time></trkpt><trkpt lat="41.8807861670049" lon="15.939361828805382"><ele>283.0</ele><time>2026-03-22T08:55:54.854Z</time></trkpt><trkpt lat="41.88081703422121" lon="15.939210799445924"><ele>283.0</ele><time>2026-03-22T08:55:55.854Z</time></trkpt><trkpt lat="41.88084304052539" lon="15.939087999398346"><ele>283.0</ele><time>2026-03-22T08:55:56.854Z</time></trkpt><trkpt lat="41.88083386768749" lon="15.938964635632738"><ele>283.0</ele><time>2026-03-22T08:55:57.854Z</time></trkpt><trkpt lat="41.88081498068878" lon="15.938822641159522"><ele>282.4</ele><time>2026-03-22T08:55:58.854Z</time></trkpt><trkpt lat="41.880774262100196" lon="15.938672107678535"><ele>281.8</ele><time>2026-03-22T08:55:59.853Z</time></trkpt><trkpt lat="41.880729519952" lon="15.93856089686814"><ele>281.2</ele><time>2026-03-22T08:56:00.853Z</time></trkpt><trkpt lat="41.88069464968628" lon="15.938441757257314"><ele>280.6</ele><time>2026-03-22T08:56:01.853Z</time></trkpt><trkpt lat="41.8806634409056" lon="15.938325724395972"><ele>280.0</ele><time>2026-03-22T08:56:02.853Z</time></trkpt><trkpt lat="41.88064517512746" lon="15.938208243897673"><ele>280.0</ele><time>2026-03-22T08:56:03.853Z</time></trkpt><trkpt lat="41.88064927260399" lon="15.938084341060303"><ele>280.0</ele><time>2026-03-22T08:56:04.853Z</time></trkpt><trkpt lat="41.88065103734178" lon="15.93795847799818"><ele>280.0</ele><time>2026-03-22T08:56:05.853Z</time></trkpt><trkpt lat="41.88066984981806" lon="15.93781058313882"><ele>280.0</ele><time>2026-03-22T08:56:06.853Z</time></trkpt><trkpt lat="41.88065796746211" lon="15.937654564632714"><ele>280.0</ele><time>2026-03-22T08:56:07.853Z</time></trkpt><trkpt lat="41.88061824771673" lon="15.937470692629695"><ele>280.25</ele><time>2026-03-22T08:56:08.853Z</time></trkpt><trkpt lat="41.88056696098185" lon="15.937282140222285"><ele>280.5</ele><time>2026-03-22T08:56:09.853Z</time></trkpt><trkpt lat="41.88051634405449" lon="15.937106807350895"><ele>280.75</ele><time>2026-03-22T08:56:10.853Z</time></trkpt><trkpt lat="41.88047857534421" lon="15.936936265517295"><ele>281.0</ele><time>2026-03-22T08:56:11.853Z</time></trkpt><trkpt lat="41.88043786092233" lon="15.936787694123543"><ele>281.25</ele><time>2026-03-22T08:56:12.853Z</time></trkpt><trkpt lat="41.880396587038724" lon="15.936627520565045"><ele>281.5</ele><time>2026-03-22T08:56:13.853Z</time></trkpt><trkpt lat="41.88033166990966" lon="15.936465288771403"><ele>281.75</ele><time>2026-03-22T08:56:14.853Z</time></trkpt><trkpt lat="41.8802780798988" lon="15.936309005470683"><ele>282.0</ele><time>2026-03-22T08:56:15.853Z</time></trkpt><trkpt lat="41.88021297705617" lon="15.936182388832771"><ele>282.0</ele><time>2026-03-22T08:56:16.853Z</time></trkpt><trkpt lat="41.88017561648666" lon="15.9360594053445"><ele>282.0</ele><time>2026-03-22T08:56:17.853Z</time></trkpt><trkpt lat="41.88014664639469" lon="15.935929424873322"><ele>282.0</ele><time>2026-03-22T08:56:18.853Z</time></trkpt><trkpt lat="41.880127928897785" lon="15.935801460717535"><ele>282.0</ele><time>2026-03-22T08:56:19.853Z</time></trkpt><trkpt lat="41.88009566513054" lon="15.935671698333408"><ele>282.0</ele><time>2026-03-22T08:56:20.853Z</time></trkpt><trkpt lat="41.88003942627214" lon="15.935532714571199"><ele>284.5</ele><time>2026-03-22T08:56:21.853Z</time></trkpt><trkpt lat="41.87994486682096" lon="15.935438088867938"><ele>287.0</ele><time>2026-03-22T08:56:22.853Z</time></trkpt><trkpt lat="41.87983224912611" lon="15.935338647961402"><ele>289.5</ele><time>2026-03-22T08:56:23.853Z</time></trkpt><trkpt lat="41.87972252558106" lon="15.935194369084162"><ele>292.0</ele><time>2026-03-22T08:56:24.853Z</time></trkpt><trkpt lat="41.87957208846701" lon="15.935035501941183"><ele>292.0</ele><time>2026-03-22T08:56:25.853Z</time></trkpt><trkpt lat="41.87943175529569" lon="15.934880752470468"><ele>292.0</ele><time>2026-03-22T08:56:26.853Z</time></trkpt><trkpt lat="41.87931391539442" lon="15.934747985944776"><ele>292.0</ele><time>2026-03-22T08:56:27.853Z</time></trkpt><trkpt lat="41.87921432854306" lon="15.934639739240485"><ele>294.5</ele><time>2026-03-22T08:56:28.852Z</time></trkpt><trkpt lat="41.87912097710342" lon="15.934542854629651"><ele>297.0</ele><time>2026-03-22T08:56:29.852Z</time></trkpt><trkpt lat="41.87903493966729" lon="15.934440890220717"><ele>299.5</ele><time>2026-03-22T08:56:30.852Z</time></trkpt><trkpt lat="41.878935108004384" lon="15.934373206889125"><ele>302.0</ele><time>2026-03-22T08:56:31.852Z</time></trkpt><trkpt lat="41.878823403981535" lon="15.93432448749135"><ele>302.0</ele><time>2026-03-22T08:56:32.852Z</time></trkpt><trkpt lat="41.87871100695512" lon="15.934294017402356"><ele>302.0</ele><time>2026-03-22T08:56:33.852Z</time></trkpt><trkpt lat="41.87858053199571" lon="15.934280642309854"><ele>302.0</ele><time>2026-03-22T08:56:34.852Z</time></trkpt><trkpt lat="41.878470038222645" lon="15.934277704508293"><ele>302.0</ele><time>2026-03-22T08:56:35.852Z</time></trkpt><trkpt lat="41.8783694959182" lon="15.9342648167225"><ele>301.0</ele><time>2026-03-22T08:56:36.852Z</time></trkpt><trkpt lat="41.87827956657632" lon="15.934254457279083"><ele>300.0</ele><time>2026-03-22T08:56:37.852Z</time></trkpt><trkpt lat="41.87819066084247" lon="15.934242604138083"><ele>299.0</ele><time>2026-03-22T08:56:38.852Z</time></trkpt><trkpt lat="41.878105734268054" lon="15.934236103790633"><ele>298.0</ele><time>2026-03-22T08:56:39.852Z</time></trkpt><trkpt lat="41.87801405430389" lon="15.93421352025461"><ele>297.0</ele><time>2026-03-22T08:56:40.852Z</time></trkpt><trkpt lat="41.877906603224474" lon="15.93416893488705"><ele>297.0</ele><time>2026-03-22T08:56:41.852Z</time></trkpt><trkpt lat="41.877790571150285" lon="15.934128304314907"><ele>297.0</ele><time>2026-03-22T08:56:42.852Z</time></trkpt><trkpt lat="41.87769455243977" lon="15.934111143973935"><ele>297.0</ele><time>2026-03-22T08:56:43.852Z</time></trkpt><trkpt lat="41.877598029810024" lon="15.934056780557295"><ele>297.0</ele><time>2026-03-22T08:56:44.852Z</time></trkpt><trkpt lat="41.87750528117426" lon="15.93398779445135"><ele>297.0</ele><time>2026-03-22T08:56:45.852Z</time></trkpt><trkpt lat="41.87740659004782" lon="15.933919482251763"><ele>296.8333333333333</ele><time>2026-03-22T08:56:46.852Z</time></trkpt><trkpt lat="41.877337737805945" lon="15.933872264575612"><ele>296.6666666666667</ele><time>2026-03-22T08:56:47.852Z</time></trkpt><trkpt lat="41.87725820152333" lon="15.933831769313587"><ele>296.5</ele><time>2026-03-22T08:56:48.852Z</time></trkpt><trkpt lat="41.8771850312293" lon="15.93382512820111"><ele>296.33333333333337</ele><time>2026-03-22T08:56:49.852Z</time></trkpt><trkpt lat="41.87710844975784" lon="15.93383313746217"><ele>296.1666666666667</ele><time>2026-03-22T08:56:50.852Z</time></trkpt><trkpt lat="41.87704383420272" lon="15.933895515090457"><ele>296.0</ele><time>2026-03-22T08:56:51.852Z</time></trkpt><trkpt lat="41.876982412892055" lon="15.933969144968597"><ele>296.0</ele><time>2026-03-22T08:56:52.852Z</time></trkpt><trkpt lat="41.8769180487104" lon="15.93401727765441"><ele>296.0</ele><time>2026-03-22T08:56:53.852Z</time></trkpt><trkpt lat="41.876858324332765" lon="15.934047824130106"><ele>296.0</ele><time>2026-03-22T08:56:54.852Z</time></trkpt><trkpt lat="41.8767403779882" lon="15.934132415383493"><ele>296.0</ele><time>2026-03-22T08:56:56.851Z</time></trkpt><trkpt lat="41.8766626594263" lon="15.934183457878094"><ele>296.0</ele><time>2026-03-22T08:56:58.851Z</time></trkpt><trkpt lat="41.8765512979571" lon="15.934143102772014"><ele>294.5</ele><time>2026-03-22T08:58:32.851Z</time></trkpt><trkpt lat="41.876490582170256" lon="15.93410532715519"><ele>293.0</ele><time>2026-03-22T09:04:54.844Z</time></trkpt><trkpt lat="41.87641443974469" lon="15.9340456338644"><ele>291.5</ele><time>2026-03-22T09:04:56.844Z</time></trkpt><trkpt lat="41.87634835136502" lon="15.934034555757366"><ele>290.0</ele><time>2026-03-22T09:04:57.844Z</time></trkpt><trkpt lat="41.87627831561788" lon="15.934044577422403"><ele>288.5</ele><time>2026-03-22T09:04:58.844Z</time></trkpt><trkpt lat="41.87617546667194" lon="15.93403158930015"><ele>287.0</ele><time>2026-03-22T09:04:59.844Z</time></trkpt><trkpt lat="41.876067933164975" lon="15.933979086759313"><ele>287.0</ele><time>2026-03-22T09:05:00.844Z</time></trkpt><trkpt lat="41.875969413347406" lon="15.933919425671201"><ele>287.0</ele><time>2026-03-22T09:05:01.844Z</time></trkpt><trkpt lat="41.87588508678787" lon="15.933821771928034"><ele>287.0</ele><time>2026-03-22T09:05:02.844Z</time></trkpt><trkpt lat="41.87583949181696" lon="15.933715778433745"><ele>287.0</ele><time>2026-03-22T09:05:03.844Z</time></trkpt><trkpt lat="41.87583065698746" lon="15.933573417873387"><ele>287.0</ele><time>2026-03-22T09:05:05.844Z</time></trkpt><trkpt lat="41.875838148226336" lon="15.933478285093498"><ele>287.33333333333337</ele><time>2026-03-22T09:05:06.844Z</time></trkpt><trkpt lat="41.87584350081073" lon="15.933392526485907"><ele>287.6666666666667</ele><time>2026-03-22T09:05:07.844Z</time></trkpt><trkpt lat="41.87579438786575" lon="15.93330771062257"><ele>288.0</ele><time>2026-03-22T09:05:09.844Z</time></trkpt><trkpt lat="41.875685448938114" lon="15.933262501719469"><ele>288.3333333333333</ele><time>2026-03-22T09:05:11.843Z</time></trkpt><trkpt lat="41.87563377375656" lon="15.933156132040232"><ele>288.66666666666663</ele><time>2026-03-22T09:05:13.843Z</time></trkpt><trkpt lat="41.875643287352545" lon="15.933062841782968"><ele>289.0</ele><time>2026-03-22T09:05:14.843Z</time></trkpt><trkpt lat="41.87565976852477" lon="15.932911400156167"><ele>291.59999999999997</ele><time>2026-03-22T09:05:16.843Z</time></trkpt><trkpt lat="41.87566541082399" lon="15.932786675956013"><ele>294.2</ele><time>2026-03-22T09:05:17.843Z</time></trkpt><trkpt lat="41.875668938115815" lon="15.932684806247414"><ele>296.79999999999995</ele><time>2026-03-22T09:05:18.843Z</time></trkpt><trkpt lat="41.875654948129345" lon="15.932562969046192"><ele>299.4</ele><time>2026-03-22T09:05:19.843Z</time></trkpt><trkpt lat="41.875663760453534" lon="15.93242361987552"><ele>302.0</ele><time>2026-03-22T09:05:20.843Z</time></trkpt><trkpt lat="41.87568147236731" lon="15.932301740165464"><ele>306.0</ele><time>2026-03-22T09:05:21.843Z</time></trkpt><trkpt lat="41.87572318003634" lon="15.932156800989128"><ele>310.0</ele><time>2026-03-22T09:05:22.843Z</time></trkpt><trkpt lat="41.87578345905584" lon="15.931988200263238"><ele>314.0</ele><time>2026-03-22T09:05:23.843Z</time></trkpt><trkpt lat="41.875847494995966" lon="15.931842931266125"><ele>318.0</ele><time>2026-03-22T09:05:24.843Z</time></trkpt><trkpt lat="41.87592337122864" lon="15.93171514586507"><ele>319.0</ele><time>2026-03-22T09:05:25.843Z</time></trkpt><trkpt lat="41.87602443497137" lon="15.931563532922823"><ele>320.0</ele><time>2026-03-22T09:05:26.843Z</time></trkpt><trkpt lat="41.876116955172236" lon="15.931426555303076"><ele>321.0</ele><time>2026-03-22T09:05:27.843Z</time></trkpt><trkpt lat="41.87620632002778" lon="15.931293808418927"><ele>322.0</ele><time>2026-03-22T09:05:28.843Z</time></trkpt><trkpt lat="41.87629668397831" lon="15.931144410480957"><ele>322.0</ele><time>2026-03-22T09:05:29.843Z</time></trkpt><trkpt lat="41.876355326136284" lon="15.931011478480599"><ele>322.0</ele><time>2026-03-22T09:05:30.843Z</time></trkpt><trkpt lat="41.87643164202608" lon="15.930881022480916"><ele>322.0</ele><time>2026-03-22T09:05:31.843Z</time></trkpt><trkpt lat="41.87649880613919" lon="15.930793729444824"><ele>322.0</ele><time>2026-03-22T09:05:32.843Z</time></trkpt><trkpt lat="41.876600540742814" lon="15.930730179197836"><ele>322.0</ele><time>2026-03-22T09:05:33.843Z</time></trkpt><trkpt lat="41.8766763948507" lon="15.93067547348913"><ele>324.8</ele><time>2026-03-22T09:05:34.843Z</time></trkpt><trkpt lat="41.87671220214861" lon="15.9305544082857"><ele>327.6</ele><time>2026-03-22T09:05:36.843Z</time></trkpt><trkpt lat="41.87672392527175" lon="15.930457197567735"><ele>330.40000000000003</ele><time>2026-03-22T09:05:37.843Z</time></trkpt><trkpt lat="41.8767440504895" lon="15.930338902673434"><ele>333.20000000000005</ele><time>2026-03-22T09:05:38.843Z</time></trkpt><trkpt lat="41.87677813242336" lon="15.930183556140605"><ele>336.0</ele><time>2026-03-22T09:05:39.842Z</time></trkpt><trkpt lat="41.87682272044365" lon="15.930009837126788"><ele>340.6</ele><time>2026-03-22T09:05:40.842Z</time></trkpt><trkpt lat="41.87687201390058" lon="15.929829605744446"><ele>345.20000000000005</ele><time>2026-03-22T09:05:41.842Z</time></trkpt><trkpt lat="41.87688905918494" lon="15.929667925256112"><ele>349.79999999999995</ele><time>2026-03-22T09:05:42.842Z</time></trkpt><trkpt lat="41.87688360818735" lon="15.929578039762694"><ele>354.4</ele><time>2026-03-22T09:05:43.842Z</time></trkpt><trkpt lat="41.87684481037471" lon="15.92948874555291"><ele>359.0</ele><time>2026-03-22T09:05:44.842Z</time></trkpt><trkpt lat="41.876810238049885" lon="15.929407499492926"><ele>363.4</ele><time>2026-03-22T09:05:45.842Z</time></trkpt><trkpt lat="41.876739304255004" lon="15.929365944099834"><ele>367.79999999999995</ele><time>2026-03-22T09:05:46.842Z</time></trkpt><trkpt lat="41.8766557371009" lon="15.929348553908065"><ele>372.20000000000005</ele><time>2026-03-22T09:05:47.842Z</time></trkpt><trkpt lat="41.87656297923298" lon="15.92937037200488"><ele>376.6</ele><time>2026-03-22T09:05:48.842Z</time></trkpt><trkpt lat="41.876466229400336" lon="15.929404365761961"><ele>381.0</ele><time>2026-03-22T09:05:49.842Z</time></trkpt><trkpt lat="41.87636862384177" lon="15.92946444680887"><ele>381.0</ele><time>2026-03-22T09:05:50.842Z</time></trkpt><trkpt lat="41.876276341521525" lon="15.929514414102638"><ele>381.0</ele><time>2026-03-22T09:05:51.842Z</time></trkpt><trkpt lat="41.87619118017888" lon="15.929530875338484"><ele>381.0</ele><time>2026-03-22T09:05:52.842Z</time></trkpt><trkpt lat="41.876106773755915" lon="15.929511400759917"><ele>381.0</ele><time>2026-03-22T09:05:53.842Z</time></trkpt><trkpt lat="41.87602618307301" lon="15.92947532090851"><ele>381.0</ele><time>2026-03-22T09:05:54.842Z</time></trkpt><trkpt lat="41.875914217296675" lon="15.929412006934069"><ele>383.0</ele><time>2026-03-22T09:05:55.842Z</time></trkpt><trkpt lat="41.875803814776745" lon="15.929380801871073"><ele>385.0</ele><time>2026-03-22T09:05:56.842Z</time></trkpt><trkpt lat="41.87568039467726" lon="15.929367961187054"><ele>387.0</ele><time>2026-03-22T09:05:57.842Z</time></trkpt><trkpt lat="41.875555805583105" lon="15.929371338603017"><ele>389.0</ele><time>2026-03-22T09:05:58.842Z</time></trkpt><trkpt lat="41.8754149326177" lon="15.92934628864718"><ele>389.0</ele><time>2026-03-22T09:05:59.842Z</time></trkpt><trkpt lat="41.87526111780124" lon="15.929295043167995"><ele>389.0</ele><time>2026-03-22T09:06:00.842Z</time></trkpt><trkpt lat="41.87513688014364" lon="15.929229868893723"><ele>389.0</ele><time>2026-03-22T09:06:01.842Z</time></trkpt><trkpt lat="41.875026764103964" lon="15.929189182635625"><ele>389.0</ele><time>2026-03-22T09:06:02.842Z</time></trkpt><trkpt lat="41.87491655696446" lon="15.929170895408292"><ele>393.0</ele><time>2026-03-22T09:06:03.842Z</time></trkpt><trkpt lat="41.87480215286284" lon="15.929154070577583"><ele>397.0</ele><time>2026-03-22T09:06:04.842Z</time></trkpt><trkpt lat="41.874699197832406" lon="15.929127356349396"><ele>401.0</ele><time>2026-03-22T09:06:05.842Z</time></trkpt><trkpt lat="41.874591900045964" lon="15.929099517109123"><ele>405.0</ele><time>2026-03-22T09:06:06.842Z</time></trkpt><trkpt lat="41.874500863453584" lon="15.929087920244289"><ele>409.0</ele><time>2026-03-22T09:06:07.843Z</time></trkpt><trkpt lat="41.87441899649995" lon="15.929096104474777"><ele>409.0</ele><time>2026-03-22T09:06:08.843Z</time></trkpt><trkpt lat="41.874325888595635" lon="15.929102682090136"><ele>409.0</ele><time>2026-03-22T09:06:09.843Z</time></trkpt><trkpt lat="41.8742388993298" lon="15.9291213358464"><ele>409.0</ele><time>2026-03-22T09:06:10.843Z</time></trkpt><trkpt lat="41.87414145723625" lon="15.929159604949064"><ele>409.0</ele><time>2026-03-22T09:06:11.843Z</time></trkpt><trkpt lat="41.87403504391397" lon="15.929181818214477"><ele>409.0</ele><time>2026-03-22T09:06:12.843Z</time></trkpt><trkpt lat="41.87391045999719" lon="15.929176563587058"><ele>413.0</ele><time>2026-03-22T09:06:13.843Z</time></trkpt><trkpt lat="41.87379960717793" lon="15.929158786693193"><ele>417.0</ele><time>2026-03-22T09:06:14.842Z</time></trkpt><trkpt lat="41.87369360258269" lon="15.929134130926684"><ele>421.0</ele><time>2026-03-22T09:06:15.842Z</time></trkpt><trkpt lat="41.87359585321547" lon="15.92913060505975"><ele>425.0</ele><time>2026-03-22T09:06:16.843Z</time></trkpt><trkpt lat="41.87349267776287" lon="15.929125283293105"><ele>429.0</ele><time>2026-03-22T09:06:17.843Z</time></trkpt><trkpt lat="41.873370781901414" lon="15.92912419486955"><ele>430.6</ele><time>2026-03-22T09:06:18.843Z</time></trkpt><trkpt lat="41.87326757669247" lon="15.929132001252777"><ele>432.2</ele><time>2026-03-22T09:06:19.843Z</time></trkpt><trkpt lat="41.87315480666795" lon="15.929123579156242"><ele>433.80000000000007</ele><time>2026-03-22T09:06:20.843Z</time></trkpt><trkpt lat="41.87306304755711" lon="15.929090795958274"><ele>435.40000000000003</ele><time>2026-03-22T09:06:21.843Z</time></trkpt><trkpt lat="41.87295257910495" lon="15.929021866597889"><ele>437.0</ele><time>2026-03-22T09:06:22.843Z</time></trkpt><trkpt lat="41.87283073875806" lon="15.928956634644235"><ele>437.0</ele><time>2026-03-22T09:06:23.843Z</time></trkpt><trkpt lat="41.87270311158357" lon="15.928882484612483"><ele>437.0</ele><time>2026-03-22T09:06:24.843Z</time></trkpt><trkpt lat="41.872586281066" lon="15.928803909166643"><ele>437.0</ele><time>2026-03-22T09:06:25.843Z</time></trkpt><trkpt lat="41.872484367881725" lon="15.928736111944025"><ele>437.0</ele><time>2026-03-22T09:06:26.843Z</time></trkpt><trkpt lat="41.872390179379316" lon="15.928687429257495"><ele>438.20000000000005</ele><time>2026-03-22T09:06:27.843Z</time></trkpt><trkpt lat="41.87229956513814" lon="15.928663736173458"><ele>439.40000000000003</ele><time>2026-03-22T09:06:28.842Z</time></trkpt><trkpt lat="41.87217572574881" lon="15.928582643853177"><ele>440.59999999999997</ele><time>2026-03-22T09:06:30.842Z</time></trkpt><trkpt lat="41.87210566303395" lon="15.928542801684666"><ele>441.79999999999995</ele><time>2026-03-22T09:06:31.842Z</time></trkpt><trkpt lat="41.872020379220814" lon="15.928465367017202"><ele>443.0</ele><time>2026-03-22T09:06:33.842Z</time></trkpt><trkpt lat="41.8719561210422" lon="15.928408045617367"><ele>444.2</ele><time>2026-03-22T09:06:35.842Z</time></trkpt><trkpt lat="41.87188147257132" lon="15.928361845203288"><ele>445.4</ele><time>2026-03-22T09:06:37.842Z</time></trkpt><trkpt lat="41.87183006726232" lon="15.928282983160756"><ele>446.59999999999997</ele><time>2026-03-22T09:06:38.842Z</time></trkpt><trkpt lat="41.87173894558823" lon="15.928200932353803"><ele>447.79999999999995</ele><time>2026-03-22T09:06:39.842Z</time></trkpt><trkpt lat="41.87165463877398" lon="15.928125160619002"><ele>449.0</ele><time>2026-03-22T09:06:40.842Z</time></trkpt><trkpt lat="41.87156295855024" lon="15.928062412317237"><ele>451.2</ele><time>2026-03-22T09:06:41.842Z</time></trkpt><trkpt lat="41.871472307449785" lon="15.927953363322432"><ele>453.4</ele><time>2026-03-22T09:06:42.842Z</time></trkpt><trkpt lat="41.871379649758666" lon="15.927869667345597"><ele>455.6</ele><time>2026-03-22T09:06:43.842Z</time></trkpt><trkpt lat="41.87130213928967" lon="15.927820111608222"><ele>457.8</ele><time>2026-03-22T09:06:44.842Z</time></trkpt><trkpt lat="41.87122196235283" lon="15.927779529563287"><ele>460.0</ele><time>2026-03-22T09:06:45.842Z</time></trkpt><trkpt lat="41.87115305486957" lon="15.927766080313186"><ele>460.0</ele><time>2026-03-22T09:06:46.842Z</time></trkpt><trkpt lat="41.87108460929366" lon="15.927741914541613"><ele>460.0</ele><time>2026-03-22T09:06:47.842Z</time></trkpt><trkpt lat="41.87095453573719" lon="15.92771361660108"><ele>460.0</ele><time>2026-03-22T09:06:49.842Z</time></trkpt><trkpt lat="41.870842839730734" lon="15.927732574872488"><ele>460.0</ele><time>2026-03-22T09:06:50.842Z</time></trkpt><trkpt lat="41.870727951189" lon="15.92771746264578"><ele>460.0</ele><time>2026-03-22T09:06:51.842Z</time></trkpt><trkpt lat="41.870608367584204" lon="15.927692960436751"><ele>457.0</ele><time>2026-03-22T09:06:52.842Z</time></trkpt><trkpt lat="41.870509096587554" lon="15.927697953908252"><ele>454.0</ele><time>2026-03-22T09:06:53.842Z</time></trkpt><trkpt lat="41.870403030941624" lon="15.92772852312752"><ele>451.0</ele><time>2026-03-22T09:06:54.842Z</time></trkpt><trkpt lat="41.87029036316528" lon="15.927761323727898"><ele>448.0</ele><time>2026-03-22T09:06:55.842Z</time></trkpt><trkpt lat="41.8701683130693" lon="15.927832975788201"><ele>449.0</ele><time>2026-03-22T09:06:56.841Z</time></trkpt><trkpt lat="41.870028776709425" lon="15.927896334529072"><ele>450.0</ele><time>2026-03-22T09:06:57.841Z</time></trkpt><trkpt lat="41.86985416963745" lon="15.92791466837643"><ele>451.0</ele><time>2026-03-22T09:06:58.841Z</time></trkpt><trkpt lat="41.869718329048794" lon="15.927937628832229"><ele>451.0</ele><time>2026-03-22T09:06:59.841Z</time></trkpt><trkpt lat="41.8696034259506" lon="15.927977872815202"><ele>451.0</ele><time>2026-03-22T09:07:00.841Z</time></trkpt><trkpt lat="41.869477714343" lon="15.927974455185467"><ele>451.0</ele><time>2026-03-22T09:07:01.841Z</time></trkpt><trkpt lat="41.86937367617031" lon="15.928000085255961"><ele>451.0</ele><time>2026-03-22T09:07:02.841Z</time></trkpt><trkpt lat="41.869270137329636" lon="15.928041494431904"><ele>457.0</ele><time>2026-03-22T09:07:03.841Z</time></trkpt><trkpt lat="41.86916334649667" lon="15.9281056005184"><ele>463.0</ele><time>2026-03-22T09:07:04.841Z</time></trkpt><trkpt lat="41.86906337917257" lon="15.92817440162318"><ele>469.0</ele><time>2026-03-22T09:07:05.841Z</time></trkpt><trkpt lat="41.86898299177401" lon="15.928220311900107"><ele>475.0</ele><time>2026-03-22T09:07:06.841Z</time></trkpt><trkpt lat="41.86889707835741" lon="15.928280840273713"><ele>481.0</ele><time>2026-03-22T09:07:07.841Z</time></trkpt><trkpt lat="41.868795297985244" lon="15.928366312850468"><ele>478.1666666666667</ele><time>2026-03-22T09:07:08.841Z</time></trkpt><trkpt lat="41.86869883957605" lon="15.928449705282299"><ele>475.33333333333337</ele><time>2026-03-22T09:07:09.841Z</time></trkpt><trkpt lat="41.868612815845935" lon="15.928492857233843"><ele>472.5</ele><time>2026-03-22T09:07:10.841Z</time></trkpt><trkpt lat="41.868537358375924" lon="15.928510869496133"><ele>469.66666666666663</ele><time>2026-03-22T09:07:11.841Z</time></trkpt><trkpt lat="41.86846631926598" lon="15.928556840404303"><ele>466.8333333333333</ele><time>2026-03-22T09:07:13.841Z</time></trkpt><trkpt lat="41.86839589745968" lon="15.928582200207526"><ele>464.0</ele><time>2026-03-22T09:07:14.841Z</time></trkpt><trkpt lat="41.86828454682898" lon="15.928608587426767"><ele>471.4</ele><time>2026-03-22T09:07:16.841Z</time></trkpt><trkpt lat="41.868221137529424" lon="15.928545711448015"><ele>478.79999999999995</ele><time>2026-03-22T09:07:19.841Z</time></trkpt><trkpt lat="41.86820766416709" lon="15.928431723354423"><ele>486.20000000000005</ele><time>2026-03-22T09:07:22.841Z</time></trkpt><trkpt lat="41.868244572610244" lon="15.928342495927788"><ele>493.6</ele><time>2026-03-22T09:07:23.841Z</time></trkpt><trkpt lat="41.8683532946221" lon="15.928178871761792"><ele>501.0</ele><time>2026-03-22T09:07:25.84Z</time></trkpt><trkpt lat="41.86842007060383" lon="15.928048306249096"><ele>500.6</ele><time>2026-03-22T09:07:26.84Z</time></trkpt><trkpt lat="41.86852385596081" lon="15.927898524956909"><ele>500.20000000000005</ele><time>2026-03-22T09:07:27.84Z</time></trkpt><trkpt lat="41.86858863700951" lon="15.927804937085988"><ele>499.79999999999995</ele><time>2026-03-22T09:07:28.84Z</time></trkpt><trkpt lat="41.86863539214157" lon="15.927729045159026"><ele>499.4</ele><time>2026-03-22T09:07:29.84Z</time></trkpt><trkpt lat="41.86868189695688" lon="15.927604955656472"><ele>499.0</ele><time>2026-03-22T09:07:31.84Z</time></trkpt><trkpt lat="41.868749824100206" lon="15.927549103341077"><ele>499.0</ele><time>2026-03-22T09:07:32.84Z</time></trkpt><trkpt lat="41.86880664123624" lon="15.927483519009705"><ele>499.0</ele><time>2026-03-22T09:07:33.84Z</time></trkpt><trkpt lat="41.868868232894165" lon="15.927426331230501"><ele>499.0</ele><time>2026-03-22T09:07:34.84Z</time></trkpt><trkpt lat="41.868945757429096" lon="15.927345979520478"><ele>499.0</ele><time>2026-03-22T09:07:35.84Z</time></trkpt><trkpt lat="41.86903067775264" lon="15.927215210905368"><ele>499.0</ele><time>2026-03-22T09:07:37.84Z</time></trkpt><trkpt lat="41.86906246487906" lon="15.927120490580643"><ele>499.0</ele><time>2026-03-22T09:07:38.84Z</time></trkpt><trkpt lat="41.86909454767428" lon="15.927013545729935"><ele>499.0</ele><time>2026-03-22T09:07:39.84Z</time></trkpt><trkpt lat="41.86919200923869" lon="15.926881931275139"><ele>499.0</ele><time>2026-03-22T09:07:40.84Z</time></trkpt><trkpt lat="41.86928320219376" lon="15.926747466077613"><ele>499.0</ele><time>2026-03-22T09:07:41.84Z</time></trkpt><trkpt lat="41.86940303267852" lon="15.926580444659656"><ele>501.25</ele><time>2026-03-22T09:07:42.84Z</time></trkpt><trkpt lat="41.86953480587438" lon="15.926461480982397"><ele>503.5</ele><time>2026-03-22T09:07:43.84Z</time></trkpt><trkpt lat="41.869657086612115" lon="15.926323521385026"><ele>505.75</ele><time>2026-03-22T09:07:44.84Z</time></trkpt><trkpt lat="41.86975142489785" lon="15.926202620795989"><ele>508.0</ele><time>2026-03-22T09:07:45.84Z</time></trkpt><trkpt lat="41.869811756185754" lon="15.926077322848228"><ele>508.0</ele><time>2026-03-22T09:07:46.84Z</time></trkpt><trkpt lat="41.869862678791335" lon="15.925939270327946"><ele>508.0</ele><time>2026-03-22T09:07:47.84Z</time></trkpt><trkpt lat="41.869949315743845" lon="15.925757881557985"><ele>508.0</ele><time>2026-03-22T09:07:48.84Z</time></trkpt><trkpt lat="41.870025804446854" lon="15.925595288689363"><ele>508.0</ele><time>2026-03-22T09:07:49.84Z</time></trkpt><trkpt lat="41.87011420259905" lon="15.925423564877587"><ele>507.5</ele><time>2026-03-22T09:07:50.84Z</time></trkpt><trkpt lat="41.87020120079299" lon="15.925288658234994"><ele>507.0</ele><time>2026-03-22T09:07:51.84Z</time></trkpt><trkpt lat="41.87026900075052" lon="15.925167105288608"><ele>506.5</ele><time>2026-03-22T09:07:52.84Z</time></trkpt><trkpt lat="41.87035407704974" lon="15.925064369053391"><ele>506.0</ele><time>2026-03-22T09:07:53.839Z</time></trkpt><trkpt lat="41.8704116851593" lon="15.924944581810276"><ele>506.0</ele><time>2026-03-22T09:07:54.839Z</time></trkpt><trkpt lat="41.870483405543524" lon="15.924837697597724"><ele>506.0</ele><time>2026-03-22T09:07:55.839Z</time></trkpt><trkpt lat="41.87054926242346" lon="15.924728777854494"><ele>506.0</ele><time>2026-03-22T09:07:56.839Z</time></trkpt><trkpt lat="41.87063446555421" lon="15.924609811811973"><ele>506.0</ele><time>2026-03-22T09:07:57.839Z</time></trkpt><trkpt lat="41.870715307252766" lon="15.924509926000548"><ele>506.0</ele><time>2026-03-22T09:07:58.839Z</time></trkpt><trkpt lat="41.87077657905763" lon="15.924392833526941"><ele>505.99999999999994</ele><time>2026-03-22T09:07:59.839Z</time></trkpt><trkpt lat="41.87083575400222" lon="15.924281624891513"><ele>506.0</ele><time>2026-03-22T09:08:00.839Z</time></trkpt><trkpt lat="41.87089700257986" lon="15.924199085721352"><ele>506.0</ele><time>2026-03-22T09:08:01.839Z</time></trkpt><trkpt lat="41.87094934802364" lon="15.924127206522614"><ele>506.0</ele><time>2026-03-22T09:08:02.839Z</time></trkpt><trkpt lat="41.87100441302934" lon="15.924040852408162"><ele>505.99999999999994</ele><time>2026-03-22T09:08:04.839Z</time></trkpt><trkpt lat="41.87100198218983" lon="15.923943998451193"><ele>506.0</ele><time>2026-03-22T09:08:08.839Z</time></trkpt><trkpt lat="41.870976323022575" lon="15.92384266172948"><ele>504.3333333333333</ele><time>2026-03-22T09:08:11.839Z</time></trkpt><trkpt lat="41.87098528154546" lon="15.923741062733946"><ele>502.66666666666663</ele><time>2026-03-22T09:08:17.841Z</time></trkpt><trkpt lat="41.87090845836646" lon="15.923669685925079"><ele>501.0</ele><time>2026-03-22T09:08:21.84Z</time></trkpt><trkpt lat="41.87083353643477" lon="15.923588545828837"><ele>499.33333333333337</ele><time>2026-03-22T09:08:24.84Z</time></trkpt><trkpt lat="41.870780356912" lon="15.923537148287169"><ele>497.6666666666667</ele><time>2026-03-22T09:08:26.84Z</time></trkpt><trkpt lat="41.87071690409149" lon="15.923487325576124"><ele>496.0</ele><time>2026-03-22T09:08:32.84Z</time></trkpt><trkpt lat="41.8706394673852" lon="15.923506250787923"><ele>496.00000000000006</ele><time>2026-03-22T09:08:38.84Z</time></trkpt><trkpt lat="41.870592774417794" lon="15.923427805356209"><ele>496.0</ele><time>2026-03-22T09:08:41.839Z</time></trkpt><trkpt lat="41.870550502094076" lon="15.923363451787553"><ele>496.0</ele><time>2026-03-22T09:08:44.839Z</time></trkpt><trkpt lat="41.87052665408325" lon="15.92327418011198"><ele>496.0</ele><time>2026-03-22T09:08:47.839Z</time></trkpt><trkpt lat="41.87047390017311" lon="15.923187457285858"><ele>496.00000000000006</ele><time>2026-03-22T09:08:50.839Z</time></trkpt><trkpt lat="41.870420398369234" lon="15.92309722245147"><ele>496.0</ele><time>2026-03-22T09:08:53.839Z</time></trkpt><trkpt lat="41.87037144995223" lon="15.923001461046697"><ele>493.6666666666667</ele><time>2026-03-22T09:08:58.839Z</time></trkpt><trkpt lat="41.870318531900054" lon="15.922944626840748"><ele>491.33333333333337</ele><time>2026-03-22T09:09:01.839Z</time></trkpt><trkpt lat="41.87027926545415" lon="15.92283663276135"><ele>489.0</ele><time>2026-03-22T09:09:04.839Z</time></trkpt><trkpt lat="41.870226305098335" lon="15.922745934697073"><ele>486.66666666666663</ele><time>2026-03-22T09:09:07.839Z</time></trkpt><trkpt lat="41.870180854122125" lon="15.922645733554916"><ele>484.3333333333333</ele><time>2026-03-22T09:09:11.838Z</time></trkpt><trkpt lat="41.87013936948478" lon="15.922553984537752"><ele>482.0</ele><time>2026-03-22T09:09:14.838Z</time></trkpt><trkpt lat="41.87011287296823" lon="15.922452400133494"><ele>476.16666666666663</ele><time>2026-03-22T09:09:17.838Z</time></trkpt><trkpt lat="41.87008633377447" lon="15.922364387993088"><ele>470.3333333333333</ele><time>2026-03-22T09:09:20.838Z</time></trkpt><trkpt lat="41.87002544989222" lon="15.922272791663342"><ele>464.5</ele><time>2026-03-22T09:09:23.838Z</time></trkpt><trkpt lat="41.869991605057315" lon="15.922168251843901"><ele>458.66666666666663</ele><time>2026-03-22T09:09:26.838Z</time></trkpt><trkpt lat="41.869942402465476" lon="15.922063238527294"><ele>452.8333333333333</ele><time>2026-03-22T09:09:29.838Z</time></trkpt><trkpt lat="41.869950481412744" lon="15.921955987824854"><ele>447.0</ele><time>2026-03-22T09:09:33.838Z</time></trkpt><trkpt lat="41.86993247206854" lon="15.9218661652415"><ele>446.99999999999994</ele><time>2026-03-22T09:09:37.837Z</time></trkpt><trkpt lat="41.86992274229245" lon="15.921778646083617"><ele>447.0</ele><time>2026-03-22T09:09:42.837Z</time></trkpt><trkpt lat="41.86993610872736" lon="15.921693384390991"><ele>447.0</ele><time>2026-03-22T09:09:47.837Z</time></trkpt><trkpt lat="41.86992885089101" lon="15.921596705727158"><ele>447.0</ele><time>2026-03-22T09:09:54.837Z</time></trkpt><trkpt lat="41.86991138893988" lon="15.921485345680821"><ele>447.0</ele><time>2026-03-22T09:09:57.837Z</time></trkpt><trkpt lat="41.86988859527805" lon="15.921392623709114"><ele>446.99999999999994</ele><time>2026-03-22T09:10:01.837Z</time></trkpt><trkpt lat="41.86989799646431" lon="15.921307100381545"><ele>447.0</ele><time>2026-03-22T09:10:07.836Z</time></trkpt><trkpt lat="41.869939225765975" lon="15.921213845478116"><ele>445.71428571428567</ele><time>2026-03-22T09:10:10.836Z</time></trkpt><trkpt lat="41.870001659884" lon="15.921169069243032"><ele>444.42857142857144</ele><time>2026-03-22T09:10:19.838Z</time></trkpt><trkpt lat="41.86998959730889" lon="15.921064653418512"><ele>443.1428571428571</ele><time>2026-03-22T09:10:36.838Z</time></trkpt><trkpt lat="41.870051048100265" lon="15.921090357314565"><ele>441.85714285714283</ele><time>2026-03-22T09:10:50.838Z</time></trkpt><trkpt lat="41.87001137777454" lon="15.920993435090123"><ele>440.57142857142856</ele><time>2026-03-22T09:11:00.837Z</time></trkpt><trkpt lat="41.86995752343922" lon="15.920947190342202"><ele>439.2857142857143</ele><time>2026-03-22T09:11:07.837Z</time></trkpt><trkpt lat="41.869906120316934" lon="15.92089699252991"><ele>438.0</ele><time>2026-03-22T09:11:22.836Z</time></trkpt><trkpt lat="41.869842698838944" lon="15.920859656479271"><ele>437.0</ele><time>2026-03-22T09:11:38.836Z</time></trkpt><trkpt lat="41.8698557067293" lon="15.920772388860481"><ele>435.99999999999994</ele><time>2026-03-22T09:12:30.835Z</time></trkpt><trkpt lat="41.86982997147711" lon="15.920680865677394"><ele>434.99999999999994</ele><time>2026-03-22T09:12:45.835Z</time></trkpt><trkpt lat="41.869716411247346" lon="15.920651328819124"><ele>434.0</ele><time>2026-03-22T09:13:07.834Z</time></trkpt><trkpt lat="41.86962818305915" lon="15.920570298222943"><ele>433.0</ele><time>2026-03-22T09:13:11.834Z</time></trkpt><trkpt lat="41.86953400188722" lon="15.920496214992587"><ele>433.00000000000006</ele><time>2026-03-22T09:13:13.834Z</time></trkpt><trkpt lat="41.869506236972335" lon="15.920418745928178"><ele>433.0</ele><time>2026-03-22T09:13:14.834Z</time></trkpt><trkpt lat="41.86944967979933" lon="15.92035909275772"><ele>433.0</ele><time>2026-03-22T09:13:15.834Z</time></trkpt><trkpt lat="41.86937282571983" lon="15.920248942973037"><ele>433.0</ele><time>2026-03-22T09:13:17.834Z</time></trkpt><trkpt lat="41.86931283833942" lon="15.920163598610095"><ele>433.00000000000006</ele><time>2026-03-22T09:13:19.834Z</time></trkpt><trkpt lat="41.86929093918047" lon="15.920046490988431"><ele>433.0</ele><time>2026-03-22T09:13:21.834Z</time></trkpt><trkpt lat="41.86928782317779" lon="15.919942194920043"><ele>430.83333333333337</ele><time>2026-03-22T09:13:24.834Z</time></trkpt><trkpt lat="41.86927283622136" lon="15.919822202378143"><ele>428.6666666666667</ele><time>2026-03-22T09:13:27.834Z</time></trkpt><trkpt lat="41.869245134851624" lon="15.91972832740758"><ele>426.5</ele><time>2026-03-22T09:13:33.834Z</time></trkpt><trkpt lat="41.86926901794931" lon="15.919633776470723"><ele>424.33333333333337</ele><time>2026-03-22T09:13:36.833Z</time></trkpt><trkpt lat="41.869238853006664" lon="15.919544347214087"><ele>422.1666666666667</ele><time>2026-03-22T09:13:40.833Z</time></trkpt><trkpt lat="41.8692113436881" lon="15.919462317554743"><ele>420.0</ele><time>2026-03-22T09:13:45.833Z</time></trkpt><trkpt lat="41.8691908816184" lon="15.919336974376025"><ele>420.0</ele><time>2026-03-22T09:13:51.833Z</time></trkpt><trkpt lat="41.86920848388424" lon="15.9192522027926"><ele>420.0</ele><time>2026-03-22T09:13:56.833Z</time></trkpt><trkpt lat="41.869157653863994" lon="15.919304527307737"><ele>420.0</ele><time>2026-03-22T09:14:05.832Z</time></trkpt><trkpt lat="41.86912154302585" lon="15.919229274334715"><ele>420.0</ele><time>2026-03-22T09:14:23.832Z</time></trkpt><trkpt lat="41.86918487540671" lon="15.919264719072654"><ele>420.0</ele><time>2026-03-22T09:14:41.833Z</time></trkpt><trkpt lat="41.86922323609913" lon="15.919194457870281"><ele>420.0</ele><time>2026-03-22T09:14:51.832Z</time></trkpt><trkpt lat="41.86928374995693" lon="15.919227018835812"><ele>420.0</ele><time>2026-03-22T09:14:53.832Z</time></trkpt><trkpt lat="41.86920947735467" lon="15.919193261318156"><ele>419.6666666666667</ele><time>2026-03-22T09:14:58.832Z</time></trkpt><trkpt lat="41.86912989721759" lon="15.919153955522916"><ele>419.33333333333337</ele><time>2026-03-22T09:15:04.832Z</time></trkpt><trkpt lat="41.86906789895612" lon="15.919132439242523"><ele>419.0</ele><time>2026-03-22T09:15:10.832Z</time></trkpt><trkpt lat="41.86916239385062" lon="15.919186745624247"><ele>418.6666666666667</ele><time>2026-03-22T09:15:33.831Z</time></trkpt><trkpt lat="41.8690779040197" lon="15.919161369528453"><ele>418.33333333333337</ele><time>2026-03-22T09:15:39.831Z</time></trkpt><trkpt lat="41.869036120218105" lon="15.919073794760324"><ele>418.0</ele><time>2026-03-22T09:16:16.829Z</time></trkpt><trkpt lat="41.869029744892785" lon="15.918987110271297"><ele>418.0</ele><time>2026-03-22T09:16:54.83Z</time></trkpt><trkpt lat="41.8690537114151" lon="15.918904938256325"><ele>418.0</ele><time>2026-03-22T09:17:17.829Z</time></trkpt><trkpt lat="41.868988157177974" lon="15.918947758485714"><ele>418.0</ele><time>2026-03-22T09:17:27.829Z</time></trkpt><trkpt lat="41.86892529837728" lon="15.91893609084694"><ele>418.0</ele><time>2026-03-22T09:18:15.827Z</time></trkpt><trkpt lat="41.868892773094785" lon="15.918863595237692"><ele>418.0</ele><time>2026-03-22T09:18:32.826Z</time></trkpt><trkpt lat="41.86886865890732" lon="15.918782347584111"><ele>418.0</ele><time>2026-03-22T09:18:35.826Z</time></trkpt><trkpt lat="41.868875120333854" lon="15.918685490504672"><ele>418.0</ele><time>2026-03-22T09:18:50.829Z</time></trkpt><trkpt lat="41.86883938266457" lon="15.91861471108493"><ele>418.00000000000006</ele><time>2026-03-22T09:18:55.828Z</time></trkpt><trkpt lat="41.86881769890656" lon="15.918518521790755"><ele>418.0</ele><time>2026-03-22T09:19:00.828Z</time></trkpt><trkpt lat="41.868792610899106" lon="15.918420569012255"><ele>418.0</ele><time>2026-03-22T09:19:05.828Z</time></trkpt><trkpt lat="41.86876620893743" lon="15.918339908373664"><ele>418.0</ele><time>2026-03-22T09:19:12.828Z</time></trkpt><trkpt lat="41.868749670666894" lon="15.918237978077476"><ele>418.00000000000006</ele><time>2026-03-22T09:19:19.827Z</time></trkpt><trkpt lat="41.86874052965546" lon="15.918149807648245"><ele>418.0</ele><time>2026-03-22T09:19:25.827Z</time></trkpt><trkpt lat="41.86877895217376" lon="15.918018532542078"><ele>416.85714285714283</ele><time>2026-03-22T09:20:00.826Z</time></trkpt><trkpt lat="41.8687534037721" lon="15.917913792805296"><ele>415.71428571428567</ele><time>2026-03-22T09:20:12.825Z</time></trkpt><trkpt lat="41.868788450234774" lon="15.917831900346266"><ele>414.57142857142856</ele><time>2026-03-22T09:20:20.825Z</time></trkpt><trkpt lat="41.86885774335264" lon="15.917769658445463"><ele>413.42857142857144</ele><time>2026-03-22T09:20:24.825Z</time></trkpt><trkpt lat="41.868880855630756" lon="15.917683759667016"><ele>412.2857142857143</ele><time>2026-03-22T09:20:39.824Z</time></trkpt><trkpt lat="41.868892769175716" lon="15.917596273283051"><ele>411.14285714285717</ele><time>2026-03-22T09:20:45.826Z</time></trkpt><trkpt lat="41.86895736775283" lon="15.917623711942325"><ele>410.0</ele><time>2026-03-22T09:20:51.826Z</time></trkpt><trkpt lat="41.8690267039556" lon="15.917591668192097"><ele>410.0</ele><time>2026-03-22T09:21:49.824Z</time></trkpt><trkpt lat="41.86908817075197" lon="15.91756347137297"><ele>410.0</ele><time>2026-03-22T09:22:02.823Z</time></trkpt><trkpt lat="41.86905663305533" lon="15.917470836459131"><ele>410.0</ele><time>2026-03-22T09:22:09.823Z</time></trkpt><trkpt lat="41.86904516677388" lon="15.917376620338379"><ele>410.0</ele><time>2026-03-22T09:22:14.823Z</time></trkpt><trkpt lat="41.86910692710055" lon="15.917337216171209"><ele>410.0</ele><time>2026-03-22T09:22:40.822Z</time></trkpt><trkpt lat="41.86907005002588" lon="15.91723945207685"><ele>410.0</ele><time>2026-03-22T09:22:47.822Z</time></trkpt><trkpt lat="41.86903878893238" lon="15.917163119764238"><ele>410.0</ele><time>2026-03-22T09:22:49.822Z</time></trkpt><trkpt lat="41.86900352806609" lon="15.917082886119758"><ele>410.0</ele><time>2026-03-22T09:22:52.823Z</time></trkpt><trkpt lat="41.86900681624563" lon="15.916949735439964"><ele>410.0</ele><time>2026-03-22T09:23:17.823Z</time></trkpt><trkpt lat="41.86900933589281" lon="15.916856594345981"><ele>410.0</ele><time>2026-03-22T09:23:20.823Z</time></trkpt><trkpt lat="41.869044088655606" lon="15.916778634561027"><ele>410.0</ele><time>2026-03-22T09:23:22.823Z</time></trkpt><trkpt lat="41.86907293664481" lon="15.916700202653168"><ele>410.0</ele><time>2026-03-22T09:23:26.823Z</time></trkpt><trkpt lat="41.86913790418666" lon="15.916693400081597"><ele>410.0</ele><time>2026-03-22T09:23:31.822Z</time></trkpt><trkpt lat="41.869128648519585" lon="15.9166054758459"><ele>410.0</ele><time>2026-03-22T09:24:33.82Z</time></trkpt><trkpt lat="41.86907161900544" lon="15.916552698814494"><ele>409.42857142857144</ele><time>2026-03-22T09:24:47.82Z</time></trkpt><trkpt lat="41.86903625521848" lon="15.916477776874643"><ele>408.85714285714283</ele><time>2026-03-22T09:24:55.819Z</time></trkpt><trkpt lat="41.86897761598304" lon="15.916378725408466"><ele>408.2857142857143</ele><time>2026-03-22T09:25:13.821Z</time></trkpt><trkpt lat="41.86891591160732" lon="15.916339643433137"><ele>407.7142857142857</ele><time>2026-03-22T09:26:32.818Z</time></trkpt><trkpt lat="41.86885142586981" lon="15.916290557714559"><ele>407.1428571428571</ele><time>2026-03-22T09:26:51.817Z</time></trkpt><trkpt lat="41.86880159933956" lon="15.916225359433883"><ele>406.57142857142856</ele><time>2026-03-22T09:27:07.819Z</time></trkpt><trkpt lat="41.86874817636145" lon="15.916169338551468"><ele>406.0</ele><time>2026-03-22T09:27:12.819Z</time></trkpt><trkpt lat="41.86868020818989" lon="15.91616027619288"><ele>406.0</ele><time>2026-03-22T09:27:20.818Z</time></trkpt><trkpt lat="41.86861013484297" lon="15.916188078525037"><ele>406.0</ele><time>2026-03-22T09:27:46.817Z</time></trkpt><trkpt lat="41.86860270643341" lon="15.916102454045824"><ele>406.0</ele><time>2026-03-22T09:28:18.816Z</time></trkpt><trkpt lat="41.86863503269548" lon="15.91602616123401"><ele>406.0</ele><time>2026-03-22T09:28:23.816Z</time></trkpt><trkpt lat="41.868674369337505" lon="15.915953099148199"><ele>406.0</ele><time>2026-03-22T09:28:29.816Z</time></trkpt><trkpt lat="41.868685416211086" lon="15.915866525707294"><ele>406.0</ele><time>2026-03-22T09:29:46.815Z</time></trkpt><trkpt lat="41.86862818443376" lon="15.91591781088887"><ele>406.0</ele><time>2026-03-22T09:30:09.814Z</time></trkpt><trkpt lat="41.86856759833703" lon="15.915965141415612"><ele>406.00000000000006</ele><time>2026-03-22T09:30:15.814Z</time></trkpt><trkpt lat="41.868468313537434" lon="15.916029424139275"><ele>406.0</ele><time>2026-03-22T09:30:36.814Z</time></trkpt><trkpt lat="41.86851083141736" lon="15.915954113650285"><ele>406.0</ele><time>2026-03-22T09:32:35.811Z</time></trkpt><trkpt lat="41.868509422538715" lon="15.916059680606022"><ele>406.0</ele><time>2026-03-22T09:34:02.811Z</time></trkpt><trkpt lat="41.86854884887095" lon="15.915976424674016"><ele>406.00000000000006</ele><time>2026-03-22T09:34:25.81Z</time></trkpt><trkpt lat="41.868507913898355" lon="15.915890422595512"><ele>406.0</ele><time>2026-03-22T09:34:31.81Z</time></trkpt><trkpt lat="41.86846820960966" lon="15.915817713392784"><ele>406.00000000000006</ele><time>2026-03-22T09:34:35.81Z</time></trkpt><trkpt lat="41.86845462747791" lon="15.915727859858256"><ele>406.0</ele><time>2026-03-22T09:34:53.809Z</time></trkpt><trkpt lat="41.86848070772295" lon="15.915606662929145"><ele>406.0</ele><time>2026-03-22T09:35:13.808Z</time></trkpt><trkpt lat="41.86842008899852" lon="15.915629695539199"><ele>406.0</ele><time>2026-03-22T09:35:31.809Z</time></trkpt><trkpt lat="41.868316984363965" lon="15.915643648644714"><ele>406.00000000000006</ele><time>2026-03-22T09:35:39.809Z</time></trkpt><trkpt lat="41.86826352041088" lon="15.91569430967088"><ele>406.0</ele><time>2026-03-22T09:35:46.809Z</time></trkpt><trkpt lat="41.86826000413929" lon="15.915602434897576"><ele>404.57142857142856</ele><time>2026-03-22T09:35:58.809Z</time></trkpt><trkpt lat="41.86830892087467" lon="15.915526480655009"><ele>403.1428571428571</ele><time>2026-03-22T09:36:03.808Z</time></trkpt><trkpt lat="41.868363255469404" lon="15.915431335580575"><ele>401.7142857142857</ele><time>2026-03-22T09:36:07.808Z</time></trkpt><trkpt lat="41.86833341517378" lon="15.915517957596155"><ele>400.2857142857143</ele><time>2026-03-22T09:36:38.807Z</time></trkpt><trkpt lat="41.86830172444485" lon="15.915591850594687"><ele>398.85714285714283</ele><time>2026-03-22T09:36:50.807Z</time></trkpt><trkpt lat="41.86823352227827" lon="15.915607117981589"><ele>397.42857142857144</ele><time>2026-03-22T09:37:13.806Z</time></trkpt><trkpt lat="41.868172443156936" lon="15.915571597355077"><ele>396.0</ele><time>2026-03-22T09:37:57.806Z</time></trkpt><trkpt lat="41.86812939352107" lon="15.915465375210976"><ele>396.0</ele><time>2026-03-22T09:38:01.806Z</time></trkpt><trkpt lat="41.86814360892007" lon="15.915376147402387"><ele>396.0</ele><time>2026-03-22T09:38:04.806Z</time></trkpt><trkpt lat="41.868181802885736" lon="15.91530447883594"><ele>396.0</ele><time>2026-03-22T09:38:09.806Z</time></trkpt><trkpt lat="41.86824589948045" lon="15.915244667883613"><ele>396.0</ele><time>2026-03-22T09:38:15.806Z</time></trkpt><trkpt lat="41.86830309794571" lon="15.915184899543906"><ele>396.0</ele><time>2026-03-22T09:38:19.806Z</time></trkpt><trkpt lat="41.86833611984507" lon="15.91509918585567"><ele>396.0</ele><time>2026-03-22T09:38:43.805Z</time></trkpt><trkpt lat="41.86831844642617" lon="15.915015222215818"><ele>396.0</ele><time>2026-03-22T09:38:47.805Z</time></trkpt><trkpt lat="41.868311380446706" lon="15.91492318866565"><ele>394.8571428571429</ele><time>2026-03-22T09:38:50.805Z</time></trkpt><trkpt lat="41.86832373768581" lon="15.914837586474361"><ele>393.71428571428567</ele><time>2026-03-22T09:38:54.804Z</time></trkpt><trkpt lat="41.868350092061135" lon="15.914739876017629"><ele>392.57142857142856</ele><time>2026-03-22T09:38:57.804Z</time></trkpt><trkpt lat="41.868357128664655" lon="15.914651553980805"><ele>391.42857142857144</ele><time>2026-03-22T09:39:04.804Z</time></trkpt><trkpt lat="41.86835695445986" lon="15.914544338260177"><ele>390.28571428571433</ele><time>2026-03-22T09:39:10.804Z</time></trkpt><trkpt lat="41.868339499774436" lon="15.914461035662923"><ele>389.1428571428571</ele><time>2026-03-22T09:39:14.804Z</time></trkpt><trkpt lat="41.86830734113035" lon="15.91437893381953"><ele>388.0</ele><time>2026-03-22T09:39:19.803Z</time></trkpt><trkpt lat="41.868256549138266" lon="15.914323727505893"><ele>388.00000000000006</ele><time>2026-03-22T09:39:23.803Z</time></trkpt><trkpt lat="41.86819442038397" lon="15.914241681179044"><ele>388.0</ele><time>2026-03-22T09:39:28.803Z</time></trkpt><trkpt lat="41.86816909785762" lon="15.914157186137041"><ele>388.0</ele><time>2026-03-22T09:39:33.803Z</time></trkpt><trkpt lat="41.8681284625124" lon="15.914072751734507"><ele>388.0</ele><time>2026-03-22T09:39:39.805Z</time></trkpt><trkpt lat="41.86809816659119" lon="15.91399756008071"><ele>388.00000000000006</ele><time>2026-03-22T09:39:43.804Z</time></trkpt><trkpt lat="41.86805879858525" lon="15.913923014568127"><ele>388.0</ele><time>2026-03-22T09:39:51.805Z</time></trkpt><trkpt lat="41.86796560234641" lon="15.913852310858216"><ele>389.0</ele><time>2026-03-22T09:39:53.805Z</time></trkpt><trkpt lat="41.86787723358918" lon="15.91375773100974"><ele>390.0</ele><time>2026-03-22T09:39:55.805Z</time></trkpt><trkpt lat="41.867825710538376" lon="15.913691312675047"><ele>391.0</ele><time>2026-03-22T09:39:57.805Z</time></trkpt><trkpt lat="41.867731690729975" lon="15.913616782063828"><ele>392.0</ele><time>2026-03-22T09:39:59.804Z</time></trkpt><trkpt lat="41.86765482404232" lon="15.913541652601342"><ele>393.0</ele><time>2026-03-22T09:40:01.804Z</time></trkpt><trkpt lat="41.867608333746844" lon="15.913463162918688"><ele>390.6666666666667</ele><time>2026-03-22T09:40:02.804Z</time></trkpt><trkpt lat="41.86755430486141" lon="15.913366210269677"><ele>388.3333333333333</ele><time>2026-03-22T09:40:03.804Z</time></trkpt><trkpt lat="41.86750346480672" lon="15.91324507664287"><ele>386.0</ele><time>2026-03-22T09:40:04.804Z</time></trkpt><trkpt lat="41.867458373654266" lon="15.913129693319048"><ele>383.66666666666663</ele><time>2026-03-22T09:40:05.804Z</time></trkpt><trkpt lat="41.86740832667927" lon="15.913075199661243"><ele>381.3333333333333</ele><time>2026-03-22T09:40:06.804Z</time></trkpt><trkpt lat="41.86736384035918" lon="15.913003976565356"><ele>379.0</ele><time>2026-03-22T09:40:07.804Z</time></trkpt><trkpt lat="41.86729010025253" lon="15.91287544707231"><ele>379.0</ele><time>2026-03-22T09:40:09.804Z</time></trkpt><trkpt lat="41.867242867027144" lon="15.91281348746598"><ele>379.0</ele><time>2026-03-22T09:40:11.804Z</time></trkpt><trkpt lat="41.86725422205719" lon="15.912703774330843"><ele>379.0</ele><time>2026-03-22T09:40:14.804Z</time></trkpt><trkpt lat="41.867267098951174" lon="15.912610138506324"><ele>379.0</ele><time>2026-03-22T09:40:17.804Z</time></trkpt><trkpt lat="41.86725074840231" lon="15.912489618236512"><ele>379.0</ele><time>2026-03-22T09:40:20.804Z</time></trkpt><trkpt lat="41.867248212113054" lon="15.912384598147147"><ele>379.0</ele><time>2026-03-22T09:40:23.804Z</time></trkpt><trkpt lat="41.867307919276804" lon="15.912328759474738"><ele>379.0</ele><time>2026-03-22T09:40:26.803Z</time></trkpt><trkpt lat="41.86726844580004" lon="15.912241486534226"><ele>379.0</ele><time>2026-03-22T09:40:32.803Z</time></trkpt><trkpt lat="41.86723063179615" lon="15.912142945661925"><ele>379.0</ele><time>2026-03-22T09:40:37.803Z</time></trkpt><trkpt lat="41.8671502853602" lon="15.912065912289682"><ele>379.0</ele><time>2026-03-22T09:40:39.803Z</time></trkpt><trkpt lat="41.86712715037011" lon="15.91198290722836"><ele>379.0</ele><time>2026-03-22T09:40:44.803Z</time></trkpt><trkpt lat="41.8670666782406" lon="15.911894204443369"><ele>379.0</ele><time>2026-03-22T09:40:47.803Z</time></trkpt><trkpt lat="41.86700211407029" lon="15.911838872391426"><ele>379.00000000000006</ele><time>2026-03-22T09:40:50.803Z</time></trkpt><trkpt lat="41.86702126299627" lon="15.911745019451653"><ele>379.0</ele><time>2026-03-22T09:40:54.803Z</time></trkpt><trkpt lat="41.86693823915778" lon="15.911735278508482"><ele>379.0</ele><time>2026-03-22T09:41:06.802Z</time></trkpt><trkpt lat="41.86686957391825" lon="15.911696194527712"><ele>379.0</ele><time>2026-03-22T09:41:08.802Z</time></trkpt><trkpt lat="41.866808086076716" lon="15.911667514214793"><ele>379.0</ele><time>2026-03-22T09:41:10.802Z</time></trkpt><trkpt lat="41.86673734473864" lon="15.911639218297127"><ele>379.00000000000006</ele><time>2026-03-22T09:41:15.802Z</time></trkpt><trkpt lat="41.86667280012052" lon="15.911652219006454"><ele>379.0</ele><time>2026-03-22T09:41:20.802Z</time></trkpt><trkpt lat="41.866563232831254" lon="15.911622952198107"><ele>377.5</ele><time>2026-03-22T09:41:31.801Z</time></trkpt><trkpt lat="41.86654400883987" lon="15.911541343614795"><ele>376.0</ele><time>2026-03-22T09:41:43.801Z</time></trkpt><trkpt lat="41.86647888307285" lon="15.911532198598476"><ele>374.5</ele><time>2026-03-22T09:42:07.801Z</time></trkpt><trkpt lat="41.86652103126356" lon="15.91146310039303"><ele>373.0</ele><time>2026-03-22T09:43:20.799Z</time></trkpt><trkpt lat="41.86652919322623" lon="15.911373934178672"><ele>371.5</ele><time>2026-03-22T09:45:38.796Z</time></trkpt><trkpt lat="41.86646778102559" lon="15.911402858446616"><ele>370.0</ele><time>2026-03-22T09:47:08.795Z</time></trkpt><trkpt lat="41.866594899881754" lon="15.911408416790213"><ele>370.0</ele><time>2026-03-22T09:47:26.795Z</time></trkpt><trkpt lat="41.8666735770746" lon="15.911469509983894"><ele>370.0</ele><time>2026-03-22T09:48:09.795Z</time></trkpt><trkpt lat="41.86661299395607" lon="15.911497246324233"><ele>370.0</ele><time>2026-03-22T09:49:09.792Z</time></trkpt><trkpt lat="41.86661398448642" lon="15.911406033130715"><ele>370.0</ele><time>2026-03-22T09:49:16.792Z</time></trkpt><trkpt lat="41.866769441933386" lon="15.91136436596128"><ele>370.0</ele><time>2026-03-22T09:58:45.782Z</time></trkpt><trkpt lat="41.86668944730979" lon="15.911397946438925"><ele>369.99999999999994</ele><time>2026-03-22T09:58:55.782Z</time></trkpt><trkpt lat="41.86662096808196" lon="15.911411267692424"><ele>370.0</ele><time>2026-03-22T09:59:04.782Z</time></trkpt><trkpt lat="41.86655511800705" lon="15.911396752802887"><ele>370.0</ele><time>2026-03-22T09:59:15.781Z</time></trkpt><trkpt lat="41.86651405543168" lon="15.91131191127865"><ele>370.0</ele><time>2026-03-22T10:00:39.781Z</time></trkpt><trkpt lat="41.866475828845466" lon="15.911235815437989"><ele>370.0</ele><time>2026-03-22T10:00:42.781Z</time></trkpt><trkpt lat="41.86643963809667" lon="15.911155207701087"><ele>369.99999999999994</ele><time>2026-03-22T10:00:45.78Z</time></trkpt><trkpt lat="41.8663801048109" lon="15.911183166164456"><ele>370.0</ele><time>2026-03-22T10:00:58.78Z</time></trkpt><trkpt lat="41.86636281661109" lon="15.911295731387845"><ele>369.99999999999994</ele><time>2026-03-22T10:01:00.78Z</time></trkpt><trkpt lat="41.86634593209589" lon="15.911387836030885"><ele>370.0</ele><time>2026-03-22T10:01:01.78Z</time></trkpt><trkpt lat="41.866344357206344" lon="15.911487255794432"><ele>370.0</ele><time>2026-03-22T10:01:02.78Z</time></trkpt><trkpt lat="41.86633444063176" lon="15.911601768013158"><ele>370.0</ele><time>2026-03-22T10:01:04.78Z</time></trkpt><trkpt lat="41.866305900360906" lon="15.911687307808112"><ele>370.0</ele><time>2026-03-22T10:01:12.78Z</time></trkpt><trkpt lat="41.86624146993251" lon="15.911717465253611"><ele>369.99999999999994</ele><time>2026-03-22T10:01:16.779Z</time></trkpt><trkpt lat="41.866186545372614" lon="15.911771534397257"><ele>370.0</ele><time>2026-03-22T10:01:21.779Z</time></trkpt><trkpt lat="41.866100480678384" lon="15.91172015560479"><ele>371.85714285714283</ele><time>2026-03-22T10:01:39.779Z</time></trkpt><trkpt lat="41.8661034529782" lon="15.911813222128904"><ele>373.7142857142857</ele><time>2026-03-22T10:01:50.778Z</time></trkpt><trkpt lat="41.86607119270004" lon="15.911924840457477"><ele>375.57142857142856</ele><time>2026-03-22T10:01:54.778Z</time></trkpt><trkpt lat="41.86605800452118" lon="15.912016578161905"><ele>377.42857142857144</ele><time>2026-03-22T10:02:09.778Z</time></trkpt><trkpt lat="41.86608048347012" lon="15.912107674602249"><ele>379.2857142857143</ele><time>2026-03-22T10:02:14.777Z</time></trkpt><trkpt lat="41.86604818389719" lon="15.912180419334437"><ele>381.1428571428571</ele><time>2026-03-22T10:02:39.776Z</time></trkpt><trkpt lat="41.86609293614045" lon="15.912267244776636"><ele>383.0</ele><time>2026-03-22T10:03:04.778Z</time></trkpt><trkpt lat="41.86609344751884" lon="15.912366420079664"><ele>383.0</ele><time>2026-03-22T10:03:09.778Z</time></trkpt><trkpt lat="41.86606317146126" lon="15.912469775059263"><ele>383.0</ele><time>2026-03-22T10:03:14.778Z</time></trkpt><trkpt lat="41.866028882099016" lon="15.912541841673743"><ele>383.0</ele><time>2026-03-22T10:03:27.777Z</time></trkpt><trkpt lat="41.86601002623001" lon="15.91262618185236"><ele>383.0</ele><time>2026-03-22T10:03:34.777Z</time></trkpt><trkpt lat="41.86598875184555" lon="15.91271705895553"><ele>383.0</ele><time>2026-03-22T10:03:40.777Z</time></trkpt><trkpt lat="41.865945325059805" lon="15.912788036310468"><ele>383.0</ele><time>2026-03-22T10:03:43.777Z</time></trkpt><trkpt lat="41.865910104988764" lon="15.912869694324058"><ele>383.0</ele><time>2026-03-22T10:03:47.777Z</time></trkpt><trkpt lat="41.86585055548932" lon="15.912916605793479"><ele>388.6666666666667</ele><time>2026-03-22T10:03:54.776Z</time></trkpt><trkpt lat="41.86583181413774" lon="15.913012139814064"><ele>394.33333333333337</ele><time>2026-03-22T10:04:26.775Z</time></trkpt><trkpt lat="41.86579716056852" lon="15.913150757229582"><ele>400.0</ele><time>2026-03-22T10:05:16.776Z</time></trkpt><trkpt lat="41.865758172638444" lon="15.913247351376084"><ele>405.6666666666667</ele><time>2026-03-22T10:05:22.775Z</time></trkpt><trkpt lat="41.86577233296211" lon="15.913335111305782"><ele>411.3333333333333</ele><time>2026-03-22T10:05:27.775Z</time></trkpt><trkpt lat="41.865774974474235" lon="15.913430926563665"><ele>417.0</ele><time>2026-03-22T10:05:32.775Z</time></trkpt><trkpt lat="41.86579204678869" lon="15.913532193113722"><ele>417.0</ele><time>2026-03-22T10:05:47.775Z</time></trkpt><trkpt lat="41.8658470327177" lon="15.91358943840981"><ele>417.0</ele><time>2026-03-22T10:05:59.774Z</time></trkpt><trkpt lat="41.86584829403738" lon="15.913704505224898"><ele>417.0</ele><time>2026-03-22T10:07:09.773Z</time></trkpt><trkpt lat="41.8658504086271" lon="15.913576381641866"><ele>417.0</ele><time>2026-03-22T10:08:19.771Z</time></trkpt><trkpt lat="41.865814102435245" lon="15.913505498657173"><ele>417.0</ele><time>2026-03-22T10:08:29.77Z</time></trkpt><trkpt lat="41.86577832454689" lon="15.913425752272518"><ele>417.0</ele><time>2026-03-22T10:08:34.77Z</time></trkpt><trkpt lat="41.86579190025512" lon="15.913341085828055"><ele>417.0</ele><time>2026-03-22T10:08:38.77Z</time></trkpt><trkpt lat="41.86580644750258" lon="15.91323337815673"><ele>417.0</ele><time>2026-03-22T10:08:55.769Z</time></trkpt><trkpt lat="41.865834586810855" lon="15.913122493749572"><ele>417.0</ele><time>2026-03-22T10:08:59.771Z</time></trkpt><trkpt lat="41.865860971889454" lon="15.913030351149771"><ele>417.0</ele><time>2026-03-22T10:09:03.771Z</time></trkpt><trkpt lat="41.86590551996998" lon="15.912928725235355"><ele>417.0</ele><time>2026-03-22T10:09:09.771Z</time></trkpt><trkpt lat="41.86591223985132" lon="15.912839608000828"><ele>417.0</ele><time>2026-03-22T10:09:12.771Z</time></trkpt><trkpt lat="41.86593528243843" lon="15.912760650261651"><ele>417.0</ele><time>2026-03-22T10:09:15.771Z</time></trkpt><trkpt lat="41.865948204194666" lon="15.91266382376724"><ele>413.8571428571429</ele><time>2026-03-22T10:09:19.771Z</time></trkpt><trkpt lat="41.865969367381474" lon="15.912576380163655"><ele>410.71428571428567</ele><time>2026-03-22T10:09:23.771Z</time></trkpt><trkpt lat="41.86596324450029" lon="15.912488399535004"><ele>407.57142857142856</ele><time>2026-03-22T10:09:26.771Z</time></trkpt><trkpt lat="41.86595678125182" lon="15.91239853778028"><ele>404.42857142857144</ele><time>2026-03-22T10:09:29.771Z</time></trkpt><trkpt lat="41.86595745407513" lon="15.912312588870877"><ele>401.28571428571433</ele><time>2026-03-22T10:09:33.771Z</time></trkpt><trkpt lat="41.86596152693527" lon="15.912225182644653"><ele>398.1428571428571</ele><time>2026-03-22T10:09:39.77Z</time></trkpt><trkpt lat="41.865938215676856" lon="15.912109560255386"><ele>395.0</ele><time>2026-03-22T10:09:43.77Z</time></trkpt><trkpt lat="41.86592599562609" lon="15.912015858367639"><ele>395.0</ele><time>2026-03-22T10:09:47.77Z</time></trkpt><trkpt lat="41.86594685711265" lon="15.911903650976154"><ele>395.0</ele><time>2026-03-22T10:09:51.77Z</time></trkpt><trkpt lat="41.86594268471978" lon="15.911797138865511"><ele>395.0</ele><time>2026-03-22T10:09:54.77Z</time></trkpt><trkpt lat="41.86594114492848" lon="15.911665094102526"><ele>395.0</ele><time>2026-03-22T10:09:58.77Z</time></trkpt><trkpt lat="41.86591604887786" lon="15.911537698055497"><ele>395.0</ele><time>2026-03-22T10:10:00.77Z</time></trkpt><trkpt lat="41.86588924628551" lon="15.911423540618824"><ele>391.0</ele><time>2026-03-22T10:10:02.77Z</time></trkpt><trkpt lat="41.86589818180107" lon="15.91121457763149"><ele>387.0</ele><time>2026-03-22T10:10:05.769Z</time></trkpt><trkpt lat="41.86586428463658" lon="15.91113208338868"><ele>383.0</ele><time>2026-03-22T10:10:07.769Z</time></trkpt><trkpt lat="41.86582619648374" lon="15.911011533267805"><ele>379.0</ele><time>2026-03-22T10:10:09.769Z</time></trkpt><trkpt lat="41.865801562801536" lon="15.91092586079119"><ele>375.0</ele><time>2026-03-22T10:10:12.769Z</time></trkpt><trkpt lat="41.86573638872882" lon="15.910829966061781"><ele>372.14285714285717</ele><time>2026-03-22T10:10:14.769Z</time></trkpt><trkpt lat="41.86573268825877" lon="15.910728500160213"><ele>369.2857142857143</ele><time>2026-03-22T10:10:18.769Z</time></trkpt><trkpt lat="41.865724200294906" lon="15.910622832956827"><ele>366.42857142857144</ele><time>2026-03-22T10:10:24.769Z</time></trkpt><trkpt lat="41.865720768189895" lon="15.910536041594783"><ele>363.57142857142856</ele><time>2026-03-22T10:10:29.769Z</time></trkpt><trkpt lat="41.8657110318749" lon="15.910451629303237"><ele>360.7142857142857</ele><time>2026-03-22T10:10:36.768Z</time></trkpt><trkpt lat="41.86564306607388" lon="15.910484836568946"><ele>357.85714285714283</ele><time>2026-03-22T10:14:36.764Z</time></trkpt><trkpt lat="41.86571247254389" lon="15.91048320541008"><ele>355.0</ele><time>2026-03-22T10:14:45.763Z</time></trkpt><trkpt lat="41.86580770544174" lon="15.910554476283513"><ele>355.0</ele><time>2026-03-22T10:14:48.763Z</time></trkpt><trkpt lat="41.86586137866422" lon="15.910660280087505"><ele>355.0</ele><time>2026-03-22T10:14:49.763Z</time></trkpt><trkpt lat="41.865901147742534" lon="15.91075737712964"><ele>355.0</ele><time>2026-03-22T10:14:51.763Z</time></trkpt><trkpt lat="41.86596261480141" lon="15.910801492516697"><ele>355.0</ele><time>2026-03-22T10:14:55.763Z</time></trkpt><trkpt lat="41.865987409682376" lon="15.910901720997924"><ele>355.0</ele><time>2026-03-22T10:14:58.763Z</time></trkpt><trkpt lat="41.86598424568759" lon="15.911006617279408"><ele>355.0</ele><time>2026-03-22T10:15:00.763Z</time></trkpt><trkpt lat="41.8659679388704" lon="15.911118616496916"><ele>357.5</ele><time>2026-03-22T10:15:02.763Z</time></trkpt><trkpt lat="41.86598660466059" lon="15.911206087949818"><ele>360.0</ele><time>2026-03-22T10:15:03.763Z</time></trkpt><trkpt lat="41.865984905396445" lon="15.911364117832763"><ele>362.5</ele><time>2026-03-22T10:15:05.763Z</time></trkpt><trkpt lat="41.865984221679" lon="15.911469849009322"><ele>365.0</ele><time>2026-03-22T10:15:07.763Z</time></trkpt><trkpt lat="41.866007681405" lon="15.911571104198847"><ele>367.5</ele><time>2026-03-22T10:15:09.762Z</time></trkpt><trkpt lat="41.866013407363624" lon="15.911676057174116"><ele>370.0</ele><time>2026-03-22T10:15:11.762Z</time></trkpt><trkpt lat="41.86602161485525" lon="15.911784545973722"><ele>372.16666666666663</ele><time>2026-03-22T10:15:13.762Z</time></trkpt><trkpt lat="41.86605490095831" lon="15.91188341802086"><ele>374.3333333333333</ele><time>2026-03-22T10:15:16.764Z</time></trkpt><trkpt lat="41.86607126020894" lon="15.911983530972025"><ele>376.5</ele><time>2026-03-22T10:15:21.764Z</time></trkpt><trkpt lat="41.86608255817264" lon="15.912070705940565"><ele>378.6666666666667</ele><time>2026-03-22T10:15:30.764Z</time></trkpt><trkpt lat="41.86607891331122" lon="15.912157450001153"><ele>380.83333333333337</ele><time>2026-03-22T10:15:37.763Z</time></trkpt><trkpt lat="41.86606327596678" lon="15.912274394983353"><ele>383.0</ele><time>2026-03-22T10:15:56.763Z</time></trkpt><trkpt lat="41.866031630652344" lon="15.912375765250095"><ele>383.0</ele><time>2026-03-22T10:16:01.762Z</time></trkpt><trkpt lat="41.865982817293464" lon="15.912443488008286"><ele>383.0</ele><time>2026-03-22T10:16:05.762Z</time></trkpt><trkpt lat="41.8659617265013" lon="15.912524319722907"><ele>383.0</ele><time>2026-03-22T10:16:09.762Z</time></trkpt><trkpt lat="41.86596904704879" lon="15.912616523560542"><ele>383.0</ele><time>2026-03-22T10:16:13.762Z</time></trkpt><trkpt lat="41.865931545160215" lon="15.91270393199216"><ele>383.0</ele><time>2026-03-22T10:16:18.762Z</time></trkpt><trkpt lat="41.86590538019914" lon="15.912781030186311"><ele>383.0</ele><time>2026-03-22T10:16:24.762Z</time></trkpt><trkpt lat="41.86590604674468" lon="15.912865824256981"><ele>383.0</ele><time>2026-03-22T10:16:35.761Z</time></trkpt><trkpt lat="41.8659322888701" lon="15.912986917608206"><ele>387.85714285714283</ele><time>2026-03-22T10:16:58.76Z</time></trkpt><trkpt lat="41.86586792874562" lon="15.913022022089168"><ele>392.71428571428567</ele><time>2026-03-22T10:17:15.76Z</time></trkpt><trkpt lat="41.865807751052365" lon="15.913066618741315"><ele>397.57142857142856</ele><time>2026-03-22T10:17:19.76Z</time></trkpt><trkpt lat="41.86576021379783" lon="15.91314324230096"><ele>402.42857142857144</ele><time>2026-03-22T10:17:23.761Z</time></trkpt><trkpt lat="41.865768450809014" lon="15.913239061709628"><ele>407.2857142857143</ele><time>2026-03-22T10:17:26.762Z</time></trkpt><trkpt lat="41.86575920728653" lon="15.913342848932784"><ele>412.14285714285717</ele><time>2026-03-22T10:17:30.762Z</time></trkpt><trkpt lat="41.865812636206066" lon="15.913423104135791"><ele>417.0</ele><time>2026-03-22T10:17:33.761Z</time></trkpt><trkpt lat="41.86583473971252" lon="15.913527013312903"><ele>417.0</ele><time>2026-03-22T10:17:36.762Z</time></trkpt><trkpt lat="41.865855479069424" lon="15.913647119494819"><ele>417.0</ele><time>2026-03-22T10:18:18.76Z</time></trkpt><trkpt lat="41.865859148742516" lon="15.913553247348016"><ele>417.0</ele><time>2026-03-22T10:18:22.76Z</time></trkpt><trkpt lat="41.86580525412751" lon="15.91350906349651"><ele>417.0</ele><time>2026-03-22T10:18:26.76Z</time></trkpt><trkpt lat="41.865784686002435" lon="15.913412391261378"><ele>417.0</ele><time>2026-03-22T10:18:35.76Z</time></trkpt><trkpt lat="41.86581166120304" lon="15.913305741656124"><ele>417.0</ele><time>2026-03-22T10:18:39.76Z</time></trkpt><trkpt lat="41.865829739660114" lon="15.913202175513508"><ele>417.0</ele><time>2026-03-22T10:18:43.76Z</time></trkpt><trkpt lat="41.865864875490246" lon="15.91312212869618"><ele>417.0</ele><time>2026-03-22T10:18:46.759Z</time></trkpt><trkpt lat="41.86588919101598" lon="15.913033005854142"><ele>417.0</ele><time>2026-03-22T10:18:49.759Z</time></trkpt><trkpt lat="41.865911330199594" lon="15.912943643293309"><ele>417.0</ele><time>2026-03-22T10:18:52.759Z</time></trkpt><trkpt lat="41.865935754211364" lon="15.912846050862457"><ele>417.0</ele><time>2026-03-22T10:18:55.759Z</time></trkpt><trkpt lat="41.865956597473385" lon="15.912726116807082"><ele>417.0</ele><time>2026-03-22T10:18:58.759Z</time></trkpt><trkpt lat="41.865965179153335" lon="15.91262776653589"><ele>413.3333333333333</ele><time>2026-03-22T10:19:02.759Z</time></trkpt><trkpt lat="41.865960910086" lon="15.912512033623567"><ele>409.66666666666663</ele><time>2026-03-22T10:19:05.759Z</time></trkpt><trkpt lat="41.86596684250966" lon="15.91239440227007"><ele>406.0</ele><time>2026-03-22T10:19:08.759Z</time></trkpt><trkpt lat="41.865969831154956" lon="15.91230115475087"><ele>402.3333333333333</ele><time>2026-03-22T10:19:11.759Z</time></trkpt><trkpt lat="41.86594517963631" lon="15.912211162433032"><ele>398.66666666666663</ele><time>2026-03-22T10:19:14.758Z</time></trkpt><trkpt lat="41.865923676333644" lon="15.912125613298652"><ele>395.0</ele><time>2026-03-22T10:19:17.758Z</time></trkpt><trkpt lat="41.86588646162412" lon="15.91201669190361"><ele>394.99999999999994</ele><time>2026-03-22T10:19:21.758Z</time></trkpt><trkpt lat="41.8658228964448" lon="15.911932659059213"><ele>395.0</ele><time>2026-03-22T10:19:24.758Z</time></trkpt><trkpt lat="41.86577745541471" lon="15.911848144866621"><ele>395.0</ele><time>2026-03-22T10:19:26.758Z</time></trkpt><trkpt lat="41.86575468256931" lon="15.91175972073083"><ele>395.0</ele><time>2026-03-22T10:19:28.76Z</time></trkpt><trkpt lat="41.86573670977866" lon="15.91166238222446"><ele>394.99999999999994</ele><time>2026-03-22T10:19:30.76Z</time></trkpt><trkpt lat="41.86570521657137" lon="15.911543949785454"><ele>395.0</ele><time>2026-03-22T10:19:32.759Z</time></trkpt><trkpt lat="41.865662832477476" lon="15.9114612080354"><ele>391.66666666666663</ele><time>2026-03-22T10:19:33.76Z</time></trkpt><trkpt lat="41.865639774352935" lon="15.911381558934812"><ele>388.3333333333333</ele><time>2026-03-22T10:19:34.759Z</time></trkpt><trkpt lat="41.86563621691733" lon="15.911241128379956"><ele>385.0</ele><time>2026-03-22T10:19:36.759Z</time></trkpt><trkpt lat="41.86564517109819" lon="15.911156423241078"><ele>381.66666666666663</ele><time>2026-03-22T10:19:37.759Z</time></trkpt><trkpt lat="41.86562856269385" lon="15.91100711144185"><ele>378.3333333333333</ele><time>2026-03-22T10:19:39.759Z</time></trkpt><trkpt lat="41.86562517813783" lon="15.910906838009291"><ele>375.0</ele><time>2026-03-22T10:19:42.76Z</time></trkpt><trkpt lat="41.86561416833356" lon="15.910797594819584"><ele>371.6666666666667</ele><time>2026-03-22T10:19:46.759Z</time></trkpt><trkpt lat="41.86557178050022" lon="15.910734524296572"><ele>368.3333333333333</ele><time>2026-03-22T10:19:52.759Z</time></trkpt><trkpt lat="41.865566597462546" lon="15.9106287437109"><ele>365.0</ele><time>2026-03-22T10:20:02.759Z</time></trkpt><trkpt lat="41.86555044678289" lon="15.910498411118915"><ele>361.66666666666663</ele><time>2026-03-22T10:20:51.757Z</time></trkpt><trkpt lat="41.86545205303268" lon="15.910584272149313"><ele>358.3333333333333</ele><time>2026-03-22T10:20:53.757Z</time></trkpt><trkpt lat="41.86539569872607" lon="15.910638865070615"><ele>355.0</ele><time>2026-03-22T10:20:55.757Z</time></trkpt><trkpt lat="41.86531023050333" lon="15.91064340137465"><ele>355.0</ele><time>2026-03-22T10:20:57.757Z</time></trkpt><trkpt lat="41.86523266935198" lon="15.910612406353122"><ele>355.0</ele><time>2026-03-22T10:20:59.757Z</time></trkpt><trkpt lat="41.86514947307719" lon="15.910563314018189"><ele>355.0</ele><time>2026-03-22T10:21:01.757Z</time></trkpt><trkpt lat="41.86508893978899" lon="15.910632667773532"><ele>355.0</ele><time>2026-03-22T10:21:04.757Z</time></trkpt><trkpt lat="41.86502841130999" lon="15.91072495389061"><ele>355.0</ele><time>2026-03-22T10:21:06.757Z</time></trkpt><trkpt lat="41.86495635354265" lon="15.910797989981093"><ele>355.0</ele><time>2026-03-22T10:21:09.757Z</time></trkpt><trkpt lat="41.8649221746613" lon="15.910875296236535"><ele>356.8</ele><time>2026-03-22T10:21:12.756Z</time></trkpt><trkpt lat="41.86490108617206" lon="15.910962079059844"><ele>358.6</ele><time>2026-03-22T10:21:15.756Z</time></trkpt><trkpt lat="41.86484377345606" lon="15.911070570567917"><ele>360.4</ele><time>2026-03-22T10:21:30.756Z</time></trkpt><trkpt lat="41.8647909149515" lon="15.91115664428064"><ele>362.2</ele><time>2026-03-22T10:21:33.757Z</time></trkpt><trkpt lat="41.864713868017255" lon="15.911257898506783"><ele>364.0</ele><time>2026-03-22T10:21:35.757Z</time></trkpt><trkpt lat="41.86464323932212" lon="15.911367109664107"><ele>364.0</ele><time>2026-03-22T10:21:36.757Z</time></trkpt><trkpt lat="41.86457640522439" lon="15.911488088062294"><ele>364.0</ele><time>2026-03-22T10:21:37.757Z</time></trkpt><trkpt lat="41.86450229735609" lon="15.911651764006232"><ele>364.0</ele><time>2026-03-22T10:21:38.757Z</time></trkpt><trkpt lat="41.864394754010725" lon="15.911842916059829"><ele>364.0</ele><time>2026-03-22T10:21:39.757Z</time></trkpt><trkpt lat="41.86430211947076" lon="15.91199193659634"><ele>365.3333333333333</ele><time>2026-03-22T10:21:40.756Z</time></trkpt><trkpt lat="41.86423684134832" lon="15.912052163156872"><ele>366.66666666666663</ele><time>2026-03-22T10:21:41.756Z</time></trkpt><trkpt lat="41.86417052069139" lon="15.91204107009073"><ele>368.0</ele><time>2026-03-22T10:21:43.757Z</time></trkpt><trkpt lat="41.86413109071047" lon="15.911937788424972"><ele>369.3333333333333</ele><time>2026-03-22T10:21:45.757Z</time></trkpt><trkpt lat="41.864093757809876" lon="15.91183628891969"><ele>370.6666666666667</ele><time>2026-03-22T10:21:47.757Z</time></trkpt><trkpt lat="41.86401143181052" lon="15.911789002263543"><ele>372.0</ele><time>2026-03-22T10:21:49.757Z</time></trkpt><trkpt lat="41.86390037006713" lon="15.911852915413101"><ele>372.0</ele><time>2026-03-22T10:21:51.757Z</time></trkpt><trkpt lat="41.863776292881795" lon="15.912000635786635"><ele>372.0</ele><time>2026-03-22T10:21:52.757Z</time></trkpt><trkpt lat="41.863656752592476" lon="15.912144393395828"><ele>372.0</ele><time>2026-03-22T10:21:53.757Z</time></trkpt><trkpt lat="41.863547022482436" lon="15.912306196555619"><ele>370.0</ele><time>2026-03-22T10:21:54.757Z</time></trkpt><trkpt lat="41.86339779265891" lon="15.912477729684657"><ele>368.0</ele><time>2026-03-22T10:21:55.757Z</time></trkpt><trkpt lat="41.863229698375704" lon="15.912625832099096"><ele>366.0</ele><time>2026-03-22T10:21:56.757Z</time></trkpt><trkpt lat="41.86307672169782" lon="15.912788773251972"><ele>368.25</ele><time>2026-03-22T10:21:57.757Z</time></trkpt><trkpt lat="41.86293221679761" lon="15.912918188127536"><ele>370.5</ele><time>2026-03-22T10:21:58.757Z</time></trkpt><trkpt lat="41.86280404955225" lon="15.9130095190574"><ele>372.75</ele><time>2026-03-22T10:21:59.757Z</time></trkpt><trkpt lat="41.86269424186681" lon="15.913057555695355"><ele>375.0</ele><time>2026-03-22T10:22:00.757Z</time></trkpt><trkpt lat="41.8625895025668" lon="15.91309204401882"><ele>375.0</ele><time>2026-03-22T10:22:01.756Z</time></trkpt><trkpt lat="41.86252130751143" lon="15.913108985085078"><ele>375.0</ele><time>2026-03-22T10:22:03.756Z</time></trkpt><trkpt lat="41.86245230512987" lon="15.913141527568909"><ele>375.0</ele><time>2026-03-22T10:22:13.756Z</time></trkpt><trkpt lat="41.862378678350126" lon="15.913117628573456"><ele>375.0</ele><time>2026-03-22T10:22:15.756Z</time></trkpt><trkpt lat="41.86231207190892" lon="15.91306891685167"><ele>375.0</ele><time>2026-03-22T10:22:18.756Z</time></trkpt><trkpt lat="41.862217351334245" lon="15.913041120343186"><ele>375.0</ele><time>2026-03-22T10:22:20.756Z</time></trkpt><trkpt lat="41.862131646412365" lon="15.912995167618925"><ele>375.0</ele><time>2026-03-22T10:22:21.756Z</time></trkpt><trkpt lat="41.86206255689476" lon="15.91297224172022"><ele>375.0</ele><time>2026-03-22T10:22:22.756Z</time></trkpt><trkpt lat="41.86198533082582" lon="15.912962193591348"><ele>375.0</ele><time>2026-03-22T10:22:23.756Z</time></trkpt><trkpt lat="41.86189262135588" lon="15.912915950060464"><ele>375.0</ele><time>2026-03-22T10:22:25.756Z</time></trkpt><trkpt lat="41.861836596480046" lon="15.912867719141701"><ele>375.0</ele><time>2026-03-22T10:22:27.756Z</time></trkpt><trkpt lat="41.86177685225349" lon="15.912815940303377"><ele>375.0</ele><time>2026-03-22T10:22:29.756Z</time></trkpt><trkpt lat="41.861684202717186" lon="15.912738094179531"><ele>374.6</ele><time>2026-03-22T10:22:32.755Z</time></trkpt><trkpt lat="41.8616047489627" lon="15.912714056878855"><ele>374.2</ele><time>2026-03-22T10:22:34.755Z</time></trkpt><trkpt lat="41.86153011713028" lon="15.912723896872068"><ele>373.79999999999995</ele><time>2026-03-22T10:22:36.755Z</time></trkpt><trkpt lat="41.86145652512855" lon="15.912753970132949"><ele>373.4</ele><time>2026-03-22T10:22:39.755Z</time></trkpt><trkpt lat="41.86127529534656" lon="15.912722257971692"><ele>373.0</ele><time>2026-03-22T10:22:42.755Z</time></trkpt><trkpt lat="41.861217149029414" lon="15.912762338357803"><ele>373.0</ele><time>2026-03-22T10:22:44.755Z</time></trkpt><trkpt lat="41.86116211607692" lon="15.912805746168624"><ele>373.0</ele><time>2026-03-22T10:22:47.755Z</time></trkpt><trkpt lat="41.861093319643416" lon="15.912853437562049"><ele>373.0</ele><time>2026-03-22T10:22:50.755Z</time></trkpt><trkpt lat="41.86103174307107" lon="15.912884015951395"><ele>373.0</ele><time>2026-03-22T10:22:53.755Z</time></trkpt><trkpt lat="41.86094463298134" lon="15.912861281610912"><ele>373.0</ele><time>2026-03-22T10:22:57.755Z</time></trkpt><trkpt lat="41.86086722387045" lon="15.912872008029945"><ele>373.0</ele><time>2026-03-22T10:23:00.754Z</time></trkpt><trkpt lat="41.86079457340636" lon="15.912852931110619"><ele>373.0</ele><time>2026-03-22T10:23:03.754Z</time></trkpt><trkpt lat="41.86075071957516" lon="15.912787950324585"><ele>375.79999999999995</ele><time>2026-03-22T10:23:05.754Z</time></trkpt><trkpt lat="41.86068644716153" lon="15.912790210276235"><ele>378.6</ele><time>2026-03-22T10:23:07.754Z</time></trkpt><trkpt lat="41.860616724301536" lon="15.912813205183078"><ele>381.4</ele><time>2026-03-22T10:23:09.754Z</time></trkpt><trkpt lat="41.86055328587607" lon="15.912871095824944"><ele>384.20000000000005</ele><time>2026-03-22T10:23:11.754Z</time></trkpt><trkpt lat="41.86050967349554" lon="15.912932788747284"><ele>387.0</ele><time>2026-03-22T10:23:13.754Z</time></trkpt><trkpt lat="41.86025372714889" lon="15.913075647559117"><ele>387.0</ele><time>2026-03-22T10:23:15.754Z</time></trkpt><trkpt lat="41.860183201418266" lon="15.91316123661226"><ele>387.0</ele><time>2026-03-22T10:23:17.754Z</time></trkpt><trkpt lat="41.86012889875748" lon="15.913230968299512"><ele>387.0</ele><time>2026-03-22T10:23:18.754Z</time></trkpt><trkpt lat="41.86005483221758" lon="15.913329440064754"><ele>387.0</ele><time>2026-03-22T10:23:20.754Z</time></trkpt><trkpt lat="41.86000347411051" lon="15.913380213173074"><ele>387.0</ele><time>2026-03-22T10:23:22.754Z</time></trkpt><trkpt lat="41.859945081600415" lon="15.913438110200138"><ele>387.0</ele><time>2026-03-22T10:23:24.754Z</time></trkpt><trkpt lat="41.85988631800355" lon="15.913505607787904"><ele>389.8333333333333</ele><time>2026-03-22T10:23:26.754Z</time></trkpt><trkpt lat="41.85983729011982" lon="15.913562789991909"><ele>392.66666666666663</ele><time>2026-03-22T10:23:27.753Z</time></trkpt><trkpt lat="41.85975849301422" lon="15.913604065153796"><ele>395.5</ele><time>2026-03-22T10:23:29.753Z</time></trkpt><trkpt lat="41.85965534838134" lon="15.913649202263912"><ele>398.3333333333333</ele><time>2026-03-22T10:23:31.753Z</time></trkpt><trkpt lat="41.85958403395062" lon="15.913673873927342"><ele>401.16666666666663</ele><time>2026-03-22T10:23:32.753Z</time></trkpt><trkpt lat="41.859499569346646" lon="15.913703309831913"><ele>404.0</ele><time>2026-03-22T10:23:35.753Z</time></trkpt><trkpt lat="41.85942429286561" lon="15.91376553991629"><ele>404.0</ele><time>2026-03-22T10:23:38.753Z</time></trkpt><trkpt lat="41.85934847591467" lon="15.913810094981672"><ele>404.0</ele><time>2026-03-22T10:23:41.755Z</time></trkpt><trkpt lat="41.859270361794295" lon="15.913844096412095"><ele>404.0</ele><time>2026-03-22T10:23:45.755Z</time></trkpt><trkpt lat="41.85920284237556" lon="15.913868839237594"><ele>404.0</ele><time>2026-03-22T10:23:53.755Z</time></trkpt><trkpt lat="41.85914021821469" lon="15.913923252304242"><ele>404.0</ele><time>2026-03-22T10:24:47.753Z</time></trkpt><trkpt lat="41.859094429587685" lon="15.913990023565026"><ele>404.0</ele><time>2026-03-22T10:24:52.753Z</time></trkpt><trkpt lat="41.85904903772827" lon="15.914059026809952"><ele>404.0</ele><time>2026-03-22T10:24:56.753Z</time></trkpt><trkpt lat="41.859006651004194" lon="15.914143154440085"><ele>406.1428571428571</ele><time>2026-03-22T10:24:59.753Z</time></trkpt><trkpt lat="41.858953481895945" lon="15.914188490720957"><ele>408.2857142857143</ele><time>2026-03-22T10:25:03.753Z</time></trkpt><trkpt lat="41.85892446099946" lon="15.914270129682048"><ele>410.42857142857144</ele><time>2026-03-22T10:25:11.752Z</time></trkpt><trkpt lat="41.85884910789672" lon="15.914301993818555"><ele>412.57142857142856</ele><time>2026-03-22T10:25:53.752Z</time></trkpt><trkpt lat="41.8587775877768" lon="15.914305238522154"><ele>414.7142857142857</ele><time>2026-03-22T10:25:58.752Z</time></trkpt><trkpt lat="41.8587049914394" lon="15.914343663024377"><ele>416.85714285714283</ele><time>2026-03-22T10:26:03.752Z</time></trkpt><trkpt lat="41.85862924657891" lon="15.91438759398896"><ele>419.0</ele><time>2026-03-22T10:26:07.752Z</time></trkpt><trkpt lat="41.85855879760291" lon="15.91440245284981"><ele>418.99999999999994</ele><time>2026-03-22T10:26:10.752Z</time></trkpt><trkpt lat="41.85848293586421" lon="15.91440477533527"><ele>419.0</ele><time>2026-03-22T10:26:13.752Z</time></trkpt><trkpt lat="41.85840406573108" lon="15.914418275614526"><ele>419.0</ele><time>2026-03-22T10:26:16.752Z</time></trkpt><trkpt lat="41.858340390070644" lon="15.914456324148636"><ele>419.0</ele><time>2026-03-22T10:26:19.751Z</time></trkpt><trkpt lat="41.858272042362394" lon="15.914485065191256"><ele>418.99999999999994</ele><time>2026-03-22T10:26:28.751Z</time></trkpt><trkpt lat="41.858205417930044" lon="15.914507821126053"><ele>419.0</ele><time>2026-03-22T10:26:40.751Z</time></trkpt><trkpt lat="41.85809433756381" lon="15.914549648553944"><ele>423.4</ele><time>2026-03-22T10:28:30.749Z</time></trkpt><trkpt lat="41.85802222967216" lon="15.91453758806249"><ele>427.79999999999995</ele><time>2026-03-22T10:32:46Z</time></trkpt><trkpt lat="41.85794028241817" lon="15.914561062957565"><ele>432.20000000000005</ele><time>2026-03-22T10:32:48Z</time></trkpt><trkpt lat="41.85780051944026" lon="15.914590579214595"><ele>436.6</ele><time>2026-03-22T10:32:50Z</time></trkpt><trkpt lat="41.85772654588154" lon="15.91461388448545"><ele>441.0</ele><time>2026-03-22T10:32:51Z</time></trkpt><trkpt lat="41.857637436191396" lon="15.914654389122271"><ele>444.8</ele><time>2026-03-22T10:32:52Z</time></trkpt><trkpt lat="41.8575435721966" lon="15.914703194466888"><ele>448.6</ele><time>2026-03-22T10:32:54Z</time></trkpt><trkpt lat="41.85746467414987" lon="15.914664158665468"><ele>452.4</ele><time>2026-03-22T10:32:58Z</time></trkpt><trkpt lat="41.857370141210254" lon="15.914687363637551"><ele>456.2</ele><time>2026-03-22T10:33:01Z</time></trkpt><trkpt lat="41.85727002717598" lon="15.914733619818332"><ele>460.0</ele><time>2026-03-22T10:33:03Z</time></trkpt><trkpt lat="41.85720483252869" lon="15.914721528207911"><ele>460.00000000000006</ele><time>2026-03-22T10:33:05Z</time></trkpt><trkpt lat="41.85713074466407" lon="15.914745461427"><ele>460.0</ele><time>2026-03-22T10:33:07Z</time></trkpt><trkpt lat="41.857054987010365" lon="15.914782805104725"><ele>460.0</ele><time>2026-03-22T10:33:09Z</time></trkpt><trkpt lat="41.85695705616902" lon="15.914817719549761"><ele>460.0</ele><time>2026-03-22T10:33:11Z</time></trkpt><trkpt lat="41.85689333692902" lon="15.914800936253197"><ele>460.00000000000006</ele><time>2026-03-22T10:33:13Z</time></trkpt><trkpt lat="41.85681637387293" lon="15.914806301493307"><ele>460.0</ele><time>2026-03-22T10:33:15Z</time></trkpt><trkpt lat="41.85674309117976" lon="15.914821678054363"><ele>461.50000000000006</ele><time>2026-03-22T10:33:18Z</time></trkpt><trkpt lat="41.85666457978275" lon="15.914802872509815"><ele>463.0</ele><time>2026-03-22T10:33:20Z</time></trkpt><trkpt lat="41.85655530112414" lon="15.914816403485943"><ele>464.5</ele><time>2026-03-22T10:33:22Z</time></trkpt><trkpt lat="41.85646088572479" lon="15.914830106011731"><ele>466.0</ele><time>2026-03-22T10:33:24Z</time></trkpt><trkpt lat="41.85638867814993" lon="15.914854435807746"><ele>467.50000000000006</ele><time>2026-03-22T10:33:27Z</time></trkpt><trkpt lat="41.85632184206214" lon="15.91488037929664"><ele>469.0</ele><time>2026-03-22T10:33:29Z</time></trkpt><trkpt lat="41.856075051179516" lon="15.914935569532728"><ele>468.83333333333337</ele><time>2026-03-22T10:33:31Z</time></trkpt><trkpt lat="41.85594659116998" lon="15.914967632394582"><ele>468.6666666666667</ele><time>2026-03-22T10:33:33Z</time></trkpt><trkpt lat="41.855874768651084" lon="15.914964698980086"><ele>468.5</ele><time>2026-03-22T10:33:34Z</time></trkpt><trkpt lat="41.855807481958124" lon="15.914965705522803"><ele>468.33333333333337</ele><time>2026-03-22T10:33:35Z</time></trkpt><trkpt lat="41.85574435518306" lon="15.914983469601143"><ele>468.1666666666667</ele><time>2026-03-22T10:33:36Z</time></trkpt><trkpt lat="41.85564586964904" lon="15.914999010442545"><ele>468.0</ele><time>2026-03-22T10:33:38Z</time></trkpt><trkpt lat="41.85558224996718" lon="15.915011155379869"><ele>468.0</ele><time>2026-03-22T10:33:40Z</time></trkpt><trkpt lat="41.85550731778547" lon="15.915028565805578"><ele>468.0</ele><time>2026-03-22T10:33:43Z</time></trkpt><trkpt lat="41.85540260729529" lon="15.91501926850002"><ele>468.0</ele><time>2026-03-22T10:33:46Z</time></trkpt><trkpt lat="41.855310623799575" lon="15.915046176035101"><ele>468.0</ele><time>2026-03-22T10:33:48Z</time></trkpt><trkpt lat="41.855235784925924" lon="15.915062801324611"><ele>468.0</ele><time>2026-03-22T10:33:51.999Z</time></trkpt><trkpt lat="41.85516099751551" lon="15.915107803546066"><ele>468.0</ele><time>2026-03-22T10:33:58.999Z</time></trkpt><trkpt lat="41.85508126891832" lon="15.91512836857591"><ele>466.59999999999997</ele><time>2026-03-22T10:34:01.999Z</time></trkpt><trkpt lat="41.854995550846304" lon="15.915121943953915"><ele>465.19999999999993</ele><time>2026-03-22T10:34:04.999Z</time></trkpt><trkpt lat="41.85492099778811" lon="15.915140069854445"><ele>463.8</ele><time>2026-03-22T10:34:06.999Z</time></trkpt><trkpt lat="41.85486066967042" lon="15.915114550085288"><ele>462.4</ele><time>2026-03-22T10:34:11.001Z</time></trkpt><trkpt lat="41.85465346687439" lon="15.915172346964447"><ele>461.0</ele><time>2026-03-22T10:34:12.001Z</time></trkpt><trkpt lat="41.85442761479971" lon="15.915164060996098"><ele>460.99999999999994</ele><time>2026-03-22T10:34:15.001Z</time></trkpt><trkpt lat="41.854322055934084" lon="15.915145584845103"><ele>461.0</ele><time>2026-03-22T10:34:17.001Z</time></trkpt><trkpt lat="41.854235086032325" lon="15.915155443303757"><ele>461.0</ele><time>2026-03-22T10:34:18.001Z</time></trkpt><trkpt lat="41.85416768535485" lon="15.915187247054646"><ele>461.0</ele><time>2026-03-22T10:34:20.001Z</time></trkpt><trkpt lat="41.85407654484308" lon="15.91518589458819"><ele>460.99999999999994</ele><time>2026-03-22T10:34:22.001Z</time></trkpt><trkpt lat="41.85399190980925" lon="15.9151942157603"><ele>461.0</ele><time>2026-03-22T10:34:24.001Z</time></trkpt><trkpt lat="41.85387727521481" lon="15.915230720048031"><ele>463.49999999999994</ele><time>2026-03-22T10:34:26.001Z</time></trkpt><trkpt lat="41.85381418731275" lon="15.915254469860626"><ele>466.0</ele><time>2026-03-22T10:34:28.001Z</time></trkpt><trkpt lat="41.85373930036442" lon="15.915256305078726"><ele>468.5</ele><time>2026-03-22T10:34:34Z</time></trkpt><trkpt lat="41.85366981570142" lon="15.915273544546412"><ele>471.0</ele><time>2026-03-22T10:34:39Z</time></trkpt><trkpt lat="41.85359456868881" lon="15.915276289148217"><ele>473.49999999999994</ele><time>2026-03-22T10:34:43Z</time></trkpt><trkpt lat="41.85349936521515" lon="15.915271192825697"><ele>476.0</ele><time>2026-03-22T10:34:47Z</time></trkpt><trkpt lat="41.853430355454066" lon="15.915270408196088"><ele>479.20000000000005</ele><time>2026-03-22T10:34:49Z</time></trkpt><trkpt lat="41.853222986332376" lon="15.91529549777408"><ele>482.40000000000003</ele><time>2026-03-22T10:34:52Z</time></trkpt><trkpt lat="41.85314907297763" lon="15.915315291766433"><ele>485.6</ele><time>2026-03-22T10:34:53Z</time></trkpt><trkpt lat="41.85305884418313" lon="15.915324305831495"><ele>488.8</ele><time>2026-03-22T10:34:55Z</time></trkpt><trkpt lat="41.8529966594827" lon="15.915381588441203"><ele>492.0</ele><time>2026-03-22T10:34:57Z</time></trkpt><trkpt lat="41.85291386074419" lon="15.91539681246741"><ele>492.0</ele><time>2026-03-22T10:34:59Z</time></trkpt><trkpt lat="41.85282630778001" lon="15.915440871348515"><ele>492.0</ele><time>2026-03-22T10:35:02Z</time></trkpt><trkpt lat="41.85276967973153" lon="15.915478275334317"><ele>492.0</ele><time>2026-03-22T10:35:04Z</time></trkpt><trkpt lat="41.85269579546611" lon="15.91550884946084"><ele>492.0</ele><time>2026-03-22T10:35:07Z</time></trkpt><trkpt lat="41.85263170330399" lon="15.915570657340078"><ele>492.0</ele><time>2026-03-22T10:35:09Z</time></trkpt><trkpt lat="41.852545357776414" lon="15.915638779599352"><ele>492.0</ele><time>2026-03-22T10:35:12Z</time></trkpt><trkpt lat="41.852482592271826" lon="15.915677748572318"><ele>493.8333333333333</ele><time>2026-03-22T10:35:14Z</time></trkpt><trkpt lat="41.85240295352874" lon="15.91571413577443"><ele>495.66666666666663</ele><time>2026-03-22T10:35:16Z</time></trkpt><trkpt lat="41.852344289856795" lon="15.915779036240135"><ele>497.5</ele><time>2026-03-22T10:35:18Z</time></trkpt><trkpt lat="41.85228167409577" lon="15.915807880386536"><ele>499.3333333333333</ele><time>2026-03-22T10:35:20Z</time></trkpt><trkpt lat="41.852208802524686" lon="15.915829452782814"><ele>501.16666666666663</ele><time>2026-03-22T10:35:22Z</time></trkpt><trkpt lat="41.852137296393636" lon="15.91588590756444"><ele>503.0</ele><time>2026-03-22T10:35:24Z</time></trkpt><trkpt lat="41.852040297865685" lon="15.915864252525154"><ele>503.0</ele><time>2026-03-22T10:35:27Z</time></trkpt><trkpt lat="41.851941754634964" lon="15.91589604881896"><ele>503.0</ele><time>2026-03-22T10:35:29Z</time></trkpt><trkpt lat="41.85185337626069" lon="15.91595374128671"><ele>503.0</ele><time>2026-03-22T10:35:31Z</time></trkpt><trkpt lat="41.85162253370323" lon="15.91605218791854"><ele>503.0</ele><time>2026-03-22T10:35:32.999Z</time></trkpt><trkpt lat="41.85153152803841" lon="15.916056100394936"><ele>503.66666666666663</ele><time>2026-03-22T10:35:34.999Z</time></trkpt><trkpt lat="41.85144411809187" lon="15.91608939585997"><ele>504.3333333333333</ele><time>2026-03-22T10:35:36.999Z</time></trkpt><trkpt lat="41.851373921842445" lon="15.916138491422293"><ele>505.0</ele><time>2026-03-22T10:35:38.999Z</time></trkpt><trkpt lat="41.85129593369684" lon="15.916199614377794"><ele>505.66666666666663</ele><time>2026-03-22T10:35:40.999Z</time></trkpt><trkpt lat="41.851243034719126" lon="15.916246275525287"><ele>506.3333333333333</ele><time>2026-03-22T10:35:41.999Z</time></trkpt><trkpt lat="41.85116196537639" lon="15.916305183265788"><ele>507.0</ele><time>2026-03-22T10:35:43.999Z</time></trkpt><trkpt lat="41.851100954687865" lon="15.91635937907906"><ele>507.0</ele><time>2026-03-22T10:35:45.999Z</time></trkpt><trkpt lat="41.85101328107794" lon="15.916370836687369"><ele>507.0</ele><time>2026-03-22T10:35:48.999Z</time></trkpt><trkpt lat="41.85092345802998" lon="15.916381634762125"><ele>507.0</ele><time>2026-03-22T10:35:51.999Z</time></trkpt><trkpt lat="41.85087075785501" lon="15.91647284628364"><ele>507.0</ele><time>2026-03-22T10:35:52.999Z</time></trkpt><trkpt lat="41.85083090988799" lon="15.916542287045177"><ele>507.0</ele><time>2026-03-22T10:35:56.999Z</time></trkpt><trkpt lat="41.850763253250825" lon="15.916607760859197"><ele>507.0</ele><time>2026-03-22T10:35:59.999Z</time></trkpt><trkpt lat="41.85068620385026" lon="15.91663843764353"><ele>510.0</ele><time>2026-03-22T10:36:02.999Z</time></trkpt><trkpt lat="41.85061992278975" lon="15.916669333252068"><ele>513.0</ele><time>2026-03-22T10:36:06.999Z</time></trkpt><trkpt lat="41.850556394720044" lon="15.916669497235494"><ele>516.0</ele><time>2026-03-22T10:36:10.999Z</time></trkpt><trkpt lat="41.85049466877392" lon="15.91663964958117"><ele>519.0</ele><time>2026-03-22T10:36:13.999Z</time></trkpt><trkpt lat="41.850416221801005" lon="15.916652873349701"><ele>522.0</ele><time>2026-03-22T10:36:17.001Z</time></trkpt><trkpt lat="41.85035219912515" lon="15.91665226251731"><ele>525.0</ele><time>2026-03-22T10:36:21.001Z</time></trkpt><trkpt lat="41.85028467443273" lon="15.916596799499688"><ele>528.0</ele><time>2026-03-22T10:36:25.001Z</time></trkpt><trkpt lat="41.85021988613784" lon="15.916586785359494"><ele>528.0</ele><time>2026-03-22T10:36:31.001Z</time></trkpt><trkpt lat="41.8501503760025" lon="15.916586512579839"><ele>528.0</ele><time>2026-03-22T10:36:36.001Z</time></trkpt><trkpt lat="41.850071552569794" lon="15.916585414182428"><ele>528.0</ele><time>2026-03-22T10:36:39.001Z</time></trkpt><trkpt lat="41.84999022283798" lon="15.916580334441905"><ele>528.0</ele><time>2026-03-22T10:36:42.001Z</time></trkpt><trkpt lat="41.84986122073318" lon="15.916574613568155"><ele>528.0</ele><time>2026-03-22T10:36:45Z</time></trkpt><trkpt lat="41.84975409442767" lon="15.916544613315825"><ele>531.8571428571429</ele><time>2026-03-22T10:36:47Z</time></trkpt><trkpt lat="41.84968400586822" lon="15.916505140801991"><ele>535.7142857142858</ele><time>2026-03-22T10:36:49Z</time></trkpt><trkpt lat="41.849619022525005" lon="15.916473487626677"><ele>539.5714285714287</ele><time>2026-03-22T10:36:51Z</time></trkpt><trkpt lat="41.84953707471879" lon="15.916464932260565"><ele>543.4285714285714</ele><time>2026-03-22T10:36:54Z</time></trkpt><trkpt lat="41.84947077991758" lon="15.916465976344817"><ele>547.2857142857143</ele><time>2026-03-22T10:36:58Z</time></trkpt><trkpt lat="41.849408396906504" lon="15.916429424585756"><ele>551.1428571428572</ele><time>2026-03-22T10:37:02Z</time></trkpt><trkpt lat="41.8493295593707" lon="15.916446144318558"><ele>555.0</ele><time>2026-03-22T10:37:05Z</time></trkpt><trkpt lat="41.849262784501605" lon="15.916397403943245"><ele>558.0</ele><time>2026-03-22T10:37:09Z</time></trkpt><trkpt lat="41.84915025693887" lon="15.916325238933068"><ele>561.0</ele><time>2026-03-22T10:37:35Z</time></trkpt><trkpt lat="41.84910293021769" lon="15.91639295866957"><ele>564.0</ele><time>2026-03-22T10:37:38Z</time></trkpt><trkpt lat="41.849036348013826" lon="15.916466825603038"><ele>567.0</ele><time>2026-03-22T10:37:41Z</time></trkpt><trkpt lat="41.84898071182037" lon="15.916512202439456"><ele>570.0</ele><time>2026-03-22T10:37:43Z</time></trkpt><trkpt lat="41.84890315324901" lon="15.916503046785934"><ele>573.0</ele><time>2026-03-22T10:37:46Z</time></trkpt><trkpt lat="41.84883173893455" lon="15.91651107155341"><ele>573.0</ele><time>2026-03-22T10:37:47.999Z</time></trkpt><trkpt lat="41.84875055022291" lon="15.916506661445514"><ele>573.0</ele><time>2026-03-22T10:37:50.999Z</time></trkpt><trkpt lat="41.84867288669119" lon="15.916502025182286"><ele>573.0</ele><time>2026-03-22T10:37:52.999Z</time></trkpt><trkpt lat="41.84860517765183" lon="15.916457926016463"><ele>573.0</ele><time>2026-03-22T10:37:55.999Z</time></trkpt><trkpt lat="41.84855193766096" lon="15.916404997391295"><ele>573.0</ele><time>2026-03-22T10:37:57.999Z</time></trkpt><trkpt lat="41.84848277163468" lon="15.916406810147423"><ele>573.0</ele><time>2026-03-22T10:38:00.999Z</time></trkpt><trkpt lat="41.84839545822098" lon="15.916396062660942"><ele>577.0</ele><time>2026-03-22T10:38:06.999Z</time></trkpt><trkpt lat="41.848331051830414" lon="15.916392567729863"><ele>581.0</ele><time>2026-03-22T10:38:10.999Z</time></trkpt><trkpt lat="41.84826223908214" lon="15.916392702949429"><ele>585.0</ele><time>2026-03-22T10:38:15.999Z</time></trkpt><trkpt lat="41.84816265397359" lon="15.916434796480084"><ele>589.0</ele><time>2026-03-22T10:38:48Z</time></trkpt><trkpt lat="41.84812885659591" lon="15.91635550982845"><ele>593.0</ele><time>2026-03-22T10:39:40.999Z</time></trkpt><trkpt lat="41.84819797928945" lon="15.916393028757978"><ele>597.0</ele><time>2026-03-22T10:42:28.999Z</time></trkpt><trkpt lat="41.84813600715611" lon="15.916362653696414"><ele>601.0</ele><time>2026-03-22T10:46:53.994Z</time></trkpt><trkpt lat="41.84804891529265" lon="15.916397306651588"><ele>601.0</ele><time>2026-03-22T10:46:56.994Z</time></trkpt><trkpt lat="41.84797465376912" lon="15.916397129870383"><ele>601.0</ele><time>2026-03-22T10:47:02.994Z</time></trkpt><trkpt lat="41.84787864370557" lon="15.916378768620811"><ele>601.0</ele><time>2026-03-22T10:47:04.994Z</time></trkpt><trkpt lat="41.84778677190026" lon="15.916351966970078"><ele>601.0</ele><time>2026-03-22T10:47:05.994Z</time></trkpt><trkpt lat="41.84769590754614" lon="15.916318506758227"><ele>601.0</ele><time>2026-03-22T10:47:06.994Z</time></trkpt><trkpt lat="41.84762580885263" lon="15.916305117835543"><ele>601.0</ele><time>2026-03-22T10:47:07.994Z</time></trkpt><trkpt lat="41.8475638671982" lon="15.916207799120478"><ele>606.3333333333334</ele><time>2026-03-22T10:47:09.994Z</time></trkpt><trkpt lat="41.84753210620625" lon="15.916112505904874"><ele>611.6666666666667</ele><time>2026-03-22T10:47:10.994Z</time></trkpt><trkpt lat="41.84747972731252" lon="15.916030589370342"><ele>617.0</ele><time>2026-03-22T10:47:12.994Z</time></trkpt><trkpt lat="41.84740328448608" lon="15.915953597536948"><ele>622.3333333333334</ele><time>2026-03-22T10:47:14.994Z</time></trkpt><trkpt lat="41.84737501788398" lon="15.915871044357312"><ele>627.6666666666666</ele><time>2026-03-22T10:47:15.994Z</time></trkpt><trkpt lat="41.847341674930775" lon="15.915792421274407"><ele>633.0</ele><time>2026-03-22T10:47:16.994Z</time></trkpt><trkpt lat="41.847315841878526" lon="15.915689681182199"><ele>633.5</ele><time>2026-03-22T10:47:18.994Z</time></trkpt><trkpt lat="41.84733149995333" lon="15.915560625570256"><ele>634.0</ele><time>2026-03-22T10:47:20.994Z</time></trkpt><trkpt lat="41.84736573197339" lon="15.915460464939963"><ele>634.5</ele><time>2026-03-22T10:47:21.994Z</time></trkpt><trkpt lat="41.84737560300152" lon="15.91537462074574"><ele>635.0</ele><time>2026-03-22T10:47:22.994Z</time></trkpt><trkpt lat="41.847386491024864" lon="15.915283583195311"><ele>635.5</ele><time>2026-03-22T10:47:23.994Z</time></trkpt><trkpt lat="41.84739367707356" lon="15.915176246848674"><ele>636.0</ele><time>2026-03-22T10:47:24.994Z</time></trkpt><trkpt lat="41.84741863120096" lon="15.915071638201228"><ele>636.4</ele><time>2026-03-22T10:47:25.994Z</time></trkpt><trkpt lat="41.84746889734444" lon="15.91497850117076"><ele>636.8</ele><time>2026-03-22T10:47:26.994Z</time></trkpt><trkpt lat="41.84751762302479" lon="15.914832747250152"><ele>637.1999999999999</ele><time>2026-03-22T10:47:28.994Z</time></trkpt><trkpt lat="41.84754910547614" lon="15.914683802961047"><ele>637.6</ele><time>2026-03-22T10:47:30.994Z</time></trkpt><trkpt lat="41.847513896502775" lon="15.914556612159009"><ele>638.0</ele><time>2026-03-22T10:47:32.994Z</time></trkpt><trkpt lat="41.84744837619516" lon="15.914469959017248"><ele>638.0</ele><time>2026-03-22T10:47:33.994Z</time></trkpt><trkpt lat="41.84740244236325" lon="15.914380558923463"><ele>638.0</ele><time>2026-03-22T10:47:34.994Z</time></trkpt><trkpt lat="41.84738281958736" lon="15.914287674427515"><ele>638.0</ele><time>2026-03-22T10:47:35.994Z</time></trkpt><trkpt lat="41.84737461139857" lon="15.914197856385792"><ele>638.0</ele><time>2026-03-22T10:47:36.994Z</time></trkpt><trkpt lat="41.84741039292095" lon="15.914006379117653"><ele>638.0</ele><time>2026-03-22T10:47:38.994Z</time></trkpt><trkpt lat="41.84744659165067" lon="15.913918728923731"><ele>638.0</ele><time>2026-03-22T10:47:39.994Z</time></trkpt><trkpt lat="41.84749464336946" lon="15.913835368191123"><ele>638.0</ele><time>2026-03-22T10:47:40.994Z</time></trkpt><trkpt lat="41.84755530576112" lon="15.913735627988983"><ele>638.0</ele><time>2026-03-22T10:47:41.994Z</time></trkpt><trkpt lat="41.847624824746504" lon="15.913646873623282"><ele>638.0</ele><time>2026-03-22T10:47:42.994Z</time></trkpt><trkpt lat="41.84768836219636" lon="15.913564797514763"><ele>638.0</ele><time>2026-03-22T10:47:43.994Z</time></trkpt><trkpt lat="41.847765256001615" lon="15.913485412438595"><ele>638.0</ele><time>2026-03-22T10:47:44.994Z</time></trkpt><trkpt lat="41.84782649470711" lon="15.913406644477577"><ele>636.0</ele><time>2026-03-22T10:47:45.994Z</time></trkpt><trkpt lat="41.84789454664141" lon="15.91330744178479"><ele>634.0</ele><time>2026-03-22T10:47:46.994Z</time></trkpt><trkpt lat="41.847957849102706" lon="15.913226036207957"><ele>632.0</ele><time>2026-03-22T10:47:47.994Z</time></trkpt><trkpt lat="41.848045022394224" lon="15.913120231491535"><ele>630.0</ele><time>2026-03-22T10:47:48.993Z</time></trkpt><trkpt lat="41.84812340503396" lon="15.913036061646876"><ele>628.0</ele><time>2026-03-22T10:47:49.993Z</time></trkpt><trkpt lat="41.84821950171596" lon="15.912965414267715"><ele>628.0</ele><time>2026-03-22T10:47:50.993Z</time></trkpt><trkpt lat="41.848323685420524" lon="15.912901678429648"><ele>628.0</ele><time>2026-03-22T10:47:51.993Z</time></trkpt><trkpt lat="41.84845413500118" lon="15.91283509818505"><ele>628.0</ele><time>2026-03-22T10:47:52.993Z</time></trkpt><trkpt lat="41.84856259651734" lon="15.912777999425357"><ele>628.0</ele><time>2026-03-22T10:47:53.993Z</time></trkpt><trkpt lat="41.84867013652178" lon="15.912716269175462"><ele>626.4285714285713</ele><time>2026-03-22T10:47:54.993Z</time></trkpt><trkpt lat="41.84873253254882" lon="15.912675152771898"><ele>624.8571428571429</ele><time>2026-03-22T10:47:55.993Z</time></trkpt><trkpt lat="41.848758338224236" lon="15.912584785924823"><ele>623.2857142857142</ele><time>2026-03-22T10:47:59.993Z</time></trkpt><trkpt lat="41.84872260197182" lon="15.912498908852168"><ele>621.7142857142857</ele><time>2026-03-22T10:48:03.993Z</time></trkpt><trkpt lat="41.84878624419496" lon="15.912453637379677"><ele>620.1428571428571</ele><time>2026-03-22T10:48:13.993Z</time></trkpt><trkpt lat="41.84873447711415" lon="15.912367592692352"><ele>618.5714285714286</ele><time>2026-03-22T10:48:20.993Z</time></trkpt><trkpt lat="41.84867260853973" lon="15.912300109310697"><ele>617.0</ele><time>2026-03-22T10:48:23.993Z</time></trkpt><trkpt lat="41.84859324875574" lon="15.912229942153758"><ele>617.0</ele><time>2026-03-22T10:48:26.993Z</time></trkpt><trkpt lat="41.84852766256275" lon="15.912127581929271"><ele>617.0</ele><time>2026-03-22T10:48:28.993Z</time></trkpt><trkpt lat="41.84847701708733" lon="15.912076370867853"><ele>617.0</ele><time>2026-03-22T10:48:29.993Z</time></trkpt><trkpt lat="41.84839013132655" lon="15.91199767304753"><ele>617.0</ele><time>2026-03-22T10:48:31.993Z</time></trkpt><trkpt lat="41.8482914495119" lon="15.91188957497573"><ele>617.0</ele><time>2026-03-22T10:48:33.993Z</time></trkpt><trkpt lat="41.848220050904146" lon="15.911771161531792"><ele>614.2</ele><time>2026-03-22T10:48:35.993Z</time></trkpt><trkpt lat="41.848178369001545" lon="15.911700412336733"><ele>611.4000000000001</ele><time>2026-03-22T10:48:36.993Z</time></trkpt><trkpt lat="41.84812018019908" lon="15.911649723869978"><ele>608.5999999999999</ele><time>2026-03-22T10:48:38.993Z</time></trkpt><trkpt lat="41.84804569900994" lon="15.911567777808358"><ele>605.8</ele><time>2026-03-22T10:48:40.993Z</time></trkpt><trkpt lat="41.847952869307036" lon="15.911471057906198"><ele>603.0</ele><time>2026-03-22T10:48:42.993Z</time></trkpt><trkpt lat="41.84782657950665" lon="15.91140892576122"><ele>603.0</ele><time>2026-03-22T10:48:44.993Z</time></trkpt><trkpt lat="41.847766839380085" lon="15.911374102732893"><ele>603.0</ele><time>2026-03-22T10:48:45.993Z</time></trkpt><trkpt lat="41.847704753203914" lon="15.911317935431532"><ele>603.0</ele><time>2026-03-22T10:48:46.993Z</time></trkpt><trkpt lat="41.847623549057744" lon="15.91131001888843"><ele>603.0</ele><time>2026-03-22T10:48:48.993Z</time></trkpt><trkpt lat="41.847516920040846" lon="15.911253455185536"><ele>603.0</ele><time>2026-03-22T10:48:50.992Z</time></trkpt><trkpt lat="41.84742285289309" lon="15.911223429719044"><ele>603.0</ele><time>2026-03-22T10:48:52.992Z</time></trkpt><trkpt lat="41.84735381817896" lon="15.911259367960445"><ele>601.75</ele><time>2026-03-22T10:48:54.992Z</time></trkpt><trkpt lat="41.84722437777509" lon="15.91126062351152"><ele>600.5</ele><time>2026-03-22T10:48:56.992Z</time></trkpt><trkpt lat="41.84713544619198" lon="15.911280995477888"><ele>599.25</ele><time>2026-03-22T10:48:58.992Z</time></trkpt><trkpt lat="41.847035661015134" lon="15.911331167904702"><ele>598.0</ele><time>2026-03-22T10:49:00.992Z</time></trkpt><trkpt lat="41.84693291936723" lon="15.911432042175857"><ele>598.0</ele><time>2026-03-22T10:49:02.992Z</time></trkpt><trkpt lat="41.84685614351455" lon="15.911508688572836"><ele>598.0</ele><time>2026-03-22T10:49:03.992Z</time></trkpt><trkpt lat="41.846774200299365" lon="15.911615802069056"><ele>598.0</ele><time>2026-03-22T10:49:04.992Z</time></trkpt><trkpt lat="41.846711818310986" lon="15.91170577735434"><ele>598.0</ele><time>2026-03-22T10:49:05.992Z</time></trkpt><trkpt lat="41.84662850884328" lon="15.911788711777412"><ele>598.0</ele><time>2026-03-22T10:49:06.992Z</time></trkpt><trkpt lat="41.846558136909586" lon="15.911863276281258"><ele>598.5</ele><time>2026-03-22T10:49:07.992Z</time></trkpt><trkpt lat="41.846491619639586" lon="15.911931633695673"><ele>599.0</ele><time>2026-03-22T10:49:08.992Z</time></trkpt><trkpt lat="41.846434371113155" lon="15.911977981730315"><ele>599.5</ele><time>2026-03-22T10:49:09.992Z</time></trkpt><trkpt lat="41.84637693551266" lon="15.912044975921054"><ele>600.0</ele><time>2026-03-22T10:49:10.992Z</time></trkpt><trkpt lat="41.846316023125134" lon="15.912091378756298"><ele>600.5</ele><time>2026-03-22T10:49:11.992Z</time></trkpt><trkpt lat="41.84620895903966" lon="15.912148016447231"><ele>601.0</ele><time>2026-03-22T10:49:13.992Z</time></trkpt><trkpt lat="41.84614959683098" lon="15.912203596820076"><ele>601.0</ele><time>2026-03-22T10:49:14.992Z</time></trkpt><trkpt lat="41.846064203613466" lon="15.912269147922496"><ele>601.0</ele><time>2026-03-22T10:49:16.992Z</time></trkpt><trkpt lat="41.8460064792147" lon="15.912316196611417"><ele>601.0</ele><time>2026-03-22T10:49:18.992Z</time></trkpt><trkpt lat="41.84594102488905" lon="15.912349282251217"><ele>601.0</ele><time>2026-03-22T10:49:19.992Z</time></trkpt><trkpt lat="41.84587061027241" lon="15.912416533564823"><ele>601.0</ele><time>2026-03-22T10:49:20.992Z</time></trkpt><trkpt lat="41.84576962020469" lon="15.912502962346688"><ele>601.0</ele><time>2026-03-22T10:49:22.992Z</time></trkpt><trkpt lat="41.845722756662674" lon="15.912606066689328"><ele>599.6666666666667</ele><time>2026-03-22T10:49:24.992Z</time></trkpt><trkpt lat="41.8456650888976" lon="15.912742653243981"><ele>598.3333333333334</ele><time>2026-03-22T10:49:26.992Z</time></trkpt><trkpt lat="41.845615641262306" lon="15.912813321456655"><ele>597.0</ele><time>2026-03-22T10:49:30.992Z</time></trkpt><trkpt lat="41.84556484174263" lon="15.912872734068545"><ele>595.6666666666666</ele><time>2026-03-22T10:49:35.992Z</time></trkpt><trkpt lat="41.84555110462964" lon="15.912982606097394"><ele>594.3333333333333</ele><time>2026-03-22T10:49:39.992Z</time></trkpt><trkpt lat="41.8455594726111" lon="15.913067575735935"><ele>593.0</ele><time>2026-03-22T10:49:42.992Z</time></trkpt><trkpt lat="41.84553878916241" lon="15.913165283289414"><ele>592.9999999999999</ele><time>2026-03-22T10:49:45.992Z</time></trkpt><trkpt lat="41.8455598868535" lon="15.913247481413961"><ele>593.0</ele><time>2026-03-22T10:49:48.992Z</time></trkpt><trkpt lat="41.84555563477255" lon="15.91335224128595"><ele>593.0</ele><time>2026-03-22T10:49:51.992Z</time></trkpt><trkpt lat="41.84554768929672" lon="15.913452950344753"><ele>593.0</ele><time>2026-03-22T10:49:53.991Z</time></trkpt><trkpt lat="41.845520645242" lon="15.913542643382652"><ele>593.0</ele><time>2026-03-22T10:49:58.991Z</time></trkpt><trkpt lat="41.84552328164016" lon="15.913668688650194"><ele>592.9999999999999</ele><time>2026-03-22T10:50:01.991Z</time></trkpt><trkpt lat="41.845524824563334" lon="15.913753825280489"><ele>593.0</ele><time>2026-03-22T10:50:03.991Z</time></trkpt><trkpt lat="41.845531173762986" lon="15.913868841789231"><ele>595.1999999999999</ele><time>2026-03-22T10:50:06.991Z</time></trkpt><trkpt lat="41.84554513515315" lon="15.913955311307934"><ele>597.4</ele><time>2026-03-22T10:50:09.991Z</time></trkpt><trkpt lat="41.845560551226725" lon="15.91404424525959"><ele>599.5999999999999</ele><time>2026-03-22T10:50:12.991Z</time></trkpt><trkpt lat="41.845560991689496" lon="15.91413280982155"><ele>601.8</ele><time>2026-03-22T10:50:14.991Z</time></trkpt><trkpt lat="41.84550119192795" lon="15.914200724661399"><ele>604.0</ele><time>2026-03-22T10:50:16.991Z</time></trkpt><trkpt lat="41.845445295609885" lon="15.914510726375287"><ele>605.5714285714287</ele><time>2026-03-22T10:50:18.991Z</time></trkpt><trkpt lat="41.84539180791613" lon="15.914598980275144"><ele>607.1428571428571</ele><time>2026-03-22T10:50:20.991Z</time></trkpt><trkpt lat="41.84533975092489" lon="15.914665625396998"><ele>608.7142857142858</ele><time>2026-03-22T10:50:23.991Z</time></trkpt><trkpt lat="41.845332113096745" lon="15.914752527497365"><ele>610.2857142857143</ele><time>2026-03-22T10:50:30.991Z</time></trkpt><trkpt lat="41.84539332801892" lon="15.914783948958767"><ele>611.8571428571429</ele><time>2026-03-22T10:50:40.991Z</time></trkpt><trkpt lat="41.84545709817301" lon="15.914798061385216"><ele>613.4285714285714</ele><time>2026-03-22T10:50:42.991Z</time></trkpt><trkpt lat="41.845487171424644" lon="15.914723614729262"><ele>615.0</ele><time>2026-03-22T10:50:44.991Z</time></trkpt><trkpt lat="41.84550148217252" lon="15.91481247406888"><ele>615.0</ele><time>2026-03-22T10:50:49.991Z</time></trkpt><trkpt lat="41.84551209895043" lon="15.914895890210635"><ele>615.0</ele><time>2026-03-22T10:50:58.99Z</time></trkpt><trkpt lat="41.845572704892476" lon="15.914928337572132"><ele>615.0</ele><time>2026-03-22T10:51:13.99Z</time></trkpt><trkpt lat="41.84549039412637" lon="15.914871548560164"><ele>615.0</ele><time>2026-03-22T10:51:16.99Z</time></trkpt><trkpt lat="41.84539353896455" lon="15.914869895717977"><ele>615.0</ele><time>2026-03-22T10:51:18.99Z</time></trkpt><trkpt lat="41.84531025341771" lon="15.914873818062633"><ele>615.0</ele><time>2026-03-22T10:51:19.99Z</time></trkpt><trkpt lat="41.84523661290757" lon="15.914857993601927"><ele>615.0</ele><time>2026-03-22T10:51:20.99Z</time></trkpt><trkpt lat="41.845164037308614" lon="15.914826502230854"><ele>615.0</ele><time>2026-03-22T10:51:22.99Z</time></trkpt><trkpt lat="41.845091796994446" lon="15.9147923561563"><ele>615.0</ele><time>2026-03-22T10:51:26.99Z</time></trkpt><trkpt lat="41.84501125650111" lon="15.914795472130805"><ele>615.0</ele><time>2026-03-22T10:51:31.99Z</time></trkpt><trkpt lat="41.844943519116626" lon="15.91479309704452"><ele>615.0</ele><time>2026-03-22T10:51:38.99Z</time></trkpt><trkpt lat="41.84487695613568" lon="15.914727033669337"><ele>615.0</ele><time>2026-03-22T10:52:53.989Z</time></trkpt><trkpt lat="41.84485194329024" lon="15.914805099179238"><ele>615.0</ele><time>2026-03-22T10:53:15.988Z</time></trkpt><trkpt lat="41.8448181878104" lon="15.914708868092589"><ele>615.0</ele><time>2026-03-22T10:53:27.988Z</time></trkpt><trkpt lat="41.84481571585291" lon="15.914595322997034"><ele>615.0</ele><time>2026-03-22T10:53:29.988Z</time></trkpt><trkpt lat="41.84483909134466" lon="15.9144881472657"><ele>615.0</ele><time>2026-03-22T10:53:36.988Z</time></trkpt><trkpt lat="41.84486936897912" lon="15.914412610088203"><ele>615.0</ele><time>2026-03-22T10:53:44.988Z</time></trkpt><trkpt lat="41.84486966385358" lon="15.914312721695815"><ele>615.0</ele><time>2026-03-22T10:53:55.988Z</time></trkpt><trkpt lat="41.844824255366525" lon="15.914389189656703"><ele>615.0</ele><time>2026-03-22T10:54:17.987Z</time></trkpt><trkpt lat="41.84475627517503" lon="15.914427517240258"><ele>615.0</ele><time>2026-03-22T10:54:20.987Z</time></trkpt><trkpt lat="41.84469046874749" lon="15.914481081502313"><ele>615.0</ele><time>2026-03-22T10:54:23.987Z</time></trkpt><trkpt lat="41.84460208863553" lon="15.914486424236717"><ele>615.0</ele><time>2026-03-22T10:54:27.987Z</time></trkpt><trkpt lat="41.844545330032126" lon="15.914523041982662"><ele>615.0</ele><time>2026-03-22T10:54:32.987Z</time></trkpt><trkpt lat="41.84447979880934" lon="15.914539357195752"><ele>615.0</ele><time>2026-03-22T10:54:39.987Z</time></trkpt><trkpt lat="41.844426314411464" lon="15.914484220637108"><ele>615.0</ele><time>2026-03-22T10:54:54.987Z</time></trkpt><trkpt lat="41.84435162111014" lon="15.914499251307031"><ele>615.0</ele><time>2026-03-22T10:55:25.986Z</time></trkpt><trkpt lat="41.84429065814822" lon="15.914527886633591"><ele>619.8</ele><time>2026-03-22T10:56:07.985Z</time></trkpt><trkpt lat="41.84422960569932" lon="15.914551495176369"><ele>624.6</ele><time>2026-03-22T10:56:12.985Z</time></trkpt><trkpt lat="41.84414829699562" lon="15.914634468223477"><ele>629.4</ele><time>2026-03-22T10:56:15.985Z</time></trkpt><trkpt lat="41.84406540574542" lon="15.914710865451083"><ele>634.2</ele><time>2026-03-22T10:56:17.985Z</time></trkpt><trkpt lat="41.84402043668386" lon="15.9148279968784"><ele>639.0</ele><time>2026-03-22T10:56:19.985Z</time></trkpt><trkpt lat="41.843919218523254" lon="15.914948889089574"><ele>639.0</ele><time>2026-03-22T10:56:21.985Z</time></trkpt><trkpt lat="41.843829799063975" lon="15.915029149435021"><ele>639.0</ele><time>2026-03-22T10:56:23.985Z</time></trkpt><trkpt lat="41.843766498505246" lon="15.9151220547128"><ele>639.0</ele><time>2026-03-22T10:56:25.985Z</time></trkpt><trkpt lat="41.8436958048427" lon="15.915215360306474"><ele>639.0</ele><time>2026-03-22T10:56:27.985Z</time></trkpt><trkpt lat="41.84364681198082" lon="15.915286540871836"><ele>639.0</ele><time>2026-03-22T10:56:28.985Z</time></trkpt><trkpt lat="41.843595300828916" lon="15.915368740498081"><ele>640.4</ele><time>2026-03-22T10:56:29.985Z</time></trkpt><trkpt lat="41.84350549292088" lon="15.915466871997006"><ele>641.8</ele><time>2026-03-22T10:56:30.985Z</time></trkpt><trkpt lat="41.84345636111125" lon="15.91553966234465"><ele>643.1999999999999</ele><time>2026-03-22T10:56:31.985Z</time></trkpt><trkpt lat="41.84341063733376" lon="15.915646225546281"><ele>644.5999999999999</ele><time>2026-03-22T10:56:33.985Z</time></trkpt><trkpt lat="41.84331482513866" lon="15.915781440969257"><ele>646.0</ele><time>2026-03-22T10:56:35.985Z</time></trkpt><trkpt lat="41.84323346443966" lon="15.915917537885601"><ele>648.6666666666667</ele><time>2026-03-22T10:56:37.985Z</time></trkpt><trkpt lat="41.84319408009781" lon="15.915996162087525"><ele>651.3333333333334</ele><time>2026-03-22T10:56:38.985Z</time></trkpt><trkpt lat="41.84314444526959" lon="15.916079123203474"><ele>654.0</ele><time>2026-03-22T10:56:39.985Z</time></trkpt><trkpt lat="41.84308953780217" lon="15.916175310626073"><ele>656.6666666666666</ele><time>2026-03-22T10:56:40.985Z</time></trkpt><trkpt lat="41.84303821054207" lon="15.916279214620756"><ele>659.3333333333333</ele><time>2026-03-22T10:56:41.985Z</time></trkpt><trkpt lat="41.84298296270724" lon="15.916359828375178"><ele>662.0</ele><time>2026-03-22T10:56:42.985Z</time></trkpt><trkpt lat="41.84291170473336" lon="15.916436201111487"><ele>662.0</ele><time>2026-03-22T10:56:43.985Z</time></trkpt><trkpt lat="41.84282993730672" lon="15.916558620137028"><ele>662.0</ele><time>2026-03-22T10:56:45.985Z</time></trkpt><trkpt lat="41.84276186292715" lon="15.916614701807282"><ele>662.0</ele><time>2026-03-22T10:56:49.985Z</time></trkpt><trkpt lat="41.84270387219327" lon="15.91669471061908"><ele>662.0</ele><time>2026-03-22T10:56:51.985Z</time></trkpt><trkpt lat="41.842617686303925" lon="15.91675991840222"><ele>662.0</ele><time>2026-03-22T10:56:53.985Z</time></trkpt><trkpt lat="41.84256511862339" lon="15.91682194817128"><ele>663.6</ele><time>2026-03-22T10:56:54.985Z</time></trkpt><trkpt lat="41.842432918803105" lon="15.91689635913105"><ele>665.2</ele><time>2026-03-22T10:56:56.985Z</time></trkpt><trkpt lat="41.84236849626525" lon="15.916926117608499"><ele>666.8</ele><time>2026-03-22T10:56:57.985Z</time></trkpt><trkpt lat="41.84229449845764" lon="15.91696224876371"><ele>668.4</ele><time>2026-03-22T10:56:59.984Z</time></trkpt><trkpt lat="41.84217525134579" lon="15.916992480772342"><ele>670.0</ele><time>2026-03-22T10:57:01.984Z</time></trkpt><trkpt lat="41.84208096274715" lon="15.917020401800627"><ele>670.0</ele><time>2026-03-22T10:57:03.984Z</time></trkpt><trkpt lat="41.84199975711574" lon="15.916997938484096"><ele>670.0</ele><time>2026-03-22T10:57:05.984Z</time></trkpt><trkpt lat="41.84188722402252" lon="15.916987640727534"><ele>670.0</ele><time>2026-03-22T10:57:07.984Z</time></trkpt><trkpt lat="41.841819670226435" lon="15.916917420197827"><ele>670.0</ele><time>2026-03-22T10:57:09.984Z</time></trkpt><trkpt lat="41.84175733899028" lon="15.91687968597369"><ele>670.0</ele><time>2026-03-22T10:57:10.984Z</time></trkpt><trkpt lat="41.84171906592772" lon="15.916809986096943"><ele>670.0</ele><time>2026-03-22T10:57:11.984Z</time></trkpt><trkpt lat="41.841647742887716" lon="15.916784629043411"><ele>669.0</ele><time>2026-03-22T10:57:13.984Z</time></trkpt><trkpt lat="41.84158420830127" lon="15.9167995273035"><ele>668.0</ele><time>2026-03-22T10:57:15.984Z</time></trkpt><trkpt lat="41.84146846158471" lon="15.916834792468356"><ele>667.0</ele><time>2026-03-22T10:57:17.984Z</time></trkpt><trkpt lat="41.84136416476332" lon="15.916866525866332"><ele>666.0</ele><time>2026-03-22T10:57:19.984Z</time></trkpt><trkpt lat="41.841297407897095" lon="15.916890723216982"><ele>665.0</ele><time>2026-03-22T10:57:21.984Z</time></trkpt><trkpt lat="41.84119580647919" lon="15.916906357156773"><ele>665.0</ele><time>2026-03-22T10:57:25.984Z</time></trkpt><trkpt lat="41.84113236726622" lon="15.916897884414427"><ele>665.0</ele><time>2026-03-22T10:57:27.984Z</time></trkpt><trkpt lat="41.84104798716888" lon="15.916884241284256"><ele>665.0</ele><time>2026-03-22T10:57:32.984Z</time></trkpt><trkpt lat="41.84096744569745" lon="15.91684858568136"><ele>665.0</ele><time>2026-03-22T10:57:34.984Z</time></trkpt><trkpt lat="41.84081904982974" lon="15.916830003674447"><ele>665.0</ele><time>2026-03-22T10:57:36.984Z</time></trkpt><trkpt lat="41.840705687697124" lon="15.916811290500522"><ele>667.75</ele><time>2026-03-22T10:57:37.984Z</time></trkpt><trkpt lat="41.84059574341753" lon="15.916774015396674"><ele>670.5</ele><time>2026-03-22T10:57:38.984Z</time></trkpt><trkpt lat="41.84046764702616" lon="15.916734873434946"><ele>673.25</ele><time>2026-03-22T10:57:39.984Z</time></trkpt><trkpt lat="41.8403370463574" lon="15.916715853756203"><ele>676.0</ele><time>2026-03-22T10:57:40.984Z</time></trkpt><trkpt lat="41.84023362004611" lon="15.916700850771301"><ele>676.0</ele><time>2026-03-22T10:57:41.984Z</time></trkpt><trkpt lat="41.8401342840092" lon="15.916685862512498"><ele>676.0</ele><time>2026-03-22T10:57:42.984Z</time></trkpt><trkpt lat="41.84006255725469" lon="15.916664719553312"><ele>676.0</ele><time>2026-03-22T10:57:43.984Z</time></trkpt><trkpt lat="41.83996883475884" lon="15.916637312457487"><ele>676.0</ele><time>2026-03-22T10:57:44.984Z</time></trkpt><trkpt lat="41.83987774811745" lon="15.916606509116189"><ele>676.0</ele><time>2026-03-22T10:57:45.984Z</time></trkpt><trkpt lat="41.839806070632086" lon="15.916580338993397"><ele>676.0</ele><time>2026-03-22T10:57:46.984Z</time></trkpt><trkpt lat="41.83970300430404" lon="15.916577223667996"><ele>677.1666666666667</ele><time>2026-03-22T10:57:47.984Z</time></trkpt><trkpt lat="41.83960735065829" lon="15.916540484296691"><ele>678.3333333333334</ele><time>2026-03-22T10:57:48.984Z</time></trkpt><trkpt lat="41.83952275355366" lon="15.91649229397105"><ele>679.5</ele><time>2026-03-22T10:57:49.984Z</time></trkpt><trkpt lat="41.83945603949591" lon="15.916447388775648"><ele>680.6666666666666</ele><time>2026-03-22T10:57:50.984Z</time></trkpt><trkpt lat="41.839401991300456" lon="15.916400017961614"><ele>681.8333333333333</ele><time>2026-03-22T10:57:51.984Z</time></trkpt><trkpt lat="41.83934736485061" lon="15.916329358236615"><ele>683.0</ele><time>2026-03-22T10:57:52.984Z</time></trkpt><trkpt lat="41.83929620104619" lon="15.916236549401946"><ele>682.7142857142858</ele><time>2026-03-22T10:57:53.984Z</time></trkpt><trkpt lat="41.839235794725056" lon="15.916158758209034"><ele>682.4285714285714</ele><time>2026-03-22T10:57:54.984Z</time></trkpt><trkpt lat="41.83917890936468" lon="15.916094586877982"><ele>682.1428571428571</ele><time>2026-03-22T10:57:57.984Z</time></trkpt><trkpt lat="41.83914185891639" lon="15.91601405320504"><ele>681.8571428571429</ele><time>2026-03-22T10:58:02.983Z</time></trkpt><trkpt lat="41.83909027144903" lon="15.915963382651869"><ele>681.5714285714286</ele><time>2026-03-22T10:58:10.983Z</time></trkpt><trkpt lat="41.83904528017388" lon="15.915903369554517"><ele>681.2857142857143</ele><time>2026-03-22T10:58:38.983Z</time></trkpt><trkpt lat="41.838982028679766" lon="15.915866762312069"><ele>681.0</ele><time>2026-03-22T10:58:47.983Z</time></trkpt><trkpt lat="41.83891483872676" lon="15.915850184472815"><ele>681.0</ele><time>2026-03-22T10:58:53.983Z</time></trkpt><trkpt lat="41.838851427213136" lon="15.915815346469838"><ele>681.0</ele><time>2026-03-22T10:58:57.983Z</time></trkpt><trkpt lat="41.838776827402796" lon="15.915749340157676"><ele>681.0</ele><time>2026-03-22T10:58:59.983Z</time></trkpt><trkpt lat="41.83871948131735" lon="15.915701500352784"><ele>681.0</ele><time>2026-03-22T10:59:01.983Z</time></trkpt><trkpt lat="41.8386532065701" lon="15.915623993785243"><ele>681.0</ele><time>2026-03-22T10:59:03.982Z</time></trkpt><trkpt lat="41.83859385846024" lon="15.915571046972516"><ele>681.0</ele><time>2026-03-22T10:59:05.982Z</time></trkpt><trkpt lat="41.8385128733321" lon="15.915473622028559"><ele>684.6666666666666</ele><time>2026-03-22T10:59:07.982Z</time></trkpt><trkpt lat="41.838435250289784" lon="15.915360340617093"><ele>688.3333333333334</ele><time>2026-03-22T10:59:09.982Z</time></trkpt><trkpt lat="41.83839206193202" lon="15.915289587441176"><ele>692.0</ele><time>2026-03-22T10:59:10.982Z</time></trkpt><trkpt lat="41.8383553919324" lon="15.915215246326149"><ele>695.6666666666667</ele><time>2026-03-22T10:59:11.982Z</time></trkpt><trkpt lat="41.83831181078164" lon="15.915149891190357"><ele>699.3333333333334</ele><time>2026-03-22T10:59:12.982Z</time></trkpt><trkpt lat="41.83828954510516" lon="15.915050849303364"><ele>703.0</ele><time>2026-03-22T10:59:14.982Z</time></trkpt><trkpt lat="41.83822828378743" lon="15.915013890922086"><ele>703.0</ele><time>2026-03-22T10:59:19.982Z</time></trkpt><trkpt lat="41.83814509167154" lon="15.914960025252482"><ele>703.0</ele><time>2026-03-22T10:59:23.982Z</time></trkpt><trkpt lat="41.838141561243326" lon="15.914829974531235"><ele>703.0</ele><time>2026-03-22T10:59:26.982Z</time></trkpt><trkpt lat="41.83819296257069" lon="15.914716027078548"><ele>703.0</ele><time>2026-03-22T10:59:28.982Z</time></trkpt><trkpt lat="41.83824855723302" lon="15.914637616610554"><ele>703.0</ele><time>2026-03-22T10:59:30.982Z</time></trkpt><trkpt lat="41.83818393347335" lon="15.914650104239644"><ele>703.0</ele><time>2026-03-22T10:59:36.982Z</time></trkpt><trkpt lat="41.83810930029837" lon="15.91471738111237"><ele>703.0</ele><time>2026-03-22T10:59:38.982Z</time></trkpt><trkpt lat="41.838054205079075" lon="15.914774555016933"><ele>703.0</ele><time>2026-03-22T10:59:39.982Z</time></trkpt><trkpt lat="41.83798522837541" lon="15.914842311215953"><ele>703.0</ele><time>2026-03-22T10:59:40.982Z</time></trkpt><trkpt lat="41.83793703931769" lon="15.914958168682382"><ele>703.0</ele><time>2026-03-22T10:59:42.982Z</time></trkpt><trkpt lat="41.83792548642751" lon="15.915041647572446"><ele>703.0</ele><time>2026-03-22T10:59:43.982Z</time></trkpt><trkpt lat="41.83790823074432" lon="15.915134353346751"><ele>703.0</ele><time>2026-03-22T10:59:44.982Z</time></trkpt><trkpt lat="41.83787683186431" lon="15.915245185696136"><ele>703.0</ele><time>2026-03-22T10:59:45.982Z</time></trkpt><trkpt lat="41.83786062182675" lon="15.915407496446456"><ele>703.0</ele><time>2026-03-22T10:59:47.982Z</time></trkpt><trkpt lat="41.83784522910634" lon="15.915580664420439"><ele>703.0</ele><time>2026-03-22T10:59:49.982Z</time></trkpt><trkpt lat="41.83778257398003" lon="15.915737364939787"><ele>703.0</ele><time>2026-03-22T10:59:51.982Z</time></trkpt><trkpt lat="41.8377526149263" lon="15.91581493812271"><ele>703.5</ele><time>2026-03-22T10:59:52.982Z</time></trkpt><trkpt lat="41.83772457354008" lon="15.915952440244727"><ele>704.0</ele><time>2026-03-22T10:59:54.982Z</time></trkpt><trkpt lat="41.83769545416609" lon="15.916084818993747"><ele>704.5</ele><time>2026-03-22T10:59:56.982Z</time></trkpt><trkpt lat="41.83768850765442" lon="15.916175244952845"><ele>705.0</ele><time>2026-03-22T10:59:58.982Z</time></trkpt><trkpt lat="41.837716616882325" lon="15.916279376633327"><ele>705.5</ele><time>2026-03-22T11:00:00.982Z</time></trkpt><trkpt lat="41.83774386957251" lon="15.916388183872725"><ele>706.0</ele><time>2026-03-22T11:00:01.982Z</time></trkpt><trkpt lat="41.83778303686744" lon="15.9165203760353"><ele>706.0</ele><time>2026-03-22T11:00:03.982Z</time></trkpt><trkpt lat="41.837825704506095" lon="15.9166024548232"><ele>706.0</ele><time>2026-03-22T11:00:04.981Z</time></trkpt><trkpt lat="41.83786384894424" lon="15.916720501223272"><ele>706.0</ele><time>2026-03-22T11:00:06.981Z</time></trkpt><trkpt lat="41.837916864612474" lon="15.9168288482788"><ele>706.0</ele><time>2026-03-22T11:00:08.981Z</time></trkpt><trkpt lat="41.83796479685111" lon="15.916895073213722"><ele>706.0</ele><time>2026-03-22T11:00:09.981Z</time></trkpt><trkpt lat="41.838022196888026" lon="15.916973479757637"><ele>706.0</ele><time>2026-03-22T11:00:10.981Z</time></trkpt><trkpt lat="41.83805695393382" lon="15.917048043029478"><ele>705.1999999999999</ele><time>2026-03-22T11:00:11.981Z</time></trkpt><trkpt lat="41.838078843061396" lon="15.917187237259762"><ele>704.4</ele><time>2026-03-22T11:00:14.981Z</time></trkpt><trkpt lat="41.838112094091244" lon="15.917268456159203"><ele>703.6</ele><time>2026-03-22T11:00:15.981Z</time></trkpt><trkpt lat="41.83819525769118" lon="15.917452185444168"><ele>702.8</ele><time>2026-03-22T11:00:17.981Z</time></trkpt><trkpt lat="41.83823900682743" lon="15.9175371366667"><ele>702.0</ele><time>2026-03-22T11:00:18.981Z</time></trkpt><trkpt lat="41.83827817760421" lon="15.9176496798942"><ele>701.1666666666666</ele><time>2026-03-22T11:00:19.981Z</time></trkpt><trkpt lat="41.83832302189073" lon="15.917746079863736"><ele>700.3333333333334</ele><time>2026-03-22T11:00:20.981Z</time></trkpt><trkpt lat="41.83836995366862" lon="15.917823135129893"><ele>699.5</ele><time>2026-03-22T11:00:21.981Z</time></trkpt><trkpt lat="41.8384261037776" lon="15.917921787447403"><ele>698.6666666666667</ele><time>2026-03-22T11:00:22.981Z</time></trkpt><trkpt lat="41.838460888137845" lon="15.918024042934515"><ele>697.8333333333334</ele><time>2026-03-22T11:00:23.981Z</time></trkpt><trkpt lat="41.83850059328886" lon="15.918124374914786"><ele>697.0</ele><time>2026-03-22T11:00:24.981Z</time></trkpt><trkpt lat="41.838548095205134" lon="15.918219282643475"><ele>697.0</ele><time>2026-03-22T11:00:25.981Z</time></trkpt><trkpt lat="41.838587398132454" lon="15.918312379842014"><ele>697.0</ele><time>2026-03-22T11:00:26.981Z</time></trkpt><trkpt lat="41.838636033781306" lon="15.918456077167496"><ele>697.0</ele><time>2026-03-22T11:00:28.981Z</time></trkpt><trkpt lat="41.83868127770145" lon="15.91856600580041"><ele>697.0</ele><time>2026-03-22T11:00:30.981Z</time></trkpt><trkpt lat="41.83866723947227" lon="15.918704991780666"><ele>697.0</ele><time>2026-03-22T11:00:32.981Z</time></trkpt><trkpt lat="41.838550194938826" lon="15.918717620606106"><ele>691.6</ele><time>2026-03-22T11:00:34.981Z</time></trkpt><trkpt lat="41.83844734730763" lon="15.918656086618357"><ele>686.2</ele><time>2026-03-22T11:00:36.981Z</time></trkpt><trkpt lat="41.838379944134495" lon="15.918619922620024"><ele>680.8</ele><time>2026-03-22T11:00:37.981Z</time></trkpt><trkpt lat="41.83826437619628" lon="15.9185951660243"><ele>675.4</ele><time>2026-03-22T11:00:39.999Z</time></trkpt><trkpt lat="41.838128133186544" lon="15.918565079403695"><ele>670.0</ele><time>2026-03-22T11:00:41.999Z</time></trkpt><trkpt lat="41.8380368951732" lon="15.918534068759117"><ele>670.0</ele><time>2026-03-22T11:00:42.999Z</time></trkpt><trkpt lat="41.83793837016719" lon="15.918480521809316"><ele>670.0</ele><time>2026-03-22T11:00:43.999Z</time></trkpt><trkpt lat="41.83785071125393" lon="15.918433563814812"><ele>670.0</ele><time>2026-03-22T11:00:44.999Z</time></trkpt><trkpt lat="41.837757407828015" lon="15.918416978933188"><ele>670.0</ele><time>2026-03-22T11:00:45.999Z</time></trkpt><trkpt lat="41.83766950111686" lon="15.918408866100998"><ele>670.0</ele><time>2026-03-22T11:00:46.999Z</time></trkpt><trkpt lat="41.83756334492561" lon="15.918419882938773"><ele>670.0</ele><time>2026-03-22T11:00:47.999Z</time></trkpt><trkpt lat="41.83743084362212" lon="15.918428400090063"><ele>670.0</ele><time>2026-03-22T11:00:48.999Z</time></trkpt><trkpt lat="41.837326005922634" lon="15.918414124741552"><ele>670.0</ele><time>2026-03-22T11:00:49.999Z</time></trkpt><trkpt lat="41.83724694185508" lon="15.918387459566187"><ele>670.0</ele><time>2026-03-22T11:00:50.999Z</time></trkpt><trkpt lat="41.8371677661835" lon="15.918388537800565"><ele>670.0</ele><time>2026-03-22T11:00:51.999Z</time></trkpt><trkpt lat="41.83708358491531" lon="15.918442626818045"><ele>665.0</ele><time>2026-03-22T11:00:52.999Z</time></trkpt><trkpt lat="41.8370058220141" lon="15.918539528809735"><ele>660.0</ele><time>2026-03-22T11:00:53.999Z</time></trkpt><trkpt lat="41.83693744621146" lon="15.91861418382497"><ele>655.0</ele><time>2026-03-22T11:00:54.999Z</time></trkpt><trkpt lat="41.8368772433485" lon="15.918649966933899"><ele>650.0</ele><time>2026-03-22T11:00:55.999Z</time></trkpt><trkpt lat="41.836789742093266" lon="15.918671274445504"><ele>645.0</ele><time>2026-03-22T11:00:57.999Z</time></trkpt><trkpt lat="41.83667777693852" lon="15.918699416355588"><ele>644.6</ele><time>2026-03-22T11:00:59.999Z</time></trkpt><trkpt lat="41.836570552993486" lon="15.9186957761401"><ele>644.2</ele><time>2026-03-22T11:01:00.999Z</time></trkpt><trkpt lat="41.83646044090533" lon="15.918693744010003"><ele>643.8</ele><time>2026-03-22T11:01:01.999Z</time></trkpt><trkpt lat="41.836369084026146" lon="15.918683736189962"><ele>643.4</ele><time>2026-03-22T11:01:02.999Z</time></trkpt><trkpt lat="41.83628048474739" lon="15.918689542440067"><ele>643.0</ele><time>2026-03-22T11:01:03.999Z</time></trkpt><trkpt lat="41.836203639060706" lon="15.918701398302684"><ele>643.0</ele><time>2026-03-22T11:01:04.999Z</time></trkpt><trkpt lat="41.83606634510459" lon="15.918708277690296"><ele>643.0</ele><time>2026-03-22T11:01:06.999Z</time></trkpt><trkpt lat="41.835997697716856" lon="15.918709800349546"><ele>643.0</ele><time>2026-03-22T11:01:07.999Z</time></trkpt><trkpt lat="41.83586887440357" lon="15.918702613334673"><ele>643.0</ele><time>2026-03-22T11:01:09.999Z</time></trkpt><trkpt lat="41.83578234182046" lon="15.91870890046385"><ele>643.0</ele><time>2026-03-22T11:01:10.999Z</time></trkpt><trkpt lat="41.835696331190135" lon="15.918705313445972"><ele>642.6666666666667</ele><time>2026-03-22T11:01:11.999Z</time></trkpt><trkpt lat="41.8355925583541" lon="15.918702945157102"><ele>642.3333333333334</ele><time>2026-03-22T11:01:12.999Z</time></trkpt><trkpt lat="41.83549795852278" lon="15.918699317914939"><ele>642.0</ele><time>2026-03-22T11:01:13.999Z</time></trkpt><trkpt lat="41.83541784954938" lon="15.918703522246176"><ele>641.6666666666666</ele><time>2026-03-22T11:01:14.999Z</time></trkpt><trkpt lat="41.83535476859553" lon="15.91871614466436"><ele>641.3333333333333</ele><time>2026-03-22T11:01:15.999Z</time></trkpt><trkpt lat="41.83525421030001" lon="15.918731973061835"><ele>641.0</ele><time>2026-03-22T11:01:17.999Z</time></trkpt><trkpt lat="41.83520585253342" lon="15.91885254410319"><ele>641.0</ele><time>2026-03-22T11:01:19.999Z</time></trkpt><trkpt lat="41.8352351752678" lon="15.918980245045633"><ele>641.0</ele><time>2026-03-22T11:01:21.999Z</time></trkpt><trkpt lat="41.83532101481962" lon="15.919071836340802"><ele>641.0</ele><time>2026-03-22T11:01:24Z</time></trkpt><trkpt lat="41.835386809826176" lon="15.919168729480235"><ele>641.0</ele><time>2026-03-22T11:01:26.001Z</time></trkpt><trkpt lat="41.83542533757185" lon="15.919236185652112"><ele>641.0</ele><time>2026-03-22T11:01:28.001Z</time></trkpt><trkpt lat="41.835473165412374" lon="15.919312471161481"><ele>641.0</ele><time>2026-03-22T11:01:31Z</time></trkpt><trkpt lat="41.835531633175364" lon="15.919403899307191"><ele>639.8333333333333</ele><time>2026-03-22T11:01:34Z</time></trkpt><trkpt lat="41.835596421627265" lon="15.919467618005836"><ele>638.6666666666666</ele><time>2026-03-22T11:01:37.001Z</time></trkpt><trkpt lat="41.83563331160909" lon="15.919546405782903"><ele>637.5</ele><time>2026-03-22T11:01:38.001Z</time></trkpt><trkpt lat="41.835659069111685" lon="15.919650900300004"><ele>636.3333333333334</ele><time>2026-03-22T11:01:39.001Z</time></trkpt><trkpt lat="41.835689394530206" lon="15.91975865121464"><ele>635.1666666666667</ele><time>2026-03-22T11:01:40.001Z</time></trkpt><trkpt lat="41.835704397258155" lon="15.919868950764357"><ele>634.0</ele><time>2026-03-22T11:01:42.001Z</time></trkpt><trkpt lat="41.83573273977131" lon="15.919977015312437"><ele>634.0</ele><time>2026-03-22T11:01:44.001Z</time></trkpt><trkpt lat="41.83574292572038" lon="15.920064218361325"><ele>634.0</ele><time>2026-03-22T11:01:45.001Z</time></trkpt><trkpt lat="41.835776330113745" lon="15.920141097897075"><ele>634.0</ele><time>2026-03-22T11:01:47.001Z</time></trkpt><trkpt lat="41.83578584761804" lon="15.920267694525613"><ele>634.0</ele><time>2026-03-22T11:01:52.001Z</time></trkpt><trkpt lat="41.835787213305274" lon="15.920352521185029"><ele>634.0</ele><time>2026-03-22T11:01:53.001Z</time></trkpt><trkpt lat="41.83581058175244" lon="15.920454423439597"><ele>634.0</ele><time>2026-03-22T11:01:54.001Z</time></trkpt><trkpt lat="41.835828938469184" lon="15.92060428053733"><ele>634.8</ele><time>2026-03-22T11:01:56.001Z</time></trkpt><trkpt lat="41.835830213894155" lon="15.920783971290263"><ele>635.5999999999999</ele><time>2026-03-22T11:01:58.001Z</time></trkpt><trkpt lat="41.83582944981919" lon="15.92089993063106"><ele>636.4</ele><time>2026-03-22T11:01:59.001Z</time></trkpt><trkpt lat="41.83582636659255" lon="15.921011917929997"><ele>637.1999999999999</ele><time>2026-03-22T11:02:00.001Z</time></trkpt><trkpt lat="41.835812286916116" lon="15.921159093762636"><ele>638.0</ele><time>2026-03-22T11:02:01.001Z</time></trkpt><trkpt lat="41.83579098930876" lon="15.921293471354085"><ele>635.8333333333333</ele><time>2026-03-22T11:02:02Z</time></trkpt><trkpt lat="41.83577178417047" lon="15.921406668985364"><ele>633.6666666666666</ele><time>2026-03-22T11:02:03Z</time></trkpt><trkpt lat="41.835761960684884" lon="15.921491887537586"><ele>631.5</ele><time>2026-03-22T11:02:04Z</time></trkpt><trkpt lat="41.835736403684145" lon="15.921607715533332"><ele>629.3333333333334</ele><time>2026-03-22T11:02:06Z</time></trkpt><trkpt lat="41.8357106912668" lon="15.921697939647775"><ele>627.1666666666667</ele><time>2026-03-22T11:02:08Z</time></trkpt><trkpt lat="41.83567925079751" lon="15.921780184571658"><ele>625.0</ele><time>2026-03-22T11:02:10Z</time></trkpt><trkpt lat="41.83563539879351" lon="15.92188030145809"><ele>622.2</ele><time>2026-03-22T11:02:13Z</time></trkpt><trkpt lat="41.83558912100657" lon="15.921949056852586"><ele>619.4</ele><time>2026-03-22T11:02:16Z</time></trkpt><trkpt lat="41.8355668612841" lon="15.922065872202399"><ele>616.6</ele><time>2026-03-22T11:02:19Z</time></trkpt><trkpt lat="41.83549886008513" lon="15.922154106986802"><ele>613.8</ele><time>2026-03-22T11:02:21Z</time></trkpt><trkpt lat="41.835414351287135" lon="15.922270075896526"><ele>611.0</ele><time>2026-03-22T11:02:23Z</time></trkpt><trkpt lat="41.83535015299267" lon="15.922338173508514"><ele>611.0</ele><time>2026-03-22T11:02:24Z</time></trkpt><trkpt lat="41.83525835437278" lon="15.922390007445017"><ele>611.0</ele><time>2026-03-22T11:02:25Z</time></trkpt><trkpt lat="41.83517951936792" lon="15.922438054932336"><ele>611.0</ele><time>2026-03-22T11:02:26Z</time></trkpt><trkpt lat="41.83512875150155" lon="15.922493869573003"><ele>611.0</ele><time>2026-03-22T11:02:27Z</time></trkpt><trkpt lat="41.83503440298546" lon="15.92257136297735"><ele>611.0</ele><time>2026-03-22T11:02:29Z</time></trkpt><trkpt lat="41.83497734987676" lon="15.922611473679352"><ele>611.0</ele><time>2026-03-22T11:02:30Z</time></trkpt><trkpt lat="41.834882933619475" lon="15.92264139986879"><ele>613.5</ele><time>2026-03-22T11:02:31Z</time></trkpt><trkpt lat="41.83479674955165" lon="15.922680393175753"><ele>616.0</ele><time>2026-03-22T11:02:32Z</time></trkpt><trkpt lat="41.83473036582806" lon="15.922711907778371"><ele>618.5</ele><time>2026-03-22T11:02:33Z</time></trkpt><trkpt lat="41.83467238222327" lon="15.922761195019403"><ele>621.0</ele><time>2026-03-22T11:02:34Z</time></trkpt><trkpt lat="41.83465640597012" lon="15.922864845974615"><ele>623.5</ele><time>2026-03-22T11:02:36Z</time></trkpt><trkpt lat="41.83464781012484" lon="15.92295949172762"><ele>626.0</ele><time>2026-03-22T11:02:38Z</time></trkpt><trkpt lat="41.834618496354196" lon="15.92306070341146"><ele>626.0</ele><time>2026-03-22T11:02:40Z</time></trkpt><trkpt lat="41.83458313113378" lon="15.923229904642092"><ele>626.0</ele><time>2026-03-22T11:02:42Z</time></trkpt><trkpt lat="41.83456514838965" lon="15.923327958848473"><ele>626.0</ele><time>2026-03-22T11:02:43Z</time></trkpt><trkpt lat="41.83454729351053" lon="15.923429789111696"><ele>626.0</ele><time>2026-03-22T11:02:44Z</time></trkpt><trkpt lat="41.834493763077" lon="15.923527554631866"><ele>626.0</ele><time>2026-03-22T11:02:45Z</time></trkpt><trkpt lat="41.834427668123666" lon="15.923687732860236"><ele>629.1666666666666</ele><time>2026-03-22T11:02:47Z</time></trkpt><trkpt lat="41.83438447726675" lon="15.923749465842416"><ele>632.3333333333333</ele><time>2026-03-22T11:02:48Z</time></trkpt><trkpt lat="41.83433314995296" lon="15.923858327745037"><ele>635.5</ele><time>2026-03-22T11:02:50Z</time></trkpt><trkpt lat="41.834360704641625" lon="15.923967970383224"><ele>638.6666666666666</ele><time>2026-03-22T11:02:53Z</time></trkpt><trkpt lat="41.8344232880776" lon="15.923985455085331"><ele>641.8333333333334</ele><time>2026-03-22T11:02:54Z</time></trkpt><trkpt lat="41.83450023819342" lon="15.923985784876775"><ele>645.0</ele><time>2026-03-22T11:02:55Z</time></trkpt><trkpt lat="41.834600670416016" lon="15.924010767204406"><ele>645.0</ele><time>2026-03-22T11:02:56Z</time></trkpt><trkpt lat="41.83473513849788" lon="15.924002079338383"><ele>645.0</ele><time>2026-03-22T11:02:57Z</time></trkpt><trkpt lat="41.83485668401973" lon="15.923980881670735"><ele>645.0</ele><time>2026-03-22T11:02:58Z</time></trkpt><trkpt lat="41.83496159984482" lon="15.923978670300786"><ele>645.0</ele><time>2026-03-22T11:02:59Z</time></trkpt><trkpt lat="41.835052947767956" lon="15.923986864051061"><ele>646.0</ele><time>2026-03-22T11:03:00Z</time></trkpt><trkpt lat="41.835143153278565" lon="15.923994114761301"><ele>647.0</ele><time>2026-03-22T11:03:01Z</time></trkpt><trkpt lat="41.83521966404052" lon="15.923981336955306"><ele>648.0</ele><time>2026-03-22T11:03:02Z</time></trkpt><trkpt lat="41.835296920628274" lon="15.924000845824875"><ele>649.0</ele><time>2026-03-22T11:03:02.999Z</time></trkpt><trkpt lat="41.83531157861102" lon="15.924092203034283"><ele>650.0</ele><time>2026-03-22T11:03:05.999Z</time></trkpt><trkpt lat="41.835218104003154" lon="15.924191313848297"><ele>651.0</ele><time>2026-03-22T11:03:07.999Z</time></trkpt><trkpt lat="41.83514353876011" lon="15.924233067975816"><ele>654.5</ele><time>2026-03-22T11:03:08.999Z</time></trkpt><trkpt lat="41.835068256562586" lon="15.924292368888866"><ele>658.0</ele><time>2026-03-22T11:03:09.999Z</time></trkpt><trkpt lat="41.83499897504053" lon="15.924360729918508"><ele>661.5</ele><time>2026-03-22T11:03:10.999Z</time></trkpt><trkpt lat="41.83493020554433" lon="15.924426870931413"><ele>665.0</ele><time>2026-03-22T11:03:11.999Z</time></trkpt><trkpt lat="41.83485927813978" lon="15.924509882823717"><ele>668.5</ele><time>2026-03-22T11:03:12.999Z</time></trkpt><trkpt lat="41.83479610510864" lon="15.924569769057749"><ele>672.0</ele><time>2026-03-22T11:03:13.999Z</time></trkpt><trkpt lat="41.83474569811447" lon="15.924632183293674"><ele>672.0</ele><time>2026-03-22T11:03:14.999Z</time></trkpt><trkpt lat="41.83468212727146" lon="15.924735376080328"><ele>672.0</ele><time>2026-03-22T11:03:16.999Z</time></trkpt><trkpt lat="41.83464824833289" lon="15.92483308615875"><ele>672.0</ele><time>2026-03-22T11:03:17.999Z</time></trkpt><trkpt lat="41.834552816202674" lon="15.924987078891261"><ele>672.0</ele><time>2026-03-22T11:03:18.999Z</time></trkpt><trkpt lat="41.83445416624444" lon="15.925123130873109"><ele>673.0</ele><time>2026-03-22T11:03:19.999Z</time></trkpt><trkpt lat="41.834379656393494" lon="15.925258519647747"><ele>674.0</ele><time>2026-03-22T11:03:20.999Z</time></trkpt><trkpt lat="41.834311270894055" lon="15.92536180916236"><ele>675.0</ele><time>2026-03-22T11:03:21.999Z</time></trkpt><trkpt lat="41.83424985260899" lon="15.925421844873865"><ele>676.0</ele><time>2026-03-22T11:03:22.999Z</time></trkpt><trkpt lat="41.834200150087874" lon="15.925540222437071"><ele>677.0</ele><time>2026-03-22T11:03:24.999Z</time></trkpt><trkpt lat="41.834136711282056" lon="15.925642191633749"><ele>677.0</ele><time>2026-03-22T11:03:26.999Z</time></trkpt><trkpt lat="41.834059882364016" lon="15.925731271779794"><ele>677.0</ele><time>2026-03-22T11:03:28Z</time></trkpt><trkpt lat="41.83401076955502" lon="15.925818089607347"><ele>677.0</ele><time>2026-03-22T11:03:29Z</time></trkpt><trkpt lat="41.8339585958542" lon="15.925907080492781"><ele>677.0</ele><time>2026-03-22T11:03:30Z</time></trkpt><trkpt lat="41.83392866173391" lon="15.92598382830832"><ele>677.0</ele><time>2026-03-22T11:03:31.001Z</time></trkpt><trkpt lat="41.83389972454095" lon="15.926108095162082"><ele>677.0</ele><time>2026-03-22T11:03:33.001Z</time></trkpt><trkpt lat="41.833837393589626" lon="15.926287064677027"><ele>680.4000000000001</ele><time>2026-03-22T11:03:35Z</time></trkpt><trkpt lat="41.8337968150084" lon="15.92639427231995"><ele>683.8000000000001</ele><time>2026-03-22T11:03:36Z</time></trkpt><trkpt lat="41.833755593142" lon="15.92651318845989"><ele>687.2</ele><time>2026-03-22T11:03:37.001Z</time></trkpt><trkpt lat="41.833688500087746" lon="15.926589242449307"><ele>690.6</ele><time>2026-03-22T11:03:38Z</time></trkpt><trkpt lat="41.83358909839395" lon="15.926699300977539"><ele>694.0</ele><time>2026-03-22T11:03:39Z</time></trkpt><trkpt lat="41.83349745212982" lon="15.92683676749584"><ele>694.8000000000001</ele><time>2026-03-22T11:03:40Z</time></trkpt><trkpt lat="41.833411278273815" lon="15.926949797863298"><ele>695.6</ele><time>2026-03-22T11:03:41Z</time></trkpt><trkpt lat="41.833329832126054" lon="15.927063081413543"><ele>696.4</ele><time>2026-03-22T11:03:42Z</time></trkpt><trkpt lat="41.83328016279299" lon="15.927153943338226"><ele>697.2</ele><time>2026-03-22T11:03:43Z</time></trkpt><trkpt lat="41.833226354610524" lon="15.927227621768223"><ele>698.0</ele><time>2026-03-22T11:03:44Z</time></trkpt><trkpt lat="41.833182393119586" lon="15.927299791375258"><ele>698.0</ele><time>2026-03-22T11:03:45Z</time></trkpt><trkpt lat="41.83308993430203" lon="15.927443161755189"><ele>698.0</ele><time>2026-03-22T11:03:47Z</time></trkpt><trkpt lat="41.83304010220926" lon="15.927535845325412"><ele>698.0</ele><time>2026-03-22T11:03:48Z</time></trkpt><trkpt lat="41.83296765262351" lon="15.92766169975428"><ele>698.0</ele><time>2026-03-22T11:03:50Z</time></trkpt><trkpt lat="41.83291288162607" lon="15.927720347696383"><ele>698.0</ele><time>2026-03-22T11:03:51Z</time></trkpt><trkpt lat="41.832861277536914" lon="15.927786607026272"><ele>699.3333333333333</ele><time>2026-03-22T11:03:52Z</time></trkpt><trkpt lat="41.832782103409045" lon="15.927888762083738"><ele>700.6666666666666</ele><time>2026-03-22T11:03:54Z</time></trkpt><trkpt lat="41.832750149192016" lon="15.927966310665258"><ele>702.0</ele><time>2026-03-22T11:03:56Z</time></trkpt><trkpt lat="41.832750443479334" lon="15.928054777151432"><ele>703.3333333333334</ele><time>2026-03-22T11:03:58Z</time></trkpt><trkpt lat="41.832778900798424" lon="15.928200333962293"><ele>704.6666666666667</ele><time>2026-03-22T11:04:00Z</time></trkpt><trkpt lat="41.832819666929396" lon="15.928303929685214"><ele>706.0</ele><time>2026-03-22T11:04:01Z</time></trkpt><trkpt lat="41.83284842801797" lon="15.928411608658555"><ele>706.0</ele><time>2026-03-22T11:04:02Z</time></trkpt><trkpt lat="41.83286783376534" lon="15.928553359044859"><ele>706.0</ele><time>2026-03-22T11:04:03Z</time></trkpt><trkpt lat="41.832866802906906" lon="15.928710514559842"><ele>706.0</ele><time>2026-03-22T11:04:04Z</time></trkpt><trkpt lat="41.832852242337886" lon="15.928816795841632"><ele>706.0</ele><time>2026-03-22T11:04:05Z</time></trkpt><trkpt lat="41.83286600882635" lon="15.92890881772729"><ele>706.0</ele><time>2026-03-22T11:04:07Z</time></trkpt><trkpt lat="41.83292681435594" lon="15.928980771757683"><ele>706.0</ele><time>2026-03-22T11:04:10Z</time></trkpt><trkpt lat="41.83297883953796" lon="15.929072817949363"><ele>706.0</ele><time>2026-03-22T11:08:32Z</time></trkpt><trkpt lat="41.8329928156392" lon="15.929188183500735"><ele>706.0</ele><time>2026-03-22T11:12:23Z</time></trkpt><trkpt lat="41.832980831181025" lon="15.92927777241116"><ele>706.0</ele><time>2026-03-22T11:12:24Z</time></trkpt><trkpt lat="41.83295940251666" lon="15.929397860866935"><ele>706.0</ele><time>2026-03-22T11:12:25Z</time></trkpt><trkpt lat="41.832936997405696" lon="15.929522398351779"><ele>706.0</ele><time>2026-03-22T11:12:26Z</time></trkpt><trkpt lat="41.83292532240536" lon="15.929615245395311"><ele>704.8</ele><time>2026-03-22T11:12:27Z</time></trkpt><trkpt lat="41.83288375862522" lon="15.929745721950823"><ele>703.5999999999999</ele><time>2026-03-22T11:12:29Z</time></trkpt><trkpt lat="41.83277699694879" lon="15.929808714962663"><ele>702.4</ele><time>2026-03-22T11:12:31Z</time></trkpt><trkpt lat="41.832700156227304" lon="15.929840649953457"><ele>701.2</ele><time>2026-03-22T11:12:32Z</time></trkpt><trkpt lat="41.83261149469975" lon="15.929889500760522"><ele>700.0</ele><time>2026-03-22T11:12:33Z</time></trkpt><trkpt lat="41.83253016320065" lon="15.929950967130099"><ele>699.1666666666667</ele><time>2026-03-22T11:12:34Z</time></trkpt><trkpt lat="41.8324634263844" lon="15.93000571022591"><ele>698.3333333333334</ele><time>2026-03-22T11:12:35Z</time></trkpt><trkpt lat="41.83237437163506" lon="15.930109558472163"><ele>697.5</ele><time>2026-03-22T11:12:37Z</time></trkpt><trkpt lat="41.83236750987329" lon="15.93020506419964"><ele>696.6666666666666</ele><time>2026-03-22T11:12:38.999Z</time></trkpt><trkpt lat="41.83243075609007" lon="15.930298454366017"><ele>695.8333333333333</ele><time>2026-03-22T11:12:40.999Z</time></trkpt><trkpt lat="41.83247954979173" lon="15.930363745180323"><ele>695.0</ele><time>2026-03-22T11:12:41.999Z</time></trkpt><trkpt lat="41.8325274095482" lon="15.930449508665442"><ele>693.8</ele><time>2026-03-22T11:12:42.999Z</time></trkpt><trkpt lat="41.832611373443875" lon="15.930580527043983"><ele>692.6</ele><time>2026-03-22T11:12:43.999Z</time></trkpt><trkpt lat="41.83269410108893" lon="15.930686867538181"><ele>691.4000000000001</ele><time>2026-03-22T11:12:44.999Z</time></trkpt><trkpt lat="41.83277222090836" lon="15.930777278050035"><ele>690.2</ele><time>2026-03-22T11:12:45.999Z</time></trkpt><trkpt lat="41.832827029202456" lon="15.93084435258343"><ele>689.0</ele><time>2026-03-22T11:12:46.999Z</time></trkpt><trkpt lat="41.83284572303323" lon="15.930932830935353"><ele>685.0</ele><time>2026-03-22T11:12:49.999Z</time></trkpt><trkpt lat="41.83272382690838" lon="15.930980108255406"><ele>681.0</ele><time>2026-03-22T11:12:51.999Z</time></trkpt><trkpt lat="41.83263351307184" lon="15.931003883903259"><ele>677.0</ele><time>2026-03-22T11:12:52.999Z</time></trkpt><trkpt lat="41.8325137033956" lon="15.931014758769015"><ele>673.0</ele><time>2026-03-22T11:12:53.999Z</time></trkpt><trkpt lat="41.832375340558684" lon="15.931032978698225"><ele>672.5999999999999</ele><time>2026-03-22T11:12:54.999Z</time></trkpt><trkpt lat="41.83224937722893" lon="15.931048818642118"><ele>672.1999999999999</ele><time>2026-03-22T11:12:55.999Z</time></trkpt><trkpt lat="41.832129960617266" lon="15.931049073367817"><ele>671.8</ele><time>2026-03-22T11:12:56.999Z</time></trkpt><trkpt lat="41.83204069821077" lon="15.931057665317457"><ele>671.4</ele><time>2026-03-22T11:12:57.999Z</time></trkpt><trkpt lat="41.83197369640438" lon="15.931068734999144"><ele>671.0</ele><time>2026-03-22T11:12:58.999Z</time></trkpt><trkpt lat="41.83203258007549" lon="15.931107654114255"><ele>671.0</ele><time>2026-03-22T11:13:16.999Z</time></trkpt><trkpt lat="41.83211440536697" lon="15.931185635980007"><ele>671.0</ele><time>2026-03-22T11:13:18.999Z</time></trkpt><trkpt lat="41.83219155506987" lon="15.931213540498334"><ele>671.0</ele><time>2026-03-22T11:13:20.999Z</time></trkpt><trkpt lat="41.832326639826476" lon="15.931215843330625"><ele>671.0</ele><time>2026-03-22T11:13:22.999Z</time></trkpt><trkpt lat="41.8324038662316" lon="15.931250706371843"><ele>671.0</ele><time>2026-03-22T11:13:23.999Z</time></trkpt><trkpt lat="41.83253291734372" lon="15.931285825438701"><ele>671.5</ele><time>2026-03-22T11:13:24.999Z</time></trkpt><trkpt lat="41.832664988742" lon="15.931345212790054"><ele>672.0</ele><time>2026-03-22T11:13:25.999Z</time></trkpt><trkpt lat="41.83280547766542" lon="15.93142282741784"><ele>672.5</ele><time>2026-03-22T11:13:26.999Z</time></trkpt><trkpt lat="41.83295004209287" lon="15.931442966623012"><ele>673.0</ele><time>2026-03-22T11:13:27.999Z</time></trkpt><trkpt lat="41.83306787107998" lon="15.931499718850798"><ele>673.0</ele><time>2026-03-22T11:13:28.999Z</time></trkpt><trkpt lat="41.83317987209932" lon="15.931557609610955"><ele>673.0</ele><time>2026-03-22T11:13:29.999Z</time></trkpt><trkpt lat="41.833302710074754" lon="15.931626521032157"><ele>673.0</ele><time>2026-03-22T11:13:30.999Z</time></trkpt><trkpt lat="41.83339753161765" lon="15.931704018058486"><ele>673.0</ele><time>2026-03-22T11:13:31.999Z</time></trkpt><trkpt lat="41.833510224738454" lon="15.931807284327403"><ele>668.5</ele><time>2026-03-22T11:13:32.999Z</time></trkpt><trkpt lat="41.83362923455311" lon="15.931919499188185"><ele>664.0</ele><time>2026-03-22T11:13:33.999Z</time></trkpt><trkpt lat="41.833745352757774" lon="15.93199954339712"><ele>659.5</ele><time>2026-03-22T11:13:34.999Z</time></trkpt><trkpt lat="41.83384789982841" lon="15.932077194962588"><ele>655.0</ele><time>2026-03-22T11:13:35.999Z</time></trkpt><trkpt lat="41.83394541916803" lon="15.932138255632387"><ele>655.0</ele><time>2026-03-22T11:13:36.999Z</time></trkpt><trkpt lat="41.83403658259082" lon="15.93217510755598"><ele>655.0</ele><time>2026-03-22T11:13:37.999Z</time></trkpt><trkpt lat="41.83414659801331" lon="15.932207318152269"><ele>655.0</ele><time>2026-03-22T11:13:38.998Z</time></trkpt><trkpt lat="41.834218812077715" lon="15.932223042432543"><ele>655.0</ele><time>2026-03-22T11:13:39.998Z</time></trkpt><trkpt lat="41.83431652242234" lon="15.93227200066434"><ele>655.0</ele><time>2026-03-22T11:13:40.998Z</time></trkpt><trkpt lat="41.83438280232804" lon="15.932301094716193"><ele>654.1666666666667</ele><time>2026-03-22T11:13:41.998Z</time></trkpt><trkpt lat="41.834457821833816" lon="15.932341399478272"><ele>653.3333333333334</ele><time>2026-03-22T11:13:47.998Z</time></trkpt><trkpt lat="41.83452647831267" lon="15.932350650668585"><ele>652.5</ele><time>2026-03-22T11:13:50.998Z</time></trkpt><trkpt lat="41.834597312850626" lon="15.932352697766683"><ele>651.6666666666666</ele><time>2026-03-22T11:13:52.998Z</time></trkpt><trkpt lat="41.834669351212234" lon="15.932334397913666"><ele>650.8333333333333</ele><time>2026-03-22T11:13:53.998Z</time></trkpt><trkpt lat="41.83477757329848" lon="15.932318283707891"><ele>650.0</ele><time>2026-03-22T11:13:55.998Z</time></trkpt><trkpt lat="41.83493277578001" lon="15.932273770198707"><ele>650.0</ele><time>2026-03-22T11:13:59Z</time></trkpt><trkpt lat="41.835021136996716" lon="15.932265916025937"><ele>650.0</ele><time>2026-03-22T11:14:00Z</time></trkpt><trkpt lat="41.835126774749114" lon="15.932238431168816"><ele>650.0</ele><time>2026-03-22T11:14:01Z</time></trkpt><trkpt lat="41.835232856145794" lon="15.93221810634771"><ele>650.0</ele><time>2026-03-22T11:14:02Z</time></trkpt><trkpt lat="41.83536117373415" lon="15.93218344816123"><ele>650.0</ele><time>2026-03-22T11:14:03Z</time></trkpt><trkpt lat="41.835470986072366" lon="15.93217922637807"><ele>648.6</ele><time>2026-03-22T11:14:04Z</time></trkpt><trkpt lat="41.8355807851666" lon="15.932186109196474"><ele>647.2</ele><time>2026-03-22T11:14:05Z</time></trkpt><trkpt lat="41.835679450534336" lon="15.932215471387027"><ele>645.8</ele><time>2026-03-22T11:14:06Z</time></trkpt><trkpt lat="41.835753704864054" lon="15.932231525340361"><ele>644.4</ele><time>2026-03-22T11:14:07Z</time></trkpt><trkpt lat="41.83582398254607" lon="15.932241258445863"><ele>643.0</ele><time>2026-03-22T11:14:08Z</time></trkpt><trkpt lat="41.83591424541674" lon="15.932277809395492"><ele>641.0</ele><time>2026-03-22T11:14:09Z</time></trkpt><trkpt lat="41.83600424256112" lon="15.932267980863973"><ele>639.0</ele><time>2026-03-22T11:14:11Z</time></trkpt><trkpt lat="41.836082143809115" lon="15.932294084487856"><ele>637.0</ele><time>2026-03-22T11:14:12Z</time></trkpt><trkpt lat="41.83617622798255" lon="15.932329843404382"><ele>635.0</ele><time>2026-03-22T11:14:13Z</time></trkpt><trkpt lat="41.83626005638754" lon="15.932296050749564"><ele>633.0</ele><time>2026-03-22T11:14:14Z</time></trkpt><trkpt lat="41.83634492905256" lon="15.93228532221903"><ele>631.0</ele><time>2026-03-22T11:14:15Z</time></trkpt><trkpt lat="41.836436831014325" lon="15.932242098346162"><ele>631.0</ele><time>2026-03-22T11:14:16Z</time></trkpt><trkpt lat="41.83651096068469" lon="15.93222671115876"><ele>631.0</ele><time>2026-03-22T11:14:17Z</time></trkpt><trkpt lat="41.83659119325005" lon="15.932230090107117"><ele>631.0</ele><time>2026-03-22T11:14:19Z</time></trkpt><trkpt lat="41.83665395936449" lon="15.932262743464108"><ele>631.0</ele><time>2026-03-22T11:14:21Z</time></trkpt><trkpt lat="41.83671657829549" lon="15.932224274921177"><ele>631.0</ele><time>2026-03-22T11:14:23Z</time></trkpt><trkpt lat="41.83673900118078" lon="15.93214078964666"><ele>631.0</ele><time>2026-03-22T11:14:25Z</time></trkpt><trkpt lat="41.83678085498004" lon="15.932062114035693"><ele>631.0</ele><time>2026-03-22T11:14:28Z</time></trkpt><trkpt lat="41.836797029491905" lon="15.931969265632782"><ele>626.3333333333334</ele><time>2026-03-22T11:14:30Z</time></trkpt><trkpt lat="41.836816620035506" lon="15.93183436828215"><ele>621.6666666666667</ele><time>2026-03-22T11:14:32Z</time></trkpt><trkpt lat="41.83682968838219" lon="15.931742416587484"><ele>617.0</ele><time>2026-03-22T11:14:34Z</time></trkpt><trkpt lat="41.836870568080634" lon="15.93162927599683"><ele>612.3333333333334</ele><time>2026-03-22T11:14:36.999Z</time></trkpt><trkpt lat="41.836934233479106" lon="15.931667740197094"><ele>607.6666666666666</ele><time>2026-03-22T11:14:39.999Z</time></trkpt><trkpt lat="41.836964837757876" lon="15.931757240932155"><ele>603.0</ele><time>2026-03-22T11:14:41.999Z</time></trkpt><trkpt lat="41.837026889216965" lon="15.931910749443148"><ele>603.0</ele><time>2026-03-22T11:14:43.999Z</time></trkpt><trkpt lat="41.837053965794794" lon="15.931995254722965"><ele>603.0</ele><time>2026-03-22T11:14:44.999Z</time></trkpt><trkpt lat="41.83712020526004" lon="15.93210609261079"><ele>603.0</ele><time>2026-03-22T11:14:46.999Z</time></trkpt><trkpt lat="41.83716557000692" lon="15.932240460046632"><ele>603.0</ele><time>2026-03-22T11:14:49.999Z</time></trkpt><trkpt lat="41.83719151639951" lon="15.932330722513544"><ele>603.0</ele><time>2026-03-22T11:14:50.999Z</time></trkpt><trkpt lat="41.83719639759955" lon="15.93245845492689"><ele>603.0</ele><time>2026-03-22T11:14:52.999Z</time></trkpt><trkpt lat="41.83718062217834" lon="15.932557862262803"><ele>603.0</ele><time>2026-03-22T11:14:54.999Z</time></trkpt><trkpt lat="41.83722930176184" lon="15.932499084870262"><ele>603.0</ele><time>2026-03-22T11:14:57.999Z</time></trkpt><trkpt lat="41.83724954583129" lon="15.932416646822306"><ele>603.0</ele><time>2026-03-22T11:14:58.999Z</time></trkpt><trkpt lat="41.837262565403066" lon="15.932328431717913"><ele>603.0</ele><time>2026-03-22T11:14:59.999Z</time></trkpt><trkpt lat="41.837275787724245" lon="15.932236090112553"><ele>603.0</ele><time>2026-03-22T11:15:00.999Z</time></trkpt><trkpt lat="41.837268119595116" lon="15.932075586655795"><ele>603.0</ele><time>2026-03-22T11:15:02.999Z</time></trkpt><trkpt lat="41.8372739345737" lon="15.931931885018686"><ele>603.0</ele><time>2026-03-22T11:15:04.999Z</time></trkpt><trkpt lat="41.837281306103314" lon="15.931818103965945"><ele>603.0</ele><time>2026-03-22T11:15:06.999Z</time></trkpt><trkpt lat="41.83728829247921" lon="15.93171302417428"><ele>603.0</ele><time>2026-03-22T11:15:10.999Z</time></trkpt><trkpt lat="41.837265766369505" lon="15.931625034249175"><ele>603.0</ele><time>2026-03-22T11:15:12.999Z</time></trkpt><trkpt lat="41.83723991734356" lon="15.931530268543536"><ele>603.0</ele><time>2026-03-22T11:15:14.999Z</time></trkpt><trkpt lat="41.83720785977031" lon="15.931396708383831"><ele>602.8333333333334</ele><time>2026-03-22T11:15:16.999Z</time></trkpt><trkpt lat="41.837175411311904" lon="15.931310215929297"><ele>602.6666666666666</ele><time>2026-03-22T11:15:17.999Z</time></trkpt><trkpt lat="41.83713508934592" lon="15.931233292158494"><ele>602.5</ele><time>2026-03-22T11:15:18.999Z</time></trkpt><trkpt lat="41.837087276505336" lon="15.931142320519871"><ele>602.3333333333333</ele><time>2026-03-22T11:15:19.999Z</time></trkpt><trkpt lat="41.837071052439086" lon="15.931049861297499"><ele>602.1666666666666</ele><time>2026-03-22T11:15:20.999Z</time></trkpt><trkpt lat="41.837013114754264" lon="15.930932872782225"><ele>602.0</ele><time>2026-03-22T11:15:22.999Z</time></trkpt><trkpt lat="41.83695368801397" lon="15.930795536846556"><ele>600.6666666666666</ele><time>2026-03-22T11:15:24.999Z</time></trkpt><trkpt lat="41.8369187900042" lon="15.930666643191463"><ele>599.3333333333333</ele><time>2026-03-22T11:15:26.999Z</time></trkpt><trkpt lat="41.83691422022101" lon="15.930561994219737"><ele>598.0</ele><time>2026-03-22T11:15:29.999Z</time></trkpt><trkpt lat="41.83685543634874" lon="15.930466912051681"><ele>596.6666666666666</ele><time>2026-03-22T11:15:32.999Z</time></trkpt><trkpt lat="41.836805992966895" lon="15.930406008772133"><ele>595.3333333333334</ele><time>2026-03-22T11:15:33.999Z</time></trkpt><trkpt lat="41.83678048262724" lon="15.930309958129564"><ele>594.0</ele><time>2026-03-22T11:15:34.999Z</time></trkpt><trkpt lat="41.8367594749391" lon="15.930214358646376"><ele>594.0</ele><time>2026-03-22T11:15:35.998Z</time></trkpt><trkpt lat="41.8366882186226" lon="15.93010286306162"><ele>594.0</ele><time>2026-03-22T11:15:37.998Z</time></trkpt><trkpt lat="41.83671560127563" lon="15.930008540155782"><ele>594.0</ele><time>2026-03-22T11:15:40.998Z</time></trkpt><trkpt lat="41.83678274376486" lon="15.929993981436422"><ele>594.0</ele><time>2026-03-22T11:15:43.998Z</time></trkpt><trkpt lat="41.83684649208985" lon="15.930006798014537"><ele>594.0</ele><time>2026-03-22T11:15:46.998Z</time></trkpt><trkpt lat="41.83691039690623" lon="15.930100262457444"><ele>594.0</ele><time>2026-03-22T11:15:49.998Z</time></trkpt><trkpt lat="41.83699659806187" lon="15.930146665556158"><ele>594.0</ele><time>2026-03-22T11:15:51.998Z</time></trkpt><trkpt lat="41.83706981115893" lon="15.930174097976945"><ele>594.0</ele><time>2026-03-22T11:15:54.998Z</time></trkpt><trkpt lat="41.83712982402791" lon="15.930227668094316"><ele>594.0</ele><time>2026-03-22T11:15:57.998Z</time></trkpt><trkpt lat="41.8371949406972" lon="15.93025876132892"><ele>594.0</ele><time>2026-03-22T11:15:59.998Z</time></trkpt><trkpt lat="41.83729000584319" lon="15.93032139549704"><ele>594.0</ele><time>2026-03-22T11:16:01.998Z</time></trkpt><trkpt lat="41.83735606470944" lon="15.930444959665035"><ele>594.0</ele><time>2026-03-22T11:16:04Z</time></trkpt><trkpt lat="41.8374331886557" lon="15.930574892314329"><ele>594.0</ele><time>2026-03-22T11:16:05Z</time></trkpt><trkpt lat="41.83750844217086" lon="15.93070071662859"><ele>594.0</ele><time>2026-03-22T11:16:06Z</time></trkpt><trkpt lat="41.83756620582974" lon="15.930821010115592"><ele>594.0</ele><time>2026-03-22T11:16:07Z</time></trkpt><trkpt lat="41.837605457349696" lon="15.930919919748"><ele>594.0</ele><time>2026-03-22T11:16:08Z</time></trkpt><trkpt lat="41.83763665691329" lon="15.931051126702338"><ele>594.0</ele><time>2026-03-22T11:16:10.001Z</time></trkpt><trkpt lat="41.8376554268063" lon="15.93115340232979"><ele>589.0</ele><time>2026-03-22T11:16:11Z</time></trkpt><trkpt lat="41.83769356813914" lon="15.931248182762662"><ele>584.0</ele><time>2026-03-22T11:16:12Z</time></trkpt><trkpt lat="41.83775960147496" lon="15.93136880419293"><ele>579.0</ele><time>2026-03-22T11:16:13Z</time></trkpt><trkpt lat="41.837841319339454" lon="15.931476035731466"><ele>574.0</ele><time>2026-03-22T11:16:13.999Z</time></trkpt><trkpt lat="41.83790734581824" lon="15.931583546441058"><ele>569.0</ele><time>2026-03-22T11:16:14.999Z</time></trkpt><trkpt lat="41.837961659768794" lon="15.93167933889795"><ele>569.0</ele><time>2026-03-22T11:16:16Z</time></trkpt><trkpt lat="41.83801649989351" lon="15.931764215033951"><ele>569.0</ele><time>2026-03-22T11:16:17Z</time></trkpt><trkpt lat="41.83810504182157" lon="15.931964414802"><ele>569.0</ele><time>2026-03-22T11:16:19Z</time></trkpt><trkpt lat="41.83815669114854" lon="15.93213507365302"><ele>569.0</ele><time>2026-03-22T11:16:20Z</time></trkpt><trkpt lat="41.8381756047531" lon="15.93223993937131"><ele>569.0</ele><time>2026-03-22T11:16:21Z</time></trkpt><trkpt lat="41.83819272961153" lon="15.932397119904406"><ele>569.0</ele><time>2026-03-22T11:16:23Z</time></trkpt><trkpt lat="41.83819037080348" lon="15.932533676088143"><ele>569.0</ele><time>2026-03-22T11:16:25Z</time></trkpt><trkpt lat="41.83819641483135" lon="15.932655559520803"><ele>569.0</ele><time>2026-03-22T11:16:26Z</time></trkpt><trkpt lat="41.83817665820858" lon="15.93277593619727"><ele>569.0</ele><time>2026-03-22T11:16:27Z</time></trkpt><trkpt lat="41.83808935062506" lon="15.932933957252883"><ele>567.6</ele><time>2026-03-22T11:16:28Z</time></trkpt><trkpt lat="41.83803126045166" lon="15.933078371772101"><ele>566.2</ele><time>2026-03-22T11:16:29Z</time></trkpt><trkpt lat="41.837994111228795" lon="15.93320375805071"><ele>564.8000000000001</ele><time>2026-03-22T11:16:30Z</time></trkpt><trkpt lat="41.8379668566505" lon="15.93331955033544"><ele>563.4</ele><time>2026-03-22T11:16:31Z</time></trkpt><trkpt lat="41.83795849330244" lon="15.933453794487967"><ele>562.0</ele><time>2026-03-22T11:16:32Z</time></trkpt><trkpt lat="41.83797067339978" lon="15.933570759625772"><ele>562.0</ele><time>2026-03-22T11:16:33Z</time></trkpt><trkpt lat="41.83794948397871" lon="15.93371473447177"><ele>562.0</ele><time>2026-03-22T11:16:34Z</time></trkpt><trkpt lat="41.83798645300265" lon="15.933846867960607"><ele>562.0</ele><time>2026-03-22T11:16:35Z</time></trkpt><trkpt lat="41.83800608022457" lon="15.933961292095052"><ele>562.0</ele><time>2026-03-22T11:16:36Z</time></trkpt><trkpt lat="41.83798752732625" lon="15.934120936654052"><ele>562.0</ele><time>2026-03-22T11:16:37Z</time></trkpt><trkpt lat="41.837986544918884" lon="15.934241515465613"><ele>562.0</ele><time>2026-03-22T11:16:38Z</time></trkpt><trkpt lat="41.837989342955666" lon="15.934360927215739"><ele>562.0</ele><time>2026-03-22T11:16:39Z</time></trkpt><trkpt lat="41.83803521648708" lon="15.934445013896642"><ele>562.0</ele><time>2026-03-22T11:16:41Z</time></trkpt><trkpt lat="41.83814207416413" lon="15.934472685951937"><ele>562.0</ele><time>2026-03-22T11:16:44Z</time></trkpt><trkpt lat="41.83820055364737" lon="15.934513447422898"><ele>562.0</ele><time>2026-03-22T11:16:45Z</time></trkpt><trkpt lat="41.83826077418927" lon="15.934549547655779"><ele>562.0</ele><time>2026-03-22T11:16:47Z</time></trkpt><trkpt lat="41.83835492415905" lon="15.934693351295524"><ele>562.0</ele><time>2026-03-22T11:16:49Z</time></trkpt><trkpt lat="41.83839965123915" lon="15.93481810973372"><ele>562.0</ele><time>2026-03-22T11:16:50Z</time></trkpt><trkpt lat="41.83843718711242" lon="15.934914405730192"><ele>562.0</ele><time>2026-03-22T11:16:51Z</time></trkpt><trkpt lat="41.838460601079845" lon="15.935053610339036"><ele>562.0</ele><time>2026-03-22T11:16:52Z</time></trkpt><trkpt lat="41.83847905583039" lon="15.935164169106171"><ele>562.0</ele><time>2026-03-22T11:16:53Z</time></trkpt><trkpt lat="41.8384578491515" lon="15.935262937219656"><ele>561.0</ele><time>2026-03-22T11:16:54Z</time></trkpt><trkpt lat="41.838435102986075" lon="15.93540555829497"><ele>560.0</ele><time>2026-03-22T11:16:55Z</time></trkpt><trkpt lat="41.83838834625872" lon="15.935552721044337"><ele>559.0</ele><time>2026-03-22T11:16:55.999Z</time></trkpt><trkpt lat="41.83830746161649" lon="15.935731228322714"><ele>558.0</ele><time>2026-03-22T11:16:56.999Z</time></trkpt><trkpt lat="41.8381947326157" lon="15.93596557217991"><ele>555.75</ele><time>2026-03-22T11:16:57.999Z</time></trkpt><trkpt lat="41.83811850158325" lon="15.936152260533822"><ele>553.5</ele><time>2026-03-22T11:16:58.999Z</time></trkpt><trkpt lat="41.83805142601975" lon="15.936296305918521"><ele>551.25</ele><time>2026-03-22T11:16:59.999Z</time></trkpt><trkpt lat="41.83803009703367" lon="15.936443914970923"><ele>549.0</ele><time>2026-03-22T11:17:00.999Z</time></trkpt><trkpt lat="41.83802467236691" lon="15.936577773043942"><ele>549.0</ele><time>2026-03-22T11:17:01.999Z</time></trkpt><trkpt lat="41.838031533272186" lon="15.936705803578587"><ele>549.0</ele><time>2026-03-22T11:17:02.999Z</time></trkpt><trkpt lat="41.83805099550601" lon="15.936860890703723"><ele>549.0</ele><time>2026-03-22T11:17:03.999Z</time></trkpt><trkpt lat="41.838068354167" lon="15.937009837691406"><ele>549.0</ele><time>2026-03-22T11:17:04.999Z</time></trkpt><trkpt lat="41.838064823709644" lon="15.937173322461437"><ele>549.0</ele><time>2026-03-22T11:17:05.999Z</time></trkpt><trkpt lat="41.83804529621151" lon="15.93733770564551"><ele>547.0</ele><time>2026-03-22T11:17:06.999Z</time></trkpt><trkpt lat="41.838052825381865" lon="15.937511873104517"><ele>545.0</ele><time>2026-03-22T11:17:07.999Z</time></trkpt><trkpt lat="41.83804765935028" lon="15.937676584001714"><ele>543.0</ele><time>2026-03-22T11:17:08.999Z</time></trkpt><trkpt lat="41.838033078993014" lon="15.937880742908602"><ele>541.0</ele><time>2026-03-22T11:17:09.999Z</time></trkpt><trkpt lat="41.838027332656274" lon="15.938037178345414"><ele>541.0</ele><time>2026-03-22T11:17:10.999Z</time></trkpt><trkpt lat="41.83803281044434" lon="15.938209858799793"><ele>541.0</ele><time>2026-03-22T11:17:11.999Z</time></trkpt><trkpt lat="41.83804302618646" lon="15.938370437511137"><ele>541.0</ele><time>2026-03-22T11:17:12.999Z</time></trkpt><trkpt lat="41.838092519543345" lon="15.93851055346129"><ele>541.0</ele><time>2026-03-22T11:17:13.999Z</time></trkpt><trkpt lat="41.83814599083676" lon="15.938674653696433"><ele>541.0</ele><time>2026-03-22T11:17:14.999Z</time></trkpt><trkpt lat="41.83819100213972" lon="15.938874991621633"><ele>541.0</ele><time>2026-03-22T11:17:15.999Z</time></trkpt><trkpt lat="41.83822373326749" lon="15.93903453617153"><ele>541.0</ele><time>2026-03-22T11:17:16.999Z</time></trkpt><trkpt lat="41.83825962809258" lon="15.93916373639685"><ele>541.0</ele><time>2026-03-22T11:17:17.999Z</time></trkpt><trkpt lat="41.83828888350475" lon="15.939299308875741"><ele>541.5</ele><time>2026-03-22T11:17:18.999Z</time></trkpt><trkpt lat="41.83829683731983" lon="15.939444069097156"><ele>542.0</ele><time>2026-03-22T11:17:19.999Z</time></trkpt><trkpt lat="41.83828837006429" lon="15.939607148795249"><ele>542.5</ele><time>2026-03-22T11:17:20.999Z</time></trkpt><trkpt lat="41.83828649018641" lon="15.939792108070193"><ele>543.0</ele><time>2026-03-22T11:17:21.999Z</time></trkpt><trkpt lat="41.83824566874894" lon="15.940028101447083"><ele>542.25</ele><time>2026-03-22T11:17:22.999Z</time></trkpt><trkpt lat="41.83821315381746" lon="15.940211975552574"><ele>541.5</ele><time>2026-03-22T11:17:23.999Z</time></trkpt><trkpt lat="41.83816547290109" lon="15.940397182281867"><ele>540.75</ele><time>2026-03-22T11:17:24.999Z</time></trkpt><trkpt lat="41.83815644532697" lon="15.940551509089932"><ele>540.0</ele><time>2026-03-22T11:17:25.999Z</time></trkpt><trkpt lat="41.83814303515593" lon="15.940708832303578"><ele>540.0</ele><time>2026-03-22T11:17:26.999Z</time></trkpt><trkpt lat="41.83815835177516" lon="15.940847477661325"><ele>540.0</ele><time>2026-03-22T11:17:27.999Z</time></trkpt><trkpt lat="41.838166760861476" lon="15.94100143284756"><ele>540.0</ele><time>2026-03-22T11:17:28.999Z</time></trkpt><trkpt lat="41.83819464124658" lon="15.941195755317162"><ele>540.0</ele><time>2026-03-22T11:17:29.999Z</time></trkpt><trkpt lat="41.838230385787774" lon="15.941335320907786"><ele>540.0</ele><time>2026-03-22T11:17:30.999Z</time></trkpt><trkpt lat="41.83827178193081" lon="15.941435745167656"><ele>540.0</ele><time>2026-03-22T11:17:31.999Z</time></trkpt><trkpt lat="41.838301356811556" lon="15.941574701757792"><ele>540.0</ele><time>2026-03-22T11:17:33.999Z</time></trkpt><trkpt lat="41.83838527110752" lon="15.941530005885726"><ele>540.0</ele><time>2026-03-22T11:17:50.999Z</time></trkpt><trkpt lat="41.83844270140585" lon="15.941445493685753"><ele>540.0</ele><time>2026-03-22T11:18:00.998Z</time></trkpt><trkpt lat="41.838498308302604" lon="15.941323766439648"><ele>542.5714285714286</ele><time>2026-03-22T11:18:03.998Z</time></trkpt><trkpt lat="41.83855565056832" lon="15.941267002247134"><ele>545.1428571428571</ele><time>2026-03-22T11:18:05.998Z</time></trkpt><trkpt lat="41.83861164335439" lon="15.941310477710575"><ele>547.7142857142857</ele><time>2026-03-22T11:18:09Z</time></trkpt><trkpt lat="41.8386638584418" lon="15.941380155195715"><ele>550.2857142857142</ele><time>2026-03-22T11:18:12Z</time></trkpt><trkpt lat="41.83874315006432" lon="15.941400332232806"><ele>552.8571428571429</ele><time>2026-03-22T11:18:22.999Z</time></trkpt><trkpt lat="41.83881313511616" lon="15.94142140801653"><ele>555.4285714285713</ele><time>2026-03-22T11:18:39.999Z</time></trkpt><trkpt lat="41.838801272385474" lon="15.941507120433661"><ele>558.0</ele><time>2026-03-22T11:18:50.999Z</time></trkpt><trkpt lat="41.83872680029062" lon="15.94147555034746"><ele>558.0</ele><time>2026-03-22T11:18:54.999Z</time></trkpt><trkpt lat="41.838672038447456" lon="15.941433570087728"><ele>558.0</ele><time>2026-03-22T11:19:41.998Z</time></trkpt><trkpt lat="41.83870647022232" lon="15.941532715611746"><ele>558.0</ele><time>2026-03-22T11:20:08.998Z</time></trkpt><trkpt lat="41.83880112720556" lon="15.941564934479043"><ele>558.0</ele><time>2026-03-22T11:20:13.997Z</time></trkpt><trkpt lat="41.83887177486731" lon="15.941586381537103"><ele>558.0</ele><time>2026-03-22T11:20:18Z</time></trkpt><trkpt lat="41.83894053894332" lon="15.941623860072731"><ele>558.0</ele><time>2026-03-22T11:20:21Z</time></trkpt><trkpt lat="41.83899222029496" lon="15.941672549942993"><ele>556.8571428571428</ele><time>2026-03-22T11:20:23Z</time></trkpt><trkpt lat="41.839060756532106" lon="15.941715369115158"><ele>555.7142857142857</ele><time>2026-03-22T11:20:26Z</time></trkpt><trkpt lat="41.839131166294635" lon="15.941784204792265"><ele>554.5714285714286</ele><time>2026-03-22T11:20:29.999Z</time></trkpt><trkpt lat="41.83919483886183" lon="15.941838431105849"><ele>553.4285714285713</ele><time>2026-03-22T11:20:32.999Z</time></trkpt><trkpt lat="41.83925412440213" lon="15.941878042815397"><ele>552.2857142857142</ele><time>2026-03-22T11:20:35.999Z</time></trkpt><trkpt lat="41.8393159975336" lon="15.941907978133058"><ele>551.1428571428571</ele><time>2026-03-22T11:20:42.999Z</time></trkpt><trkpt lat="41.83935397508379" lon="15.94197912779301"><ele>550.0</ele><time>2026-03-22T11:20:50.999Z</time></trkpt><trkpt lat="41.839419643367776" lon="15.942044137162844"><ele>553.4285714285714</ele><time>2026-03-22T11:21:01.999Z</time></trkpt><trkpt lat="41.83945715564891" lon="15.942113758504819"><ele>556.8571428571429</ele><time>2026-03-22T11:21:10.999Z</time></trkpt><trkpt lat="41.8395007267911" lon="15.942182626752574"><ele>560.2857142857142</ele><time>2026-03-22T11:21:14.998Z</time></trkpt><trkpt lat="41.83954165682186" lon="15.942262112280805"><ele>563.7142857142858</ele><time>2026-03-22T11:21:21.998Z</time></trkpt><trkpt lat="41.83958633104167" lon="15.942331781275922"><ele>567.1428571428571</ele><time>2026-03-22T11:21:25.998Z</time></trkpt><trkpt lat="41.83965337433115" lon="15.942383418235469"><ele>570.5714285714286</ele><time>2026-03-22T11:21:31.998Z</time></trkpt><trkpt lat="41.83967724625441" lon="15.942462110446536"><ele>574.0</ele><time>2026-03-22T11:22:46.999Z</time></trkpt><trkpt lat="41.839747004246746" lon="15.942457894527932"><ele>574.0</ele><time>2026-03-22T11:22:52.999Z</time></trkpt><trkpt lat="41.83981595880864" lon="15.942451607236016"><ele>574.0</ele><time>2026-03-22T11:22:56.999Z</time></trkpt><trkpt lat="41.83989151267488" lon="15.942445271289122"><ele>574.0</ele><time>2026-03-22T11:23:00.999Z</time></trkpt><trkpt lat="41.839970736483906" lon="15.942446003830495"><ele>574.0</ele><time>2026-03-22T11:23:04.999Z</time></trkpt><trkpt lat="41.84003345084632" lon="15.942434953119895"><ele>574.0</ele><time>2026-03-22T11:23:07.999Z</time></trkpt><trkpt lat="41.840118247747576" lon="15.942462881215743"><ele>574.0</ele><time>2026-03-22T11:23:13.999Z</time></trkpt><trkpt lat="41.84018194553804" lon="15.942498132147161"><ele>574.0</ele><time>2026-03-22T11:23:25.999Z</time></trkpt><trkpt lat="41.840233675337586" lon="15.942440049634456"><ele>575.1428571428571</ele><time>2026-03-22T11:23:49.998Z</time></trkpt><trkpt lat="41.84029684519979" lon="15.942457444319738"><ele>576.2857142857142</ele><time>2026-03-22T11:24:01.998Z</time></trkpt><trkpt lat="41.840333976380506" lon="15.942530684933553"><ele>577.4285714285714</ele><time>2026-03-22T11:24:13.998Z</time></trkpt><trkpt lat="41.840395005901705" lon="15.942584546918306"><ele>578.5714285714286</ele><time>2026-03-22T11:24:17.998Z</time></trkpt><trkpt lat="41.84044492348043" lon="15.942657644592504"><ele>579.7142857142857</ele><time>2026-03-22T11:24:32.999Z</time></trkpt><trkpt lat="41.840475839512266" lon="15.942747808982789"><ele>580.8571428571429</ele><time>2026-03-22T11:24:39Z</time></trkpt><trkpt lat="41.84045971185877" lon="15.942838953090364"><ele>582.0</ele><time>2026-03-22T11:24:45Z</time></trkpt><trkpt lat="41.84046570009958" lon="15.94296056938582"><ele>582.0</ele><time>2026-03-22T11:24:50Z</time></trkpt><trkpt lat="41.840440493173" lon="15.94304520064555"><ele>582.0</ele><time>2026-03-22T11:24:58Z</time></trkpt><trkpt lat="41.840436814752486" lon="15.943138670512752"><ele>582.0</ele><time>2026-03-22T11:25:02Z</time></trkpt><trkpt lat="41.84042690188087" lon="15.943226597882488"><ele>582.0</ele><time>2026-03-22T11:25:10Z</time></trkpt><trkpt lat="41.840504527284644" lon="15.943218627606816"><ele>582.0</ele><time>2026-03-22T11:25:16.999Z</time></trkpt><trkpt lat="41.84056860379889" lon="15.94323677080141"><ele>582.0</ele><time>2026-03-22T11:25:18.999Z</time></trkpt><trkpt lat="41.84064326509904" lon="15.943240986371926"><ele>582.0</ele><time>2026-03-22T11:25:20.999Z</time></trkpt><trkpt lat="41.84067663343245" lon="15.943316732951532"><ele>580.5714285714286</ele><time>2026-03-22T11:25:23.999Z</time></trkpt><trkpt lat="41.840724709940304" lon="15.943409582149316"><ele>579.1428571428571</ele><time>2026-03-22T11:25:26.999Z</time></trkpt><trkpt lat="41.84076501225654" lon="15.943477413539188"><ele>577.7142857142857</ele><time>2026-03-22T11:25:29.999Z</time></trkpt><trkpt lat="41.84080717739981" lon="15.94355354394766"><ele>576.2857142857142</ele><time>2026-03-22T11:25:32.999Z</time></trkpt><trkpt lat="41.84083048246245" lon="15.94363388986556"><ele>574.8571428571429</ele><time>2026-03-22T11:25:43.999Z</time></trkpt><trkpt lat="41.840833826130996" lon="15.943742772792033"><ele>573.4285714285713</ele><time>2026-03-22T11:26:20.998Z</time></trkpt><trkpt lat="41.84084724595535" lon="15.943829595297302"><ele>572.0</ele><time>2026-03-22T11:26:38.999Z</time></trkpt><trkpt lat="41.84082503157901" lon="15.943750284928798"><ele>571.9999999999999</ele><time>2026-03-22T11:26:52Z</time></trkpt><trkpt lat="41.84076589034804" lon="15.943780646971298"><ele>572.0</ele><time>2026-03-22T11:27:37.999Z</time></trkpt><trkpt lat="41.84075598226895" lon="15.943887672733956"><ele>572.0</ele><time>2026-03-22T11:27:40.999Z</time></trkpt><trkpt lat="41.84075634746367" lon="15.943985452937342"><ele>572.0</ele><time>2026-03-22T11:27:42.999Z</time></trkpt><trkpt lat="41.84074507008485" lon="15.944070800493106"><ele>572.0</ele><time>2026-03-22T11:27:49.999Z</time></trkpt><trkpt lat="41.840767540292575" lon="15.944174494146418"><ele>571.9999999999999</ele><time>2026-03-22T11:27:57.999Z</time></trkpt><trkpt lat="41.84076736592169" lon="15.944284418904118"><ele>572.0</ele><time>2026-03-22T11:28:03.999Z</time></trkpt><trkpt lat="41.84082042900448" lon="15.944371373751444"><ele>571.1666666666666</ele><time>2026-03-22T11:28:07.998Z</time></trkpt><trkpt lat="41.84088234950225" lon="15.944432055532447"><ele>570.3333333333333</ele><time>2026-03-22T11:28:09.998Z</time></trkpt><trkpt lat="41.84094758730156" lon="15.944510429178912"><ele>569.5</ele><time>2026-03-22T11:28:13.998Z</time></trkpt><trkpt lat="41.84102948481454" lon="15.944569734589567"><ele>568.6666666666666</ele><time>2026-03-22T11:28:15.998Z</time></trkpt><trkpt lat="41.84110689063687" lon="15.94462536163787"><ele>567.8333333333334</ele><time>2026-03-22T11:28:17.998Z</time></trkpt><trkpt lat="41.84117127695922" lon="15.944669842500653"><ele>567.0</ele><time>2026-03-22T11:28:19.998Z</time></trkpt><trkpt lat="41.84123961142313" lon="15.944735012407117"><ele>573.3333333333334</ele><time>2026-03-22T11:28:22.998Z</time></trkpt><trkpt lat="41.8413993257956" lon="15.944933968738768"><ele>579.6666666666667</ele><time>2026-03-22T11:28:24.998Z</time></trkpt><trkpt lat="41.841461963517645" lon="15.944995712671432"><ele>586.0</ele><time>2026-03-22T11:28:26.998Z</time></trkpt><trkpt lat="41.841601351698536" lon="15.945104666935254"><ele>586.8333333333334</ele><time>2026-03-22T11:28:30.998Z</time></trkpt><trkpt lat="41.84164145032902" lon="15.945175604538221"><ele>587.6666666666667</ele><time>2026-03-22T11:28:32.998Z</time></trkpt><trkpt lat="41.841618048968755" lon="15.945302242566912"><ele>588.5</ele><time>2026-03-22T11:28:36Z</time></trkpt><trkpt lat="41.841593507954116" lon="15.94538375329457"><ele>589.3333333333334</ele><time>2026-03-22T11:28:37.999Z</time></trkpt><trkpt lat="41.84153900314908" lon="15.945514450562163"><ele>590.1666666666666</ele><time>2026-03-22T11:28:39.999Z</time></trkpt><trkpt lat="41.84151657762613" lon="15.945610341332651"><ele>591.0</ele><time>2026-03-22T11:28:40.999Z</time></trkpt><trkpt lat="41.84149537821977" lon="15.945705465333315"><ele>591.0</ele><time>2026-03-22T11:28:42Z</time></trkpt><trkpt lat="41.84147084860146" lon="15.945800398566927"><ele>591.0</ele><time>2026-03-22T11:28:43Z</time></trkpt><trkpt lat="41.84146428823177" lon="15.945913484261219"><ele>591.0</ele><time>2026-03-22T11:28:45Z</time></trkpt><trkpt lat="41.841500247599235" lon="15.94601617285409"><ele>591.0</ele><time>2026-03-22T11:28:46.999Z</time></trkpt><trkpt lat="41.841437900681946" lon="15.945832187955904"><ele>591.0</ele><time>2026-03-22T11:28:48Z</time></trkpt><trkpt lat="41.841490961029876" lon="15.945901379697892"><ele>593.0</ele><time>2026-03-22T11:28:50Z</time></trkpt><trkpt lat="41.84152741417956" lon="15.945988905449067"><ele>595.0</ele><time>2026-03-22T11:28:52Z</time></trkpt><trkpt lat="41.84158338733218" lon="15.946063343579917"><ele>597.0</ele><time>2026-03-22T11:28:55Z</time></trkpt><trkpt lat="41.84162579008779" lon="15.946129691068933"><ele>599.0</ele><time>2026-03-22T11:28:58Z</time></trkpt><trkpt lat="41.84168829892441" lon="15.94619536769498"><ele>601.0</ele><time>2026-03-22T11:29:04Z</time></trkpt><trkpt lat="41.841774693387855" lon="15.9462452982337"><ele>603.0</ele><time>2026-03-22T11:29:07Z</time></trkpt><trkpt lat="41.8418775913257" lon="15.946302275425971"><ele>613.5</ele><time>2026-03-22T11:29:09Z</time></trkpt><trkpt lat="41.84221550666281" lon="15.94659179388452"><ele>624.0</ele><time>2026-03-22T11:29:12.999Z</time></trkpt><trkpt lat="41.84228632827175" lon="15.946664663804706"><ele>625.8333333333334</ele><time>2026-03-22T11:29:13.999Z</time></trkpt><trkpt lat="41.84233971402658" lon="15.946716799080063"><ele>627.6666666666666</ele><time>2026-03-22T11:29:14.999Z</time></trkpt><trkpt lat="41.84241057460518" lon="15.946747282505706"><ele>629.5</ele><time>2026-03-22T11:29:15.999Z</time></trkpt><trkpt lat="41.84249103303831" lon="15.946751321120276"><ele>631.3333333333333</ele><time>2026-03-22T11:29:17.999Z</time></trkpt><trkpt lat="41.84256253506958" lon="15.946797261972936"><ele>633.1666666666666</ele><time>2026-03-22T11:29:19.999Z</time></trkpt><trkpt lat="41.84267016562691" lon="15.946877135181833"><ele>635.0</ele><time>2026-03-22T11:29:21.999Z</time></trkpt><trkpt lat="41.842725419388415" lon="15.946926568324473"><ele>637.5</ele><time>2026-03-22T11:29:22.999Z</time></trkpt><trkpt lat="41.84278523723235" lon="15.946972623722878"><ele>640.0</ele><time>2026-03-22T11:29:23.999Z</time></trkpt><trkpt lat="41.842856353016394" lon="15.947059684490645"><ele>642.5</ele><time>2026-03-22T11:29:24.999Z</time></trkpt><trkpt lat="41.84291775981365" lon="15.947154247586116"><ele>645.0</ele><time>2026-03-22T11:29:25.999Z</time></trkpt><trkpt lat="41.842984321080635" lon="15.94722780935726"><ele>647.5</ele><time>2026-03-22T11:29:26.999Z</time></trkpt><trkpt lat="41.843047816834044" lon="15.947283139393411"><ele>650.0</ele><time>2026-03-22T11:29:27.999Z</time></trkpt><trkpt lat="41.84310404679418" lon="15.947327117941644"><ele>650.0</ele><time>2026-03-22T11:29:28.999Z</time></trkpt><trkpt lat="41.843172152419854" lon="15.947393214304544"><ele>650.0</ele><time>2026-03-22T11:29:29.999Z</time></trkpt><trkpt lat="41.84324284171425" lon="15.947457443467616"><ele>650.0</ele><time>2026-03-22T11:29:30.999Z</time></trkpt><trkpt lat="41.843308973006984" lon="15.947524390571374"><ele>650.0</ele><time>2026-03-22T11:29:31.999Z</time></trkpt><trkpt lat="41.84338013034639" lon="15.94758679188295"><ele>650.0</ele><time>2026-03-22T11:29:32.999Z</time></trkpt><trkpt lat="41.84345121330224" lon="15.947648447804534"><ele>650.0</ele><time>2026-03-22T11:29:33.999Z</time></trkpt><trkpt lat="41.843561197967254" lon="15.947747912221908"><ele>652.0</ele><time>2026-03-22T11:29:34.999Z</time></trkpt><trkpt lat="41.84367314283485" lon="15.947855483631692"><ele>654.0</ele><time>2026-03-22T11:29:35.999Z</time></trkpt><trkpt lat="41.84378936495421" lon="15.947979708502757"><ele>656.0</ele><time>2026-03-22T11:29:36.999Z</time></trkpt><trkpt lat="41.843885194660196" lon="15.94809749936391"><ele>658.0</ele><time>2026-03-22T11:29:37.999Z</time></trkpt><trkpt lat="41.84395365577587" lon="15.948155959001097"><ele>658.0</ele><time>2026-03-22T11:29:38.999Z</time></trkpt><trkpt lat="41.843981034019166" lon="15.948237539558855"><ele>658.0</ele><time>2026-03-22T11:29:39.999Z</time></trkpt><trkpt lat="41.844011252925604" lon="15.948323959798847"><ele>658.0</ele><time>2026-03-22T11:29:41.999Z</time></trkpt><trkpt lat="41.84402786206697" lon="15.948452403303177"><ele>658.0</ele><time>2026-03-22T11:29:43.999Z</time></trkpt><trkpt lat="41.844015639405754" lon="15.948570150360569"><ele>658.0</ele><time>2026-03-22T11:29:45.999Z</time></trkpt><trkpt lat="41.84403380193424" lon="15.948652704261505"><ele>658.0</ele><time>2026-03-22T11:29:47.999Z</time></trkpt><trkpt lat="41.844089456419866" lon="15.948714230066999"><ele>658.0</ele><time>2026-03-22T11:30:20.998Z</time></trkpt><trkpt lat="41.84404624380183" lon="15.948833071070732"><ele>658.0</ele><time>2026-03-22T11:30:24.998Z</time></trkpt><trkpt lat="41.8439802430667" lon="15.94904892501315"><ele>658.0</ele><time>2026-03-22T11:30:26.998Z</time></trkpt><trkpt lat="41.84394434559394" lon="15.949212590842752"><ele>658.0</ele><time>2026-03-22T11:30:27.998Z</time></trkpt><trkpt lat="41.84390632165743" lon="15.949325226695168"><ele>657.8</ele><time>2026-03-22T11:30:28.998Z</time></trkpt><trkpt lat="41.84387175642746" lon="15.94944693156921"><ele>657.5999999999999</ele><time>2026-03-22T11:30:29.998Z</time></trkpt><trkpt lat="41.843856821137905" lon="15.949588400285563"><ele>657.4000000000001</ele><time>2026-03-22T11:30:30.998Z</time></trkpt><trkpt lat="41.84385326975" lon="15.949766971912517"><ele>657.2</ele><time>2026-03-22T11:30:31.998Z</time></trkpt><trkpt lat="41.84385424048694" lon="15.949906385878878"><ele>657.0</ele><time>2026-03-22T11:30:32.998Z</time></trkpt><trkpt lat="41.84385839785368" lon="15.950063243034444"><ele>657.0</ele><time>2026-03-22T11:30:33.998Z</time></trkpt><trkpt lat="41.843832719527285" lon="15.95020174612426"><ele>657.0</ele><time>2026-03-22T11:30:34.998Z</time></trkpt><trkpt lat="41.843815794653636" lon="15.950335328487224"><ele>657.0</ele><time>2026-03-22T11:30:35.998Z</time></trkpt><trkpt lat="41.84379419018851" lon="15.950481235056115"><ele>657.0</ele><time>2026-03-22T11:30:36.998Z</time></trkpt><trkpt lat="41.84374990139538" lon="15.95063069385726"><ele>657.0</ele><time>2026-03-22T11:30:37.998Z</time></trkpt><trkpt lat="41.84370934957501" lon="15.950804052899665"><ele>656.5</ele><time>2026-03-22T11:30:38.998Z</time></trkpt><trkpt lat="41.8436632897275" lon="15.950967802086847"><ele>656.0</ele><time>2026-03-22T11:30:39.998Z</time></trkpt><trkpt lat="41.8436386273104" lon="15.951137386909839"><ele>655.5</ele><time>2026-03-22T11:30:40.998Z</time></trkpt><trkpt lat="41.8436184519905" lon="15.951348925047945"><ele>655.0</ele><time>2026-03-22T11:30:42Z</time></trkpt><trkpt lat="41.84358935461963" lon="15.951558697866247"><ele>655.0</ele><time>2026-03-22T11:30:42.999Z</time></trkpt><trkpt lat="41.84356500391497" lon="15.951758858612815"><ele>655.0</ele><time>2026-03-22T11:30:43.999Z</time></trkpt><trkpt lat="41.843543507522746" lon="15.951926272577637"><ele>655.0</ele><time>2026-03-22T11:30:44.999Z</time></trkpt><trkpt lat="41.843530963833885" lon="15.952018137461604"><ele>655.0</ele><time>2026-03-22T11:30:46Z</time></trkpt><trkpt lat="41.84352020712539" lon="15.95213384389002"><ele>655.0</ele><time>2026-03-22T11:30:47Z</time></trkpt><trkpt lat="41.84351019859329" lon="15.952281378177839"><ele>655.0</ele><time>2026-03-22T11:30:48Z</time></trkpt><trkpt lat="41.843507821718084" lon="15.952433984138004"><ele>655.0</ele><time>2026-03-22T11:30:48.999Z</time></trkpt><trkpt lat="41.84350368592954" lon="15.952591451095495"><ele>655.0</ele><time>2026-03-22T11:30:49.999Z</time></trkpt><trkpt lat="41.84347258999871" lon="15.952780389468565"><ele>655.0</ele><time>2026-03-22T11:30:51Z</time></trkpt><trkpt lat="41.84343127171884" lon="15.952996179304867"><ele>659.6666666666667</ele><time>2026-03-22T11:30:51.999Z</time></trkpt><trkpt lat="41.84338355949664" lon="15.953217005537166"><ele>664.3333333333334</ele><time>2026-03-22T11:30:52.999Z</time></trkpt><trkpt lat="41.843327226499355" lon="15.953468057899283"><ele>669.0</ele><time>2026-03-22T11:30:53.999Z</time></trkpt><trkpt lat="41.8432762288257" lon="15.95369230482619"><ele>670.0</ele><time>2026-03-22T11:30:54.999Z</time></trkpt><trkpt lat="41.84322345400308" lon="15.953892711982519"><ele>671.0</ele><time>2026-03-22T11:30:55.999Z</time></trkpt><trkpt lat="41.84316622650168" lon="15.954091076739894"><ele>672.0</ele><time>2026-03-22T11:30:56.999Z</time></trkpt><trkpt lat="41.84312328002078" lon="15.954253575904907"><ele>673.0</ele><time>2026-03-22T11:30:57.999Z</time></trkpt><trkpt lat="41.84308087104032" lon="15.954416565322527"><ele>674.0</ele><time>2026-03-22T11:30:58.999Z</time></trkpt><trkpt lat="41.843042746333694" lon="15.954584811041334"><ele>675.0</ele><time>2026-03-22T11:30:59.999Z</time></trkpt><trkpt lat="41.843019943160904" lon="15.954743613783899"><ele>676.0</ele><time>2026-03-22T11:31:00.999Z</time></trkpt><trkpt lat="41.84300849343671" lon="15.954932421972206"><ele>677.0</ele><time>2026-03-22T11:31:01.999Z</time></trkpt><trkpt lat="41.84300398562731" lon="15.95513143180535"><ele>678.0</ele><time>2026-03-22T11:31:02.999Z</time></trkpt><trkpt lat="41.84300777734192" lon="15.955362520225664"><ele>679.0</ele><time>2026-03-22T11:31:03.999Z</time></trkpt><trkpt lat="41.842995286260944" lon="15.955583930243948"><ele>680.0</ele><time>2026-03-22T11:31:04.999Z</time></trkpt><trkpt lat="41.84297822036136" lon="15.955761964818088"><ele>681.25</ele><time>2026-03-22T11:31:05.999Z</time></trkpt><trkpt lat="41.84294116435885" lon="15.95591829504453"><ele>682.5</ele><time>2026-03-22T11:31:06.999Z</time></trkpt><trkpt lat="41.84289061626719" lon="15.9560758014769"><ele>683.75</ele><time>2026-03-22T11:31:07.999Z</time></trkpt><trkpt lat="41.842866423623576" lon="15.95623653912921"><ele>685.0</ele><time>2026-03-22T11:31:08.999Z</time></trkpt><trkpt lat="41.84288877441384" lon="15.956358389579782"><ele>685.0</ele><time>2026-03-22T11:31:09.999Z</time></trkpt><trkpt lat="41.84292505219635" lon="15.956489778232362"><ele>685.0</ele><time>2026-03-22T11:31:10.999Z</time></trkpt><trkpt lat="41.84297926894167" lon="15.956692541005351"><ele>685.0</ele><time>2026-03-22T11:31:11.999Z</time></trkpt><trkpt lat="41.843014396901886" lon="15.956881035924258"><ele>685.0</ele><time>2026-03-22T11:31:12.999Z</time></trkpt><trkpt lat="41.84301334269847" lon="15.957029771294547"><ele>685.2</ele><time>2026-03-22T11:31:13.999Z</time></trkpt><trkpt lat="41.84300052641768" lon="15.9571569561926"><ele>685.4</ele><time>2026-03-22T11:31:14.999Z</time></trkpt><trkpt lat="41.84296708906449" lon="15.957251457847871"><ele>685.5999999999999</ele><time>2026-03-22T11:31:15.999Z</time></trkpt><trkpt lat="41.84290164927527" lon="15.957368545314491"><ele>685.8</ele><time>2026-03-22T11:31:16.999Z</time></trkpt><trkpt lat="41.8428167350219" lon="15.957526366787866"><ele>686.0</ele><time>2026-03-22T11:31:17.999Z</time></trkpt><trkpt lat="41.8427163813007" lon="15.95768599101445"><ele>687.3333333333333</ele><time>2026-03-22T11:31:18.999Z</time></trkpt><trkpt lat="41.842594638412045" lon="15.957842108983453"><ele>688.6666666666666</ele><time>2026-03-22T11:31:19.999Z</time></trkpt><trkpt lat="41.842458466081546" lon="15.958000445550907"><ele>690.0</ele><time>2026-03-22T11:31:20.999Z</time></trkpt><trkpt lat="41.84231774378354" lon="15.95814844228817"><ele>690.0</ele><time>2026-03-22T11:31:21.999Z</time></trkpt><trkpt lat="41.84218385613841" lon="15.958264978007156"><ele>690.0</ele><time>2026-03-22T11:31:22.999Z</time></trkpt><trkpt lat="41.84206596787191" lon="15.95836804153324"><ele>690.0</ele><time>2026-03-22T11:31:23.999Z</time></trkpt><trkpt lat="41.84197310383108" lon="15.958465990551492"><ele>690.0</ele><time>2026-03-22T11:31:24.999Z</time></trkpt><trkpt lat="41.84190778887303" lon="15.95854369275801"><ele>691.5</ele><time>2026-03-22T11:31:25.999Z</time></trkpt><trkpt lat="41.84184536951093" lon="15.958624626321079"><ele>693.0</ele><time>2026-03-22T11:31:26.999Z</time></trkpt><trkpt lat="41.841764926229246" lon="15.958733996647082"><ele>694.5</ele><time>2026-03-22T11:31:27.999Z</time></trkpt><trkpt lat="41.84166655966077" lon="15.958877663012913"><ele>696.0</ele><time>2026-03-22T11:31:28.999Z</time></trkpt><trkpt lat="41.8415432296018" lon="15.9590043891889"><ele>696.0</ele><time>2026-03-22T11:31:29.999Z</time></trkpt><trkpt lat="41.84141864793733" lon="15.959121545564505"><ele>696.0</ele><time>2026-03-22T11:31:30.999Z</time></trkpt><trkpt lat="41.84128347793682" lon="15.959234542861633"><ele>696.0</ele><time>2026-03-22T11:31:31.999Z</time></trkpt><trkpt lat="41.841137023880066" lon="15.959353660859385"><ele>693.3333333333334</ele><time>2026-03-22T11:31:32.999Z</time></trkpt><trkpt lat="41.84099626602066" lon="15.959427723660905"><ele>690.6666666666667</ele><time>2026-03-22T11:31:33.999Z</time></trkpt><trkpt lat="41.84083535251398" lon="15.959493082762416"><ele>688.0</ele><time>2026-03-22T11:31:34.999Z</time></trkpt><trkpt lat="41.840665368011045" lon="15.959579451059753"><ele>693.6666666666667</ele><time>2026-03-22T11:31:35.999Z</time></trkpt><trkpt lat="41.84048092422745" lon="15.95967069644751"><ele>699.3333333333334</ele><time>2026-03-22T11:31:36.999Z</time></trkpt><trkpt lat="41.84028297266333" lon="15.959781406359108"><ele>705.0</ele><time>2026-03-22T11:31:37.999Z</time></trkpt><trkpt lat="41.84007204485812" lon="15.959892627221606"><ele>705.0</ele><time>2026-03-22T11:31:38.999Z</time></trkpt><trkpt lat="41.839887528639565" lon="15.959974067775809"><ele>705.0</ele><time>2026-03-22T11:31:39.999Z</time></trkpt><trkpt lat="41.839708584567774" lon="15.960039844854354"><ele>705.0</ele><time>2026-03-22T11:31:40.999Z</time></trkpt><trkpt lat="41.839514306872005" lon="15.960082903413452"><ele>703.0</ele><time>2026-03-22T11:31:41.999Z</time></trkpt><trkpt lat="41.83932893904266" lon="15.960112817363566"><ele>701.0</ele><time>2026-03-22T11:31:42.999Z</time></trkpt><trkpt lat="41.83914806409277" lon="15.960127640103378"><ele>699.0</ele><time>2026-03-22T11:31:43.999Z</time></trkpt><trkpt lat="41.83898585114594" lon="15.960147959690257"><ele>699.0</ele><time>2026-03-22T11:31:44.999Z</time></trkpt><trkpt lat="41.838857059788246" lon="15.960176965301484"><ele>699.0</ele><time>2026-03-22T11:31:45.999Z</time></trkpt><trkpt lat="41.83874275034708" lon="15.960220247819262"><ele>699.0</ele><time>2026-03-22T11:31:46.999Z</time></trkpt><trkpt lat="41.838644421913706" lon="15.960274591953446"><ele>699.0</ele><time>2026-03-22T11:31:47.999Z</time></trkpt><trkpt lat="41.838575623799834" lon="15.960335400490347"><ele>699.0</ele><time>2026-03-22T11:31:48.999Z</time></trkpt><trkpt lat="41.8385084839585" lon="15.960409772207175"><ele>699.0</ele><time>2026-03-22T11:31:50.999Z</time></trkpt><trkpt lat="41.838468304273825" lon="15.96053455923815"><ele>699.0</ele><time>2026-03-22T11:31:59.998Z</time></trkpt><trkpt lat="41.83843659990383" lon="15.960656687833893"><ele>699.0</ele><time>2026-03-22T11:32:00.998Z</time></trkpt><trkpt lat="41.83842708722301" lon="15.960768133104434"><ele>699.0</ele><time>2026-03-22T11:32:01.998Z</time></trkpt><trkpt lat="41.83843528929891" lon="15.960922672631595"><ele>699.0</ele><time>2026-03-22T11:32:02.998Z</time></trkpt><trkpt lat="41.838451840463975" lon="15.961108172370906"><ele>699.75</ele><time>2026-03-22T11:32:03.998Z</time></trkpt><trkpt lat="41.838452088880715" lon="15.961291625873468"><ele>700.5</ele><time>2026-03-22T11:32:04.998Z</time></trkpt><trkpt lat="41.83842168723261" lon="15.9614683205076"><ele>701.25</ele><time>2026-03-22T11:32:05.998Z</time></trkpt><trkpt lat="41.83836785877993" lon="15.961661312167854"><ele>702.0</ele><time>2026-03-22T11:32:06.998Z</time></trkpt><trkpt lat="41.838312650098565" lon="15.961863996713689"><ele>702.0</ele><time>2026-03-22T11:32:07.998Z</time></trkpt><trkpt lat="41.83826645701706" lon="15.962051022469765"><ele>702.0</ele><time>2026-03-22T11:32:08.998Z</time></trkpt><trkpt lat="41.83822243458404" lon="15.962230948319792"><ele>702.0</ele><time>2026-03-22T11:32:09.998Z</time></trkpt><trkpt lat="41.83816946756847" lon="15.962400589015829"><ele>702.0</ele><time>2026-03-22T11:32:10.998Z</time></trkpt><trkpt lat="41.838115347251545" lon="15.9625836854851"><ele>702.5</ele><time>2026-03-22T11:32:11.998Z</time></trkpt><trkpt lat="41.838064128421316" lon="15.96275852962746"><ele>703.0</ele><time>2026-03-22T11:32:12.998Z</time></trkpt><trkpt lat="41.83800550097873" lon="15.962927166960977"><ele>703.5</ele><time>2026-03-22T11:32:13.998Z</time></trkpt><trkpt lat="41.83793362872975" lon="15.96308958213255"><ele>704.0</ele><time>2026-03-22T11:32:14.998Z</time></trkpt><trkpt lat="41.8378335078525" lon="15.963252316884887"><ele>705.0</ele><time>2026-03-22T11:32:15.998Z</time></trkpt><trkpt lat="41.8377169206389" lon="15.963403278339596"><ele>706.0</ele><time>2026-03-22T11:32:16.998Z</time></trkpt><trkpt lat="41.8375882692841" lon="15.963603458808228"><ele>707.0</ele><time>2026-03-22T11:32:17.998Z</time></trkpt><trkpt lat="41.83749677029345" lon="15.963837065122524"><ele>707.0</ele><time>2026-03-22T11:32:18.998Z</time></trkpt><trkpt lat="41.8374015958377" lon="15.964039091515414"><ele>707.0</ele><time>2026-03-22T11:32:19.998Z</time></trkpt><trkpt lat="41.83728976285966" lon="15.964224240331614"><ele>707.0</ele><time>2026-03-22T11:32:20.998Z</time></trkpt><trkpt lat="41.83716152492784" lon="15.96439162588333"><ele>708.3333333333333</ele><time>2026-03-22T11:32:21.998Z</time></trkpt><trkpt lat="41.83704028017013" lon="15.96451152136819"><ele>709.6666666666666</ele><time>2026-03-22T11:32:22.998Z</time></trkpt><trkpt lat="41.836899449722054" lon="15.964622173232287"><ele>711.0</ele><time>2026-03-22T11:32:23.998Z</time></trkpt><trkpt lat="41.83675698971157" lon="15.964731209191278"><ele>711.0</ele><time>2026-03-22T11:32:24.998Z</time></trkpt><trkpt lat="41.83660435305748" lon="15.964817183297418"><ele>711.0</ele><time>2026-03-22T11:32:25.998Z</time></trkpt><trkpt lat="41.83647502653007" lon="15.964904914342492"><ele>711.0</ele><time>2026-03-22T11:32:26.998Z</time></trkpt><trkpt lat="41.836318378333644" lon="15.96499008137657"><ele>711.0</ele><time>2026-03-22T11:32:27.998Z</time></trkpt><trkpt lat="41.8361256133221" lon="15.964953345107228"><ele>711.0</ele><time>2026-03-22T11:32:28.998Z</time></trkpt><trkpt lat="41.836005097483714" lon="15.965083602556287"><ele>711.0</ele><time>2026-03-22T11:32:29.998Z</time></trkpt><trkpt lat="41.83590659706664" lon="15.9650999128094"><ele>711.0</ele><time>2026-03-22T11:32:30.998Z</time></trkpt><trkpt lat="41.835808385904976" lon="15.965113188890545"><ele>712.8</ele><time>2026-03-22T11:32:31.998Z</time></trkpt><trkpt lat="41.83572826894878" lon="15.965113917879284"><ele>714.5999999999999</ele><time>2026-03-22T11:32:32.998Z</time></trkpt><trkpt lat="41.83563170881518" lon="15.96509832394762"><ele>716.4</ele><time>2026-03-22T11:32:33.998Z</time></trkpt><trkpt lat="41.83555031020663" lon="15.965061161050523"><ele>718.2</ele><time>2026-03-22T11:32:34.998Z</time></trkpt><trkpt lat="41.83545762896568" lon="15.965027636143775"><ele>720.0</ele><time>2026-03-22T11:32:35.998Z</time></trkpt><trkpt lat="41.83534447613733" lon="15.965004182371654"><ele>720.25</ele><time>2026-03-22T11:32:36.998Z</time></trkpt><trkpt lat="41.835195545679845" lon="15.965008652536197"><ele>720.5</ele><time>2026-03-22T11:32:37.998Z</time></trkpt><trkpt lat="41.835093215208396" lon="15.965024185109398"><ele>720.75</ele><time>2026-03-22T11:32:38.998Z</time></trkpt><trkpt lat="41.83497236930793" lon="15.965040840689447"><ele>721.0</ele><time>2026-03-22T11:32:39.998Z</time></trkpt><trkpt lat="41.83485445228784" lon="15.96505244114962"><ele>722.25</ele><time>2026-03-22T11:32:40.998Z</time></trkpt><trkpt lat="41.83473518409116" lon="15.965077688547995"><ele>723.5</ele><time>2026-03-22T11:32:41.998Z</time></trkpt><trkpt lat="41.83462679421091" lon="15.965132856898745"><ele>724.75</ele><time>2026-03-22T11:32:42.998Z</time></trkpt><trkpt lat="41.83453687685903" lon="15.965190906654309"><ele>726.0</ele><time>2026-03-22T11:32:43.998Z</time></trkpt><trkpt lat="41.834449518548446" lon="15.965288542540165"><ele>726.0</ele><time>2026-03-22T11:32:44.998Z</time></trkpt><trkpt lat="41.83435785026539" lon="15.965420117636691"><ele>726.0</ele><time>2026-03-22T11:32:45.998Z</time></trkpt><trkpt lat="41.83421485745243" lon="15.965580732340447"><ele>726.0</ele><time>2026-03-22T11:32:46.998Z</time></trkpt><trkpt lat="41.83411243621385" lon="15.965714283769055"><ele>727.75</ele><time>2026-03-22T11:32:48Z</time></trkpt><trkpt lat="41.8340557579892" lon="15.96585102742616"><ele>729.5</ele><time>2026-03-22T11:32:49Z</time></trkpt><trkpt lat="41.83401518114305" lon="15.966024030217092"><ele>731.25</ele><time>2026-03-22T11:32:50Z</time></trkpt><trkpt lat="41.833959810852804" lon="15.966220426192994"><ele>733.0</ele><time>2026-03-22T11:32:50.999Z</time></trkpt><trkpt lat="41.83389295848982" lon="15.966397450991437"><ele>733.0</ele><time>2026-03-22T11:32:52Z</time></trkpt><trkpt lat="41.833868885554466" lon="15.96657287741353"><ele>733.0</ele><time>2026-03-22T11:32:53Z</time></trkpt><trkpt lat="41.833849652200335" lon="15.966723848295432"><ele>733.0</ele><time>2026-03-22T11:32:53.999Z</time></trkpt><trkpt lat="41.83384747870725" lon="15.966905784796369"><ele>733.0</ele><time>2026-03-22T11:32:54.999Z</time></trkpt><trkpt lat="41.83384401145118" lon="15.967106546841563"><ele>733.0</ele><time>2026-03-22T11:32:55.999Z</time></trkpt><trkpt lat="41.833874745938985" lon="15.967330090467561"><ele>733.0</ele><time>2026-03-22T11:32:57Z</time></trkpt><trkpt lat="41.83391673199246" lon="15.967581840382023"><ele>733.0</ele><time>2026-03-22T11:32:58Z</time></trkpt><trkpt lat="41.83398698242173" lon="15.96778188249014"><ele>733.75</ele><time>2026-03-22T11:32:59Z</time></trkpt><trkpt lat="41.834037407478746" lon="15.967964426867182"><ele>734.5</ele><time>2026-03-22T11:32:59.999Z</time></trkpt><trkpt lat="41.83408568253546" lon="15.968114098186856"><ele>735.25</ele><time>2026-03-22T11:33:01Z</time></trkpt><trkpt lat="41.83414641324257" lon="15.968235185005483"><ele>736.0</ele><time>2026-03-22T11:33:02Z</time></trkpt><trkpt lat="41.83420019487935" lon="15.96833295741363"><ele>737.0</ele><time>2026-03-22T11:33:03Z</time></trkpt><trkpt lat="41.834215569997674" lon="15.96841771903228"><ele>738.0</ele><time>2026-03-22T11:33:04Z</time></trkpt><trkpt lat="41.8342394435751" lon="15.96854881016301"><ele>739.0</ele><time>2026-03-22T11:33:06Z</time></trkpt><trkpt lat="41.83418464463813" lon="15.968490028102082"><ele>740.0</ele><time>2026-03-22T11:33:16.999Z</time></trkpt><trkpt lat="41.83411411787653" lon="15.968425235162547"><ele>741.0</ele><time>2026-03-22T11:34:28.998Z</time></trkpt><trkpt lat="41.834136364742385" lon="15.968535304347098"><ele>742.0</ele><time>2026-03-22T11:38:37.998Z</time></trkpt><trkpt lat="41.834209559470374" lon="15.968558756441567"><ele>742.0</ele><time>2026-03-22T11:38:40.998Z</time></trkpt><trkpt lat="41.83423698722605" lon="15.968648227336303"><ele>742.0</ele><time>2026-03-22T11:38:41.998Z</time></trkpt><trkpt lat="41.83425965007686" lon="15.968756230581961"><ele>742.0</ele><time>2026-03-22T11:38:42.998Z</time></trkpt><trkpt lat="41.83427012693453" lon="15.968891488577768"><ele>742.0</ele><time>2026-03-22T11:38:43.998Z</time></trkpt><trkpt lat="41.834286607469096" lon="15.969061096764703"><ele>742.0</ele><time>2026-03-22T11:38:44.998Z</time></trkpt><trkpt lat="41.834309476453605" lon="15.969239264419503"><ele>740.25</ele><time>2026-03-22T11:38:45.998Z</time></trkpt><trkpt lat="41.83432935380126" lon="15.969424829548224"><ele>738.5</ele><time>2026-03-22T11:38:46.998Z</time></trkpt><trkpt lat="41.83436251921979" lon="15.969614982386043"><ele>736.75</ele><time>2026-03-22T11:38:47.998Z</time></trkpt><trkpt lat="41.83441647220836" lon="15.969817578150026"><ele>735.0</ele><time>2026-03-22T11:38:48.998Z</time></trkpt><trkpt lat="41.83447195014144" lon="15.970003766377646"><ele>737.25</ele><time>2026-03-22T11:38:49.998Z</time></trkpt><trkpt lat="41.8345109625474" lon="15.970168934224667"><ele>739.5</ele><time>2026-03-22T11:38:50.998Z</time></trkpt><trkpt lat="41.834526993361585" lon="15.97035670022029"><ele>741.75</ele><time>2026-03-22T11:38:51.998Z</time></trkpt><trkpt lat="41.834553655119095" lon="15.970557898519075"><ele>744.0</ele><time>2026-03-22T11:38:52.998Z</time></trkpt><trkpt lat="41.83460499428278" lon="15.97078752333247"><ele>745.3333333333334</ele><time>2026-03-22T11:38:53.998Z</time></trkpt><trkpt lat="41.83466663066454" lon="15.971007933526673"><ele>746.6666666666667</ele><time>2026-03-22T11:38:54.998Z</time></trkpt><trkpt lat="41.8346907775086" lon="15.971202244762432"><ele>748.0</ele><time>2026-03-22T11:38:55.998Z</time></trkpt><trkpt lat="41.83469607479015" lon="15.97145074337383"><ele>749.0</ele><time>2026-03-22T11:38:56.998Z</time></trkpt><trkpt lat="41.83468114889095" lon="15.971700891484927"><ele>750.0</ele><time>2026-03-22T11:38:57.998Z</time></trkpt><trkpt lat="41.83468339267903" lon="15.971920489583185"><ele>751.0</ele><time>2026-03-22T11:38:58.998Z</time></trkpt><trkpt lat="41.83470504397548" lon="15.972128845198824"><ele>751.0</ele><time>2026-03-22T11:38:59.998Z</time></trkpt><trkpt lat="41.834738560925" lon="15.972370574102294"><ele>751.0</ele><time>2026-03-22T11:39:00.998Z</time></trkpt><trkpt lat="41.8347617744531" lon="15.972599834118114"><ele>751.0</ele><time>2026-03-22T11:39:01.998Z</time></trkpt><trkpt lat="41.83477563911195" lon="15.972824456695427"><ele>752.6666666666667</ele><time>2026-03-22T11:39:02.998Z</time></trkpt><trkpt lat="41.83478362008494" lon="15.97303823385151"><ele>754.3333333333334</ele><time>2026-03-22T11:39:03.998Z</time></trkpt><trkpt lat="41.83481340592942" lon="15.973231063418526"><ele>756.0</ele><time>2026-03-22T11:39:04.999Z</time></trkpt><trkpt lat="41.83486832989337" lon="15.973468079308509"><ele>757.5</ele><time>2026-03-22T11:39:05.999Z</time></trkpt><trkpt lat="41.83494439028118" lon="15.973690718628312"><ele>759.0</ele><time>2026-03-22T11:39:06.999Z</time></trkpt><trkpt lat="41.83501007768201" lon="15.97385434860506"><ele>760.5</ele><time>2026-03-22T11:39:07.999Z</time></trkpt><trkpt lat="41.83505676573219" lon="15.973999793889515"><ele>762.0</ele><time>2026-03-22T11:39:09Z</time></trkpt><trkpt lat="41.835075160824296" lon="15.974122182309058"><ele>761.5</ele><time>2026-03-22T11:39:10Z</time></trkpt><trkpt lat="41.835055890542336" lon="15.974259240174916"><ele>761.0</ele><time>2026-03-22T11:39:10.999Z</time></trkpt><trkpt lat="41.835022154212815" lon="15.974395860184638"><ele>760.5</ele><time>2026-03-22T11:39:12Z</time></trkpt><trkpt lat="41.83495161009984" lon="15.974531729449454"><ele>760.0</ele><time>2026-03-22T11:39:13Z</time></trkpt><trkpt lat="41.83484744161186" lon="15.974644498971484"><ele>760.0</ele><time>2026-03-22T11:39:13.999Z</time></trkpt><trkpt lat="41.8347501374833" lon="15.974783274812433"><ele>760.0</ele><time>2026-03-22T11:39:14.999Z</time></trkpt><trkpt lat="41.83465291658381" lon="15.974923874546619"><ele>760.0</ele><time>2026-03-22T11:39:15.999Z</time></trkpt><trkpt lat="41.83454822875282" lon="15.975037209055882"><ele>760.0</ele><time>2026-03-22T11:39:17Z</time></trkpt><trkpt lat="41.8344277950243" lon="15.975137779387612"><ele>761.0</ele><time>2026-03-22T11:39:17.999Z</time></trkpt><trkpt lat="41.83428328303521" lon="15.975272126941277"><ele>762.0</ele><time>2026-03-22T11:39:18.999Z</time></trkpt><trkpt lat="41.83413960783708" lon="15.97539186463821"><ele>763.0</ele><time>2026-03-22T11:39:19.999Z</time></trkpt><trkpt lat="41.83400041522783" lon="15.975541645362531"><ele>763.0</ele><time>2026-03-22T11:39:20.999Z</time></trkpt><trkpt lat="41.83387761783212" lon="15.975684968010302"><ele>763.0</ele><time>2026-03-22T11:39:21.999Z</time></trkpt><trkpt lat="41.83378577640655" lon="15.975807195778401"><ele>763.0</ele><time>2026-03-22T11:39:22.999Z</time></trkpt><trkpt lat="41.83371507054011" lon="15.97594010056225"><ele>763.0</ele><time>2026-03-22T11:39:23.999Z</time></trkpt><trkpt lat="41.8336677687731" lon="15.976076117659536"><ele>762.6666666666667</ele><time>2026-03-22T11:39:24.999Z</time></trkpt><trkpt lat="41.833633940148744" lon="15.976256324920953"><ele>762.3333333333334</ele><time>2026-03-22T11:39:25.999Z</time></trkpt><trkpt lat="41.83361841901487" lon="15.97648486503379"><ele>762.0</ele><time>2026-03-22T11:39:26.999Z</time></trkpt><trkpt lat="41.83357785472655" lon="15.976760004287712"><ele>761.3333333333334</ele><time>2026-03-22T11:39:27.999Z</time></trkpt><trkpt lat="41.8335321491461" lon="15.977035491970508"><ele>760.6666666666667</ele><time>2026-03-22T11:39:28.999Z</time></trkpt><trkpt lat="41.83349814514314" lon="15.977275819698303"><ele>760.0</ele><time>2026-03-22T11:39:29.999Z</time></trkpt><trkpt lat="41.833462805406455" lon="15.977511658683486"><ele>764.0</ele><time>2026-03-22T11:39:30.999Z</time></trkpt><trkpt lat="41.83343080669112" lon="15.977790293949262"><ele>768.0</ele><time>2026-03-22T11:39:31.999Z</time></trkpt><trkpt lat="41.83340070389195" lon="15.978079570003116"><ele>772.0</ele><time>2026-03-22T11:39:32.999Z</time></trkpt><trkpt lat="41.833351933552336" lon="15.978339489202385"><ele>772.6666666666666</ele><time>2026-03-22T11:39:33.999Z</time></trkpt><trkpt lat="41.833304267503074" lon="15.978570027182046"><ele>773.3333333333333</ele><time>2026-03-22T11:39:34.999Z</time></trkpt><trkpt lat="41.83324917752411" lon="15.978783265029726"><ele>774.0</ele><time>2026-03-22T11:39:35.999Z</time></trkpt><trkpt lat="41.83317067342119" lon="15.97898085466884"><ele>774.0</ele><time>2026-03-22T11:39:36.999Z</time></trkpt><trkpt lat="41.83309787348734" lon="15.979175264486003"><ele>774.0</ele><time>2026-03-22T11:39:37.999Z</time></trkpt><trkpt lat="41.83301195272435" lon="15.979404776245662"><ele>774.0</ele><time>2026-03-22T11:39:38.999Z</time></trkpt><trkpt lat="41.832932957972425" lon="15.97961359640454"><ele>775.6666666666667</ele><time>2026-03-22T11:39:39.999Z</time></trkpt><trkpt lat="41.832852246373264" lon="15.979801977660017"><ele>777.3333333333334</ele><time>2026-03-22T11:39:40.999Z</time></trkpt><trkpt lat="41.83275199271176" lon="15.979982316748979"><ele>779.0</ele><time>2026-03-22T11:39:41.999Z</time></trkpt><trkpt lat="41.83264410824985" lon="15.980097054551194"><ele>780.2</ele><time>2026-03-22T11:39:42.999Z</time></trkpt><trkpt lat="41.83254884062671" lon="15.980193600214735"><ele>781.4000000000001</ele><time>2026-03-22T11:39:43.999Z</time></trkpt><trkpt lat="41.832468443939895" lon="15.980271326496577"><ele>782.6</ele><time>2026-03-22T11:39:44.999Z</time></trkpt><trkpt lat="41.83240013861938" lon="15.980336747431025"><ele>783.8</ele><time>2026-03-22T11:39:45.999Z</time></trkpt><trkpt lat="41.83233292793218" lon="15.980413397452192"><ele>785.0</ele><time>2026-03-22T11:39:47.999Z</time></trkpt><trkpt lat="41.83241812366967" lon="15.980455057865624"><ele>785.0</ele><time>2026-03-22T11:39:50.999Z</time></trkpt><trkpt lat="41.83249572296637" lon="15.980502659357034"><ele>785.0</ele><time>2026-03-22T11:39:51.999Z</time></trkpt><trkpt lat="41.83257054056781" lon="15.980591038605006"><ele>785.0</ele><time>2026-03-22T11:39:52.999Z</time></trkpt><trkpt lat="41.83272475109403" lon="15.980964043556485"><ele>782.75</ele><time>2026-03-22T11:39:53.999Z</time></trkpt><trkpt lat="41.83278973194289" lon="15.981114217244741"><ele>780.5</ele><time>2026-03-22T11:39:54.999Z</time></trkpt><trkpt lat="41.83286686333161" lon="15.98128423591029"><ele>778.25</ele><time>2026-03-22T11:39:55.999Z</time></trkpt><trkpt lat="41.832925869178254" lon="15.981468875277022"><ele>776.0</ele><time>2026-03-22T11:39:56.999Z</time></trkpt><trkpt lat="41.83296372028979" lon="15.981646994816481"><ele>775.0</ele><time>2026-03-22T11:39:57.999Z</time></trkpt><trkpt lat="41.83302774414752" lon="15.981823839201788"><ele>774.0</ele><time>2026-03-22T11:39:58.999Z</time></trkpt><trkpt lat="41.83313629504669" lon="15.981962679373769"><ele>773.0</ele><time>2026-03-22T11:39:59.999Z</time></trkpt><trkpt lat="41.83323702678439" lon="15.9820807842258"><ele>772.0</ele><time>2026-03-22T11:40:00.999Z</time></trkpt><trkpt lat="41.83334099925241" lon="15.9822066606196"><ele>772.0</ele><time>2026-03-22T11:40:01.999Z</time></trkpt><trkpt lat="41.83345420401835" lon="15.982341905510408"><ele>772.0</ele><time>2026-03-22T11:40:02.999Z</time></trkpt><trkpt lat="41.8335388324666" lon="15.982520179747283"><ele>772.0</ele><time>2026-03-22T11:40:03.999Z</time></trkpt><trkpt lat="41.83361892453596" lon="15.982758694469497"><ele>773.0</ele><time>2026-03-22T11:40:04.999Z</time></trkpt><trkpt lat="41.83371636649124" lon="15.982946965437625"><ele>774.0</ele><time>2026-03-22T11:40:05.999Z</time></trkpt><trkpt lat="41.83379678604805" lon="15.983115220549957"><ele>775.0</ele><time>2026-03-22T11:40:06.999Z</time></trkpt><trkpt lat="41.83386142614813" lon="15.983270677831598"><ele>773.75</ele><time>2026-03-22T11:40:07.999Z</time></trkpt><trkpt lat="41.833925606787204" lon="15.98344306112593"><ele>772.5</ele><time>2026-03-22T11:40:08.999Z</time></trkpt><trkpt lat="41.83398586307441" lon="15.98363493193713"><ele>771.25</ele><time>2026-03-22T11:40:09.999Z</time></trkpt><trkpt lat="41.83403937886888" lon="15.983815680994784"><ele>770.0</ele><time>2026-03-22T11:40:10.999Z</time></trkpt><trkpt lat="41.83409409892837" lon="15.984001392224311"><ele>768.5</ele><time>2026-03-22T11:40:11.999Z</time></trkpt><trkpt lat="41.8341372636866" lon="15.984181916655709"><ele>767.0</ele><time>2026-03-22T11:40:12.999Z</time></trkpt><trkpt lat="41.834160672133564" lon="15.984377329733027"><ele>765.5</ele><time>2026-03-22T11:40:13.999Z</time></trkpt><trkpt lat="41.83417576353103" lon="15.984564004316637"><ele>764.0</ele><time>2026-03-22T11:40:14.999Z</time></trkpt><trkpt lat="41.83418709085318" lon="15.984747896996714"><ele>764.0</ele><time>2026-03-22T11:40:15.998Z</time></trkpt><trkpt lat="41.834222449582626" lon="15.9849165476764"><ele>764.0</ele><time>2026-03-22T11:40:16.998Z</time></trkpt><trkpt lat="41.83428521683787" lon="15.985040181711938"><ele>764.0</ele><time>2026-03-22T11:40:17.998Z</time></trkpt><trkpt lat="41.834371427219295" lon="15.985183959131017"><ele>764.0</ele><time>2026-03-22T11:40:18.998Z</time></trkpt><trkpt lat="41.8345016448242" lon="15.985319030413105"><ele>763.3333333333333</ele><time>2026-03-22T11:40:19.998Z</time></trkpt><trkpt lat="41.83465314235728" lon="15.985449972374987"><ele>762.6666666666666</ele><time>2026-03-22T11:40:20.998Z</time></trkpt><trkpt lat="41.83479806007837" lon="15.985615819270308"><ele>762.0</ele><time>2026-03-22T11:40:21.998Z</time></trkpt><trkpt lat="41.834963179189614" lon="15.9857672573728"><ele>762.6666666666666</ele><time>2026-03-22T11:40:22.998Z</time></trkpt><trkpt lat="41.83510367228676" lon="15.985907089394425"><ele>763.3333333333333</ele><time>2026-03-22T11:40:23.998Z</time></trkpt><trkpt lat="41.83523470580907" lon="15.986055004442747"><ele>764.0</ele><time>2026-03-22T11:40:24.998Z</time></trkpt><trkpt lat="41.83534270388434" lon="15.986146138002589"><ele>762.0</ele><time>2026-03-22T11:40:25.998Z</time></trkpt><trkpt lat="41.83546605334726" lon="15.986214161140639"><ele>760.0</ele><time>2026-03-22T11:40:26.998Z</time></trkpt><trkpt lat="41.83560101781371" lon="15.986257783569418"><ele>758.0</ele><time>2026-03-22T11:40:27.998Z</time></trkpt><trkpt lat="41.835741862016114" lon="15.986306921857372"><ele>756.0</ele><time>2026-03-22T11:40:28.998Z</time></trkpt><trkpt lat="41.835869329557205" lon="15.986350310412156"><ele>753.8</ele><time>2026-03-22T11:40:29.998Z</time></trkpt><trkpt lat="41.8359795193083" lon="15.986394214938585"><ele>751.5999999999999</ele><time>2026-03-22T11:40:30.998Z</time></trkpt><trkpt lat="41.83608333485565" lon="15.98643480478976"><ele>749.4</ele><time>2026-03-22T11:40:31.998Z</time></trkpt><trkpt lat="41.83617996881811" lon="15.98647970506941"><ele>747.2</ele><time>2026-03-22T11:40:32.998Z</time></trkpt><trkpt lat="41.83629721763663" lon="15.986503538989371"><ele>745.0</ele><time>2026-03-22T11:40:33.998Z</time></trkpt><trkpt lat="41.83642584645962" lon="15.986474477253237"><ele>745.0</ele><time>2026-03-22T11:40:34.998Z</time></trkpt><trkpt lat="41.836620664886134" lon="15.986412544480965"><ele>745.0</ele><time>2026-03-22T11:40:35.998Z</time></trkpt><trkpt lat="41.8368035000344" lon="15.986347130537636"><ele>745.0</ele><time>2026-03-22T11:40:36.998Z</time></trkpt><trkpt lat="41.83698675070584" lon="15.986321822151785"><ele>742.3333333333334</ele><time>2026-03-22T11:40:37.998Z</time></trkpt><trkpt lat="41.83714140821581" lon="15.986283065468765"><ele>739.6666666666666</ele><time>2026-03-22T11:40:38.998Z</time></trkpt><trkpt lat="41.83729231588142" lon="15.986232284434845"><ele>737.0</ele><time>2026-03-22T11:40:39.998Z</time></trkpt><trkpt lat="41.83742735202593" lon="15.986176508579641"><ele>737.0</ele><time>2026-03-22T11:40:40.998Z</time></trkpt><trkpt lat="41.83756199649392" lon="15.986156415300936"><ele>737.0</ele><time>2026-03-22T11:40:41.998Z</time></trkpt><trkpt lat="41.83771359041704" lon="15.986151598129148"><ele>737.0</ele><time>2026-03-22T11:40:42.998Z</time></trkpt><trkpt lat="41.83787761814139" lon="15.986141663407684"><ele>736.5</ele><time>2026-03-22T11:40:43.998Z</time></trkpt><trkpt lat="41.83803619490916" lon="15.986116656966301"><ele>736.0</ele><time>2026-03-22T11:40:44.998Z</time></trkpt><trkpt lat="41.83817240331035" lon="15.986103512126657"><ele>735.5</ele><time>2026-03-22T11:40:45.998Z</time></trkpt><trkpt lat="41.83828387061624" lon="15.986066621868103"><ele>735.0</ele><time>2026-03-22T11:40:46.998Z</time></trkpt><trkpt lat="41.83837534846796" lon="15.986023932681462"><ele>735.0</ele><time>2026-03-22T11:40:47.998Z</time></trkpt><trkpt lat="41.83846568369598" lon="15.985999101351869"><ele>735.0</ele><time>2026-03-22T11:40:48.998Z</time></trkpt><trkpt lat="41.83857037696025" lon="15.985983458126395"><ele>735.0</ele><time>2026-03-22T11:40:49.998Z</time></trkpt><trkpt lat="41.838698108585575" lon="15.985993225254912"><ele>735.0</ele><time>2026-03-22T11:40:50.998Z</time></trkpt><trkpt lat="41.8388079478953" lon="15.986000022935322"><ele>735.0</ele><time>2026-03-22T11:40:51.998Z</time></trkpt><trkpt lat="41.83892237572777" lon="15.985991108482162"><ele>734.25</ele><time>2026-03-22T11:40:52.998Z</time></trkpt><trkpt lat="41.83902715913978" lon="15.985968795811335"><ele>733.5</ele><time>2026-03-22T11:40:53.998Z</time></trkpt><trkpt lat="41.83914245549095" lon="15.985902725775224"><ele>732.75</ele><time>2026-03-22T11:40:54.998Z</time></trkpt><trkpt lat="41.839279435678634" lon="15.985820237557476"><ele>732.0</ele><time>2026-03-22T11:40:55.998Z</time></trkpt><trkpt lat="41.83942878551244" lon="15.98572725301505"><ele>730.75</ele><time>2026-03-22T11:40:56.998Z</time></trkpt><trkpt lat="41.83957312800936" lon="15.985651217380273"><ele>729.5</ele><time>2026-03-22T11:40:57.998Z</time></trkpt><trkpt lat="41.8397000081415" lon="15.985554703677957"><ele>728.25</ele><time>2026-03-22T11:40:58.998Z</time></trkpt><trkpt lat="41.8398091462344" lon="15.985505286089664"><ele>727.0</ele><time>2026-03-22T11:40:59.998Z</time></trkpt><trkpt lat="41.83989536669227" lon="15.985468252889445"><ele>727.0</ele><time>2026-03-22T11:41:00.998Z</time></trkpt><trkpt lat="41.83999895233917" lon="15.985436495334975"><ele>727.0</ele><time>2026-03-22T11:41:01.998Z</time></trkpt><trkpt lat="41.84013003572038" lon="15.985401461328964"><ele>727.0</ele><time>2026-03-22T11:41:02.998Z</time></trkpt><trkpt lat="41.840252709408624" lon="15.985343773609426"><ele>727.0</ele><time>2026-03-22T11:41:03.998Z</time></trkpt><trkpt lat="41.84036468127091" lon="15.985259370094509"><ele>728.2</ele><time>2026-03-22T11:41:04.998Z</time></trkpt><trkpt lat="41.84045958878354" lon="15.985184672541095"><ele>729.4000000000001</ele><time>2026-03-22T11:41:05.998Z</time></trkpt><trkpt lat="41.84053143533187" lon="15.985087745746458"><ele>730.5999999999999</ele><time>2026-03-22T11:41:06.998Z</time></trkpt><trkpt lat="41.84058575743376" lon="15.985016301174749"><ele>731.8</ele><time>2026-03-22T11:41:07.998Z</time></trkpt><trkpt lat="41.84065883392831" lon="15.984928814029358"><ele>733.0</ele><time>2026-03-22T11:41:09.999Z</time></trkpt><trkpt lat="41.84076605108675" lon="15.984805549278107"><ele>733.75</ele><time>2026-03-22T11:41:11.999Z</time></trkpt><trkpt lat="41.840841496855596" lon="15.984699667804067"><ele>734.5</ele><time>2026-03-22T11:41:12.999Z</time></trkpt><trkpt lat="41.84092381072368" lon="15.98457243833864"><ele>735.25</ele><time>2026-03-22T11:41:14Z</time></trkpt><trkpt lat="41.841012098978695" lon="15.984435777963176"><ele>736.0</ele><time>2026-03-22T11:41:15Z</time></trkpt><trkpt lat="41.84108501648778" lon="15.984328772905629"><ele>733.1999999999999</ele><time>2026-03-22T11:41:16Z</time></trkpt><trkpt lat="41.84113561377304" lon="15.984259196594609"><ele>730.4</ele><time>2026-03-22T11:41:17Z</time></trkpt><trkpt lat="41.84119152318796" lon="15.984209755780897"><ele>727.6</ele><time>2026-03-22T11:41:18Z</time></trkpt><trkpt lat="41.84127104988799" lon="15.984149623628323"><ele>724.8</ele><time>2026-03-22T11:41:18.999Z</time></trkpt><trkpt lat="41.84138270699829" lon="15.984030399721453"><ele>722.0</ele><time>2026-03-22T11:41:19.999Z</time></trkpt><trkpt lat="41.84147678599936" lon="15.983807570171868"><ele>722.0</ele><time>2026-03-22T11:41:20.999Z</time></trkpt><trkpt lat="41.841543194966796" lon="15.983650249017893"><ele>722.0</ele><time>2026-03-22T11:41:21.999Z</time></trkpt><trkpt lat="41.84158682962524" lon="15.983504572294692"><ele>722.0</ele><time>2026-03-22T11:41:23Z</time></trkpt><trkpt lat="41.84162537534522" lon="15.983376580406004"><ele>722.0</ele><time>2026-03-22T11:41:24Z</time></trkpt><trkpt lat="41.84164044292159" lon="15.98326228661586"><ele>722.0</ele><time>2026-03-22T11:41:25Z</time></trkpt><trkpt lat="41.841710475748336" lon="15.983052026057514"><ele>721.8</ele><time>2026-03-22T11:41:27Z</time></trkpt><trkpt lat="41.84174777968426" lon="15.982937157148388"><ele>721.6</ele><time>2026-03-22T11:41:28Z</time></trkpt><trkpt lat="41.84176153386702" lon="15.982828561575099"><ele>721.4</ele><time>2026-03-22T11:41:29Z</time></trkpt><trkpt lat="41.84178762153281" lon="15.982656853329686"><ele>721.1999999999999</ele><time>2026-03-22T11:41:30Z</time></trkpt><trkpt lat="41.84181145110548" lon="15.982515717021341"><ele>721.0</ele><time>2026-03-22T11:41:31Z</time></trkpt><trkpt lat="41.841834371260646" lon="15.982374934744328"><ele>721.0</ele><time>2026-03-22T11:41:31.999Z</time></trkpt><trkpt lat="41.84188559221155" lon="15.982267590905387"><ele>721.0</ele><time>2026-03-22T11:41:32.999Z</time></trkpt><trkpt lat="41.84196578710304" lon="15.98215457888019"><ele>721.0</ele><time>2026-03-22T11:41:33.999Z</time></trkpt><trkpt lat="41.842092654743404" lon="15.982089397551576"><ele>721.0</ele><time>2026-03-22T11:41:34.999Z</time></trkpt><trkpt lat="41.84216369578892" lon="15.981931351477442"><ele>721.0</ele><time>2026-03-22T11:41:35.999Z</time></trkpt><trkpt lat="41.842258911224654" lon="15.981828865740773"><ele>721.0</ele><time>2026-03-22T11:41:36.999Z</time></trkpt><trkpt lat="41.84234072713957" lon="15.981715317015267"><ele>721.0</ele><time>2026-03-22T11:41:37.999Z</time></trkpt><trkpt lat="41.84242929552983" lon="15.981622634289797"><ele>721.0</ele><time>2026-03-22T11:41:38.999Z</time></trkpt><trkpt lat="41.842511171518375" lon="15.981539142206897"><ele>720.0</ele><time>2026-03-22T11:41:39.999Z</time></trkpt><trkpt lat="41.84259348762978" lon="15.98143022773671"><ele>719.0</ele><time>2026-03-22T11:41:40.999Z</time></trkpt><trkpt lat="41.84267355291674" lon="15.981300005303929"><ele>718.0</ele><time>2026-03-22T11:41:41.999Z</time></trkpt><trkpt lat="41.84274237250039" lon="15.981174895892108"><ele>717.0</ele><time>2026-03-22T11:41:42.999Z</time></trkpt><trkpt lat="41.842809286196704" lon="15.981076056019667"><ele>715.6666666666666</ele><time>2026-03-22T11:41:43.999Z</time></trkpt><trkpt lat="41.84288068420281" lon="15.980992343349845"><ele>714.3333333333334</ele><time>2026-03-22T11:41:44.999Z</time></trkpt><trkpt lat="41.84293790525682" lon="15.980931176865083"><ele>713.0</ele><time>2026-03-22T11:41:45.999Z</time></trkpt><trkpt lat="41.84299814359784" lon="15.980868422063976"><ele>711.6666666666667</ele><time>2026-03-22T11:41:46.999Z</time></trkpt><trkpt lat="41.84305626855797" lon="15.980793236213291"><ele>710.3333333333334</ele><time>2026-03-22T11:41:47.999Z</time></trkpt><trkpt lat="41.843107721401154" lon="15.980725710453887"><ele>709.0</ele><time>2026-03-22T11:41:48.999Z</time></trkpt><trkpt lat="41.843160573826346" lon="15.980654764957187"><ele>707.3333333333334</ele><time>2026-03-22T11:41:49.999Z</time></trkpt><trkpt lat="41.84321690269698" lon="15.980579153038482"><ele>705.6666666666667</ele><time>2026-03-22T11:41:50.999Z</time></trkpt><trkpt lat="41.843277629427654" lon="15.980480069276465"><ele>704.0</ele><time>2026-03-22T11:41:51.999Z</time></trkpt><trkpt lat="41.84330849876017" lon="15.980362770057473"><ele>702.3333333333334</ele><time>2026-03-22T11:41:52.999Z</time></trkpt><trkpt lat="41.84333087972238" lon="15.98023073214722"><ele>700.6666666666666</ele><time>2026-03-22T11:41:53.999Z</time></trkpt><trkpt lat="41.843347264289264" lon="15.980129865010214"><ele>699.0</ele><time>2026-03-22T11:41:54.999Z</time></trkpt><trkpt lat="41.84333107081417" lon="15.980002625544987"><ele>696.1666666666666</ele><time>2026-03-22T11:41:55.999Z</time></trkpt><trkpt lat="41.84336904163746" lon="15.97989335728255"><ele>693.3333333333334</ele><time>2026-03-22T11:41:56.999Z</time></trkpt><trkpt lat="41.84339969952964" lon="15.979774911057595"><ele>690.5</ele><time>2026-03-22T11:41:57.999Z</time></trkpt><trkpt lat="41.843428516653006" lon="15.979677881213695"><ele>687.6666666666667</ele><time>2026-03-22T11:41:58.999Z</time></trkpt><trkpt lat="41.84346006238331" lon="15.979598713708416"><ele>684.8333333333334</ele><time>2026-03-22T11:41:59.999Z</time></trkpt><trkpt lat="41.843527863916584" lon="15.979492308897331"><ele>682.0</ele><time>2026-03-22T11:42:01.999Z</time></trkpt><trkpt lat="41.84356568413144" lon="15.979423625934848"><ele>678.2</ele><time>2026-03-22T11:42:02.999Z</time></trkpt><trkpt lat="41.8436084507297" lon="15.979347322146074"><ele>674.4000000000001</ele><time>2026-03-22T11:42:04.999Z</time></trkpt><trkpt lat="41.84365628014347" lon="15.979257259955302"><ele>670.5999999999999</ele><time>2026-03-22T11:42:11.999Z</time></trkpt><trkpt lat="41.84370354391967" lon="15.97914180727489"><ele>666.8</ele><time>2026-03-22T11:42:15.999Z</time></trkpt><trkpt lat="41.843774501730806" lon="15.979091562577224"><ele>663.0</ele><time>2026-03-22T11:42:16.999Z</time></trkpt><trkpt lat="41.8438707289756" lon="15.978999749297323"><ele>662.2</ele><time>2026-03-22T11:42:17.999Z</time></trkpt><trkpt lat="41.843972887459444" lon="15.97892405283761"><ele>661.4</ele><time>2026-03-22T11:42:18.999Z</time></trkpt><trkpt lat="41.84405210061873" lon="15.978857849644696"><ele>660.6</ele><time>2026-03-22T11:42:20.999Z</time></trkpt><trkpt lat="41.84408586351523" lon="15.978733721873562"><ele>659.8000000000001</ele><time>2026-03-22T11:42:21.999Z</time></trkpt><trkpt lat="41.844130696925056" lon="15.978581677962776"><ele>659.0</ele><time>2026-03-22T11:42:22.999Z</time></trkpt><trkpt lat="41.84418937841901" lon="15.97844853055999"><ele>658.5</ele><time>2026-03-22T11:42:23.999Z</time></trkpt><trkpt lat="41.844279691888296" lon="15.978339798485278"><ele>658.0</ele><time>2026-03-22T11:42:24.999Z</time></trkpt><trkpt lat="41.84437348846983" lon="15.978279543168213"><ele>657.5</ele><time>2026-03-22T11:42:25.999Z</time></trkpt><trkpt lat="41.844493029760905" lon="15.978247631991861"><ele>657.0</ele><time>2026-03-22T11:42:26.999Z</time></trkpt><trkpt lat="41.84464854167583" lon="15.978210803010745"><ele>657.0</ele><time>2026-03-22T11:42:27.999Z</time></trkpt><trkpt lat="41.8448250226783" lon="15.978167562650386"><ele>657.0</ele><time>2026-03-22T11:42:28.999Z</time></trkpt><trkpt lat="41.84497387546408" lon="15.978137788694843"><ele>657.0</ele><time>2026-03-22T11:42:29.999Z</time></trkpt><trkpt lat="41.845139505764394" lon="15.978066294330443"><ele>654.0</ele><time>2026-03-22T11:42:30.999Z</time></trkpt><trkpt lat="41.845258711349494" lon="15.978022515058369"><ele>651.0</ele><time>2026-03-22T11:42:31.999Z</time></trkpt><trkpt lat="41.84537099339241" lon="15.977987621591746"><ele>648.0</ele><time>2026-03-22T11:42:32.999Z</time></trkpt><trkpt lat="41.84548729153383" lon="15.977950551597868"><ele>645.0</ele><time>2026-03-22T11:42:33.998Z</time></trkpt><trkpt lat="41.84558658757708" lon="15.97791620093176"><ele>645.0</ele><time>2026-03-22T11:42:34.998Z</time></trkpt><trkpt lat="41.845650794768" lon="15.977885444824526"><ele>645.0</ele><time>2026-03-22T11:42:35.998Z</time></trkpt><trkpt lat="41.84571629671433" lon="15.977849414115024"><ele>645.0</ele><time>2026-03-22T11:42:37.998Z</time></trkpt><trkpt lat="41.84578210022301" lon="15.977845072223827"><ele>645.0</ele><time>2026-03-22T11:42:39.998Z</time></trkpt><trkpt lat="41.8458479912044" lon="15.977840243845755"><ele>645.0</ele><time>2026-03-22T11:42:40.998Z</time></trkpt><trkpt lat="41.84596488078262" lon="15.97781927855222"><ele>645.0</ele><time>2026-03-22T11:42:41.998Z</time></trkpt><trkpt lat="41.84607607526567" lon="15.977799477716925"><ele>645.6666666666666</ele><time>2026-03-22T11:42:42.998Z</time></trkpt><trkpt lat="41.84617550626088" lon="15.977801857101165"><ele>646.3333333333334</ele><time>2026-03-22T11:42:43.998Z</time></trkpt><trkpt lat="41.84626211672675" lon="15.97782176915847"><ele>647.0</ele><time>2026-03-22T11:42:44.998Z</time></trkpt><trkpt lat="41.846331445968815" lon="15.977861652082309"><ele>647.6666666666667</ele><time>2026-03-22T11:42:45.998Z</time></trkpt><trkpt lat="41.84640551971855" lon="15.977908328695431"><ele>648.3333333333334</ele><time>2026-03-22T11:42:46.998Z</time></trkpt><trkpt lat="41.84648823818915" lon="15.977939609574983"><ele>649.0</ele><time>2026-03-22T11:42:47.998Z</time></trkpt><trkpt lat="41.84656242465937" lon="15.977964496020741"><ele>649.0</ele><time>2026-03-22T11:42:48.998Z</time></trkpt><trkpt lat="41.846642897416686" lon="15.977981272994128"><ele>649.0</ele><time>2026-03-22T11:42:49.997Z</time></trkpt><trkpt lat="41.846723838569574" lon="15.978000617796686"><ele>649.0</ele><time>2026-03-22T11:42:50.997Z</time></trkpt><trkpt lat="41.84681646211513" lon="15.97798509267972"><ele>649.0</ele><time>2026-03-22T11:42:51.997Z</time></trkpt><trkpt lat="41.84689045998217" lon="15.977980307434553"><ele>649.0</ele><time>2026-03-22T11:42:52.997Z</time></trkpt><trkpt lat="41.84697353655826" lon="15.977987582788456"><ele>649.0</ele><time>2026-03-22T11:42:53.997Z</time></trkpt><trkpt lat="41.84705404021145" lon="15.97800074174876"><ele>649.6666666666667</ele><time>2026-03-22T11:42:54.997Z</time></trkpt><trkpt lat="41.84712785833794" lon="15.977991819667054"><ele>650.3333333333334</ele><time>2026-03-22T11:42:55.997Z</time></trkpt><trkpt lat="41.84720288822357" lon="15.978009263836665"><ele>651.0</ele><time>2026-03-22T11:42:56.997Z</time></trkpt><trkpt lat="41.84729566392606" lon="15.978019001560039"><ele>651.6666666666666</ele><time>2026-03-22T11:42:57.997Z</time></trkpt><trkpt lat="41.84739789965056" lon="15.97801982889624"><ele>652.3333333333333</ele><time>2026-03-22T11:42:58.997Z</time></trkpt><trkpt lat="41.84749140763214" lon="15.978031151682382"><ele>653.0</ele><time>2026-03-22T11:42:59.997Z</time></trkpt><trkpt lat="41.84761828092735" lon="15.978034068598777"><ele>652.75</ele><time>2026-03-22T11:43:00.997Z</time></trkpt><trkpt lat="41.847748775919904" lon="15.978070783185212"><ele>652.5</ele><time>2026-03-22T11:43:01.997Z</time></trkpt><trkpt lat="41.84786185590875" lon="15.978122982289419"><ele>652.25</ele><time>2026-03-22T11:43:02.997Z</time></trkpt><trkpt lat="41.84796348281003" lon="15.978185078910135"><ele>652.0</ele><time>2026-03-22T11:43:03.997Z</time></trkpt><trkpt lat="41.84805515500065" lon="15.978209146114342"><ele>652.0</ele><time>2026-03-22T11:43:04.997Z</time></trkpt><trkpt lat="41.848127798750696" lon="15.978227205698202"><ele>652.0</ele><time>2026-03-22T11:43:05.997Z</time></trkpt><trkpt lat="41.84819659319779" lon="15.97824372089922"><ele>652.0</ele><time>2026-03-22T11:43:06.997Z</time></trkpt><trkpt lat="41.84825886757481" lon="15.978217667232384"><ele>652.0</ele><time>2026-03-22T11:43:07.997Z</time></trkpt><trkpt lat="41.848322880571615" lon="15.978213233193816"><ele>652.0</ele><time>2026-03-22T11:43:09.997Z</time></trkpt><trkpt lat="41.848400085448546" lon="15.978221593059034"><ele>652.0</ele><time>2026-03-22T11:43:10.997Z</time></trkpt><trkpt lat="41.8484960037056" lon="15.978288021910195"><ele>649.3333333333334</ele><time>2026-03-22T11:43:11.997Z</time></trkpt><trkpt lat="41.8486538000936" lon="15.978423374109255"><ele>646.6666666666666</ele><time>2026-03-22T11:43:12.997Z</time></trkpt><trkpt lat="41.84876803812729" lon="15.978536258638783"><ele>644.0</ele><time>2026-03-22T11:43:13.997Z</time></trkpt><trkpt lat="41.84889346374891" lon="15.978650162990785"><ele>644.0</ele><time>2026-03-22T11:43:14.999Z</time></trkpt><trkpt lat="41.848999090842185" lon="15.978753964584305"><ele>644.0</ele><time>2026-03-22T11:43:15.998Z</time></trkpt><trkpt lat="41.8491072302713" lon="15.978867246194522"><ele>644.0</ele><time>2026-03-22T11:43:16.998Z</time></trkpt><trkpt lat="41.849200728445034" lon="15.978993809533373"><ele>644.0</ele><time>2026-03-22T11:43:17.998Z</time></trkpt><trkpt lat="41.84930573699332" lon="15.979136684828743"><ele>641.25</ele><time>2026-03-22T11:43:18.999Z</time></trkpt><trkpt lat="41.84940444689382" lon="15.979294564832466"><ele>638.5</ele><time>2026-03-22T11:43:19.999Z</time></trkpt><trkpt lat="41.849501044572364" lon="15.97942155383091"><ele>635.75</ele><time>2026-03-22T11:43:20.999Z</time></trkpt><trkpt lat="41.84961758901534" lon="15.979523055770446"><ele>633.0</ele><time>2026-03-22T11:43:21.999Z</time></trkpt><trkpt lat="41.84973307637657" lon="15.979608633086261"><ele>633.0</ele><time>2026-03-22T11:43:22.999Z</time></trkpt><trkpt lat="41.84984754194654" lon="15.97969442102716"><ele>633.0</ele><time>2026-03-22T11:43:23.998Z</time></trkpt><trkpt lat="41.849955651147425" lon="15.979764467724669"><ele>633.0</ele><time>2026-03-22T11:43:24.998Z</time></trkpt><trkpt lat="41.850072366193494" lon="15.979827378126643"><ele>633.0</ele><time>2026-03-22T11:43:25.998Z</time></trkpt><trkpt lat="41.85021658770699" lon="15.979863191919963"><ele>628.3333333333334</ele><time>2026-03-22T11:43:26.998Z</time></trkpt><trkpt lat="41.850374301411854" lon="15.979865666389689"><ele>623.6666666666667</ele><time>2026-03-22T11:43:27.998Z</time></trkpt><trkpt lat="41.850569804350435" lon="15.97986216943676"><ele>619.0</ele><time>2026-03-22T11:43:28.998Z</time></trkpt><trkpt lat="41.85073622151116" lon="15.979861566943047"><ele>619.0</ele><time>2026-03-22T11:43:29.998Z</time></trkpt><trkpt lat="41.850892896146966" lon="15.97987172962203"><ele>619.0</ele><time>2026-03-22T11:43:30.998Z</time></trkpt><trkpt lat="41.8510548798459" lon="15.979864250713682"><ele>619.0</ele><time>2026-03-22T11:43:31.998Z</time></trkpt><trkpt lat="41.85120697765475" lon="15.979837850527485"><ele>617.0</ele><time>2026-03-22T11:43:32.998Z</time></trkpt><trkpt lat="41.85135032676666" lon="15.97981513193945"><ele>615.0</ele><time>2026-03-22T11:43:33.998Z</time></trkpt><trkpt lat="41.85146231551552" lon="15.979790135662538"><ele>613.0</ele><time>2026-03-22T11:43:34.998Z</time></trkpt><trkpt lat="41.851536937652774" lon="15.979745378323926"><ele>611.0</ele><time>2026-03-22T11:43:35.998Z</time></trkpt><trkpt lat="41.85159847804512" lon="15.979692236727216"><ele>609.0</ele><time>2026-03-22T11:43:36.998Z</time></trkpt><trkpt lat="41.85168141413908" lon="15.979594277139643"><ele>609.0</ele><time>2026-03-22T11:43:37.998Z</time></trkpt><trkpt lat="41.85178153658921" lon="15.979461046254594"><ele>609.0</ele><time>2026-03-22T11:43:38.998Z</time></trkpt><trkpt lat="41.85188518776786" lon="15.979374041456046"><ele>609.0</ele><time>2026-03-22T11:43:39.998Z</time></trkpt><trkpt lat="41.85200179254386" lon="15.979308409480462"><ele>609.0</ele><time>2026-03-22T11:43:40.998Z</time></trkpt><trkpt lat="41.852120064678736" lon="15.979241251524385"><ele>606.8</ele><time>2026-03-22T11:43:41.998Z</time></trkpt><trkpt lat="41.85222169132606" lon="15.979176443445322"><ele>604.5999999999999</ele><time>2026-03-22T11:43:42.998Z</time></trkpt><trkpt lat="41.8523154994663" lon="15.979116110710368"><ele>602.4</ele><time>2026-03-22T11:43:43.998Z</time></trkpt><trkpt lat="41.85240986372387" lon="15.979080252878559"><ele>600.1999999999999</ele><time>2026-03-22T11:43:44.998Z</time></trkpt><trkpt lat="41.852504609843905" lon="15.979044158166786"><ele>598.0</ele><time>2026-03-22T11:43:45.998Z</time></trkpt><trkpt lat="41.85259090431646" lon="15.979007458875627"><ele>594.3333333333334</ele><time>2026-03-22T11:43:46.998Z</time></trkpt><trkpt lat="41.85266815767762" lon="15.978966973269554"><ele>590.6666666666667</ele><time>2026-03-22T11:43:47.998Z</time></trkpt><trkpt lat="41.852737463400445" lon="15.978928254352773"><ele>587.0</ele><time>2026-03-22T11:43:48.998Z</time></trkpt><trkpt lat="41.8528212505375" lon="15.978907932345107"><ele>583.3333333333334</ele><time>2026-03-22T11:43:49.998Z</time></trkpt><trkpt lat="41.852905646523475" lon="15.978893441210396"><ele>579.6666666666666</ele><time>2026-03-22T11:43:50.998Z</time></trkpt><trkpt lat="41.852984413076825" lon="15.978876953140924"><ele>576.0</ele><time>2026-03-22T11:43:51.998Z</time></trkpt><trkpt lat="41.853054934304225" lon="15.978863813287644"><ele>576.0</ele><time>2026-03-22T11:43:52.998Z</time></trkpt><trkpt lat="41.85316669432204" lon="15.978806223121152"><ele>576.0</ele><time>2026-03-22T11:43:54.998Z</time></trkpt><trkpt lat="41.853226634883086" lon="15.978757094696398"><ele>576.0</ele><time>2026-03-22T11:43:55.998Z</time></trkpt><trkpt lat="41.853295874874746" lon="15.978767089780554"><ele>576.0</ele><time>2026-03-22T11:43:56.998Z</time></trkpt><trkpt lat="41.8533725626491" lon="15.978786526724043"><ele>576.0</ele><time>2026-03-22T11:43:57.998Z</time></trkpt><trkpt lat="41.853442749015876" lon="15.978802361039953"><ele>576.0</ele><time>2026-03-22T11:43:58.998Z</time></trkpt><trkpt lat="41.853516381465234" lon="15.978823935611294"><ele>571.5</ele><time>2026-03-22T11:43:59.998Z</time></trkpt><trkpt lat="41.85359159157322" lon="15.978851029351691"><ele>567.0</ele><time>2026-03-22T11:44:00.998Z</time></trkpt><trkpt lat="41.8536675008134" lon="15.978865472393737"><ele>562.5</ele><time>2026-03-22T11:44:01.998Z</time></trkpt><trkpt lat="41.85374276940308" lon="15.978881421018059"><ele>558.0</ele><time>2026-03-22T11:44:02.998Z</time></trkpt><trkpt lat="41.85382237558264" lon="15.97890403166235"><ele>553.5</ele><time>2026-03-22T11:44:03.998Z</time></trkpt><trkpt lat="41.85392924568007" lon="15.978917865211754"><ele>549.0</ele><time>2026-03-22T11:44:04.998Z</time></trkpt><trkpt lat="41.854038603701795" lon="15.978925806670805"><ele>549.0</ele><time>2026-03-22T11:44:05.998Z</time></trkpt><trkpt lat="41.854166437060194" lon="15.978932778984479"><ele>549.0</ele><time>2026-03-22T11:44:06.998Z</time></trkpt><trkpt lat="41.85430677359445" lon="15.978944024449973"><ele>549.0</ele><time>2026-03-22T11:44:07.998Z</time></trkpt><trkpt lat="41.85445111208151" lon="15.978959248612489"><ele>549.0</ele><time>2026-03-22T11:44:08.998Z</time></trkpt><trkpt lat="41.85457753695236" lon="15.978961484725085"><ele>543.75</ele><time>2026-03-22T11:44:09.998Z</time></trkpt><trkpt lat="41.85470183231039" lon="15.978972343803632"><ele>538.5</ele><time>2026-03-22T11:44:10.998Z</time></trkpt><trkpt lat="41.85481689775427" lon="15.978988562497515"><ele>533.25</ele><time>2026-03-22T11:44:11.998Z</time></trkpt><trkpt lat="41.85493229293771" lon="15.978985762018077"><ele>528.0</ele><time>2026-03-22T11:44:12.998Z</time></trkpt><trkpt lat="41.855050313895475" lon="15.978972170214087"><ele>525.0</ele><time>2026-03-22T11:44:13.998Z</time></trkpt><trkpt lat="41.855157091524006" lon="15.97893932293038"><ele>522.0</ele><time>2026-03-22T11:44:14.998Z</time></trkpt><trkpt lat="41.85526521742544" lon="15.978914554587838"><ele>519.0</ele><time>2026-03-22T11:44:15.998Z</time></trkpt><trkpt lat="41.855374619525286" lon="15.978902778403246"><ele>516.0</ele><time>2026-03-22T11:44:16.998Z</time></trkpt><trkpt lat="41.855473456991675" lon="15.97889188444848"><ele>513.0</ele><time>2026-03-22T11:44:17.998Z</time></trkpt><trkpt lat="41.85555293530567" lon="15.978880437854258"><ele>513.0</ele><time>2026-03-22T11:44:18.998Z</time></trkpt><trkpt lat="41.85563432860695" lon="15.978880488530537"><ele>513.0</ele><time>2026-03-22T11:44:19.998Z</time></trkpt><trkpt lat="41.855717337001934" lon="15.978870058332392"><ele>513.0</ele><time>2026-03-22T11:44:20.998Z</time></trkpt><trkpt lat="41.855796502752426" lon="15.978863392829192"><ele>513.0</ele><time>2026-03-22T11:44:21.998Z</time></trkpt><trkpt lat="41.85587080319593" lon="15.978865195523811"><ele>513.0</ele><time>2026-03-22T11:44:22.998Z</time></trkpt><trkpt lat="41.85594607752837" lon="15.978853024417527"><ele>513.0</ele><time>2026-03-22T11:44:23.998Z</time></trkpt><trkpt lat="41.8560154745915" lon="15.978864361772953"><ele>510.1666666666667</ele><time>2026-03-22T11:44:24.998Z</time></trkpt><trkpt lat="41.85611749320231" lon="15.978919572109161"><ele>507.33333333333337</ele><time>2026-03-22T11:44:26.998Z</time></trkpt><trkpt lat="41.85618075339162" lon="15.979049044376225"><ele>504.5</ele><time>2026-03-22T11:44:28.997Z</time></trkpt><trkpt lat="41.856181854280585" lon="15.97914025936538"><ele>501.6666666666667</ele><time>2026-03-22T11:44:29.997Z</time></trkpt><trkpt lat="41.856172944597034" lon="15.979230356146667"><ele>498.83333333333337</ele><time>2026-03-22T11:44:30.997Z</time></trkpt><trkpt lat="41.85614406025719" lon="15.979342301149549"><ele>496.0</ele><time>2026-03-22T11:44:31.997Z</time></trkpt><trkpt lat="41.856077213295634" lon="15.979478422574973"><ele>496.6</ele><time>2026-03-22T11:44:32.997Z</time></trkpt><trkpt lat="41.8559847778146" lon="15.97960296321763"><ele>497.20000000000005</ele><time>2026-03-22T11:44:33.997Z</time></trkpt><trkpt lat="41.855897528278184" lon="15.979706234322334"><ele>497.79999999999995</ele><time>2026-03-22T11:44:34.997Z</time></trkpt><trkpt lat="41.85581706517223" lon="15.979792913722086"><ele>498.4</ele><time>2026-03-22T11:44:35.997Z</time></trkpt><trkpt lat="41.85575897752321" lon="15.979872896868452"><ele>499.0</ele><time>2026-03-22T11:44:36.997Z</time></trkpt><trkpt lat="41.85571566507776" lon="15.979967492847925"><ele>499.00000000000006</ele><time>2026-03-22T11:44:37.997Z</time></trkpt><trkpt lat="41.85569552164989" lon="15.980076569744954"><ele>499.0</ele><time>2026-03-22T11:44:38.997Z</time></trkpt><trkpt lat="41.85566580156285" lon="15.980199566724487"><ele>499.0</ele><time>2026-03-22T11:44:39.997Z</time></trkpt><trkpt lat="41.855634726721036" lon="15.980303387930133"><ele>499.0</ele><time>2026-03-22T11:44:40.997Z</time></trkpt><trkpt lat="41.85561016983596" lon="15.980383632077633"><ele>499.00000000000006</ele><time>2026-03-22T11:44:41.997Z</time></trkpt><trkpt lat="41.855562352896975" lon="15.980462326762567"><ele>499.0</ele><time>2026-03-22T11:44:42.997Z</time></trkpt><trkpt lat="41.855543015076954" lon="15.980575916108833"><ele>499.0</ele><time>2026-03-22T11:44:44.997Z</time></trkpt><trkpt lat="41.85563697503949" lon="15.980656199218782"><ele>499.0</ele><time>2026-03-22T11:44:46.997Z</time></trkpt><trkpt lat="41.85571744471281" lon="15.980649320140062"><ele>499.0</ele><time>2026-03-22T11:44:47.997Z</time></trkpt><trkpt lat="41.855810030067516" lon="15.980619233195155"><ele>499.0</ele><time>2026-03-22T11:44:48.997Z</time></trkpt><trkpt lat="41.855915391409695" lon="15.98056825154319"><ele>499.0</ele><time>2026-03-22T11:44:49.997Z</time></trkpt><trkpt lat="41.85598455603288" lon="15.980482179281921"><ele>501.2</ele><time>2026-03-22T11:44:50.997Z</time></trkpt><trkpt lat="41.85605669185081" lon="15.980418654885103"><ele>503.4</ele><time>2026-03-22T11:44:51.997Z</time></trkpt><trkpt lat="41.856136873774716" lon="15.98036032151118"><ele>505.6</ele><time>2026-03-22T11:44:52.997Z</time></trkpt><trkpt lat="41.85621224784544" lon="15.980307395085998"><ele>507.8</ele><time>2026-03-22T11:44:53.997Z</time></trkpt><trkpt lat="41.85628543048025" lon="15.98024180489105"><ele>510.0</ele><time>2026-03-22T11:44:54.997Z</time></trkpt><trkpt lat="41.856372444162275" lon="15.980166493842075"><ele>510.0</ele><time>2026-03-22T11:44:55.997Z</time></trkpt><trkpt lat="41.8564901804776" lon="15.980127101155551"><ele>510.0</ele><time>2026-03-22T11:44:56.997Z</time></trkpt><trkpt lat="41.85662103295925" lon="15.980115469473539"><ele>510.0</ele><time>2026-03-22T11:44:57.997Z</time></trkpt><trkpt lat="41.85673763977822" lon="15.980099441781528"><ele>510.0</ele><time>2026-03-22T11:44:58.997Z</time></trkpt><trkpt lat="41.85680880192666" lon="15.98008498490109"><ele>510.0</ele><time>2026-03-22T11:44:59.997Z</time></trkpt><trkpt lat="41.85688284226835" lon="15.980116789921672"><ele>510.2</ele><time>2026-03-22T11:45:00.997Z</time></trkpt><trkpt lat="41.85696655282558" lon="15.980182024866759"><ele>510.4</ele><time>2026-03-22T11:45:01.997Z</time></trkpt><trkpt lat="41.857031531518565" lon="15.980226234539087"><ele>510.6</ele><time>2026-03-22T11:45:02.997Z</time></trkpt><trkpt lat="41.85713569551249" lon="15.980297807474466"><ele>510.8</ele><time>2026-03-22T11:45:03.997Z</time></trkpt><trkpt lat="41.8572640835122" lon="15.98034448111597"><ele>511.0</ele><time>2026-03-22T11:45:04.997Z</time></trkpt><trkpt lat="41.85741408045611" lon="15.980391175850956"><ele>511.0</ele><time>2026-03-22T11:45:05.997Z</time></trkpt><trkpt lat="41.85755855750476" lon="15.980466140501154"><ele>511.0</ele><time>2026-03-22T11:45:06.997Z</time></trkpt><trkpt lat="41.8576758526204" lon="15.98053821904085"><ele>511.0</ele><time>2026-03-22T11:45:07.997Z</time></trkpt><trkpt lat="41.85778692103163" lon="15.980638432243959"><ele>511.0</ele><time>2026-03-22T11:45:08.997Z</time></trkpt><trkpt lat="41.857896803812395" lon="15.980731824936804"><ele>512.0</ele><time>2026-03-22T11:45:09.997Z</time></trkpt><trkpt lat="41.85800122129354" lon="15.980822267125363"><ele>513.0</ele><time>2026-03-22T11:45:10.997Z</time></trkpt><trkpt lat="41.85811928305345" lon="15.980929147905972"><ele>514.0</ele><time>2026-03-22T11:45:11.997Z</time></trkpt><trkpt lat="41.85823792310127" lon="15.981053364437336"><ele>515.0</ele><time>2026-03-22T11:45:12.997Z</time></trkpt><trkpt lat="41.85835154688578" lon="15.981171516651363"><ele>515.0</ele><time>2026-03-22T11:45:13.997Z</time></trkpt><trkpt lat="41.85844231820462" lon="15.981268002189946"><ele>515.0</ele><time>2026-03-22T11:45:14.997Z</time></trkpt><trkpt lat="41.85853365155425" lon="15.981366278962422"><ele>515.0</ele><time>2026-03-22T11:45:15.997Z</time></trkpt><trkpt lat="41.85860291878856" lon="15.98142845310833"><ele>515.0</ele><time>2026-03-22T11:45:16.997Z</time></trkpt><trkpt lat="41.858676218583895" lon="15.981489646012383"><ele>515.0</ele><time>2026-03-22T11:45:17.997Z</time></trkpt><trkpt lat="41.858772634531206" lon="15.981566441906"><ele>517.0</ele><time>2026-03-22T11:45:18.997Z</time></trkpt><trkpt lat="41.858906960058285" lon="15.98166920490257"><ele>519.0</ele><time>2026-03-22T11:45:19.997Z</time></trkpt><trkpt lat="41.85909391698608" lon="15.981817842664434"><ele>521.0</ele><time>2026-03-22T11:45:20.998Z</time></trkpt><trkpt lat="41.85928790478194" lon="15.981963618938801"><ele>516.25</ele><time>2026-03-22T11:45:21.998Z</time></trkpt><trkpt lat="41.85943649566769" lon="15.982082852599543"><ele>511.5</ele><time>2026-03-22T11:45:22.998Z</time></trkpt><trkpt lat="41.85954385772615" lon="15.982175668925303"><ele>506.75</ele><time>2026-03-22T11:45:23.999Z</time></trkpt><trkpt lat="41.85961560851847" lon="15.982254186649676"><ele>502.0</ele><time>2026-03-22T11:45:24.999Z</time></trkpt><trkpt lat="41.85966942110868" lon="15.982327477755224"><ele>502.0</ele><time>2026-03-22T11:45:25.999Z</time></trkpt><trkpt lat="41.85973717340239" lon="15.982406338238318"><ele>502.00000000000006</ele><time>2026-03-22T11:45:27.998Z</time></trkpt><trkpt lat="41.85980729558231" lon="15.98253413867248"><ele>502.00000000000006</ele><time>2026-03-22T11:45:29.998Z</time></trkpt><trkpt lat="41.85985702747331" lon="15.982645529605456"><ele>502.0</ele><time>2026-03-22T11:45:30.999Z</time></trkpt><trkpt lat="41.859899497753055" lon="15.98273171811866"><ele>502.0</ele><time>2026-03-22T11:45:31.999Z</time></trkpt><trkpt lat="41.86002212435704" lon="15.982847804064695"><ele>503.20000000000005</ele><time>2026-03-22T11:45:33.998Z</time></trkpt><trkpt lat="41.860142646870585" lon="15.982915390951783"><ele>504.40000000000003</ele><time>2026-03-22T11:45:34.998Z</time></trkpt><trkpt lat="41.8602298433096" lon="15.982971050025784"><ele>505.59999999999997</ele><time>2026-03-22T11:45:35.998Z</time></trkpt><trkpt lat="41.86030799382365" lon="15.983021309227349"><ele>506.79999999999995</ele><time>2026-03-22T11:45:36.998Z</time></trkpt><trkpt lat="41.8603786360938" lon="15.983054143811865"><ele>508.0</ele><time>2026-03-22T11:45:37.998Z</time></trkpt><trkpt lat="41.860448388203224" lon="15.983084476206544"><ele>508.00000000000006</ele><time>2026-03-22T11:45:38.998Z</time></trkpt><trkpt lat="41.86053350791734" lon="15.983129641392754"><ele>508.0</ele><time>2026-03-22T11:45:40.998Z</time></trkpt><trkpt lat="41.86060486388704" lon="15.983182376932024"><ele>508.0</ele><time>2026-03-22T11:45:44.998Z</time></trkpt><trkpt lat="41.860671268503054" lon="15.983258436287423"><ele>508.0</ele><time>2026-03-22T11:45:45.998Z</time></trkpt><trkpt lat="41.86075213336856" lon="15.9832800409664"><ele>508.00000000000006</ele><time>2026-03-22T11:45:46.998Z</time></trkpt><trkpt lat="41.860857553919665" lon="15.983264205651079"><ele>508.0</ele><time>2026-03-22T11:45:47.998Z</time></trkpt><trkpt lat="41.860922923652026" lon="15.983250919581737"><ele>511.83333333333337</ele><time>2026-03-22T11:45:48.998Z</time></trkpt><trkpt lat="41.86102885430169" lon="15.983214001941738"><ele>515.6666666666667</ele><time>2026-03-22T11:45:50.998Z</time></trkpt><trkpt lat="41.86109480979933" lon="15.983224032364772"><ele>519.5</ele><time>2026-03-22T11:45:51.998Z</time></trkpt><trkpt lat="41.86117081525276" lon="15.98322148600528"><ele>523.3333333333334</ele><time>2026-03-22T11:45:52.998Z</time></trkpt><trkpt lat="41.861249235403" lon="15.98322170609286"><ele>527.1666666666666</ele><time>2026-03-22T11:45:53.998Z</time></trkpt><trkpt lat="41.86133172685698" lon="15.983238889965614"><ele>531.0</ele><time>2026-03-22T11:45:54.998Z</time></trkpt><trkpt lat="41.86142437257622" lon="15.983244776659026"><ele>531.0</ele><time>2026-03-22T11:45:55.998Z</time></trkpt><trkpt lat="41.86151988313625" lon="15.983239629062382"><ele>531.0</ele><time>2026-03-22T11:45:56.998Z</time></trkpt><trkpt lat="41.861595814991546" lon="15.983246455671281"><ele>531.0</ele><time>2026-03-22T11:45:57.998Z</time></trkpt><trkpt lat="41.86168695059553" lon="15.9832603157678"><ele>531.0</ele><time>2026-03-22T11:45:58.998Z</time></trkpt><trkpt lat="41.86176231557984" lon="15.983255490169324"><ele>531.0</ele><time>2026-03-22T11:45:59.998Z</time></trkpt><trkpt lat="41.86182854437204" lon="15.98324974991936"><ele>531.0</ele><time>2026-03-22T11:46:00.998Z</time></trkpt><trkpt lat="41.86194682105538" lon="15.983265577826707"><ele>535.1666666666666</ele><time>2026-03-22T11:46:02.998Z</time></trkpt><trkpt lat="41.86204054147234" lon="15.983241406010228"><ele>539.3333333333334</ele><time>2026-03-22T11:46:03.998Z</time></trkpt><trkpt lat="41.86210628485691" lon="15.983221475235451"><ele>543.5</ele><time>2026-03-22T11:46:04.998Z</time></trkpt><trkpt lat="41.862192826452635" lon="15.983190837018329"><ele>547.6666666666667</ele><time>2026-03-22T11:46:06.998Z</time></trkpt><trkpt lat="41.862302313530414" lon="15.983192690219994"><ele>551.8333333333334</ele><time>2026-03-22T11:46:08.998Z</time></trkpt><trkpt lat="41.862373071198455" lon="15.983213851327005"><ele>556.0</ele><time>2026-03-22T11:46:09.998Z</time></trkpt><trkpt lat="41.86245340623278" lon="15.98322855280395"><ele>556.0</ele><time>2026-03-22T11:46:10.998Z</time></trkpt><trkpt lat="41.86254217361644" lon="15.983240303503399"><ele>556.0</ele><time>2026-03-22T11:46:11.998Z</time></trkpt><trkpt lat="41.86262248686827" lon="15.983242127471202"><ele>556.0</ele><time>2026-03-22T11:46:12.998Z</time></trkpt><trkpt lat="41.86269809528951" lon="15.983245761527282"><ele>556.0</ele><time>2026-03-22T11:46:13.998Z</time></trkpt><trkpt lat="41.86277505402972" lon="15.9832415515927"><ele>556.0</ele><time>2026-03-22T11:46:14.998Z</time></trkpt><trkpt lat="41.862847137160045" lon="15.983214888617047"><ele>556.0</ele><time>2026-03-22T11:46:15.998Z</time></trkpt><trkpt lat="41.86293559946171" lon="15.98319117841649"><ele>555.6</ele><time>2026-03-22T11:46:17.998Z</time></trkpt><trkpt lat="41.86298663280559" lon="15.983242479565032"><ele>555.2</ele><time>2026-03-22T11:46:20.998Z</time></trkpt><trkpt lat="41.863052549652295" lon="15.98327239280901"><ele>554.8</ele><time>2026-03-22T11:46:40.997Z</time></trkpt><trkpt lat="41.863187743225716" lon="15.983255804224033"><ele>554.4</ele><time>2026-03-22T11:56:15.999Z</time></trkpt><trkpt lat="41.86328627017367" lon="15.983106439470742"><ele>554.0</ele><time>2026-03-22T11:56:17.999Z</time></trkpt><trkpt lat="41.8633460096662" lon="15.983007903985625"><ele>554.0</ele><time>2026-03-22T11:56:18.999Z</time></trkpt><trkpt lat="41.863412805997235" lon="15.982909371427997"><ele>554.0</ele><time>2026-03-22T11:56:19.999Z</time></trkpt><trkpt lat="41.86350957862447" lon="15.9827944986938"><ele>554.0</ele><time>2026-03-22T11:56:20.999Z</time></trkpt><trkpt lat="41.86360965738888" lon="15.982696148280173"><ele>554.0</ele><time>2026-03-22T11:56:21.999Z</time></trkpt><trkpt lat="41.86372276834993" lon="15.982610319671585"><ele>552.75</ele><time>2026-03-22T11:56:22.999Z</time></trkpt><trkpt lat="41.86383967435392" lon="15.982532754340115"><ele>551.5</ele><time>2026-03-22T11:56:23.999Z</time></trkpt><trkpt lat="41.86397397576143" lon="15.98244605198839"><ele>550.25</ele><time>2026-03-22T11:56:24.999Z</time></trkpt><trkpt lat="41.86412533714107" lon="15.982370433346436"><ele>549.0</ele><time>2026-03-22T11:56:25.999Z</time></trkpt><trkpt lat="41.86427264293268" lon="15.982304947021532"><ele>544.5</ele><time>2026-03-22T11:56:26.999Z</time></trkpt><trkpt lat="41.864413036783134" lon="15.982232956054728"><ele>540.0</ele><time>2026-03-22T11:56:27.999Z</time></trkpt><trkpt lat="41.86454506952197" lon="15.98216175752184"><ele>535.5</ele><time>2026-03-22T11:56:28.999Z</time></trkpt><trkpt lat="41.86467058671476" lon="15.982087588372204"><ele>531.0</ele><time>2026-03-22T11:56:29.999Z</time></trkpt><trkpt lat="41.86480149511491" lon="15.9820158345686"><ele>531.0</ele><time>2026-03-22T11:56:30.999Z</time></trkpt><trkpt lat="41.86494991016693" lon="15.981947601988985"><ele>531.0</ele><time>2026-03-22T11:56:31.999Z</time></trkpt><trkpt lat="41.86510474491403" lon="15.981892132776494"><ele>531.0</ele><time>2026-03-22T11:56:32.999Z</time></trkpt><trkpt lat="41.865268937212804" lon="15.981857114956693"><ele>529.6666666666666</ele><time>2026-03-22T11:56:33.999Z</time></trkpt><trkpt lat="41.86544253484196" lon="15.981841520009445"><ele>528.3333333333333</ele><time>2026-03-22T11:56:34.999Z</time></trkpt><trkpt lat="41.86561522731351" lon="15.981848055253785"><ele>527.0</ele><time>2026-03-22T11:56:35.999Z</time></trkpt><trkpt lat="41.865767561402635" lon="15.981877264477363"><ele>527.0</ele><time>2026-03-22T11:56:36.999Z</time></trkpt><trkpt lat="41.865906130644895" lon="15.981915725066347"><ele>527.0</ele><time>2026-03-22T11:56:37.999Z</time></trkpt><trkpt lat="41.866032412523495" lon="15.981968164328453"><ele>527.0</ele><time>2026-03-22T11:56:38.999Z</time></trkpt><trkpt lat="41.86615513700185" lon="15.981993507074538"><ele>527.0</ele><time>2026-03-22T11:56:39.999Z</time></trkpt><trkpt lat="41.86628212881139" lon="15.982008085407637"><ele>526.0</ele><time>2026-03-22T11:56:40.999Z</time></trkpt><trkpt lat="41.866380053516735" lon="15.98199475834618"><ele>525.0</ele><time>2026-03-22T11:56:41.999Z</time></trkpt><trkpt lat="41.866457392394054" lon="15.981929080880176"><ele>524.0</ele><time>2026-03-22T11:56:42.999Z</time></trkpt><trkpt lat="41.8665103178744" lon="15.981821814793841"><ele>523.0</ele><time>2026-03-22T11:56:43.999Z</time></trkpt><trkpt lat="41.86655298556524" lon="15.981667691644748"><ele>522.0</ele><time>2026-03-22T11:56:44.999Z</time></trkpt><trkpt lat="41.86659199241674" lon="15.981498960496848"><ele>525.6666666666666</ele><time>2026-03-22T11:56:45.999Z</time></trkpt><trkpt lat="41.8666616616396" lon="15.981300018818384"><ele>529.3333333333333</ele><time>2026-03-22T11:56:46.999Z</time></trkpt><trkpt lat="41.86676613432017" lon="15.981112866177751"><ele>533.0</ele><time>2026-03-22T11:56:47.999Z</time></trkpt><trkpt lat="41.86691754560713" lon="15.980947860752728"><ele>529.6666666666666</ele><time>2026-03-22T11:56:48.999Z</time></trkpt><trkpt lat="41.86708427574245" lon="15.980819934220563"><ele>526.3333333333334</ele><time>2026-03-22T11:56:49.999Z</time></trkpt><trkpt lat="41.867248685288835" lon="15.980719646040146"><ele>523.0</ele><time>2026-03-22T11:56:50.999Z</time></trkpt><trkpt lat="41.86742811784113" lon="15.980648022427074"><ele>520.6666666666667</ele><time>2026-03-22T11:56:51.999Z</time></trkpt><trkpt lat="41.86762980832824" lon="15.980614663235936"><ele>518.3333333333334</ele><time>2026-03-22T11:56:52.999Z</time></trkpt><trkpt lat="41.867833459082654" lon="15.980607963965719"><ele>516.0</ele><time>2026-03-22T11:56:53.999Z</time></trkpt><trkpt lat="41.86802388796282" lon="15.980606897479676"><ele>516.0</ele><time>2026-03-22T11:56:54.999Z</time></trkpt><trkpt lat="41.86821196677026" lon="15.980612168769827"><ele>516.0</ele><time>2026-03-22T11:56:55.999Z</time></trkpt><trkpt lat="41.86839109005041" lon="15.980610414464913"><ele>516.0</ele><time>2026-03-22T11:56:56.999Z</time></trkpt><trkpt lat="41.868564345359346" lon="15.980577063306479"><ele>512.3333333333334</ele><time>2026-03-22T11:56:57.998Z</time></trkpt><trkpt lat="41.86874730118314" lon="15.980515827583746"><ele>508.6666666666667</ele><time>2026-03-22T11:56:58.998Z</time></trkpt><trkpt lat="41.868940103616836" lon="15.980406333233493"><ele>505.0</ele><time>2026-03-22T11:56:59.998Z</time></trkpt><trkpt lat="41.86912823125889" lon="15.980293290079215"><ele>506.33333333333337</ele><time>2026-03-22T11:57:00.998Z</time></trkpt><trkpt lat="41.86931375898129" lon="15.980188934198157"><ele>507.66666666666663</ele><time>2026-03-22T11:57:01.998Z</time></trkpt><trkpt lat="41.869482433014745" lon="15.980099728698592"><ele>509.0</ele><time>2026-03-22T11:57:02.998Z</time></trkpt><trkpt lat="41.8696427051762" lon="15.980011879350789"><ele>510.3333333333333</ele><time>2026-03-22T11:57:03.998Z</time></trkpt><trkpt lat="41.86979564465014" lon="15.979927007467014"><ele>511.66666666666663</ele><time>2026-03-22T11:57:04.998Z</time></trkpt><trkpt lat="41.869949647071486" lon="15.979826378316334"><ele>513.0</ele><time>2026-03-22T11:57:05.998Z</time></trkpt><trkpt lat="41.87008843596417" lon="15.979701289939806"><ele>511.33333333333337</ele><time>2026-03-22T11:57:06.998Z</time></trkpt><trkpt lat="41.87022252608823" lon="15.9795361530734"><ele>509.6666666666667</ele><time>2026-03-22T11:57:07.998Z</time></trkpt><trkpt lat="41.87035274577389" lon="15.979340430802734"><ele>508.0</ele><time>2026-03-22T11:57:08.998Z</time></trkpt><trkpt lat="41.87045632914691" lon="15.979115454335103"><ele>507.6666666666667</ele><time>2026-03-22T11:57:09.998Z</time></trkpt><trkpt lat="41.87054502387948" lon="15.97889052913611"><ele>507.33333333333337</ele><time>2026-03-22T11:57:10.998Z</time></trkpt><trkpt lat="41.87062185707871" lon="15.978658056189241"><ele>507.0</ele><time>2026-03-22T11:57:11.998Z</time></trkpt><trkpt lat="41.87067234455907" lon="15.978431611863742"><ele>504.33333333333337</ele><time>2026-03-22T11:57:12.998Z</time></trkpt><trkpt lat="41.87074408324231" lon="15.9782044651878"><ele>501.6666666666667</ele><time>2026-03-22T11:57:13.998Z</time></trkpt><trkpt lat="41.87081133751295" lon="15.977972530978748"><ele>499.0</ele><time>2026-03-22T11:57:14.998Z</time></trkpt><trkpt lat="41.87087296658259" lon="15.977759726267314"><ele>492.6666666666667</ele><time>2026-03-22T11:57:15.998Z</time></trkpt><trkpt lat="41.8709484272089" lon="15.977529275851202"><ele>486.33333333333337</ele><time>2026-03-22T11:57:16.998Z</time></trkpt><trkpt lat="41.871033009751834" lon="15.97731197159652"><ele>480.0</ele><time>2026-03-22T11:57:17.998Z</time></trkpt><trkpt lat="41.87112041144948" lon="15.977085156579303"><ele>478.66666666666663</ele><time>2026-03-22T11:57:18.998Z</time></trkpt><trkpt lat="41.87123012600629" lon="15.976860216144253"><ele>477.3333333333333</ele><time>2026-03-22T11:57:19.998Z</time></trkpt><trkpt lat="41.871358890734854" lon="15.976648357619327"><ele>476.0</ele><time>2026-03-22T11:57:20.998Z</time></trkpt><trkpt lat="41.87150053006547" lon="15.976423317820183"><ele>475.0</ele><time>2026-03-22T11:57:21.998Z</time></trkpt><trkpt lat="41.871640826832824" lon="15.976219799574634"><ele>474.0</ele><time>2026-03-22T11:57:22.998Z</time></trkpt><trkpt lat="41.871789347194735" lon="15.97601857185337"><ele>473.0</ele><time>2026-03-22T11:57:23.998Z</time></trkpt><trkpt lat="41.871944009230404" lon="15.975815336061357"><ele>476.3333333333333</ele><time>2026-03-22T11:57:24.998Z</time></trkpt><trkpt lat="41.87209567748361" lon="15.975616041393423"><ele>479.66666666666663</ele><time>2026-03-22T11:57:25.998Z</time></trkpt><trkpt lat="41.87224374493212" lon="15.975422069571565"><ele>483.0</ele><time>2026-03-22T11:57:26.998Z</time></trkpt><trkpt lat="41.872384654766684" lon="15.975233624744213"><ele>483.0</ele><time>2026-03-22T11:57:27.998Z</time></trkpt><trkpt lat="41.87254518244936" lon="15.975034098869774"><ele>483.0</ele><time>2026-03-22T11:57:28.998Z</time></trkpt><trkpt lat="41.872696668588176" lon="15.974844183059371"><ele>483.0</ele><time>2026-03-22T11:57:29.998Z</time></trkpt><trkpt lat="41.87283188648395" lon="15.974655335261756"><ele>483.33333333333337</ele><time>2026-03-22T11:57:30.998Z</time></trkpt><trkpt lat="41.87296832800272" lon="15.97447627484151"><ele>483.6666666666667</ele><time>2026-03-22T11:57:31.998Z</time></trkpt><trkpt lat="41.873102783988024" lon="15.974306199066556"><ele>484.0</ele><time>2026-03-22T11:57:32.998Z</time></trkpt><trkpt lat="41.87323331702423" lon="15.974135455998917"><ele>484.0</ele><time>2026-03-22T11:57:33.998Z</time></trkpt><trkpt lat="41.873363085510405" lon="15.973954060210525"><ele>484.0</ele><time>2026-03-22T11:57:34.998Z</time></trkpt><trkpt lat="41.87347420157085" lon="15.973765687502288"><ele>484.0</ele><time>2026-03-22T11:57:35.998Z</time></trkpt><trkpt lat="41.87357627144398" lon="15.973537106745251"><ele>487.0</ele><time>2026-03-22T11:57:36.998Z</time></trkpt><trkpt lat="41.873652942855905" lon="15.97331084828348"><ele>490.0</ele><time>2026-03-22T11:57:37.998Z</time></trkpt><trkpt lat="41.87369631274547" lon="15.97306575948797"><ele>493.0</ele><time>2026-03-22T11:57:38.998Z</time></trkpt><trkpt lat="41.87375567279445" lon="15.972836762686967"><ele>493.0</ele><time>2026-03-22T11:57:39.998Z</time></trkpt><trkpt lat="41.873818201887275" lon="15.972638554090732"><ele>493.0</ele><time>2026-03-22T11:57:40.998Z</time></trkpt><trkpt lat="41.87389492368879" lon="15.972469084069822"><ele>493.0</ele><time>2026-03-22T11:57:41.998Z</time></trkpt><trkpt lat="41.874010951910726" lon="15.97232763019178"><ele>494.33333333333337</ele><time>2026-03-22T11:57:42.998Z</time></trkpt><trkpt lat="41.87415700953782" lon="15.972190362285856"><ele>495.66666666666663</ele><time>2026-03-22T11:57:43.998Z</time></trkpt><trkpt lat="41.87430388078394" lon="15.972020345200528"><ele>497.0</ele><time>2026-03-22T11:57:44.998Z</time></trkpt><trkpt lat="41.87442377769717" lon="15.971827473676383"><ele>499.66666666666663</ele><time>2026-03-22T11:57:45.998Z</time></trkpt><trkpt lat="41.87451806167058" lon="15.97160120141239"><ele>502.33333333333337</ele><time>2026-03-22T11:57:46.998Z</time></trkpt><trkpt lat="41.87458477811232" lon="15.971350991448809"><ele>505.0</ele><time>2026-03-22T11:57:47.998Z</time></trkpt><trkpt lat="41.87461384567531" lon="15.97106500162983"><ele>504.33333333333337</ele><time>2026-03-22T11:57:48.998Z</time></trkpt><trkpt lat="41.874617163192596" lon="15.970802406807122"><ele>503.66666666666663</ele><time>2026-03-22T11:57:49.998Z</time></trkpt><trkpt lat="41.87459353989536" lon="15.970570230854742"><ele>503.0</ele><time>2026-03-22T11:57:50.998Z</time></trkpt><trkpt lat="41.874573826101354" lon="15.970353390734116"><ele>503.0</ele><time>2026-03-22T11:57:51.998Z</time></trkpt><trkpt lat="41.87451834643166" lon="15.970166739853674"><ele>503.0</ele><time>2026-03-22T11:57:52.998Z</time></trkpt><trkpt lat="41.874505701916036" lon="15.969971437216142"><ele>503.0</ele><time>2026-03-22T11:57:53.998Z</time></trkpt><trkpt lat="41.87453670931571" lon="15.969760216000937"><ele>503.0</ele><time>2026-03-22T11:57:55Z</time></trkpt><trkpt lat="41.874601355059006" lon="15.969540434065959"><ele>503.0</ele><time>2026-03-22T11:57:56Z</time></trkpt><trkpt lat="41.874694741644184" lon="15.969314453417988"><ele>503.0</ele><time>2026-03-22T11:57:57Z</time></trkpt><trkpt lat="41.8748128657629" lon="15.969075847068384"><ele>501.0</ele><time>2026-03-22T11:57:58Z</time></trkpt><trkpt lat="41.87494081847297" lon="15.968858580824616"><ele>499.0</ele><time>2026-03-22T11:57:58.999Z</time></trkpt><trkpt lat="41.87508376883685" lon="15.968671318540082"><ele>497.0</ele><time>2026-03-22T11:57:59.999Z</time></trkpt><trkpt lat="41.87521701213512" lon="15.968489931979482"><ele>494.3333333333333</ele><time>2026-03-22T11:58:01Z</time></trkpt><trkpt lat="41.875337363519215" lon="15.968309337777447"><ele>491.66666666666663</ele><time>2026-03-22T11:58:02Z</time></trkpt><trkpt lat="41.87546221859114" lon="15.9681358354571"><ele>489.0</ele><time>2026-03-22T11:58:03Z</time></trkpt><trkpt lat="41.87556754978696" lon="15.967995980538028"><ele>489.0</ele><time>2026-03-22T11:58:04Z</time></trkpt><trkpt lat="41.87567082812235" lon="15.967880495788"><ele>489.0</ele><time>2026-03-22T11:58:05Z</time></trkpt><trkpt lat="41.8757577432246" lon="15.967789966569171"><ele>489.0</ele><time>2026-03-22T11:58:06Z</time></trkpt><trkpt lat="41.875841731631844" lon="15.967741967622562"><ele>489.0</ele><time>2026-03-22T11:58:07Z</time></trkpt><trkpt lat="41.87593001268609" lon="15.96775158206911"><ele>489.0</ele><time>2026-03-22T11:58:07.999Z</time></trkpt><trkpt lat="41.87603351727878" lon="15.967817518172456"><ele>483.66666666666663</ele><time>2026-03-22T11:58:08.999Z</time></trkpt><trkpt lat="41.87615158025862" lon="15.967937922692695"><ele>478.3333333333333</ele><time>2026-03-22T11:58:09.999Z</time></trkpt><trkpt lat="41.8762719581143" lon="15.968101130152677"><ele>473.0</ele><time>2026-03-22T11:58:10.999Z</time></trkpt><trkpt lat="41.87638605600843" lon="15.968271432186452"><ele>472.66666666666663</ele><time>2026-03-22T11:58:11.999Z</time></trkpt><trkpt lat="41.87648009563297" lon="15.968451229586714"><ele>472.33333333333337</ele><time>2026-03-22T11:58:12.999Z</time></trkpt><trkpt lat="41.87655116155852" lon="15.96864711437948"><ele>472.0</ele><time>2026-03-22T11:58:13.999Z</time></trkpt><trkpt lat="41.87658336127023" lon="15.968884416014983"><ele>472.0</ele><time>2026-03-22T11:58:14.999Z</time></trkpt><trkpt lat="41.87661842761507" lon="15.96912127752148"><ele>472.0</ele><time>2026-03-22T11:58:15.999Z</time></trkpt><trkpt lat="41.876657899076605" lon="15.969341792339613"><ele>472.0</ele><time>2026-03-22T11:58:16.999Z</time></trkpt><trkpt lat="41.87671874630123" lon="15.969559105858325"><ele>475.0</ele><time>2026-03-22T11:58:17.999Z</time></trkpt><trkpt lat="41.87682533478236" lon="15.969738562791989"><ele>478.0</ele><time>2026-03-22T11:58:18.999Z</time></trkpt><trkpt lat="41.87693699113355" lon="15.969904010232291"><ele>481.0</ele><time>2026-03-22T11:58:19.999Z</time></trkpt><trkpt lat="41.87708649731599" lon="15.970052790285568"><ele>481.0</ele><time>2026-03-22T11:58:20.999Z</time></trkpt><trkpt lat="41.87725727247981" lon="15.970160518050527"><ele>481.0</ele><time>2026-03-22T11:58:21.999Z</time></trkpt><trkpt lat="41.87745342136572" lon="15.970229330387733"><ele>481.0</ele><time>2026-03-22T11:58:22.999Z</time></trkpt><trkpt lat="41.87767344815827" lon="15.970274279965665"><ele>476.6666666666667</ele><time>2026-03-22T11:58:23.999Z</time></trkpt><trkpt lat="41.8778800416666" lon="15.970321123602575"><ele>472.33333333333337</ele><time>2026-03-22T11:58:24.999Z</time></trkpt><trkpt lat="41.87807995426722" lon="15.970369483008593"><ele>468.0</ele><time>2026-03-22T11:58:25.999Z</time></trkpt><trkpt lat="41.87827051968996" lon="15.970436113794708"><ele>465.66666666666663</ele><time>2026-03-22T11:58:26.999Z</time></trkpt><trkpt lat="41.87846243360195" lon="15.970510262086295"><ele>463.3333333333333</ele><time>2026-03-22T11:58:27.999Z</time></trkpt><trkpt lat="41.878638382149134" lon="15.970591858399072"><ele>461.0</ele><time>2026-03-22T11:58:28.999Z</time></trkpt><trkpt lat="41.87879745839949" lon="15.97067011026055"><ele>461.0</ele><time>2026-03-22T11:58:29.999Z</time></trkpt><trkpt lat="41.87895002949506" lon="15.970738891288653"><ele>461.0</ele><time>2026-03-22T11:58:30.999Z</time></trkpt><trkpt lat="41.87909306801379" lon="15.970798230559748"><ele>461.0</ele><time>2026-03-22T11:58:31.999Z</time></trkpt><trkpt lat="41.879231074687915" lon="15.97082326474368"><ele>459.0</ele><time>2026-03-22T11:58:32.999Z</time></trkpt><trkpt lat="41.8793929809794" lon="15.970803553943718"><ele>457.0</ele><time>2026-03-22T11:58:33.999Z</time></trkpt><trkpt lat="41.87956862983223" lon="15.970750508119123"><ele>455.0</ele><time>2026-03-22T11:58:34.999Z</time></trkpt><trkpt lat="41.879735384334225" lon="15.970695851087475"><ele>455.0</ele><time>2026-03-22T11:58:35.999Z</time></trkpt><trkpt lat="41.87987443969329" lon="15.970631721378382"><ele>455.0</ele><time>2026-03-22T11:58:36.999Z</time></trkpt><trkpt lat="41.87998781767704" lon="15.970546669060719"><ele>455.0</ele><time>2026-03-22T11:58:37.999Z</time></trkpt><trkpt lat="41.88009307280298" lon="15.970418370202482"><ele>455.0</ele><time>2026-03-22T11:58:38.999Z</time></trkpt><trkpt lat="41.880189437704125" lon="15.970243396434007"><ele>448.3333333333333</ele><time>2026-03-22T11:58:39.999Z</time></trkpt><trkpt lat="41.88028538314044" lon="15.97001110014563"><ele>441.66666666666663</ele><time>2026-03-22T11:58:40.999Z</time></trkpt><trkpt lat="41.88038683267595" lon="15.96975922110982"><ele>435.0</ele><time>2026-03-22T11:58:41.999Z</time></trkpt><trkpt lat="41.880491150625346" lon="15.969484705937683"><ele>435.0</ele><time>2026-03-22T11:58:42.999Z</time></trkpt><trkpt lat="41.88059892918881" lon="15.9692245916473"><ele>435.0</ele><time>2026-03-22T11:58:43.999Z</time></trkpt><trkpt lat="41.880705668167856" lon="15.968951087558137"><ele>436.0</ele><time>2026-03-22T11:58:44.999Z</time></trkpt><trkpt lat="41.88082388620624" lon="15.968661961212385"><ele>437.0</ele><time>2026-03-22T11:58:45.999Z</time></trkpt><trkpt lat="41.88093291464941" lon="15.968403272668235"><ele>432.0</ele><time>2026-03-22T11:58:46.999Z</time></trkpt><trkpt lat="41.88103148452154" lon="15.968159226697965"><ele>427.0</ele><time>2026-03-22T11:58:47.999Z</time></trkpt><trkpt lat="41.881112853010535" lon="15.967957537884308"><ele>422.0</ele><time>2026-03-22T11:58:48.999Z</time></trkpt><trkpt lat="41.88119215361375" lon="15.967763706071691"><ele>422.0</ele><time>2026-03-22T11:58:49.999Z</time></trkpt><trkpt lat="41.88126932083921" lon="15.967577593533711"><ele>422.0</ele><time>2026-03-22T11:58:50.999Z</time></trkpt><trkpt lat="41.88134129312513" lon="15.967403965771146"><ele>422.0</ele><time>2026-03-22T11:58:51.999Z</time></trkpt><trkpt lat="41.88140543434174" lon="15.967255828813293"><ele>422.0</ele><time>2026-03-22T11:58:52.999Z</time></trkpt><trkpt lat="41.88146122579839" lon="15.967110270379322"><ele>423.3333333333333</ele><time>2026-03-22T11:58:53.999Z</time></trkpt><trkpt lat="41.88152174557924" lon="15.9669597733946"><ele>424.66666666666663</ele><time>2026-03-22T11:58:54.999Z</time></trkpt><trkpt lat="41.88160274260351" lon="15.966784106268575"><ele>426.0</ele><time>2026-03-22T11:58:55.999Z</time></trkpt><trkpt lat="41.8816942185854" lon="15.966564686490175"><ele>426.66666666666663</ele><time>2026-03-22T11:58:56.999Z</time></trkpt><trkpt lat="41.881774710116225" lon="15.966315612909352"><ele>427.3333333333333</ele><time>2026-03-22T11:58:57.999Z</time></trkpt><trkpt lat="41.8818517963159" lon="15.966050754692738"><ele>428.0</ele><time>2026-03-22T11:58:58.999Z</time></trkpt><trkpt lat="41.8819178644715" lon="15.965806427192945"><ele>431.0</ele><time>2026-03-22T11:58:59.999Z</time></trkpt><trkpt lat="41.88198092871075" lon="15.965598437875244"><ele>434.0</ele><time>2026-03-22T11:59:00.999Z</time></trkpt><trkpt lat="41.88205391429529" lon="15.96542247092851"><ele>437.0</ele><time>2026-03-22T11:59:01.999Z</time></trkpt><trkpt lat="41.88215755485283" lon="15.965263263156526"><ele>437.0</ele><time>2026-03-22T11:59:02.998Z</time></trkpt><trkpt lat="41.88228160770583" lon="15.965109880497126"><ele>437.0</ele><time>2026-03-22T11:59:03.998Z</time></trkpt><trkpt lat="41.88244961180631" lon="15.964974946948887"><ele>437.0</ele><time>2026-03-22T11:59:04.998Z</time></trkpt><trkpt lat="41.882645947880604" lon="15.964870981013512"><ele>436.3333333333333</ele><time>2026-03-22T11:59:05.998Z</time></trkpt><trkpt lat="41.88284755069299" lon="15.964781710664854"><ele>435.66666666666663</ele><time>2026-03-22T11:59:06.998Z</time></trkpt><trkpt lat="41.883041618264826" lon="15.964708449222455"><ele>435.0</ele><time>2026-03-22T11:59:07.998Z</time></trkpt><trkpt lat="41.883228540512654" lon="15.964615991328035"><ele>435.0</ele><time>2026-03-22T11:59:08.998Z</time></trkpt><trkpt lat="41.8834203076751" lon="15.964491328283893"><ele>435.0</ele><time>2026-03-22T11:59:09.998Z</time></trkpt><trkpt lat="41.88359365311347" lon="15.964363327377766"><ele>435.0</ele><time>2026-03-22T11:59:10.998Z</time></trkpt><trkpt lat="41.883743575458446" lon="15.964222536355757"><ele>434.0</ele><time>2026-03-22T11:59:11.998Z</time></trkpt><trkpt lat="41.883868931956926" lon="15.964103106482419"><ele>433.0</ele><time>2026-03-22T11:59:12.998Z</time></trkpt><trkpt lat="41.88398030066238" lon="15.963987649924752"><ele>432.0</ele><time>2026-03-22T11:59:13.998Z</time></trkpt><trkpt lat="41.884079475525816" lon="15.963862085636393"><ele>431.0</ele><time>2026-03-22T11:59:14.998Z</time></trkpt><trkpt lat="41.884135184459204" lon="15.963700519322806"><ele>431.0</ele><time>2026-03-22T11:59:15.998Z</time></trkpt><trkpt lat="41.884185159527476" lon="15.963553919956002"><ele>431.0</ele><time>2026-03-22T11:59:16.998Z</time></trkpt><trkpt lat="41.884251383218114" lon="15.963394315459908"><ele>431.0</ele><time>2026-03-22T11:59:17.998Z</time></trkpt><trkpt lat="41.88431287336368" lon="15.96323273192742"><ele>431.0</ele><time>2026-03-22T11:59:18.998Z</time></trkpt><trkpt lat="41.884386794514" lon="15.963050838970538"><ele>436.0</ele><time>2026-03-22T11:59:19.998Z</time></trkpt><trkpt lat="41.88445872923365" lon="15.96285013337213"><ele>441.0</ele><time>2026-03-22T11:59:20.998Z</time></trkpt><trkpt lat="41.88451756752939" lon="15.962644384921798"><ele>446.0</ele><time>2026-03-22T11:59:21.998Z</time></trkpt><trkpt lat="41.884559932126905" lon="15.962472218804466"><ele>449.8</ele><time>2026-03-22T11:59:22.998Z</time></trkpt><trkpt lat="41.88458977467316" lon="15.962333017458297"><ele>453.6</ele><time>2026-03-22T11:59:23.998Z</time></trkpt><trkpt lat="41.884656907360245" lon="15.962235992249642"><ele>457.4</ele><time>2026-03-22T11:59:24.998Z</time></trkpt><trkpt lat="41.88476142522667" lon="15.962195160440064"><ele>461.2</ele><time>2026-03-22T11:59:25.998Z</time></trkpt><trkpt lat="41.88488531295022" lon="15.96213782902684"><ele>465.0</ele><time>2026-03-22T11:59:26.998Z</time></trkpt><trkpt lat="41.885037292120835" lon="15.962094652675145"><ele>465.25</ele><time>2026-03-22T11:59:27.998Z</time></trkpt><trkpt lat="41.885192338747785" lon="15.96204286490619"><ele>465.5</ele><time>2026-03-22T11:59:28.998Z</time></trkpt><trkpt lat="41.885319657904724" lon="15.961988163940255"><ele>465.75</ele><time>2026-03-22T11:59:29.998Z</time></trkpt><trkpt lat="41.885428316107095" lon="15.961915529969334"><ele>466.0</ele><time>2026-03-22T11:59:30.998Z</time></trkpt><trkpt lat="41.88552623680973" lon="15.961798144042215"><ele>471.6666666666667</ele><time>2026-03-22T11:59:31.998Z</time></trkpt><trkpt lat="41.88563706661202" lon="15.961636731119418"><ele>477.33333333333337</ele><time>2026-03-22T11:59:32.998Z</time></trkpt><trkpt lat="41.88575147405676" lon="15.96143658003666"><ele>483.0</ele><time>2026-03-22T11:59:33.998Z</time></trkpt><trkpt lat="41.885878908781066" lon="15.961233784518035"><ele>482.0</ele><time>2026-03-22T11:59:34.998Z</time></trkpt><trkpt lat="41.88599239950923" lon="15.961062029167163"><ele>481.0</ele><time>2026-03-22T11:59:35.998Z</time></trkpt><trkpt lat="41.88609307092048" lon="15.960905060192001"><ele>480.0</ele><time>2026-03-22T11:59:36.998Z</time></trkpt><trkpt lat="41.88621623142981" lon="15.960746334580337"><ele>486.0</ele><time>2026-03-22T11:59:37.998Z</time></trkpt><trkpt lat="41.88636078533888" lon="15.960595329270891"><ele>492.0</ele><time>2026-03-22T11:59:38.998Z</time></trkpt><trkpt lat="41.886498287500764" lon="15.960477310244343"><ele>498.0</ele><time>2026-03-22T11:59:39.998Z</time></trkpt><trkpt lat="41.8866161555724" lon="15.960321120417582"><ele>498.0</ele><time>2026-03-22T11:59:40.998Z</time></trkpt><trkpt lat="41.88670048883232" lon="15.960145048045064"><ele>498.0</ele><time>2026-03-22T11:59:41.998Z</time></trkpt><trkpt lat="41.886783527941965" lon="15.959952539600923"><ele>498.0</ele><time>2026-03-22T11:59:42.998Z</time></trkpt><trkpt lat="41.88688677982618" lon="15.959730833154493"><ele>499.8333333333333</ele><time>2026-03-22T11:59:43.998Z</time></trkpt><trkpt lat="41.88696894056571" lon="15.95957717135587"><ele>501.66666666666663</ele><time>2026-03-22T11:59:44.998Z</time></trkpt><trkpt lat="41.88702198752051" lon="15.959509377646928"><ele>503.5</ele><time>2026-03-22T11:59:45.998Z</time></trkpt><trkpt lat="41.88706716062623" lon="15.959439595681564"><ele>505.3333333333333</ele><time>2026-03-22T11:59:48.998Z</time></trkpt><trkpt lat="41.88711464551932" lon="15.95936300210684"><ele>507.16666666666663</ele><time>2026-03-22T11:59:50.998Z</time></trkpt><trkpt lat="41.887145285138836" lon="15.95927042186408"><ele>509.0</ele><time>2026-03-22T11:59:51.998Z</time></trkpt><trkpt lat="41.887195128423244" lon="15.959155632847434"><ele>509.0</ele><time>2026-03-22T11:59:52.998Z</time></trkpt><trkpt lat="41.887246278628425" lon="15.959036242905722"><ele>509.0</ele><time>2026-03-22T11:59:53.998Z</time></trkpt><trkpt lat="41.887312809515926" lon="15.958912242242874"><ele>509.0</ele><time>2026-03-22T11:59:54.998Z</time></trkpt><trkpt lat="41.88737848439927" lon="15.958765418724484"><ele>509.0</ele><time>2026-03-22T11:59:55.998Z</time></trkpt><trkpt lat="41.88743387400058" lon="15.958614636033916"><ele>509.0</ele><time>2026-03-22T11:59:56.998Z</time></trkpt><trkpt lat="41.88750269432416" lon="15.958460572995898"><ele>509.0</ele><time>2026-03-22T11:59:57.998Z</time></trkpt><trkpt lat="41.88756258043229" lon="15.958321083176315"><ele>509.0</ele><time>2026-03-22T11:59:58.998Z</time></trkpt><trkpt lat="41.887630783314705" lon="15.958153151282625"><ele>509.0</ele><time>2026-03-22T12:00:00Z</time></trkpt><trkpt lat="41.88771428601822" lon="15.957979637327064"><ele>502.0</ele><time>2026-03-22T12:00:01Z</time></trkpt><trkpt lat="41.887814104011234" lon="15.957794327367298"><ele>495.0</ele><time>2026-03-22T12:00:02Z</time></trkpt><trkpt lat="41.887910309379784" lon="15.957633616482198"><ele>488.0</ele><time>2026-03-22T12:00:03Z</time></trkpt><trkpt lat="41.887997535137536" lon="15.957441084322978"><ele>488.0</ele><time>2026-03-22T12:00:03.999Z</time></trkpt><trkpt lat="41.88808708191698" lon="15.957210740086454"><ele>488.0</ele><time>2026-03-22T12:00:04.999Z</time></trkpt><trkpt lat="41.8881909464698" lon="15.956959461890017"><ele>488.0</ele><time>2026-03-22T12:00:06Z</time></trkpt><trkpt lat="41.88831111408398" lon="15.956693930717986"><ele>481.5</ele><time>2026-03-22T12:00:07Z</time></trkpt><trkpt lat="41.88845586074673" lon="15.956417501388552"><ele>475.0</ele><time>2026-03-22T12:00:08Z</time></trkpt><trkpt lat="41.88861528540325" lon="15.956191346079073"><ele>475.0</ele><time>2026-03-22T12:00:08.999Z</time></trkpt><trkpt lat="41.88876001617293" lon="15.955961134775015"><ele>475.0</ele><time>2026-03-22T12:00:09.999Z</time></trkpt><trkpt lat="41.88890912220642" lon="15.955769615638934"><ele>475.0</ele><time>2026-03-22T12:00:10.999Z</time></trkpt><trkpt lat="41.889045376332575" lon="15.9556006829181"><ele>477.0</ele><time>2026-03-22T12:00:12Z</time></trkpt><trkpt lat="41.88918296223792" lon="15.95543206405242"><ele>479.0</ele><time>2026-03-22T12:00:12.999Z</time></trkpt><trkpt lat="41.889315389518245" lon="15.955284107561665"><ele>481.0</ele><time>2026-03-22T12:00:13.999Z</time></trkpt><trkpt lat="41.88944579899352" lon="15.955153620581456"><ele>478.6666666666667</ele><time>2026-03-22T12:00:14.999Z</time></trkpt><trkpt lat="41.88958393015959" lon="15.955032623462868"><ele>476.33333333333337</ele><time>2026-03-22T12:00:15.999Z</time></trkpt><trkpt lat="41.88971789380264" lon="15.954940996207661"><ele>474.0</ele><time>2026-03-22T12:00:16.999Z</time></trkpt><trkpt lat="41.88986305412934" lon="15.954876119500257"><ele>474.0</ele><time>2026-03-22T12:00:17.999Z</time></trkpt><trkpt lat="41.890001797501924" lon="15.954806176302442"><ele>474.0</ele><time>2026-03-22T12:00:18.999Z</time></trkpt><trkpt lat="41.89014229944452" lon="15.954727251112221"><ele>474.0</ele><time>2026-03-22T12:00:19.999Z</time></trkpt><trkpt lat="41.8902840746114" lon="15.954649574394724"><ele>472.25</ele><time>2026-03-22T12:00:20.999Z</time></trkpt><trkpt lat="41.89042394502754" lon="15.95456257351182"><ele>470.5</ele><time>2026-03-22T12:00:21.999Z</time></trkpt><trkpt lat="41.890556895896665" lon="15.954487822835857"><ele>468.75</ele><time>2026-03-22T12:00:22.999Z</time></trkpt><trkpt lat="41.890679524703614" lon="15.954414585129264"><ele>467.0</ele><time>2026-03-22T12:00:23.999Z</time></trkpt><trkpt lat="41.89079240529626" lon="15.95431891922042"><ele>466.75</ele><time>2026-03-22T12:00:24.999Z</time></trkpt><trkpt lat="41.89089693613149" lon="15.954201515972565"><ele>466.5</ele><time>2026-03-22T12:00:25.999Z</time></trkpt><trkpt lat="41.89098527514233" lon="15.954085804738527"><ele>466.25</ele><time>2026-03-22T12:00:26.999Z</time></trkpt><trkpt lat="41.891076783585184" lon="15.953981956802188"><ele>466.0</ele><time>2026-03-22T12:00:27.999Z</time></trkpt><trkpt lat="41.891155697568394" lon="15.953911480490678"><ele>465.1666666666667</ele><time>2026-03-22T12:00:28.999Z</time></trkpt><trkpt lat="41.89122746229076" lon="15.953877137272933"><ele>464.33333333333337</ele><time>2026-03-22T12:00:29.999Z</time></trkpt><trkpt lat="41.89130457873257" lon="15.95388649262685"><ele>463.5</ele><time>2026-03-22T12:00:30.999Z</time></trkpt><trkpt lat="41.891368418518574" lon="15.953917730276075"><ele>462.66666666666663</ele><time>2026-03-22T12:00:31.999Z</time></trkpt><trkpt lat="41.89142753600255" lon="15.953955017424757"><ele>461.8333333333333</ele><time>2026-03-22T12:00:32.999Z</time></trkpt><trkpt lat="41.89151339062705" lon="15.953963688094866"><ele>461.0</ele><time>2026-03-22T12:00:34.999Z</time></trkpt><trkpt lat="41.891548509249176" lon="15.95385149541993"><ele>461.0</ele><time>2026-03-22T12:00:37.999Z</time></trkpt><trkpt lat="41.89154896423274" lon="15.953710023168204"><ele>461.0</ele><time>2026-03-22T12:00:38.999Z</time></trkpt><trkpt lat="41.89151519267958" lon="15.953550543114133"><ele>461.0</ele><time>2026-03-22T12:00:39.999Z</time></trkpt><trkpt lat="41.89146021621639" lon="15.95337247232677"><ele>461.0</ele><time>2026-03-22T12:00:40.999Z</time></trkpt><trkpt lat="41.89141651863585" lon="15.953177590367444"><ele>461.75</ele><time>2026-03-22T12:00:41.999Z</time></trkpt><trkpt lat="41.89139633161868" lon="15.952984574938663"><ele>462.5</ele><time>2026-03-22T12:00:42.999Z</time></trkpt><trkpt lat="41.89139703241938" lon="15.952797127851785"><ele>463.25</ele><time>2026-03-22T12:00:43.999Z</time></trkpt><trkpt lat="41.89142806301305" lon="15.952638218192417"><ele>464.0</ele><time>2026-03-22T12:00:44.999Z</time></trkpt><trkpt lat="41.891481611549395" lon="15.952502088658504"><ele>464.3333333333333</ele><time>2026-03-22T12:00:45.999Z</time></trkpt><trkpt lat="41.891581914848096" lon="15.952361425122367"><ele>464.66666666666663</ele><time>2026-03-22T12:00:46.999Z</time></trkpt><trkpt lat="41.89171933937142" lon="15.952220103914843"><ele>465.0</ele><time>2026-03-22T12:00:47.999Z</time></trkpt><trkpt lat="41.89186985598896" lon="15.952068485399822"><ele>466.33333333333337</ele><time>2026-03-22T12:00:48.999Z</time></trkpt><trkpt lat="41.89203981310538" lon="15.951889108464773"><ele>467.6666666666667</ele><time>2026-03-22T12:00:49.999Z</time></trkpt><trkpt lat="41.892216877855965" lon="15.951700520731476"><ele>469.0</ele><time>2026-03-22T12:00:50.999Z</time></trkpt><trkpt lat="41.89239758225803" lon="15.951507180311006"><ele>469.0</ele><time>2026-03-22T12:00:51.999Z</time></trkpt><trkpt lat="41.89256401719835" lon="15.951300868277771"><ele>469.0</ele><time>2026-03-22T12:00:52.999Z</time></trkpt><trkpt lat="41.89269154947224" lon="15.951106206106003"><ele>469.0</ele><time>2026-03-22T12:00:53.999Z</time></trkpt><trkpt lat="41.8927862112238" lon="15.95093039519572"><ele>470.4</ele><time>2026-03-22T12:00:54.999Z</time></trkpt><trkpt lat="41.8928552940729" lon="15.950795202915952"><ele>471.79999999999995</ele><time>2026-03-22T12:00:55.999Z</time></trkpt><trkpt lat="41.892904537319154" lon="15.95070102250712"><ele>473.20000000000005</ele><time>2026-03-22T12:00:56.999Z</time></trkpt><trkpt lat="41.89293840407109" lon="15.950628241238075"><ele>474.6</ele><time>2026-03-22T12:00:57.999Z</time></trkpt><trkpt lat="41.89301372141437" lon="15.950598389665398"><ele>476.0</ele><time>2026-03-22T12:00:58.999Z</time></trkpt><trkpt lat="41.8931179963587" lon="15.950588948658622"><ele>476.0</ele><time>2026-03-22T12:00:59.999Z</time></trkpt><trkpt lat="41.89323579573695" lon="15.950577053114651"><ele>476.0</ele><time>2026-03-22T12:01:00.999Z</time></trkpt><trkpt lat="41.893386307156185" lon="15.950529732244496"><ele>476.0</ele><time>2026-03-22T12:01:01.999Z</time></trkpt><trkpt lat="41.893548895061855" lon="15.95046909067183"><ele>476.0</ele><time>2026-03-22T12:01:02.999Z</time></trkpt><trkpt lat="41.89369940343977" lon="15.950388529022698"><ele>474.0</ele><time>2026-03-22T12:01:03.999Z</time></trkpt><trkpt lat="41.893829237596464" lon="15.950270595026153"><ele>472.0</ele><time>2026-03-22T12:01:04.999Z</time></trkpt><trkpt lat="41.89394970076263" lon="15.950133452891048"><ele>470.0</ele><time>2026-03-22T12:01:05.998Z</time></trkpt><trkpt lat="41.894053962103804" lon="15.949982644656176"><ele>470.0</ele><time>2026-03-22T12:01:06.998Z</time></trkpt><trkpt lat="41.89413986927796" lon="15.949833110417218"><ele>470.0</ele><time>2026-03-22T12:01:07.998Z</time></trkpt><trkpt lat="41.894225256776814" lon="15.949679349959272"><ele>470.0</ele><time>2026-03-22T12:01:08.998Z</time></trkpt><trkpt lat="41.89431075060322" lon="15.949539141129986"><ele>470.0</ele><time>2026-03-22T12:01:09.998Z</time></trkpt><trkpt lat="41.89441045100911" lon="15.949436033960591"><ele>467.75</ele><time>2026-03-22T12:01:10.998Z</time></trkpt><trkpt lat="41.89450335708894" lon="15.949371848127901"><ele>465.5</ele><time>2026-03-22T12:01:11.998Z</time></trkpt><trkpt lat="41.894608886562175" lon="15.949306773539378"><ele>463.25</ele><time>2026-03-22T12:01:12.998Z</time></trkpt><trkpt lat="41.89471762357724" lon="15.949228874024099"><ele>461.0</ele><time>2026-03-22T12:01:13.998Z</time></trkpt><trkpt lat="41.8948258569303" lon="15.949170403369854"><ele>461.0</ele><time>2026-03-22T12:01:14.998Z</time></trkpt><trkpt lat="41.89493003984935" lon="15.949116019415728"><ele>461.0</ele><time>2026-03-22T12:01:15.998Z</time></trkpt><trkpt lat="41.89501736067072" lon="15.949101248906139"><ele>461.0</ele><time>2026-03-22T12:01:16.998Z</time></trkpt><trkpt lat="41.895130727368205" lon="15.949096962159272"><ele>461.0</ele><time>2026-03-22T12:01:17.998Z</time></trkpt><trkpt lat="41.895236885909625" lon="15.9491269924063"><ele>461.0</ele><time>2026-03-22T12:01:18.998Z</time></trkpt><trkpt lat="41.895322319591784" lon="15.949207845925688"><ele>458.0</ele><time>2026-03-22T12:01:19.998Z</time></trkpt><trkpt lat="41.895385369245155" lon="15.949315546140943"><ele>455.0</ele><time>2026-03-22T12:01:20.998Z</time></trkpt><trkpt lat="41.89543830749402" lon="15.949416216004575"><ele>452.0</ele><time>2026-03-22T12:01:21.998Z</time></trkpt><trkpt lat="41.895496021057824" lon="15.949482713002375"><ele>449.0</ele><time>2026-03-22T12:01:22.998Z</time></trkpt><trkpt lat="41.8955695302872" lon="15.949503118164092"><ele>446.0</ele><time>2026-03-22T12:01:23.998Z</time></trkpt><trkpt lat="41.89567916279118" lon="15.94949350375971"><ele>446.0</ele><time>2026-03-22T12:01:24.998Z</time></trkpt><trkpt lat="41.895809738848975" lon="15.949446468040273"><ele>446.0</ele><time>2026-03-22T12:01:25.998Z</time></trkpt><trkpt lat="41.89593784346755" lon="15.949377194190648"><ele>446.0</ele><time>2026-03-22T12:01:26.998Z</time></trkpt><trkpt lat="41.8960616872202" lon="15.949324789207648"><ele>446.0</ele><time>2026-03-22T12:01:27.998Z</time></trkpt><trkpt lat="41.89615698711619" lon="15.949278747461547"><ele>444.0</ele><time>2026-03-22T12:01:28.998Z</time></trkpt><trkpt lat="41.89625190339203" lon="15.949224106937885"><ele>442.0</ele><time>2026-03-22T12:01:29.998Z</time></trkpt><trkpt lat="41.89636918553509" lon="15.949209294176095"><ele>440.0</ele><time>2026-03-22T12:01:30.998Z</time></trkpt><trkpt lat="41.896506352933656" lon="15.949263136081028"><ele>438.0</ele><time>2026-03-22T12:01:31.998Z</time></trkpt><trkpt lat="41.896633888309616" lon="15.949293092371539"><ele>438.0</ele><time>2026-03-22T12:01:32.998Z</time></trkpt><trkpt lat="41.89673280678414" lon="15.949305517908602"><ele>437.99999999999994</ele><time>2026-03-22T12:01:33.998Z</time></trkpt><trkpt lat="41.89680660292498" lon="15.949284193983553"><ele>437.99999999999994</ele><time>2026-03-22T12:01:34.998Z</time></trkpt><trkpt lat="41.89688376729118" lon="15.949230078185742"><ele>438.0</ele><time>2026-03-22T12:01:35.998Z</time></trkpt><trkpt lat="41.89697904332313" lon="15.94910124161088"><ele>438.0</ele><time>2026-03-22T12:01:36.998Z</time></trkpt><trkpt lat="41.8970895152815" lon="15.948954907020934"><ele>438.0</ele><time>2026-03-22T12:01:37.998Z</time></trkpt><trkpt lat="41.89721203376544" lon="15.948779435816421"><ele>438.0</ele><time>2026-03-22T12:01:38.998Z</time></trkpt><trkpt lat="41.89735185770368" lon="15.948630921958012"><ele>438.0</ele><time>2026-03-22T12:01:39.998Z</time></trkpt><trkpt lat="41.897513039160714" lon="15.948479222962895"><ele>438.66666666666663</ele><time>2026-03-22T12:01:40.998Z</time></trkpt><trkpt lat="41.89769990544963" lon="15.948322688391755"><ele>439.3333333333333</ele><time>2026-03-22T12:01:41.998Z</time></trkpt><trkpt lat="41.89786748276365" lon="15.948212823877562"><ele>440.0</ele><time>2026-03-22T12:01:42.998Z</time></trkpt><trkpt lat="41.89802628073849" lon="15.948115846839057"><ele>440.0</ele><time>2026-03-22T12:01:43.998Z</time></trkpt><trkpt lat="41.89819247943406" lon="15.948032846220114"><ele>440.0</ele><time>2026-03-22T12:01:44.998Z</time></trkpt><trkpt lat="41.8983547248764" lon="15.947963969805693"><ele>440.0</ele><time>2026-03-22T12:01:45.998Z</time></trkpt><trkpt lat="41.898486870373034" lon="15.947901698639566"><ele>438.75</ele><time>2026-03-22T12:01:46.998Z</time></trkpt><trkpt lat="41.898620816156686" lon="15.947819974919529"><ele>437.5</ele><time>2026-03-22T12:01:47.998Z</time></trkpt><trkpt lat="41.898742082101165" lon="15.947725114904731"><ele>436.25</ele><time>2026-03-22T12:01:48.998Z</time></trkpt><trkpt lat="41.89886771546364" lon="15.94761260352214"><ele>435.0</ele><time>2026-03-22T12:01:49.998Z</time></trkpt><trkpt lat="41.899005414852695" lon="15.947469526439615"><ele>435.0</ele><time>2026-03-22T12:01:50.998Z</time></trkpt><trkpt lat="41.89915021866986" lon="15.947309763862924"><ele>435.0</ele><time>2026-03-22T12:01:51.998Z</time></trkpt><trkpt lat="41.89931817221436" lon="15.94716536091023"><ele>435.0</ele><time>2026-03-22T12:01:52.998Z</time></trkpt><trkpt lat="41.899474330722015" lon="15.947020758607641"><ele>432.0</ele><time>2026-03-22T12:01:53.998Z</time></trkpt><trkpt lat="41.89963405762531" lon="15.946890284362462"><ele>429.0</ele><time>2026-03-22T12:01:54.998Z</time></trkpt><trkpt lat="41.89977925431441" lon="15.94674363306061"><ele>426.0</ele><time>2026-03-22T12:01:55.998Z</time></trkpt><trkpt lat="41.89992638843842" lon="15.946634067975172"><ele>425.33333333333337</ele><time>2026-03-22T12:01:56.998Z</time></trkpt><trkpt lat="41.90007617976861" lon="15.94652429382325"><ele>424.6666666666667</ele><time>2026-03-22T12:01:57.998Z</time></trkpt><trkpt lat="41.9002285966342" lon="15.94640348282128"><ele>424.0</ele><time>2026-03-22T12:01:58.998Z</time></trkpt><trkpt lat="41.90038768107944" lon="15.946255826163739"><ele>421.33333333333337</ele><time>2026-03-22T12:01:59.998Z</time></trkpt><trkpt lat="41.90053833016914" lon="15.94607812712319"><ele>418.66666666666663</ele><time>2026-03-22T12:02:00.998Z</time></trkpt><trkpt lat="41.90067967285861" lon="15.9459078887644"><ele>416.0</ele><time>2026-03-22T12:02:01.998Z</time></trkpt><trkpt lat="41.90081478728426" lon="15.945740952623327"><ele>411.0</ele><time>2026-03-22T12:02:02.998Z</time></trkpt><trkpt lat="41.900943207855875" lon="15.945574278049271"><ele>406.0</ele><time>2026-03-22T12:02:03.998Z</time></trkpt><trkpt lat="41.90107572978951" lon="15.94541984884914"><ele>401.0</ele><time>2026-03-22T12:02:04.998Z</time></trkpt><trkpt lat="41.90120405768589" lon="15.9452737623862"><ele>401.0</ele><time>2026-03-22T12:02:06Z</time></trkpt><trkpt lat="41.90135492458241" lon="15.945139172361554"><ele>401.0</ele><time>2026-03-22T12:02:06.999Z</time></trkpt><trkpt lat="41.90150759909884" lon="15.94501581354807"><ele>401.0</ele><time>2026-03-22T12:02:07.999Z</time></trkpt><trkpt lat="41.90165654872915" lon="15.944887960829007"><ele>398.0</ele><time>2026-03-22T12:02:09Z</time></trkpt><trkpt lat="41.90179623647632" lon="15.944783795750581"><ele>395.0</ele><time>2026-03-22T12:02:10Z</time></trkpt><trkpt lat="41.90193142030226" lon="15.944659226116205"><ele>392.0</ele><time>2026-03-22T12:02:11Z</time></trkpt><trkpt lat="41.90206547048353" lon="15.94449047619545"><ele>392.0</ele><time>2026-03-22T12:02:12Z</time></trkpt><trkpt lat="41.90220924057182" lon="15.944261477746652"><ele>392.0</ele><time>2026-03-22T12:02:13Z</time></trkpt><trkpt lat="41.90235068450918" lon="15.944027656746357"><ele>392.0</ele><time>2026-03-22T12:02:14Z</time></trkpt><trkpt lat="41.90245859129857" lon="15.94384880199308"><ele>391.75</ele><time>2026-03-22T12:02:15Z</time></trkpt><trkpt lat="41.902542988606015" lon="15.943669470554664"><ele>391.5</ele><time>2026-03-22T12:02:15.999Z</time></trkpt><trkpt lat="41.902628782067985" lon="15.943510684403531"><ele>391.25</ele><time>2026-03-22T12:02:16.999Z</time></trkpt><trkpt lat="41.902717695796476" lon="15.943357188037986"><ele>391.0</ele><time>2026-03-22T12:02:18Z</time></trkpt><trkpt lat="41.902823391120805" lon="15.943232235170415"><ele>393.6666666666667</ele><time>2026-03-22T12:02:18.999Z</time></trkpt><trkpt lat="41.90294275055056" lon="15.943092955664033"><ele>396.33333333333337</ele><time>2026-03-22T12:02:19.999Z</time></trkpt><trkpt lat="41.903099068634376" lon="15.942995517446443"><ele>399.0</ele><time>2026-03-22T12:02:20.999Z</time></trkpt><trkpt lat="41.90320415138435" lon="15.942886230973789"><ele>399.0</ele><time>2026-03-22T12:02:21.999Z</time></trkpt><trkpt lat="41.90329512887842" lon="15.94279263962453"><ele>399.0</ele><time>2026-03-22T12:02:22.999Z</time></trkpt><trkpt lat="41.9034189548226" lon="15.942662378427812"><ele>399.0</ele><time>2026-03-22T12:02:23.999Z</time></trkpt><trkpt lat="41.90352950190573" lon="15.942442056554022"><ele>394.66666666666663</ele><time>2026-03-22T12:02:24.999Z</time></trkpt><trkpt lat="41.90362694734837" lon="15.942217007801823"><ele>390.3333333333333</ele><time>2026-03-22T12:02:25.999Z</time></trkpt><trkpt lat="41.903732044288276" lon="15.942006468407486"><ele>386.0</ele><time>2026-03-22T12:02:26.999Z</time></trkpt><trkpt lat="41.90383963753392" lon="15.941794920671555"><ele>387.66666666666663</ele><time>2026-03-22T12:02:27.999Z</time></trkpt><trkpt lat="41.90392478260838" lon="15.941598672204742"><ele>389.33333333333337</ele><time>2026-03-22T12:02:28.999Z</time></trkpt><trkpt lat="41.904001096127935" lon="15.941406956078296"><ele>391.0</ele><time>2026-03-22T12:02:29.999Z</time></trkpt><trkpt lat="41.904061043949895" lon="15.941216458717424"><ele>391.0</ele><time>2026-03-22T12:02:30.999Z</time></trkpt><trkpt lat="41.90416093185048" lon="15.94105459880375"><ele>391.0</ele><time>2026-03-22T12:02:31.999Z</time></trkpt><trkpt lat="41.90424726838438" lon="15.940889320202276"><ele>391.0</ele><time>2026-03-22T12:02:32.999Z</time></trkpt><trkpt lat="41.90438487545804" lon="15.940762510285596"><ele>387.33333333333337</ele><time>2026-03-22T12:02:33.999Z</time></trkpt><trkpt lat="41.90452969468128" lon="15.940631986148707"><ele>383.6666666666667</ele><time>2026-03-22T12:02:34.999Z</time></trkpt><trkpt lat="41.9047082582688" lon="15.940493163715555"><ele>380.0</ele><time>2026-03-22T12:02:35.999Z</time></trkpt><trkpt lat="41.90490227431484" lon="15.940359738460677"><ele>380.0</ele><time>2026-03-22T12:02:36.999Z</time></trkpt><trkpt lat="41.90507459333867" lon="15.940243361778933"><ele>380.0</ele><time>2026-03-22T12:02:37.999Z</time></trkpt><trkpt lat="41.9052396014905" lon="15.940101970381116"><ele>380.0</ele><time>2026-03-22T12:02:38.999Z</time></trkpt><trkpt lat="41.90537873397886" lon="15.93994673659457"><ele>381.6666666666667</ele><time>2026-03-22T12:02:39.999Z</time></trkpt><trkpt lat="41.90551194136546" lon="15.93978895593164"><ele>383.33333333333337</ele><time>2026-03-22T12:02:40.999Z</time></trkpt><trkpt lat="41.905628967239224" lon="15.939611913196279"><ele>385.0</ele><time>2026-03-22T12:02:41.999Z</time></trkpt><trkpt lat="41.905750228348175" lon="15.939435173357293"><ele>385.0</ele><time>2026-03-22T12:02:42.999Z</time></trkpt><trkpt lat="41.90587893837394" lon="15.939278076770924"><ele>385.0</ele><time>2026-03-22T12:02:43.999Z</time></trkpt><trkpt lat="41.90599416708507" lon="15.93911931293471"><ele>385.0</ele><time>2026-03-22T12:02:44.999Z</time></trkpt><trkpt lat="41.906100875236106" lon="15.938950970845841"><ele>382.0</ele><time>2026-03-22T12:02:45.999Z</time></trkpt><trkpt lat="41.906191297177436" lon="15.938746427049235"><ele>379.0</ele><time>2026-03-22T12:02:46.999Z</time></trkpt><trkpt lat="41.90628806347015" lon="15.938537950573645"><ele>376.0</ele><time>2026-03-22T12:02:47.999Z</time></trkpt><trkpt lat="41.90639053387512" lon="15.938337231312225"><ele>376.0</ele><time>2026-03-22T12:02:48.999Z</time></trkpt><trkpt lat="41.90651394687295" lon="15.938140232068942"><ele>376.0</ele><time>2026-03-22T12:02:49.999Z</time></trkpt><trkpt lat="41.90664145667499" lon="15.937933608173607"><ele>376.0</ele><time>2026-03-22T12:02:50.999Z</time></trkpt><trkpt lat="41.90676763120768" lon="15.937746984955293"><ele>374.3333333333333</ele><time>2026-03-22T12:02:51.999Z</time></trkpt><trkpt lat="41.906866745480976" lon="15.937566551084625"><ele>372.6666666666667</ele><time>2026-03-22T12:02:52.999Z</time></trkpt><trkpt lat="41.906950936909695" lon="15.937371369662932"><ele>371.0</ele><time>2026-03-22T12:02:53.999Z</time></trkpt><trkpt lat="41.907046563131736" lon="15.937192832751904"><ele>371.0</ele><time>2026-03-22T12:02:54.999Z</time></trkpt><trkpt lat="41.90715196850996" lon="15.937018363471818"><ele>371.0</ele><time>2026-03-22T12:02:55.999Z</time></trkpt><trkpt lat="41.90724873325564" lon="15.936852097016857"><ele>371.0</ele><time>2026-03-22T12:02:56.999Z</time></trkpt><trkpt lat="41.90733609059147" lon="15.93666220325794"><ele>371.0</ele><time>2026-03-22T12:02:57.999Z</time></trkpt><trkpt lat="41.907429850641705" lon="15.936496610932236"><ele>371.0</ele><time>2026-03-22T12:02:58.999Z</time></trkpt><trkpt lat="41.907532307441436" lon="15.936340469201642"><ele>371.0</ele><time>2026-03-22T12:02:59.999Z</time></trkpt><trkpt lat="41.90762409325931" lon="15.936167543361396"><ele>368.75</ele><time>2026-03-22T12:03:00.999Z</time></trkpt><trkpt lat="41.90769184746167" lon="15.935995388703226"><ele>366.5</ele><time>2026-03-22T12:03:01.999Z</time></trkpt><trkpt lat="41.90776607422817" lon="15.935826804960252"><ele>364.25</ele><time>2026-03-22T12:03:02.999Z</time></trkpt><trkpt lat="41.90784550836604" lon="15.93565295965609"><ele>362.0</ele><time>2026-03-22T12:03:03.999Z</time></trkpt><trkpt lat="41.90792893805629" lon="15.935457022624142"><ele>359.33333333333337</ele><time>2026-03-22T12:03:04.999Z</time></trkpt><trkpt lat="41.90798276069575" lon="15.93525480447893"><ele>356.6666666666667</ele><time>2026-03-22T12:03:05.999Z</time></trkpt><trkpt lat="41.90801424845518" lon="15.935056370099304"><ele>354.0</ele><time>2026-03-22T12:03:06.999Z</time></trkpt><trkpt lat="41.908077837745914" lon="15.934860091666675"><ele>353.6666666666667</ele><time>2026-03-22T12:03:07.998Z</time></trkpt><trkpt lat="41.908161880550466" lon="15.934661924979158"><ele>353.33333333333337</ele><time>2026-03-22T12:03:08.998Z</time></trkpt><trkpt lat="41.90826783719335" lon="15.934451623038376"><ele>353.0</ele><time>2026-03-22T12:03:09.998Z</time></trkpt><trkpt lat="41.90840102979579" lon="15.934236050696096"><ele>347.33333333333337</ele><time>2026-03-22T12:03:10.998Z</time></trkpt><trkpt lat="41.90852364155963" lon="15.933993342756278"><ele>341.6666666666667</ele><time>2026-03-22T12:03:11.998Z</time></trkpt><trkpt lat="41.90862100041615" lon="15.933749941370662"><ele>336.0</ele><time>2026-03-22T12:03:12.998Z</time></trkpt><trkpt lat="41.90873998084094" lon="15.93353150352988"><ele>336.6666666666667</ele><time>2026-03-22T12:03:13.998Z</time></trkpt><trkpt lat="41.90888209748469" lon="15.93333902757735"><ele>337.33333333333337</ele><time>2026-03-22T12:03:14.998Z</time></trkpt><trkpt lat="41.90900361780519" lon="15.933117822529647"><ele>338.0</ele><time>2026-03-22T12:03:15.998Z</time></trkpt><trkpt lat="41.909137349425954" lon="15.932875823582084"><ele>335.33333333333337</ele><time>2026-03-22T12:03:16.998Z</time></trkpt><trkpt lat="41.90925724434069" lon="15.932645103031685"><ele>332.6666666666667</ele><time>2026-03-22T12:03:17.998Z</time></trkpt><trkpt lat="41.909350704606624" lon="15.932416150759968"><ele>330.0</ele><time>2026-03-22T12:03:18.998Z</time></trkpt><trkpt lat="41.90947524596355" lon="15.932206349577324"><ele>330.0</ele><time>2026-03-22T12:03:19.998Z</time></trkpt><trkpt lat="41.909606239989564" lon="15.93201982912347"><ele>330.0</ele><time>2026-03-22T12:03:20.998Z</time></trkpt><trkpt lat="41.90970439671273" lon="15.931820885192726"><ele>330.0</ele><time>2026-03-22T12:03:21.998Z</time></trkpt><trkpt lat="41.909779771999425" lon="15.931614844950044"><ele>334.0</ele><time>2026-03-22T12:03:22.998Z</time></trkpt><trkpt lat="41.909837393935085" lon="15.931397450344813"><ele>338.0</ele><time>2026-03-22T12:03:23.998Z</time></trkpt><trkpt lat="41.90993687544171" lon="15.931185351315461"><ele>342.0</ele><time>2026-03-22T12:03:24.998Z</time></trkpt><trkpt lat="41.91004760418196" lon="15.930996774101008"><ele>340.75</ele><time>2026-03-22T12:03:25.998Z</time></trkpt><trkpt lat="41.91015264687217" lon="15.930839219472618"><ele>339.5</ele><time>2026-03-22T12:03:26.998Z</time></trkpt><trkpt lat="41.91024213536111" lon="15.930680145361546"><ele>338.25</ele><time>2026-03-22T12:03:27.998Z</time></trkpt><trkpt lat="41.910332374364295" lon="15.930534993747361"><ele>337.0</ele><time>2026-03-22T12:03:28.998Z</time></trkpt><trkpt lat="41.910437629951886" lon="15.930374119085085"><ele>337.0</ele><time>2026-03-22T12:03:29.998Z</time></trkpt><trkpt lat="41.91053780335836" lon="15.930177354535584"><ele>337.0</ele><time>2026-03-22T12:03:30.998Z</time></trkpt><trkpt lat="41.9106535305646" lon="15.930005493341811"><ele>337.0</ele><time>2026-03-22T12:03:31.998Z</time></trkpt><trkpt lat="41.910774798911746" lon="15.929837218885261"><ele>341.3333333333333</ele><time>2026-03-22T12:03:32.998Z</time></trkpt><trkpt lat="41.91088571378756" lon="15.929678006580342"><ele>345.6666666666667</ele><time>2026-03-22T12:03:33.998Z</time></trkpt><trkpt lat="41.91100616851954" lon="15.929505289450551"><ele>350.0</ele><time>2026-03-22T12:03:34.998Z</time></trkpt><trkpt lat="41.911118339442574" lon="15.929339238558816"><ele>347.6666666666667</ele><time>2026-03-22T12:03:35.998Z</time></trkpt><trkpt lat="41.911222794064756" lon="15.92917989944366"><ele>345.3333333333333</ele><time>2026-03-22T12:03:36.998Z</time></trkpt><trkpt lat="41.9113262269572" lon="15.929034977569353"><ele>343.0</ele><time>2026-03-22T12:03:37.998Z</time></trkpt><trkpt lat="41.91143248067433" lon="15.928895802717614"><ele>343.0</ele><time>2026-03-22T12:03:38.998Z</time></trkpt><trkpt lat="41.911525216518974" lon="15.928763034818443"><ele>343.0</ele><time>2026-03-22T12:03:39.998Z</time></trkpt><trkpt lat="41.91160927169844" lon="15.92862280494361"><ele>343.0</ele><time>2026-03-22T12:03:40.998Z</time></trkpt><trkpt lat="41.91168032489805" lon="15.928477976316096"><ele>343.0</ele><time>2026-03-22T12:03:41.998Z</time></trkpt><trkpt lat="41.91174368598709" lon="15.928332513035937"><ele>339.5</ele><time>2026-03-22T12:03:42.998Z</time></trkpt><trkpt lat="41.911815649370844" lon="15.928187861782432"><ele>336.0</ele><time>2026-03-22T12:03:43.998Z</time></trkpt><trkpt lat="41.911856887270474" lon="15.928027060881629"><ele>332.5</ele><time>2026-03-22T12:03:44.998Z</time></trkpt><trkpt lat="41.911909209585055" lon="15.92787088022134"><ele>329.0</ele><time>2026-03-22T12:03:45.998Z</time></trkpt><trkpt lat="41.911971926848516" lon="15.927717852580994"><ele>329.5</ele><time>2026-03-22T12:03:46.998Z</time></trkpt><trkpt lat="41.91201031825232" lon="15.927559535590241"><ele>330.0</ele><time>2026-03-22T12:03:47.998Z</time></trkpt><trkpt lat="41.91202748947586" lon="15.927386678861776"><ele>330.5</ele><time>2026-03-22T12:03:48.998Z</time></trkpt><trkpt lat="41.912069842811626" lon="15.927208927093648"><ele>331.0</ele><time>2026-03-22T12:03:49.998Z</time></trkpt><trkpt lat="41.91209907878296" lon="15.927013921935973"><ele>331.0</ele><time>2026-03-22T12:03:50.998Z</time></trkpt><trkpt lat="41.91213003426335" lon="15.926828230149429"><ele>331.0</ele><time>2026-03-22T12:03:51.998Z</time></trkpt><trkpt lat="41.91216229673673" lon="15.926653580607148"><ele>331.0</ele><time>2026-03-22T12:03:52.998Z</time></trkpt><trkpt lat="41.91218023672052" lon="15.926500029171253"><ele>331.0</ele><time>2026-03-22T12:03:53.998Z</time></trkpt><trkpt lat="41.91217897884706" lon="15.926356825236327"><ele>329.5</ele><time>2026-03-22T12:03:54.998Z</time></trkpt><trkpt lat="41.91213832688849" lon="15.92619006153901"><ele>328.0</ele><time>2026-03-22T12:03:55.998Z</time></trkpt><trkpt lat="41.91207900573305" lon="15.926020119572884"><ele>326.5</ele><time>2026-03-22T12:03:56.998Z</time></trkpt><trkpt lat="41.91202829722973" lon="15.925834720158809"><ele>325.0</ele><time>2026-03-22T12:03:57.998Z</time></trkpt><trkpt lat="41.91201383619895" lon="15.925696001888944"><ele>324.4</ele><time>2026-03-22T12:03:58.998Z</time></trkpt><trkpt lat="41.912030372873346" lon="15.925584130289469"><ele>323.8</ele><time>2026-03-22T12:03:59.998Z</time></trkpt><trkpt lat="41.91208993050154" lon="15.925462127974777"><ele>323.20000000000005</ele><time>2026-03-22T12:04:00.998Z</time></trkpt><trkpt lat="41.912139406786714" lon="15.925327369337326"><ele>322.6</ele><time>2026-03-22T12:04:01.998Z</time></trkpt><trkpt lat="41.91218800764334" lon="15.925173501111887"><ele>322.0</ele><time>2026-03-22T12:04:02.998Z</time></trkpt><trkpt lat="41.9122053194832" lon="15.92503291325778"><ele>321.5</ele><time>2026-03-22T12:04:03.998Z</time></trkpt><trkpt lat="41.91220065334904" lon="15.92488158204153"><ele>321.0</ele><time>2026-03-22T12:04:04.998Z</time></trkpt><trkpt lat="41.9121587656568" lon="15.924687868257823"><ele>320.5</ele><time>2026-03-22T12:04:05.998Z</time></trkpt><trkpt lat="41.9121041817102" lon="15.924457679473221"><ele>320.0</ele><time>2026-03-22T12:04:06.998Z</time></trkpt><trkpt lat="41.91202610680472" lon="15.924224190305779"><ele>318.75</ele><time>2026-03-22T12:04:07.998Z</time></trkpt><trkpt lat="41.91196022466878" lon="15.924021164051158"><ele>317.5</ele><time>2026-03-22T12:04:08.998Z</time></trkpt><trkpt lat="41.91191876584347" lon="15.923831072365873"><ele>316.25</ele><time>2026-03-22T12:04:09.998Z</time></trkpt><trkpt lat="41.91190575313427" lon="15.923667156097064"><ele>315.0</ele><time>2026-03-22T12:04:10.997Z</time></trkpt><trkpt lat="41.911918910345705" lon="15.923509438674452"><ele>315.0</ele><time>2026-03-22T12:04:12Z</time></trkpt><trkpt lat="41.9119244518102" lon="15.92335842676357"><ele>315.0</ele><time>2026-03-22T12:04:13Z</time></trkpt><trkpt lat="41.91189794067194" lon="15.923226763002852"><ele>315.0</ele><time>2026-03-22T12:04:14Z</time></trkpt><trkpt lat="41.91184769583812" lon="15.923100097317853"><ele>315.0</ele><time>2026-03-22T12:04:15Z</time></trkpt><trkpt lat="41.91176623328159" lon="15.922930748783477"><ele>320.0</ele><time>2026-03-22T12:04:16Z</time></trkpt><trkpt lat="41.91164575449955" lon="15.922760203650263"><ele>325.0</ele><time>2026-03-22T12:04:17Z</time></trkpt><trkpt lat="41.91155894299113" lon="15.922532435093329"><ele>330.0</ele><time>2026-03-22T12:04:18Z</time></trkpt><trkpt lat="41.911475726196436" lon="15.922293135742143"><ele>330.0</ele><time>2026-03-22T12:04:19Z</time></trkpt><trkpt lat="41.91142741490602" lon="15.922123332201421"><ele>330.0</ele><time>2026-03-22T12:04:20Z</time></trkpt><trkpt lat="41.911400110060875" lon="15.921977461310625"><ele>330.0</ele><time>2026-03-22T12:04:21Z</time></trkpt><trkpt lat="41.911398188441225" lon="15.921883028081023"><ele>330.0</ele><time>2026-03-22T12:04:22Z</time></trkpt><trkpt lat="41.91145433021827" lon="15.921753455941852"><ele>330.0</ele><time>2026-03-22T12:04:23Z</time></trkpt><trkpt lat="41.91151181797378" lon="15.921575567280188"><ele>329.3333333333333</ele><time>2026-03-22T12:04:24Z</time></trkpt><trkpt lat="41.91155410182598" lon="15.921366171461857"><ele>328.66666666666663</ele><time>2026-03-22T12:04:25Z</time></trkpt><trkpt lat="41.91159198541547" lon="15.921137467381985"><ele>328.0</ele><time>2026-03-22T12:04:26Z</time></trkpt><trkpt lat="41.911633355619095" lon="15.920925491442938"><ele>328.3333333333333</ele><time>2026-03-22T12:04:27Z</time></trkpt><trkpt lat="41.911685770420284" lon="15.920727725655707"><ele>328.6666666666667</ele><time>2026-03-22T12:04:28Z</time></trkpt><trkpt lat="41.911740821545" lon="15.92054386002433"><ele>329.0</ele><time>2026-03-22T12:04:29Z</time></trkpt><trkpt lat="41.911807714325604" lon="15.920344937873148"><ele>323.6666666666667</ele><time>2026-03-22T12:04:30Z</time></trkpt><trkpt lat="41.91187360896762" lon="15.920146068242637"><ele>318.3333333333333</ele><time>2026-03-22T12:04:30.999Z</time></trkpt><trkpt lat="41.91198458541025" lon="15.91992543699359"><ele>313.0</ele><time>2026-03-22T12:04:31.999Z</time></trkpt><trkpt lat="41.91209067340769" lon="15.919732111221117"><ele>313.0</ele><time>2026-03-22T12:04:32.999Z</time></trkpt><trkpt lat="41.91218238515497" lon="15.919579391367773"><ele>313.0</ele><time>2026-03-22T12:04:33.999Z</time></trkpt><trkpt lat="41.91226889794684" lon="15.91944588130302"><ele>313.0</ele><time>2026-03-22T12:04:34.999Z</time></trkpt><trkpt lat="41.91235359274502" lon="15.919317206722878"><ele>313.0</ele><time>2026-03-22T12:04:35.999Z</time></trkpt><trkpt lat="41.91238077652674" lon="15.919185073126048"><ele>313.8</ele><time>2026-03-22T12:04:36.999Z</time></trkpt><trkpt lat="41.912415122713725" lon="15.919105713340059"><ele>314.6</ele><time>2026-03-22T12:04:37.999Z</time></trkpt><trkpt lat="41.91241132847631" lon="15.919010054460074"><ele>315.4</ele><time>2026-03-22T12:04:38.999Z</time></trkpt><trkpt lat="41.91238296309662" lon="15.918861158690873"><ele>316.2</ele><time>2026-03-22T12:04:39.999Z</time></trkpt><trkpt lat="41.91236476760266" lon="15.918705904877315"><ele>317.0</ele><time>2026-03-22T12:04:40.999Z</time></trkpt><trkpt lat="41.912371118309615" lon="15.918569087566222"><ele>317.0</ele><time>2026-03-22T12:04:41.999Z</time></trkpt><trkpt lat="41.91237078885997" lon="15.918439516691576"><ele>317.0</ele><time>2026-03-22T12:04:42.999Z</time></trkpt><trkpt lat="41.912354011846" lon="15.918322531599793"><ele>317.0</ele><time>2026-03-22T12:04:43.999Z</time></trkpt><trkpt lat="41.91231866227249" lon="15.918223099683754"><ele>317.0</ele><time>2026-03-22T12:04:44.999Z</time></trkpt><trkpt lat="41.91227597925415" lon="15.918144507226172"><ele>317.0</ele><time>2026-03-22T12:04:45.999Z</time></trkpt><trkpt lat="41.91229517389543" lon="15.918018738595265"><ele>317.0</ele><time>2026-03-22T12:04:47.999Z</time></trkpt><trkpt lat="41.91236355820026" lon="15.918004881951619"><ele>317.0</ele><time>2026-03-22T12:04:48.999Z</time></trkpt><trkpt lat="41.912429517950116" lon="15.918037866101216"><ele>317.0</ele><time>2026-03-22T12:04:49.999Z</time></trkpt><trkpt lat="41.9125066442389" lon="15.918094974854625"><ele>317.0</ele><time>2026-03-22T12:04:50.999Z</time></trkpt><trkpt lat="41.91258892724153" lon="15.918153679776031"><ele>317.0</ele><time>2026-03-22T12:04:51.999Z</time></trkpt><trkpt lat="41.9126938407041" lon="15.918179523016722"><ele>317.0</ele><time>2026-03-22T12:04:52.999Z</time></trkpt><trkpt lat="41.912818441491076" lon="15.918164139660497"><ele>314.5</ele><time>2026-03-22T12:04:53.999Z</time></trkpt><trkpt lat="41.91295121103444" lon="15.918150027203293"><ele>312.0</ele><time>2026-03-22T12:04:54.999Z</time></trkpt><trkpt lat="41.913077518214706" lon="15.918143445008397"><ele>309.5</ele><time>2026-03-22T12:04:55.999Z</time></trkpt><trkpt lat="41.91318553508122" lon="15.918099313617805"><ele>307.0</ele><time>2026-03-22T12:04:56.999Z</time></trkpt><trkpt lat="41.91326738115703" lon="15.918075342235207"><ele>307.0</ele><time>2026-03-22T12:04:57.999Z</time></trkpt><trkpt lat="41.91335748077738" lon="15.91799918065669"><ele>307.0</ele><time>2026-03-22T12:04:59.999Z</time></trkpt><trkpt lat="41.91336281647139" lon="15.917875053223714"><ele>307.0</ele><time>2026-03-22T12:05:01.999Z</time></trkpt><trkpt lat="41.9133602492603" lon="15.917751605085128"><ele>307.0</ele><time>2026-03-22T12:05:02.999Z</time></trkpt><trkpt lat="41.91335189881667" lon="15.917566033486308"><ele>307.0</ele><time>2026-03-22T12:05:03.999Z</time></trkpt><trkpt lat="41.91331563787952" lon="15.91738739987989"><ele>306.5</ele><time>2026-03-22T12:05:04.999Z</time></trkpt><trkpt lat="41.91330004427942" lon="15.917223663353381"><ele>306.0</ele><time>2026-03-22T12:05:05.999Z</time></trkpt><trkpt lat="41.913267513676075" lon="15.91707412438528"><ele>305.5</ele><time>2026-03-22T12:05:06.999Z</time></trkpt><trkpt lat="41.91326927258207" lon="15.916927878980728"><ele>305.0</ele><time>2026-03-22T12:05:07.999Z</time></trkpt><trkpt lat="41.91331108261023" lon="15.916787222339343"><ele>304.4</ele><time>2026-03-22T12:05:08.999Z</time></trkpt><trkpt lat="41.91336605886786" lon="15.916663480984708"><ele>303.8</ele><time>2026-03-22T12:05:09.999Z</time></trkpt><trkpt lat="41.91342170364378" lon="15.916550782443839"><ele>303.2</ele><time>2026-03-22T12:05:10.999Z</time></trkpt><trkpt lat="41.913475177285655" lon="15.916447862588724"><ele>302.6</ele><time>2026-03-22T12:05:11.999Z</time></trkpt><trkpt lat="41.91352915281867" lon="15.916344657971887"><ele>302.0</ele><time>2026-03-22T12:05:13.999Z</time></trkpt><trkpt lat="41.91356562298364" lon="15.916265963484118"><ele>300.0</ele><time>2026-03-22T12:05:16.999Z</time></trkpt><trkpt lat="41.913605654331974" lon="15.916175517454597"><ele>298.0</ele><time>2026-03-22T12:05:18.999Z</time></trkpt><trkpt lat="41.91363134061877" lon="15.9160622907566"><ele>296.0</ele><time>2026-03-22T12:05:20.999Z</time></trkpt><trkpt lat="41.91364435657268" lon="15.915978028854427"><ele>294.0</ele><time>2026-03-22T12:05:21.999Z</time></trkpt><trkpt lat="41.913660908995105" lon="15.915856244911874"><ele>292.0</ele><time>2026-03-22T12:05:22.999Z</time></trkpt><trkpt lat="41.91369353576674" lon="15.915709349238089"><ele>290.0</ele><time>2026-03-22T12:05:23.999Z</time></trkpt><trkpt lat="41.91372238948144" lon="15.915574643713528"><ele>290.0</ele><time>2026-03-22T12:05:24.999Z</time></trkpt><trkpt lat="41.913742535381985" lon="15.915460196854156"><ele>290.0</ele><time>2026-03-22T12:05:25.999Z</time></trkpt><trkpt lat="41.91375586625964" lon="15.915347154442552"><ele>290.0</ele><time>2026-03-22T12:05:26.999Z</time></trkpt><trkpt lat="41.913780222970864" lon="15.915198996484492"><ele>290.0</ele><time>2026-03-22T12:05:27.998Z</time></trkpt><trkpt lat="41.91379921441042" lon="15.915080289080972"><ele>290.0</ele><time>2026-03-22T12:05:28.998Z</time></trkpt><trkpt lat="41.91380824987179" lon="15.91495023270109"><ele>290.5</ele><time>2026-03-22T12:05:32.998Z</time></trkpt><trkpt lat="41.91381855759841" lon="15.914849564067817"><ele>291.0</ele><time>2026-03-22T12:05:34.998Z</time></trkpt><trkpt lat="41.91381654623874" lon="15.91475987583822"><ele>291.5</ele><time>2026-03-22T12:05:36.998Z</time></trkpt><trkpt lat="41.91382151915157" lon="15.914638250152711"><ele>292.0</ele><time>2026-03-22T12:05:38.998Z</time></trkpt><trkpt lat="41.91381941975586" lon="15.914538027833029"><ele>292.5</ele><time>2026-03-22T12:05:39.998Z</time></trkpt><trkpt lat="41.91382129745432" lon="15.914383910882862"><ele>293.0</ele><time>2026-03-22T12:05:40.998Z</time></trkpt><trkpt lat="41.91382707643058" lon="15.91419200529892"><ele>293.6</ele><time>2026-03-22T12:05:41.998Z</time></trkpt><trkpt lat="41.91383097217358" lon="15.91399772765769"><ele>294.20000000000005</ele><time>2026-03-22T12:05:42.998Z</time></trkpt><trkpt lat="41.913837914562244" lon="15.913827258054718"><ele>294.8</ele><time>2026-03-22T12:05:43.998Z</time></trkpt><trkpt lat="41.913845851992974" lon="15.913686849598282"><ele>295.40000000000003</ele><time>2026-03-22T12:05:44.998Z</time></trkpt><trkpt lat="41.91385428636518" lon="15.91359523220628"><ele>296.0</ele><time>2026-03-22T12:05:45.998Z</time></trkpt><trkpt lat="41.913892466436366" lon="15.913514385906923"><ele>296.0</ele><time>2026-03-22T12:05:46.998Z</time></trkpt><trkpt lat="41.9139526420147" lon="15.913423051038842"><ele>296.0</ele><time>2026-03-22T12:05:47.998Z</time></trkpt><trkpt lat="41.91400027227791" lon="15.913326864783597"><ele>296.0</ele><time>2026-03-22T12:05:48.998Z</time></trkpt><trkpt lat="41.91404782119641" lon="15.913233829715676"><ele>296.0</ele><time>2026-03-22T12:05:49.998Z</time></trkpt><trkpt lat="41.91407523050139" lon="15.913118329830397"><ele>296.0</ele><time>2026-03-22T12:05:51.998Z</time></trkpt><trkpt lat="41.91404985721517" lon="15.913034825432076"><ele>296.0</ele><time>2026-03-22T12:11:08.999Z</time></trkpt><trkpt lat="41.91406804435741" lon="15.912849544717584"><ele>297.5</ele><time>2026-03-22T12:11:10.999Z</time></trkpt><trkpt lat="41.9140864387123" lon="15.912712675792823"><ele>299.0</ele><time>2026-03-22T12:11:11.999Z</time></trkpt><trkpt lat="41.91410510630147" lon="15.912557367174983"><ele>300.5</ele><time>2026-03-22T12:11:12.999Z</time></trkpt><trkpt lat="41.91415458986627" lon="15.912379064567768"><ele>302.0</ele><time>2026-03-22T12:11:13.999Z</time></trkpt><trkpt lat="41.91420890635975" lon="15.912198487869276"><ele>300.75</ele><time>2026-03-22T12:11:14.999Z</time></trkpt><trkpt lat="41.91427087245665" lon="15.91204103779572"><ele>299.5</ele><time>2026-03-22T12:11:15.999Z</time></trkpt><trkpt lat="41.914341618112864" lon="15.911904379318273"><ele>298.25</ele><time>2026-03-22T12:11:16.999Z</time></trkpt><trkpt lat="41.91443246402485" lon="15.911758667325282"><ele>297.0</ele><time>2026-03-22T12:11:17.999Z</time></trkpt><trkpt lat="41.91453675338576" lon="15.911611940598656"><ele>297.0</ele><time>2026-03-22T12:11:18.999Z</time></trkpt><trkpt lat="41.91463553593487" lon="15.911463909722137"><ele>297.0</ele><time>2026-03-22T12:11:19.999Z</time></trkpt><trkpt lat="41.914724133660776" lon="15.911345304719692"><ele>297.0</ele><time>2026-03-22T12:11:20.999Z</time></trkpt><trkpt lat="41.9148031859526" lon="15.911230335450522"><ele>297.0</ele><time>2026-03-22T12:11:21.999Z</time></trkpt><trkpt lat="41.91486219728876" lon="15.911105093120186"><ele>297.0</ele><time>2026-03-22T12:11:22.999Z</time></trkpt><trkpt lat="41.914914821005524" lon="15.910941873158785"><ele>297.0</ele><time>2026-03-22T12:11:23.999Z</time></trkpt><trkpt lat="41.914960739612006" lon="15.910767064274943"><ele>297.0</ele><time>2026-03-22T12:11:24.999Z</time></trkpt><trkpt lat="41.914982042196314" lon="15.91058035203996"><ele>297.0</ele><time>2026-03-22T12:11:25.999Z</time></trkpt><trkpt lat="41.91499353432564" lon="15.910403588993862"><ele>296.6666666666667</ele><time>2026-03-22T12:11:26.999Z</time></trkpt><trkpt lat="41.91499124203543" lon="15.91020656024971"><ele>296.33333333333337</ele><time>2026-03-22T12:11:27.999Z</time></trkpt><trkpt lat="41.914979358327" lon="15.90996692775466"><ele>296.0</ele><time>2026-03-22T12:11:28.998Z</time></trkpt><trkpt lat="41.91496524168709" lon="15.909703967505614"><ele>296.0</ele><time>2026-03-22T12:11:29.998Z</time></trkpt><trkpt lat="41.91495296111698" lon="15.90943805360865"><ele>296.0</ele><time>2026-03-22T12:11:30.998Z</time></trkpt><trkpt lat="41.914959590584516" lon="15.909204061530707"><ele>296.0</ele><time>2026-03-22T12:11:31.998Z</time></trkpt><trkpt lat="41.914955213086785" lon="15.90901651679236"><ele>296.0</ele><time>2026-03-22T12:11:32.998Z</time></trkpt><trkpt lat="41.914976421089214" lon="15.908847953240985"><ele>296.0</ele><time>2026-03-22T12:11:33.998Z</time></trkpt><trkpt lat="41.914990641443325" lon="15.908681444145133"><ele>296.0</ele><time>2026-03-22T12:11:34.998Z</time></trkpt><trkpt lat="41.91499684595253" lon="15.908529012592567"><ele>296.0</ele><time>2026-03-22T12:11:35.998Z</time></trkpt><trkpt lat="41.91500660404094" lon="15.908393383201151"><ele>296.0</ele><time>2026-03-22T12:11:36.998Z</time></trkpt><trkpt lat="41.915026991057594" lon="15.908242507586342"><ele>296.0</ele><time>2026-03-22T12:11:37.998Z</time></trkpt><trkpt lat="41.91502345387912" lon="15.908099411653838"><ele>296.0</ele><time>2026-03-22T12:11:38.998Z</time></trkpt><trkpt lat="41.91501022001299" lon="15.907963397472281"><ele>296.0</ele><time>2026-03-22T12:11:39.998Z</time></trkpt><trkpt lat="41.914982907962845" lon="15.907825625992023"><ele>296.0</ele><time>2026-03-22T12:11:40.998Z</time></trkpt><trkpt lat="41.91496229517967" lon="15.907668448513704"><ele>294.0</ele><time>2026-03-22T12:11:41.998Z</time></trkpt><trkpt lat="41.91495817305261" lon="15.907511633420723"><ele>292.0</ele><time>2026-03-22T12:11:42.998Z</time></trkpt><trkpt lat="41.914969025620834" lon="15.907348594388099"><ele>290.0</ele><time>2026-03-22T12:11:43.998Z</time></trkpt><trkpt lat="41.91497830786267" lon="15.90718095265295"><ele>288.0</ele><time>2026-03-22T12:11:44.998Z</time></trkpt><trkpt lat="41.91498924487476" lon="15.907036584283922"><ele>288.0</ele><time>2026-03-22T12:11:45.998Z</time></trkpt><trkpt lat="41.91499242282443" lon="15.906888175198787"><ele>288.0</ele><time>2026-03-22T12:11:46.998Z</time></trkpt><trkpt lat="41.9150020832202" lon="15.906749415664487"><ele>288.0</ele><time>2026-03-22T12:11:47.998Z</time></trkpt><trkpt lat="41.91501397889732" lon="15.906614161765171"><ele>288.0</ele><time>2026-03-22T12:11:48.998Z</time></trkpt><trkpt lat="41.91503134511631" lon="15.90647343292206"><ele>288.0</ele><time>2026-03-22T12:11:49.998Z</time></trkpt><trkpt lat="41.91507395561637" lon="15.906354554149276"><ele>288.0</ele><time>2026-03-22T12:11:50.998Z</time></trkpt><trkpt lat="41.91511340294599" lon="15.90624517054365"><ele>288.0</ele><time>2026-03-22T12:11:51.998Z</time></trkpt><trkpt lat="41.91513646882858" lon="15.9061429442954"><ele>288.0</ele><time>2026-03-22T12:11:52.998Z</time></trkpt><trkpt lat="41.91513899520712" lon="15.906005003610545"><ele>288.0</ele><time>2026-03-22T12:11:54.998Z</time></trkpt><trkpt lat="41.91505348847201" lon="15.9058795240328"><ele>288.0</ele><time>2026-03-22T12:11:56.998Z</time></trkpt><trkpt lat="41.91497196643358" lon="15.905819282090265"><ele>284.25</ele><time>2026-03-22T12:11:57.998Z</time></trkpt><trkpt lat="41.91484792269051" lon="15.905701597622755"><ele>280.5</ele><time>2026-03-22T12:11:58.998Z</time></trkpt><trkpt lat="41.91474133303752" lon="15.905586428021975"><ele>276.75</ele><time>2026-03-22T12:11:59.998Z</time></trkpt><trkpt lat="41.91465096725378" lon="15.905477961785706"><ele>273.0</ele><time>2026-03-22T12:12:00.998Z</time></trkpt><trkpt lat="41.91454957578956" lon="15.90538609531004"><ele>273.0</ele><time>2026-03-22T12:12:01.998Z</time></trkpt><trkpt lat="41.91442228611422" lon="15.905327824644955"><ele>273.0</ele><time>2026-03-22T12:12:02.998Z</time></trkpt><trkpt lat="41.91433307203012" lon="15.905297989692901"><ele>273.0</ele><time>2026-03-22T12:12:03.998Z</time></trkpt><trkpt lat="41.91423714599881" lon="15.905266475358303"><ele>273.0</ele><time>2026-03-22T12:12:04.998Z</time></trkpt><trkpt lat="41.91416085137526" lon="15.905241895759625"><ele>273.0</ele><time>2026-03-22T12:12:05.998Z</time></trkpt><trkpt lat="41.91409152922014" lon="15.9052180387385"><ele>270.8</ele><time>2026-03-22T12:12:06.998Z</time></trkpt><trkpt lat="41.91401458178609" lon="15.905190458579463"><ele>268.6</ele><time>2026-03-22T12:12:08.998Z</time></trkpt><trkpt lat="41.91400988229286" lon="15.90507435834342"><ele>266.4</ele><time>2026-03-22T12:12:10.998Z</time></trkpt><trkpt lat="41.91402873175075" lon="15.904964139989415"><ele>264.2</ele><time>2026-03-22T12:12:11.998Z</time></trkpt><trkpt lat="41.91404345493429" lon="15.904842207503817"><ele>262.0</ele><time>2026-03-22T12:12:12.998Z</time></trkpt><trkpt lat="41.9140441987725" lon="15.904653743432451"><ele>262.0</ele><time>2026-03-22T12:12:13.998Z</time></trkpt><trkpt lat="41.914004018522085" lon="15.904431340290277"><ele>262.0</ele><time>2026-03-22T12:12:14.998Z</time></trkpt><trkpt lat="41.91395802892011" lon="15.90423351142814"><ele>262.0</ele><time>2026-03-22T12:12:15.998Z</time></trkpt><trkpt lat="41.91394196221404" lon="15.9040617817641"><ele>262.0</ele><time>2026-03-22T12:12:16.998Z</time></trkpt><trkpt lat="41.91395390673313" lon="15.90387921803231"><ele>262.0</ele><time>2026-03-22T12:12:17.998Z</time></trkpt><trkpt lat="41.91397415179514" lon="15.903662234165338"><ele>262.0</ele><time>2026-03-22T12:12:18.998Z</time></trkpt><trkpt lat="41.914006660951216" lon="15.903445564029344"><ele>263.66666666666663</ele><time>2026-03-22T12:12:19.998Z</time></trkpt><trkpt lat="41.914034652240616" lon="15.903189104373828"><ele>265.3333333333333</ele><time>2026-03-22T12:12:20.998Z</time></trkpt><trkpt lat="41.914048811935764" lon="15.902916257659935"><ele>267.0</ele><time>2026-03-22T12:12:21.998Z</time></trkpt><trkpt lat="41.91407345906772" lon="15.902644341101409"><ele>269.0</ele><time>2026-03-22T12:12:22.998Z</time></trkpt><trkpt lat="41.91408951682862" lon="15.902426895491507"><ele>271.0</ele><time>2026-03-22T12:12:23.998Z</time></trkpt><trkpt lat="41.91407205602486" lon="15.902260389957698"><ele>273.0</ele><time>2026-03-22T12:12:24.998Z</time></trkpt><trkpt lat="41.91403768953406" lon="15.902090947199222"><ele>275.0</ele><time>2026-03-22T12:12:25.998Z</time></trkpt><trkpt lat="41.9139788294044" lon="15.901915469331003"><ele>275.25</ele><time>2026-03-22T12:12:26.998Z</time></trkpt><trkpt lat="41.913921308838546" lon="15.90172080669318"><ele>275.5</ele><time>2026-03-22T12:12:27.998Z</time></trkpt><trkpt lat="41.913869359726604" lon="15.901521136546995"><ele>275.75</ele><time>2026-03-22T12:12:28.998Z</time></trkpt><trkpt lat="41.91384127213154" lon="15.901346243443848"><ele>276.0</ele><time>2026-03-22T12:12:29.998Z</time></trkpt><trkpt lat="41.913852815299094" lon="15.90115485851772"><ele>276.0</ele><time>2026-03-22T12:12:30.998Z</time></trkpt><trkpt lat="41.91390731322222" lon="15.900954135876782"><ele>276.0</ele><time>2026-03-22T12:12:31.997Z</time></trkpt><trkpt lat="41.91397817590647" lon="15.90073152354795"><ele>276.0</ele><time>2026-03-22T12:12:32.997Z</time></trkpt><trkpt lat="41.91403170636406" lon="15.900532712781024"><ele>276.0</ele><time>2026-03-22T12:12:33.997Z</time></trkpt><trkpt lat="41.91407667136139" lon="15.900346471706097"><ele>276.0</ele><time>2026-03-22T12:12:34.997Z</time></trkpt><trkpt lat="41.91414107436521" lon="15.90019258747758"><ele>276.0</ele><time>2026-03-22T12:12:36Z</time></trkpt><trkpt lat="41.914216909058275" lon="15.900013625095168"><ele>276.0</ele><time>2026-03-22T12:12:36.999Z</time></trkpt><trkpt lat="41.91430479675444" lon="15.899851093642454"><ele>276.0</ele><time>2026-03-22T12:12:37.999Z</time></trkpt><trkpt lat="41.91439431626461" lon="15.899664416220885"><ele>276.0</ele><time>2026-03-22T12:12:39Z</time></trkpt><trkpt lat="41.9144637756464" lon="15.899508294492597"><ele>276.0</ele><time>2026-03-22T12:12:40Z</time></trkpt><trkpt lat="41.91453433428553" lon="15.89935238468531"><ele>276.0</ele><time>2026-03-22T12:12:41Z</time></trkpt><trkpt lat="41.91459863292215" lon="15.899211348236257"><ele>277.6666666666667</ele><time>2026-03-22T12:12:42Z</time></trkpt><trkpt lat="41.91465250866381" lon="15.89903521562861"><ele>279.33333333333337</ele><time>2026-03-22T12:12:43Z</time></trkpt><trkpt lat="41.91472028832804" lon="15.898840379702659"><ele>281.0</ele><time>2026-03-22T12:12:44Z</time></trkpt><trkpt lat="41.91475173757225" lon="15.898628902155542"><ele>280.33333333333337</ele><time>2026-03-22T12:12:45Z</time></trkpt><trkpt lat="41.91479459838666" lon="15.898363942475124"><ele>279.6666666666667</ele><time>2026-03-22T12:12:46Z</time></trkpt><trkpt lat="41.914830736728526" lon="15.898065905999045"><ele>279.0</ele><time>2026-03-22T12:12:47Z</time></trkpt><trkpt lat="41.914885050482084" lon="15.897754743421473"><ele>277.0</ele><time>2026-03-22T12:12:48Z</time></trkpt><trkpt lat="41.91491937438012" lon="15.897441955753495"><ele>275.0</ele><time>2026-03-22T12:12:48.999Z</time></trkpt><trkpt lat="41.914962959553925" lon="15.897179169935242"><ele>273.0</ele><time>2026-03-22T12:12:49.999Z</time></trkpt><trkpt lat="41.915001572545115" lon="15.896912443370194"><ele>271.6666666666667</ele><time>2026-03-22T12:12:50.999Z</time></trkpt><trkpt lat="41.91502932792909" lon="15.896674769252579"><ele>270.33333333333337</ele><time>2026-03-22T12:12:51.999Z</time></trkpt><trkpt lat="41.91504929991742" lon="15.896448423293494"><ele>269.0</ele><time>2026-03-22T12:12:52.999Z</time></trkpt><trkpt lat="41.91505660886463" lon="15.89626107549817"><ele>269.0</ele><time>2026-03-22T12:12:53.999Z</time></trkpt><trkpt lat="41.91504985682903" lon="15.89609407875517"><ele>269.0</ele><time>2026-03-22T12:12:54.999Z</time></trkpt><trkpt lat="41.915018142026014" lon="15.895932620732477"><ele>269.0</ele><time>2026-03-22T12:12:55.999Z</time></trkpt><trkpt lat="41.91493514727991" lon="15.895744359937265"><ele>269.0</ele><time>2026-03-22T12:12:56.999Z</time></trkpt><trkpt lat="41.914845900121534" lon="15.895555819040867"><ele>268.6666666666667</ele><time>2026-03-22T12:12:57.999Z</time></trkpt><trkpt lat="41.91474611896344" lon="15.89535740497601"><ele>268.3333333333333</ele><time>2026-03-22T12:12:58.999Z</time></trkpt><trkpt lat="41.91465000912429" lon="15.89520557555433"><ele>268.0</ele><time>2026-03-22T12:12:59.999Z</time></trkpt><trkpt lat="41.914542529276474" lon="15.895095024598055"><ele>269.5</ele><time>2026-03-22T12:13:00.999Z</time></trkpt><trkpt lat="41.914428409982236" lon="15.895003833059775"><ele>271.0</ele><time>2026-03-22T12:13:01.999Z</time></trkpt><trkpt lat="41.91433400278442" lon="15.894929392408748"><ele>272.5</ele><time>2026-03-22T12:13:02.999Z</time></trkpt><trkpt lat="41.914250858820445" lon="15.894798137616691"><ele>274.0</ele><time>2026-03-22T12:13:03.999Z</time></trkpt><trkpt lat="41.91418047329224" lon="15.89459430438181"><ele>271.5</ele><time>2026-03-22T12:13:04.999Z</time></trkpt><trkpt lat="41.91410824863688" lon="15.894393371596616"><ele>269.0</ele><time>2026-03-22T12:13:05.999Z</time></trkpt><trkpt lat="41.91404809660127" lon="15.894199797665877"><ele>266.5</ele><time>2026-03-22T12:13:06.999Z</time></trkpt><trkpt lat="41.91399733805742" lon="15.894043665234841"><ele>264.0</ele><time>2026-03-22T12:13:07.999Z</time></trkpt><trkpt lat="41.913947860759706" lon="15.893918717928136"><ele>264.0</ele><time>2026-03-22T12:13:08.999Z</time></trkpt><trkpt lat="41.91387456876533" lon="15.893808280696947"><ele>264.0</ele><time>2026-03-22T12:13:09.999Z</time></trkpt><trkpt lat="41.91376588732884" lon="15.893678340722637"><ele>264.0</ele><time>2026-03-22T12:13:10.999Z</time></trkpt><trkpt lat="41.91366710217402" lon="15.893573371529435"><ele>264.0</ele><time>2026-03-22T12:13:11.999Z</time></trkpt><trkpt lat="41.913567342951005" lon="15.893475751174316"><ele>259.6666666666667</ele><time>2026-03-22T12:13:12.999Z</time></trkpt><trkpt lat="41.91350955476767" lon="15.893317927125741"><ele>255.33333333333334</ele><time>2026-03-22T12:13:13.999Z</time></trkpt><trkpt lat="41.91346685300934" lon="15.893112459241722"><ele>251.0</ele><time>2026-03-22T12:13:14.999Z</time></trkpt><trkpt lat="41.91343657406883" lon="15.892886356517083"><ele>251.0</ele><time>2026-03-22T12:13:15.999Z</time></trkpt><trkpt lat="41.91342823451568" lon="15.892632501990121"><ele>251.0</ele><time>2026-03-22T12:13:16.999Z</time></trkpt><trkpt lat="41.91341173112232" lon="15.892358439062166"><ele>251.0</ele><time>2026-03-22T12:13:17.999Z</time></trkpt><trkpt lat="41.9134083579281" lon="15.892095837870281"><ele>250.33333333333334</ele><time>2026-03-22T12:13:18.999Z</time></trkpt><trkpt lat="41.913438200642936" lon="15.89185210851848"><ele>249.66666666666669</ele><time>2026-03-22T12:13:19.999Z</time></trkpt><trkpt lat="41.91346395166232" lon="15.891619763618522"><ele>249.0</ele><time>2026-03-22T12:13:20.999Z</time></trkpt><trkpt lat="41.91349778360417" lon="15.891395108950366"><ele>249.0</ele><time>2026-03-22T12:13:21.999Z</time></trkpt><trkpt lat="41.91352766775411" lon="15.891190303733449"><ele>249.0</ele><time>2026-03-22T12:13:22.999Z</time></trkpt><trkpt lat="41.913554168554484" lon="15.891021677533505"><ele>249.0</ele><time>2026-03-22T12:13:23.999Z</time></trkpt><trkpt lat="41.91357342851096" lon="15.890883711517445"><ele>249.0</ele><time>2026-03-22T12:13:24.999Z</time></trkpt><trkpt lat="41.91356152166634" lon="15.890788678813905"><ele>251.0</ele><time>2026-03-22T12:13:25.999Z</time></trkpt><trkpt lat="41.91351423425604" lon="15.890686028600225"><ele>253.0</ele><time>2026-03-22T12:13:26.999Z</time></trkpt><trkpt lat="41.91344449742154" lon="15.890573539892495"><ele>255.0</ele><time>2026-03-22T12:13:27.999Z</time></trkpt><trkpt lat="41.91335781623821" lon="15.89044489823018"><ele>257.0</ele><time>2026-03-22T12:13:28.999Z</time></trkpt><trkpt lat="41.91328166975035" lon="15.890284554146328"><ele>260.5</ele><time>2026-03-22T12:13:29.999Z</time></trkpt><trkpt lat="41.913224000738325" lon="15.890125361057791"><ele>264.0</ele><time>2026-03-22T12:13:30.999Z</time></trkpt><trkpt lat="41.91316211380499" lon="15.889947223239858"><ele>267.5</ele><time>2026-03-22T12:13:31.999Z</time></trkpt><trkpt lat="41.913102048125914" lon="15.889757363083284"><ele>271.0</ele><time>2026-03-22T12:13:32.999Z</time></trkpt><trkpt lat="41.91301584624414" lon="15.889578514300922"><ele>271.0</ele><time>2026-03-22T12:13:33.999Z</time></trkpt><trkpt lat="41.91291615478067" lon="15.889394502440066"><ele>271.0</ele><time>2026-03-22T12:13:34.999Z</time></trkpt><trkpt lat="41.9128118573818" lon="15.889204469489805"><ele>271.0</ele><time>2026-03-22T12:13:35.999Z</time></trkpt><trkpt lat="41.91274076513745" lon="15.889045091118556"><ele>270.40000000000003</ele><time>2026-03-22T12:13:36.999Z</time></trkpt><trkpt lat="41.912686852328385" lon="15.888918725580105"><ele>269.8</ele><time>2026-03-22T12:13:37.998Z</time></trkpt><trkpt lat="41.91263010987988" lon="15.888814006296966"><ele>269.20000000000005</ele><time>2026-03-22T12:13:38.998Z</time></trkpt><trkpt lat="41.91257143484212" lon="15.888697808963128"><ele>268.6</ele><time>2026-03-22T12:13:39.998Z</time></trkpt><trkpt lat="41.91250572707679" lon="15.888577964426531"><ele>268.0</ele><time>2026-03-22T12:13:40.998Z</time></trkpt><trkpt lat="41.91244532105894" lon="15.888459631629877"><ele>264.25</ele><time>2026-03-22T12:13:41.998Z</time></trkpt><trkpt lat="41.91239197039749" lon="15.888353870364636"><ele>260.5</ele><time>2026-03-22T12:13:42.998Z</time></trkpt><trkpt lat="41.91231056138253" lon="15.888253245858058"><ele>256.75</ele><time>2026-03-22T12:13:43.998Z</time></trkpt><trkpt lat="41.91220403426684" lon="15.88815957354197"><ele>253.0</ele><time>2026-03-22T12:13:44.998Z</time></trkpt><trkpt lat="41.91209095313687" lon="15.888070718164235"><ele>252.99999999999997</ele><time>2026-03-22T12:13:45.998Z</time></trkpt><trkpt lat="41.91199326465677" lon="15.888001425139977"><ele>253.0</ele><time>2026-03-22T12:13:46.998Z</time></trkpt><trkpt lat="41.91192832245886" lon="15.887919452317432"><ele>253.0</ele><time>2026-03-22T12:13:47.998Z</time></trkpt><trkpt lat="41.91187678224138" lon="15.887846449036672"><ele>253.0</ele><time>2026-03-22T12:13:48.998Z</time></trkpt><trkpt lat="41.91182480171177" lon="15.887764707831396"><ele>252.99999999999997</ele><time>2026-03-22T12:13:49.998Z</time></trkpt><trkpt lat="41.911791540916205" lon="15.887688722359472"><ele>253.0</ele><time>2026-03-22T12:13:50.998Z</time></trkpt><trkpt lat="41.911753218944376" lon="15.887593431741637"><ele>253.0</ele><time>2026-03-22T12:13:52.998Z</time></trkpt><trkpt lat="41.91180365468474" lon="15.887541561588613"><ele>253.0</ele><time>2026-03-22T12:16:09.998Z</time></trkpt><trkpt lat="41.91194451974279" lon="15.887574976602506"><ele>253.0</ele><time>2026-03-22T12:16:59.999Z</time></trkpt><trkpt lat="41.91204677141248" lon="15.88760229731157"><ele>253.0</ele><time>2026-03-22T12:17:00.999Z</time></trkpt><trkpt lat="41.912178143254174" lon="15.887626725066875"><ele>253.0</ele><time>2026-03-22T12:17:01.999Z</time></trkpt><trkpt lat="41.912289781280606" lon="15.887658552984556"><ele>253.0</ele><time>2026-03-22T12:17:02.999Z</time></trkpt><trkpt lat="41.91240295118757" lon="15.88768753015876"><ele>253.0</ele><time>2026-03-22T12:17:03.999Z</time></trkpt><trkpt lat="41.91250342997685" lon="15.887711309947187"><ele>253.0</ele><time>2026-03-22T12:17:04.999Z</time></trkpt><trkpt lat="41.91259151455905" lon="15.887733176388398"><ele>253.0</ele><time>2026-03-22T12:17:06.999Z</time></trkpt><trkpt lat="41.91268242714182" lon="15.887805195375003"><ele>253.0</ele><time>2026-03-22T12:17:21.999Z</time></trkpt><trkpt lat="41.91275360900476" lon="15.88783482662832"><ele>252.25</ele><time>2026-03-22T12:17:22.999Z</time></trkpt><trkpt lat="41.91284152490532" lon="15.887903736801213"><ele>251.5</ele><time>2026-03-22T12:17:23.999Z</time></trkpt><trkpt lat="41.91294049399602" lon="15.888008458019074"><ele>250.75</ele><time>2026-03-22T12:17:24.999Z</time></trkpt><trkpt lat="41.91304810805633" lon="15.88805904328082"><ele>250.0</ele><time>2026-03-22T12:17:25.999Z</time></trkpt><trkpt lat="41.91319192618379" lon="15.888064318910288"><ele>250.0</ele><time>2026-03-22T12:17:26.999Z</time></trkpt><trkpt lat="41.91331879036325" lon="15.888049247443037"><ele>250.0</ele><time>2026-03-22T12:17:27.999Z</time></trkpt><trkpt lat="41.91344129738361" lon="15.887997147699677"><ele>250.0</ele><time>2026-03-22T12:17:28.999Z</time></trkpt><trkpt lat="41.91356748658484" lon="15.88791564179444"><ele>250.0</ele><time>2026-03-22T12:17:29.999Z</time></trkpt><trkpt lat="41.91370549707362" lon="15.887817269150807"><ele>249.8</ele><time>2026-03-22T12:17:30.999Z</time></trkpt><trkpt lat="41.9138150212394" lon="15.88774448518049"><ele>249.6</ele><time>2026-03-22T12:17:31.999Z</time></trkpt><trkpt lat="41.91389518980788" lon="15.8876564263745"><ele>249.39999999999998</ele><time>2026-03-22T12:17:32.999Z</time></trkpt><trkpt lat="41.91394608442107" lon="15.887550102092113"><ele>249.2</ele><time>2026-03-22T12:17:33.999Z</time></trkpt><trkpt lat="41.91399549807811" lon="15.887456948930758"><ele>249.0</ele><time>2026-03-22T12:17:34.999Z</time></trkpt><trkpt lat="41.91408156390824" lon="15.887380327037087"><ele>246.75</ele><time>2026-03-22T12:17:35.999Z</time></trkpt><trkpt lat="41.91419435681001" lon="15.88734428447755"><ele>244.5</ele><time>2026-03-22T12:17:36.999Z</time></trkpt><trkpt lat="41.91431913630161" lon="15.88732691422844"><ele>242.25</ele><time>2026-03-22T12:17:37.999Z</time></trkpt><trkpt lat="41.91441898947741" lon="15.887337603670398"><ele>240.0</ele><time>2026-03-22T12:17:38.999Z</time></trkpt><trkpt lat="41.91453110112469" lon="15.887362412202755"><ele>238.2</ele><time>2026-03-22T12:17:39.999Z</time></trkpt><trkpt lat="41.91463769615538" lon="15.88741194982188"><ele>236.4</ele><time>2026-03-22T12:17:40.999Z</time></trkpt><trkpt lat="41.91474362551453" lon="15.887480197627857"><ele>234.60000000000002</ele><time>2026-03-22T12:17:41.999Z</time></trkpt><trkpt lat="41.91484578571209" lon="15.887551878877948"><ele>232.8</ele><time>2026-03-22T12:17:42.999Z</time></trkpt><trkpt lat="41.914947276718905" lon="15.887582356837088"><ele>231.0</ele><time>2026-03-22T12:17:43.999Z</time></trkpt><trkpt lat="41.91503004647988" lon="15.88758411081297"><ele>229.0</ele><time>2026-03-22T12:17:44.999Z</time></trkpt><trkpt lat="41.915118882764325" lon="15.887573337429082"><ele>227.00000000000003</ele><time>2026-03-22T12:17:45.999Z</time></trkpt><trkpt lat="41.915229606937174" lon="15.887557030726882"><ele>225.00000000000003</ele><time>2026-03-22T12:17:46.999Z</time></trkpt><trkpt lat="41.91533435017141" lon="15.887557033904802"><ele>223.0</ele><time>2026-03-22T12:17:47.999Z</time></trkpt><trkpt lat="41.915412989287574" lon="15.887554482298807"><ele>221.0</ele><time>2026-03-22T12:17:48.999Z</time></trkpt><trkpt lat="41.91549310698466" lon="15.887548248571058"><ele>221.0</ele><time>2026-03-22T12:17:49.999Z</time></trkpt><trkpt lat="41.915605431587196" lon="15.887460733686597"><ele>221.0</ele><time>2026-03-22T12:17:50.999Z</time></trkpt><trkpt lat="41.915729033785865" lon="15.887377180376726"><ele>221.0</ele><time>2026-03-22T12:17:51.999Z</time></trkpt><trkpt lat="41.91585539194948" lon="15.88725970508369"><ele>221.0</ele><time>2026-03-22T12:17:52.999Z</time></trkpt><trkpt lat="41.91595846831066" lon="15.887130537409172"><ele>219.8</ele><time>2026-03-22T12:17:53.999Z</time></trkpt><trkpt lat="41.916038838909515" lon="15.88702231670469"><ele>218.60000000000002</ele><time>2026-03-22T12:17:54.999Z</time></trkpt><trkpt lat="41.91611247176278" lon="15.886906314262882"><ele>217.4</ele><time>2026-03-22T12:17:55.999Z</time></trkpt><trkpt lat="41.91617198234848" lon="15.886782033665977"><ele>216.2</ele><time>2026-03-22T12:17:56.999Z</time></trkpt><trkpt lat="41.91624878393484" lon="15.886691184432687"><ele>215.0</ele><time>2026-03-22T12:17:57.999Z</time></trkpt><trkpt lat="41.91635975740648" lon="15.886631740223203"><ele>215.0</ele><time>2026-03-22T12:17:58.999Z</time></trkpt><trkpt lat="41.91645435206326" lon="15.886565412950016"><ele>215.0</ele><time>2026-03-22T12:17:59.999Z</time></trkpt><trkpt lat="41.9165536261286" lon="15.886453202196524"><ele>215.0</ele><time>2026-03-22T12:18:00.999Z</time></trkpt><trkpt lat="41.91663329255128" lon="15.886338384873715"><ele>215.0</ele><time>2026-03-22T12:18:01.999Z</time></trkpt><trkpt lat="41.91672246477778" lon="15.886199879702202"><ele>213.16666666666669</ele><time>2026-03-22T12:18:02.999Z</time></trkpt><trkpt lat="41.916802821457836" lon="15.886116102964198"><ele>211.33333333333334</ele><time>2026-03-22T12:18:03.999Z</time></trkpt><trkpt lat="41.916857096898035" lon="15.886045458378149"><ele>209.5</ele><time>2026-03-22T12:18:04.998Z</time></trkpt><trkpt lat="41.91691415163054" lon="15.885917854876288"><ele>207.66666666666669</ele><time>2026-03-22T12:18:06.998Z</time></trkpt><trkpt lat="41.91687689053909" lon="15.885840559541718"><ele>205.83333333333334</ele><time>2026-03-22T12:18:11.998Z</time></trkpt><trkpt lat="41.9168568732491" lon="15.885720548640846"><ele>204.0</ele><time>2026-03-22T12:18:14.998Z</time></trkpt><trkpt lat="41.916829344817586" lon="15.88561643737121"><ele>204.0</ele><time>2026-03-22T12:18:16.998Z</time></trkpt><trkpt lat="41.91680665047054" lon="15.885470029248946"><ele>204.0</ele><time>2026-03-22T12:18:19.998Z</time></trkpt><trkpt lat="41.91678195826429" lon="15.885390850278192"><ele>204.0</ele><time>2026-03-22T12:18:21.998Z</time></trkpt><trkpt lat="41.91676130571972" lon="15.885289373499383"><ele>204.0</ele><time>2026-03-22T12:18:23.998Z</time></trkpt><trkpt lat="41.91673902402064" lon="15.885199490151429"><ele>204.0</ele><time>2026-03-22T12:18:25.998Z</time></trkpt><trkpt lat="41.91672859465093" lon="15.88510067208589"><ele>204.0</ele><time>2026-03-22T12:18:27.998Z</time></trkpt><trkpt lat="41.916681789334575" lon="15.885023813782913"><ele>204.2</ele><time>2026-03-22T12:18:29.998Z</time></trkpt><trkpt lat="41.91659481271067" lon="15.884919137724864"><ele>204.39999999999998</ele><time>2026-03-22T12:18:31.998Z</time></trkpt><trkpt lat="41.91651377460612" lon="15.88483972865118"><ele>204.6</ele><time>2026-03-22T12:18:33.998Z</time></trkpt><trkpt lat="41.91645315089534" lon="15.884752421564203"><ele>204.8</ele><time>2026-03-22T12:18:35.998Z</time></trkpt><trkpt lat="41.91637475109226" lon="15.88464926479271"><ele>205.0</ele><time>2026-03-22T12:18:37.998Z</time></trkpt><trkpt lat="41.916311967288564" lon="15.884587450814848"><ele>205.0</ele><time>2026-03-22T12:18:39.998Z</time></trkpt><trkpt lat="41.91632504686779" lon="15.884427596620393"><ele>205.0</ele><time>2026-03-22T12:18:41.998Z</time></trkpt><trkpt lat="41.91631709443692" lon="15.884296111429386"><ele>205.0</ele><time>2026-03-22T12:18:42.998Z</time></trkpt><trkpt lat="41.91632610480871" lon="15.88419122444354"><ele>205.0</ele><time>2026-03-22T12:18:43.998Z</time></trkpt><trkpt lat="41.91636817076001" lon="15.884039448403211"><ele>205.0</ele><time>2026-03-22T12:18:45.998Z</time></trkpt><trkpt lat="41.91642836273522" lon="15.883967673905666"><ele>204.99999999999997</ele><time>2026-03-22T12:18:46.998Z</time></trkpt><trkpt lat="41.916482397423096" lon="15.883893409603639"><ele>205.0</ele><time>2026-03-22T12:18:47.998Z</time></trkpt><trkpt lat="41.916541501954505" lon="15.883819242169212"><ele>205.0</ele><time>2026-03-22T12:18:48.998Z</time></trkpt><trkpt lat="41.91662346096337" lon="15.883757367791981"><ele>205.0</ele><time>2026-03-22T12:18:49.998Z</time></trkpt><trkpt lat="41.91670598451321" lon="15.883716026844557"><ele>204.99999999999997</ele><time>2026-03-22T12:18:50.998Z</time></trkpt><trkpt lat="41.91675733060394" lon="15.883648749332938"><ele>205.0</ele><time>2026-03-22T12:18:51.998Z</time></trkpt><trkpt lat="41.91675813610635" lon="15.88351424526219"><ele>203.33333333333331</ele><time>2026-03-22T12:18:54Z</time></trkpt><trkpt lat="41.91668013769111" lon="15.883399912780064"><ele>201.66666666666666</ele><time>2026-03-22T12:18:56Z</time></trkpt><trkpt lat="41.91662734940963" lon="15.883342117517982"><ele>200.0</ele><time>2026-03-22T12:18:57Z</time></trkpt><trkpt lat="41.91657179022254" lon="15.883270661239376"><ele>198.33333333333331</ele><time>2026-03-22T12:18:58Z</time></trkpt><trkpt lat="41.91652557488968" lon="15.883184920390175"><ele>196.66666666666666</ele><time>2026-03-22T12:18:59Z</time></trkpt><trkpt lat="41.91651145670736" lon="15.88305497778295"><ele>195.0</ele><time>2026-03-22T12:19:00.999Z</time></trkpt><trkpt lat="41.91657665460686" lon="15.883012166655757"><ele>195.0</ele><time>2026-03-22T12:19:03Z</time></trkpt><trkpt lat="41.91669645597523" lon="15.883008284486447"><ele>195.0</ele><time>2026-03-22T12:19:05Z</time></trkpt><trkpt lat="41.916757837408774" lon="15.882967735496432"><ele>195.0</ele><time>2026-03-22T12:19:06Z</time></trkpt><trkpt lat="41.9167949971433" lon="15.882853204317042"><ele>195.0</ele><time>2026-03-22T12:19:08Z</time></trkpt><trkpt lat="41.91675938858702" lon="15.8827715256502"><ele>195.0</ele><time>2026-03-22T12:19:09Z</time></trkpt><trkpt lat="41.91672684293088" lon="15.882676916275605"><ele>195.0</ele><time>2026-03-22T12:19:10Z</time></trkpt><trkpt lat="41.91668213307308" lon="15.882544687437415"><ele>191.8</ele><time>2026-03-22T12:19:11Z</time></trkpt><trkpt lat="41.91664298593507" lon="15.882407298387815"><ele>188.6</ele><time>2026-03-22T12:19:11.999Z</time></trkpt><trkpt lat="41.91663818761217" lon="15.882265172895917"><ele>185.39999999999998</ele><time>2026-03-22T12:19:12.999Z</time></trkpt><trkpt lat="41.91662930369292" lon="15.882123616287187"><ele>182.2</ele><time>2026-03-22T12:19:13.999Z</time></trkpt><trkpt lat="41.91662257580852" lon="15.881980131701013"><ele>179.0</ele><time>2026-03-22T12:19:14.999Z</time></trkpt><trkpt lat="41.91661604705015" lon="15.881879371356645"><ele>179.0</ele><time>2026-03-22T12:19:15.999Z</time></trkpt><trkpt lat="41.91659356858173" lon="15.881797548751889"><ele>179.0</ele><time>2026-03-22T12:19:16.999Z</time></trkpt><trkpt lat="41.91649590292964" lon="15.881668348598698"><ele>179.0</ele><time>2026-03-22T12:19:18.999Z</time></trkpt><trkpt lat="41.91646694030129" lon="15.881568257370525"><ele>179.0</ele><time>2026-03-22T12:19:20.999Z</time></trkpt><trkpt lat="41.916538375772355" lon="15.881467298559743"><ele>179.0</ele><time>2026-03-22T12:19:22.999Z</time></trkpt><trkpt lat="41.916533827572444" lon="15.881333130356797"><ele>175.79999999999998</ele><time>2026-03-22T12:19:24.999Z</time></trkpt><trkpt lat="41.9164990627784" lon="15.881258622342463"><ele>172.6</ele><time>2026-03-22T12:19:25.999Z</time></trkpt><trkpt lat="41.91647222969704" lon="15.881143381561433"><ele>169.4</ele><time>2026-03-22T12:19:26.999Z</time></trkpt><trkpt lat="41.91643135740176" lon="15.881003237703943"><ele>166.2</ele><time>2026-03-22T12:19:27.999Z</time></trkpt><trkpt lat="41.91638359745653" lon="15.88088971888197"><ele>163.0</ele><time>2026-03-22T12:19:28.999Z</time></trkpt><trkpt lat="41.91632773543814" lon="15.880783661177775"><ele>160.5</ele><time>2026-03-22T12:19:29.999Z</time></trkpt><trkpt lat="41.916289374756545" lon="15.880687762135857"><ele>158.0</ele><time>2026-03-22T12:19:30.999Z</time></trkpt><trkpt lat="41.916259780126325" lon="15.880565555850596"><ele>155.5</ele><time>2026-03-22T12:19:32.999Z</time></trkpt><trkpt lat="41.91627490268809" lon="15.88046960287682"><ele>153.0</ele><time>2026-03-22T12:19:34.999Z</time></trkpt><trkpt lat="41.91634656483443" lon="15.880422491078438"><ele>150.5</ele><time>2026-03-22T12:19:37.999Z</time></trkpt><trkpt lat="41.91641126339172" lon="15.88049502388829"><ele>148.0</ele><time>2026-03-22T12:19:39.999Z</time></trkpt><trkpt lat="41.91649125800204" lon="15.880448215334237"><ele>148.0</ele><time>2026-03-22T12:19:42.999Z</time></trkpt><trkpt lat="41.91653243464186" lon="15.880369732460123"><ele>148.0</ele><time>2026-03-22T12:19:44.999Z</time></trkpt><trkpt lat="41.916610730769726" lon="15.880342400473676"><ele>148.0</ele><time>2026-03-22T12:19:47.999Z</time></trkpt><trkpt lat="41.916684681189736" lon="15.880430931774514"><ele>148.0</ele><time>2026-03-22T12:19:50.999Z</time></trkpt><trkpt lat="41.916744004599735" lon="15.88051525739476"><ele>148.0</ele><time>2026-03-22T12:19:52.999Z</time></trkpt><trkpt lat="41.916783369080996" lon="15.880604352151797"><ele>148.0</ele><time>2026-03-22T12:19:56.999Z</time></trkpt><trkpt lat="41.916838748271225" lon="15.880660737700953"><ele>144.8</ele><time>2026-03-22T12:20:00.999Z</time></trkpt><trkpt lat="41.91691251364602" lon="15.880694619087116"><ele>141.60000000000002</ele><time>2026-03-22T12:20:03.999Z</time></trkpt><trkpt lat="41.91701629415457" lon="15.880695583764249"><ele>138.39999999999998</ele><time>2026-03-22T12:20:06.999Z</time></trkpt><trkpt lat="41.91711474775785" lon="15.880739997314402"><ele>135.2</ele><time>2026-03-22T12:20:08.999Z</time></trkpt><trkpt lat="41.91725014521496" lon="15.880744223948794"><ele>132.0</ele><time>2026-03-22T12:20:10.999Z</time></trkpt><trkpt lat="41.91733570500196" lon="15.880762152020608"><ele>132.0</ele><time>2026-03-22T12:20:11.999Z</time></trkpt><trkpt lat="41.917411240383615" lon="15.880818497446565"><ele>132.0</ele><time>2026-03-22T12:20:13.999Z</time></trkpt><trkpt lat="41.91752264303581" lon="15.880934020198357"><ele>132.0</ele><time>2026-03-22T12:20:15.998Z</time></trkpt><trkpt lat="41.91760755477147" lon="15.88098451153066"><ele>132.0</ele><time>2026-03-22T12:20:16.998Z</time></trkpt><trkpt lat="41.917697631114805" lon="15.881035384621374"><ele>132.0</ele><time>2026-03-22T12:20:17.998Z</time></trkpt><trkpt lat="41.91779250619175" lon="15.881040667442248"><ele>131.6</ele><time>2026-03-22T12:20:18.998Z</time></trkpt><trkpt lat="41.91790240889037" lon="15.881021037688818"><ele>131.2</ele><time>2026-03-22T12:20:19.998Z</time></trkpt><trkpt lat="41.91801625432666" lon="15.88094101405283"><ele>130.8</ele><time>2026-03-22T12:20:20.998Z</time></trkpt><trkpt lat="41.91808702827401" lon="15.88086145186741"><ele>130.4</ele><time>2026-03-22T12:20:21.998Z</time></trkpt><trkpt lat="41.918118167701905" lon="15.880753203827327"><ele>130.0</ele><time>2026-03-22T12:20:22.998Z</time></trkpt><trkpt lat="41.91816621606722" lon="15.880651943676215"><ele>130.0</ele><time>2026-03-22T12:20:23.998Z</time></trkpt><trkpt lat="41.918236815557556" lon="15.880589516922871"><ele>130.0</ele><time>2026-03-22T12:20:24.998Z</time></trkpt><trkpt lat="41.9183165247735" lon="15.880542822758114"><ele>130.0</ele><time>2026-03-22T12:20:25.998Z</time></trkpt><trkpt lat="41.91841527239027" lon="15.880475247293836"><ele>130.0</ele><time>2026-03-22T12:20:26.998Z</time></trkpt><trkpt lat="41.91847611579192" lon="15.88043136547286"><ele>130.0</ele><time>2026-03-22T12:20:27.998Z</time></trkpt><trkpt lat="41.91855981691228" lon="15.880326045570808"><ele>126.0</ele><time>2026-03-22T12:20:29.998Z</time></trkpt><trkpt lat="41.91861371514033" lon="15.880171380416254"><ele>122.0</ele><time>2026-03-22T12:20:31.998Z</time></trkpt><trkpt lat="41.91863994435103" lon="15.880049176241569"><ele>118.0</ele><time>2026-03-22T12:20:32.998Z</time></trkpt><trkpt lat="41.91866712816406" lon="15.879872513832165"><ele>114.0</ele><time>2026-03-22T12:20:33.998Z</time></trkpt><trkpt lat="41.91870191446903" lon="15.879718604526056"><ele>113.5</ele><time>2026-03-22T12:20:34.998Z</time></trkpt><trkpt lat="41.918710009393514" lon="15.879604304531101"><ele>113.0</ele><time>2026-03-22T12:20:35.998Z</time></trkpt><trkpt lat="41.91870127064497" lon="15.879504198512064"><ele>112.5</ele><time>2026-03-22T12:20:36.998Z</time></trkpt><trkpt lat="41.91869752139059" lon="15.879410224828494"><ele>112.0</ele><time>2026-03-22T12:20:37.998Z</time></trkpt><trkpt lat="41.91868113668051" lon="15.879316320220628"><ele>111.5</ele><time>2026-03-22T12:20:38.998Z</time></trkpt><trkpt lat="41.91866082297877" lon="15.879230564011003"><ele>111.0</ele><time>2026-03-22T12:20:39.998Z</time></trkpt><trkpt lat="41.918608447822116" lon="15.879088914168998"><ele>110.5</ele><time>2026-03-22T12:20:41.998Z</time></trkpt><trkpt lat="41.91853882456725" lon="15.878967781724192"><ele>110.0</ele><time>2026-03-22T12:20:43.998Z</time></trkpt><trkpt lat="41.91848696764194" lon="15.878879822523936"><ele>109.5</ele><time>2026-03-22T12:20:45.998Z</time></trkpt><trkpt lat="41.918428206657026" lon="15.87881089202335"><ele>109.0</ele><time>2026-03-22T12:20:49.998Z</time></trkpt><trkpt lat="41.918351446105945" lon="15.878795966379602"><ele>108.5</ele><time>2026-03-22T12:20:51.998Z</time></trkpt><trkpt lat="41.91828180987639" lon="15.878836340170709"><ele>108.0</ele><time>2026-03-22T12:21:10Z</time></trkpt><trkpt lat="41.918143150192684" lon="15.878881576535846"><ele>107.80000000000001</ele><time>2026-03-22T12:21:12Z</time></trkpt><trkpt lat="41.91803994184746" lon="15.878865567115064"><ele>107.60000000000001</ele><time>2026-03-22T12:21:13Z</time></trkpt><trkpt lat="41.9179491712064" lon="15.878822934057226"><ele>107.39999999999999</ele><time>2026-03-22T12:21:14Z</time></trkpt><trkpt lat="41.91785048680224" lon="15.878737612614653"><ele>107.19999999999999</ele><time>2026-03-22T12:21:15Z</time></trkpt><trkpt lat="41.91779146790164" lon="15.878602111830038"><ele>107.0</ele><time>2026-03-22T12:21:16Z</time></trkpt><trkpt lat="41.917740982230434" lon="15.878424751981301"><ele>103.33333333333333</ele><time>2026-03-22T12:21:17Z</time></trkpt><trkpt lat="41.91771243700654" lon="15.878217299130045"><ele>99.66666666666666</ele><time>2026-03-22T12:21:18Z</time></trkpt><trkpt lat="41.91771976555395" lon="15.878002356419422"><ele>96.0</ele><time>2026-03-22T12:21:19Z</time></trkpt><trkpt lat="41.91775531040951" lon="15.877781152770263"><ele>93.0</ele><time>2026-03-22T12:21:20Z</time></trkpt><trkpt lat="41.91782051889094" lon="15.877537364148004"><ele>90.0</ele><time>2026-03-22T12:21:21Z</time></trkpt><trkpt lat="41.91792079148691" lon="15.87729296570247"><ele>87.0</ele><time>2026-03-22T12:21:22Z</time></trkpt><trkpt lat="41.91804509730141" lon="15.877033315247715"><ele>88.5</ele><time>2026-03-22T12:21:22.999Z</time></trkpt><trkpt lat="41.918189554257985" lon="15.876753527832117"><ele>90.0</ele><time>2026-03-22T12:21:23.999Z</time></trkpt><trkpt lat="41.918337319590705" lon="15.87644433691636"><ele>84.0</ele><time>2026-03-22T12:21:24.999Z</time></trkpt><trkpt lat="41.918467273788984" lon="15.87615385423995"><ele>78.0</ele><time>2026-03-22T12:21:25.999Z</time></trkpt><trkpt lat="41.918595124315296" lon="15.875900327383178"><ele>78.0</ele><time>2026-03-22T12:21:26.999Z</time></trkpt><trkpt lat="41.91871240818958" lon="15.875678417657996"><ele>78.0</ele><time>2026-03-22T12:21:27.999Z</time></trkpt><trkpt lat="41.91885230880252" lon="15.875485160737965"><ele>78.0</ele><time>2026-03-22T12:21:28.999Z</time></trkpt><trkpt lat="41.91904224542894" lon="15.875300742063859"><ele>75.0</ele><time>2026-03-22T12:21:29.999Z</time></trkpt><trkpt lat="41.91927318433815" lon="15.87511820096437"><ele>72.0</ele><time>2026-03-22T12:21:30.999Z</time></trkpt><trkpt lat="41.91948328989517" lon="15.87500859233369"><ele>72.0</ele><time>2026-03-22T12:21:31.999Z</time></trkpt><trkpt lat="41.9196567862821" lon="15.874860038860989"><ele>72.0</ele><time>2026-03-22T12:21:32.999Z</time></trkpt><trkpt lat="41.91981676604463" lon="15.874733762675826"><ele>72.0</ele><time>2026-03-22T12:21:33.999Z</time></trkpt><trkpt lat="41.91995360152002" lon="15.874632812882979"><ele>70.25</ele><time>2026-03-22T12:21:34.999Z</time></trkpt><trkpt lat="41.9200789870055" lon="15.874541236665248"><ele>68.5</ele><time>2026-03-22T12:21:35.999Z</time></trkpt><trkpt lat="41.920195835066714" lon="15.874451396269757"><ele>66.75</ele><time>2026-03-22T12:21:36.999Z</time></trkpt><trkpt lat="41.92028134028991" lon="15.874315173106293"><ele>65.0</ele><time>2026-03-22T12:21:37.999Z</time></trkpt><trkpt lat="41.920360791870074" lon="15.87419949399338"><ele>65.0</ele><time>2026-03-22T12:21:38.999Z</time></trkpt><trkpt lat="41.92038864967688" lon="15.874031952653347"><ele>65.0</ele><time>2026-03-22T12:21:39.999Z</time></trkpt><trkpt lat="41.92038177267205" lon="15.873853430650989"><ele>65.0</ele><time>2026-03-22T12:21:40.999Z</time></trkpt><trkpt lat="41.920337040476554" lon="15.873670845381813"><ele>65.0</ele><time>2026-03-22T12:21:41.999Z</time></trkpt><trkpt lat="41.92025996064181" lon="15.873468684201645"><ele>65.75</ele><time>2026-03-22T12:21:42.999Z</time></trkpt><trkpt lat="41.92016329122756" lon="15.87329570174472"><ele>66.5</ele><time>2026-03-22T12:21:43.999Z</time></trkpt><trkpt lat="41.920086422698326" lon="15.873156823049504"><ele>67.25</ele><time>2026-03-22T12:21:44.999Z</time></trkpt><trkpt lat="41.9200375877607" lon="15.873030193121023"><ele>68.0</ele><time>2026-03-22T12:21:45.999Z</time></trkpt><trkpt lat="41.92000639947267" lon="15.872922367569219"><ele>68.0</ele><time>2026-03-22T12:21:46.999Z</time></trkpt><trkpt lat="41.91999422135184" lon="15.872810437139776"><ele>68.0</ele><time>2026-03-22T12:21:47.999Z</time></trkpt><trkpt lat="41.92000450095598" lon="15.872716049774883"><ele>68.0</ele><time>2026-03-22T12:21:48.999Z</time></trkpt><trkpt lat="41.9200521763687" lon="15.872660778620665"><ele>68.0</ele><time>2026-03-22T12:21:49.999Z</time></trkpt><trkpt lat="41.92018424344251" lon="15.872678916225011"><ele>68.0</ele><time>2026-03-22T12:21:51.999Z</time></trkpt><trkpt lat="41.92029323325258" lon="15.872746594796267"><ele>68.0</ele><time>2026-03-22T12:21:52.999Z</time></trkpt><trkpt lat="41.92042661407638" lon="15.87283131269441"><ele>68.0</ele><time>2026-03-22T12:21:53.999Z</time></trkpt><trkpt lat="41.92058922108367" lon="15.8728897317271"><ele>68.0</ele><time>2026-03-22T12:21:54.999Z</time></trkpt><trkpt lat="41.92077372404408" lon="15.872933489353693"><ele>64.5</ele><time>2026-03-22T12:21:55.999Z</time></trkpt><trkpt lat="41.92094627173561" lon="15.87294226138147"><ele>61.0</ele><time>2026-03-22T12:21:56.999Z</time></trkpt><trkpt lat="41.92109252920941" lon="15.872961725341845"><ele>57.5</ele><time>2026-03-22T12:21:57.999Z</time></trkpt><trkpt lat="41.92120719812005" lon="15.873016609895046"><ele>54.0</ele><time>2026-03-22T12:21:58.999Z</time></trkpt><trkpt lat="41.921313912787205" lon="15.873089642993794"><ele>54.0</ele><time>2026-03-22T12:21:59.999Z</time></trkpt><trkpt lat="41.92139665973177" lon="15.873183802669281"><ele>54.00000000000001</ele><time>2026-03-22T12:22:00.999Z</time></trkpt><trkpt lat="41.92144386052201" lon="15.873307152821793"><ele>54.00000000000001</ele><time>2026-03-22T12:22:01.999Z</time></trkpt><trkpt lat="41.921415444726506" lon="15.873428970574297"><ele>54.0</ele><time>2026-03-22T12:22:02.999Z</time></trkpt><trkpt lat="41.921372613369215" lon="15.873555759578133"><ele>54.0</ele><time>2026-03-22T12:22:03.999Z</time></trkpt><trkpt lat="41.92132190093658" lon="15.873705122798366"><ele>54.25</ele><time>2026-03-22T12:22:04.999Z</time></trkpt><trkpt lat="41.92128415862792" lon="15.873871815368888"><ele>54.5</ele><time>2026-03-22T12:22:05.999Z</time></trkpt><trkpt lat="41.92126906651989" lon="15.87405004726743"><ele>54.75</ele><time>2026-03-22T12:22:06.999Z</time></trkpt><trkpt lat="41.921312766099646" lon="15.874246937813098"><ele>55.0</ele><time>2026-03-22T12:22:07.999Z</time></trkpt><trkpt lat="41.92139078831778" lon="15.87438342631778"><ele>56.5</ele><time>2026-03-22T12:22:08.999Z</time></trkpt><trkpt lat="41.92145816244135" lon="15.87452301831659"><ele>58.0</ele><time>2026-03-22T12:22:09.999Z</time></trkpt><trkpt lat="41.921544072196276" lon="15.874637097529833"><ele>59.5</ele><time>2026-03-22T12:22:10.999Z</time></trkpt><trkpt lat="41.92165079249379" lon="15.874705393461474"><ele>61.0</ele><time>2026-03-22T12:22:11.999Z</time></trkpt><trkpt lat="41.92177126516876" lon="15.874738007422785"><ele>61.0</ele><time>2026-03-22T12:22:12.999Z</time></trkpt><trkpt lat="41.92191731577279" lon="15.87472662791036"><ele>61.0</ele><time>2026-03-22T12:22:13.999Z</time></trkpt><trkpt lat="41.92209015714528" lon="15.874666446278333"><ele>61.0</ele><time>2026-03-22T12:22:14.999Z</time></trkpt><trkpt lat="41.92229295348053" lon="15.874572281946273"><ele>61.0</ele><time>2026-03-22T12:22:15.999Z</time></trkpt><trkpt lat="41.92253815286938" lon="15.874461724391482"><ele>61.0</ele><time>2026-03-22T12:22:16.999Z</time></trkpt><trkpt lat="41.92276619771786" lon="15.874360894472103"><ele>58.33333333333333</ele><time>2026-03-22T12:22:17.999Z</time></trkpt><trkpt lat="41.92297533047032" lon="15.874270264827588"><ele>55.66666666666667</ele><time>2026-03-22T12:22:18.999Z</time></trkpt><trkpt lat="41.92315631933254" lon="15.874225297438661"><ele>53.0</ele><time>2026-03-22T12:22:19.999Z</time></trkpt><trkpt lat="41.92330953040153" lon="15.874217026789845"><ele>52.0</ele><time>2026-03-22T12:22:20.999Z</time></trkpt><trkpt lat="41.92345160445428" lon="15.874269210055516"><ele>51.0</ele><time>2026-03-22T12:22:21.999Z</time></trkpt><trkpt lat="41.92357601647675" lon="15.874359298857225"><ele>50.0</ele><time>2026-03-22T12:22:22.999Z</time></trkpt><trkpt lat="41.92368403912584" lon="15.874463209264544"><ele>49.0</ele><time>2026-03-22T12:22:23.999Z</time></trkpt><trkpt lat="41.92374956514953" lon="15.874611687753266"><ele>48.99999999999999</ele><time>2026-03-22T12:22:24.999Z</time></trkpt><trkpt lat="41.92379118170674" lon="15.874749032223347"><ele>49.0</ele><time>2026-03-22T12:22:25.999Z</time></trkpt><trkpt lat="41.92381989182476" lon="15.87487299326462"><ele>49.0</ele><time>2026-03-22T12:22:26.999Z</time></trkpt><trkpt lat="41.92383877733256" lon="15.8749569973137"><ele>49.0</ele><time>2026-03-22T12:22:27.998Z</time></trkpt><trkpt lat="41.923877872262544" lon="15.875051712003572"><ele>48.99999999999999</ele><time>2026-03-22T12:22:29.998Z</time></trkpt><trkpt lat="41.92390274255488" lon="15.875131498167153"><ele>49.0</ele><time>2026-03-22T12:22:33.998Z</time></trkpt><trkpt lat="41.92392547657647" lon="15.875212715410317"><ele>51.5</ele><time>2026-03-22T12:22:35.998Z</time></trkpt><trkpt lat="41.92432027058703" lon="15.875171229073478"><ele>54.0</ele><time>2026-03-22T12:22:36.998Z</time></trkpt><trkpt lat="41.92443189380006" lon="15.875231139699094"><ele>54.0</ele><time>2026-03-22T12:22:37.998Z</time></trkpt><trkpt lat="41.924554383380354" lon="15.875284875286484"><ele>54.00000000000001</ele><time>2026-03-22T12:22:38.998Z</time></trkpt><trkpt lat="41.92464978993886" lon="15.87534697674229"><ele>54.00000000000001</ele><time>2026-03-22T12:22:39.998Z</time></trkpt><trkpt lat="41.92472730082362" lon="15.875401047258654"><ele>54.0</ele><time>2026-03-22T12:22:40.998Z</time></trkpt><trkpt lat="41.92477852542069" lon="15.875467128828335"><ele>54.0</ele><time>2026-03-22T12:22:41.998Z</time></trkpt><trkpt lat="41.92479844541298" lon="15.875616913486844"><ele>54.0</ele><time>2026-03-22T12:22:43.998Z</time></trkpt><trkpt lat="41.92477618574604" lon="15.875696725470585"><ele>54.0</ele><time>2026-03-22T12:22:44.998Z</time></trkpt><trkpt lat="41.92473195151912" lon="15.875793042510777"><ele>54.0</ele><time>2026-03-22T12:22:45.998Z</time></trkpt><trkpt lat="41.924741186870655" lon="15.875877307086336"><ele>54.0</ele><time>2026-03-22T12:22:47.998Z</time></trkpt><trkpt lat="41.92480362875365" lon="15.875999959886668"><ele>54.0</ele><time>2026-03-22T12:22:49.998Z</time></trkpt><trkpt lat="41.92484878395402" lon="15.876095224691033"><ele>54.0</ele><time>2026-03-22T12:22:50.998Z</time></trkpt><trkpt lat="41.924884540129334" lon="15.876178581304021"><ele>55.800000000000004</ele><time>2026-03-22T12:22:51.998Z</time></trkpt><trkpt lat="41.9249669218005" lon="15.876270700590144"><ele>57.60000000000001</ele><time>2026-03-22T12:22:53.998Z</time></trkpt><trkpt lat="41.92509165525538" lon="15.876274401364425"><ele>59.4</ele><time>2026-03-22T12:22:55.998Z</time></trkpt><trkpt lat="41.92516596172771" lon="15.876250232149216"><ele>61.2</ele><time>2026-03-22T12:22:56.998Z</time></trkpt><trkpt lat="41.925239489648696" lon="15.876178882148723"><ele>63.0</ele><time>2026-03-22T12:22:58.998Z</time></trkpt><trkpt lat="41.92527315637243" lon="15.87609113215623"><ele>63.2</ele><time>2026-03-22T12:23:00.998Z</time></trkpt><trkpt lat="41.925292574261725" lon="15.875974073445635"><ele>63.4</ele><time>2026-03-22T12:23:02.998Z</time></trkpt><trkpt lat="41.92532631273257" lon="15.875843713674808"><ele>63.60000000000001</ele><time>2026-03-22T12:23:05Z</time></trkpt><trkpt lat="41.925371645325924" lon="15.875694463717736"><ele>63.800000000000004</ele><time>2026-03-22T12:23:07Z</time></trkpt><trkpt lat="41.92542044565951" lon="15.875602363664886"><ele>64.0</ele><time>2026-03-22T12:23:08Z</time></trkpt><trkpt lat="41.92546253277574" lon="15.875492702189584"><ele>63.400000000000006</ele><time>2026-03-22T12:23:08.999Z</time></trkpt><trkpt lat="41.925517360649735" lon="15.875391292980085"><ele>62.800000000000004</ele><time>2026-03-22T12:23:09.999Z</time></trkpt><trkpt lat="41.92555962428383" lon="15.875298742471493"><ele>62.199999999999996</ele><time>2026-03-22T12:23:11Z</time></trkpt><trkpt lat="41.92561215437266" lon="15.875184364903461"><ele>61.599999999999994</ele><time>2026-03-22T12:23:13Z</time></trkpt><trkpt lat="41.92561797837565" lon="15.87505368296774"><ele>61.0</ele><time>2026-03-22T12:23:37.999Z</time></trkpt><trkpt lat="41.925665713380425" lon="15.874926726371804"><ele>60.99999999999999</ele><time>2026-03-22T12:23:39.999Z</time></trkpt><trkpt lat="41.925655374589624" lon="15.875035054326702"><ele>61.0</ele><time>2026-03-22T12:23:49.999Z</time></trkpt><trkpt lat="41.92558954918056" lon="15.87519666786782"><ele>61.0</ele><time>2026-03-22T12:23:51.999Z</time></trkpt><trkpt lat="41.92555100435886" lon="15.875296013059213"><ele>61.0</ele><time>2026-03-22T12:23:53.999Z</time></trkpt><trkpt lat="41.92548619993427" lon="15.87529395554851"><ele>60.99999999999999</ele><time>2026-03-22T12:24:42.998Z</time></trkpt><trkpt lat="41.92554787552867" lon="15.875250844112662"><ele>61.0</ele><time>2026-03-22T12:25:17Z</time></trkpt><trkpt lat="41.92560591103843" lon="15.875210704568307"><ele>61.0</ele><time>2026-03-22T12:25:54.999Z</time></trkpt><trkpt lat="41.925570584623074" lon="15.875294618608"><ele>60.99999999999999</ele><time>2026-03-22T12:27:06.998Z</time></trkpt><trkpt lat="41.925508895981594" lon="15.875368531039804"><ele>60.99999999999999</ele><time>2026-03-22T12:27:31.999Z</time></trkpt><trkpt lat="41.9254323219022" lon="15.875510593273287"><ele>61.0</ele><time>2026-03-22T12:27:33.999Z</time></trkpt><trkpt lat="41.925362219739505" lon="15.87566505678854"><ele>61.0</ele><time>2026-03-22T12:27:34.999Z</time></trkpt><trkpt lat="41.92532513371111" lon="15.875802346950199"><ele>60.99999999999999</ele><time>2026-03-22T12:27:35.999Z</time></trkpt><trkpt lat="41.92530905307317" lon="15.875917564233172"><ele>61.0</ele><time>2026-03-22T12:27:36.999Z</time></trkpt><trkpt lat="41.92531790713011" lon="15.876009217081025"><ele>61.0</ele><time>2026-03-22T12:27:38.999Z</time></trkpt><trkpt lat="41.9253686877735" lon="15.876078906568884"><ele>61.0</ele><time>2026-03-22T12:27:58.999Z</time></trkpt><trkpt lat="41.9254284700791" lon="15.876038079657008"><ele>60.99999999999999</ele><time>2026-03-22T12:27:59.999Z</time></trkpt><trkpt lat="41.92552596793853" lon="15.875988966017905"><ele>61.0</ele><time>2026-03-22T12:28:01.999Z</time></trkpt><trkpt lat="41.92557252927467" lon="15.875910020635102"><ele>60.99999999999999</ele><time>2026-03-22T12:28:02.999Z</time></trkpt><trkpt lat="41.92562356504608" lon="15.875856100479863"><ele>61.0</ele><time>2026-03-22T12:28:04.999Z</time></trkpt><trkpt lat="41.92563753657145" lon="15.875756041072115"><ele>61.0</ele><time>2026-03-22T12:28:28.998Z</time></trkpt><trkpt lat="41.925575702006526" lon="15.875722477908878"><ele>61.0</ele><time>2026-03-22T12:28:37.998Z</time></trkpt><trkpt lat="41.925481855846904" lon="15.875671078899762"><ele>60.99999999999999</ele><time>2026-03-22T12:29:04.998Z</time></trkpt><trkpt lat="41.92555340757801" lon="15.875724859743332"><ele>61.0</ele><time>2026-03-22T12:30:30.999Z</time></trkpt><trkpt lat="41.92562332238342" lon="15.875753863925786"><ele>60.99999999999999</ele><time>2026-03-22T12:30:33.999Z</time></trkpt><trkpt lat="41.92559206368782" lon="15.875829790875331"><ele>61.0</ele><time>2026-03-22T12:30:39.998Z</time></trkpt><trkpt lat="41.92552232540043" lon="15.87587221812857"><ele>61.0</ele><time>2026-03-22T12:31:22.998Z</time></trkpt><trkpt lat="41.92545683185695" lon="15.875946956145418"><ele>61.0</ele><time>2026-03-22T12:31:24.998Z</time></trkpt><trkpt lat="41.92539043194155" lon="15.876042125445172"><ele>60.99999999999999</ele><time>2026-03-22T12:31:26.998Z</time></trkpt><trkpt lat="41.92533533766974" lon="15.875995698309666"><ele>61.0</ele><time>2026-03-22T12:31:31.999Z</time></trkpt><trkpt lat="41.92531676934375" lon="15.875914683818944"><ele>60.99999999999999</ele><time>2026-03-22T12:31:34.999Z</time></trkpt><trkpt lat="41.92533669564688" lon="15.87581200351326"><ele>61.0</ele><time>2026-03-22T12:31:37Z</time></trkpt><trkpt lat="41.925386893167016" lon="15.875707082066047"><ele>61.0</ele><time>2026-03-22T12:31:38.999Z</time></trkpt><trkpt lat="41.925440375150615" lon="15.875593585361413"><ele>61.0</ele><time>2026-03-22T12:31:40.999Z</time></trkpt><trkpt lat="41.92547713171975" lon="15.87552215168068"><ele>60.99999999999999</ele><time>2026-03-22T12:31:41.999Z</time></trkpt><trkpt lat="41.925526592242626" lon="15.875389580596126"><ele>61.0</ele><time>2026-03-22T12:31:43.999Z</time></trkpt><trkpt lat="41.925573870078516" lon="15.875294253156117"><ele>60.99999999999999</ele><time>2026-03-22T12:31:45.999Z</time></trkpt><trkpt lat="41.92561668177709" lon="15.875217118753834"><ele>61.0</ele><time>2026-03-22T12:31:47.999Z</time></trkpt><trkpt lat="41.92558312530472" lon="15.875298219387732"><ele>60.99999999999999</ele><time>2026-03-22T12:31:59.999Z</time></trkpt><trkpt lat="41.92560419800339" lon="15.875205413731013"><ele>60.99999999999999</ele><time>2026-03-22T12:32:25.999Z</time></trkpt><trkpt lat="41.92557926095616" lon="15.87530042474495"><ele>61.0</ele><time>2026-03-22T12:33:27.998Z</time></trkpt><trkpt lat="41.92555062638831" lon="15.875397606404906"><ele>60.99999999999999</ele><time>2026-03-22T12:33:31.998Z</time></trkpt><trkpt lat="41.925500692124594" lon="15.875473157293634"><ele>60.99999999999999</ele><time>2026-03-22T12:33:41.999Z</time></trkpt><trkpt lat="41.92543647320595" lon="15.875622226607447"><ele>60.99999999999999</ele><time>2026-03-22T12:33:44Z</time></trkpt><trkpt lat="41.925390289270695" lon="15.875707313108387"><ele>61.0</ele><time>2026-03-22T12:33:45Z</time></trkpt><trkpt lat="41.92533223581623" lon="15.875831873529284"><ele>61.0</ele><time>2026-03-22T12:33:47Z</time></trkpt><trkpt lat="41.92530840062288" lon="15.875975790767821"><ele>61.0</ele><time>2026-03-22T12:33:48.999Z</time></trkpt><trkpt lat="41.92527626280584" lon="15.876064711576479"><ele>60.99999999999999</ele><time>2026-03-22T12:33:51.999Z</time></trkpt><trkpt lat="41.92523311329996" lon="15.876132648876355"><ele>61.0</ele><time>2026-03-22T12:34:10.999Z</time></trkpt><trkpt lat="41.92525534559824" lon="15.876225470196776"><ele>61.599999999999994</ele><time>2026-03-22T12:34:15.999Z</time></trkpt><trkpt lat="41.92534446398595" lon="15.876260960431267"><ele>62.199999999999996</ele><time>2026-03-22T12:34:17.999Z</time></trkpt><trkpt lat="41.92541873635328" lon="15.876252469017885"><ele>62.800000000000004</ele><time>2026-03-22T12:34:18.999Z</time></trkpt><trkpt lat="41.92548892526354" lon="15.876256150221836"><ele>63.400000000000006</ele><time>2026-03-22T12:34:19.999Z</time></trkpt><trkpt lat="41.92559402073586" lon="15.876233258145682"><ele>64.0</ele><time>2026-03-22T12:34:21.999Z</time></trkpt><trkpt lat="41.92566290334551" lon="15.87611075665515"><ele>63.99999999999999</ele><time>2026-03-22T12:34:23.999Z</time></trkpt><trkpt lat="41.92570864911642" lon="15.875994214249658"><ele>64.0</ele><time>2026-03-22T12:34:24.999Z</time></trkpt><trkpt lat="41.9257176595706" lon="15.875880699279769"><ele>64.0</ele><time>2026-03-22T12:34:26.999Z</time></trkpt><trkpt lat="41.92565224315803" lon="15.875904900510642"><ele>64.0</ele><time>2026-03-22T12:34:28.999Z</time></trkpt><trkpt lat="41.92559207740545" lon="15.875981160755432"><ele>63.99999999999999</ele><time>2026-03-22T12:34:30.999Z</time></trkpt><trkpt lat="41.92565820566026" lon="15.875926273640014"><ele>64.0</ele><time>2026-03-22T12:34:42.999Z</time></trkpt><trkpt lat="41.92564192863265" lon="15.875825827167834"><ele>63.99999999999999</ele><time>2026-03-22T12:34:46.999Z</time></trkpt><trkpt lat="41.92562760911242" lon="15.875908230564901"><ele>64.0</ele><time>2026-03-22T12:35:26.998Z</time></trkpt><trkpt lat="41.92563203979528" lon="15.87601061307173"><ele>64.0</ele><time>2026-03-22T12:35:37.998Z</time></trkpt><trkpt lat="41.92556657797317" lon="15.876078298430656"><ele>64.0</ele><time>2026-03-22T12:35:42Z</time></trkpt><trkpt lat="41.925483436209824" lon="15.876145967303543"><ele>63.99999999999999</ele><time>2026-03-22T12:35:44Z</time></trkpt><trkpt lat="41.92538884970314" lon="15.876178450390608"><ele>64.0</ele><time>2026-03-22T12:35:46Z</time></trkpt><trkpt lat="41.92528800380125" lon="15.876172183938438"><ele>63.99999999999999</ele><time>2026-03-22T12:35:48Z</time></trkpt><trkpt lat="41.92530853557818" lon="15.876079279750165"><ele>64.0</ele><time>2026-03-22T12:35:51Z</time></trkpt><trkpt lat="41.925342005809526" lon="15.875999918946903"><ele>64.0</ele><time>2026-03-22T12:35:53Z</time></trkpt><trkpt lat="41.925390129713485" lon="15.875829739598565"><ele>64.0</ele><time>2026-03-22T12:35:55Z</time></trkpt><trkpt lat="41.92543662873225" lon="15.875752917352115"><ele>63.99999999999999</ele><time>2026-03-22T12:35:56Z</time></trkpt><trkpt lat="41.92547096255164" lon="15.875676743996216"><ele>64.0</ele><time>2026-03-22T12:35:57Z</time></trkpt><trkpt lat="41.92550299884372" lon="15.87556561099676"><ele>61.0</ele><time>2026-03-22T12:35:59Z</time></trkpt><trkpt lat="41.92552878146651" lon="15.875466635873934"><ele>61.0</ele><time>2026-03-22T12:36:00.999Z</time></trkpt><trkpt lat="41.92555857569213" lon="15.87535770335275"><ele>61.0</ele><time>2026-03-22T12:36:03.999Z</time></trkpt><trkpt lat="41.92555177390515" lon="15.875270760916898"><ele>61.0</ele><time>2026-03-22T12:36:31.999Z</time></trkpt><trkpt lat="41.9255797245504" lon="15.875187964873872"><ele>61.0</ele><time>2026-03-22T12:36:36.999Z</time></trkpt></trkseg></trk></gpx>